
Distance (Route):
Temperature : 18.1°C
Humidity : 75.9%
Pressure : 993.8hPa| Receiver | Frames | First received | Last received |
|---|---|---|---|
| DL1XH-west | 564 | 2026-08-31 06:52:59 | 2026-08-31 08:31:39 |
| BIOWL1-15 | 552 | 2026-08-31 06:47:59 | 2026-08-31 08:31:29 |
| DM0DOS-11 | 535 | 2026-08-31 06:46:21 | 2026-08-31 08:32:16 |
| DO2JMG | 468 | 2026-08-31 06:58:38 | 2026-08-31 08:26:17 |
| DN9WHV | 408 | 2026-08-31 06:50:37 | 2026-08-31 08:32:08 |
| DL1XH1-15 | 393 | 2026-08-31 06:51:43 | 2026-08-31 08:31:22 |
| DL1XH-15 | 327 | 2026-08-31 07:00:08 | 2026-08-31 08:29:15 |
| AA1-15 | 268 | 2026-08-31 07:13:09 | 2026-08-31 08:21:31 |
| GOEST3-10 | 267 | 2026-08-31 06:50:38 | 2026-08-31 08:31:59 |
| DB0DAN | 226 | 2026-08-31 07:03:10 | 2026-08-31 08:29:40 |
| DF8AY | 216 | 2026-08-31 07:15:47 | 2026-08-31 08:16:01 |
| HSKMA3-T | 161 | 2026-08-31 07:30:49 | 2026-08-31 08:12:05 |
| DJ2DS-15 | 146 | 2026-08-31 06:47:34 | 2026-08-31 08:32:39 |
| DD8BA-10 | 119 | 2026-08-31 06:48:16 | 2026-08-31 08:30:24 |
| DO2SHX-10 | 100 | 2026-08-31 07:25:42 | 2026-08-31 08:12:28 |
| DL1NUX | 95 | 2026-08-31 07:27:18 | 2026-08-31 08:09:53 |
| DL4BBY-15 | 89 | 2026-08-31 06:47:40 | 2026-08-31 08:26:13 |
| DO9LL-15 | 64 | 2026-08-31 06:47:40 | 2026-08-31 08:22:56 |
| DL3AQ-11 | 54 | 2026-08-31 06:59:47 | 2026-08-31 08:16:00 |
| DF5WG-10 | 41 | 2026-08-31 06:59:02 | 2026-08-31 08:31:43 |
| DB0UT-7 | 34 | 2026-08-31 07:00:20 | 2026-08-31 08:22:15 |
| DL4XJ-10 | 34 | 2026-08-31 07:18:51 | 2026-08-31 08:23:50 |
| HTAHTA | 32 | 2026-08-31 06:52:44 | 2026-08-31 08:26:55 |
| DC6BW-12 | 31 | 2026-08-31 06:47:34 | 2026-08-31 08:25:34 |
| BIOWL9-15 | 27 | 2026-08-31 06:52:37 | 2026-08-31 08:27:50 |
| DF4FW | 26 | 2026-08-31 06:54:50 | 2026-08-31 08:28:13 |
| BIOWL7-15 | 25 | 2026-08-31 06:47:52 | 2026-08-31 08:29:08 |
| DL1CLM-18 | 23 | 2026-08-31 06:47:35 | 2026-08-31 08:30:22 |
| SONCRA | 23 | 2026-08-31 07:05:38 | 2026-08-31 08:22:46 |
| DC4HF-4 | 22 | 2026-08-31 07:04:56 | 2026-08-31 08:23:04 |
| BUE01 | 17 | 2026-08-31 07:04:53 | 2026-08-31 08:21:59 |
| SO1NDE-10 | 17 | 2026-08-31 07:28:43 | 2026-08-31 08:10:39 |
| DL1LOL-11 | 16 | 2026-08-31 06:46:13 | 2026-08-31 08:25:20 |
| DO2LYB-13 | 16 | 2026-08-31 07:08:45 | 2026-08-31 08:31:55 |
| DD1CC3-15 | 15 | 2026-08-31 06:55:19 | 2026-08-31 08:19:04 |
| MET0W-2 | 15 | 2026-08-31 07:10:12 | 2026-08-31 07:58:51 |
| DB0NH | 15 | 2026-08-31 07:30:08 | 2026-08-31 08:15:24 |
| DK9SH | 14 | 2026-08-31 06:51:59 | 2026-08-31 08:20:09 |
| DD1CC2-15 | 14 | 2026-08-31 06:56:50 | 2026-08-31 08:13:56 |
| DD1CC8 | 14 | 2026-08-31 07:12:31 | 2026-08-31 08:06:51 |
| DL8OAI-8 | 12 | 2026-08-31 07:17:29 | 2026-08-31 08:19:21 |
| D01LWL | 11 | 2026-08-31 07:40:46 | 2026-08-31 08:21:39 |
| DK5PH-5 | 11 | 2026-08-31 07:47:27 | 2026-08-31 08:03:32 |
| DJ2KF-10 | 10 | 2026-08-31 07:16:13 | 2026-08-31 08:03:24 |
| SONDE2-11 | 9 | 2026-08-31 07:36:01 | 2026-08-31 08:06:02 |
| SMARD9-15 | 8 | 2026-08-31 07:26:15 | 2026-08-31 08:22:09 |
| DF8AY-15 | 6 | 2026-08-31 07:34:44 | 2026-08-31 08:07:05 |
| WEDDY | 5 | 2026-08-31 07:06:20 | 2026-08-31 07:50:30 |
| DF2AP-13 | 4 | 2026-08-31 07:51:32 | 2026-08-31 07:59:02 |
| EDDB2-12 | 2 | 2026-08-31 07:40:45 | 2026-08-31 08:03:31 |
| SMARD9-10 | 2 | 2026-08-31 07:42:51 | 2026-08-31 07:53:12 |
| DL3OBA | 2 | 2026-08-31 07:53:13 | 2026-08-31 07:53:33 |
| DO1YAY-16 | 2 | 2026-08-31 07:58:19 | 2026-08-31 08:01:57 |
| EDDB2-11 | 1 | 2026-08-31 07:50:53 | 2026-08-31 07:50:53 |
| DO9FK | 1 | 2026-08-31 08:19:26 | 2026-08-31 08:19:26 |
| Receiver | Date | Latitude | Longitude | Direction | Speed | Altitude | Climb | Temperature | Humidity | Pressure | Voltage | Killtimer | Uptime | BKT | XDATA |
|---|---|---|---|---|---|---|---|---|---|---|---|---|---|---|---|
| DJ2DS-15 | 2026-08-31 08:32:39 | 53.22341 | 8.30510 | 34° | 38km/h | 154m | -10.1m/s | 18.1°C | 75.9% | 993.8hPa | 2.7V | 00:00:00 | 00:00:00 | 00:00:00 | |
| DJ2DS-15 | 2026-08-31 08:32:26 | 53.22325 | 8.30492 | 33° | 37km/h | 174m | -9.4m/s | 17.8°C | 76.0% | 991.6hPa | 2.7V | 00:00:00 | 01:56:57 | 00:00:00 | |
| DJ2DS-15 | 2026-08-31 08:32:21 | 53.22288 | 8.30449 | 32° | 37km/h | 218m | -9.2m/s | 17.4°C | 77.9% | 986.5hPa | 2.7V | 00:00:00 | 01:56:52 | 00:00:00 | |
| DM0DOS-11 | 2026-08-31 08:32:16 | 53.22228 | 8.30385 | 26° | 33km/h | 287m | -8.7m/s | 16.8°C | 80.5% | 978.4hPa | 2.7V | 08:01:41 | 01:56:44 | 00:00:00 | |
| DM0DOS-11 | 2026-08-31 08:32:16 | 53.22213 | 8.30371 | 30° | 35km/h | 304m | -8.8m/s | 16.6°C | 80.9% | 976.6hPa | 2.7V | 08:01:43 | 01:56:42 | 00:00:00 | |
| DJ2DS-15 | 2026-08-31 08:32:16 | 53.22251 | 8.30407 | 32° | 35km/h | 262m | -8.5m/s | 16.9°C | 79.8% | 981.3hPa | 2.7V | 00:00:00 | 01:56:47 | 00:00:00 | |
| DM0DOS-11 | 2026-08-31 08:32:10 | 53.22198 | 8.30358 | 25° | 35km/h | 322m | -9.8m/s | 16.5°C | 81.4% | 974.5hPa | 2.7V | 08:01:45 | 01:56:40 | 00:00:00 | |
| DM0DOS-11 | 2026-08-31 08:32:10 | 53.22182 | 8.30344 | 28° | 33km/h | 341m | -9.6m/s | 16.2°C | 82.3% | 972.5hPa | 2.7V | 08:01:47 | 01:56:38 | 00:00:00 | |
| DM0DOS-11 | 2026-08-31 08:32:10 | 53.22167 | 8.30331 | 29° | 35km/h | 361m | -10.1m/s | 16°C | 85.3% | 970.1hPa | 2.6V | 08:01:49 | 01:56:36 | 00:00:00 | |
| DN9WHV | 2026-08-31 08:32:08 | 53.22198 | 8.30358 | 27° | 35km/h | 322m | -9.8m/s | 16.5°C | 81.9% | 974.5hPa | 2.7V | 08:01:00 | 00:00:00 | 00:00:00 | |
| DJ2DS-15 | 2026-08-31 08:32:06 | 53.22175 | 8.30338 | 27° | 35km/h | 351m | -10.0m/s | 16.1°C | 84.1% | 971.4hPa | 2.7V | 00:00:00 | 01:56:37 | 00:00:00 | |
| DM0DOS-11 | 2026-08-31 08:32:04 | 53.22151 | 8.30318 | 26° | 37km/h | 381m | -10.4m/s | 15.8°C | 86.1% | 967.9hPa | 2.7V | 08:01:51 | 01:56:34 | 00:00:00 | |
| DM0DOS-11 | 2026-08-31 08:32:04 | 53.22134 | 8.30306 | 24° | 37km/h | 400m | -9.9m/s | 15.6°C | 87.1% | 965.6hPa | 2.7V | 08:01:53 | 01:56:32 | 00:00:00 | |
| DM0DOS-11 | 2026-08-31 08:32:04 | 53.22118 | 8.30294 | 23° | 38km/h | 419m | -9.7m/s | 15.4°C | 88.2% | 963.5hPa | 2.7V | 08:01:55 | 01:56:30 | 00:00:00 | |
| DJ2DS-15 | 2026-08-31 08:32:03 | 53.22151 | 8.30318 | 26° | 35km/h | 381m | -10.4m/s | 15.8°C | 86.6% | 967.9hPa | 2.7V | 00:00:00 | 00:00:00 | 00:00:00 | |
| DN9WHV | 2026-08-31 08:32:01 | 53.22143 | 8.30312 | 23° | 35km/h | 391m | -9.5m/s | 15.7°C | 87.0% | 966.8hPa | 2.7V | 08:01:00 | 00:00:00 | 00:00:00 | |
| DJ2DS-15 | 2026-08-31 08:32:01 | 53.22134 | 8.30306 | 25° | 37km/h | 400m | -9.9m/s | 15.6°C | 87.1% | 965.5hPa | 2.7V | 00:00:00 | 01:56:32 | 00:00:00 | |
| DN9WHV | 2026-08-31 08:32:00 | 53.22134 | 8.30306 | 25° | 37km/h | 400m | -10.0m/s | 15.6°C | 87.5% | 965.6hPa | 2.7V | 08:01:00 | 00:00:00 | 00:00:00 | |
| DN9WHV | 2026-08-31 08:31:59 | 53.22126 | 8.30300 | 24° | 35km/h | 410m | -9.2m/s | 15.5°C | 88.0% | 964.6hPa | 2.7V | 08:01:00 | 00:00:00 | 00:00:00 | |
| GOEST3-10 | 2026-08-31 08:31:59 | 53.22118 | 8.30294 | 24° | 38km/h | 419m | -9.7m/s | 15.4°C | 88.2% | 963.4hPa | 2.7V | 00:00:00 | 00:00:00 | 00:00:00 | |
| DM0DOS-11 | 2026-08-31 08:31:58 | 53.22100 | 8.30281 | 22° | 38km/h | 437m | -9.6m/s | 15.3°C | 88.9% | 961.3hPa | 2.7V | 08:01:57 | 01:56:28 | 00:00:00 | |
| DN9WHV | 2026-08-31 08:31:57 | 53.22109 | 8.30288 | 26° | 37km/h | 429m | -9.0m/s | 15.4°C | 88.9% | 962.4hPa | 2.7V | 08:01:00 | 00:00:00 | 00:00:00 | |
| GOEST3-10 | 2026-08-31 08:31:57 | 53.22100 | 8.30281 | 23° | 38km/h | 437m | -9.5m/s | 15.2°C | 88.9% | 961.3hPa | 2.7V | 00:00:00 | 01:56:28 | 00:00:00 | |
| DN9WHV | 2026-08-31 08:31:56 | 53.22100 | 8.30281 | 24° | 38km/h | 437m | -9.6m/s | 15.3°C | 89.4% | 961.3hPa | 2.7V | 08:01:00 | 00:00:00 | 00:00:00 | |
| GOEST3-10 | 2026-08-31 08:31:56 | 53.22092 | 8.30274 | 27° | 38km/h | 447m | -8.9m/s | 15.1°C | 89.2% | 960.3hPa | 2.7V | 08:01:00 | 00:00:00 | 00:00:00 | |
| DJ2DS-15 | 2026-08-31 08:31:56 | 53.22092 | 8.30274 | 27° | 38km/h | 447m | -8.9m/s | 15.1°C | 89.2% | 960.3hPa | 2.7V | 00:00:00 | 01:56:27 | 00:00:00 | |
| DO2LYB-13 | 2026-08-31 08:31:55 | 53.22092 | 8.30274 | 28° | 38km/h | 447m | -8.9m/s | 15.2°C | 89.7% | 960.4hPa | 2.7V | 08:01:00 | 00:00:00 | 00:00:00 | |
| DN9WHV | 2026-08-31 08:31:54 | 53.22083 | 8.30268 | 25° | 38km/h | 455m | -9.0m/s | 15.1°C | 90.1% | 959.4hPa | 2.7V | 08:02:00 | 00:00:00 | 00:00:00 | |
| GOEST3-10 | 2026-08-31 08:31:53 | 53.22066 | 8.30254 | 24° | 37km/h | 473m | -9.1m/s | 14.9°C | 90.6% | 957.4hPa | 2.7V | 00:00:00 | 01:56:24 | 00:00:00 | |
| DN9WHV | 2026-08-31 08:31:52 | 53.22066 | 8.30254 | 25° | 37km/h | 473m | -9.1m/s | 14.9°C | 91.0% | 957.4hPa | 2.7V | 08:02:00 | 00:00:00 | 00:00:00 | |
| DN9WHV | 2026-08-31 08:31:51 | 53.22057 | 8.30247 | 29° | 38km/h | 482m | -9.1m/s | 14.8°C | 91.4% | 956.3hPa | 2.7V | 08:02:00 | 00:00:00 | 00:00:00 | |
| GOEST3-10 | 2026-08-31 08:31:51 | 53.22049 | 8.30239 | 26° | 38km/h | 490m | -8.9m/s | 14.7°C | 91.2% | 955.4hPa | 2.7V | 00:00:00 | 00:00:00 | 00:00:00 | |
| DJ2DS-15 | 2026-08-31 08:31:51 | 53.22049 | 8.30239 | 26° | 40km/h | 490m | -8.9m/s | 14.7°C | 91.2% | 955.4hPa | 2.7V | 00:00:00 | 01:56:22 | 00:00:00 | |
| DN9WHV | 2026-08-31 08:31:50 | 53.22049 | 8.30239 | 27° | 38km/h | 490m | -9.0m/s | 14.8°C | 91.6% | 955.4hPa | 2.7V | 08:02:00 | 00:00:00 | 00:00:00 | |
| GOEST3-10 | 2026-08-31 08:31:50 | 53.22040 | 8.30232 | 31° | 40km/h | 499m | -8.5m/s | 14.8°C | 89.0% | 954.2hPa | 2.7V | 00:00:00 | 01:56:21 | 00:00:00 | |
| DN9WHV | 2026-08-31 08:31:49 | 53.22040 | 8.30232 | 32° | 40km/h | 499m | -8.6m/s | 14.8°C | 89.4% | 954.3hPa | 2.7V | 08:02:00 | 00:00:00 | 00:00:00 | |
| GOEST3-10 | 2026-08-31 08:31:49 | 53.22031 | 8.30223 | 31° | 38km/h | 507m | -8.5m/s | 14.6°C | 91.1% | 953.4hPa | 2.7V | 00:00:00 | 00:00:00 | 00:00:00 | |
| DN9WHV | 2026-08-31 08:31:48 | 53.22031 | 8.30223 | 31° | 38km/h | 507m | -8.6m/s | 14.7°C | 91.5% | 953.4hPa | 2.7V | 08:02:00 | 00:00:00 | 00:00:00 | |
| GOEST3-10 | 2026-08-31 08:31:48 | 53.22022 | 8.30215 | 28° | 42km/h | 516m | -9.3m/s | 14.7°C | 87.5% | 952.4hPa | 2.7V | 00:00:00 | 01:56:19 | 00:00:00 | |
| GOEST3-10 | 2026-08-31 08:31:47 | 53.22013 | 8.30206 | 33° | 42km/h | 525m | -8.8m/s | 14.7°C | 86.2% | 951.5hPa | 2.7V | 00:00:00 | 00:00:00 | 00:00:00 | |
| DN9WHV | 2026-08-31 08:31:46 | 53.22013 | 8.30206 | 34° | 42km/h | 525m | -8.8m/s | 14.8°C | 86.6% | 951.6hPa | 2.7V | 08:02:00 | 00:00:00 | 00:00:00 | |
| GOEST3-10 | 2026-08-31 08:31:46 | 53.22005 | 8.30197 | 33° | 38km/h | 534m | -8.7m/s | 14.7°C | 83.5% | 950.6hPa | 2.7V | 00:00:00 | 01:56:17 | 00:00:00 | |
| DJ2DS-15 | 2026-08-31 08:31:46 | 53.22005 | 8.30197 | 33° | 40km/h | 534m | -8.7m/s | 14.7°C | 83.5% | 950.6hPa | 2.7V | 00:00:00 | 01:56:17 | 00:00:00 | |
| DN9WHV | 2026-08-31 08:31:45 | 53.22005 | 8.30197 | 33° | 38km/h | 534m | -8.8m/s | 14.8°C | 83.9% | 950.6hPa | 2.7V | 08:02:00 | 00:00:00 | 00:00:00 | |
| GOEST3-10 | 2026-08-31 08:31:45 | 53.21996 | 8.30188 | 34° | 42km/h | 542m | -8.7m/s | 14.5°C | 86.8% | 949.5hPa | 2.7V | 00:00:00 | 00:00:00 | 00:00:00 | |
| DN9WHV | 2026-08-31 08:31:44 | 53.21996 | 8.30188 | 35° | 42km/h | 542m | -8.7m/s | 14.6°C | 87.2% | 949.6hPa | 2.7V | 08:02:00 | 00:00:00 | 00:00:00 | |
| GOEST3-10 | 2026-08-31 08:31:43 | 53.21979 | 8.30169 | 33° | 42km/h | 559m | -8.6m/s | 14.2°C | 90.2% | 947.6hPa | 2.7V | 08:02:00 | 01:56:14 | 00:00:00 | |
| DN9WHV | 2026-08-31 08:31:43 | 53.21979 | 8.30169 | 34° | 42km/h | 559m | -8.6m/s | 14.3°C | 90.7% | 947.7hPa | 2.7V | 08:02:00 | 00:00:00 | 00:00:00 | |
| DF5WG-10 | 2026-08-31 08:31:43 | 53.21979 | 8.30169 | 33° | 42km/h | 559m | -8.6m/s | 14.2°C | 90.2% | 947.6hPa | 2.7V | 00:00:00 | 01:56:14 | 00:00:00 | |
| GOEST3-10 | 2026-08-31 08:31:42 | 53.21970 | 8.30159 | 36° | 40km/h | 568m | -8.0m/s | 14.2°C | 89.3% | 946.8hPa | 2.7V | 00:00:00 | 00:00:00 | 00:00:00 | |
| DN9WHV | 2026-08-31 08:31:41 | 53.21970 | 8.30159 | 37° | 40km/h | 568m | -8.1m/s | 14.2°C | 89.7% | 946.8hPa | 2.7V | 08:02:00 | 00:00:00 | 00:00:00 | |
| GOEST3-10 | 2026-08-31 08:31:41 | 53.21962 | 8.30149 | 35° | 42km/h | 576m | -9.1m/s | 14.1°C | 91.0% | 945.8hPa | 2.7V | 00:00:00 | 01:56:12 | 00:00:00 | |
| DJ2DS-15 | 2026-08-31 08:31:41 | 53.21962 | 8.30149 | 35° | 42km/h | 576m | -9.1m/s | 14.1°C | 91.0% | 945.8hPa | 2.7V | 00:00:00 | 01:56:12 | 00:00:00 | |
| DN9WHV | 2026-08-31 08:31:40 | 53.21962 | 8.30149 | 35° | 42km/h | 576m | -9.1m/s | 14.1°C | 91.4% | 945.9hPa | 2.7V | 08:02:00 | 00:00:00 | 00:00:00 | |
| DM0DOS-11 | 2026-08-31 08:31:40 | 53.21928 | 8.30105 | 39° | 44km/h | 610m | -8.1m/s | 13.9°C | 90.9% | 942hPa | 2.7V | 08:02:17 | 01:56:08 | 00:00:00 | |
| DL1XH-west | 2026-08-31 08:31:39 | 53.21945 | 8.30128 | 37° | 42km/h | 593m | -8.4m/s | 14°C | 97.3% | 944hPa | 2.7V | 08:02:49 | 01:56:10 | 00:00:00 | |
| DL1XH-west | 2026-08-31 08:31:38 | 53.21936 | 8.30117 | 39° | 44km/h | 602m | -8.8m/s | 14°C | 96.6% | 942.9hPa | 2.6V | 08:02:49 | 01:56:09 | 00:00:00 | |
| DL1XH-west | 2026-08-31 08:31:37 | 53.21927 | 8.30105 | 40° | 44km/h | 610m | -8.1m/s | 13.9°C | 96.7% | 942hPa | 2.7V | 08:02:49 | 01:56:08 | 00:00:00 | |
| DL1XH-west | 2026-08-31 08:31:35 | 53.21910 | 8.30083 | 40° | 46km/h | 626m | -8.6m/s | 13.9°C | 93.2% | 940hPa | 2.7V | 08:02:49 | 01:56:06 | 00:00:00 | |
| DL1XH-west | 2026-08-31 08:31:33 | 53.21893 | 8.30059 | 37° | 46km/h | 643m | -9m/s | 13.7°C | 92.7% | 938.1hPa | 2.6V | 08:02:49 | 01:56:04 | 00:00:00 | |
| DL1XH-west | 2026-08-31 08:31:31 | 53.21876 | 8.30036 | 39° | 42km/h | 661m | -8.4m/s | 13.6°C | 92.6% | 936.3hPa | 2.7V | 08:02:49 | 01:56:02 | 00:00:00 | |
| DL1XH-west | 2026-08-31 08:31:30 | 53.21867 | 8.30025 | 39° | 44km/h | 668m | -8.4m/s | 13.5°C | 92.7% | 935.4hPa | 2.7V | 08:02:49 | 01:56:01 | 00:00:00 | |
| DN9WHV | 2026-08-31 08:31:29 | 53.21867 | 8.30025 | 40° | 44km/h | 668m | -8.4m/s | 13.5°C | 87.7% | 935.4hPa | 2.7V | 08:02:00 | 00:00:00 | 00:00:00 | |
| GOEST3-10 | 2026-08-31 08:31:29 | 53.21859 | 8.30013 | 41° | 42km/h | 677m | -8.0m/s | 13.4°C | 87.7% | 934.4hPa | 2.7V | 00:00:00 | 00:00:00 | 00:00:00 | |
| BIOWL1-15 | 2026-08-31 08:31:29 | 53.21859 | 8.30013 | 41° | 42km/h | 677m | -8m/s | 13.4°C | 93% | 934.5hPa | 2.7V | 08:02:49 | 01:56:00 | 00:00:00 | |
| DN9WHV | 2026-08-31 08:31:28 | 53.21859 | 8.30013 | 42° | 42km/h | 677m | -8.0m/s | 13.4°C | 88.1% | 934.5hPa | 2.7V | 08:02:00 | 00:00:00 | 00:00:00 | |
| DM0DOS-11 | 2026-08-31 08:31:28 | 53.21808 | 8.29943 | 40° | 42km/h | 727m | -8.5m/s | 13°C | 89.4% | 929hPa | 2.7V | 08:02:31 | 01:55:54 | 00:00:00 | |
| BIOWL1-15 | 2026-08-31 08:31:28 | 53.21850 | 8.30002 | 38° | 44km/h | 684m | -8.4m/s | 13.4°C | 93% | 933.6hPa | 2.6V | 08:02:49 | 01:55:59 | 00:00:00 | |
| DL1XH-west | 2026-08-31 08:31:27 | 53.21842 | 8.29990 | 41° | 44km/h | 693m | -8.4m/s | 13.3°C | 93.3% | 932.8hPa | 2.7V | 08:02:49 | 01:55:58 | 00:00:00 | |
| BIOWL1-15 | 2026-08-31 08:31:26 | 53.21834 | 8.29978 | 42° | 42km/h | 701m | -8.4m/s | 13.2°C | 94.1% | 932hPa | 2.7V | 08:02:49 | 01:55:57 | 00:00:00 | |
| DL1XH-west | 2026-08-31 08:31:25 | 53.21825 | 8.29966 | 38° | 44km/h | 709m | -9.1m/s | 13.1°C | 94.5% | 931hPa | 2.7V | 08:02:49 | 01:55:56 | 00:00:00 | |
| DL1XH-west | 2026-08-31 08:31:23 | 53.21808 | 8.29943 | 41° | 42km/h | 727m | -8.5m/s | 13°C | 94.7% | 929hPa | 2.7V | 08:02:49 | 01:55:54 | 00:00:00 | |
| GOEST3-10 | 2026-08-31 08:31:23 | 53.21808 | 8.29942 | 41° | 42km/h | 727m | -8.4m/s | 12.9°C | 89.4% | 928.9hPa | 2.7V | 00:00:00 | 00:00:00 | 00:00:00 | |
| DN9WHV | 2026-08-31 08:31:22 | 53.21808 | 8.29942 | 42° | 42km/h | 727m | -8.5m/s | 13.0°C | 89.8% | 929.0hPa | 2.7V | 08:02:00 | 00:00:00 | 00:00:00 | |
| DL1XH1-15 | 2026-08-31 08:31:22 | 53.21792 | 8.29920 | 40° | 44km/h | 744m | -8.8m/s | 12.9°C | 88.5% | 927.2hPa | 2.7V | 08:02:33 | 01:55:52 | 00:00:00 | |
| DL1XH1-15 | 2026-08-31 08:31:22 | 53.21776 | 8.29897 | 41° | 40km/h | 762m | -8.9m/s | 12.8°C | 88.7% | 925.2hPa | 2.6V | 08:02:35 | 01:55:50 | 00:00:00 | |
| DL1XH-west | 2026-08-31 08:31:22 | 53.21800 | 8.29931 | 38° | 42km/h | 735m | -9.2m/s | 12.9°C | 94.4% | 928.1hPa | 2.7V | 08:02:49 | 01:55:53 | 00:00:00 | |
| BIOWL1-15 | 2026-08-31 08:31:20 | 53.21768 | 8.29885 | 41° | 44km/h | 771m | -9m/s | 12.7°C | 94.1% | 924.2hPa | 2.7V | 08:02:49 | 01:55:49 | 00:00:00 | |
| DL1XH-west | 2026-08-31 08:31:20 | 53.21784 | 8.29908 | 42° | 42km/h | 753m | -9.3m/s | 12.9°C | 93.9% | 926.1hPa | 2.6V | 08:02:49 | 01:55:51 | 00:00:00 | |
| DL1XH-west | 2026-08-31 08:31:19 | 53.21776 | 8.29897 | 41° | 40km/h | 762m | -8.9m/s | 12.8°C | 94% | 925.2hPa | 2.6V | 08:02:49 | 01:55:50 | 00:00:00 | |
| DL1XH-west | 2026-08-31 08:31:17 | 53.21760 | 8.29873 | 44° | 40km/h | 780m | -8.6m/s | 12.6°C | 94.3% | 923.4hPa | 2.7V | 08:02:49 | 01:55:48 | 00:00:00 | |
| BIOWL1-15 | 2026-08-31 08:31:16 | 53.21736 | 8.29837 | 42° | 42km/h | 805m | -8.7m/s | 12.4°C | 93.6% | 920.5hPa | 2.7V | 08:02:49 | 01:55:45 | 00:00:00 | |
| DM0DOS-11 | 2026-08-31 08:31:16 | 53.21744 | 8.29849 | 43° | 42km/h | 797m | -8.3m/s | 12.4°C | 90.6% | 921.4hPa | 2.7V | 08:02:39 | 01:55:46 | 00:00:00 | |
| DL1XH-west | 2026-08-31 08:31:15 | 53.21744 | 8.29849 | 44° | 42km/h | 797m | -8.3m/s | 12.4°C | 94.4% | 921.4hPa | 2.7V | 08:02:49 | 01:55:46 | 00:00:00 | |
| DL1XH-west | 2026-08-31 08:31:13 | 53.21728 | 8.29825 | 41° | 44km/h | 813m | -8.9m/s | 12.3°C | 93.9% | 919.6hPa | 2.7V | 08:02:49 | 01:55:44 | 00:00:00 | |
| DL1XH-west | 2026-08-31 08:31:12 | 53.21720 | 8.29813 | 45° | 44km/h | 822m | -8.4m/s | 12.3°C | 94.4% | 918.5hPa | 2.7V | 08:02:49 | 01:55:43 | 00:00:00 | |
| DL1XH-west | 2026-08-31 08:31:11 | 53.21712 | 8.29800 | 43° | 42km/h | 830m | -8.6m/s | 12.2°C | 94.5% | 917.8hPa | 2.6V | 08:02:49 | 01:55:42 | 00:00:00 | |
| BIOWL1-15 | 2026-08-31 08:31:10 | 53.21696 | 8.29775 | 43° | 42km/h | 848m | -8.5m/s | 12.1°C | 94.7% | 915.8hPa | 2.7V | 08:02:49 | 01:55:40 | 00:00:00 | |
| DM0DOS-11 | 2026-08-31 08:31:10 | 53.21663 | 8.29723 | 45° | 46km/h | 881m | -8.6m/s | 11.9°C | 91.1% | 912.1hPa | 2.7V | 08:02:49 | 01:55:36 | 00:00:00 | |
| DL1XH-west | 2026-08-31 08:31:10 | 53.21704 | 8.29787 | 45° | 46km/h | 839m | -9m/s | 12.1°C | 94.7% | 916.8hPa | 2.6V | 08:02:49 | 01:55:41 | 00:00:00 | |
| DL1XH-west | 2026-08-31 08:31:08 | 53.21688 | 8.29762 | 43° | 46km/h | 856m | -9m/s | 12°C | 95.3% | 914.9hPa | 2.7V | 08:02:49 | 01:55:39 | 00:00:00 | |
| DL1XH-west | 2026-08-31 08:31:06 | 53.21672 | 8.29736 | 42° | 46km/h | 873m | -9m/s | 11.9°C | 95.6% | 913hPa | 2.7V | 08:02:49 | 01:55:37 | 00:00:00 | |
| DJ2DS-15 | 2026-08-31 08:31:06 | 53.21671 | 8.29736 | 42° | 46km/h | 873m | -8.9m/s | 11.9°C | 91.3% | 913.0hPa | 2.6V | 00:00:00 | 01:55:37 | 00:00:00 | |
| DN9WHV | 2026-08-31 08:31:05 | 53.21672 | 8.29736 | 43° | 46km/h | 873m | -9.0m/s | 11.9°C | 91.6% | 913.0hPa | 2.6V | 08:02:00 | 00:00:00 | 00:00:00 | |
| GOEST3-10 | 2026-08-31 08:31:05 | 53.21663 | 8.29723 | 46° | 46km/h | 881m | -8.5m/s | 11.8°C | 91.1% | 912.1hPa | 2.6V | 00:00:00 | 00:00:00 | 00:00:00 | |
| DM0DOS-11 | 2026-08-31 08:31:04 | 53.21632 | 8.29668 | 44° | 46km/h | 915m | -8.7m/s | 11.9°C | 87.1% | 908.5hPa | 2.6V | 08:02:53 | 01:55:32 | 00:00:00 | |
| DM0DOS-11 | 2026-08-31 08:31:04 | 53.21615 | 8.29640 | 45° | 46km/h | 932m | -9.1m/s | 12.1°C | 85.6% | 906.7hPa | 2.7V | 08:02:55 | 01:55:30 | 00:00:00 | |
| DL1XH-west | 2026-08-31 08:31:04 | 53.21655 | 8.29709 | 46° | 44km/h | 890m | -8.4m/s | 11.9°C | 94.9% | 911.2hPa | 2.7V | 08:03:40 | 01:55:35 | 00:00:00 | |
| DL1XH-west | 2026-08-31 08:31:02 | 53.21639 | 8.29682 | 48° | 44km/h | 906m | -8.5m/s | 11.8°C | 94.2% | 909.3hPa | 2.6V | 08:03:40 | 01:55:33 | 00:00:00 | |
| BIOWL1-15 | 2026-08-31 08:31:01 | 53.21631 | 8.29668 | 44° | 46km/h | 915m | -8.7m/s | 11.9°C | 91.6% | 908.5hPa | 2.6V | 08:03:40 | 01:55:32 | 00:00:00 | |
| BIOWL1-15 | 2026-08-31 08:31:00 | 53.21623 | 8.29654 | 48° | 46km/h | 923m | -8.7m/s | 11.9°C | 91.9% | 907.5hPa | 2.7V | 08:03:40 | 01:55:31 | 00:00:00 | |
| GOEST3-10 | 2026-08-31 08:31:00 | 53.21623 | 8.29654 | 48° | 46km/h | 923m | -8.6m/s | 11.9°C | 87.5% | 907.5hPa | 2.7V | 00:00:00 | 01:55:31 | 00:00:00 | |
| GOEST3-10 | 2026-08-31 08:30:59 | 53.21615 | 8.29640 | 46° | 46km/h | 932m | -9.0m/s | 12.1°C | 85.6% | 906.6hPa | 2.6V | 00:00:00 | 00:00:00 | 00:00:00 | |
| DN9WHV | 2026-08-31 08:30:58 | 53.21615 | 8.29640 | 47° | 46km/h | 932m | -9.1m/s | 12.1°C | 85.9% | 906.7hPa | 2.6V | 08:03:00 | 00:00:00 | 00:00:00 | |
| DL1XH1-15 | 2026-08-31 08:30:58 | 53.21568 | 8.29552 | 48° | 46km/h | 984m | -9.1m/s | 12°C | 81.4% | 901.1hPa | 2.6V | 08:03:01 | 01:55:24 | 00:00:00 | |
| BIOWL1-15 | 2026-08-31 08:30:58 | 53.21592 | 8.29597 | 49° | 47km/h | 958m | -8.7m/s | 12.1°C | 89.9% | 903.7hPa | 2.7V | 08:03:40 | 01:55:27 | 00:00:00 | |
| DL1XH-west | 2026-08-31 08:30:58 | 53.21607 | 8.29626 | 49° | 47km/h | 941m | -8.8m/s | 12.1°C | 91.6% | 905.6hPa | 2.7V | 08:03:40 | 01:55:29 | 00:00:00 | |
| DL1XH-west | 2026-08-31 08:30:57 | 53.21599 | 8.29611 | 47° | 46km/h | 949m | -8.9m/s | 12.1°C | 91.9% | 904.8hPa | 2.7V | 08:03:40 | 01:55:28 | 00:00:00 | |
| DL1XH-west | 2026-08-31 08:30:55 | 53.21584 | 8.29582 | 48° | 46km/h | 966m | -8.8m/s | 12.1°C | 88.8% | 902.8hPa | 2.7V | 08:03:40 | 01:55:26 | 00:00:00 | |
| BIOWL1-15 | 2026-08-31 08:30:54 | 53.21553 | 8.29521 | 49° | 47km/h | 1001m | -9m/s | 12°C | 86.1% | 899.3hPa | 2.7V | 08:03:40 | 01:55:22 | 00:00:00 | |
| DL1XH-west | 2026-08-31 08:30:53 | 53.21568 | 8.29552 | 49° | 46km/h | 984m | -9.1m/s | 12°C | 87.4% | 901.1hPa | 2.6V | 08:03:40 | 01:55:24 | 00:00:00 | |
| DF5WG-10 | 2026-08-31 08:30:53 | 53.21568 | 8.29551 | 49° | 46km/h | 984m | -9.0m/s | 12.0°C | 81.4% | 901.1hPa | 2.6V | 08:03:00 | 01:55:24 | 00:00:00 | |
| DN9WHV | 2026-08-31 08:30:52 | 53.21568 | 8.29552 | 50° | 46km/h | 984m | -9.1m/s | 12.0°C | 81.7% | 901.1hPa | 2.7V | 08:03:00 | 00:00:00 | 00:00:00 | |
| DM0DOS-11 | 2026-08-31 08:30:52 | 53.21553 | 8.29521 | 49° | 46km/h | 1001m | -9m/s | 12°C | 79.6% | 899.3hPa | 2.7V | 08:03:03 | 01:55:22 | 00:00:00 | |
| DL1XH-west | 2026-08-31 08:30:52 | 53.21560 | 8.29536 | 51° | 49km/h | 992m | -9.1m/s | 12.1°C | 85.9% | 900.2hPa | 2.6V | 08:03:40 | 01:55:23 | 00:00:00 | |
| DL1XH-west | 2026-08-31 08:30:50 | 53.21545 | 8.29505 | 51° | 49km/h | 1010m | -8.9m/s | 11.9°C | 86.4% | 898.3hPa | 2.7V | 08:03:40 | 01:55:21 | 00:00:00 | |
| BIOWL1-15 | 2026-08-31 08:30:48 | 53.21522 | 8.29458 | 50° | 47km/h | 1036m | -9m/s | 11.7°C | 86.5% | 895.5hPa | 2.6V | 08:03:40 | 01:55:18 | 00:00:00 | |
| DL1XH-west | 2026-08-31 08:30:48 | 53.21530 | 8.29474 | 52° | 49km/h | 1028m | -8.9m/s | 11.8°C | 86.5% | 896.4hPa | 2.7V | 08:03:40 | 01:55:19 | 00:00:00 | |
| DL1XH-west | 2026-08-31 08:30:46 | 53.21515 | 8.29443 | 52° | 49km/h | 1045m | -9m/s | 11.6°C | 86.7% | 894.6hPa | 2.7V | 08:03:40 | 01:55:17 | 00:00:00 | |
| DM0DOS-11 | 2026-08-31 08:30:46 | 53.21476 | 8.29362 | 49° | 51km/h | 1088m | -8.9m/s | 11.2°C | 80.8% | 890hPa | 2.7V | 08:03:13 | 01:55:12 | 00:00:00 | |
| DL1XH-west | 2026-08-31 08:30:44 | 53.21499 | 8.29411 | 50° | 49km/h | 1062m | -9m/s | 11.5°C | 85.7% | 892.8hPa | 2.7V | 08:03:40 | 01:55:15 | 00:00:00 | |
| DL1XH-west | 2026-08-31 08:30:42 | 53.21484 | 8.29378 | 52° | 49km/h | 1080m | -8.7m/s | 11.3°C | 86.5% | 891hPa | 2.7V | 08:03:40 | 01:55:13 | 00:00:00 | |
| DL1XH-west | 2026-08-31 08:30:41 | 53.21475 | 8.29362 | 49° | 51km/h | 1088m | -8.9m/s | 11.2°C | 86.8% | 890hPa | 2.7V | 08:03:40 | 01:55:12 | 00:00:00 | |
| BIOWL1-15 | 2026-08-31 08:30:40 | 53.21467 | 8.29345 | 52° | 51km/h | 1096m | -8.6m/s | 11.1°C | 87.3% | 889.1hPa | 2.6V | 08:03:40 | 01:55:11 | 00:00:00 | |
| DL1XH-west | 2026-08-31 08:30:39 | 53.21459 | 8.29328 | 52° | 49km/h | 1105m | -8.5m/s | 11.1°C | 87.5% | 888.3hPa | 2.6V | 08:03:40 | 01:55:10 | 00:00:00 | |
| BIOWL1-15 | 2026-08-31 08:30:38 | 53.21451 | 8.29312 | 49° | 51km/h | 1113m | -9.4m/s | 11°C | 87.6% | 887.5hPa | 2.7V | 08:03:40 | 01:55:09 | 00:00:00 | |
| BIOWL1-15 | 2026-08-31 08:30:36 | 53.21435 | 8.29278 | 52° | 49km/h | 1132m | -8.5m/s | 10.9°C | 87.1% | 885.5hPa | 2.7V | 08:03:40 | 01:55:07 | 00:00:00 | |
| DJ2DS-15 | 2026-08-31 08:30:36 | 53.21435 | 8.29278 | 53° | 51km/h | 1132m | -8.5m/s | 10.8°C | 81.0% | 885.5hPa | 2.7V | 00:00:00 | 01:55:07 | 00:00:00 | |
| DN9WHV | 2026-08-31 08:30:35 | 53.21435 | 8.29278 | 53° | 51km/h | 1132m | -8.5m/s | 10.9°C | 81.2% | 885.5hPa | 2.7V | 08:03:00 | 00:00:00 | 00:00:00 | |
| GOEST3-10 | 2026-08-31 08:30:35 | 53.21427 | 8.29262 | 50° | 51km/h | 1140m | -9.0m/s | 10.7°C | 81.3% | 884.6hPa | 2.7V | 00:00:00 | 01:55:06 | 00:00:00 | |
| DN9WHV | 2026-08-31 08:30:34 | 53.21427 | 8.29262 | 50° | 51km/h | 1140m | -9.1m/s | 10.8°C | 81.6% | 884.7hPa | 2.7V | 08:03:00 | 00:00:00 | 00:00:00 | |
| DM0DOS-11 | 2026-08-31 08:30:34 | 53.21410 | 8.29228 | 52° | 51km/h | 1158m | -8.3m/s | 10.6°C | 83.2% | 882.8hPa | 2.7V | 08:03:21 | 01:55:04 | 00:00:00 | |
| DM0DOS-11 | 2026-08-31 08:30:34 | 53.21378 | 8.29158 | 51° | 51km/h | 1190m | -8.8m/s | 10.6°C | 81.7% | 879.2hPa | 2.7V | 08:03:25 | 01:55:00 | 00:00:00 | |
| BIOWL1-15 | 2026-08-31 08:30:34 | 53.21418 | 8.29245 | 52° | 53km/h | 1149m | -9.1m/s | 10.7°C | 88.2% | 883.7hPa | 2.6V | 08:03:40 | 01:55:05 | 00:00:00 | |
| DL1XH-west | 2026-08-31 08:30:33 | 53.21410 | 8.29228 | 53° | 51km/h | 1158m | -8.3m/s | 10.6°C | 88.6% | 882.8hPa | 2.7V | 08:03:40 | 01:55:04 | 00:00:00 | |
| BIOWL1-15 | 2026-08-31 08:30:32 | 53.21386 | 8.29176 | 54° | 53km/h | 1182m | -8.1m/s | 10.4°C | 89.6% | 880.1hPa | 2.7V | 08:03:40 | 01:55:01 | 00:00:00 | |
| DL1XH-west | 2026-08-31 08:30:31 | 53.21394 | 8.29194 | 52° | 55km/h | 1174m | -8.4m/s | 10.5°C | 89.7% | 881hPa | 2.7V | 08:03:40 | 01:55:02 | 00:00:00 | |
| DL1XH-west | 2026-08-31 08:30:29 | 53.21378 | 8.29159 | 51° | 51km/h | 1190m | -8.8m/s | 10.6°C | 87.3% | 879.2hPa | 2.7V | 08:03:40 | 01:55:00 | 00:00:00 | |
| BIOWL1-15 | 2026-08-31 08:30:27 | 53.21361 | 8.29123 | 53° | 53km/h | 1207m | -8.2m/s | 10.5°C | 86.4% | 877.4hPa | 2.6V | 08:03:40 | 01:54:58 | 00:00:00 | |
| DL1XH-west | 2026-08-31 08:30:26 | 53.21353 | 8.29106 | 52° | 51km/h | 1215m | -8.5m/s | 10.5°C | 86.7% | 876.6hPa | 2.6V | 08:03:40 | 01:54:57 | 00:00:00 | |
| BIOWL1-15 | 2026-08-31 08:30:25 | 53.21329 | 8.29053 | 53° | 51km/h | 1241m | -8.5m/s | 10.4°C | 86.4% | 874.1hPa | 2.7V | 08:03:40 | 01:54:54 | 00:00:00 | |
| DL1XH-west | 2026-08-31 08:30:24 | 53.21337 | 8.29071 | 54° | 53km/h | 1232m | -8.3m/s | 10.4°C | 86.8% | 874.9hPa | 2.7V | 08:03:40 | 01:54:55 | 00:00:00 | |
| DD8BA-10 | 2026-08-31 08:30:24 | 53.21337 | 8.29071 | 54° | 53km/h | 1232m | -8.3m/s | 10.3°C | 80.7% | 874.8hPa | 2.7V | 00:00:00 | 00:00:00 | 00:00:00 | |
| GOEST3-10 | 2026-08-31 08:30:24 | 53.21337 | 8.29071 | 54° | 53km/h | 1232m | -8.3m/s | 10.3°C | 80.7% | 874.8hPa | 2.7V | 00:00:00 | 00:00:00 | 00:00:00 | |
| GOEST3-10 | 2026-08-31 08:30:23 | 53.21329 | 8.29053 | 54° | 51km/h | 1240m | -8.4m/s | 10.3°C | 80.2% | 874.0hPa | 2.7V | 00:00:00 | 01:54:54 | 00:00:00 | |
| DN9WHV | 2026-08-31 08:30:23 | 53.21329 | 8.29053 | 54° | 51km/h | 1240m | -8.5m/s | 10.4°C | 80.4% | 874.1hPa | 2.7V | 08:03:00 | 00:00:00 | 00:00:00 | |
| DL1CLM-18 | 2026-08-31 08:30:22 | 53.21329 | 8.29053 | 54° | 51km/h | 1240m | -8.5m/s | 10.4°C | 80.4% | 874.1hPa | 2.7V | 00:00:00 | 00:00:00 | 00:00:00 | |
| DL1XH1-15 | 2026-08-31 08:30:22 | 53.21282 | 8.28950 | 55° | 51km/h | 1292m | -8.4m/s | 10.1°C | 78.5% | 868.6hPa | 2.7V | 08:03:37 | 01:54:48 | 00:00:00 | |
| DL1XH-west | 2026-08-31 08:30:22 | 53.21321 | 8.29036 | 51° | 53km/h | 1248m | -9.1m/s | 10.3°C | 86% | 873.2hPa | 2.7V | 08:03:40 | 01:54:53 | 00:00:00 | |
| BIOWL1-15 | 2026-08-31 08:30:21 | 53.21313 | 8.29019 | 53° | 53km/h | 1257m | -8.7m/s | 10.3°C | 85.5% | 872.2hPa | 2.7V | 08:03:40 | 01:54:52 | 00:00:00 | |
| DL1XH-west | 2026-08-31 08:30:20 | 53.21305 | 8.29001 | 54° | 51km/h | 1266m | -8.4m/s | 10.2°C | 85.3% | 871.2hPa | 2.7V | 08:03:40 | 01:54:51 | 00:00:00 | |
| BIOWL1-15 | 2026-08-31 08:30:19 | 53.21297 | 8.28984 | 52° | 51km/h | 1274m | -9.4m/s | 10.1°C | 85.7% | 870.3hPa | 2.6V | 08:03:40 | 01:54:50 | 00:00:00 | |
| DL1XH-west | 2026-08-31 08:30:18 | 53.21289 | 8.28967 | 54° | 51km/h | 1284m | -8.8m/s | 10.1°C | 85.4% | 869.6hPa | 2.6V | 08:03:40 | 01:54:49 | 00:00:00 | |
| BIOWL1-15 | 2026-08-31 08:30:17 | 53.21267 | 8.28916 | 52° | 51km/h | 1309m | -9.1m/s | 9.9°C | 85.3% | 866.9hPa | 2.7V | 08:03:40 | 01:54:46 | 00:00:00 | |
| DL1XH-west | 2026-08-31 08:30:16 | 53.21275 | 8.28933 | 54° | 49km/h | 1301m | -8.6m/s | 10°C | 85.1% | 867.8hPa | 2.7V | 08:03:40 | 01:54:47 | 00:00:00 | |
| DL1XH-west | 2026-08-31 08:30:14 | 53.21260 | 8.28899 | 54° | 51km/h | 1318m | -9m/s | 9.9°C | 85.6% | 865.9hPa | 2.7V | 08:03:40 | 01:54:45 | 00:00:00 | |
| DL1XH-west | 2026-08-31 08:30:12 | 53.21245 | 8.28866 | 54° | 49km/h | 1336m | -9m/s | 9.8°C | 86.6% | 864hPa | 2.7V | 08:04:31 | 01:54:43 | 00:00:00 | |
| DL1XH-west | 2026-08-31 08:30:11 | 53.21238 | 8.28849 | 56° | 49km/h | 1344m | -9.1m/s | 9.7°C | 86.8% | 863.2hPa | 2.6V | 08:04:31 | 01:54:42 | 00:00:00 | |
| DJ2DS-15 | 2026-08-31 08:30:11 | 53.21238 | 8.28849 | 56° | 49km/h | 1344m | -9.0m/s | 9.7°C | 80.8% | 863.1hPa | 2.6V | 00:00:00 | 01:54:42 | 00:00:00 | |
| DD8BA-10 | 2026-08-31 08:30:11 | 53.21238 | 8.28849 | 56° | 47km/h | 1344m | -9.0m/s | 9.7°C | 80.8% | 863.1hPa | 2.6V | 00:00:00 | 00:00:00 | 00:00:00 | |
| DN9WHV | 2026-08-31 08:30:10 | 53.21238 | 8.28849 | 57° | 47km/h | 1344m | -9.1m/s | 9.7°C | 81.0% | 863.2hPa | 2.7V | 08:04:00 | 00:00:00 | 00:00:00 | |
| DL1XH1-15 | 2026-08-31 08:30:10 | 53.21223 | 8.28816 | 54° | 49km/h | 1362m | -9m/s | 9.7°C | 80.2% | 861.2hPa | 2.7V | 08:03:45 | 01:54:40 | 00:00:00 | |
| DL1XH-west | 2026-08-31 08:30:09 | 53.21223 | 8.28816 | 55° | 49km/h | 1362m | -9m/s | 9.7°C | 86.5% | 861.2hPa | 2.7V | 08:04:31 | 01:54:40 | 00:00:00 | |
| BIOWL1-15 | 2026-08-31 08:30:07 | 53.21195 | 8.28751 | 55° | 46km/h | 1398m | -8.7m/s | 9.6°C | 85.7% | 857.7hPa | 2.7V | 08:04:31 | 01:54:36 | 00:00:00 | |
| DL1XH-west | 2026-08-31 08:30:07 | 53.21209 | 8.28783 | 52° | 47km/h | 1380m | -9.3m/s | 9.7°C | 85.8% | 859.5hPa | 2.7V | 08:04:31 | 01:54:38 | 00:00:00 | |
| DL1XH-west | 2026-08-31 08:30:06 | 53.21202 | 8.28767 | 55° | 47km/h | 1389m | -8.7m/s | 9.6°C | 86% | 858.6hPa | 2.7V | 08:04:31 | 01:54:37 | 00:00:00 | |
| BIOWL1-15 | 2026-08-31 08:30:04 | 53.21188 | 8.28735 | 54° | 47km/h | 1406m | -9.2m/s | 9.5°C | 86.3% | 856.8hPa | 2.7V | 08:04:31 | 01:54:35 | 00:00:00 | |
| BIOWL1-15 | 2026-08-31 08:30:03 | 53.21182 | 8.28719 | 56° | 46km/h | 1415m | -8.9m/s | 9.5°C | 85.3% | 855.7hPa | 2.6V | 08:04:31 | 01:54:34 | 00:00:00 | |
| BIOWL1-15 | 2026-08-31 08:30:02 | 53.21175 | 8.28704 | 52° | 46km/h | 1424m | -9.6m/s | 9.4°C | 84.8% | 854.9hPa | 2.6V | 08:04:31 | 01:54:33 | 00:00:00 | |
| BIOWL1-15 | 2026-08-31 08:30:00 | 53.21162 | 8.28673 | 56° | 46km/h | 1441m | -8.9m/s | 9.3°C | 85.1% | 853.1hPa | 2.7V | 08:04:31 | 01:54:31 | 00:00:00 | |
| BIOWL1-15 | 2026-08-31 08:29:59 | 53.21155 | 8.28658 | 54° | 44km/h | 1450m | -9.2m/s | 9.2°C | 85.7% | 852.2hPa | 2.7V | 08:04:31 | 01:54:30 | 00:00:00 | |
| GOEST3-10 | 2026-08-31 08:29:59 | 53.21155 | 8.28658 | 54° | 44km/h | 1450m | -9.1m/s | 9.2°C | 79.5% | 852.1hPa | 2.7V | 00:00:00 | 01:54:30 | 00:00:00 | |
| DD8BA-10 | 2026-08-31 08:29:59 | 53.21155 | 8.28658 | 54° | 46km/h | 1450m | -9.1m/s | 9.2°C | 79.5% | 852.1hPa | 2.7V | 00:00:00 | 00:00:00 | 00:00:00 | |
| DN9WHV | 2026-08-31 08:29:58 | 53.21155 | 8.28658 | 54° | 44km/h | 1450m | -9.2m/s | 9.2°C | 79.7% | 852.2hPa | 2.7V | 08:04:00 | 00:00:00 | 00:00:00 | |
| DM0DOS-11 | 2026-08-31 08:29:58 | 53.21116 | 8.28565 | 55° | 46km/h | 1505m | -9.5m/s | 8.9°C | 77.6% | 846.4hPa | 2.7V | 08:04:01 | 01:54:24 | 00:00:00 | |
| BIOWL1-15 | 2026-08-31 08:29:57 | 53.21142 | 8.28627 | 55° | 46km/h | 1468m | -8.9m/s | 9.1°C | 85.6% | 850.4hPa | 2.7V | 08:04:31 | 01:54:28 | 00:00:00 | |
| DL1XH-west | 2026-08-31 08:29:56 | 53.21135 | 8.28611 | 56° | 46km/h | 1477m | -9.3m/s | 9.1°C | 84.5% | 849.4hPa | 2.7V | 08:04:31 | 01:54:27 | 00:00:00 | |
| BIOWL1-15 | 2026-08-31 08:29:55 | 53.21129 | 8.28596 | 57° | 44km/h | 1487m | -9.5m/s | 9.1°C | 84.3% | 848.5hPa | 2.6V | 08:04:31 | 01:54:26 | 00:00:00 | |
| DL1XH-west | 2026-08-31 08:29:54 | 53.21123 | 8.28581 | 53° | 44km/h | 1496m | -10m/s | 9°C | 84.3% | 847.6hPa | 2.6V | 08:04:31 | 01:54:25 | 00:00:00 | |
| BIOWL1-15 | 2026-08-31 08:29:53 | 53.21103 | 8.28534 | 53° | 46km/h | 1523m | -9.6m/s | 8.8°C | 84.7% | 844.6hPa | 2.7V | 08:04:31 | 01:54:22 | 00:00:00 | |
| DL1XH-west | 2026-08-31 08:29:52 | 53.21110 | 8.28549 | 56° | 44km/h | 1515m | -9.1m/s | 8.8°C | 84.5% | 845.4hPa | 2.7V | 08:04:31 | 01:54:23 | 00:00:00 | |
| DL1XH-west | 2026-08-31 08:29:50 | 53.21097 | 8.28519 | 55° | 46km/h | 1533m | -9.8m/s | 8.7°C | 84.8% | 843.6hPa | 2.7V | 08:04:31 | 01:54:21 | 00:00:00 | |
| DL1XH-west | 2026-08-31 08:29:49 | 53.21090 | 8.28503 | 57° | 46km/h | 1543m | -9.4m/s | 8.6°C | 84.9% | 842.7hPa | 2.7V | 08:04:31 | 01:54:20 | 00:00:00 | |
| BIOWL1-15 | 2026-08-31 08:29:48 | 53.21084 | 8.28487 | 54° | 46km/h | 1552m | -9.7m/s | 8.5°C | 85.4% | 841.7hPa | 2.6V | 08:04:31 | 01:54:19 | 00:00:00 | |
| DL1XH-west | 2026-08-31 08:29:47 | 53.21077 | 8.28471 | 56° | 47km/h | 1561m | -9.3m/s | 8.5°C | 85.4% | 840.9hPa | 2.6V | 08:04:31 | 01:54:18 | 00:00:00 | |
| DL1XH-west | 2026-08-31 08:29:46 | 53.21070 | 8.28455 | 56° | 46km/h | 1570m | -9.1m/s | 8.4°C | 85.5% | 839.9hPa | 2.7V | 08:04:31 | 01:54:17 | 00:00:00 | |
| DL1XH-west | 2026-08-31 08:29:45 | 53.21064 | 8.28439 | 54° | 46km/h | 1579m | -9.8m/s | 8.3°C | 85.6% | 839hPa | 2.7V | 08:04:31 | 01:54:16 | 00:00:00 | |
| BIOWL1-15 | 2026-08-31 08:29:44 | 53.21057 | 8.28424 | 53° | 49km/h | 1589m | -9.8m/s | 8.2°C | 85.6% | 838.1hPa | 2.7V | 08:04:31 | 01:54:15 | 00:00:00 | |
| DL1XH-west | 2026-08-31 08:29:43 | 53.21049 | 8.28407 | 55° | 49km/h | 1598m | -9.3m/s | 8.2°C | 86.1% | 837.1hPa | 2.7V | 08:04:31 | 01:54:14 | 00:00:00 | |
| BIOWL1-15 | 2026-08-31 08:29:42 | 53.21042 | 8.28390 | 55° | 47km/h | 1608m | -9.1m/s | 8.1°C | 86.3% | 836.2hPa | 2.7V | 08:04:31 | 01:54:13 | 00:00:00 | |
| DL1XH-west | 2026-08-31 08:29:41 | 53.21035 | 8.28374 | 52° | 49km/h | 1617m | -9.8m/s | 8°C | 86.3% | 835.2hPa | 2.7V | 08:04:31 | 01:54:12 | 00:00:00 | |
| GOEST3-10 | 2026-08-31 08:29:41 | 53.21035 | 8.28374 | 53° | 49km/h | 1617m | -9.8m/s | 8.0°C | 80.0% | 835.1hPa | 2.7V | 00:00:00 | 01:54:12 | 00:00:00 | |
| DJ2DS-15 | 2026-08-31 08:29:41 | 53.21035 | 8.28374 | 53° | 49km/h | 1617m | -9.8m/s | 8.0°C | 80.0% | 835.1hPa | 2.7V | 00:00:00 | 01:54:12 | 00:00:00 | |
| DM0DOS-11 | 2026-08-31 08:29:40 | 53.20992 | 8.28272 | 53° | 49km/h | 1672m | -9.6m/s | 7.7°C | 82.4% | 829.5hPa | 2.7V | 08:04:19 | 01:54:06 | 00:00:00 | |
| DB0DAN | 2026-08-31 08:29:40 | 53.21028 | 8.28357 | 55° | 47km/h | 1626m | -9.5m/s | 8°C | 80% | 834.27hPa | 2.6V | 00:00:00 | 00:00:00 | 00:00:00 | |
| DL1XH-west | 2026-08-31 08:29:39 | 53.21021 | 8.28340 | 56° | 49km/h | 1636m | -9m/s | 7.9°C | 86.6% | 833.4hPa | 2.6V | 08:04:31 | 01:54:10 | 00:00:00 | |
| DL1XH-west | 2026-08-31 08:29:38 | 53.21013 | 8.28323 | 53° | 49km/h | 1645m | -9.6m/s | 7.8°C | 86.8% | 832.4hPa | 2.7V | 08:04:31 | 01:54:09 | 00:00:00 | |
| DL1XH-west | 2026-08-31 08:29:36 | 53.20999 | 8.28289 | 56° | 49km/h | 1663m | -9.1m/s | 7.7°C | 88.3% | 830.6hPa | 2.7V | 08:04:31 | 01:54:07 | 00:00:00 | |
| DL1XH-west | 2026-08-31 08:29:35 | 53.20992 | 8.28272 | 54° | 49km/h | 1672m | -9.6m/s | 7.7°C | 88.6% | 829.6hPa | 2.7V | 08:04:31 | 01:54:06 | 00:00:00 | |
| DL1XH-west | 2026-08-31 08:29:33 | 53.20976 | 8.28237 | 54° | 53km/h | 1691m | -9.8m/s | 7.5°C | 88% | 827.8hPa | 2.6V | 08:04:31 | 01:54:04 | 00:00:00 | |
| DL1XH-west | 2026-08-31 08:29:32 | 53.20969 | 8.28220 | 55° | 51km/h | 1701m | -9.3m/s | 7.5°C | 88% | 826.9hPa | 2.6V | 08:04:31 | 01:54:03 | 00:00:00 | |
| DL1XH-west | 2026-08-31 08:29:31 | 53.20961 | 8.28202 | 53° | 51km/h | 1710m | -9.6m/s | 7.4°C | 87.6% | 826hPa | 2.7V | 08:04:31 | 01:54:02 | 00:00:00 | |
| BIOWL1-15 | 2026-08-31 08:29:29 | 53.20937 | 8.28149 | 54° | 53km/h | 1738m | -9.2m/s | 7.2°C | 88.5% | 823.2hPa | 2.7V | 08:04:31 | 01:53:59 | 00:00:00 | |
| DL1XH-west | 2026-08-31 08:29:29 | 53.20945 | 8.28167 | 54° | 53km/h | 1729m | -9.6m/s | 7.3°C | 88.1% | 824hPa | 2.7V | 08:04:31 | 01:54:00 | 00:00:00 | |
| GOEST3-10 | 2026-08-31 08:29:29 | 53.20945 | 8.28167 | 55° | 53km/h | 1729m | -9.6m/s | 7.2°C | 81.6% | 823.9hPa | 2.7V | 00:00:00 | 01:54:00 | 00:00:00 | |
| DN9WHV | 2026-08-31 08:29:28 | 53.20945 | 8.28167 | 55° | 53km/h | 1729m | -9.6m/s | 7.3°C | 81.7% | 824.0hPa | 2.7V | 08:04:00 | 00:00:00 | 00:00:00 | |
| DM0DOS-11 | 2026-08-31 08:29:28 | 53.20929 | 8.28131 | 53° | 51km/h | 1747m | -9.3m/s | 7.1°C | 82.5% | 822.2hPa | 2.7V | 08:04:27 | 01:53:58 | 00:00:00 | |
| DL1XH-west | 2026-08-31 08:29:27 | 53.20929 | 8.28131 | 54° | 51km/h | 1747m | -9.3m/s | 7.1°C | 88.8% | 822.2hPa | 2.7V | 08:04:31 | 01:53:58 | 00:00:00 | |
| BIOWL1-15 | 2026-08-31 08:29:25 | 53.20913 | 8.28096 | 54° | 53km/h | 1766m | -9.9m/s | 7°C | 89% | 820.3hPa | 2.6V | 08:04:31 | 01:53:56 | 00:00:00 | |
| DL1XH-west | 2026-08-31 08:29:24 | 53.20905 | 8.28078 | 54° | 53km/h | 1775m | -9.3m/s | 6.9°C | 89.1% | 819.4hPa | 2.6V | 08:04:31 | 01:53:55 | 00:00:00 | |
| DL1XH-west | 2026-08-31 08:29:23 | 53.20897 | 8.28060 | 54° | 51km/h | 1785m | -9.5m/s | 6.8°C | 89.4% | 818.4hPa | 2.7V | 08:04:31 | 01:53:54 | 00:00:00 | |
| BIOWL1-15 | 2026-08-31 08:29:22 | 53.20889 | 8.28043 | 51° | 53km/h | 1794m | -10.3m/s | 6.8°C | 88.9% | 817.3hPa | 2.7V | 08:05:22 | 01:53:53 | 00:00:00 | |
| DL1XH-west | 2026-08-31 08:29:21 | 53.20881 | 8.28026 | 51° | 55km/h | 1804m | -10.1m/s | 6.8°C | 88.5% | 816.4hPa | 2.7V | 08:05:22 | 01:53:52 | 00:00:00 | |
| DL1XH-west | 2026-08-31 08:29:20 | 53.20872 | 8.28008 | 53° | 55km/h | 1814m | -9.8m/s | 6.8°C | 88.5% | 815.6hPa | 2.7V | 08:05:22 | 01:53:51 | 00:00:00 | |
| BIOWL1-15 | 2026-08-31 08:29:20 | 53.20839 | 8.27937 | 52° | 55km/h | 1852m | -9.5m/s | 6.6°C | 88.6% | 811.7hPa | 2.7V | 08:05:22 | 01:53:47 | 00:00:00 | |
| DL1XH-west | 2026-08-31 08:29:18 | 53.20856 | 8.27973 | 51° | 53km/h | 1833m | -9.9m/s | 6.7°C | 88.5% | 813.6hPa | 2.6V | 08:05:22 | 01:53:49 | 00:00:00 | |
| DL1XH-west | 2026-08-31 08:29:17 | 53.20847 | 8.27955 | 51° | 55km/h | 1843m | -9.7m/s | 6.6°C | 88.2% | 812.6hPa | 2.6V | 08:05:22 | 01:53:48 | 00:00:00 | |
| GOEST3-10 | 2026-08-31 08:29:17 | 53.20847 | 8.27955 | 51° | 55km/h | 1843m | -9.6m/s | 6.6°C | 81.5% | 812.5hPa | 2.6V | 08:04:00 | 01:53:48 | 00:00:00 | |
| DM0DOS-11 | 2026-08-31 08:29:16 | 53.20813 | 8.27884 | 50° | 55km/h | 1880m | -10.2m/s | 6.4°C | 81.8% | 808.9hPa | 2.7V | 08:04:41 | 01:53:44 | 00:00:00 | |
| DM0DOS-11 | 2026-08-31 08:29:16 | 53.20797 | 8.27848 | 52° | 53km/h | 1899m | -9.3m/s | 6.3°C | 82.6% | 807.1hPa | 2.6V | 08:04:43 | 01:53:42 | 00:00:00 | |
| GOEST3-10 | 2026-08-31 08:29:16 | 53.20839 | 8.27937 | 53° | 55km/h | 1852m | -9.5m/s | 6.5°C | 81.7% | 811.7hPa | 2.7V | 00:00:00 | 00:00:00 | 00:00:00 | |
| DJ2DS-15 | 2026-08-31 08:29:16 | 53.20839 | 8.27937 | 53° | 55km/h | 1852m | -9.5m/s | 6.5°C | 81.7% | 811.7hPa | 2.7V | 00:00:00 | 01:53:47 | 00:00:00 | |
| DN9WHV | 2026-08-31 08:29:15 | 53.20839 | 8.27937 | 53° | 55km/h | 1852m | -9.5m/s | 6.6°C | 81.8% | 811.7hPa | 2.7V | 08:05:00 | 00:00:00 | 00:00:00 | |
| DL1XH-15 | 2026-08-31 08:29:15 | 53.20805 | 8.27866 | 52° | 55km/h | 1890m | -9.2m/s | 6.3°C | 81.8% | 808hPa | 2.7V | 08:04:42 | 01:53:43 | 00:00:00 | |
| DL1XH-15 | 2026-08-31 08:29:15 | 53.20788 | 8.27831 | 50° | 55km/h | 1908m | -9.8m/s | 6.2°C | 82.8% | 806.1hPa | 2.6V | 08:04:44 | 01:53:41 | 00:00:00 | |
| DL1XH-west | 2026-08-31 08:29:15 | 53.20830 | 8.27919 | 53° | 53km/h | 1861m | -9.2m/s | 6.5°C | 88.3% | 810.7hPa | 2.7V | 08:05:22 | 01:53:46 | 00:00:00 | |
| BIOWL1-15 | 2026-08-31 08:29:14 | 53.20813 | 8.27884 | 51° | 55km/h | 1880m | -10.2m/s | 6.4°C | 88.8% | 808.9hPa | 2.7V | 08:05:22 | 01:53:44 | 00:00:00 | |
| DL1XH-west | 2026-08-31 08:29:14 | 53.20822 | 8.27902 | 51° | 53km/h | 1871m | -9.7m/s | 6.5°C | 88.5% | 809.9hPa | 2.7V | 08:05:22 | 01:53:45 | 00:00:00 | |
| DL1XH-west | 2026-08-31 08:29:12 | 53.20805 | 8.27866 | 53° | 55km/h | 1890m | -9.2m/s | 6.3°C | 88.8% | 808hPa | 2.7V | 08:05:22 | 01:53:43 | 00:00:00 | |
| DF5WG-10 | 2026-08-31 08:29:12 | 53.20805 | 8.27866 | 53° | 53km/h | 1890m | -9.2m/s | 6.3°C | 81.8% | 807.9hPa | 2.6V | 00:00:00 | 01:53:43 | 00:00:00 | |
| GOEST3-10 | 2026-08-31 08:29:12 | 53.20805 | 8.27866 | 53° | 55km/h | 1890m | -9.2m/s | 6.3°C | 81.8% | 807.9hPa | 2.6V | 00:00:00 | 00:00:00 | 00:00:00 | |
| GOEST3-10 | 2026-08-31 08:29:11 | 53.20797 | 8.27848 | 53° | 53km/h | 1899m | -9.3m/s | 6.2°C | 82.6% | 807.1hPa | 2.6V | 00:00:00 | 01:53:42 | 00:00:00 | |
| DJ2DS-15 | 2026-08-31 08:29:11 | 53.20797 | 8.27848 | 53° | 55km/h | 1899m | -9.3m/s | 6.2°C | 82.6% | 807.1hPa | 2.6V | 08:04:00 | 01:53:42 | 00:00:00 | |
| DN9WHV | 2026-08-31 08:29:10 | 53.20797 | 8.27848 | 54° | 53km/h | 1899m | -9.3m/s | 6.3°C | 82.6% | 807.1hPa | 2.7V | 08:05:00 | 00:00:00 | 00:00:00 | |
| DM0DOS-11 | 2026-08-31 08:29:10 | 53.20779 | 8.27812 | 52° | 55km/h | 1918m | -9.8m/s | 6.2°C | 83% | 805.2hPa | 2.7V | 08:04:45 | 01:53:40 | 00:00:00 | |
| DM0DOS-11 | 2026-08-31 08:29:10 | 53.20763 | 8.27776 | 53° | 53km/h | 1937m | -9.3m/s | 6°C | 83.3% | 803.4hPa | 2.7V | 08:04:47 | 01:53:38 | 00:00:00 | |
| BIOWL1-15 | 2026-08-31 08:29:10 | 53.20771 | 8.27794 | 54° | 55km/h | 1927m | -9.2m/s | 6.1°C | 90.4% | 804.3hPa | 2.7V | 08:05:22 | 01:53:39 | 00:00:00 | |
| DL1XH-west | 2026-08-31 08:29:10 | 53.20788 | 8.27830 | 50° | 55km/h | 1908m | -9.8m/s | 6.2°C | 89.8% | 806.2hPa | 2.6V | 08:05:22 | 01:53:41 | 00:00:00 | |
| GOEST3-10 | 2026-08-31 08:29:10 | 53.20788 | 8.27830 | 51° | 55km/h | 1908m | -9.7m/s | 6.2°C | 82.8% | 806.1hPa | 2.7V | 00:00:00 | 00:00:00 | 00:00:00 | |
| DN9WHV | 2026-08-31 08:29:09 | 53.20788 | 8.27830 | 51° | 55km/h | 1908m | -9.8m/s | 6.2°C | 82.8% | 806.2hPa | 2.7V | 08:05:00 | 00:00:00 | 00:00:00 | |
| GOEST3-10 | 2026-08-31 08:29:09 | 53.20780 | 8.27812 | 53° | 55km/h | 1918m | -9.8m/s | 6.1°C | 83.0% | 805.2hPa | 2.7V | 00:00:00 | 01:53:40 | 00:00:00 | |
| DL1XH-west | 2026-08-31 08:29:09 | 53.20780 | 8.27812 | 53° | 55km/h | 1918m | -9.8m/s | 6.2°C | 90% | 805.2hPa | 2.7V | 08:05:22 | 01:53:40 | 00:00:00 | |
| DF5WG-10 | 2026-08-31 08:29:09 | 53.20780 | 8.27812 | 53° | 55km/h | 1918m | -9.8m/s | 6.1°C | 83.0% | 805.2hPa | 2.7V | 00:00:00 | 01:53:40 | 00:00:00 | |
| BIOWL7-15 | 2026-08-31 08:29:08 | 53.20779 | 8.27812 | 54° | 55km/h | 1918m | -9.8m/s | 6.2°C | 83.0% | 805.2hPa | 2.7V | 08:05:00 | 00:00:00 | 00:00:00 | |
| DN9WHV | 2026-08-31 08:29:08 | 53.20779 | 8.27812 | 54° | 55km/h | 1918m | -9.8m/s | 6.2°C | 83.0% | 805.2hPa | 2.7V | 08:05:00 | 00:00:00 | 00:00:00 | |
| GOEST3-10 | 2026-08-31 08:29:08 | 53.20771 | 8.27794 | 54° | 55km/h | 1927m | -9.2m/s | 6.0°C | 83.4% | 804.2hPa | 2.7V | 08:04:00 | 00:00:00 | 00:00:00 | |
| DN9WHV | 2026-08-31 08:29:07 | 53.20771 | 8.27794 | 54° | 55km/h | 1927m | -9.2m/s | 6.1°C | 83.4% | 804.3hPa | 2.7V | 08:05:00 | 00:00:00 | 00:00:00 | |
| DL1XH-15 | 2026-08-31 08:29:07 | 53.20721 | 8.27685 | 50° | 55km/h | 1983m | -9.5m/s | 5.6°C | 83.1% | 798.7hPa | 2.7V | 08:04:52 | 01:53:33 | 00:00:00 | |
| DL1XH-west | 2026-08-31 08:29:07 | 53.20763 | 8.27776 | 53° | 53km/h | 1937m | -9.3m/s | 6°C | 90.3% | 803.4hPa | 2.7V | 08:05:22 | 01:53:38 | 00:00:00 | |
| DL1XH-west | 2026-08-31 08:29:06 | 53.20755 | 8.27758 | 51° | 55km/h | 1946m | -9.8m/s | 5.9°C | 90.2% | 802.6hPa | 2.7V | 08:05:22 | 01:53:37 | 00:00:00 | |
| DL1XH-west | 2026-08-31 08:29:05 | 53.20746 | 8.27739 | 53° | 57km/h | 1955m | -9.5m/s | 5.9°C | 89.6% | 801.6hPa | 2.7V | 08:05:22 | 01:53:36 | 00:00:00 | |
| DN9WHV | 2026-08-31 08:29:04 | 53.20746 | 8.27739 | 54° | 57km/h | 1955m | -9.5m/s | 5.9°C | 82.6% | 801.6hPa | 2.6V | 08:05:00 | 00:00:00 | 00:00:00 | |
| DO2LYB-13 | 2026-08-31 08:29:04 | 53.20746 | 8.27739 | 54° | 57km/h | 1955m | -9.5m/s | 5.9°C | 82.6% | 801.6hPa | 2.6V | 00:00:00 | 00:00:00 | 00:00:00 | |
| DL1XH1-15 | 2026-08-31 08:29:04 | 53.20729 | 8.27703 | 51° | 53km/h | 1974m | -9.4m/s | 5.7°C | 83.1% | 799.6hPa | 2.6V | 08:04:51 | 01:53:34 | 00:00:00 | |
| DL1XH1-15 | 2026-08-31 08:29:04 | 53.20712 | 8.27667 | 52° | 57km/h | 1992m | -9.7m/s | 5.5°C | 83.1% | 797.9hPa | 2.7V | 08:04:53 | 01:53:32 | 00:00:00 | |
| DL1XH-west | 2026-08-31 08:29:03 | 53.20729 | 8.27703 | 52° | 53km/h | 1974m | -9.5m/s | 5.7°C | 90% | 799.6hPa | 2.6V | 08:05:22 | 01:53:34 | 00:00:00 | |
| DL1XH-west | 2026-08-31 08:29:02 | 53.20721 | 8.27685 | 51° | 55km/h | 1983m | -9.5m/s | 5.6°C | 89.9% | 798.7hPa | 2.7V | 08:05:22 | 01:53:33 | 00:00:00 | |
| BIOWL1-15 | 2026-08-31 08:29:01 | 53.20712 | 8.27667 | 53° | 57km/h | 1992m | -9.7m/s | 5.5°C | 89.9% | 797.9hPa | 2.7V | 08:05:22 | 01:53:32 | 00:00:00 | |
| DL1XH-west | 2026-08-31 08:29:00 | 53.20704 | 8.27648 | 54° | 55km/h | 2001m | -8.8m/s | 5.5°C | 90.2% | 797hPa | 2.7V | 08:05:22 | 01:53:31 | 00:00:00 | |
| DL1XH-15 | 2026-08-31 08:28:59 | 53.20696 | 8.27630 | 52° | 53km/h | 2010m | -9.3m/s | 5.4°C | 83.1% | 796.1hPa | 2.7V | 08:04:55 | 01:53:30 | 00:00:00 | |
| BIOWL1-15 | 2026-08-31 08:28:59 | 53.20696 | 8.27630 | 53° | 53km/h | 2010m | -9.3m/s | 5.4°C | 89.9% | 796.1hPa | 2.7V | 08:05:22 | 01:53:30 | 00:00:00 | |
| DF5WG-10 | 2026-08-31 08:28:58 | 53.20687 | 8.27612 | 51° | 55km/h | 2019m | -9.7m/s | 5.3°C | 83.0% | 795.2hPa | 2.7V | 00:00:00 | 01:53:29 | 00:00:00 | |
| DN9WHV | 2026-08-31 08:28:56 | 53.20679 | 8.27594 | 54° | 57km/h | 2029m | -9.3m/s | 5.3°C | 82.8% | 794.3hPa | 2.7V | 08:05:00 | 00:00:00 | 00:00:00 | |
| DL1CLM-18 | 2026-08-31 08:28:55 | 53.20670 | 8.27575 | 55° | 53km/h | 2038m | -8.8m/s | 5.3°C | 81.1% | 793.5hPa | 2.7V | 00:00:00 | 00:00:00 | 00:00:00 | |
| DL1XH-15 | 2026-08-31 08:28:53 | 53.20604 | 8.27435 | 50° | 51km/h | 2112m | -9.9m/s | 4.8°C | 78.9% | 786.3hPa | 2.7V | 08:05:06 | 01:53:19 | 00:00:00 | |
| DF5WG-10 | 2026-08-31 08:28:52 | 53.20637 | 8.27503 | 53° | 53km/h | 2075m | -9.3m/s | 5.0°C | 80.9% | 789.7hPa | 2.7V | 00:00:00 | 01:53:23 | 00:00:00 | |
| DD8BA-10 | 2026-08-31 08:28:51 | 53.20629 | 8.27486 | 51° | 53km/h | 2084m | -9.8m/s | 4.9°C | 81.1% | 788.8hPa | 2.7V | 08:05:00 | 00:00:00 | 00:00:00 | |
| DN9WHV | 2026-08-31 08:28:50 | 53.20629 | 8.27486 | 51° | 51km/h | 2084m | -9.8m/s | 5.0°C | 81.0% | 788.8hPa | 2.6V | 08:05:00 | 00:00:00 | 00:00:00 | |
| DL1XH1-15 | 2026-08-31 08:28:49 | 53.20612 | 8.27452 | 51° | 51km/h | 2103m | -9.4m/s | 4.8°C | 80.4% | 787hPa | 2.6V | 08:05:05 | 01:53:20 | 00:00:00 | |
| DM0DOS-11 | 2026-08-31 08:28:49 | 53.20570 | 8.27368 | 49° | 51km/h | 2149m | -9.6m/s | 4.6°C | 79.8% | 782.6hPa | 2.7V | 08:05:10 | 01:53:15 | 00:00:00 | |
| DL1XH-west | 2026-08-31 08:28:49 | 53.20612 | 8.27452 | 52° | 51km/h | 2103m | -9.4m/s | 4.8°C | 87.1% | 787hPa | 2.6V | 08:05:22 | 01:53:20 | 00:00:00 | |
| DN9WHV | 2026-08-31 08:28:48 | 53.20612 | 8.27452 | 53° | 51km/h | 2103m | -9.4m/s | 4.8°C | 80.3% | 787.0hPa | 2.7V | 08:05:00 | 00:00:00 | 00:00:00 | |
| DF5WG-10 | 2026-08-31 08:28:46 | 53.20587 | 8.27401 | 52° | 53km/h | 2131m | -9.7m/s | 4.7°C | 78.7% | 784.2hPa | 2.7V | 00:00:00 | 01:53:17 | 00:00:00 | |
| DN9WHV | 2026-08-31 08:28:45 | 53.20587 | 8.27401 | 52° | 53km/h | 2131m | -9.8m/s | 4.7°C | 78.7% | 784.3hPa | 2.7V | 08:05:00 | 00:00:00 | 00:00:00 | |
| DN9WHV | 2026-08-31 08:28:44 | 53.20578 | 8.27384 | 52° | 51km/h | 2141m | -9.1m/s | 4.6°C | 79.0% | 783.5hPa | 2.7V | 08:05:00 | 00:00:00 | 00:00:00 | |
| DL1XH-15 | 2026-08-31 08:28:43 | 53.20519 | 8.27265 | 51° | 51km/h | 2205m | -9.4m/s | 4.1°C | 83% | 777.3hPa | 2.7V | 08:05:16 | 01:53:09 | 00:00:00 | |
| DN9WHV | 2026-08-31 08:28:43 | 53.20562 | 8.27351 | 50° | 53km/h | 2159m | -9.9m/s | 4.5°C | 80.0% | 781.8hPa | 2.6V | 08:05:00 | 00:00:00 | 00:00:00 | |
| DJ2DS-15 | 2026-08-31 08:28:42 | 53.20553 | 8.27335 | 50° | 53km/h | 2168m | -9.9m/s | 4.4°C | 80.5% | 780.8hPa | 2.6V | 00:00:00 | 01:53:13 | 00:00:00 | |
| DD8BA-10 | 2026-08-31 08:28:41 | 53.20545 | 8.27317 | 52° | 53km/h | 2178m | -9.7m/s | 4.3°C | 81.1% | 779.9hPa | 2.7V | 00:00:00 | 00:00:00 | 00:00:00 | |
| DN9WHV | 2026-08-31 08:28:40 | 53.20544 | 8.27317 | 52° | 53km/h | 2178m | -9.7m/s | 4.3°C | 81.1% | 779.9hPa | 2.7V | 08:05:00 | 00:00:00 | 00:00:00 | |
| DL1XH1-15 | 2026-08-31 08:28:39 | 53.20528 | 8.27282 | 52° | 53km/h | 2196m | -9m/s | 4.2°C | 81.9% | 778.1hPa | 2.7V | 08:05:15 | 01:53:10 | 00:00:00 | |
| DM0DOS-11 | 2026-08-31 08:28:39 | 53.20484 | 8.27197 | 50° | 53km/h | 2244m | -9.2m/s | 3.7°C | 85.7% | 773.6hPa | 2.7V | 08:05:20 | 01:53:05 | 00:00:00 | |
| DL1XH-west | 2026-08-31 08:28:38 | 53.20519 | 8.27265 | 51° | 51km/h | 2206m | -9.4m/s | 4.1°C | 90% | 777.3hPa | 2.7V | 08:05:22 | 01:53:09 | 00:00:00 | |
| DN9WHV | 2026-08-31 08:28:36 | 53.20511 | 8.27248 | 50° | 53km/h | 2215m | -10.2m/s | 4.0°C | 83.7% | 776.5hPa | 2.6V | 08:05:00 | 00:00:00 | 00:00:00 | |
| DO2LYB-13 | 2026-08-31 08:28:35 | 53.20502 | 8.27232 | 50° | 55km/h | 2224m | -9.7m/s | 3.9°C | 84.7% | 775.5hPa | 2.6V | 08:05:00 | 00:00:00 | 00:00:00 | |
| DL1XH1-15 | 2026-08-31 08:28:34 | 53.20441 | 8.27112 | 48° | 51km/h | 2291m | -10.7m/s | 3.3°C | 88.2% | 769.1hPa | 2.6V | 08:05:25 | 01:53:00 | 00:00:00 | |
| DL1XH-west | 2026-08-31 08:28:27 | 53.20423 | 8.27079 | 49° | 55km/h | 2311m | -9.9m/s | 3.2°C | 95.3% | 767.1hPa | 2.7V | 08:06:13 | 01:52:58 | 00:00:00 | |
| BIOWL7-15 | 2026-08-31 08:28:26 | 53.20423 | 8.27079 | 50° | 55km/h | 2311m | -9.9m/s | 3.2°C | 88.7% | 767.2hPa | 2.7V | 08:06:00 | 00:00:00 | 00:00:00 | |
| DL1XH-15 | 2026-08-31 08:28:25 | 53.20405 | 8.27046 | 48° | 55km/h | 2331m | -9.8m/s | 3°C | 92.3% | 765.3hPa | 2.7V | 08:05:29 | 01:52:56 | 00:00:00 | |
| DL1XH-15 | 2026-08-31 08:28:25 | 53.20359 | 8.26964 | 45° | 53km/h | 2379m | -10.3m/s | 2.6°C | 91.6% | 760.7hPa | 2.7V | 08:05:34 | 01:52:51 | 00:00:00 | |
| DB0DAN | 2026-08-31 08:28:25 | 53.20405 | 8.27046 | 49° | 51km/h | 2331m | -9.8m/s | 3°C | 92.1% | 765.33hPa | 2.7V | 00:00:00 | 00:00:00 | 00:00:00 | |
| DM0DOS-11 | 2026-08-31 08:28:24 | 53.20396 | 8.27029 | 47° | 51km/h | 2341m | -9.5m/s | 2.9°C | 92.7% | 764.4hPa | 2.7V | 08:05:30 | 01:52:55 | 00:00:00 | |
| DM0DOS-11 | 2026-08-31 08:28:24 | 53.20350 | 8.26947 | 47° | 55km/h | 2389m | -9.9m/s | 2.5°C | 91.4% | 759.9hPa | 2.7V | 08:05:35 | 01:52:50 | 00:00:00 | |
| DL1XH-west | 2026-08-31 08:28:16 | 53.20322 | 8.26898 | 47° | 55km/h | 2418m | -9.9m/s | 2.3°C | 95.7% | 757.1hPa | 2.6V | 08:06:13 | 01:52:47 | 00:00:00 | |
| DF5WG-10 | 2026-08-31 08:28:16 | 53.20322 | 8.26898 | 48° | 55km/h | 2418m | -9.9m/s | 2.3°C | 89.4% | 757.1hPa | 2.6V | 08:05:00 | 01:52:47 | 00:00:00 | |
| DM0DOS-11 | 2026-08-31 08:28:14 | 53.20303 | 8.26865 | 45° | 55km/h | 2437m | -10.1m/s | 2.2°C | 89.8% | 755.3hPa | 2.7V | 08:05:40 | 01:52:45 | 00:00:00 | |
| DM0DOS-11 | 2026-08-31 08:28:14 | 53.20255 | 8.26781 | 47° | 57km/h | 2486m | -9.4m/s | 1.9°C | 87.7% | 750.9hPa | 2.6V | 08:05:45 | 01:52:40 | 00:00:00 | |
| DF4FW | 2026-08-31 08:28:13 | 53.20303 | 8.26865 | 47° | 55km/h | 2437m | -10.1m/s | 2.2°C | 89.6% | 755.3hPa | 2.6V | 08:06:00 | 00:00:00 | 00:00:00 | |
| DN9WHV | 2026-08-31 08:28:12 | 53.20293 | 8.26848 | 48° | 55km/h | 2447m | -9.6m/s | 2.1°C | 90.7% | 754.6hPa | 2.6V | 08:06:00 | 00:00:00 | 00:00:00 | |
| DB0DAN | 2026-08-31 08:28:10 | 53.20265 | 8.26798 | 47° | 55km/h | 2476m | -9.9m/s | 1.9°C | 89.6% | 751.67hPa | 2.6V | 00:00:00 | 00:00:00 | 00:00:00 | |
| BIOWL1-15 | 2026-08-31 08:28:05 | 53.20216 | 8.26712 | 47° | 58km/h | 2524m | -9.6m/s | 1.6°C | 92.5% | 747.4hPa | 2.7V | 08:06:13 | 01:52:36 | 00:00:00 | |
| DL1XH1-15 | 2026-08-31 08:28:04 | 53.20206 | 8.26695 | 47° | 57km/h | 2534m | -9.3m/s | 1.6°C | 86.7% | 746.5hPa | 2.6V | 08:05:50 | 01:52:35 | 00:00:00 | |
| DM0DOS-11 | 2026-08-31 08:28:04 | 53.20154 | 8.26607 | 44° | 58km/h | 2580m | -9.3m/s | 1.3°C | 88% | 742.1hPa | 2.7V | 08:05:55 | 01:52:30 | 00:00:00 | |
| BIOWL1-15 | 2026-08-31 08:27:56 | 53.20099 | 8.26520 | 45° | 58km/h | 2626m | -9.3m/s | 1°C | 93.4% | 737.9hPa | 2.7V | 08:06:13 | 01:52:25 | 00:00:00 | |
| DB0DAN | 2026-08-31 08:27:55 | 53.20110 | 8.26537 | 45° | 57km/h | 2618m | -9.1m/s | 1.1°C | 87% | 738.56hPa | 2.7V | 00:00:00 | 00:00:00 | 00:00:00 | |
| DL1XH-west | 2026-08-31 08:27:55 | 53.20110 | 8.26537 | 45° | 60km/h | 2618m | -9.1m/s | 1.1°C | 93.4% | 738.6hPa | 2.7V | 08:06:13 | 01:52:26 | 00:00:00 | |
| DL1XH1-15 | 2026-08-31 08:27:54 | 53.20100 | 8.26520 | 44° | 58km/h | 2626m | -9.3m/s | 1.1°C | 87.2% | 737.9hPa | 2.7V | 08:06:00 | 01:52:25 | 00:00:00 | |
| DJ2DS-15 | 2026-08-31 08:27:51 | 53.20055 | 8.26451 | 43° | 60km/h | 2664m | -9.7m/s | 0.8°C | 86.8% | 734.4hPa | 2.6V | 00:00:00 | 00:00:00 | 00:00:00 | |
| BIOWL9-15 | 2026-08-31 08:27:50 | 53.20044 | 8.26433 | 44° | 60km/h | 2674m | -9.2m/s | 0.7°C | 87.3% | 733.5hPa | 2.6V | 00:00:00 | 00:00:00 | 00:00:00 | |
| DL1CLM-18 | 2026-08-31 08:27:48 | 53.20044 | 8.26433 | 45° | 60km/h | 2674m | -9.2m/s | 0.7°C | 87.3% | 733.5hPa | 2.6V | 00:00:00 | 00:00:00 | 00:00:00 | |
| DN9WHV | 2026-08-31 08:27:47 | 53.20033 | 8.26416 | 44° | 60km/h | 2683m | -9.2m/s | 0.7°C | 86.6% | 732.6hPa | 2.6V | 08:06:00 | 00:00:00 | 00:00:00 | |
| DF5WG-10 | 2026-08-31 08:27:46 | 53.20010 | 8.26381 | 43° | 62km/h | 2701m | -9.7m/s | 0.4°C | 87.0% | 731.0hPa | 2.6V | 00:00:00 | 01:52:17 | 00:00:00 | |
| DN9WHV | 2026-08-31 08:27:45 | 53.20010 | 8.26381 | 44° | 62km/h | 2701m | -9.7m/s | 0.5°C | 86.7% | 731.0hPa | 2.6V | 08:06:00 | 00:00:00 | 00:00:00 | |
| DM0DOS-11 | 2026-08-31 08:27:44 | 53.19987 | 8.26346 | 43° | 60km/h | 2719m | -9.6m/s | 0.3°C | 88.1% | 729.3hPa | 2.6V | 08:06:10 | 01:52:15 | 00:00:00 | |
| DL1XH-west | 2026-08-31 08:27:44 | 53.19987 | 8.26346 | 43° | 60km/h | 2719m | -9.6m/s | 0.3°C | 94% | 729.3hPa | 2.6V | 08:06:13 | 01:52:15 | 00:00:00 | |
| BIOWL1-15 | 2026-08-31 08:27:36 | 53.19870 | 8.26170 | 43° | 64km/h | 2814m | -9.7m/s | -0.5°C | 92.6% | 720.9hPa | 2.7V | 08:07:04 | 01:52:05 | 00:00:00 | |
| DN9WHV | 2026-08-31 08:27:35 | 53.19894 | 8.26205 | 42° | 62km/h | 2794m | -9.7m/s | -0.3°C | 85.0% | 722.6hPa | 2.7V | 08:07:00 | 00:00:00 | 00:00:00 | |
| DM0DOS-11 | 2026-08-31 08:27:34 | 53.19870 | 8.26170 | 43° | 64km/h | 2814m | -9.7m/s | -0.5°C | 86.7% | 720.9hPa | 2.7V | 08:06:20 | 01:52:05 | 00:00:00 | |
| DL1XH-west | 2026-08-31 08:27:33 | 53.19858 | 8.26152 | 43° | 64km/h | 2823m | -9.1m/s | -0.6°C | 94.8% | 720.2hPa | 2.6V | 08:07:04 | 01:52:04 | 00:00:00 | |
| DN9WHV | 2026-08-31 08:27:32 | 53.19858 | 8.26152 | 44° | 64km/h | 2823m | -9.1m/s | -0.6°C | 88.8% | 720.2hPa | 2.7V | 08:07:00 | 00:00:00 | 00:00:00 | |
| DN9WHV | 2026-08-31 08:27:31 | 53.19847 | 8.26134 | 43° | 62km/h | 2832m | -9.5m/s | -0.6°C | 88.4% | 719.4hPa | 2.7V | 08:07:00 | 00:00:00 | 00:00:00 | |
| DD8BA-10 | 2026-08-31 08:27:30 | 53.19823 | 8.26099 | 43° | 64km/h | 2850m | -9.5m/s | -0.7°C | 87.7% | 717.6hPa | 2.7V | 00:00:00 | 00:00:00 | 00:00:00 | |
| DM0DOS-11 | 2026-08-31 08:27:29 | 53.19753 | 8.25991 | 41° | 62km/h | 2905m | -9.8m/s | -1.3°C | 88.1% | 712.5hPa | 2.7V | 08:06:30 | 01:51:55 | 00:00:00 | |
| DL1XH-15 | 2026-08-31 08:27:28 | 53.19740 | 8.25974 | 41° | 64km/h | 2914m | -9.8m/s | -1.4°C | 88.3% | 711.7hPa | 2.7V | 08:06:31 | 01:51:54 | 00:00:00 | |
| DF5WG-10 | 2026-08-31 08:27:27 | 53.19788 | 8.26045 | 43° | 64km/h | 2877m | -9.4m/s | -1.0°C | 87.6% | 715.1hPa | 2.7V | 00:00:00 | 01:51:58 | 00:00:00 | |
| DB0DAN | 2026-08-31 08:27:25 | 53.19764 | 8.26009 | 43° | 60km/h | 2896m | -9.3m/s | -1.2°C | 88.4% | 713.49hPa | 2.7V | 00:00:00 | 00:00:00 | 00:00:00 | |
| BIOWL1-15 | 2026-08-31 08:27:23 | 53.19740 | 8.25974 | 41° | 64km/h | 2914m | -9.8m/s | -1.4°C | 92.8% | 711.7hPa | 2.7V | 08:07:04 | 01:51:54 | 00:00:00 | |
| DL1XH-west | 2026-08-31 08:27:22 | 53.19728 | 8.25956 | 43° | 64km/h | 2924m | -10m/s | -1.4°C | 92.7% | 710.9hPa | 2.7V | 08:07:04 | 01:51:53 | 00:00:00 | |
| DJ2DS-15 | 2026-08-31 08:27:22 | 53.19728 | 8.25956 | 43° | 60km/h | 2924m | -9.9m/s | -1.4°C | 88.7% | 710.8hPa | 2.6V | 00:00:00 | 01:51:53 | 00:00:00 | |
| DF5WG-10 | 2026-08-31 08:27:21 | 53.19716 | 8.25937 | 44° | 64km/h | 2934m | -9.6m/s | -1.5°C | 89.2% | 710.0hPa | 2.6V | 08:06:00 | 01:51:52 | 00:00:00 | |
| DN9WHV | 2026-08-31 08:27:20 | 53.19716 | 8.25937 | 45° | 66km/h | 2934m | -9.6m/s | -1.5°C | 88.8% | 710.1hPa | 2.7V | 08:07:00 | 00:00:00 | 00:00:00 | |
| DL1XH1-15 | 2026-08-31 08:27:19 | 53.19693 | 8.25900 | 44° | 62km/h | 2952m | -10.1m/s | -1.7°C | 87.8% | 708.4hPa | 2.7V | 08:06:35 | 01:51:50 | 00:00:00 | |
| DL1XH1-15 | 2026-08-31 08:27:19 | 53.19636 | 8.25810 | 44° | 60km/h | 3000m | -9.7m/s | -2°C | 86% | 704.2hPa | 2.6V | 08:06:40 | 01:51:45 | 00:00:00 | |
| BIOWL9-15 | 2026-08-31 08:27:19 | 53.19682 | 8.25882 | 41° | 62km/h | 2962m | -10.0m/s | -1.7°C | 87.5% | 707.5hPa | 2.7V | 00:00:00 | 00:00:00 | 00:00:00 | |
| DL1XH-15 | 2026-08-31 08:27:18 | 53.19625 | 8.25793 | 42° | 60km/h | 3010m | -9.9m/s | -2°C | 84.8% | 703.4hPa | 2.7V | 08:06:41 | 01:51:44 | 00:00:00 | |
| DF4FW | 2026-08-31 08:27:18 | 53.19682 | 8.25882 | 43° | 62km/h | 2962m | -10.0m/s | -1.7°C | 87.5% | 707.6hPa | 2.6V | 08:07:00 | 00:00:00 | 00:00:00 | |
| DN9WHV | 2026-08-31 08:27:17 | 53.19682 | 8.25882 | 43° | 62km/h | 2962m | -10.0m/s | -1.7°C | 87.5% | 707.6hPa | 2.6V | 08:07:00 | 00:00:00 | 00:00:00 | |
| DN9WHV | 2026-08-31 08:27:16 | 53.19670 | 8.25864 | 43° | 64km/h | 2971m | -9.8m/s | -1.8°C | 87.2% | 706.8hPa | 2.6V | 08:07:00 | 00:00:00 | 00:00:00 | |
| DF5WG-10 | 2026-08-31 08:27:15 | 53.19647 | 8.25829 | 45° | 60km/h | 2990m | -10.0m/s | -1.9°C | 87.1% | 705.1hPa | 2.6V | 00:00:00 | 01:51:46 | 00:00:00 | |
| DN9WHV | 2026-08-31 08:27:14 | 53.19647 | 8.25829 | 45° | 62km/h | 2990m | -10.1m/s | -1.9°C | 86.6% | 705.1hPa | 2.6V | 08:07:00 | 00:00:00 | 00:00:00 | |
| DL1XH-15 | 2026-08-31 08:27:13 | 53.19570 | 8.25706 | 43° | 58km/h | 3057m | -10m/s | -2.3°C | 80.1% | 699.1hPa | 2.6V | 08:06:46 | 01:51:39 | 00:00:00 | |
| BIOWL1-15 | 2026-08-31 08:27:13 | 53.19625 | 8.25793 | 42° | 60km/h | 3010m | -9.9m/s | -2.1°C | 88.1% | 703.4hPa | 2.7V | 08:07:04 | 01:51:44 | 00:00:00 | |
| DL1XH-west | 2026-08-31 08:27:12 | 53.19614 | 8.25776 | 44° | 62km/h | 3019m | -9.9m/s | -2.1°C | 87.4% | 702.5hPa | 2.7V | 08:07:04 | 01:51:43 | 00:00:00 | |
| DN9WHV | 2026-08-31 08:27:11 | 53.19614 | 8.25775 | 45° | 62km/h | 3019m | -9.9m/s | -2.1°C | 83.8% | 702.5hPa | 2.6V | 08:07:00 | 00:00:00 | 00:00:00 | |
| DN9WHV | 2026-08-31 08:27:10 | 53.19603 | 8.25758 | 45° | 58km/h | 3029m | -9.6m/s | -2.2°C | 83.9% | 701.6hPa | 2.6V | 08:07:00 | 00:00:00 | 00:00:00 | |
| DL1XH1-15 | 2026-08-31 08:27:09 | 53.19580 | 8.25723 | 44° | 60km/h | 3047m | -9.8m/s | -2.3°C | 82.4% | 700hPa | 2.6V | 08:06:45 | 01:51:40 | 00:00:00 | |
| DN9WHV | 2026-08-31 08:27:07 | 53.19570 | 8.25706 | 44° | 58km/h | 3057m | -10.0m/s | -2.3°C | 79.6% | 699.1hPa | 2.7V | 08:07:00 | 00:00:00 | 00:00:00 | |
| DN9WHV | 2026-08-31 08:27:06 | 53.19559 | 8.25689 | 44° | 60km/h | 3067m | -10.3m/s | -2.3°C | 77.8% | 698.2hPa | 2.7V | 08:07:00 | 00:00:00 | 00:00:00 | |
| DM0DOS-11 | 2026-08-31 08:27:04 | 53.19527 | 8.25637 | 45° | 58km/h | 3096m | -10.2m/s | -2.5°C | 81.7% | 695.7hPa | 2.7V | 08:06:50 | 01:51:35 | 00:00:00 | |
| DM0DOS-11 | 2026-08-31 08:27:04 | 53.19477 | 8.25554 | 43° | 57km/h | 3145m | -10.1m/s | -2.4°C | 62.5% | 691.4hPa | 2.7V | 08:06:55 | 01:51:30 | 00:00:00 | |
| DL1XH-15 | 2026-08-31 08:27:03 | 53.19517 | 8.25620 | 46° | 57km/h | 3106m | -9.8m/s | -2.5°C | 79.1% | 694.8hPa | 2.6V | 08:06:51 | 01:51:34 | 00:00:00 | |
| DL1XH-15 | 2026-08-31 08:27:03 | 53.19467 | 8.25538 | 46° | 55km/h | 3154m | -9.7m/s | -2.4°C | 62% | 690.5hPa | 2.7V | 08:06:56 | 01:51:29 | 00:00:00 | |
| DL1XH-west | 2026-08-31 08:27:02 | 53.19507 | 8.25603 | 44° | 55km/h | 3116m | -10.3m/s | -2.5°C | 77.3% | 693.9hPa | 2.6V | 08:07:04 | 01:51:33 | 00:00:00 | |
| DJ2DS-15 | 2026-08-31 08:27:02 | 53.19507 | 8.25603 | 44° | 53km/h | 3116m | -10.2m/s | -2.4°C | 74.0% | 693.8hPa | 2.7V | 00:00:00 | 01:51:33 | 00:00:00 | |
| DN9WHV | 2026-08-31 08:27:01 | 53.19507 | 8.25603 | 45° | 55km/h | 3116m | -10.3m/s | -2.5°C | 73.5% | 693.9hPa | 2.7V | 08:07:00 | 00:00:00 | 00:00:00 | |
| GOEST3-10 | 2026-08-31 08:27:00 | 53.19487 | 8.25570 | 46° | 55km/h | 3135m | -9.6m/s | -2.4°C | 62.8% | 692.0hPa | 2.7V | 00:00:00 | 01:51:31 | 00:00:00 | |
| DL1XH-15 | 2026-08-31 08:26:58 | 53.19420 | 8.25456 | 47° | 51km/h | 3202m | -10.1m/s | -2.1°C | 40.5% | 686.4hPa | 2.7V | 08:07:01 | 01:51:24 | 00:00:00 | |
| DN9WHV | 2026-08-31 08:26:57 | 53.19467 | 8.25538 | 47° | 55km/h | 3154m | -9.7m/s | -2.4°C | 61.6% | 690.5hPa | 2.7V | 08:07:00 | 00:00:00 | 00:00:00 | |
| DB0DAN | 2026-08-31 08:26:55 | 53.19438 | 8.25489 | 45° | 53km/h | 3183m | -10.5m/s | -2.4°C | 51.7% | 687.96hPa | 2.7V | 00:00:00 | 00:00:00 | 00:00:00 | |
| HTAHTA | 2026-08-31 08:26:55 | 53.19429 | 8.25472 | 48° | 53km/h | 3193m | -9.8m/s | -2.2°C | 42.3% | 687.2hPa | 2.7V | 00:00:00 | 00:00:00 | 00:00:00 | |
| DM0DOS-11 | 2026-08-31 08:26:54 | 53.19429 | 8.25472 | 48° | 53km/h | 3193m | -9.8m/s | -2.2°C | 42.6% | 687.2hPa | 2.7V | 08:07:00 | 01:51:25 | 00:00:00 | |
| DL1XH-15 | 2026-08-31 08:26:53 | 53.19376 | 8.25377 | 45° | 51km/h | 3250m | -10.1m/s | -2.3°C | 46% | 682.1hPa | 2.7V | 08:07:06 | 01:51:19 | 00:00:00 | |
| DL1XH-west | 2026-08-31 08:26:51 | 53.19402 | 8.25424 | 48° | 51km/h | 3222m | -10.1m/s | -2.2°C | 48.4% | 684.7hPa | 2.6V | 08:07:04 | 01:51:22 | 00:00:00 | |
| DN9WHV | 2026-08-31 08:26:50 | 53.19402 | 8.25424 | 49° | 51km/h | 3222m | -10.1m/s | -2.2°C | 42.4% | 684.7hPa | 2.7V | 08:07:00 | 00:00:00 | 00:00:00 | |
| DL1XH1-15 | 2026-08-31 08:26:49 | 53.19385 | 8.25392 | 47° | 49km/h | 3240m | -10m/s | -2.3°C | 45.1% | 683hPa | 2.7V | 08:07:05 | 01:51:20 | 00:00:00 | |
| DM0DOS-11 | 2026-08-31 08:26:49 | 53.19342 | 8.25312 | 50° | 47km/h | 3288m | -10.2m/s | -2.2°C | 41.6% | 678.9hPa | 2.7V | 08:07:10 | 01:51:15 | 00:00:00 | |
| BIOWL9-15 | 2026-08-31 08:26:48 | 53.19367 | 8.25361 | 49° | 51km/h | 3260m | -10.1m/s | -2.2°C | 43.6% | 681.4hPa | 2.7V | 00:00:00 | 00:00:00 | 00:00:00 | |
| BIOWL1-15 | 2026-08-31 08:26:41 | 53.19318 | 8.25265 | 51° | 49km/h | 3318m | -9.6m/s | -2.3°C | 47.6% | 676.4hPa | 2.7V | 08:07:55 | 01:51:12 | 00:00:00 | |
| DL1XH-west | 2026-08-31 08:26:40 | 53.19310 | 8.25249 | 52° | 49km/h | 3327m | -9.3m/s | -2.4°C | 47.8% | 675.6hPa | 2.6V | 08:07:55 | 01:51:11 | 00:00:00 | |
| DL1XH1-15 | 2026-08-31 08:26:39 | 53.19302 | 8.25233 | 51° | 47km/h | 3336m | -9.7m/s | -2.5°C | 42.1% | 674.6hPa | 2.6V | 08:07:15 | 01:51:10 | 00:00:00 | |
| DL1XH1-15 | 2026-08-31 08:26:39 | 53.19263 | 8.25155 | 51° | 49km/h | 3386m | -9.7m/s | -2.9°C | 43% | 670.6hPa | 2.6V | 08:07:20 | 01:51:05 | 00:00:00 | |
| DL1XH-15 | 2026-08-31 08:26:38 | 53.19295 | 8.25218 | 49° | 47km/h | 3346m | -10.1m/s | -2.5°C | 42.2% | 673.9hPa | 2.7V | 08:07:16 | 01:51:09 | 00:00:00 | |
| DF5WG-10 | 2026-08-31 08:26:36 | 53.19279 | 8.25187 | 51° | 47km/h | 3366m | -10.2m/s | -2.7°C | 43.1% | 672.2hPa | 2.6V | 00:00:00 | 01:51:07 | 00:00:00 | |
| DN9WHV | 2026-08-31 08:26:35 | 53.19271 | 8.25171 | 52° | 49km/h | 3376m | -10.1m/s | -2.8°C | 42.6% | 671.4hPa | 2.6V | 08:07:00 | 00:00:00 | 00:00:00 | |
| DL1XH1-15 | 2026-08-31 08:26:34 | 53.19225 | 8.25078 | 49° | 47km/h | 3434m | -10m/s | -3.2°C | 42% | 666.5hPa | 2.6V | 08:07:25 | 01:51:00 | 00:00:00 | |
| DL1XH-west | 2026-08-31 08:26:30 | 53.19233 | 8.25094 | 49° | 47km/h | 3424m | -10.3m/s | -3.1°C | 48.3% | 667.4hPa | 2.7V | 08:07:55 | 01:51:01 | 00:00:00 | |
| GOEST3-10 | 2026-08-31 08:26:30 | 53.19233 | 8.25093 | 50° | 49km/h | 3424m | -10.2m/s | -3.1°C | 42.0% | 667.3hPa | 2.7V | 08:07:00 | 01:51:01 | 00:00:00 | |
| DN9WHV | 2026-08-31 08:26:29 | 53.19233 | 8.25093 | 50° | 47km/h | 3424m | -10.3m/s | -3.1°C | 41.7% | 667.3hPa | 2.6V | 08:07:00 | 00:00:00 | 00:00:00 | |
| DL1XH-15 | 2026-08-31 08:26:28 | 53.19181 | 8.24982 | 50° | 47km/h | 3493m | -10.3m/s | -3.5°C | 39.9% | 661.7hPa | 2.6V | 08:07:31 | 01:50:54 | 00:00:00 | |
| DN9WHV | 2026-08-31 08:26:27 | 53.19218 | 8.25062 | 53° | 49km/h | 3445m | -10.1m/s | -3.3°C | 41.5% | 665.7hPa | 2.7V | 08:07:00 | 00:00:00 | 00:00:00 | |
| DB0DAN | 2026-08-31 08:26:25 | 53.19195 | 8.25013 | 53° | 46km/h | 3474m | -9.6m/s | -3.5°C | 40.1% | 663.23hPa | 2.7V | 00:00:00 | 00:00:00 | 00:00:00 | |
| DM0DOS-11 | 2026-08-31 08:26:24 | 53.19188 | 8.24997 | 51° | 46km/h | 3484m | -10m/s | -3.5°C | 40% | 662.5hPa | 2.6V | 08:07:30 | 01:50:55 | 00:00:00 | |
| DM0DOS-11 | 2026-08-31 08:26:24 | 53.19150 | 8.24919 | 52° | 47km/h | 3533m | -9.7m/s | -3.8°C | 40.2% | 658.3hPa | 2.7V | 08:07:35 | 01:50:50 | 00:00:00 | |
| HTAHTA | 2026-08-31 08:26:24 | 53.19158 | 8.24935 | 52° | 49km/h | 3523m | -9.5m/s | -3.8°C | 40.1% | 659.1hPa | 2.6V | 00:00:00 | 00:00:00 | 00:00:00 | |
| DL1XH-15 | 2026-08-31 08:26:23 | 53.19143 | 8.24903 | 49° | 49km/h | 3542m | -10.4m/s | -3.9°C | 40.3% | 657.5hPa | 2.6V | 08:07:36 | 01:50:49 | 00:00:00 | |
| DL1XH-west | 2026-08-31 08:26:19 | 53.19150 | 8.24919 | 52° | 47km/h | 3533m | -9.7m/s | -3.9°C | 46.3% | 658.3hPa | 2.7V | 08:07:55 | 01:50:50 | 00:00:00 | |
| DO2JMG | 2026-08-31 08:26:17 | 53.19135 | 8.24887 | 53° | 49km/h | 3552m | -9.5m/s | -4°C | 46.4% | 656.7hPa | 2.6V | 08:08:46 | 01:50:48 | 00:00:00 | |
| BIOWL9-15 | 2026-08-31 08:26:17 | 53.19127 | 8.24870 | 53° | 47km/h | 3561m | -9.7m/s | -4.1°C | 40.0% | 655.9hPa | 2.7V | 00:00:00 | 00:00:00 | 00:00:00 | |
| DF5WG-10 | 2026-08-31 08:26:16 | 53.19127 | 8.24870 | 54° | 51km/h | 3561m | -9.6m/s | -4.0°C | 40.4% | 655.8hPa | 2.7V | 00:00:00 | 01:50:47 | 00:00:00 | |
| GOEST3-10 | 2026-08-31 08:26:15 | 53.19120 | 8.24854 | 51° | 49km/h | 3571m | -10.2m/s | -4.1°C | 40.3% | 655.2hPa | 2.7V | 00:00:00 | 00:00:00 | 00:00:00 | |
| DN9WHV | 2026-08-31 08:26:14 | 53.19119 | 8.24854 | 52° | 49km/h | 3571m | -10.3m/s | -4.2°C | 40.0% | 655.2hPa | 2.6V | 08:07:00 | 00:00:00 | 00:00:00 | |
| DL1XH-15 | 2026-08-31 08:26:13 | 53.19104 | 8.24821 | 52° | 51km/h | 3590m | -9.4m/s | -4.3°C | 40.9% | 653.4hPa | 2.6V | 08:07:41 | 01:50:44 | 00:00:00 | |
| DL1XH-15 | 2026-08-31 08:26:13 | 53.19064 | 8.24737 | 53° | 51km/h | 3637m | -9.4m/s | -4.6°C | 40% | 649.6hPa | 2.7V | 08:07:46 | 01:50:39 | 00:00:00 | |
| DL4BBY-15 | 2026-08-31 08:26:13 | 53.19104 | 8.24821 | 53° | 57km/h | 3590m | -9.4m/s | -7.7°C | 0% | 0hPa | 2.7V | 00:00:00 | 00:00:00 | 00:00:00 | |
| DN9WHV | 2026-08-31 08:26:11 | 53.19096 | 8.24804 | 54° | 49km/h | 3599m | -9.1m/s | -4.4°C | 39.9% | 652.7hPa | 2.7V | 08:07:00 | 00:00:00 | 00:00:00 | |
| DB0DAN | 2026-08-31 08:26:10 | 53.19080 | 8.24772 | 51° | 49km/h | 3618m | -9.8m/s | -4.5°C | 40% | 651.14hPa | 2.7V | 00:00:00 | 00:00:00 | 00:00:00 | |
| DL1XH1-15 | 2026-08-31 08:26:09 | 53.19072 | 8.24754 | 52° | 53km/h | 3628m | -9.4m/s | -4.6°C | 40.3% | 650.4hPa | 2.7V | 08:07:45 | 01:50:40 | 00:00:00 | |
| DL1XH-west | 2026-08-31 08:26:09 | 53.19072 | 8.24754 | 52° | 53km/h | 3628m | -9.4m/s | -4.6°C | 45.8% | 650.4hPa | 2.7V | 08:07:55 | 01:50:40 | 00:00:00 | |
| DO2JMG | 2026-08-31 08:26:06 | 53.19047 | 8.24702 | 50° | 55km/h | 3656m | -10.7m/s | -4.8°C | 45.5% | 648hPa | 2.6V | 08:08:46 | 01:50:37 | 00:00:00 | |
| DF5WG-10 | 2026-08-31 08:26:06 | 53.19047 | 8.24702 | 51° | 57km/h | 3656m | -10.7m/s | -4.7°C | 39.9% | 648.0hPa | 2.7V | 00:00:00 | 01:50:37 | 00:00:00 | |
| GOEST3-10 | 2026-08-31 08:26:05 | 53.19038 | 8.24684 | 53° | 55km/h | 3666m | -9.7m/s | -4.8°C | 40.1% | 647.1hPa | 2.7V | 00:00:00 | 00:00:00 | 00:00:00 | |
| DL1XH1-15 | 2026-08-31 08:26:04 | 53.18987 | 8.24574 | 52° | 58km/h | 3725m | -10.5m/s | -5.3°C | 40% | 642.3hPa | 2.7V | 08:07:55 | 01:50:30 | 00:00:00 | |
| DL1XH-15 | 2026-08-31 08:26:03 | 53.18977 | 8.24555 | 52° | 58km/h | 3735m | -10m/s | -5.4°C | 39.9% | 641.5hPa | 2.7V | 08:07:56 | 01:50:29 | 00:00:00 | |
| BIOWL1-15 | 2026-08-31 08:25:59 | 53.18986 | 8.24574 | 52° | 58km/h | 3725m | -10.5m/s | -5.3°C | 45.5% | 642.3hPa | 2.7V | 08:07:55 | 01:50:30 | 00:00:00 | |
| DL1XH-west | 2026-08-31 08:25:58 | 53.18977 | 8.24555 | 53° | 58km/h | 3735m | -10m/s | -5.4°C | 45.3% | 641.5hPa | 2.7V | 08:08:46 | 01:50:29 | 00:00:00 | |
| DN9WHV | 2026-08-31 08:25:57 | 53.18977 | 8.24555 | 54° | 58km/h | 3735m | -10.0m/s | -5.4°C | 39.5% | 641.5hPa | 2.7V | 08:08:00 | 00:00:00 | 00:00:00 | |
| DB0DAN | 2026-08-31 08:25:55 | 53.18950 | 8.24498 | 50° | 57km/h | 3766m | -10.5m/s | -5.6°C | 44.8% | 639.09hPa | 2.7V | 00:00:00 | 00:00:00 | 00:00:00 | |
| GOEST3-10 | 2026-08-31 08:25:55 | 53.18950 | 8.24497 | 51° | 60km/h | 3766m | -10.4m/s | -5.5°C | 45.2% | 639.0hPa | 2.7V | 00:00:00 | 00:00:00 | 00:00:00 | |
| DM0DOS-11 | 2026-08-31 08:25:54 | 53.18895 | 8.24380 | 52° | 60km/h | 3826m | -10.4m/s | -5.7°C | 40.5% | 634.2hPa | 2.7V | 08:08:05 | 01:50:20 | 00:00:00 | |
| DL1XH-15 | 2026-08-31 08:25:53 | 53.18886 | 8.24359 | 53° | 60km/h | 3837m | -9.8m/s | -5.8°C | 47.1% | 633.4hPa | 2.7V | 08:08:06 | 01:50:19 | 00:00:00 | |
| BIOWL1-15 | 2026-08-31 08:25:50 | 53.18886 | 8.24359 | 53° | 60km/h | 3837m | -9.8m/s | -5.8°C | 52.8% | 633.4hPa | 2.7V | 08:08:46 | 01:50:19 | 00:00:00 | |
| DL1XH-west | 2026-08-31 08:25:47 | 53.18877 | 8.24340 | 52° | 58km/h | 3847m | -10.6m/s | -5.8°C | 51.6% | 632.6hPa | 2.7V | 08:08:46 | 01:50:18 | 00:00:00 | |
| DF5WG-10 | 2026-08-31 08:25:46 | 53.18867 | 8.24320 | 51° | 62km/h | 3857m | -10.7m/s | -5.8°C | 45.3% | 631.7hPa | 2.6V | 00:00:00 | 01:50:17 | 00:00:00 | |
| DO2LYB-13 | 2026-08-31 08:25:45 | 53.18867 | 8.24320 | 51° | 60km/h | 3857m | -10.8m/s | -5.9°C | 44.8% | 631.8hPa | 2.6V | 08:08:00 | 00:00:00 | 00:00:00 | |
| DM0DOS-11 | 2026-08-31 08:25:44 | 53.18848 | 8.24280 | 53° | 62km/h | 3878m | -10.6m/s | -6°C | 53.2% | 630.2hPa | 2.6V | 08:08:10 | 01:50:15 | 00:00:00 | |
| DM0DOS-11 | 2026-08-31 08:25:44 | 53.18801 | 8.24179 | 51° | 62km/h | 3928m | -10.6m/s | -6.2°C | 48.3% | 626.1hPa | 2.7V | 08:08:15 | 01:50:10 | 00:00:00 | |
| DL1XH-15 | 2026-08-31 08:25:43 | 53.18791 | 8.24158 | 52° | 62km/h | 3938m | -10.5m/s | -6.2°C | 45.6% | 625.4hPa | 2.6V | 08:08:16 | 01:50:09 | 00:00:00 | |
| BIOWL1-15 | 2026-08-31 08:25:42 | 53.18791 | 8.24158 | 52° | 62km/h | 3938m | -10.5m/s | -6.2°C | 51.3% | 625.4hPa | 2.6V | 08:08:46 | 01:50:09 | 00:00:00 | |
| DL1XH-west | 2026-08-31 08:25:37 | 53.18782 | 8.24137 | 53° | 64km/h | 3948m | -10.3m/s | -6.2°C | 48.4% | 624.5hPa | 2.6V | 08:08:46 | 01:50:08 | 00:00:00 | |
| DF5WG-10 | 2026-08-31 08:25:36 | 53.18772 | 8.24116 | 53° | 60km/h | 3958m | -10.0m/s | -6.2°C | 44.4% | 623.7hPa | 2.6V | 00:00:00 | 01:50:07 | 00:00:00 | |
| GOEST3-10 | 2026-08-31 08:25:35 | 53.18762 | 8.24095 | 54° | 60km/h | 3968m | -9.9m/s | -6.3°C | 48.1% | 622.9hPa | 2.6V | 00:00:00 | 00:00:00 | 00:00:00 | |
| DC6BW-12 | 2026-08-31 08:25:34 | 53.18762 | 8.24095 | 54° | 60km/h | 3968m | -9.9m/s | -6.3°C | 47.6% | 622.9hPa | 2.6V | 00:00:00 | 00:00:00 | 00:00:00 | |
| DL1XH-15 | 2026-08-31 08:25:33 | 53.18744 | 8.24056 | 50° | 60km/h | 3987m | -10.5m/s | -6.5°C | 48% | 621.3hPa | 2.6V | 08:08:21 | 01:50:04 | 00:00:00 | |
| DL1XH-15 | 2026-08-31 08:25:33 | 53.18694 | 8.23957 | 51° | 60km/h | 4038m | -9.8m/s | -6.8°C | 48.5% | 617.4hPa | 2.6V | 08:08:26 | 01:49:59 | 00:00:00 | |
| DN9WHV | 2026-08-31 08:25:32 | 53.18743 | 8.24056 | 51° | 60km/h | 3987m | -10.5m/s | -6.5°C | 47.5% | 621.3hPa | 2.7V | 08:08:00 | 00:00:00 | 00:00:00 | |
| DL1CLM-18 | 2026-08-31 08:25:31 | 53.18724 | 8.24017 | 52° | 62km/h | 4008m | -10.5m/s | -6.6°C | 49.9% | 619.7hPa | 2.7V | 00:00:00 | 00:00:00 | 00:00:00 | |
| DF4FW | 2026-08-31 08:25:30 | 53.18724 | 8.24017 | 52° | 62km/h | 4008m | -10.5m/s | -6.6°C | 49.9% | 619.7hPa | 2.7V | 08:08:00 | 00:00:00 | 00:00:00 | |
| DL1XH1-15 | 2026-08-31 08:25:29 | 53.18704 | 8.23977 | 51° | 62km/h | 4028m | -10.1m/s | -6.8°C | 52.8% | 618.1hPa | 2.7V | 08:08:25 | 01:50:00 | 00:00:00 | |
| DM0DOS-11 | 2026-08-31 08:25:29 | 53.18656 | 8.23881 | 48° | 60km/h | 4077m | -10.8m/s | -7°C | 45.6% | 614.2hPa | 2.7V | 08:08:30 | 01:49:55 | 00:00:00 | |
| BIOWL1-15 | 2026-08-31 08:25:27 | 53.18685 | 8.23937 | 51° | 58km/h | 4047m | -10.2m/s | -6.9°C | 51.5% | 616.5hPa | 2.6V | 08:08:46 | 01:49:58 | 00:00:00 | |
| DN9WHV | 2026-08-31 08:25:26 | 53.18685 | 8.23937 | 52° | 58km/h | 4047m | -10.2m/s | -6.9°C | 45.4% | 616.5hPa | 2.7V | 08:08:00 | 00:00:00 | 00:00:00 | |
| DB0DAN | 2026-08-31 08:25:25 | 53.18666 | 8.23900 | 48° | 57km/h | 4067m | -10.8m/s | -7°C | 45.3% | 614.93hPa | 2.7V | 00:00:00 | 00:00:00 | 00:00:00 | |
| DN9WHV | 2026-08-31 08:25:25 | 53.18656 | 8.23881 | 49° | 60km/h | 4077m | -10.8m/s | -7.0°C | 45.0% | 614.2hPa | 2.6V | 08:08:00 | 00:00:00 | 00:00:00 | |
| DN9WHV | 2026-08-31 08:25:24 | 53.18646 | 8.23862 | 50° | 60km/h | 4088m | -10.5m/s | -7.1°C | 44.3% | 613.4hPa | 2.6V | 08:08:00 | 00:00:00 | 00:00:00 | |
| DL1XH-15 | 2026-08-31 08:25:23 | 53.18598 | 8.23767 | 48° | 58km/h | 4136m | -10.4m/s | -7.4°C | 45.5% | 609.4hPa | 2.6V | 08:08:36 | 01:49:49 | 00:00:00 | |
| DJ2DS-15 | 2026-08-31 08:25:22 | 53.18636 | 8.23843 | 51° | 58km/h | 4098m | -10.2m/s | -7.1°C | 44.2% | 612.4hPa | 2.7V | 00:00:00 | 01:49:53 | 00:00:00 | |
| DN9WHV | 2026-08-31 08:25:21 | 53.18636 | 8.23843 | 52° | 60km/h | 4098m | -10.3m/s | -7.2°C | 43.6% | 612.5hPa | 2.7V | 08:08:00 | 00:00:00 | 00:00:00 | |
| DL1LOL-11 | 2026-08-31 08:25:20 | 53.18626 | 8.23823 | 52° | 60km/h | 4107m | -10.1m/s | -7.3°C | 43.5% | 611.8hPa | 2.7V | 00:00:00 | 00:00:00 | 00:00:00 | |
| DL1XH1-15 | 2026-08-31 08:25:19 | 53.18607 | 8.23785 | 50° | 57km/h | 4127m | -10.2m/s | -7.4°C | 45.7% | 610.2hPa | 2.7V | 08:08:35 | 01:49:50 | 00:00:00 | |
| DM0DOS-11 | 2026-08-31 08:25:19 | 53.18559 | 8.23692 | 51° | 58km/h | 4177m | -10m/s | -7.5°C | 35.1% | 606.2hPa | 2.7V | 08:08:40 | 01:49:45 | 00:00:00 | |
| DL1XH-15 | 2026-08-31 08:25:18 | 53.18550 | 8.23672 | 53° | 57km/h | 4186m | -10m/s | -7.5°C | 33% | 605.5hPa | 2.6V | 08:08:41 | 01:49:44 | 00:00:00 | |
| DO2JMG | 2026-08-31 08:25:18 | 53.18598 | 8.23767 | 48° | 58km/h | 4136m | -10.4m/s | -7.4°C | 51.3% | 609.4hPa | 2.6V | 08:08:46 | 01:49:49 | 00:00:00 | |
| DL1XH-west | 2026-08-31 08:25:16 | 53.18578 | 8.23730 | 49° | 58km/h | 4157m | -10.8m/s | -7.5°C | 46.5% | 607.8hPa | 2.7V | 08:08:46 | 01:49:47 | 00:00:00 | |
| GOEST3-10 | 2026-08-31 08:25:15 | 53.18568 | 8.23711 | 51° | 57km/h | 4167m | -10.4m/s | -7.4°C | 37.1% | 607.0hPa | 2.7V | 00:00:00 | 00:00:00 | 00:00:00 | |
| DL1CLM-18 | 2026-08-31 08:25:14 | 53.18568 | 8.23711 | 52° | 58km/h | 4167m | -10.5m/s | -7.4°C | 36.6% | 607.1hPa | 2.7V | 00:00:00 | 00:00:00 | 00:00:00 | |
| DL4BBY-15 | 2026-08-31 08:25:13 | 53.18550 | 8.23672 | 54° | 58km/h | 4186m | -10.0m/s | -10.8°C | 0% | 0hPa | 2.7V | 00:00:00 | 00:00:00 | 00:00:00 | |
| DN9WHV | 2026-08-31 08:25:11 | 53.18541 | 8.23653 | 54° | 57km/h | 4196m | -10.3m/s | -7.5°C | 31.2% | 604.6hPa | 2.7V | 08:08:00 | 00:00:00 | 00:00:00 | |
| BIOWL7-15 | 2026-08-31 08:25:10 | 53.18532 | 8.23634 | 53° | 57km/h | 4206m | -10.8m/s | -7.5°C | 30.5% | 603.9hPa | 2.7V | 08:08:00 | 00:00:00 | 00:00:00 | |
| DL1XH1-15 | 2026-08-31 08:25:09 | 53.18514 | 8.23598 | 49° | 58km/h | 4227m | -10.9m/s | -7.6°C | 32.1% | 602.3hPa | 2.7V | 08:08:45 | 01:49:40 | 00:00:00 | |
| DL1XH-15 | 2026-08-31 08:25:08 | 53.18505 | 8.23579 | 50° | 58km/h | 4238m | -10.9m/s | -7.7°C | 31.2% | 601.5hPa | 2.6V | 08:08:46 | 01:49:39 | 00:00:00 | |
| DL1XH-15 | 2026-08-31 08:25:08 | 53.18458 | 8.23484 | 49° | 58km/h | 4289m | -10.8m/s | -8.1°C | 38.2% | 597.6hPa | 2.6V | 08:08:51 | 01:49:34 | 00:00:00 | |
| DO2JMG | 2026-08-31 08:25:07 | 53.18495 | 8.23560 | 51° | 58km/h | 4248m | -10.6m/s | -7.7°C | 37.7% | 600.8hPa | 2.6V | 08:09:37 | 01:49:38 | 00:00:00 | |
| BIOWL1-15 | 2026-08-31 08:25:05 | 53.18477 | 8.23521 | 52° | 57km/h | 4269m | -10.2m/s | -7.9°C | 42.2% | 599.1hPa | 2.7V | 08:09:37 | 01:49:36 | 00:00:00 | |
| DM0DOS-11 | 2026-08-31 08:25:04 | 53.18468 | 8.23502 | 50° | 57km/h | 4278m | -10.4m/s | -8°C | 37.6% | 598.4hPa | 2.7V | 08:08:50 | 01:49:35 | 00:00:00 | |
| DM0DOS-11 | 2026-08-31 08:25:04 | 53.18421 | 8.23407 | 50° | 57km/h | 4329m | -10.7m/s | -8.5°C | 38.9% | 594.6hPa | 2.7V | 08:08:55 | 01:49:30 | 00:00:00 | |
| DL1XH-15 | 2026-08-31 08:25:03 | 53.18412 | 8.23388 | 49° | 58km/h | 4339m | -10.5m/s | -8.5°C | 41.4% | 593.7hPa | 2.6V | 08:08:56 | 01:49:29 | 00:00:00 | |
| DO2JMG | 2026-08-31 08:24:56 | 53.18393 | 8.23351 | 50° | 58km/h | 4360m | -10.8m/s | -8.7°C | 46.7% | 592.1hPa | 2.7V | 08:09:37 | 01:49:27 | 00:00:00 | |
| DB0DAN | 2026-08-31 08:24:55 | 53.18383 | 8.23332 | 49° | 57km/h | 4371m | -10.9m/s | -8.7°C | 38.3% | 591.4hPa | 2.7V | 00:00:00 | 00:00:00 | 00:00:00 | |
| DL1XH-west | 2026-08-31 08:24:55 | 53.18383 | 8.23332 | 49° | 58km/h | 4370m | -10.9m/s | -8.7°C | 44.7% | 591.4hPa | 2.7V | 08:09:37 | 01:49:26 | 00:00:00 | |
| DM0DOS-11 | 2026-08-31 08:24:54 | 53.18374 | 8.23313 | 50° | 60km/h | 4381m | -10.8m/s | -8.8°C | 38.9% | 590.6hPa | 2.7V | 08:09:00 | 01:49:25 | 00:00:00 | |
| BIOWL1-15 | 2026-08-31 08:24:54 | 53.18374 | 8.23313 | 51° | 60km/h | 4381m | -10.9m/s | -8.8°C | 44.7% | 590.6hPa | 2.7V | 08:09:37 | 01:49:25 | 00:00:00 | |
| DL1XH-15 | 2026-08-31 08:24:53 | 53.18364 | 8.23294 | 51° | 60km/h | 4392m | -10.4m/s | -8.9°C | 39.5% | 589.8hPa | 2.6V | 08:09:01 | 01:49:24 | 00:00:00 | |
| DL1XH-15 | 2026-08-31 08:24:53 | 53.18318 | 8.23199 | 48° | 58km/h | 4443m | -11.1m/s | -9.3°C | 43.5% | 585.9hPa | 2.7V | 08:09:06 | 01:49:19 | 00:00:00 | |
| DJ2DS-15 | 2026-08-31 08:24:50 | 53.18337 | 8.23236 | 51° | 57km/h | 4422m | -10.8m/s | -9.2°C | 42.6% | 587.3hPa | 2.7V | 00:00:00 | 00:00:00 | 00:00:00 | |
| DL1XH1-15 | 2026-08-31 08:24:49 | 53.18328 | 8.23218 | 49° | 57km/h | 4433m | -11.2m/s | -9.2°C | 43.1% | 586.6hPa | 2.7V | 08:09:05 | 01:49:20 | 00:00:00 | |
| DM0DOS-11 | 2026-08-31 08:24:49 | 53.18280 | 8.23123 | 51° | 58km/h | 4486m | -10.1m/s | -9.7°C | 51.4% | 582.6hPa | 2.7V | 08:09:10 | 01:49:15 | 00:00:00 | |
| DL1XH-15 | 2026-08-31 08:24:48 | 53.18270 | 8.23104 | 50° | 58km/h | 4495m | -10.1m/s | -9.8°C | 50.9% | 581.9hPa | 2.7V | 08:09:11 | 01:49:14 | 00:00:00 | |
| DO2JMG | 2026-08-31 08:24:45 | 53.18289 | 8.23142 | 51° | 60km/h | 4476m | -10.4m/s | -9.6°C | 54.8% | 583.4hPa | 2.6V | 08:09:37 | 01:49:16 | 00:00:00 | |
| DL1XH-west | 2026-08-31 08:24:44 | 53.18280 | 8.23123 | 52° | 58km/h | 4486m | -10.1m/s | -9.7°C | 57.2% | 582.6hPa | 2.7V | 08:09:37 | 01:49:15 | 00:00:00 | |
| DL1XH-15 | 2026-08-31 08:24:43 | 53.18222 | 8.23010 | 49° | 62km/h | 4547m | -10.6m/s | -10.2°C | 45.4% | 578hPa | 2.7V | 08:09:16 | 01:49:09 | 00:00:00 | |
| DL4BBY-15 | 2026-08-31 08:24:43 | 53.18270 | 8.23104 | 51° | 64km/h | 4496m | -10.1m/s | -13.1°C | 0% | 0hPa | 2.7V | 00:00:00 | 00:00:00 | 00:00:00 | |
| DJ2DS-15 | 2026-08-31 08:24:42 | 53.18261 | 8.23085 | 50° | 62km/h | 4506m | -10.4m/s | -9.8°C | 50.6% | 581.0hPa | 2.7V | 00:00:00 | 01:49:13 | 00:00:00 | |
| DN9WHV | 2026-08-31 08:24:41 | 53.18261 | 8.23085 | 51° | 57km/h | 4506m | -10.4m/s | -9.9°C | 49.8% | 581.1hPa | 2.6V | 08:09:00 | 00:00:00 | 00:00:00 | |
| DB0DAN | 2026-08-31 08:24:40 | 53.18242 | 8.23048 | 49° | 57km/h | 4526m | -11.1m/s | -10°C | 48.1% | 579.55hPa | 2.6V | 00:00:00 | 00:00:00 | 00:00:00 | |
| DL1XH1-15 | 2026-08-31 08:24:39 | 53.18233 | 8.23030 | 48° | 60km/h | 4537m | -10.9m/s | -10.1°C | 47.6% | 578.6hPa | 2.7V | 08:09:15 | 01:49:10 | 00:00:00 | |
| DM0DOS-11 | 2026-08-31 08:24:39 | 53.18183 | 8.22932 | 47° | 60km/h | 4588m | -10.6m/s | -10.4°C | 44.9% | 574.8hPa | 2.6V | 08:09:20 | 01:49:05 | 00:00:00 | |
| DO2JMG | 2026-08-31 08:24:35 | 53.18193 | 8.22951 | 49° | 60km/h | 4578m | -10.2m/s | -10.4°C | 49.3% | 575.7hPa | 2.6V | 08:09:37 | 01:49:06 | 00:00:00 | |
| DL1XH-west | 2026-08-31 08:24:34 | 53.18183 | 8.22932 | 48° | 60km/h | 4588m | -10.6m/s | -10.5°C | 50.1% | 574.8hPa | 2.6V | 08:09:37 | 01:49:05 | 00:00:00 | |
| DL1XH-15 | 2026-08-31 08:24:33 | 53.18173 | 8.22913 | 47° | 62km/h | 4598m | -10.9m/s | -10.5°C | 44.3% | 574.1hPa | 2.6V | 08:09:21 | 01:49:04 | 00:00:00 | |
| DL1XH-15 | 2026-08-31 08:24:33 | 53.18119 | 8.22811 | 49° | 64km/h | 4650m | -10.2m/s | -10.6°C | 37.8% | 570.3hPa | 2.6V | 08:09:26 | 01:48:59 | 00:00:00 | |
| DN9WHV | 2026-08-31 08:24:31 | 53.18162 | 8.22893 | 49° | 64km/h | 4609m | -10.9m/s | -10.5°C | 42.7% | 573.4hPa | 2.7V | 08:09:00 | 00:00:00 | 00:00:00 | |
| GOEST3-10 | 2026-08-31 08:24:30 | 53.18141 | 8.22852 | 50° | 64km/h | 4630m | -10.2m/s | -10.5°C | 38.8% | 571.9hPa | 2.7V | 00:00:00 | 01:49:01 | 00:00:00 | |
| DL1XH1-15 | 2026-08-31 08:24:29 | 53.18076 | 8.22732 | 45° | 64km/h | 4691m | -10.8m/s | -10.9°C | 38.2% | 567.3hPa | 2.7V | 08:09:30 | 01:48:55 | 00:00:00 | |
| DN9WHV | 2026-08-31 08:24:28 | 53.18130 | 8.22832 | 50° | 64km/h | 4640m | -10.1m/s | -10.6°C | 36.7% | 571.1hPa | 2.7V | 08:09:00 | 00:00:00 | 00:00:00 | |
| DN9WHV | 2026-08-31 08:24:27 | 53.18119 | 8.22811 | 50° | 64km/h | 4650m | -10.2m/s | -10.6°C | 37.1% | 570.3hPa | 2.7V | 08:09:00 | 00:00:00 | 00:00:00 | |
| DF4FW | 2026-08-31 08:24:26 | 53.18109 | 8.22791 | 49° | 64km/h | 4660m | -10.4m/s | -10.6°C | 36.8% | 569.5hPa | 2.7V | 08:09:00 | 00:00:00 | 00:00:00 | |
| DB0DAN | 2026-08-31 08:24:25 | 53.18088 | 8.22751 | 47° | 60km/h | 4681m | -11.1m/s | -10.8°C | 37.3% | 568.04hPa | 2.7V | 00:00:00 | 00:00:00 | 00:00:00 | |
| BIOWL1-15 | 2026-08-31 08:24:24 | 53.18076 | 8.22732 | 46° | 64km/h | 4691m | -10.8m/s | -10.9°C | 43.9% | 567.3hPa | 2.7V | 08:09:37 | 01:48:55 | 00:00:00 | |
| DL1XH-15 | 2026-08-31 08:24:23 | 53.18065 | 8.22712 | 45° | 66km/h | 4701m | -10.8m/s | -10.9°C | 38.3% | 566.5hPa | 2.7V | 08:09:31 | 01:48:54 | 00:00:00 | |
| DJ2DS-15 | 2026-08-31 08:24:22 | 53.18053 | 8.22692 | 48° | 66km/h | 4712m | -10.9m/s | -11.0°C | 38.5% | 565.8hPa | 2.6V | 00:00:00 | 01:48:53 | 00:00:00 | |
| DN9WHV | 2026-08-31 08:24:21 | 53.18053 | 8.22692 | 48° | 66km/h | 4712m | -10.9m/s | -11.0°C | 37.8% | 565.8hPa | 2.6V | 08:09:00 | 00:00:00 | 00:00:00 | |
| DM0DOS-11 | 2026-08-31 08:24:19 | 53.18020 | 8.22630 | 48° | 66km/h | 4743m | -10.4m/s | -11.2°C | 40.5% | 563.5hPa | 2.6V | 08:09:35 | 01:48:50 | 00:00:00 | |
| DM0DOS-11 | 2026-08-31 08:24:19 | 53.17965 | 8.22527 | 48° | 68km/h | 4795m | -10.2m/s | -11.6°C | 33.4% | 559.7hPa | 2.6V | 08:09:40 | 01:48:45 | 00:00:00 | |
| DL1XH-west | 2026-08-31 08:24:14 | 53.17965 | 8.22527 | 49° | 68km/h | 4795m | -10.3m/s | -11.6°C | 38.8% | 559.7hPa | 2.6V | 08:10:28 | 01:48:45 | 00:00:00 | |
| DL1XH-15 | 2026-08-31 08:24:13 | 53.17954 | 8.22506 | 48° | 68km/h | 4805m | -10.3m/s | -11.6°C | 33.9% | 559hPa | 2.6V | 08:09:41 | 01:48:44 | 00:00:00 | |
| DO2JMG | 2026-08-31 08:24:13 | 53.17954 | 8.22506 | 49° | 68km/h | 4805m | -10.3m/s | -11.6°C | 39.5% | 559hPa | 2.6V | 08:10:28 | 01:48:44 | 00:00:00 | |
| DL4BBY-15 | 2026-08-31 08:24:13 | 53.17953 | 8.22506 | 49° | 66km/h | 4805m | -10.3m/s | -14.9°C | 0% | 0hPa | 2.7V | 00:00:00 | 00:00:00 | 00:00:00 | |
| BIOWL9-15 | 2026-08-31 08:24:12 | 53.17943 | 8.22485 | 49° | 64km/h | 4815m | -9.8m/s | -11.8°C | 33.5% | 558.2hPa | 2.7V | 00:00:00 | 00:00:00 | 00:00:00 | |
| DN9WHV | 2026-08-31 08:24:11 | 53.17943 | 8.22485 | 50° | 66km/h | 4815m | -9.8m/s | -11.7°C | 33.5% | 558.2hPa | 2.7V | 08:10:00 | 00:00:00 | 00:00:00 | |
| DB0DAN | 2026-08-31 08:24:10 | 53.17921 | 8.22444 | 49° | 60km/h | 4836m | -10.9m/s | -11.9°C | 33.5% | 556.78hPa | 2.7V | 00:00:00 | 00:00:00 | 00:00:00 | |
| DD8BA-10 | 2026-08-31 08:24:10 | 53.17921 | 8.22443 | 50° | 66km/h | 4836m | -10.9m/s | -11.9°C | 34.2% | 556.7hPa | 2.7V | 00:00:00 | 00:00:00 | 00:00:00 | |
| DM0DOS-11 | 2026-08-31 08:24:09 | 53.17855 | 8.22321 | 48° | 64km/h | 4897m | -10.2m/s | -12.4°C | 30.6% | 552.2hPa | 2.7V | 08:09:50 | 01:48:35 | 00:00:00 | |
| DL1XH-west | 2026-08-31 08:24:04 | 53.17855 | 8.22321 | 49° | 64km/h | 4897m | -10.2m/s | -12.4°C | 35.7% | 552.2hPa | 2.7V | 08:10:28 | 01:48:35 | 00:00:00 | |
| DL1XH-15 | 2026-08-31 08:24:03 | 53.17844 | 8.22301 | 47° | 64km/h | 4907m | -10.7m/s | -12.5°C | 29.2% | 551.5hPa | 2.7V | 08:09:51 | 01:48:34 | 00:00:00 | |
| DO2JMG | 2026-08-31 08:24:02 | 53.17833 | 8.22282 | 46° | 66km/h | 4917m | -10.9m/s | -12.6°C | 34.4% | 550.8hPa | 2.7V | 08:10:28 | 01:48:33 | 00:00:00 | |
| DJ2DS-15 | 2026-08-31 08:24:02 | 53.17833 | 8.22282 | 47° | 66km/h | 4917m | -10.8m/s | -12.5°C | 29.5% | 550.7hPa | 2.7V | 00:00:00 | 01:48:33 | 00:00:00 | |
| DN9WHV | 2026-08-31 08:24:01 | 53.17833 | 8.22282 | 47° | 66km/h | 4917m | -10.9m/s | -12.6°C | 28.8% | 550.7hPa | 2.7V | 08:10:00 | 00:00:00 | 00:00:00 | |
| DL1XH1-15 | 2026-08-31 08:23:59 | 53.17800 | 8.22221 | 48° | 68km/h | 4948m | -10.5m/s | -12.8°C | 29.5% | 548.6hPa | 2.7V | 08:09:55 | 01:48:30 | 00:00:00 | |
| DM0DOS-11 | 2026-08-31 08:23:59 | 53.17746 | 8.22119 | 48° | 62km/h | 4998m | -10.6m/s | -13.2°C | 32% | 544.9hPa | 2.7V | 08:10:00 | 01:48:25 | 00:00:00 | |
| DL1XH-15 | 2026-08-31 08:23:58 | 53.17735 | 8.22099 | 47° | 64km/h | 5008m | -10.3m/s | -13.3°C | 31% | 544.2hPa | 2.7V | 08:10:01 | 01:48:24 | 00:00:00 | |
| DN9WHV | 2026-08-31 08:23:57 | 53.17789 | 8.22200 | 50° | 66km/h | 4959m | -10.1m/s | -12.9°C | 28.4% | 547.8hPa | 2.6V | 08:10:00 | 00:00:00 | 00:00:00 | |
| DN9WHV | 2026-08-31 08:23:56 | 53.17777 | 8.22179 | 50° | 66km/h | 4969m | -9.8m/s | -13.0°C | 28.2% | 547.1hPa | 2.6V | 08:10:00 | 00:00:00 | 00:00:00 | |
| DB0DAN | 2026-08-31 08:23:55 | 53.17757 | 8.22139 | 49° | 60km/h | 4988m | -10.2m/s | -13.2°C | 30.1% | 545.71hPa | 2.6V | 00:00:00 | 00:00:00 | 00:00:00 | |
| DL1XH-west | 2026-08-31 08:23:53 | 53.17735 | 8.22099 | 47° | 64km/h | 5008m | -10.3m/s | -13.3°C | 35.9% | 544.2hPa | 2.7V | 08:10:28 | 01:48:24 | 00:00:00 | |
| DO2JMG | 2026-08-31 08:23:52 | 53.17724 | 8.22079 | 48° | 66km/h | 5018m | -10.5m/s | -13.4°C | 35.2% | 543.4hPa | 2.7V | 08:10:28 | 01:48:23 | 00:00:00 | |
| BIOWL1-15 | 2026-08-31 08:23:51 | 53.17713 | 8.22058 | 49° | 66km/h | 5028m | -10.7m/s | -13.5°C | 35.3% | 542.8hPa | 2.6V | 08:10:28 | 01:48:22 | 00:00:00 | |
| DL1XH1-15 | 2026-08-31 08:23:50 | 53.17648 | 8.21933 | 49° | 64km/h | 5089m | -10.4m/s | -14.1°C | 37.3% | 538.6hPa | 2.7V | 08:10:09 | 01:48:16 | 00:00:00 | |
| DL4XJ-10 | 2026-08-31 08:23:50 | 53.17701 | 8.22037 | 50° | 66km/h | 5039m | -10.4m/s | -16.9°C | 0% | 0hPa | 2.6V | 00:00:00 | 00:00:00 | 00:00:00 | |
| DN9WHV | 2026-08-31 08:23:49 | 53.17702 | 8.22037 | 50° | 66km/h | 5039m | -10.4m/s | -13.6°C | 29.7% | 542.1hPa | 2.6V | 08:10:00 | 00:00:00 | 00:00:00 | |
| DL1XH-15 | 2026-08-31 08:23:48 | 53.17627 | 8.21891 | 49° | 64km/h | 5109m | -10.8m/s | -14.1°C | 31.6% | 537.1hPa | 2.6V | 08:10:11 | 01:48:14 | 00:00:00 | |
| DL1XH-west | 2026-08-31 08:23:42 | 53.17617 | 8.21871 | 50° | 66km/h | 5120m | -11.4m/s | -14.2°C | 33.6% | 536.4hPa | 2.6V | 08:10:28 | 01:48:13 | 00:00:00 | |
| DO2JMG | 2026-08-31 08:23:41 | 53.17606 | 8.21849 | 51° | 66km/h | 5131m | -10.2m/s | -14.2°C | 31.2% | 535.6hPa | 2.7V | 08:10:28 | 01:48:12 | 00:00:00 | |
| DB0DAN | 2026-08-31 08:23:40 | 53.17596 | 8.21827 | 52° | 62km/h | 5141m | -9.6m/s | -14.3°C | 25.1% | 534.85hPa | 2.7V | 00:00:00 | 00:00:00 | 00:00:00 | |
| DL1XH1-15 | 2026-08-31 08:23:40 | 53.17544 | 8.21722 | 51° | 68km/h | 5190m | -10.7m/s | -14.6°C | 27.1% | 531.3hPa | 2.7V | 08:10:19 | 01:48:06 | 00:00:00 | |
| GOEST3-10 | 2026-08-31 08:23:40 | 53.17596 | 8.21827 | 52° | 64km/h | 5141m | -9.5m/s | -14.2°C | 25.7% | 534.8hPa | 2.6V | 00:00:00 | 01:48:11 | 00:00:00 | |
| DN9WHV | 2026-08-31 08:23:39 | 53.17596 | 8.21827 | 53° | 64km/h | 5141m | -9.6m/s | -14.3°C | 25.0% | 534.9hPa | 2.6V | 08:10:00 | 00:00:00 | 00:00:00 | |
| DL1XH-15 | 2026-08-31 08:23:38 | 53.17523 | 8.21678 | 51° | 66km/h | 5211m | -10m/s | -14.8°C | 28.6% | 529.9hPa | 2.6V | 08:10:21 | 01:48:04 | 00:00:00 | |
| DL1XH-west | 2026-08-31 08:23:32 | 53.17512 | 8.21656 | 51° | 66km/h | 5220m | -10m/s | -14.9°C | 33.1% | 529.2hPa | 2.6V | 08:10:28 | 01:48:03 | 00:00:00 | |
| BIOWL1-15 | 2026-08-31 08:23:31 | 53.17502 | 8.21635 | 50° | 64km/h | 5230m | -10m/s | -15°C | 32.9% | 528.5hPa | 2.6V | 08:10:28 | 01:48:02 | 00:00:00 | |
| DO2JMG | 2026-08-31 08:23:30 | 53.17491 | 8.21614 | 48° | 68km/h | 5239m | -10.3m/s | -15.1°C | 33% | 527.8hPa | 2.7V | 08:10:28 | 01:48:01 | 00:00:00 | |
| DD8BA-10 | 2026-08-31 08:23:30 | 53.17491 | 8.21614 | 49° | 66km/h | 5239m | -10.2m/s | -15.0°C | 28.5% | 527.8hPa | 2.7V | 00:00:00 | 00:00:00 | 00:00:00 | |
| DN9WHV | 2026-08-31 08:23:29 | 53.17491 | 8.21614 | 49° | 68km/h | 5239m | -10.3m/s | -15.1°C | 27.7% | 527.8hPa | 2.7V | 08:10:00 | 00:00:00 | 00:00:00 | |
| DL1XH-15 | 2026-08-31 08:23:28 | 53.17415 | 8.21467 | 48° | 64km/h | 5307m | -10.4m/s | -15.7°C | 26.7% | 523hPa | 2.7V | 08:10:31 | 01:47:54 | 00:00:00 | |
| DN9WHV | 2026-08-31 08:23:27 | 53.17458 | 8.21550 | 51° | 68km/h | 5269m | -9.8m/s | -15.3°C | 28.2% | 525.8hPa | 2.6V | 08:10:00 | 00:00:00 | 00:00:00 | |
| BIOWL7-15 | 2026-08-31 08:23:26 | 53.17458 | 8.21550 | 51° | 68km/h | 5269m | -9.8m/s | -15.3°C | 28.2% | 525.8hPa | 2.6V | 00:00:00 | 00:00:00 | 00:00:00 | |
| DB0DAN | 2026-08-31 08:23:25 | 53.17436 | 8.21507 | 49° | 62km/h | 5288m | -9.7m/s | -15.5°C | 27.2% | 524.31hPa | 2.6V | 00:00:00 | 00:00:00 | 00:00:00 | |
| GOEST3-10 | 2026-08-31 08:23:25 | 53.17436 | 8.21507 | 50° | 66km/h | 5288m | -9.6m/s | -15.5°C | 28.0% | 524.3hPa | 2.7V | 00:00:00 | 00:00:00 | 00:00:00 | |
| DN9WHV | 2026-08-31 08:23:23 | 53.17426 | 8.21487 | 50° | 64km/h | 5297m | -10.1m/s | -15.6°C | 26.6% | 523.8hPa | 2.7V | 08:11:00 | 00:00:00 | 00:00:00 | |
| DM0DOS-11 | 2026-08-31 08:23:22 | 53.17346 | 8.21344 | 48° | 68km/h | 5369m | -11m/s | -16°C | 21.8% | 518.7hPa | 2.7V | 08:10:37 | 01:47:48 | 00:00:00 | |
| DL1XH-west | 2026-08-31 08:23:21 | 53.17392 | 8.21426 | 47° | 66km/h | 5327m | -10.6m/s | -15.8°C | 29.4% | 521.7hPa | 2.7V | 08:11:19 | 01:47:52 | 00:00:00 | |
| DO2JMG | 2026-08-31 08:23:20 | 53.17381 | 8.21405 | 47° | 68km/h | 5338m | -10.6m/s | -15.8°C | 28% | 521hPa | 2.6V | 08:11:19 | 01:47:51 | 00:00:00 | |
| DD8BA-10 | 2026-08-31 08:23:20 | 53.17381 | 8.21405 | 48° | 66km/h | 5338m | -10.6m/s | -15.8°C | 23.9% | 520.9hPa | 2.6V | 00:00:00 | 00:00:00 | 00:00:00 | |
| DN9WHV | 2026-08-31 08:23:19 | 53.17381 | 8.21405 | 48° | 68km/h | 5338m | -10.6m/s | -15.8°C | 23.2% | 521.0hPa | 2.6V | 08:11:00 | 00:00:00 | 00:00:00 | |
| DL1XH-15 | 2026-08-31 08:23:18 | 53.17302 | 8.21260 | 48° | 66km/h | 5409m | -10.2m/s | -16.3°C | 25.9% | 515.9hPa | 2.6V | 08:10:41 | 01:47:44 | 00:00:00 | |
| HTAHTA | 2026-08-31 08:23:17 | 53.17346 | 8.21344 | 48° | 68km/h | 5369m | -11.0m/s | -16.0°C | 21.1% | 518.7hPa | 2.6V | 00:00:00 | 00:00:00 | 00:00:00 | |
| DF5WG-10 | 2026-08-31 08:23:16 | 53.17335 | 8.21323 | 49° | 68km/h | 5380m | -10.0m/s | -16.0°C | 22.1% | 518.0hPa | 2.6V | 00:00:00 | 01:47:47 | 00:00:00 | |
| GOEST3-10 | 2026-08-31 08:23:15 | 53.17324 | 8.21302 | 50° | 66km/h | 5389m | -9.7m/s | -16.1°C | 22.4% | 517.4hPa | 2.6V | 00:00:00 | 00:00:00 | 00:00:00 | |
| DN9WHV | 2026-08-31 08:23:14 | 53.17324 | 8.21302 | 50° | 66km/h | 5389m | -9.7m/s | -16.1°C | 21.7% | 517.4hPa | 2.7V | 08:11:00 | 00:00:00 | 00:00:00 | |
| DC6BW-12 | 2026-08-31 08:23:13 | 53.17313 | 8.21281 | 50° | 66km/h | 5399m | -10.0m/s | -16.2°C | 22.6% | 516.7hPa | 2.7V | 08:11:00 | 00:00:00 | 00:00:00 | |
| DM0DOS-11 | 2026-08-31 08:23:12 | 53.17234 | 8.21134 | 49° | 68km/h | 5471m | -9.6m/s | -16.8°C | 32.2% | 511.9hPa | 2.7V | 08:10:47 | 01:47:38 | 00:00:00 | |
| DL1XH-west | 2026-08-31 08:23:11 | 53.17280 | 8.21219 | 47° | 68km/h | 5429m | -11.1m/s | -16.5°C | 36% | 514.5hPa | 2.7V | 08:11:19 | 01:47:42 | 00:00:00 | |
| DB0DAN | 2026-08-31 08:23:10 | 53.17268 | 8.21198 | 48° | 66km/h | 5440m | -10.6m/s | -16.6°C | 31.1% | 513.86hPa | 2.7V | 00:00:00 | 00:00:00 | 00:00:00 | |
| DO2JMG | 2026-08-31 08:23:09 | 53.17257 | 8.21177 | 49° | 68km/h | 5451m | -10.4m/s | -16.7°C | 36.5% | 513.2hPa | 2.6V | 08:11:19 | 01:47:40 | 00:00:00 | |
| DL1XH-15 | 2026-08-31 08:23:08 | 53.17190 | 8.21049 | 49° | 68km/h | 5511m | -10.2m/s | -17.1°C | 30.9% | 509.1hPa | 2.7V | 08:10:51 | 01:47:34 | 00:00:00 | |
| DJ2DS-15 | 2026-08-31 08:23:07 | 53.17234 | 8.21134 | 49° | 66km/h | 5471m | -9.6m/s | -16.8°C | 31.3% | 511.9hPa | 2.7V | 00:00:00 | 00:00:00 | 00:00:00 | |
| DF5WG-10 | 2026-08-31 08:23:06 | 53.17223 | 8.21112 | 50° | 68km/h | 5481m | -10.2m/s | -16.8°C | 31.9% | 511.0hPa | 2.7V | 00:00:00 | 01:47:37 | 00:00:00 | |
| GOEST3-10 | 2026-08-31 08:23:05 | 53.17212 | 8.21092 | 49° | 68km/h | 5491m | -10.8m/s | -16.9°C | 31.0% | 510.4hPa | 2.7V | 00:00:00 | 00:00:00 | 00:00:00 | |
| DC4HF-4 | 2026-08-31 08:23:04 | 53.17201 | 8.21070 | 48° | 68km/h | 5501m | -10.4m/s | -17.0°C | 29.9% | 509.8hPa | 2.7V | 00:00:00 | 00:00:00 | 00:00:00 | |
| DN9WHV | 2026-08-31 08:23:03 | 53.17201 | 8.21070 | 50° | 69km/h | 5501m | -10.4m/s | -17.0°C | 29.9% | 509.8hPa | 2.7V | 08:11:00 | 00:00:00 | 00:00:00 | |
| DM0DOS-11 | 2026-08-31 08:23:02 | 53.17122 | 8.20922 | 48° | 68km/h | 5572m | -10.9m/s | -17.6°C | 29.8% | 504.9hPa | 2.7V | 08:10:57 | 01:47:28 | 00:00:00 | |
| DL1XH-west | 2026-08-31 08:23:00 | 53.17156 | 8.20985 | 48° | 68km/h | 5541m | -10.9m/s | -17.4°C | 35.3% | 507hPa | 2.6V | 08:11:19 | 01:47:31 | 00:00:00 | |
| DO2JMG | 2026-08-31 08:22:59 | 53.17145 | 8.20964 | 47° | 68km/h | 5551m | -10.7m/s | -17.4°C | 34.8% | 506.3hPa | 2.6V | 08:11:19 | 01:47:30 | 00:00:00 | |
| DL1XH-15 | 2026-08-31 08:22:58 | 53.17078 | 8.20836 | 49° | 66km/h | 5612m | -10.3m/s | -17.9°C | 29.7% | 502.2hPa | 2.6V | 08:11:01 | 01:47:24 | 00:00:00 | |
| DO9LL-15 | 2026-08-31 08:22:56 | 53.17110 | 8.20900 | 50° | 64km/h | 5583m | -10.2m/s | -17.6°C | 29.7% | 504.2hPa | 2.6V | 00:00:00 | 01:47:27 | 00:00:00 | |
| GOEST3-10 | 2026-08-31 08:22:55 | 53.17099 | 8.20878 | 51° | 66km/h | 5593m | -9.9m/s | -17.7°C | 29.7% | 503.5hPa | 2.6V | 00:00:00 | 00:00:00 | 00:00:00 | |
| DB0DAN | 2026-08-31 08:22:55 | 53.17099 | 8.20878 | 50° | 64km/h | 5593m | -9.9m/s | -17.8°C | 28.8% | 503.52hPa | 2.7V | 00:00:00 | 00:00:00 | 00:00:00 | |
| DN9WHV | 2026-08-31 08:22:54 | 53.17099 | 8.20878 | 51° | 68km/h | 5593m | -9.9m/s | -17.8°C | 28.7% | 503.5hPa | 2.6V | 08:11:00 | 00:00:00 | 00:00:00 | |
| DN9WHV | 2026-08-31 08:22:53 | 53.17088 | 8.20856 | 51° | 66km/h | 5603m | -10.0m/s | -17.8°C | 28.6% | 502.9hPa | 2.6V | 08:11:00 | 00:00:00 | 00:00:00 | |
| DM0DOS-11 | 2026-08-31 08:22:52 | 53.17012 | 8.20711 | 49° | 62km/h | 5672m | -10m/s | -18.4°C | 30.4% | 498.2hPa | 2.6V | 08:11:07 | 01:47:18 | 00:00:00 | |
| DN9WHV | 2026-08-31 08:22:51 | 53.17067 | 8.20815 | 49° | 66km/h | 5622m | -10.6m/s | -18.0°C | 29.0% | 501.4hPa | 2.6V | 08:11:00 | 00:00:00 | 00:00:00 | |
| DL1XH1-15 | 2026-08-31 08:22:50 | 53.16991 | 8.20672 | 47° | 64km/h | 5692m | -10.4m/s | -18.6°C | 30.3% | 496.8hPa | 2.6V | 08:11:09 | 01:47:16 | 00:00:00 | |
| DL1XH-west | 2026-08-31 08:22:49 | 53.17033 | 8.20752 | 49° | 68km/h | 5653m | -10m/s | -18.3°C | 34.4% | 499.5hPa | 2.7V | 08:11:19 | 01:47:20 | 00:00:00 | |
| DO2JMG | 2026-08-31 08:22:48 | 53.17022 | 8.20731 | 50° | 64km/h | 5663m | -9.7m/s | -18.4°C | 34.3% | 498.8hPa | 2.7V | 08:11:19 | 01:47:19 | 00:00:00 | |
| SONCRA | 2026-08-31 08:22:46 | 53.16991 | 8.20672 | 47° | 62km/h | 5692m | -10.4m/s | -18.6°C | 29.3% | 496.8hPa | 2.6V | 00:00:00 | 00:00:00 | 00:00:00 | |
| GOEST3-10 | 2026-08-31 08:22:45 | 53.16991 | 8.20672 | 48° | 64km/h | 5692m | -10.4m/s | -18.5°C | 30.3% | 496.8hPa | 2.6V | 08:11:00 | 00:00:00 | 00:00:00 | |
| DN9WHV | 2026-08-31 08:22:44 | 53.16991 | 8.20672 | 48° | 64km/h | 5692m | -10.4m/s | -18.6°C | 29.3% | 496.8hPa | 2.7V | 08:11:00 | 00:00:00 | 00:00:00 | |
| DN9WHV | 2026-08-31 08:22:43 | 53.16980 | 8.20652 | 48° | 64km/h | 5702m | -10.8m/s | -18.7°C | 29.5% | 496.1hPa | 2.7V | 08:11:00 | 00:00:00 | 00:00:00 | |
| DM0DOS-11 | 2026-08-31 08:22:42 | 53.16906 | 8.20512 | 49° | 60km/h | 5772m | -9.9m/s | -19.2°C | 30% | 491.4hPa | 2.7V | 08:11:17 | 01:47:08 | 00:00:00 | |
| DJ2DS-15 | 2026-08-31 08:22:42 | 53.16959 | 8.20612 | 49° | 62km/h | 5723m | -10.7m/s | -18.8°C | 30.8% | 494.9hPa | 2.7V | 00:00:00 | 01:47:13 | 00:00:00 | |
| DL4BBY-15 | 2026-08-31 08:22:41 | 53.16948 | 8.20592 | 50° | 62km/h | 5733m | -10.4m/s | -22.1°C | 0% | 0hPa | 2.6V | 00:00:00 | 00:00:00 | 00:00:00 | |
| DL1XH1-15 | 2026-08-31 08:22:40 | 53.16886 | 8.20473 | 49° | 60km/h | 5791m | -9.9m/s | -19.4°C | 29.5% | 490.1hPa | 2.6V | 08:11:19 | 01:47:06 | 00:00:00 | |
| DB0DAN | 2026-08-31 08:22:40 | 53.16937 | 8.20572 | 49° | 60km/h | 5743m | -10.2m/s | -19°C | 29.5% | 493.52hPa | 2.6V | 00:00:00 | 00:00:00 | 00:00:00 | |
| DL1XH-west | 2026-08-31 08:22:39 | 53.16927 | 8.20552 | 49° | 64km/h | 5752m | -10.3m/s | -19.1°C | 34.5% | 492.8hPa | 2.7V | 08:11:19 | 01:47:10 | 00:00:00 | |
| DO2JMG | 2026-08-31 08:22:38 | 53.16916 | 8.20532 | 49° | 62km/h | 5763m | -9.8m/s | -19.2°C | 34.2% | 492.2hPa | 2.7V | 08:11:19 | 01:47:09 | 00:00:00 | |
| DN9WHV | 2026-08-31 08:22:37 | 53.16906 | 8.20512 | 51° | 60km/h | 5772m | -9.9m/s | -19.2°C | 29.0% | 491.5hPa | 2.7V | 08:11:00 | 00:00:00 | 00:00:00 | |
| DF5WG-10 | 2026-08-31 08:22:36 | 53.16896 | 8.20493 | 50° | 60km/h | 5782m | -9.7m/s | -19.3°C | 30.0% | 490.8hPa | 2.7V | 00:00:00 | 01:47:07 | 00:00:00 | |
| GOEST3-10 | 2026-08-31 08:22:35 | 53.16886 | 8.20473 | 50° | 60km/h | 5791m | -9.9m/s | -19.3°C | 29.5% | 490.0hPa | 2.7V | 00:00:00 | 00:00:00 | 00:00:00 | |
| DL1LOL-11 | 2026-08-31 08:22:34 | 53.16886 | 8.20473 | 50° | 60km/h | 5791m | -10.0m/s | -19.4°C | 28.5% | 490.1hPa | 2.7V | 08:11:00 | 00:00:00 | 00:00:00 | |
| DN9WHV | 2026-08-31 08:22:33 | 53.16876 | 8.20454 | 49° | 60km/h | 5802m | -10.2m/s | -19.4°C | 27.7% | 489.5hPa | 2.7V | 08:12:00 | 00:00:00 | 00:00:00 | |
| DM0DOS-11 | 2026-08-31 08:22:32 | 53.16805 | 8.20319 | 46° | 62km/h | 5874m | -12m/s | -19.9°C | 24.4% | 484.7hPa | 2.7V | 08:11:27 | 01:46:58 | 00:00:00 | |
| DO2LYB-13 | 2026-08-31 08:22:32 | 53.16856 | 8.20416 | 50° | 60km/h | 5822m | -11.3m/s | -19.5°C | 27.3% | 488.1hPa | 2.7V | 08:12:00 | 00:00:00 | 00:00:00 | |
| DJ2DS-15 | 2026-08-31 08:22:31 | 53.16846 | 8.20397 | 47° | 60km/h | 5833m | -10.9m/s | -19.6°C | 26.9% | 487.4hPa | 2.7V | 00:00:00 | 00:00:00 | 00:00:00 | |
| DL1XH1-15 | 2026-08-31 08:22:30 | 53.16785 | 8.20280 | 49° | 60km/h | 5895m | -10.4m/s | -20.1°C | 22.2% | 483.4hPa | 2.7V | 08:11:29 | 01:46:56 | 00:00:00 | |
| DL1XH-west | 2026-08-31 08:22:28 | 53.16815 | 8.20338 | 49° | 60km/h | 5864m | -10.6m/s | -19.9°C | 28.9% | 485.5hPa | 2.6V | 08:12:10 | 01:46:59 | 00:00:00 | |
| DO2JMG | 2026-08-31 08:22:27 | 53.16805 | 8.20319 | 47° | 62km/h | 5874m | -12m/s | -20°C | 28.1% | 484.7hPa | 2.7V | 08:12:10 | 01:46:58 | 00:00:00 | |
| DN9WHV | 2026-08-31 08:22:26 | 53.16805 | 8.20319 | 48° | 62km/h | 5875m | -12.0m/s | -20.0°C | 23.4% | 484.7hPa | 2.7V | 08:12:00 | 00:00:00 | 00:00:00 | |
| DB0DAN | 2026-08-31 08:22:25 | 53.16785 | 8.20280 | 50° | 58km/h | 5895m | -10.4m/s | -20.1°C | 21.3% | 483.4hPa | 2.7V | 00:00:00 | 00:00:00 | 00:00:00 | |
| DN9WHV | 2026-08-31 08:22:24 | 53.16785 | 8.20280 | 51° | 60km/h | 5895m | -10.4m/s | -20.1°C | 21.3% | 483.4hPa | 2.7V | 08:12:00 | 00:00:00 | 00:00:00 | |
| BIOWL7-15 | 2026-08-31 08:22:23 | 53.16774 | 8.20261 | 49° | 60km/h | 5906m | -11.3m/s | -20.2°C | 21.5% | 482.7hPa | 2.7V | 08:12:00 | 00:00:00 | 00:00:00 | |
| DM0DOS-11 | 2026-08-31 08:22:22 | 53.16704 | 8.20126 | 49° | 62km/h | 5978m | -10.7m/s | -20.7°C | 25.6% | 477.9hPa | 2.7V | 08:11:37 | 01:46:48 | 00:00:00 | |
| DJ2DS-15 | 2026-08-31 08:22:22 | 53.16754 | 8.20222 | 51° | 62km/h | 5927m | -10.3m/s | -20.3°C | 25.4% | 481.3hPa | 2.6V | 00:00:00 | 01:46:53 | 00:00:00 | |
| DL1XH1-15 | 2026-08-31 08:22:20 | 53.16684 | 8.20087 | 48° | 60km/h | 5999m | -10.5m/s | -20.9°C | 25.6% | 476.6hPa | 2.6V | 08:11:39 | 01:46:46 | 00:00:00 | |
| DL1XH-west | 2026-08-31 08:22:18 | 53.16714 | 8.20146 | 49° | 62km/h | 5968m | -10.9m/s | -20.7°C | 29.4% | 478.6hPa | 2.7V | 08:12:10 | 01:46:49 | 00:00:00 | |
| DO2JMG | 2026-08-31 08:22:17 | 53.16704 | 8.20126 | 50° | 62km/h | 5978m | -10.7m/s | -20.7°C | 29.4% | 477.9hPa | 2.7V | 08:12:10 | 01:46:48 | 00:00:00 | |
| DF5WG-10 | 2026-08-31 08:22:16 | 53.16694 | 8.20106 | 50° | 62km/h | 5988m | -9.9m/s | -20.8°C | 25.7% | 477.2hPa | 2.6V | 00:00:00 | 01:46:47 | 00:00:00 | |
| DB0UT-7 | 2026-08-31 08:22:15 | 53.16684 | 8.20087 | 49° | 62km/h | 5999m | -10.5m/s | -20.9°C | 25.6% | 476.6hPa | 2.6V | 00:00:00 | 00:00:00 | 00:00:00 | |
| DN9WHV | 2026-08-31 08:22:14 | 53.16684 | 8.20087 | 50° | 60km/h | 5999m | -10.5m/s | -20.9°C | 24.6% | 476.6hPa | 2.6V | 08:12:00 | 00:00:00 | 00:00:00 | |
| DN9WHV | 2026-08-31 08:22:13 | 53.16673 | 8.20068 | 48° | 62km/h | 6009m | -10.8m/s | -21.0°C | 23.7% | 475.9hPa | 2.6V | 08:12:00 | 00:00:00 | 00:00:00 | |
| DM0DOS-11 | 2026-08-31 08:22:12 | 53.16600 | 8.19931 | 46° | 62km/h | 6080m | -10.4m/s | -21.5°C | 21.3% | 471.4hPa | 2.6V | 08:11:47 | 01:46:38 | 00:00:00 | |
| DB0DAN | 2026-08-31 08:22:10 | 53.16632 | 8.19990 | 49° | 60km/h | 6050m | -10.3m/s | -21.3°C | 21.4% | 473.27hPa | 2.7V | 00:00:00 | 00:00:00 | 00:00:00 | |
| DL1XH1-15 | 2026-08-31 08:22:10 | 53.16578 | 8.19893 | 45° | 64km/h | 6100m | -10.4m/s | -21.7°C | 22.3% | 470.1hPa | 2.7V | 08:11:49 | 01:46:36 | 00:00:00 | |
| DD8BA-10 | 2026-08-31 08:22:10 | 53.16632 | 8.19990 | 49° | 64km/h | 6050m | -10.3m/s | -21.3°C | 22.3% | 473.2hPa | 2.6V | 00:00:00 | 00:00:00 | 00:00:00 | |
| SMARD9-15 | 2026-08-31 08:22:09 | 53.16621 | 8.19970 | 49° | 62km/h | 6060m | -9.9m/s | -21.4°C | 20.7% | 472.6hPa | 2.6V | 00:00:00 | 00:00:00 | 00:00:00 | |
| DL1XH-15 | 2026-08-31 08:22:08 | 53.16557 | 8.19854 | 47° | 62km/h | 6120m | -9.8m/s | -21.9°C | 22.2% | 468.8hPa | 2.6V | 08:11:51 | 01:46:34 | 00:00:00 | |
| DL1XH-west | 2026-08-31 08:22:07 | 53.16600 | 8.19931 | 47° | 62km/h | 6080m | -10.4m/s | -21.5°C | 24.9% | 471.4hPa | 2.6V | 08:12:10 | 01:46:38 | 00:00:00 | |
| DO2JMG | 2026-08-31 08:22:06 | 53.16590 | 8.19912 | 46° | 64km/h | 6090m | -10.6m/s | -21.6°C | 25.4% | 470.7hPa | 2.7V | 08:12:10 | 01:46:37 | 00:00:00 | |
| DF5WG-10 | 2026-08-31 08:22:06 | 53.16590 | 8.19912 | 47° | 64km/h | 6090m | -10.5m/s | -21.6°C | 21.8% | 470.6hPa | 2.7V | 00:00:00 | 01:46:37 | 00:00:00 | |
| GOEST3-10 | 2026-08-31 08:22:05 | 53.16578 | 8.19893 | 46° | 64km/h | 6100m | -10.4m/s | -21.7°C | 22.3% | 470.1hPa | 2.7V | 00:00:00 | 00:00:00 | 00:00:00 | |
| DO2LYB-13 | 2026-08-31 08:22:04 | 53.16578 | 8.19893 | 47° | 64km/h | 6100m | -10.5m/s | -21.7°C | 21.3% | 470.1hPa | 2.7V | 00:00:00 | 00:00:00 | 00:00:00 | |
| DL1CLM-18 | 2026-08-31 08:22:03 | 53.16568 | 8.19873 | 48° | 64km/h | 6110m | -10.2m/s | -21.8°C | 21.4% | 469.4hPa | 2.7V | 00:00:00 | 00:00:00 | 00:00:00 | |
| DM0DOS-11 | 2026-08-31 08:22:02 | 53.16491 | 8.19739 | 46° | 62km/h | 6180m | -9.7m/s | -22.4°C | 19.3% | 465.1hPa | 2.7V | 08:11:57 | 01:46:28 | 00:00:00 | |
| DJ2DS-15 | 2026-08-31 08:22:02 | 53.16546 | 8.19835 | 47° | 64km/h | 6130m | -10.3m/s | -21.9°C | 21.8% | 468.2hPa | 2.6V | 00:00:00 | 01:46:33 | 00:00:00 | |
| DN9WHV | 2026-08-31 08:22:01 | 53.16546 | 8.19835 | 48° | 64km/h | 6130m | -10.4m/s | -22.0°C | 20.8% | 468.2hPa | 2.6V | 08:12:00 | 00:00:00 | 00:00:00 | |
| DL1XH1-15 | 2026-08-31 08:22:00 | 53.16469 | 8.19703 | 43° | 64km/h | 6200m | -10.2m/s | -22.5°C | 18.7% | 463.8hPa | 2.6V | 08:11:59 | 01:46:26 | 00:00:00 | |
| BUE01 | 2026-08-31 08:21:59 | 53.16513 | 8.19777 | 44° | 62km/h | 6160m | -10.5m/s | -22.2°C | 18.5% | 466.4hPa | 2.7V | 00:00:00 | 00:00:00 | 00:00:00 | |
| DL1XH-15 | 2026-08-31 08:21:58 | 53.16446 | 8.19665 | 45° | 62km/h | 6220m | -9.7m/s | -22.6°C | 18% | 462.6hPa | 2.7V | 08:12:01 | 01:46:24 | 00:00:00 | |
| DL1XH-west | 2026-08-31 08:21:57 | 53.16491 | 8.19739 | 46° | 62km/h | 6180m | -9.7m/s | -22.4°C | 22.7% | 465.1hPa | 2.7V | 08:12:10 | 01:46:28 | 00:00:00 | |
| DO2JMG | 2026-08-31 08:21:56 | 53.16480 | 8.19721 | 45° | 60km/h | 6190m | -10m/s | -22.5°C | 22.6% | 464.5hPa | 2.7V | 08:12:10 | 01:46:27 | 00:00:00 | |
| DB0DAN | 2026-08-31 08:21:55 | 53.16469 | 8.19703 | 44° | 60km/h | 6200m | -10.2m/s | -22.5°C | 17.8% | 463.84hPa | 2.6V | 00:00:00 | 00:00:00 | 00:00:00 | |
| BIOWL1-15 | 2026-08-31 08:21:55 | 53.16469 | 8.19703 | 44° | 64km/h | 6200m | -10.2m/s | -22.5°C | 22.1% | 463.8hPa | 2.6V | 08:12:10 | 01:46:26 | 00:00:00 | |
| DC4HF-4 | 2026-08-31 08:21:52 | 53.16435 | 8.19647 | 44° | 60km/h | 6230m | -10.3m/s | -22.7°C | 17.4% | 461.9hPa | 2.6V | 00:00:00 | 00:00:00 | 00:00:00 | |
| DN9WHV | 2026-08-31 08:21:51 | 53.16435 | 8.19647 | 45° | 62km/h | 6230m | -10.3m/s | -22.7°C | 17.4% | 461.9hPa | 2.6V | 08:12:00 | 00:00:00 | 00:00:00 | |
| DL1XH1-15 | 2026-08-31 08:21:50 | 53.16354 | 8.19519 | 40° | 62km/h | 6300m | -10.5m/s | -23.3°C | 20.1% | 457.6hPa | 2.6V | 08:12:09 | 01:46:16 | 00:00:00 | |
| GOEST3-10 | 2026-08-31 08:21:50 | 53.16412 | 8.19610 | 45° | 64km/h | 6251m | -10.2m/s | -22.8°C | 18.8% | 460.6hPa | 2.7V | 00:00:00 | 01:46:21 | 00:00:00 | |
| DN9WHV | 2026-08-31 08:21:49 | 53.16412 | 8.19610 | 45° | 64km/h | 6251m | -10.2m/s | -22.9°C | 17.8% | 460.7hPa | 2.7V | 08:12:00 | 00:00:00 | 00:00:00 | |
| DL1XH-15 | 2026-08-31 08:21:48 | 53.16330 | 8.19483 | 42° | 62km/h | 6320m | -10m/s | -23.4°C | 20.2% | 456.3hPa | 2.7V | 08:12:11 | 01:46:14 | 00:00:00 | |
| DO2JMG | 2026-08-31 08:21:46 | 53.16366 | 8.19537 | 44° | 62km/h | 6290m | -9.8m/s | -23.2°C | 23.6% | 458.2hPa | 2.6V | 08:12:10 | 01:46:17 | 00:00:00 | |
| BIOWL1-15 | 2026-08-31 08:21:45 | 53.16354 | 8.19519 | 41° | 62km/h | 6300m | -10.5m/s | -23.3°C | 23.8% | 457.6hPa | 2.6V | 08:12:10 | 01:46:16 | 00:00:00 | |
| GOEST3-10 | 2026-08-31 08:21:45 | 53.16354 | 8.19519 | 41° | 64km/h | 6300m | -10.4m/s | -23.2°C | 20.1% | 457.5hPa | 2.6V | 00:00:00 | 00:00:00 | 00:00:00 | |
| HTAHTA | 2026-08-31 08:21:44 | 53.16330 | 8.19484 | 42° | 62km/h | 6320m | -10.0m/s | -23.5°C | 19.2% | 456.3hPa | 2.7V | 00:00:00 | 00:00:00 | 00:00:00 | |
| DN9WHV | 2026-08-31 08:21:43 | 53.16330 | 8.19483 | 43° | 62km/h | 6320m | -10.0m/s | -23.4°C | 19.2% | 456.3hPa | 2.7V | 08:13:00 | 00:00:00 | 00:00:00 | |
| DM0DOS-11 | 2026-08-31 08:21:42 | 53.16257 | 8.19381 | 39° | 64km/h | 6378m | -10.5m/s | -24°C | 20% | 452.6hPa | 2.7V | 08:12:17 | 01:46:08 | 00:00:00 | |
| DJ2DS-15 | 2026-08-31 08:21:42 | 53.16318 | 8.19466 | 40° | 62km/h | 6329m | -10.1m/s | -23.5°C | 20.2% | 455.7hPa | 2.7V | 00:00:00 | 01:46:13 | 00:00:00 | |
| DB0DAN | 2026-08-31 08:21:40 | 53.16294 | 8.19431 | 41° | 60km/h | 6349m | -9.7m/s | -23.7°C | 19% | 454.47hPa | 2.6V | 00:00:00 | 00:00:00 | 00:00:00 | |
| DL1XH1-15 | 2026-08-31 08:21:40 | 53.16232 | 8.19347 | 38° | 62km/h | 6397m | -10.2m/s | -24.1°C | 19.7% | 451.4hPa | 2.7V | 08:12:19 | 01:46:06 | 00:00:00 | |
| GOEST3-10 | 2026-08-31 08:21:40 | 53.16294 | 8.19431 | 42° | 64km/h | 6349m | -9.6m/s | -23.7°C | 20.1% | 454.4hPa | 2.6V | 00:00:00 | 01:46:11 | 00:00:00 | |
| D01LWL | 2026-08-31 08:21:39 | 53.16269 | 8.19398 | 38° | 64km/h | 6368m | -10.7m/s | -23.9°C | 19.0% | 453.2hPa | 2.6V | 00:00:00 | 00:00:00 | 00:00:00 | |
| DL1XH-15 | 2026-08-31 08:21:38 | 53.16206 | 8.19316 | 37° | 64km/h | 6418m | -10.8m/s | -24.3°C | 20.2% | 450.2hPa | 2.6V | 08:12:21 | 01:46:04 | 00:00:00 | |
| DL1XH-west | 2026-08-31 08:21:36 | 53.16244 | 8.19364 | 39° | 64km/h | 6388m | -9.9m/s | -24.1°C | 23.7% | 451.9hPa | 2.7V | 08:13:01 | 01:46:07 | 00:00:00 | |
| DO2JMG | 2026-08-31 08:21:35 | 53.16232 | 8.19347 | 38° | 62km/h | 6398m | -10.2m/s | -24.1°C | 23.5% | 451.4hPa | 2.7V | 08:13:01 | 01:46:06 | 00:00:00 | |
| GOEST3-10 | 2026-08-31 08:21:35 | 53.16232 | 8.19347 | 39° | 64km/h | 6398m | -10.2m/s | -24.1°C | 19.7% | 451.3hPa | 2.6V | 00:00:00 | 00:00:00 | 00:00:00 | |
| DN9WHV | 2026-08-31 08:21:34 | 53.16232 | 8.19347 | 39° | 62km/h | 6398m | -10.2m/s | -24.1°C | 18.7% | 451.4hPa | 2.6V | 08:13:00 | 00:00:00 | 00:00:00 | |
| DM0DOS-11 | 2026-08-31 08:21:32 | 53.16132 | 8.19219 | 36° | 60km/h | 6477m | -10.6m/s | -24.8°C | 22.4% | 446.4hPa | 2.6V | 08:12:27 | 01:45:58 | 00:00:00 | |
| AA1-15 | 2026-08-31 08:21:31 | 53.16181 | 8.19283 | 39° | 64km/h | 6439m | -10.3m/s | -24.5°C | 25% | 448.9hPa | 2.7V | 08:13:01 | 01:46:02 | 00:00:00 | |
| DD8BA-10 | 2026-08-31 08:21:30 | 53.16168 | 8.19266 | 39° | 62km/h | 6449m | -9.9m/s | -24.5°C | 21.5% | 448.2hPa | 2.7V | 00:00:00 | 00:00:00 | 00:00:00 | |
| DC6BW-12 | 2026-08-31 08:21:29 | 53.16169 | 8.19266 | 40° | 62km/h | 6449m | -9.9m/s | -24.5°C | 20.4% | 448.3hPa | 2.7V | 08:13:00 | 00:00:00 | 00:00:00 | |
| DL1XH-15 | 2026-08-31 08:21:28 | 53.16081 | 8.19155 | 38° | 62km/h | 6519m | -10.2m/s | -25.2°C | 23.2% | 443.9hPa | 2.7V | 08:12:31 | 01:45:54 | 00:00:00 | |
| DN9WHV | 2026-08-31 08:21:27 | 53.16144 | 8.19234 | 38° | 60km/h | 6468m | -10.4m/s | -24.7°C | 21.0% | 447.0hPa | 2.7V | 08:13:00 | 00:00:00 | 00:00:00 | |
| DN9WHV | 2026-08-31 08:21:26 | 53.16132 | 8.19219 | 38° | 60km/h | 6477m | -10.6m/s | -24.8°C | 21.2% | 446.4hPa | 2.7V | 08:13:00 | 00:00:00 | 00:00:00 | |
| DB0DAN | 2026-08-31 08:21:25 | 53.16107 | 8.19188 | 38° | 60km/h | 6498m | -10.8m/s | -25°C | 21.4% | 445.13hPa | 2.7V | 00:00:00 | 00:00:00 | 00:00:00 | |
| BIOWL1-15 | 2026-08-31 08:21:25 | 53.16107 | 8.19188 | 38° | 62km/h | 6498m | -10.8m/s | -25°C | 26.7% | 445.1hPa | 2.7V | 08:13:01 | 01:45:56 | 00:00:00 | |
| DO2JMG | 2026-08-31 08:21:24 | 53.16094 | 8.19172 | 39° | 62km/h | 6508m | -10.7m/s | -25.1°C | 27% | 444.5hPa | 2.7V | 08:13:01 | 01:45:55 | 00:00:00 | |
| DN9WHV | 2026-08-31 08:21:23 | 53.16094 | 8.19171 | 39° | 62km/h | 6508m | -10.7m/s | -25.1°C | 21.6% | 444.5hPa | 2.7V | 08:13:00 | 00:00:00 | 00:00:00 | |
| DM0DOS-11 | 2026-08-31 08:21:22 | 53.16008 | 8.19062 | 38° | 62km/h | 6579m | -10.2m/s | -25.8°C | 24.7% | 440.1hPa | 2.7V | 08:12:37 | 01:45:48 | 00:00:00 | |
| AA1-15 | 2026-08-31 08:21:20 | 53.16045 | 8.19109 | 36° | 60km/h | 6548m | -10.8m/s | -25.5°C | 28.6% | 442hPa | 2.6V | 08:13:01 | 01:45:51 | 00:00:00 | |
| DL1XH1-15 | 2026-08-31 08:21:20 | 53.15984 | 8.19030 | 37° | 58km/h | 6599m | -10.4m/s | -26°C | 24.9% | 438.9hPa | 2.6V | 08:12:39 | 01:45:46 | 00:00:00 | |
| GOEST3-10 | 2026-08-31 08:21:20 | 53.16045 | 8.19108 | 37° | 60km/h | 6549m | -10.7m/s | -25.4°C | 24.1% | 442.0hPa | 2.7V | 00:00:00 | 01:45:51 | 00:00:00 | |
| DJ2DS-15 | 2026-08-31 08:21:19 | 53.16033 | 8.19093 | 36° | 60km/h | 6558m | -10.8m/s | -25.6°C | 23.0% | 441.4hPa | 2.7V | 00:00:00 | 00:00:00 | 00:00:00 | |
| DL1XH-15 | 2026-08-31 08:21:18 | 53.15961 | 8.19000 | 37° | 60km/h | 6619m | -10.7m/s | -26.1°C | 25.2% | 437.7hPa | 2.7V | 08:12:41 | 01:45:44 | 00:00:00 | |
| DL1XH-west | 2026-08-31 08:21:14 | 53.15973 | 8.19015 | 37° | 60km/h | 6609m | -10.9m/s | -26.1°C | 29.6% | 438.3hPa | 2.6V | 08:13:01 | 01:45:45 | 00:00:00 | |
| DN9WHV | 2026-08-31 08:21:13 | 53.15973 | 8.19015 | 38° | 60km/h | 6609m | -10.9m/s | -26.1°C | 23.8% | 438.3hPa | 2.7V | 08:13:00 | 00:00:00 | 00:00:00 | |
| DM0DOS-11 | 2026-08-31 08:21:12 | 53.15890 | 8.18903 | 38° | 58km/h | 6681m | -10.6m/s | -26.7°C | 27% | 434hPa | 2.7V | 08:12:47 | 01:45:38 | 00:00:00 | |
| DL4BBY-15 | 2026-08-31 08:21:11 | 53.15936 | 8.18968 | 40° | 58km/h | 6640m | -10.5m/s | -29.5°C | 0% | 0hPa | 2.7V | 00:00:00 | 00:00:00 | 00:00:00 | |
| DL1XH1-15 | 2026-08-31 08:21:10 | 53.15866 | 8.18872 | 39° | 60km/h | 6702m | -10.8m/s | -26.9°C | 26.8% | 432.8hPa | 2.7V | 08:12:49 | 01:45:36 | 00:00:00 | |
| DB0DAN | 2026-08-31 08:21:10 | 53.15925 | 8.18952 | 40° | 58km/h | 6650m | -10.2m/s | -26.4°C | 24.5% | 435.77hPa | 2.6V | 00:00:00 | 00:00:00 | 00:00:00 | |
| AA1-15 | 2026-08-31 08:21:09 | 53.15913 | 8.18935 | 41° | 60km/h | 6660m | -10.1m/s | -26.5°C | 30.9% | 435.2hPa | 2.6V | 08:13:01 | 01:45:40 | 00:00:00 | |
| DL1XH-15 | 2026-08-31 08:21:08 | 53.15843 | 8.18838 | 41° | 60km/h | 6722m | -10.4m/s | -27°C | 26.5% | 431.6hPa | 2.6V | 08:12:51 | 01:45:34 | 00:00:00 | |
| DO2JMG | 2026-08-31 08:21:04 | 53.15855 | 8.18855 | 41° | 60km/h | 6712m | -10.6m/s | -27°C | 31.2% | 432.2hPa | 2.6V | 08:13:01 | 01:45:35 | 00:00:00 | |
| DL1XH-west | 2026-08-31 08:21:03 | 53.15843 | 8.18838 | 41° | 60km/h | 6722m | -10.4m/s | -27.1°C | 31% | 431.6hPa | 2.6V | 08:13:01 | 01:45:34 | 00:00:00 | |
| DM0DOS-11 | 2026-08-31 08:21:02 | 53.15775 | 8.18743 | 40° | 58km/h | 6784m | -10.7m/s | -27.6°C | 27.5% | 427.9hPa | 2.6V | 08:12:57 | 01:45:28 | 00:00:00 | |
| DJ2DS-15 | 2026-08-31 08:21:02 | 53.15832 | 8.18822 | 42° | 58km/h | 6733m | -10.1m/s | -27.1°C | 26.5% | 430.9hPa | 2.7V | 00:00:00 | 01:45:33 | 00:00:00 | |
| DN9WHV | 2026-08-31 08:21:01 | 53.15832 | 8.18822 | 42° | 58km/h | 6733m | -10.2m/s | -27.1°C | 25.1% | 431.0hPa | 2.7V | 08:13:00 | 00:00:00 | 00:00:00 | |
| DL1XH1-15 | 2026-08-31 08:21:00 | 53.15752 | 8.18711 | 40° | 60km/h | 6804m | -10.1m/s | -27.8°C | 27.8% | 426.7hPa | 2.7V | 08:12:59 | 01:45:26 | 00:00:00 | |
| DO9LL-15 | 2026-08-31 08:21:00 | 53.15810 | 8.18790 | 40° | 57km/h | 6753m | -10.7m/s | -27.3°C | 26.8% | 429.7hPa | 2.7V | 00:00:00 | 01:45:31 | 00:00:00 | |
| DN9WHV | 2026-08-31 08:20:59 | 53.15810 | 8.18790 | 41° | 58km/h | 6753m | -10.8m/s | -27.3°C | 25.4% | 429.8hPa | 2.7V | 08:13:00 | 00:00:00 | 00:00:00 | |
| DL1XH-15 | 2026-08-31 08:20:58 | 53.15730 | 8.18679 | 40° | 57km/h | 6824m | -9.9m/s | -27.9°C | 28% | 425.6hPa | 2.7V | 08:13:01 | 01:45:24 | 00:00:00 | |
| AA1-15 | 2026-08-31 08:20:58 | 53.15787 | 8.18759 | 39° | 58km/h | 6773m | -11m/s | -27.5°C | 31.8% | 428.5hPa | 2.6V | 08:13:01 | 01:45:29 | 00:00:00 | |
| BUE01 | 2026-08-31 08:20:57 | 53.15775 | 8.18743 | 40° | 58km/h | 6784m | -10.7m/s | -27.6°C | 26.0% | 428.0hPa | 2.7V | 00:00:00 | 00:00:00 | 00:00:00 | |
| DN9WHV | 2026-08-31 08:20:56 | 53.15775 | 8.18743 | 41° | 58km/h | 6784m | -10.7m/s | -27.6°C | 26.0% | 428.0hPa | 2.7V | 08:13:00 | 00:00:00 | 00:00:00 | |
| DB0DAN | 2026-08-31 08:20:55 | 53.15752 | 8.18711 | 40° | 57km/h | 6804m | -10.1m/s | -27.8°C | 26.3% | 426.69hPa | 2.7V | 00:00:00 | 00:00:00 | 00:00:00 | |
| DL1XH-west | 2026-08-31 08:20:53 | 53.15730 | 8.18679 | 41° | 57km/h | 6824m | -9.9m/s | -28°C | 32.7% | 425.6hPa | 2.7V | 08:13:01 | 01:45:24 | 00:00:00 | |
| DM0DOS-11 | 2026-08-31 08:20:52 | 53.15663 | 8.18590 | 37° | 58km/h | 6884m | -10.8m/s | -28.4°C | 27.8% | 421.9hPa | 2.7V | 08:13:07 | 01:45:18 | 00:00:00 | |
| DN9WHV | 2026-08-31 08:20:51 | 53.15719 | 8.18664 | 41° | 57km/h | 6833m | -10.2m/s | -28.0°C | 26.5% | 425.0hPa | 2.6V | 08:13:00 | 00:00:00 | 00:00:00 | |
| DL1XH1-15 | 2026-08-31 08:20:50 | 53.15640 | 8.18560 | 38° | 58km/h | 6904m | -10.7m/s | -28.6°C | 27.7% | 420.7hPa | 2.6V | 08:13:09 | 01:45:16 | 00:00:00 | |
| AA1-15 | 2026-08-31 08:20:48 | 53.15675 | 8.18604 | 37° | 58km/h | 6873m | -10.9m/s | -28.4°C | 32.3% | 422.5hPa | 2.7V | 08:13:52 | 01:45:19 | 00:00:00 | |
| DL1XH-15 | 2026-08-31 08:20:48 | 53.15617 | 8.18529 | 39° | 58km/h | 6925m | -10.3m/s | -28.8°C | 27.2% | 419.5hPa | 2.7V | 08:13:11 | 01:45:14 | 00:00:00 | |
| BIOWL1-15 | 2026-08-31 08:20:43 | 53.15617 | 8.18529 | 39° | 58km/h | 6925m | -10.3m/s | -28.8°C | 31.8% | 419.5hPa | 2.7V | 08:13:52 | 01:45:14 | 00:00:00 | |
| DO2JMG | 2026-08-31 08:20:42 | 53.15606 | 8.18514 | 40° | 58km/h | 6935m | -10.2m/s | -28.9°C | 31.2% | 419hPa | 2.7V | 08:13:52 | 01:45:13 | 00:00:00 | |
| DJ2DS-15 | 2026-08-31 08:20:42 | 53.15606 | 8.18514 | 40° | 57km/h | 6935m | -10.1m/s | -28.8°C | 26.7% | 418.9hPa | 2.7V | 08:13:00 | 01:45:13 | 00:00:00 | |
| DN9WHV | 2026-08-31 08:20:41 | 53.15606 | 8.18514 | 41° | 58km/h | 6935m | -10.2m/s | -28.9°C | 25.2% | 419.0hPa | 2.6V | 08:13:00 | 00:00:00 | 00:00:00 | |
| DB0DAN | 2026-08-31 08:20:40 | 53.15584 | 8.18484 | 40° | 53km/h | 6955m | -10m/s | -29°C | 23.9% | 417.67hPa | 2.6V | 00:00:00 | 00:00:00 | 00:00:00 | |
| DL1XH1-15 | 2026-08-31 08:20:40 | 53.15530 | 8.18410 | 38° | 57km/h | 7006m | -11m/s | -29.4°C | 24.3% | 414.8hPa | 2.7V | 08:13:19 | 01:45:06 | 00:00:00 | |
| DD8BA-10 | 2026-08-31 08:20:40 | 53.15584 | 8.18484 | 41° | 57km/h | 6955m | -10.0m/s | -29.0°C | 25.3% | 417.6hPa | 2.6V | 00:00:00 | 00:00:00 | 00:00:00 | |
| DN9WHV | 2026-08-31 08:20:39 | 53.15584 | 8.18484 | 41° | 55km/h | 6955m | -10.0m/s | -29.0°C | 23.8% | 417.7hPa | 2.6V | 08:13:00 | 00:00:00 | 00:00:00 | |
| DL1XH-15 | 2026-08-31 08:20:38 | 53.15509 | 8.18380 | 40° | 57km/h | 7027m | -10.7m/s | -29.6°C | 23.9% | 413.6hPa | 2.6V | 08:13:21 | 01:45:04 | 00:00:00 | |
| AA1-15 | 2026-08-31 08:20:35 | 53.15530 | 8.18410 | 39° | 57km/h | 7006m | -11m/s | -29.4°C | 28.7% | 414.8hPa | 2.7V | 08:13:52 | 01:45:06 | 00:00:00 | |
| DO2JMG | 2026-08-31 08:20:32 | 53.15497 | 8.18364 | 42° | 57km/h | 7037m | -10.6m/s | -29.7°C | 28.4% | 413hPa | 2.6V | 08:13:52 | 01:45:03 | 00:00:00 | |
| DN9WHV | 2026-08-31 08:20:31 | 53.15497 | 8.18364 | 43° | 57km/h | 7037m | -10.6m/s | -29.7°C | 22.5% | 413.0hPa | 2.7V | 08:13:00 | 00:00:00 | 00:00:00 | |
| DL1XH1-15 | 2026-08-31 08:20:30 | 53.15422 | 8.18256 | 38° | 55km/h | 7107m | -10.8m/s | -30.3°C | 24.4% | 408.8hPa | 2.7V | 08:13:29 | 01:44:56 | 00:00:00 | |
| DL4XJ-10 | 2026-08-31 08:20:30 | 53.15475 | 8.18332 | 42° | 55km/h | 7057m | -10.1m/s | -33.0°C | 0% | 0hPa | 2.7V | 00:00:00 | 00:00:00 | 00:00:00 | |
| DL1XH-15 | 2026-08-31 08:20:28 | 53.15400 | 8.18227 | 38° | 57km/h | 7128m | -10.8m/s | -30.5°C | 24.4% | 407.6hPa | 2.7V | 08:13:31 | 01:44:54 | 00:00:00 | |
| DN9WHV | 2026-08-31 08:20:27 | 53.15454 | 8.18301 | 42° | 55km/h | 7077m | -10.4m/s | -30.1°C | 22.8% | 410.5hPa | 2.7V | 08:13:00 | 00:00:00 | 00:00:00 | |
| DB0DAN | 2026-08-31 08:20:25 | 53.15422 | 8.18256 | 39° | 53km/h | 7107m | -10.8m/s | -30.3°C | 22.8% | 408.8hPa | 2.7V | 00:00:00 | 00:00:00 | 00:00:00 | |
| AA1-15 | 2026-08-31 08:20:24 | 53.15411 | 8.18242 | 39° | 57km/h | 7117m | -11.1m/s | -30.4°C | 28.7% | 408.2hPa | 2.7V | 08:13:52 | 01:44:55 | 00:00:00 | |
| DO2JMG | 2026-08-31 08:20:22 | 53.15389 | 8.18212 | 40° | 57km/h | 7139m | -10.9m/s | -30.6°C | 28.6% | 407hPa | 2.6V | 08:13:52 | 01:44:53 | 00:00:00 | |
| BIOWL1-15 | 2026-08-31 08:20:21 | 53.15378 | 8.18196 | 40° | 57km/h | 7149m | -10.8m/s | -30.7°C | 28.3% | 406.4hPa | 2.6V | 08:13:52 | 01:44:52 | 00:00:00 | |
| GOEST3-10 | 2026-08-31 08:20:20 | 53.15367 | 8.18181 | 40° | 55km/h | 7160m | -10.6m/s | -30.7°C | 23.8% | 405.8hPa | 2.6V | 00:00:00 | 01:44:51 | 00:00:00 | |
| DL1XH-15 | 2026-08-31 08:20:18 | 53.15290 | 8.18084 | 35° | 55km/h | 7233m | -11.2m/s | -31.4°C | 24.3% | 401.7hPa | 2.6V | 08:13:41 | 01:44:44 | 00:00:00 | |
| AA1-15 | 2026-08-31 08:20:13 | 53.15290 | 8.18084 | 35° | 55km/h | 7233m | -11.2m/s | -31.4°C | 28.6% | 401.7hPa | 2.6V | 08:13:52 | 01:44:44 | 00:00:00 | |
| DM0DOS-11 | 2026-08-31 08:20:12 | 53.15223 | 8.18001 | 38° | 55km/h | 7298m | -10.4m/s | -31.9°C | 24% | 398.1hPa | 2.6V | 08:13:47 | 01:44:38 | 00:00:00 | |
| DL1XH-west | 2026-08-31 08:20:11 | 53.15267 | 8.18057 | 37° | 55km/h | 7255m | -11.2m/s | -31.6°C | 28.7% | 400.5hPa | 2.7V | 08:13:52 | 01:44:42 | 00:00:00 | |
| BIOWL1-15 | 2026-08-31 08:20:10 | 53.15256 | 8.18043 | 38° | 55km/h | 7266m | -10.9m/s | -31.6°C | 28.6% | 399.9hPa | 2.7V | 08:13:52 | 01:44:41 | 00:00:00 | |
| DB0DAN | 2026-08-31 08:20:10 | 53.15256 | 8.18043 | 37° | 53km/h | 7266m | -10.9m/s | -31.6°C | 22.6% | 399.95hPa | 2.7V | 00:00:00 | 00:00:00 | 00:00:00 | |
| DD8BA-10 | 2026-08-31 08:20:10 | 53.15256 | 8.18043 | 38° | 53km/h | 7266m | -10.8m/s | -31.6°C | 24.3% | 399.9hPa | 2.6V | 00:00:00 | 00:00:00 | 00:00:00 | |
| DK9SH | 2026-08-31 08:20:09 | 53.15256 | 8.18043 | 38° | 55km/h | 7266m | -10.9m/s | -31.6°C | 22.6% | 400.0hPa | 2.6V | 08:13:00 | 00:00:00 | 00:00:00 | |
| DL1XH-15 | 2026-08-31 08:20:08 | 53.15181 | 8.17945 | 38° | 53km/h | 7339m | -11.2m/s | -32.2°C | 23.6% | 395.8hPa | 2.6V | 08:13:51 | 01:44:34 | 00:00:00 | |
| AA1-15 | 2026-08-31 08:20:03 | 53.15181 | 8.17945 | 39° | 53km/h | 7339m | -11.2m/s | -32.2°C | 27.8% | 395.8hPa | 2.6V | 08:13:52 | 01:44:34 | 00:00:00 | |
| DL1XH-west | 2026-08-31 08:20:01 | 53.15161 | 8.17918 | 38° | 53km/h | 7361m | -11.4m/s | -32.4°C | 28.1% | 394.6hPa | 2.6V | 08:14:43 | 01:44:32 | 00:00:00 | |
| BIOWL1-15 | 2026-08-31 08:19:59 | 53.15139 | 8.17890 | 38° | 55km/h | 7383m | -11.2m/s | -32.6°C | 28.4% | 393.4hPa | 2.7V | 08:14:43 | 01:44:30 | 00:00:00 | |
| DL1XH-15 | 2026-08-31 08:19:58 | 53.15075 | 8.17801 | 40° | 55km/h | 7447m | -10.5m/s | -33.2°C | 24.9% | 389.8hPa | 2.7V | 08:14:01 | 01:44:24 | 00:00:00 | |
| BIOWL7-15 | 2026-08-31 08:19:57 | 53.15129 | 8.17875 | 41° | 55km/h | 7394m | -11.1m/s | -32.7°C | 22.5% | 392.8hPa | 2.6V | 08:14:00 | 00:00:00 | 00:00:00 | |
| DB0DAN | 2026-08-31 08:19:55 | 53.15097 | 8.17831 | 40° | 53km/h | 7427m | -10.7m/s | -33°C | 23% | 391.01hPa | 2.6V | 00:00:00 | 00:00:00 | 00:00:00 | |
| BIOWL1-15 | 2026-08-31 08:19:53 | 53.15035 | 8.17744 | 40° | 51km/h | 7488m | -11.1m/s | -33.5°C | 29.5% | 387.4hPa | 2.6V | 08:14:43 | 01:44:20 | 00:00:00 | |
| DM0DOS-11 | 2026-08-31 08:19:52 | 53.15015 | 8.17717 | 37° | 51km/h | 7509m | -11.5m/s | -33.7°C | 25.4% | 386.2hPa | 2.7V | 08:14:07 | 01:44:18 | 00:00:00 | |
| AA1-15 | 2026-08-31 08:19:52 | 53.15065 | 8.17786 | 41° | 53km/h | 7458m | -10.5m/s | -33.2°C | 29.1% | 389.2hPa | 2.7V | 08:14:43 | 01:44:23 | 00:00:00 | |
| DL1XH-west | 2026-08-31 08:19:50 | 53.15045 | 8.17758 | 40° | 53km/h | 7478m | -10.7m/s | -33.4°C | 29.4% | 388hPa | 2.6V | 08:14:43 | 01:44:21 | 00:00:00 | |
| DL4XJ-10 | 2026-08-31 08:19:50 | 53.15045 | 8.17758 | 41° | 53km/h | 7478m | -10.6m/s | -36.5°C | 0% | 0hPa | 2.7V | 00:00:00 | 00:00:00 | 00:00:00 | |
| DK9SH | 2026-08-31 08:19:49 | 53.15045 | 8.17758 | 41° | 53km/h | 7478m | -10.7m/s | -33.4°C | 23.3% | 388.0hPa | 2.7V | 08:14:00 | 00:00:00 | 00:00:00 | |
| DL1XH-15 | 2026-08-31 08:19:48 | 53.14972 | 8.17664 | 36° | 53km/h | 7553m | -11.3m/s | -34.1°C | 25.5% | 383.9hPa | 2.7V | 08:14:11 | 01:44:14 | 00:00:00 | |
| DC6BW-12 | 2026-08-31 08:19:47 | 53.15025 | 8.17730 | 40° | 51km/h | 7499m | -11.0m/s | -33.6°C | 23.5% | 386.8hPa | 2.6V | 08:14:00 | 00:00:00 | 00:00:00 | |
| DF5WG-10 | 2026-08-31 08:19:46 | 53.15004 | 8.17703 | 37° | 53km/h | 7520m | -11.2m/s | -33.8°C | 25.4% | 385.6hPa | 2.6V | 00:00:00 | 01:44:17 | 00:00:00 | |
| GOEST3-10 | 2026-08-31 08:19:45 | 53.14993 | 8.17690 | 37° | 53km/h | 7531m | -11.2m/s | -33.9°C | 25.5% | 385.0hPa | 2.6V | 08:14:00 | 00:00:00 | 00:00:00 | |
| DN9WHV | 2026-08-31 08:19:44 | 53.14993 | 8.17690 | 37° | 53km/h | 7531m | -11.2m/s | -33.9°C | 23.6% | 385.1hPa | 2.7V | 08:14:00 | 00:00:00 | 00:00:00 | |
| DM0DOS-11 | 2026-08-31 08:19:42 | 53.14907 | 8.17580 | 39° | 53km/h | 7619m | -10.9m/s | -34.7°C | 25.7% | 380.3hPa | 2.7V | 08:14:17 | 01:44:08 | 00:00:00 | |
| AA1-15 | 2026-08-31 08:19:41 | 53.14950 | 8.17636 | 38° | 55km/h | 7575m | -11.5m/s | -34.3°C | 29.8% | 382.6hPa | 2.6V | 08:14:43 | 01:44:12 | 00:00:00 | |
| DB0DAN | 2026-08-31 08:19:40 | 53.14939 | 8.17622 | 38° | 51km/h | 7587m | -11.3m/s | -34.4°C | 23.7% | 382.02hPa | 2.6V | 00:00:00 | 00:00:00 | 00:00:00 | |
| GOEST3-10 | 2026-08-31 08:19:40 | 53.14939 | 8.17622 | 39° | 53km/h | 7587m | -11.2m/s | -34.4°C | 25.6% | 382.0hPa | 2.7V | 00:00:00 | 01:44:11 | 00:00:00 | |
| SONCRA | 2026-08-31 08:19:39 | 53.14929 | 8.17608 | 38° | 53km/h | 7598m | -11.1m/s | -34.5°C | 23.7% | 381.4hPa | 2.7V | 00:00:00 | 00:00:00 | 00:00:00 | |
| DL1XH-west | 2026-08-31 08:19:39 | 53.14929 | 8.17608 | 38° | 55km/h | 7598m | -11.1m/s | -34.5°C | 29.9% | 381.4hPa | 2.7V | 08:14:43 | 01:44:10 | 00:00:00 | |
| DN9WHV | 2026-08-31 08:19:38 | 53.14929 | 8.17608 | 39° | 55km/h | 7598m | -11.1m/s | -34.5°C | 23.7% | 381.5hPa | 2.7V | 08:14:00 | 00:00:00 | 00:00:00 | |
| DN9WHV | 2026-08-31 08:19:37 | 53.14918 | 8.17594 | 40° | 55km/h | 7609m | -10.8m/s | -34.6°C | 23.8% | 380.9hPa | 2.7V | 08:14:00 | 00:00:00 | 00:00:00 | |
| DF5WG-10 | 2026-08-31 08:19:36 | 53.14897 | 8.17566 | 40° | 51km/h | 7630m | -10.9m/s | -34.7°C | 25.8% | 379.6hPa | 2.7V | 00:00:00 | 01:44:07 | 00:00:00 | |
| GOEST3-10 | 2026-08-31 08:19:35 | 53.14887 | 8.17553 | 40° | 49km/h | 7640m | -11.0m/s | -34.8°C | 25.8% | 379.0hPa | 2.7V | 00:00:00 | 00:00:00 | 00:00:00 | |
| DN9WHV | 2026-08-31 08:19:34 | 53.14887 | 8.17553 | 41° | 51km/h | 7640m | -11.0m/s | -34.9°C | 23.9% | 379.1hPa | 2.7V | 08:14:00 | 00:00:00 | 00:00:00 | |
| BIOWL9-15 | 2026-08-31 08:19:33 | 53.14867 | 8.17526 | 37° | 49km/h | 7661m | -11.6m/s | -35.0°C | 23.9% | 377.9hPa | 2.7V | 00:00:00 | 00:00:00 | 00:00:00 | |
| DM0DOS-11 | 2026-08-31 08:19:32 | 53.14810 | 8.17447 | 41° | 46km/h | 7728m | -11m/s | -35.5°C | 25.8% | 374.3hPa | 2.7V | 08:14:27 | 01:43:58 | 00:00:00 | |
| DJ2DS-15 | 2026-08-31 08:19:31 | 53.14847 | 8.17500 | 38° | 49km/h | 7684m | -11.7m/s | -35.2°C | 24.0% | 376.7hPa | 2.6V | 00:00:00 | 00:00:00 | 00:00:00 | |
| DL1XH1-15 | 2026-08-31 08:19:30 | 53.14792 | 8.17422 | 39° | 46km/h | 7749m | -11.4m/s | -35.7°C | 25.8% | 373.1hPa | 2.6V | 08:14:29 | 01:43:56 | 00:00:00 | |
| AA1-15 | 2026-08-31 08:19:30 | 53.14838 | 8.17487 | 40° | 51km/h | 7695m | -11.4m/s | -35.3°C | 30.1% | 376.1hPa | 2.6V | 08:14:43 | 01:44:01 | 00:00:00 | |
| DL1XH-west | 2026-08-31 08:19:29 | 53.14828 | 8.17473 | 41° | 49km/h | 7706m | -11.4m/s | -35.4°C | 30.1% | 375.5hPa | 2.6V | 08:14:43 | 01:44:00 | 00:00:00 | |
| DO2JMG | 2026-08-31 08:19:28 | 53.14819 | 8.17460 | 41° | 49km/h | 7717m | -11m/s | -35.5°C | 30% | 374.9hPa | 2.6V | 08:14:43 | 01:43:59 | 00:00:00 | |
| DN9WHV | 2026-08-31 08:19:27 | 53.14819 | 8.17460 | 42° | 49km/h | 7717m | -11.0m/s | -35.5°C | 23.9% | 374.9hPa | 2.6V | 08:14:00 | 00:00:00 | 00:00:00 | |
| DO9FK | 2026-08-31 08:19:26 | 53.14810 | 8.17447 | 42° | 46km/h | 7728m | -11.0m/s | 0°C | 0% | 0hPa | 2.6V | 00:00:00 | 00:00:00 | 00:00:00 | |
| DB0DAN | 2026-08-31 08:19:25 | 53.14792 | 8.17422 | 39° | 44km/h | 7749m | -11.4m/s | -35.7°C | 23.8% | 373.07hPa | 2.6V | 00:00:00 | 00:00:00 | 00:00:00 | |
| GOEST3-10 | 2026-08-31 08:19:25 | 53.14792 | 8.17422 | 40° | 46km/h | 7749m | -11.4m/s | -35.6°C | 25.8% | 373.0hPa | 2.7V | 00:00:00 | 00:00:00 | 00:00:00 | |
| BUE01 | 2026-08-31 08:19:24 | 53.14783 | 8.17410 | 38° | 46km/h | 7760m | -11.7m/s | -35.7°C | 23.7% | 372.5hPa | 2.7V | 00:00:00 | 00:00:00 | 00:00:00 | |
| DM0DOS-11 | 2026-08-31 08:19:23 | 53.14719 | 8.17326 | 37° | 44km/h | 7839m | -11.1m/s | -36.2°C | 25.1% | 368.3hPa | 2.7V | 08:14:37 | 01:43:48 | 00:00:00 | |
| DJ2DS-15 | 2026-08-31 08:19:22 | 53.14765 | 8.17386 | 38° | 42km/h | 7783m | -11.5m/s | -35.8°C | 25.3% | 371.3hPa | 2.6V | 00:00:00 | 01:43:53 | 00:00:00 | |
| DL8OAI-8 | 2026-08-31 08:19:21 | 53.14765 | 8.17386 | 39° | 46km/h | 7783m | -11.6m/s | -35.8°C | 23.3% | 371.4hPa | 2.6V | 00:00:00 | 00:00:00 | 00:00:00 | |
| DL1XH1-15 | 2026-08-31 08:19:20 | 53.14702 | 8.17304 | 35° | 42km/h | 7860m | -11.6m/s | -36.4°C | 25.3% | 367.1hPa | 2.6V | 08:14:39 | 01:43:46 | 00:00:00 | |
| AA1-15 | 2026-08-31 08:19:19 | 53.14738 | 8.17350 | 39° | 47km/h | 7817m | -11.5m/s | -36.1°C | 29.2% | 369.5hPa | 2.6V | 08:14:43 | 01:43:50 | 00:00:00 | |
| BIOWL1-15 | 2026-08-31 08:19:19 | 53.14719 | 8.17326 | 38° | 44km/h | 7839m | -11.1m/s | -36.2°C | 29.3% | 368.3hPa | 2.7V | 08:14:43 | 01:43:48 | 00:00:00 | |
| DL1XH-west | 2026-08-31 08:19:18 | 53.14728 | 8.17338 | 38° | 46km/h | 7828m | -11.5m/s | -36.1°C | 29.2% | 368.9hPa | 2.7V | 08:14:43 | 01:43:49 | 00:00:00 | |
| DN9WHV | 2026-08-31 08:19:17 | 53.14729 | 8.17338 | 39° | 46km/h | 7828m | -11.5m/s | -36.1°C | 23.0% | 368.9hPa | 2.6V | 08:14:00 | 00:00:00 | 00:00:00 | |
| DF5WG-10 | 2026-08-31 08:19:16 | 53.14711 | 8.17314 | 38° | 42km/h | 7850m | -11.3m/s | -36.3°C | 25.3% | 367.7hPa | 2.6V | 00:00:00 | 01:43:47 | 00:00:00 | |
| DB0UT-7 | 2026-08-31 08:19:15 | 53.14702 | 8.17304 | 36° | 38km/h | 7860m | -11.5m/s | -36.4°C | 25.3% | 367.0hPa | 2.6V | 00:00:00 | 00:00:00 | 00:00:00 | |
| DL1CLM-18 | 2026-08-31 08:19:13 | 53.14693 | 8.17294 | 36° | 42km/h | 7871m | -11.7m/s | -36.5°C | 23.3% | 366.5hPa | 2.6V | 00:00:00 | 00:00:00 | 00:00:00 | |
| DM0DOS-11 | 2026-08-31 08:19:12 | 53.14631 | 8.17227 | 32° | 42km/h | 7952m | -11.5m/s | -37.1°C | 24.2% | 362.4hPa | 2.6V | 08:14:47 | 01:43:38 | 00:00:00 | |
| DL4BBY-15 | 2026-08-31 08:19:11 | 53.14667 | 8.17265 | 32° | 38km/h | 7906m | -11.7m/s | -39.8°C | 0% | 0hPa | 2.7V | 00:00:00 | 00:00:00 | 00:00:00 | |
| DL1XH1-15 | 2026-08-31 08:19:10 | 53.14613 | 8.17209 | 32° | 38km/h | 7974m | -11.4m/s | -37.3°C | 24.1% | 361.1hPa | 2.7V | 08:14:49 | 01:43:36 | 00:00:00 | |
| DB0DAN | 2026-08-31 08:19:10 | 53.14658 | 8.17256 | 32° | 40km/h | 7917m | -11.9m/s | -36.8°C | 22.6% | 364.17hPa | 2.7V | 00:00:00 | 00:00:00 | 00:00:00 | |
| DL4XJ-10 | 2026-08-31 08:19:10 | 53.14658 | 8.17256 | 32° | 38km/h | 7918m | -11.9m/s | -39.9°C | 0% | 0hPa | 2.6V | 00:00:00 | 00:00:00 | 00:00:00 | |
| HTAHTA | 2026-08-31 08:19:09 | 53.14649 | 8.17246 | 31° | 42km/h | 7929m | -11.8m/s | -36.9°C | 22.4% | 363.6hPa | 2.6V | 00:00:00 | 00:00:00 | 00:00:00 | |
| DL1XH-15 | 2026-08-31 08:19:08 | 53.14597 | 8.17192 | 30° | 37km/h | 7997m | -11.8m/s | -37.5°C | 24% | 359.9hPa | 2.6V | 08:14:51 | 01:43:34 | 00:00:00 | |
| AA1-15 | 2026-08-31 08:19:08 | 53.14640 | 8.17237 | 32° | 42km/h | 7941m | -11.6m/s | -37°C | 28.5% | 363hPa | 2.6V | 08:15:34 | 01:43:39 | 00:00:00 | |
| DO2JMG | 2026-08-31 08:19:07 | 53.14631 | 8.17227 | 33° | 42km/h | 7952m | -11.5m/s | -37.1°C | 28.4% | 362.4hPa | 2.6V | 08:15:34 | 01:43:38 | 00:00:00 | |
| DF5WG-10 | 2026-08-31 08:19:06 | 53.14622 | 8.17218 | 33° | 38km/h | 7964m | -11.1m/s | -37.1°C | 24.1% | 361.7hPa | 2.7V | 00:00:00 | 01:43:37 | 00:00:00 | |
| GOEST3-10 | 2026-08-31 08:19:05 | 53.14614 | 8.17209 | 33° | 37km/h | 7974m | -11.3m/s | -37.2°C | 24.1% | 361.1hPa | 2.7V | 00:00:00 | 00:00:00 | 00:00:00 | |
| DD1CC3-15 | 2026-08-31 08:19:04 | 53.14613 | 8.17209 | 33° | 38km/h | 7974m | -11.4m/s | -37.3°C | 22.0% | 361.1hPa | 2.7V | 00:00:00 | 00:00:00 | 00:00:00 | |
| DN9WHV | 2026-08-31 08:19:03 | 53.14605 | 8.17200 | 33° | 38km/h | 7985m | -11.7m/s | -37.4°C | 22.0% | 360.6hPa | 2.7V | 08:15:00 | 00:00:00 | 00:00:00 | |
| DJ2DS-15 | 2026-08-31 08:19:02 | 53.14589 | 8.17184 | 29° | 37km/h | 8008m | -11.8m/s | -37.5°C | 23.9% | 359.4hPa | 2.7V | 00:00:00 | 01:43:33 | 00:00:00 | |
| BIOWL7-15 | 2026-08-31 08:19:01 | 53.14589 | 8.17184 | 29° | 37km/h | 8008m | -11.9m/s | -37.6°C | 21.8% | 359.4hPa | 2.7V | 00:00:00 | 00:00:00 | 00:00:00 | |
| DL1XH1-15 | 2026-08-31 08:19:00 | 53.14531 | 8.17132 | 31° | 37km/h | 8089m | -11.4m/s | -38°C | 22.5% | 355.3hPa | 2.7V | 08:14:59 | 01:43:26 | 00:00:00 | |
| DO9LL-15 | 2026-08-31 08:19:00 | 53.14573 | 8.17170 | 27° | 37km/h | 8031m | -11.6m/s | -37.7°C | 23.3% | 358.2hPa | 2.7V | 00:00:00 | 01:43:31 | 00:00:00 | |
| DL1XH-15 | 2026-08-31 08:18:58 | 53.14515 | 8.17116 | 32° | 37km/h | 8112m | -11.7m/s | -38.2°C | 22.7% | 354hPa | 2.7V | 08:15:01 | 01:43:24 | 00:00:00 | |
| DM0DOS-11 | 2026-08-31 08:18:57 | 53.14547 | 8.17148 | 29° | 37km/h | 8066m | -11.8m/s | -37.9°C | 22.4% | 356.4hPa | 2.6V | 08:14:57 | 01:43:28 | 00:00:00 | |
| DO2JMG | 2026-08-31 08:18:57 | 53.14547 | 8.17148 | 30° | 37km/h | 8066m | -11.8m/s | -37.9°C | 26.3% | 356.4hPa | 2.6V | 08:15:34 | 01:43:28 | 00:00:00 | |
| DL1XH-west | 2026-08-31 08:18:56 | 53.14539 | 8.17140 | 31° | 37km/h | 8078m | -11.9m/s | -38°C | 26.4% | 355.8hPa | 2.6V | 08:15:34 | 01:43:27 | 00:00:00 | |
| DB0DAN | 2026-08-31 08:18:55 | 53.14531 | 8.17132 | 32° | 35km/h | 8089m | -11.5m/s | -38.1°C | 20.4% | 355.26hPa | 2.7V | 00:00:00 | 00:00:00 | 00:00:00 | |
| DJ2DS-15 | 2026-08-31 08:18:55 | 53.14523 | 8.17124 | 31° | 37km/h | 8100m | -11.6m/s | -38.2°C | 20.5% | 354.7hPa | 2.6V | 00:00:00 | 00:00:00 | 00:00:00 | |
| BUE01 | 2026-08-31 08:18:53 | 53.14508 | 8.17108 | 32° | 35km/h | 8124m | -11.5m/s | -38.4°C | 20.9% | 353.5hPa | 2.6V | 00:00:00 | 00:00:00 | 00:00:00 | |
| DM0DOS-11 | 2026-08-31 08:18:52 | 53.14470 | 8.17069 | 29° | 35km/h | 8182m | -11.7m/s | -38.9°C | 24.5% | 350.4hPa | 2.6V | 08:15:07 | 01:43:18 | 00:00:00 | |
| DC4HF-4 | 2026-08-31 08:18:52 | 53.14508 | 8.17108 | 32° | 35km/h | 8124m | -11.5m/s | -38.4°C | 20.9% | 353.5hPa | 2.6V | 00:00:00 | 00:00:00 | 00:00:00 | |
| DN9WHV | 2026-08-31 08:18:51 | 53.14508 | 8.17108 | 34° | 37km/h | 8124m | -11.5m/s | -38.4°C | 20.9% | 353.5hPa | 2.6V | 08:15:00 | 00:00:00 | 00:00:00 | |
| DN9WHV | 2026-08-31 08:18:50 | 53.14492 | 8.17092 | 34° | 35km/h | 8147m | -11.7m/s | -38.6°C | 21.3% | 352.3hPa | 2.6V | 08:15:00 | 00:00:00 | 00:00:00 | |
| DF4FW | 2026-08-31 08:18:49 | 53.14492 | 8.17092 | 34° | 35km/h | 8147m | -11.7m/s | -38.6°C | 21.3% | 352.3hPa | 2.6V | 08:15:00 | 00:00:00 | 00:00:00 | |
| DL1XH-15 | 2026-08-31 08:18:48 | 53.14439 | 8.17039 | 30° | 37km/h | 8230m | -12.4m/s | -39.3°C | 25.7% | 348.2hPa | 2.6V | 08:15:11 | 01:43:14 | 00:00:00 | |
| DO2JMG | 2026-08-31 08:18:46 | 53.14462 | 8.17062 | 30° | 35km/h | 8193m | -11.9m/s | -39°C | 28.9% | 349.9hPa | 2.6V | 08:15:34 | 01:43:17 | 00:00:00 | |
| DL1XH-west | 2026-08-31 08:18:45 | 53.14454 | 8.17055 | 30° | 37km/h | 8205m | -12.1m/s | -39.1°C | 29.2% | 349.4hPa | 2.7V | 08:15:34 | 01:43:16 | 00:00:00 | |
| DN9WHV | 2026-08-31 08:18:43 | 53.14438 | 8.17039 | 31° | 37km/h | 8230m | -12.4m/s | -39.3°C | 23.4% | 348.2hPa | 2.6V | 08:15:00 | 00:00:00 | 00:00:00 | |
| DJ2DS-15 | 2026-08-31 08:18:42 | 53.14430 | 8.17032 | 31° | 38km/h | 8242m | -12.3m/s | -39.4°C | 26.1% | 347.6hPa | 2.6V | 00:00:00 | 01:43:13 | 00:00:00 | |
| DL4BBY-15 | 2026-08-31 08:18:41 | 53.14423 | 8.17023 | 33° | 42km/h | 8255m | -12.3m/s | -42.6°C | 0% | 0hPa | 2.6V | 00:00:00 | 00:00:00 | 00:00:00 | |
| DL1XH1-15 | 2026-08-31 08:18:40 | 53.14376 | 8.16969 | 34° | 37km/h | 8323m | -11.6m/s | -40.2°C | 28.6% | 343.4hPa | 2.6V | 08:15:19 | 01:43:06 | 00:00:00 | |
| DB0DAN | 2026-08-31 08:18:40 | 53.14415 | 8.17014 | 35° | 37km/h | 8267m | -11.9m/s | -39.7°C | 24.4% | 346.37hPa | 2.7V | 00:00:00 | 00:00:00 | 00:00:00 | |
| DD8BA-10 | 2026-08-31 08:18:40 | 53.14414 | 8.17014 | 35° | 37km/h | 8267m | -11.8m/s | -39.6°C | 26.8% | 346.3hPa | 2.7V | 00:00:00 | 00:00:00 | 00:00:00 | |
| DL1XH-15 | 2026-08-31 08:18:38 | 53.14362 | 8.16952 | 33° | 37km/h | 8346m | -11.8m/s | -40.5°C | 29.1% | 342.3hPa | 2.7V | 08:15:21 | 01:43:04 | 00:00:00 | |
| DO2JMG | 2026-08-31 08:18:36 | 53.14384 | 8.16978 | 36° | 37km/h | 8313m | -11.4m/s | -40.1°C | 32.2% | 344hPa | 2.6V | 08:15:34 | 01:43:07 | 00:00:00 | |
| BIOWL1-15 | 2026-08-31 08:18:35 | 53.14329 | 8.16915 | 37° | 40km/h | 8393m | -11.6m/s | -40.9°C | 34.6% | 340hPa | 2.6V | 08:15:34 | 01:43:00 | 00:00:00 | |
| AA1-15 | 2026-08-31 08:18:35 | 53.14376 | 8.16969 | 35° | 37km/h | 8323m | -11.6m/s | -40.3°C | 32.5% | 343.4hPa | 2.6V | 08:15:34 | 01:43:06 | 00:00:00 | |
| DL1XH-west | 2026-08-31 08:18:34 | 53.14369 | 8.16961 | 34° | 37km/h | 8335m | -11.8m/s | -40.4°C | 32.9% | 342.8hPa | 2.7V | 08:15:34 | 01:43:05 | 00:00:00 | |
| BIOWL7-15 | 2026-08-31 08:18:33 | 53.14369 | 8.16961 | 35° | 37km/h | 8335m | -11.8m/s | -40.4°C | 26.3% | 342.8hPa | 2.6V | 00:00:00 | 00:00:00 | 00:00:00 | |
| DN9WHV | 2026-08-31 08:18:32 | 53.14362 | 8.16952 | 34° | 37km/h | 8346m | -11.8m/s | -40.5°C | 26.5% | 342.3hPa | 2.6V | 08:15:00 | 00:00:00 | 00:00:00 | |
| BIOWL9-15 | 2026-08-31 08:18:31 | 53.14345 | 8.16935 | 33° | 38km/h | 8369m | -11.8m/s | -40.7°C | 27.1% | 341.1hPa | 2.6V | 00:00:00 | 00:00:00 | 00:00:00 | |
| DL1XH1-15 | 2026-08-31 08:18:30 | 53.14295 | 8.16873 | 37° | 42km/h | 8439m | -11.4m/s | -41.4°C | 32% | 337.7hPa | 2.6V | 08:15:29 | 01:42:56 | 00:00:00 | |
| DO9LL-15 | 2026-08-31 08:18:30 | 53.14337 | 8.16925 | 35° | 44km/h | 8381m | -11.6m/s | -40.8°C | 30.0% | 340.5hPa | 2.6V | 00:00:00 | 01:43:01 | 00:00:00 | |
| DN9WHV | 2026-08-31 08:18:29 | 53.14337 | 8.16925 | 36° | 40km/h | 8381m | -11.6m/s | -40.8°C | 27.3% | 340.5hPa | 2.7V | 08:15:00 | 00:00:00 | 00:00:00 | |
| DL1XH-15 | 2026-08-31 08:18:28 | 53.14278 | 8.16852 | 38° | 42km/h | 8461m | -11.3m/s | -41.6°C | 32% | 336.5hPa | 2.7V | 08:15:31 | 01:42:54 | 00:00:00 | |
| DK9SH | 2026-08-31 08:18:27 | 53.14320 | 8.16905 | 38° | 42km/h | 8405m | -11.6m/s | -41.0°C | 28.0% | 339.4hPa | 2.6V | 08:15:00 | 00:00:00 | 00:00:00 | |
| DN9WHV | 2026-08-31 08:18:26 | 53.14312 | 8.16895 | 38° | 42km/h | 8416m | -11.5m/s | -41.1°C | 28.4% | 338.8hPa | 2.6V | 08:15:00 | 00:00:00 | 00:00:00 | |
| DB0DAN | 2026-08-31 08:18:25 | 53.14295 | 8.16873 | 37° | 40km/h | 8439m | -11.4m/s | -41.4°C | 29.2% | 337.7hPa | 2.6V | 00:00:00 | 00:00:00 | 00:00:00 | |
| DO2JMG | 2026-08-31 08:18:25 | 53.14295 | 8.16873 | 37° | 42km/h | 8439m | -11.4m/s | -41.4°C | 36.2% | 337.7hPa | 2.6V | 08:15:34 | 01:42:56 | 00:00:00 | |
| AA1-15 | 2026-08-31 08:18:24 | 53.14287 | 8.16863 | 38° | 42km/h | 8450m | -11.2m/s | -41.5°C | 36.4% | 337.1hPa | 2.6V | 08:15:34 | 01:42:55 | 00:00:00 | |
| DL1XH-west | 2026-08-31 08:18:23 | 53.14278 | 8.16852 | 39° | 42km/h | 8461m | -11.4m/s | -41.6°C | 36.2% | 336.5hPa | 2.7V | 08:15:34 | 01:42:54 | 00:00:00 | |
| BIOWL1-15 | 2026-08-31 08:18:21 | 53.14262 | 8.16830 | 38° | 42km/h | 8483m | -11.6m/s | -41.8°C | 36.2% | 335.4hPa | 2.7V | 08:15:34 | 01:42:52 | 00:00:00 | |
| DL1XH1-15 | 2026-08-31 08:18:20 | 53.14208 | 8.16764 | 38° | 46km/h | 8553m | -12m/s | -42.3°C | 31.8% | 331.9hPa | 2.7V | 08:15:39 | 01:42:46 | 00:00:00 | |
| DJ2DS-15 | 2026-08-31 08:18:20 | 53.14236 | 8.16798 | 36° | 42km/h | 8518m | -12.2m/s | -42.1°C | 28.7% | 333.7hPa | 2.6V | 00:00:00 | 00:00:00 | 00:00:00 | |
| DL1XH-15 | 2026-08-31 08:18:18 | 53.14190 | 8.16739 | 40° | 47km/h | 8576m | -11.6m/s | -42.6°C | 32.4% | 330.8hPa | 2.6V | 08:15:41 | 01:42:44 | 00:00:00 | |
| DO2JMG | 2026-08-31 08:18:14 | 53.14199 | 8.16752 | 40° | 47km/h | 8565m | -11.7m/s | -42.5°C | 36.1% | 331.4hPa | 2.6V | 08:16:25 | 01:42:45 | 00:00:00 | |
| AA1-15 | 2026-08-31 08:18:13 | 53.14190 | 8.16739 | 40° | 47km/h | 8576m | -11.6m/s | -42.6°C | 36.3% | 330.8hPa | 2.6V | 08:16:25 | 01:42:44 | 00:00:00 | |
| DL1XH-west | 2026-08-31 08:18:12 | 53.14181 | 8.16726 | 41° | 47km/h | 8588m | -11.6m/s | -42.7°C | 36.4% | 330.2hPa | 2.6V | 08:16:25 | 01:42:43 | 00:00:00 | |
| BIOWL1-15 | 2026-08-31 08:18:11 | 53.14172 | 8.16713 | 41° | 47km/h | 8600m | -11.5m/s | -42.8°C | 36.4% | 329.6hPa | 2.7V | 08:16:25 | 01:42:42 | 00:00:00 | |
| DB0DAN | 2026-08-31 08:18:10 | 53.14163 | 8.16699 | 41° | 46km/h | 8611m | -11.4m/s | -42.9°C | 29.6% | 329.12hPa | 2.7V | 00:00:00 | 00:00:00 | 00:00:00 | |
| DD8BA-10 | 2026-08-31 08:18:10 | 53.14162 | 8.16699 | 42° | 46km/h | 8611m | -11.3m/s | -42.9°C | 32.7% | 329.1hPa | 2.6V | 00:00:00 | 00:00:00 | 00:00:00 | |
| DL1CLM-18 | 2026-08-31 08:18:09 | 53.14162 | 8.16699 | 42° | 47km/h | 8611m | -11.4m/s | -42.9°C | 29.6% | 329.1hPa | 2.6V | 08:16:00 | 00:00:00 | 00:00:00 | |
| DL1XH-15 | 2026-08-31 08:18:08 | 53.14102 | 8.16610 | 38° | 46km/h | 8691m | -12.1m/s | -43.6°C | 31.9% | 325.1hPa | 2.6V | 08:15:51 | 01:42:34 | 00:00:00 | |
| DM0DOS-11 | 2026-08-31 08:18:08 | 53.14137 | 8.16660 | 42° | 46km/h | 8645m | -11.5m/s | -43.2°C | 32.7% | 327.4hPa | 2.7V | 08:15:47 | 01:42:38 | 00:00:00 | |
| DO2JMG | 2026-08-31 08:18:03 | 53.14102 | 8.16610 | 39° | 46km/h | 8691m | -12.1m/s | -43.6°C | 35.5% | 325.1hPa | 2.6V | 08:16:25 | 01:42:34 | 00:00:00 | |
| AA1-15 | 2026-08-31 08:18:02 | 53.14093 | 8.16598 | 38° | 47km/h | 8703m | -12.1m/s | -43.7°C | 35.2% | 324.6hPa | 2.7V | 08:16:25 | 01:42:33 | 00:00:00 | |
| DL1XH-west | 2026-08-31 08:18:01 | 53.14084 | 8.16585 | 38° | 49km/h | 8715m | -12m/s | -43.8°C | 35% | 323.9hPa | 2.7V | 08:16:25 | 01:42:32 | 00:00:00 | |
| BIOWL1-15 | 2026-08-31 08:18:00 | 53.14074 | 8.16572 | 39° | 49km/h | 8727m | -11.8m/s | -43.9°C | 34.6% | 323.5hPa | 2.7V | 08:16:25 | 01:42:31 | 00:00:00 | |
| DO9LL-15 | 2026-08-31 08:18:00 | 53.14074 | 8.16572 | 39° | 58km/h | 8727m | -11.7m/s | -43.8°C | 31.0% | 323.4hPa | 2.6V | 00:00:00 | 01:42:31 | 00:00:00 | |
| DN9WHV | 2026-08-31 08:17:59 | 53.14074 | 8.16572 | 40° | 49km/h | 8727m | -11.8m/s | -43.9°C | 27.9% | 323.5hPa | 2.6V | 08:16:00 | 00:00:00 | 00:00:00 | |
| DL1XH-15 | 2026-08-31 08:17:58 | 53.14005 | 8.16474 | 39° | 55km/h | 8807m | -11.9m/s | -44.2°C | 23.4% | 319.6hPa | 2.6V | 08:16:01 | 01:42:24 | 00:00:00 | |
| DN9WHV | 2026-08-31 08:17:57 | 53.14055 | 8.16545 | 42° | 51km/h | 8751m | -11.3m/s | -44.0°C | 26.8% | 322.3hPa | 2.7V | 08:16:00 | 00:00:00 | 00:00:00 | |
| DN9WHV | 2026-08-31 08:17:56 | 53.14045 | 8.16531 | 42° | 51km/h | 8761m | -11.2m/s | -44.1°C | 26.0% | 321.7hPa | 2.7V | 08:16:00 | 00:00:00 | 00:00:00 | |
| DB0DAN | 2026-08-31 08:17:55 | 53.14026 | 8.16502 | 41° | 49km/h | 8783m | -11.8m/s | -44.2°C | 23.6% | 320.63hPa | 2.7V | 00:00:00 | 00:00:00 | 00:00:00 | |
| DO2JMG | 2026-08-31 08:17:53 | 53.14005 | 8.16474 | 40° | 55km/h | 8807m | -11.9m/s | -44.2°C | 26.7% | 319.6hPa | 2.6V | 08:16:25 | 01:42:24 | 00:00:00 | |
| AA1-15 | 2026-08-31 08:17:52 | 53.13994 | 8.16459 | 41° | 57km/h | 8818m | -11.8m/s | -44.3°C | 25.3% | 319hPa | 2.7V | 08:16:25 | 01:42:23 | 00:00:00 | |
| BUE01 | 2026-08-31 08:17:51 | 53.13973 | 8.16426 | 44° | 57km/h | 8842m | -11.3m/s | -44.3°C | 17.7% | 317.9hPa | 2.7V | 00:00:00 | 00:00:00 | 00:00:00 | |
| DL1XH1-15 | 2026-08-31 08:17:50 | 53.13922 | 8.16338 | 47° | 58km/h | 8900m | -11.9m/s | -44.7°C | 19.6% | 315.2hPa | 2.7V | 08:16:09 | 01:42:16 | 00:00:00 | |
| DL1XH-west | 2026-08-31 08:17:50 | 53.13973 | 8.16426 | 45° | 58km/h | 8842m | -11.3m/s | -44.3°C | 23.4% | 317.9hPa | 2.6V | 08:16:25 | 01:42:21 | 00:00:00 | |
| BIOWL1-15 | 2026-08-31 08:17:49 | 53.13963 | 8.16409 | 45° | 58km/h | 8854m | -11.1m/s | -44.4°C | 22.8% | 317.4hPa | 2.6V | 08:16:25 | 01:42:20 | 00:00:00 | |
| DL1XH-15 | 2026-08-31 08:17:48 | 53.13901 | 8.16301 | 47° | 62km/h | 8924m | -12.1m/s | -44.8°C | 20.3% | 314.1hPa | 2.6V | 08:16:11 | 01:42:14 | 00:00:00 | |
| DM0DOS-11 | 2026-08-31 08:17:48 | 53.13942 | 8.16373 | 46° | 58km/h | 8876m | -11.4m/s | -44.5°C | 19.3% | 316.2hPa | 2.7V | 08:16:07 | 01:42:18 | 00:00:00 | |
| DO2JMG | 2026-08-31 08:17:42 | 53.13890 | 8.16281 | 49° | 64km/h | 8936m | -11.7m/s | -44.9°C | 24.1% | 313.5hPa | 2.6V | 08:16:25 | 01:42:13 | 00:00:00 | |
| AA1-15 | 2026-08-31 08:17:41 | 53.13879 | 8.16261 | 50° | 64km/h | 8948m | -11.4m/s | -44.9°C | 24.6% | 313hPa | 2.7V | 08:16:25 | 01:42:12 | 00:00:00 | |
| DB0DAN | 2026-08-31 08:17:40 | 53.13869 | 8.16240 | 50° | 62km/h | 8960m | -11.3m/s | -45°C | 19% | 312.41hPa | 2.7V | 00:00:00 | 00:00:00 | 00:00:00 | |
| DL1XH-west | 2026-08-31 08:17:39 | 53.13858 | 8.16219 | 51° | 66km/h | 8972m | -11.3m/s | -45.1°C | 25.4% | 311.9hPa | 2.7V | 08:16:25 | 01:42:10 | 00:00:00 | |
| DM0DOS-11 | 2026-08-31 08:17:38 | 53.13837 | 8.16176 | 51° | 64km/h | 8995m | -11m/s | -45.3°C | 22.6% | 310.8hPa | 2.6V | 08:16:17 | 01:42:08 | 00:00:00 | |
| DO2JMG | 2026-08-31 08:17:32 | 53.13789 | 8.16072 | 52° | 62km/h | 9052m | -12m/s | -45.7°C | 26.9% | 308.2hPa | 2.6V | 08:16:25 | 01:42:03 | 00:00:00 | |
| DF5WG-10 | 2026-08-31 08:17:32 | 53.13789 | 8.16072 | 53° | 62km/h | 9052m | -12.0m/s | -45.7°C | 23.5% | 308.1hPa | 2.6V | 08:16:00 | 01:42:03 | 00:00:00 | |
| DN9WHV | 2026-08-31 08:17:31 | 53.13789 | 8.16072 | 53° | 62km/h | 9052m | -12.0m/s | -45.7°C | 20.6% | 308.2hPa | 2.6V | 08:16:00 | 00:00:00 | 00:00:00 | |
| DL1XH1-15 | 2026-08-31 08:17:30 | 53.13726 | 8.15922 | 59° | 58km/h | 9134m | -11.4m/s | -46.2°C | 24.5% | 304.4hPa | 2.6V | 08:16:29 | 01:41:56 | 00:00:00 | |
| AA1-15 | 2026-08-31 08:17:30 | 53.13770 | 8.16030 | 54° | 64km/h | 9075m | -11.7m/s | -45.8°C | 26.3% | 307.1hPa | 2.7V | 08:16:25 | 01:42:01 | 00:00:00 | |
| DD8BA-10 | 2026-08-31 08:17:30 | 53.13769 | 8.16030 | 55° | 60km/h | 9075m | -11.6m/s | -45.7°C | 22.8% | 307.0hPa | 2.7V | 00:00:00 | 00:00:00 | 00:00:00 | |
| BIOWL9-15 | 2026-08-31 08:17:29 | 53.13760 | 8.16009 | 55° | 62km/h | 9087m | -11.4m/s | -45.9°C | 20.2% | 306.6hPa | 2.7V | 00:00:00 | 00:00:00 | 00:00:00 | |
| DL1XH-15 | 2026-08-31 08:17:28 | 53.13711 | 8.15880 | 59° | 58km/h | 9158m | -12.2m/s | -46.3°C | 25.5% | 303.3hPa | 2.7V | 08:16:31 | 01:41:54 | 00:00:00 | |
| DL1XH-west | 2026-08-31 08:17:28 | 53.13751 | 8.15987 | 56° | 62km/h | 9099m | -11.5m/s | -46°C | 26.9% | 306hPa | 2.7V | 08:17:16 | 01:41:59 | 00:00:00 | |
| DN9WHV | 2026-08-31 08:17:27 | 53.13751 | 8.15987 | 57° | 62km/h | 9099m | -11.5m/s | -45.9°C | 20.5% | 306.0hPa | 2.6V | 08:17:00 | 00:00:00 | 00:00:00 | |
| DK9SH | 2026-08-31 08:17:26 | 53.13742 | 8.15965 | 58° | 60km/h | 9111m | -11.4m/s | -46.0°C | 20.7% | 305.4hPa | 2.6V | 08:17:00 | 00:00:00 | 00:00:00 | |
| DB0DAN | 2026-08-31 08:17:25 | 53.13726 | 8.15922 | 59° | 57km/h | 9134m | -11.5m/s | -46.2°C | 21.5% | 304.36hPa | 2.6V | 00:00:00 | 00:00:00 | 00:00:00 | |
| DO2JMG | 2026-08-31 08:17:22 | 53.13703 | 8.15859 | 59° | 57km/h | 9170m | -12.4m/s | -46.4°C | 29.6% | 302.7hPa | 2.7V | 08:17:16 | 01:41:53 | 00:00:00 | |
| DJ2DS-15 | 2026-08-31 08:17:22 | 53.13703 | 8.15859 | 60° | 55km/h | 9170m | -12.4m/s | -46.3°C | 25.9% | 302.7hPa | 2.6V | 00:00:00 | 01:41:53 | 00:00:00 | |
| DN9WHV | 2026-08-31 08:17:21 | 53.13703 | 8.15859 | 60° | 57km/h | 9170m | -12.4m/s | -46.4°C | 22.8% | 302.7hPa | 2.6V | 08:17:00 | 00:00:00 | 00:00:00 | |
| DL1XH1-15 | 2026-08-31 08:17:20 | 53.13649 | 8.15718 | 57° | 57km/h | 9254m | -11.6m/s | -47°C | 30% | 299hPa | 2.6V | 08:16:39 | 01:41:46 | 00:00:00 | |
| AA1-15 | 2026-08-31 08:17:19 | 53.13681 | 8.15799 | 57° | 57km/h | 9206m | -12.3m/s | -46.6°C | 31.7% | 301.2hPa | 2.6V | 08:17:16 | 01:41:50 | 00:00:00 | |
| BIOWL1-15 | 2026-08-31 08:17:18 | 53.13641 | 8.15698 | 57° | 57km/h | 9266m | -11.5m/s | -47.1°C | 34.1% | 298.4hPa | 2.7V | 08:17:16 | 01:41:45 | 00:00:00 | |
| DL1XH-west | 2026-08-31 08:17:17 | 53.13665 | 8.15759 | 58° | 58km/h | 9231m | -11.7m/s | -46.8°C | 33% | 300.1hPa | 2.7V | 08:17:16 | 01:41:48 | 00:00:00 | |
| DO2JMG | 2026-08-31 08:17:11 | 53.13619 | 8.15640 | 57° | 53km/h | 9300m | -11.7m/s | -47.3°C | 35.6% | 296.8hPa | 2.6V | 08:17:16 | 01:41:42 | 00:00:00 | |
| DB0DAN | 2026-08-31 08:17:10 | 53.13611 | 8.15622 | 56° | 49km/h | 9311m | -12m/s | -47.4°C | 28.4% | 296.28hPa | 2.6V | 00:00:00 | 00:00:00 | 00:00:00 | |
| DL1XH1-15 | 2026-08-31 08:17:10 | 53.13573 | 8.15535 | 50° | 53km/h | 9371m | -12.3m/s | -47.8°C | 33.7% | 293.6hPa | 2.6V | 08:16:49 | 01:41:36 | 00:00:00 | |
| DL4XJ-10 | 2026-08-31 08:17:10 | 53.13612 | 8.15622 | 56° | 51km/h | 9311m | -12.0m/s | -50.3°C | 0% | 0hPa | 2.7V | 00:00:00 | 00:00:00 | 00:00:00 | |
| BIOWL7-15 | 2026-08-31 08:17:09 | 53.13611 | 8.15622 | 57° | 51km/h | 9311m | -12.0m/s | -47.3°C | 28.4% | 296.3hPa | 2.7V | 00:00:00 | 00:00:00 | 00:00:00 | |
| DM0DOS-11 | 2026-08-31 08:17:08 | 53.13589 | 8.15569 | 52° | 51km/h | 9347m | -12.3m/s | -47.6°C | 33.1% | 294.7hPa | 2.7V | 08:16:47 | 01:41:38 | 00:00:00 | |
| DL1XH-15 | 2026-08-31 08:17:08 | 53.13556 | 8.15501 | 51° | 53km/h | 9396m | -12m/s | -48°C | 34.5% | 292.5hPa | 2.7V | 08:16:51 | 01:41:34 | 00:00:00 | |
| AA1-15 | 2026-08-31 08:17:08 | 53.13597 | 8.15587 | 54° | 51km/h | 9335m | -12.2m/s | -47.6°C | 36.4% | 295.2hPa | 2.7V | 08:17:16 | 01:41:39 | 00:00:00 | |
| DL1XH-west | 2026-08-31 08:17:06 | 53.13581 | 8.15552 | 51° | 53km/h | 9359m | -12.4m/s | -47.7°C | 36.9% | 294.2hPa | 2.6V | 08:17:16 | 01:41:37 | 00:00:00 | |
| GOEST3-10 | 2026-08-31 08:17:05 | 53.13573 | 8.15535 | 51° | 53km/h | 9371m | -12.2m/s | -47.8°C | 33.7% | 293.5hPa | 2.7V | 00:00:00 | 00:00:00 | 00:00:00 | |
| SONCRA | 2026-08-31 08:17:04 | 53.13564 | 8.15518 | 50° | 53km/h | 9384m | -12.3m/s | -47.9°C | 30.2% | 293.1hPa | 2.7V | 00:00:00 | 00:00:00 | 00:00:00 | |
| DN9WHV | 2026-08-31 08:17:03 | 53.13564 | 8.15518 | 52° | 53km/h | 9384m | -12.3m/s | -47.9°C | 30.2% | 293.1hPa | 2.7V | 08:17:00 | 00:00:00 | 00:00:00 | |
| DM0DOS-11 | 2026-08-31 08:17:02 | 53.13506 | 8.15403 | 45° | 49km/h | 9467m | -12.4m/s | -48.5°C | 36.1% | 289.3hPa | 2.7V | 08:16:57 | 01:41:28 | 00:00:00 | |
| DO2JMG | 2026-08-31 08:17:01 | 53.13539 | 8.15466 | 50° | 53km/h | 9420m | -11.9m/s | -48.3°C | 38.1% | 291.5hPa | 2.7V | 08:17:16 | 01:41:32 | 00:00:00 | |
| DL1XH1-15 | 2026-08-31 08:17:00 | 53.13487 | 8.15376 | 40° | 49km/h | 9491m | -12.6m/s | -48.6°C | 35.5% | 288.3hPa | 2.6V | 08:16:59 | 01:41:26 | 00:00:00 | |
| SMARD9-15 | 2026-08-31 08:16:59 | 53.13514 | 8.15418 | 47° | 47km/h | 9455m | -12.0m/s | -48.4°C | 32.1% | 289.9hPa | 2.7V | 00:00:00 | 00:00:00 | 00:00:00 | |
| DL1XH-15 | 2026-08-31 08:16:58 | 53.13468 | 8.15348 | 39° | 51km/h | 9516m | -12.2m/s | -48.8°C | 34.3% | 287.2hPa | 2.7V | 08:17:01 | 01:41:24 | 00:00:00 | |
| AA1-15 | 2026-08-31 08:16:57 | 53.13506 | 8.15403 | 45° | 49km/h | 9467m | -12.4m/s | -48.5°C | 38.8% | 289.3hPa | 2.7V | 08:17:16 | 01:41:28 | 00:00:00 | |
| DL1XH-west | 2026-08-31 08:16:56 | 53.13497 | 8.15389 | 42° | 49km/h | 9479m | -12.5m/s | -48.6°C | 38.4% | 288.8hPa | 2.7V | 08:17:16 | 01:41:27 | 00:00:00 | |
| BIOWL1-15 | 2026-08-31 08:16:55 | 53.13487 | 8.15376 | 41° | 49km/h | 9491m | -12.6m/s | -48.7°C | 38% | 288.3hPa | 2.6V | 08:17:16 | 01:41:26 | 00:00:00 | |
| GOEST3-10 | 2026-08-31 08:16:55 | 53.13487 | 8.15375 | 41° | 51km/h | 9491m | -12.5m/s | -48.6°C | 35.5% | 288.2hPa | 2.7V | 00:00:00 | 00:00:00 | 00:00:00 | |
| DN9WHV | 2026-08-31 08:16:54 | 53.13487 | 8.15375 | 42° | 49km/h | 9491m | -12.6m/s | -48.6°C | 31.4% | 288.3hPa | 2.7V | 08:17:00 | 00:00:00 | 00:00:00 | |
| DM0DOS-11 | 2026-08-31 08:16:52 | 53.13405 | 8.15265 | 38° | 55km/h | 9588m | -12.1m/s | -48.8°C | 28.6% | 284.1hPa | 2.7V | 08:17:07 | 01:41:18 | 00:00:00 | |
| DO2JMG | 2026-08-31 08:16:50 | 53.13437 | 8.15306 | 38° | 55km/h | 9552m | -11.9m/s | -48.9°C | 33.5% | 285.7hPa | 2.6V | 08:17:16 | 01:41:21 | 00:00:00 | |
| DD8BA-10 | 2026-08-31 08:16:50 | 53.13437 | 8.15306 | 39° | 58km/h | 9552m | -11.8m/s | -48.8°C | 31.5% | 285.6hPa | 2.6V | 08:17:00 | 00:00:00 | 00:00:00 | |
| DN9WHV | 2026-08-31 08:16:49 | 53.13437 | 8.15306 | 39° | 55km/h | 9552m | -11.9m/s | -48.9°C | 27.6% | 285.7hPa | 2.6V | 08:17:00 | 00:00:00 | 00:00:00 | |
| DL1XH-15 | 2026-08-31 08:16:48 | 53.13359 | 8.15207 | 38° | 60km/h | 9638m | -12.6m/s | -48.9°C | 28.5% | 281.9hPa | 2.6V | 08:17:11 | 01:41:14 | 00:00:00 | |
| DL1XH-west | 2026-08-31 08:16:46 | 53.13394 | 8.15251 | 37° | 55km/h | 9600m | -12.5m/s | -48.7°C | 30.6% | 283.5hPa | 2.7V | 08:17:16 | 01:41:17 | 00:00:00 | |
| BIOWL1-15 | 2026-08-31 08:16:45 | 53.13383 | 8.15237 | 36° | 57km/h | 9612m | -13m/s | -48.8°C | 30.5% | 282.9hPa | 2.6V | 08:17:16 | 01:41:16 | 00:00:00 | |
| DB0UT-7 | 2026-08-31 08:16:45 | 53.13382 | 8.15236 | 37° | 73km/h | 9612m | -13.0m/s | -48.8°C | 28.2% | 282.9hPa | 2.7V | 00:00:00 | 01:41:16 | 00:00:00 | |
| DN9WHV | 2026-08-31 08:16:44 | 53.13383 | 8.15236 | 37° | 57km/h | 9612m | -13.0m/s | -48.8°C | 24.5% | 283.0hPa | 2.7V | 08:17:00 | 00:00:00 | 00:00:00 | |
| DN9WHV | 2026-08-31 08:16:43 | 53.13359 | 8.15207 | 39° | 60km/h | 9638m | -12.6m/s | -48.9°C | 24.8% | 281.9hPa | 2.7V | 08:17:00 | 00:00:00 | 00:00:00 | |
| DJ2DS-15 | 2026-08-31 08:16:42 | 53.13347 | 8.15191 | 40° | 71km/h | 9651m | -12.3m/s | -49.0°C | 28.9% | 281.3hPa | 2.7V | 00:00:00 | 01:41:13 | 00:00:00 | |
| BIOWL7-15 | 2026-08-31 08:16:41 | 53.13347 | 8.15191 | 40° | 62km/h | 9651m | -12.4m/s | -49.0°C | 25.1% | 281.4hPa | 2.7V | 00:00:00 | 00:00:00 | 00:00:00 | |
| DB0DAN | 2026-08-31 08:16:40 | 53.13323 | 8.15157 | 41° | 62km/h | 9677m | -12.1m/s | -48.9°C | 25.3% | 280.31hPa | 2.7V | 00:00:00 | 00:00:00 | 00:00:00 | |
| DO2JMG | 2026-08-31 08:16:40 | 53.13323 | 8.15157 | 41° | 66km/h | 9677m | -12.1m/s | -48.9°C | 30.9% | 280.3hPa | 2.7V | 08:17:16 | 01:41:11 | 00:00:00 | |
| DD8BA-10 | 2026-08-31 08:16:40 | 53.13323 | 8.15157 | 42° | 68km/h | 9677m | -12.0m/s | -48.9°C | 29.1% | 280.3hPa | 2.6V | 00:00:00 | 00:00:00 | 00:00:00 | |
| DM0DOS-11 | 2026-08-31 08:16:39 | 53.13287 | 8.15102 | 43° | 64km/h | 9713m | -12.5m/s | -49.2°C | 29.3% | 278.8hPa | 2.6V | 08:17:17 | 01:41:08 | 00:00:00 | |
| DL1XH-15 | 2026-08-31 08:16:38 | 53.13238 | 8.15024 | 45° | 71km/h | 9765m | -12.4m/s | -49.5°C | 27.5% | 276.6hPa | 2.6V | 08:17:21 | 01:41:04 | 00:00:00 | |
| DL1XH-west | 2026-08-31 08:16:35 | 53.13263 | 8.15065 | 43° | 68km/h | 9739m | -12.8m/s | -49.3°C | 30.2% | 277.8hPa | 2.7V | 08:18:07 | 01:41:06 | 00:00:00 | |
| BIOWL1-15 | 2026-08-31 08:16:34 | 53.13250 | 8.15045 | 44° | 69km/h | 9752m | -12.5m/s | -49.4°C | 29.4% | 277.2hPa | 2.6V | 08:18:07 | 01:41:05 | 00:00:00 | |
| HTAHTA | 2026-08-31 08:16:34 | 53.13238 | 8.15024 | 45° | 69km/h | 9765m | -12.4m/s | -49.5°C | 23.7% | 276.6hPa | 2.7V | 00:00:00 | 00:00:00 | 00:00:00 | |
| SONCRA | 2026-08-31 08:16:33 | 53.13225 | 8.15003 | 46° | 71km/h | 9777m | -12.3m/s | -49.5°C | 22.9% | 276.1hPa | 2.7V | 00:00:00 | 00:00:00 | 00:00:00 | |
| DJ2DS-15 | 2026-08-31 08:16:31 | 53.13200 | 8.14958 | 48° | 73km/h | 9801m | -12.5m/s | -49.3°C | 21.3% | 275.1hPa | 2.7V | 00:00:00 | 00:00:00 | 00:00:00 | |
| DL1XH1-15 | 2026-08-31 08:16:30 | 53.13139 | 8.14840 | 49° | 75km/h | 9862m | -12.7m/s | -49°C | 23.7% | 272.5hPa | 2.7V | 08:17:29 | 01:40:56 | 00:00:00 | |
| DO9LL-15 | 2026-08-31 08:16:30 | 53.13200 | 8.14958 | 49° | 80km/h | 9801m | -12.5m/s | -49.3°C | 25.0% | 275.0hPa | 2.7V | 00:00:00 | 01:41:01 | 00:00:00 | |
| DM0DOS-11 | 2026-08-31 08:16:29 | 53.13163 | 8.14887 | 49° | 75km/h | 9838m | -12.2m/s | -49.2°C | 23.9% | 273.6hPa | 2.7V | 08:17:27 | 01:40:58 | 00:00:00 | |
| DO2JMG | 2026-08-31 08:16:29 | 53.13188 | 8.14935 | 49° | 75km/h | 9814m | -12.4m/s | -49.3°C | 25.3% | 274.6hPa | 2.6V | 08:18:07 | 01:41:00 | 00:00:00 | |
| DL1XH-15 | 2026-08-31 08:16:28 | 53.13113 | 8.14791 | 48° | 77km/h | 9888m | -13.2m/s | -49°C | 24% | 271.4hPa | 2.6V | 08:17:31 | 01:40:54 | 00:00:00 | |
| BIOWL1-15 | 2026-08-31 08:16:26 | 53.13073 | 8.14715 | 50° | 82km/h | 9926m | -12.6m/s | -48.9°C | 25.6% | 269.8hPa | 2.7V | 08:18:07 | 01:40:51 | 00:00:00 | |
| DB0DAN | 2026-08-31 08:16:25 | 53.13139 | 8.14840 | 49° | 71km/h | 9862m | -12.7m/s | -49°C | 20.2% | 272.47hPa | 2.7V | 00:00:00 | 00:00:00 | 00:00:00 | |
| AA1-15 | 2026-08-31 08:16:25 | 53.13139 | 8.14840 | 49° | 75km/h | 9863m | -12.7m/s | -49°C | 24.8% | 272.5hPa | 2.7V | 08:18:07 | 01:40:56 | 00:00:00 | |
| GOEST3-10 | 2026-08-31 08:16:25 | 53.13138 | 8.14840 | 50° | 78km/h | 9863m | -12.7m/s | -48.9°C | 23.7% | 272.4hPa | 2.7V | 00:00:00 | 00:00:00 | 00:00:00 | |
| DN9WHV | 2026-08-31 08:16:24 | 53.13138 | 8.14840 | 50° | 75km/h | 9863m | -12.7m/s | -49.0°C | 20.2% | 272.5hPa | 2.7V | 08:18:00 | 00:00:00 | 00:00:00 | |
| DK9SH | 2026-08-31 08:16:23 | 53.13126 | 8.14815 | 50° | 77km/h | 9875m | -13.0m/s | -48.9°C | 20.2% | 272.0hPa | 2.7V | 08:18:00 | 00:00:00 | 00:00:00 | |
| DJ2DS-15 | 2026-08-31 08:16:22 | 53.13100 | 8.14766 | 49° | 82km/h | 9901m | -13.0m/s | -49.0°C | 24.4% | 270.8hPa | 2.7V | 00:00:00 | 01:40:53 | 00:00:00 | |
| DN9WHV | 2026-08-31 08:16:21 | 53.13100 | 8.14766 | 49° | 80km/h | 9901m | -13.1m/s | -49.1°C | 20.9% | 270.9hPa | 2.7V | 08:18:00 | 00:00:00 | 00:00:00 | |
| DL1XH1-15 | 2026-08-31 08:16:20 | 53.13005 | 8.14576 | 52° | 84km/h | 9990m | -12.2m/s | -48.6°C | 22.6% | 267.3hPa | 2.7V | 08:17:39 | 01:40:46 | 00:00:00 | |
| DO2JMG | 2026-08-31 08:16:19 | 53.13059 | 8.14688 | 51° | 84km/h | 9939m | -12.5m/s | -48.7°C | 25.9% | 269.3hPa | 2.7V | 08:18:07 | 01:40:50 | 00:00:00 | |
| DL1XH-west | 2026-08-31 08:16:15 | 53.13005 | 8.14576 | 52° | 84km/h | 9990m | -12.2m/s | -48.6°C | 23.9% | 267.3hPa | 2.7V | 08:18:07 | 01:40:46 | 00:00:00 | |
| BIOWL1-15 | 2026-08-31 08:16:13 | 53.12979 | 8.14520 | 53° | 84km/h | 10015m | -12.2m/s | -48.5°C | 23.9% | 266.2hPa | 2.6V | 08:18:07 | 01:40:44 | 00:00:00 | |
| DN9WHV | 2026-08-31 08:16:12 | 53.12979 | 8.14520 | 54° | 84km/h | 10015m | -12.2m/s | -48.5°C | 18.8% | 266.2hPa | 2.7V | 08:18:00 | 00:00:00 | 00:00:00 | |
| DN9WHV | 2026-08-31 08:16:11 | 53.12966 | 8.14492 | 54° | 82km/h | 10027m | -12.4m/s | -48.5°C | 19.1% | 265.7hPa | 2.7V | 08:18:00 | 00:00:00 | 00:00:00 | |
| DB0DAN | 2026-08-31 08:16:10 | 53.12941 | 8.14436 | 54° | 78km/h | 10051m | -12.4m/s | -48.6°C | 19.6% | 264.71hPa | 2.7V | 00:00:00 | 00:00:00 | 00:00:00 | |
| DL1XH1-15 | 2026-08-31 08:16:10 | 53.12880 | 8.14299 | 52° | 80km/h | 10113m | -13.1m/s | -48.4°C | 20.8% | 262.2hPa | 2.7V | 08:17:49 | 01:40:36 | 00:00:00 | |
| DD8BA-10 | 2026-08-31 08:16:10 | 53.12941 | 8.14436 | 54° | 80km/h | 10051m | -12.3m/s | -48.5°C | 23.0% | 264.7hPa | 2.6V | 00:00:00 | 00:00:00 | 00:00:00 | |
| DO2LYB-13 | 2026-08-31 08:16:09 | 53.12941 | 8.14436 | 55° | 82km/h | 10051m | -12.4m/s | -48.6°C | 19.6% | 264.7hPa | 2.6V | 00:00:00 | 00:00:00 | 00:00:00 | |
| DL1XH-15 | 2026-08-31 08:16:08 | 53.12856 | 8.14245 | 52° | 78km/h | 10139m | -13.4m/s | -48.3°C | 18.9% | 261.2hPa | 2.6V | 08:17:51 | 01:40:34 | 00:00:00 | |
| DO2JMG | 2026-08-31 08:16:08 | 53.12917 | 8.14381 | 53° | 80km/h | 10075m | -12.7m/s | -48.2°C | 24.5% | 263.7hPa | 2.6V | 08:18:07 | 01:40:39 | 00:00:00 | |
| DL1XH-west | 2026-08-31 08:16:04 | 53.12868 | 8.14272 | 53° | 80km/h | 10126m | -13.3m/s | -48.4°C | 21.6% | 261.7hPa | 2.7V | 08:18:07 | 01:40:35 | 00:00:00 | |
| BIOWL1-15 | 2026-08-31 08:16:03 | 53.12856 | 8.14245 | 52° | 78km/h | 10139m | -13.4m/s | -48.3°C | 20.3% | 261.2hPa | 2.6V | 08:18:07 | 01:40:34 | 00:00:00 | |
| AA1-15 | 2026-08-31 08:16:03 | 53.12843 | 8.14219 | 53° | 78km/h | 10152m | -13.5m/s | -48.1°C | 19% | 260.7hPa | 2.6V | 08:18:07 | 01:40:33 | 00:00:00 | |
| DF8AY | 2026-08-31 08:16:01 | 53.12831 | 8.14193 | 52° | 78km/h | 10165m | -13.2m/s | -48.1°C | 18.1% | 260.1hPa | 2.6V | 08:18:58 | 01:40:32 | 00:00:00 | |
| DL1XH1-15 | 2026-08-31 08:16:00 | 53.12758 | 8.14038 | 51° | 78km/h | 10243m | -13.3m/s | -48.3°C | 15.6% | 257.2hPa | 2.6V | 08:17:59 | 01:40:26 | 00:00:00 | |
| DL3AQ-11 | 2026-08-31 08:16:00 | 53.12807 | 8.14141 | 51° | 78km/h | 10191m | -13.2m/s | -48.1°C | 12.9% | 259.1hPa | 2.7V | 00:00:00 | 00:00:00 | 00:00:00 | |
| DO9LL-15 | 2026-08-31 08:15:59 | 53.12807 | 8.14140 | 52° | 86km/h | 10191m | -13.1m/s | -48.1°C | 15.8% | 259.1hPa | 2.7V | 00:00:00 | 01:40:30 | 00:00:00 | |
| DL1XH-15 | 2026-08-31 08:15:58 | 53.12735 | 8.13986 | 51° | 78km/h | 10269m | -12.8m/s | -48.5°C | 15.4% | 256.2hPa | 2.7V | 08:18:01 | 01:40:24 | 00:00:00 | |
| DO2JMG | 2026-08-31 08:15:57 | 53.12783 | 8.14089 | 51° | 78km/h | 10217m | -13.3m/s | -48.2°C | 16.9% | 258.2hPa | 2.6V | 08:18:07 | 01:40:28 | 00:00:00 | |
| DF4FW | 2026-08-31 08:15:56 | 53.12783 | 8.14089 | 52° | 78km/h | 10217m | -13.3m/s | -48.2°C | 12.8% | 258.2hPa | 2.6V | 08:18:00 | 00:00:00 | 00:00:00 | |
| DB0DAN | 2026-08-31 08:15:55 | 53.12758 | 8.14038 | 52° | 75km/h | 10243m | -13.3m/s | -48.3°C | 12.7% | 257.17hPa | 2.6V | 00:00:00 | 00:00:00 | 00:00:00 | |
| BIOWL1-15 | 2026-08-31 08:15:54 | 53.12722 | 8.13961 | 52° | 78km/h | 10282m | -12.8m/s | -48.5°C | 16.1% | 255.6hPa | 2.6V | 08:18:07 | 01:40:23 | 00:00:00 | |
| DL1XH-west | 2026-08-31 08:15:53 | 53.12735 | 8.13986 | 52° | 78km/h | 10269m | -12.8m/s | -48.5°C | 16.3% | 256.2hPa | 2.7V | 08:18:07 | 01:40:24 | 00:00:00 | |
| DF8AY | 2026-08-31 08:15:51 | 53.12710 | 8.13935 | 52° | 80km/h | 10294m | -12.9m/s | -48.6°C | 15.9% | 255.1hPa | 2.6V | 08:18:58 | 01:40:22 | 00:00:00 | |
| DL1XH1-15 | 2026-08-31 08:15:50 | 53.12634 | 8.13773 | 52° | 84km/h | 10371m | -12.5m/s | -48.3°C | 14% | 252.2hPa | 2.7V | 08:18:09 | 01:40:16 | 00:00:00 | |
| DL4XJ-10 | 2026-08-31 08:15:50 | 53.12698 | 8.13908 | 52° | 89km/h | 10307m | -13.0m/s | -51.5°C | 0% | 0hPa | 2.7V | 00:00:00 | 00:00:00 | 00:00:00 | |
| DN9WHV | 2026-08-31 08:15:49 | 53.12697 | 8.13908 | 53° | 80km/h | 10307m | -13.1m/s | -48.6°C | 12.1% | 254.7hPa | 2.7V | 08:18:00 | 00:00:00 | 00:00:00 | |
| DL1XH-15 | 2026-08-31 08:15:48 | 53.12608 | 8.13716 | 52° | 86km/h | 10395m | -12.7m/s | -48.3°C | 13.7% | 251.2hPa | 2.7V | 08:18:11 | 01:40:14 | 00:00:00 | |
| DO2JMG | 2026-08-31 08:15:46 | 53.12647 | 8.13801 | 52° | 84km/h | 10358m | -12.6m/s | -48.5°C | 14.7% | 252.6hPa | 2.6V | 08:18:58 | 01:40:17 | 00:00:00 | |
| DL1XH-west | 2026-08-31 08:15:42 | 53.12594 | 8.13687 | 52° | 88km/h | 10407m | -12.9m/s | -48.5°C | 13.7% | 250.7hPa | 2.6V | 08:18:58 | 01:40:13 | 00:00:00 | |
| AA1-15 | 2026-08-31 08:15:41 | 53.12581 | 8.13658 | 52° | 88km/h | 10419m | -13.1m/s | -48.6°C | 13.6% | 250.2hPa | 2.6V | 08:18:58 | 01:40:12 | 00:00:00 | |
| DL4BBY-15 | 2026-08-31 08:15:41 | 53.12580 | 8.13658 | 53° | 93km/h | 10419m | -13.0m/s | -51.5°C | 0% | 0hPa | 2.7V | 00:00:00 | 00:00:00 | 00:00:00 | |
| GOEST3-10 | 2026-08-31 08:15:40 | 53.12567 | 8.13629 | 53° | 91km/h | 10433m | -13.0m/s | -48.6°C | 13.4% | 249.7hPa | 2.7V | 00:00:00 | 01:40:11 | 00:00:00 | |
| DD8BA-10 | 2026-08-31 08:15:39 | 53.12553 | 8.13600 | 52° | 97km/h | 10445m | -13.3m/s | -48.6°C | 13.2% | 249.2hPa | 2.7V | 00:00:00 | 00:00:00 | 00:00:00 | |
| DL1XH-15 | 2026-08-31 08:15:38 | 53.12464 | 8.13416 | 52° | 100km/h | 10524m | -13m/s | -48.7°C | 11.4% | 246.3hPa | 2.7V | 08:18:21 | 01:40:04 | 00:00:00 | |
| DO2JMG | 2026-08-31 08:15:36 | 53.12510 | 8.13511 | 50° | 95km/h | 10483m | -13.2m/s | -48.6°C | 11.9% | 247.8hPa | 2.6V | 08:18:58 | 01:40:07 | 00:00:00 | |
| GOEST3-10 | 2026-08-31 08:15:35 | 53.12495 | 8.13480 | 51° | 100km/h | 10498m | -13.0m/s | -48.5°C | 12.0% | 247.2hPa | 2.6V | 00:00:00 | 00:00:00 | 00:00:00 | |
| DN9WHV | 2026-08-31 08:15:33 | 53.12479 | 8.13449 | 52° | 99km/h | 10511m | -13.0m/s | -48.6°C | 9.0% | 246.7hPa | 2.6V | 08:18:00 | 00:00:00 | 00:00:00 | |
| DM0DOS-11 | 2026-08-31 08:15:32 | 53.12376 | 8.13208 | 56° | 100km/h | 10599m | -13.5m/s | -48.1°C | 8.7% | 243.4hPa | 2.6V | 08:18:27 | 01:39:58 | 00:00:00 | |
| DL1XH-west | 2026-08-31 08:15:31 | 53.12433 | 8.13348 | 54° | 102km/h | 10549m | -12.9m/s | -48.4°C | 9.6% | 245.3hPa | 2.6V | 08:18:58 | 01:40:02 | 00:00:00 | |
| AA1-15 | 2026-08-31 08:15:30 | 53.12418 | 8.13313 | 56° | 100km/h | 10561m | -12.7m/s | -48.2°C | 9% | 244.8hPa | 2.6V | 08:18:58 | 01:40:01 | 00:00:00 | |
| DL4XJ-10 | 2026-08-31 08:15:30 | 53.12418 | 8.13313 | 56° | 91km/h | 10562m | -12.7m/s | -51.1°C | 0% | 0hPa | 2.7V | 00:00:00 | 00:00:00 | 00:00:00 | |
| DO9LL-15 | 2026-08-31 08:15:29 | 53.12404 | 8.13278 | 57° | 80km/h | 10574m | -12.9m/s | -48.0°C | 9.4% | 244.3hPa | 2.7V | 00:00:00 | 01:40:00 | 00:00:00 | |
| DL1XH-15 | 2026-08-31 08:15:28 | 53.12319 | 8.13070 | 56° | 97km/h | 10653m | -13.7m/s | -47.9°C | 7% | 241.4hPa | 2.7V | 08:18:31 | 01:39:54 | 00:00:00 | |
| DN9WHV | 2026-08-31 08:15:27 | 53.12390 | 8.13243 | 58° | 100km/h | 10587m | -13.1m/s | -48.0°C | 6.7% | 243.9hPa | 2.6V | 08:18:00 | 00:00:00 | 00:00:00 | |
| DN9WHV | 2026-08-31 08:15:26 | 53.12375 | 8.13208 | 57° | 100km/h | 10599m | -13.5m/s | -48.1°C | 6.3% | 243.4hPa | 2.6V | 08:18:00 | 00:00:00 | 00:00:00 | |
| DB0DAN | 2026-08-31 08:15:25 | 53.12347 | 8.13138 | 56° | 95km/h | 10626m | -13.6m/s | -48°C | 5.6% | 242.41hPa | 2.6V | 00:00:00 | 00:00:00 | 00:00:00 | |
| DO2JMG | 2026-08-31 08:15:25 | 53.12347 | 8.13138 | 56° | 99km/h | 10626m | -13.6m/s | -48°C | 6.7% | 242.4hPa | 2.6V | 08:18:58 | 01:39:56 | 00:00:00 | |
| DF8AY | 2026-08-31 08:15:24 | 53.12333 | 8.13104 | 56° | 99km/h | 10639m | -13.8m/s | -48°C | 6.2% | 241.9hPa | 2.7V | 08:18:58 | 01:39:55 | 00:00:00 | |
| DB0NH | 2026-08-31 08:15:24 | 53.12333 | 8.13104 | 57° | 66km/h | 10639m | -13.8m/s | -47.9°C | 7.5% | 241.9hPa | 2.7V | 00:00:00 | 01:39:55 | 00:00:00 | |
| DC6BW-12 | 2026-08-31 08:15:23 | 53.12333 | 8.13104 | 57° | 99km/h | 10639m | -13.8m/s | -48.0°C | 5.3% | 242.0hPa | 2.7V | 08:18:00 | 00:00:00 | 00:00:00 | |
| DM0DOS-11 | 2026-08-31 08:15:22 | 53.12239 | 8.12874 | 56° | 86km/h | 10731m | -12.9m/s | -46.9°C | 4.8% | 238.6hPa | 2.7V | 08:18:37 | 01:39:48 | 00:00:00 | |
| DL1XH-west | 2026-08-31 08:15:21 | 53.12292 | 8.13002 | 57° | 97km/h | 10680m | -13.3m/s | -47.5°C | 4.4% | 240.5hPa | 2.6V | 08:18:58 | 01:39:52 | 00:00:00 | |
| BIOWL1-15 | 2026-08-31 08:15:20 | 53.12278 | 8.12969 | 56° | 95km/h | 10693m | -13.1m/s | -47.4°C | 3.9% | 240.1hPa | 2.6V | 08:18:58 | 01:39:51 | 00:00:00 | |
| AA1-15 | 2026-08-31 08:15:19 | 53.12265 | 8.12936 | 56° | 93km/h | 10705m | -12.8m/s | -47.4°C | 3.5% | 239.6hPa | 2.6V | 08:18:58 | 01:39:50 | 00:00:00 | |
| DO2JMG | 2026-08-31 08:15:14 | 53.12204 | 8.12786 | 56° | 80km/h | 10769m | -13.4m/s | -46.5°C | 2.1% | 237.2hPa | 2.6V | 08:18:58 | 01:39:45 | 00:00:00 | |
| DF4FW | 2026-08-31 08:15:13 | 53.12204 | 8.12786 | 57° | 80km/h | 10770m | -13.4m/s | -46.5°C | 2.5% | 237.2hPa | 2.7V | 08:18:00 | 00:00:00 | 00:00:00 | |
| DM0DOS-11 | 2026-08-31 08:15:12 | 53.12123 | 8.12609 | 50° | 73km/h | 10865m | -13.3m/s | -46.4°C | 4.1% | 233.9hPa | 2.7V | 08:18:47 | 01:39:38 | 00:00:00 | |
| DL4BBY-15 | 2026-08-31 08:15:11 | 53.12170 | 8.12706 | 53° | 75km/h | 10810m | -13.8m/s | -49.7°C | 0% | 0hPa | 2.6V | 00:00:00 | 00:00:00 | 00:00:00 | |
| DL1XH1-15 | 2026-08-31 08:15:10 | 53.12100 | 8.12561 | 51° | 73km/h | 10892m | -13.4m/s | -46.4°C | 4.1% | 233hPa | 2.6V | 08:18:49 | 01:39:36 | 00:00:00 | |
| DL1XH-west | 2026-08-31 08:15:10 | 53.12159 | 8.12681 | 52° | 75km/h | 10824m | -13.7m/s | -46.8°C | 1.9% | 235.4hPa | 2.6V | 08:18:58 | 01:39:41 | 00:00:00 | |
| DB0DAN | 2026-08-31 08:15:10 | 53.12159 | 8.12681 | 52° | 71km/h | 10824m | -13.7m/s | -46.8°C | 2.4% | 235.38hPa | 2.6V | 00:00:00 | 00:00:00 | 00:00:00 | |
| BIOWL1-15 | 2026-08-31 08:15:09 | 53.12147 | 8.12657 | 51° | 73km/h | 10837m | -13.6m/s | -46.6°C | 1.8% | 234.9hPa | 2.6V | 08:18:58 | 01:39:40 | 00:00:00 | |
| AA1-15 | 2026-08-31 08:15:08 | 53.12135 | 8.12633 | 51° | 73km/h | 10851m | -13.6m/s | -46.5°C | 1.8% | 234.5hPa | 2.7V | 08:18:58 | 01:39:39 | 00:00:00 | |
| DO2JMG | 2026-08-31 08:15:03 | 53.12076 | 8.12513 | 52° | 75km/h | 10919m | -12.9m/s | -46.6°C | 1.7% | 232.1hPa | 2.7V | 08:18:58 | 01:39:34 | 00:00:00 | |
| DF8AY | 2026-08-31 08:15:02 | 53.12065 | 8.12488 | 53° | 73km/h | 10932m | -12.9m/s | -46.6°C | 1.6% | 231.7hPa | 2.7V | 08:18:58 | 01:39:33 | 00:00:00 | |
| BIOWL1-15 | 2026-08-31 08:15:00 | 53.12020 | 8.12387 | 56° | 75km/h | 10984m | -13.2m/s | -46.6°C | 1.4% | 229.8hPa | 2.6V | 08:18:58 | 01:39:29 | 00:00:00 | |
| DL1XH1-15 | 2026-08-31 08:15:00 | 53.11989 | 8.12308 | 56° | 75km/h | 11024m | -13.5m/s | -46.1°C | 3.7% | 228.4hPa | 2.7V | 08:18:59 | 01:39:26 | 00:00:00 | |
| DL1XH-west | 2026-08-31 08:14:59 | 53.12031 | 8.12414 | 55° | 75km/h | 10971m | -13.1m/s | -46.6°C | 1.5% | 230.2hPa | 2.6V | 08:18:58 | 01:39:30 | 00:00:00 | |
| DF8AY | 2026-08-31 08:14:57 | 53.11956 | 8.12231 | 55° | 75km/h | 11063m | -13.8m/s | -45.9°C | 1.2% | 227hPa | 2.6V | 08:19:49 | 01:39:23 | 00:00:00 | |
| AA1-15 | 2026-08-31 08:14:57 | 53.12010 | 8.12361 | 57° | 75km/h | 10997m | -13.3m/s | -46.6°C | 1.4% | 229.3hPa | 2.7V | 08:18:58 | 01:39:28 | 00:00:00 | |
| DO2JMG | 2026-08-31 08:14:53 | 53.11967 | 8.12257 | 55° | 75km/h | 11050m | -13.5m/s | -46.1°C | 1.2% | 227.5hPa | 2.6V | 08:19:49 | 01:39:24 | 00:00:00 | |
| DM0DOS-11 | 2026-08-31 08:14:52 | 53.11898 | 8.12109 | 48° | 75km/h | 11129m | -13.6m/s | -45.9°C | 3.6% | 224.7hPa | 2.7V | 08:19:07 | 01:39:18 | 00:00:00 | |
| DL1XH-west | 2026-08-31 08:14:48 | 53.11910 | 8.12132 | 50° | 75km/h | 11116m | -13.7m/s | -45.9°C | 1.1% | 225.1hPa | 2.6V | 08:19:49 | 01:39:19 | 00:00:00 | |
| BIOWL1-15 | 2026-08-31 08:14:47 | 53.11898 | 8.12109 | 49° | 75km/h | 11129m | -13.6m/s | -45.9°C | 1% | 224.7hPa | 2.7V | 08:19:49 | 01:39:18 | 00:00:00 | |
| AA1-15 | 2026-08-31 08:14:46 | 53.11886 | 8.12085 | 48° | 75km/h | 11143m | -13.7m/s | -46°C | 0.9% | 224.2hPa | 2.7V | 08:19:49 | 01:39:17 | 00:00:00 | |
| BUE01 | 2026-08-31 08:14:44 | 53.11860 | 8.12039 | 45° | 75km/h | 11170m | -14.4m/s | -46.0°C | 1.7% | 223.3hPa | 2.6V | 00:00:00 | 00:00:00 | 00:00:00 | |
| DO2JMG | 2026-08-31 08:14:43 | 53.11846 | 8.12016 | 45° | 78km/h | 11184m | -14.4m/s | -46.1°C | 0.7% | 222.8hPa | 2.6V | 08:19:49 | 01:39:14 | 00:00:00 | |
| DF8AY | 2026-08-31 08:14:41 | 53.11818 | 8.11970 | 45° | 78km/h | 11212m | -14.6m/s | -46.3°C | 0.7% | 221.9hPa | 2.7V | 08:19:49 | 01:39:12 | 00:00:00 | |
| DL4BBY-15 | 2026-08-31 08:14:41 | 53.11818 | 8.11970 | 45° | 82km/h | 11211m | -14.5m/s | -49.3°C | 0% | 0hPa | 2.7V | 00:00:00 | 00:00:00 | 00:00:00 | |
| DL1XH1-15 | 2026-08-31 08:14:40 | 53.11731 | 8.11828 | 46° | 84km/h | 11298m | -14.7m/s | -45.6°C | 3.1% | 219.2hPa | 2.7V | 08:19:19 | 01:39:06 | 00:00:00 | |
| DB0DAN | 2026-08-31 08:14:40 | 53.11804 | 8.11947 | 44° | 75km/h | 11226m | -14.5m/s | -46.3°C | 1.6% | 221.48hPa | 2.7V | 00:00:00 | 00:00:00 | 00:00:00 | |
| DM0DOS-11 | 2026-08-31 08:14:40 | 53.11760 | 8.11877 | 44° | 82km/h | 11269m | -14.4m/s | -46.1°C | 3.2% | 220.1hPa | 2.6V | 08:19:17 | 01:39:08 | 00:00:00 | |
| DL1XH-west | 2026-08-31 08:14:37 | 53.11760 | 8.11877 | 44° | 82km/h | 11269m | -14.4m/s | -46.2°C | 0.4% | 220.1hPa | 2.6V | 08:19:49 | 01:39:08 | 00:00:00 | |
| AA1-15 | 2026-08-31 08:14:35 | 53.11731 | 8.11828 | 46° | 84km/h | 11298m | -14.7m/s | -45.6°C | 0.3% | 219.2hPa | 2.7V | 08:19:49 | 01:39:06 | 00:00:00 | |
| DO2JMG | 2026-08-31 08:14:32 | 53.11688 | 8.11750 | 49° | 86km/h | 11341m | -14.5m/s | -45.1°C | 0.1% | 217.8hPa | 2.6V | 08:19:49 | 01:39:03 | 00:00:00 | |
| DN9WHV | 2026-08-31 08:14:31 | 53.11687 | 8.11750 | 50° | 86km/h | 11341m | -14.5m/s | -45.1°C | 1.3% | 217.8hPa | 2.7V | 08:19:00 | 00:00:00 | 00:00:00 | |
| DL1XH1-15 | 2026-08-31 08:14:30 | 53.11590 | 8.11553 | 52° | 88km/h | 11442m | -14.6m/s | -44.9°C | 2.8% | 214.6hPa | 2.7V | 08:19:29 | 01:38:56 | 00:00:00 | |
| DF8AY | 2026-08-31 08:14:29 | 53.11645 | 8.11668 | 50° | 88km/h | 11385m | -13.9m/s | -45.1°C | 0.1% | 216.4hPa | 2.7V | 08:19:49 | 01:39:00 | 00:00:00 | |
| DN9WHV | 2026-08-31 08:14:29 | 53.11645 | 8.11668 | 51° | 89km/h | 11385m | -13.9m/s | -45.1°C | 1.3% | 216.4hPa | 2.6V | 08:19:00 | 00:00:00 | 00:00:00 | |
| DL1XH-15 | 2026-08-31 08:14:28 | 53.11563 | 8.11496 | 52° | 88km/h | 11471m | -14.4m/s | -45°C | 2.8% | 213.7hPa | 2.6V | 08:19:31 | 01:38:54 | 00:00:00 | |
| BIOWL1-15 | 2026-08-31 08:14:27 | 53.11617 | 8.11611 | 52° | 88km/h | 11413m | -14.3m/s | -44.8°C | 0% | 215.5hPa | 2.6V | 08:19:49 | 01:38:58 | 00:00:00 | |
| DL1XH-west | 2026-08-31 08:14:26 | 53.11603 | 8.11582 | 52° | 88km/h | 11428m | -13.9m/s | -44.9°C | 0% | 215hPa | 2.7V | 08:19:49 | 01:38:57 | 00:00:00 | |
| DB0DAN | 2026-08-31 08:14:25 | 53.11590 | 8.11553 | 52° | 84km/h | 11442m | -14.6m/s | -44.9°C | 1.2% | 214.56hPa | 2.7V | 00:00:00 | 00:00:00 | 00:00:00 | |
| AA1-15 | 2026-08-31 08:14:24 | 53.11576 | 8.11525 | 52° | 88km/h | 11457m | -14.5m/s | -44.9°C | 0% | 214.1hPa | 2.6V | 08:19:49 | 01:38:55 | 00:00:00 | |
| DO2JMG | 2026-08-31 08:14:22 | 53.11549 | 8.11467 | 53° | 88km/h | 11486m | -14.7m/s | -45°C | 0% | 213.2hPa | 2.6V | 08:19:49 | 01:38:53 | 00:00:00 | |
| DJ2DS-15 | 2026-08-31 08:14:22 | 53.11549 | 8.11467 | 53° | 77km/h | 11486m | -14.7m/s | -45.0°C | 2.8% | 213.1hPa | 2.7V | 00:00:00 | 01:38:53 | 00:00:00 | |
| DL8OAI-8 | 2026-08-31 08:14:21 | 53.11549 | 8.11467 | 54° | 88km/h | 11486m | -14.7m/s | -45.0°C | 1.2% | 213.2hPa | 2.7V | 08:19:00 | 00:00:00 | 00:00:00 | |
| DL1XH1-15 | 2026-08-31 08:14:20 | 53.11463 | 8.11276 | 55° | 75km/h | 11589m | -14.2m/s | -45.2°C | 2.7% | 209.9hPa | 2.7V | 08:19:39 | 01:38:46 | 00:00:00 | |
| DF8AY | 2026-08-31 08:14:18 | 53.11498 | 8.11355 | 54° | 80km/h | 11545m | -14.4m/s | -44.8°C | 0% | 211.3hPa | 2.6V | 08:19:49 | 01:38:49 | 00:00:00 | |
| BIOWL1-15 | 2026-08-31 08:14:17 | 53.11486 | 8.11328 | 54° | 78km/h | 11560m | -14m/s | -44.9°C | 0% | 210.8hPa | 2.6V | 08:19:49 | 01:38:48 | 00:00:00 | |
| DL1XH-west | 2026-08-31 08:14:16 | 53.11475 | 8.11302 | 55° | 77km/h | 11574m | -14.3m/s | -45.1°C | 0% | 210.4hPa | 2.6V | 08:19:49 | 01:38:47 | 00:00:00 | |
| AA1-15 | 2026-08-31 08:14:13 | 53.11442 | 8.11225 | 56° | 73km/h | 11617m | -14.5m/s | -45.3°C | 0% | 209hPa | 2.7V | 08:19:49 | 01:38:44 | 00:00:00 | |
| DO2JMG | 2026-08-31 08:14:11 | 53.11420 | 8.11175 | 56° | 73km/h | 11646m | -14.4m/s | -45.4°C | 0% | 208.1hPa | 2.6V | 08:19:49 | 01:38:42 | 00:00:00 | |
| DB0DAN | 2026-08-31 08:14:10 | 53.11410 | 8.11150 | 56° | 69km/h | 11662m | -14.5m/s | -45.4°C | 1.2% | 207.65hPa | 2.6V | 00:00:00 | 00:00:00 | 00:00:00 | |
| DL1XH1-15 | 2026-08-31 08:14:10 | 53.11356 | 8.11024 | 55° | 75km/h | 11734m | -15.1m/s | -45.3°C | 2.7% | 205.3hPa | 2.7V | 08:19:49 | 01:38:36 | 00:00:00 | |
| DF8AY | 2026-08-31 08:14:08 | 53.11389 | 8.11100 | 55° | 73km/h | 11690m | -14.7m/s | -45.5°C | 0% | 206.7hPa | 2.7V | 08:19:49 | 01:38:39 | 00:00:00 | |
| BIOWL1-15 | 2026-08-31 08:14:07 | 53.11367 | 8.11050 | 55° | 75km/h | 11719m | -14.8m/s | -45.4°C | 0% | 205.8hPa | 2.6V | 08:19:49 | 01:38:37 | 00:00:00 | |
| DL1XH-west | 2026-08-31 08:14:05 | 53.11356 | 8.11024 | 55° | 75km/h | 11734m | -15.1m/s | -45.3°C | 0% | 205.3hPa | 2.7V | 08:19:49 | 01:38:36 | 00:00:00 | |
| AA1-15 | 2026-08-31 08:14:02 | 53.11323 | 8.10945 | 53° | 78km/h | 11779m | -15m/s | -45.5°C | 0% | 203.9hPa | 2.6V | 08:20:40 | 01:38:33 | 00:00:00 | |
| DO2JMG | 2026-08-31 08:14:01 | 53.11311 | 8.10919 | 53° | 80km/h | 11793m | -14.7m/s | -45.5°C | 0% | 203.4hPa | 2.6V | 08:20:40 | 01:38:32 | 00:00:00 | |
| DM0DOS-11 | 2026-08-31 08:14:00 | 53.11264 | 8.10811 | 53° | 75km/h | 11852m | -13.7m/s | -45.7°C | 2.8% | 201.6hPa | 2.6V | 08:19:57 | 01:38:28 | 00:00:00 | |
| DL3AQ-11 | 2026-08-31 08:14:00 | 53.11287 | 8.10865 | 54° | 78km/h | 11823m | -15.0m/s | -45.5°C | 1.1% | 202.6hPa | 2.7V | 00:00:00 | 00:00:00 | 00:00:00 | |
| DD8BA-10 | 2026-08-31 08:13:59 | 53.11287 | 8.10865 | 55° | 75km/h | 11823m | -14.9m/s | -45.4°C | 2.7% | 202.5hPa | 2.7V | 00:00:00 | 00:00:00 | 00:00:00 | |
| DL1XH-15 | 2026-08-31 08:13:58 | 53.11218 | 8.10709 | 53° | 73km/h | 11904m | -12.9m/s | -45.8°C | 2.8% | 200hPa | 2.7V | 08:20:01 | 01:38:24 | 00:00:00 | |
| BIOWL1-15 | 2026-08-31 08:13:58 | 53.11253 | 8.10785 | 53° | 77km/h | 11866m | -13.1m/s | -45.8°C | 0% | 201.2hPa | 2.6V | 08:20:40 | 01:38:27 | 00:00:00 | |
| DF8AY | 2026-08-31 08:13:57 | 53.11264 | 8.10811 | 54° | 75km/h | 11852m | -13.7m/s | -45.7°C | 0% | 201.6hPa | 2.6V | 08:20:40 | 01:38:28 | 00:00:00 | |
| DD1CC2-15 | 2026-08-31 08:13:56 | 53.11264 | 8.10811 | 55° | 75km/h | 11852m | -13.7m/s | -45.7°C | 1.2% | 201.6hPa | 2.6V | 00:00:00 | 00:00:00 | 00:00:00 | |
| DB0DAN | 2026-08-31 08:13:55 | 53.11241 | 8.10760 | 54° | 73km/h | 11879m | -12.9m/s | -45.8°C | 1.2% | 200.84hPa | 2.6V | 00:00:00 | 00:00:00 | 00:00:00 | |
| DL1XH-west | 2026-08-31 08:13:55 | 53.11241 | 8.10760 | 54° | 77km/h | 11879m | -12.9m/s | -45.8°C | 0% | 200.8hPa | 2.6V | 08:20:40 | 01:38:26 | 00:00:00 | |
| AA1-15 | 2026-08-31 08:13:51 | 53.11197 | 8.10661 | 53° | 71km/h | 11930m | -13.3m/s | -46°C | 0% | 199.2hPa | 2.6V | 08:20:40 | 01:38:22 | 00:00:00 | |
| DM0DOS-11 | 2026-08-31 08:13:50 | 53.11153 | 8.10566 | 52° | 73km/h | 11983m | -13.2m/s | -46.3°C | 2.9% | 197.7hPa | 2.7V | 08:20:07 | 01:38:18 | 00:00:00 | |
| DO2JMG | 2026-08-31 08:13:50 | 53.11186 | 8.10637 | 52° | 71km/h | 11942m | -13.6m/s | -46°C | 0% | 198.8hPa | 2.6V | 08:20:40 | 01:38:21 | 00:00:00 | |
| GOEST3-10 | 2026-08-31 08:13:50 | 53.11186 | 8.10637 | 53° | 73km/h | 11942m | -13.6m/s | -46.0°C | 2.8% | 198.8hPa | 2.6V | 00:00:00 | 01:38:21 | 00:00:00 | |
| DD8BA-10 | 2026-08-31 08:13:49 | 53.11175 | 8.10614 | 52° | 73km/h | 11956m | -13.6m/s | -46.1°C | 2.8% | 198.4hPa | 2.6V | 08:20:00 | 00:00:00 | 00:00:00 | |
| DL1XH-15 | 2026-08-31 08:13:48 | 53.11107 | 8.10467 | 53° | 73km/h | 12034m | -13.2m/s | -46.1°C | 2.8% | 196.1hPa | 2.7V | 08:20:11 | 01:38:14 | 00:00:00 | |
| DF8AY | 2026-08-31 08:13:47 | 53.11153 | 8.10566 | 52° | 73km/h | 11983m | -13.2m/s | -46.3°C | 0% | 197.7hPa | 2.7V | 08:20:40 | 01:38:18 | 00:00:00 | |
| BIOWL1-15 | 2026-08-31 08:13:47 | 53.11129 | 8.10517 | 53° | 75km/h | 12008m | -13.1m/s | -46.2°C | 0% | 196.9hPa | 2.6V | 08:20:40 | 01:38:16 | 00:00:00 | |
| DL1XH-west | 2026-08-31 08:13:44 | 53.11118 | 8.10492 | 53° | 75km/h | 12021m | -13m/s | -46.1°C | 0% | 196.5hPa | 2.7V | 08:20:40 | 01:38:15 | 00:00:00 | |
| AA1-15 | 2026-08-31 08:13:40 | 53.11073 | 8.10392 | 52° | 73km/h | 12074m | -14m/s | -46°C | 0% | 194.9hPa | 2.6V | 08:20:40 | 01:38:11 | 00:00:00 | |
| DM0DOS-11 | 2026-08-31 08:13:40 | 53.11037 | 8.10316 | 53° | 78km/h | 12115m | -13.3m/s | -46°C | 2.8% | 193.8hPa | 2.7V | 08:20:17 | 01:38:08 | 00:00:00 | |
| DB0DAN | 2026-08-31 08:13:40 | 53.11073 | 8.10392 | 52° | 71km/h | 12074m | -14m/s | -46°C | 1.2% | 194.95hPa | 2.6V | 00:00:00 | 00:00:00 | 00:00:00 | |
| DO2JMG | 2026-08-31 08:13:39 | 53.11062 | 8.10368 | 51° | 75km/h | 12088m | -13.7m/s | -46°C | 0% | 194.6hPa | 2.7V | 08:20:40 | 01:38:10 | 00:00:00 | |
| DD8BA-10 | 2026-08-31 08:13:39 | 53.11062 | 8.10368 | 52° | 78km/h | 12088m | -13.7m/s | -45.9°C | 2.8% | 194.5hPa | 2.7V | 00:00:00 | 00:00:00 | 00:00:00 | |
| DL1XH-15 | 2026-08-31 08:13:38 | 53.10992 | 8.10210 | 54° | 78km/h | 12167m | -13.6m/s | -46.2°C | 2.8% | 192.2hPa | 2.7V | 08:20:21 | 01:38:04 | 00:00:00 | |
| DF8AY | 2026-08-31 08:13:36 | 53.11026 | 8.10290 | 55° | 78km/h | 12127m | -13.2m/s | -46°C | 0% | 193.4hPa | 2.6V | 08:20:40 | 01:38:07 | 00:00:00 | |
| BIOWL1-15 | 2026-08-31 08:13:36 | 53.11003 | 8.10237 | 55° | 77km/h | 12154m | -13.4m/s | -46.2°C | 0% | 192.6hPa | 2.6V | 08:20:40 | 01:38:05 | 00:00:00 | |
| DL1XH-west | 2026-08-31 08:13:33 | 53.10992 | 8.10210 | 55° | 78km/h | 12167m | -13.6m/s | -46.2°C | 0% | 192.2hPa | 2.7V | 08:20:40 | 01:38:04 | 00:00:00 | |
| DN9WHV | 2026-08-31 08:13:32 | 53.10992 | 8.10210 | 56° | 78km/h | 12168m | -13.6m/s | -46.2°C | 1.1% | 192.2hPa | 2.6V | 08:20:00 | 00:00:00 | 00:00:00 | |
| DN9WHV | 2026-08-31 08:13:31 | 53.10980 | 8.10182 | 56° | 82km/h | 12181m | -13.3m/s | -46.3°C | 1.2% | 191.9hPa | 2.6V | 08:20:00 | 00:00:00 | 00:00:00 | |
| DL1XH1-15 | 2026-08-31 08:13:30 | 53.10900 | 8.09981 | 54° | 82km/h | 12272m | -14m/s | -46.4°C | 2.8% | 189.2hPa | 2.6V | 08:20:29 | 01:37:56 | 00:00:00 | |
| AA1-15 | 2026-08-31 08:13:30 | 53.10957 | 8.10125 | 57° | 84km/h | 12206m | -13m/s | -46.4°C | 0% | 191.1hPa | 2.6V | 08:20:40 | 01:38:01 | 00:00:00 | |
| DM0DOS-11 | 2026-08-31 08:13:30 | 53.10923 | 8.10037 | 56° | 82km/h | 12245m | -13.7m/s | -46.3°C | 2.8% | 190hPa | 2.6V | 08:20:27 | 01:37:58 | 00:00:00 | |
| DO2JMG | 2026-08-31 08:13:29 | 53.10945 | 8.10095 | 58° | 82km/h | 12219m | -13m/s | -46.4°C | 0% | 190.7hPa | 2.7V | 08:20:40 | 01:38:00 | 00:00:00 | |
| DL1XH-15 | 2026-08-31 08:13:28 | 53.10876 | 8.09925 | 53° | 84km/h | 12300m | -13.6m/s | -46.4°C | 2.9% | 188.4hPa | 2.7V | 08:20:31 | 01:37:54 | 00:00:00 | |
| DF8AY | 2026-08-31 08:13:26 | 53.10912 | 8.10009 | 56° | 82km/h | 12258m | -13.9m/s | -46.3°C | 0% | 189.6hPa | 2.6V | 08:20:40 | 01:37:57 | 00:00:00 | |
| DB0DAN | 2026-08-31 08:13:25 | 53.10900 | 8.09981 | 54° | 78km/h | 12272m | -14m/s | -46.4°C | 1.2% | 189.2hPa | 2.6V | 00:00:00 | 00:00:00 | 00:00:00 | |
| BIOWL1-15 | 2026-08-31 08:13:24 | 53.10888 | 8.09953 | 54° | 82km/h | 12286m | -13.9m/s | -46.4°C | 0% | 188.8hPa | 2.7V | 08:20:40 | 01:37:55 | 00:00:00 | |
| DL1XH-west | 2026-08-31 08:13:23 | 53.10876 | 8.09925 | 53° | 84km/h | 12300m | -13.6m/s | -46.4°C | 0% | 188.4hPa | 2.7V | 08:20:40 | 01:37:54 | 00:00:00 | |
| DJ2DS-15 | 2026-08-31 08:13:22 | 53.10863 | 8.09897 | 54° | 82km/h | 12315m | -13.4m/s | -46.2°C | 2.8% | 188.0hPa | 2.7V | 00:00:00 | 01:37:53 | 00:00:00 | |
| SMARD9-15 | 2026-08-31 08:13:21 | 53.10850 | 8.09868 | 53° | 84km/h | 12327m | -13.3m/s | -46.3°C | 1.1% | 187.7hPa | 2.7V | 00:00:00 | 00:00:00 | 00:00:00 | |
| DM0DOS-11 | 2026-08-31 08:13:20 | 53.10801 | 8.09754 | 54° | 82km/h | 12380m | -13.8m/s | -46.4°C | 2.9% | 186.2hPa | 2.7V | 08:20:37 | 01:37:48 | 00:00:00 | |
| DL1XH1-15 | 2026-08-31 08:13:20 | 53.10777 | 8.09698 | 53° | 82km/h | 12407m | -13.8m/s | -46.4°C | 2.9% | 185.4hPa | 2.6V | 08:20:39 | 01:37:46 | 00:00:00 | |
| AA1-15 | 2026-08-31 08:13:19 | 53.10826 | 8.09811 | 55° | 84km/h | 12353m | -13m/s | -46.4°C | 0% | 186.9hPa | 2.6V | 08:20:40 | 01:37:50 | 00:00:00 | |
| DO2JMG | 2026-08-31 08:13:18 | 53.10814 | 8.09782 | 55° | 82km/h | 12367m | -13.4m/s | -46.4°C | 0% | 186.6hPa | 2.7V | 08:20:40 | 01:37:49 | 00:00:00 | |
| DF8AY | 2026-08-31 08:13:16 | 53.10789 | 8.09726 | 54° | 82km/h | 12393m | -13.9m/s | -46.4°C | 0% | 185.8hPa | 2.7V | 08:20:40 | 01:37:47 | 00:00:00 | |
| DL1XH-west | 2026-08-31 08:13:13 | 53.10752 | 8.09641 | 55° | 84km/h | 12434m | -13.4m/s | -46.4°C | 0% | 184.7hPa | 2.6V | 08:21:31 | 01:37:44 | 00:00:00 | |
| DF4FW | 2026-08-31 08:13:12 | 53.10752 | 8.09641 | 56° | 84km/h | 12434m | -13.4m/s | -46.4°C | 1.2% | 184.6hPa | 2.6V | 08:21:00 | 00:00:00 | 00:00:00 | |
| DL4BBY-15 | 2026-08-31 08:13:11 | 53.10728 | 8.09583 | 56° | 80km/h | 12461m | -13.0m/s | -49.5°C | 0% | 0hPa | 2.6V | 00:00:00 | 00:00:00 | 00:00:00 | |
| DL1XH1-15 | 2026-08-31 08:13:10 | 53.10659 | 8.09422 | 53° | 78km/h | 12541m | -13.9m/s | -46.7°C | 3% | 181.7hPa | 2.6V | 08:20:49 | 01:37:36 | 00:00:00 | |
| DB0DAN | 2026-08-31 08:13:10 | 53.10716 | 8.09555 | 56° | 77km/h | 12474m | -13.3m/s | -46.6°C | 1.2% | 183.57hPa | 2.6V | 00:00:00 | 00:00:00 | 00:00:00 | |
| DO2JMG | 2026-08-31 08:13:08 | 53.10694 | 8.09501 | 55° | 77km/h | 12500m | -13.8m/s | -46.6°C | 0.1% | 182.8hPa | 2.7V | 08:21:31 | 01:37:39 | 00:00:00 | |
| DF8AY | 2026-08-31 08:13:06 | 53.10671 | 8.09448 | 53° | 77km/h | 12527m | -14m/s | -46.7°C | 0.2% | 182.1hPa | 2.6V | 08:21:31 | 01:37:37 | 00:00:00 | |
| BIOWL1-15 | 2026-08-31 08:13:03 | 53.10623 | 8.09340 | 55° | 80km/h | 12581m | -13.3m/s | -47°C | 0.1% | 180.6hPa | 2.7V | 08:21:31 | 01:37:33 | 00:00:00 | |
| DL1XH-west | 2026-08-31 08:13:03 | 53.10635 | 8.09368 | 54° | 80km/h | 12568m | -13.3m/s | -46.9°C | 0.2% | 181hPa | 2.7V | 08:21:31 | 01:37:34 | 00:00:00 | |
| DJ2DS-15 | 2026-08-31 08:13:02 | 53.10623 | 8.09340 | 55° | 80km/h | 12581m | -13.2m/s | -46.9°C | 3.0% | 180.5hPa | 2.7V | 00:00:00 | 01:37:33 | 00:00:00 | |
| DL1XH1-15 | 2026-08-31 08:13:00 | 53.10540 | 8.09150 | 54° | 84km/h | 12675m | -13.4m/s | -47.3°C | 3.1% | 178.1hPa | 2.7V | 08:20:59 | 01:37:26 | 00:00:00 | |
| GOEST3-10 | 2026-08-31 08:13:00 | 53.10600 | 8.09286 | 55° | 80km/h | 12607m | -13.6m/s | -47.1°C | 3.1% | 179.8hPa | 2.6V | 08:20:00 | 01:37:31 | 00:00:00 | |
| DD8BA-10 | 2026-08-31 08:12:59 | 53.10588 | 8.09259 | 54° | 82km/h | 12621m | -13.9m/s | -47.0°C | 3.1% | 179.4hPa | 2.6V | 00:00:00 | 00:00:00 | 00:00:00 | |
| DL1XH-15 | 2026-08-31 08:12:58 | 53.10516 | 8.09092 | 55° | 84km/h | 12701m | -13.3m/s | -47.4°C | 3.1% | 177.3hPa | 2.6V | 08:21:01 | 01:37:24 | 00:00:00 | |
| AA1-15 | 2026-08-31 08:12:58 | 53.10576 | 8.09233 | 53° | 80km/h | 12634m | -13.9m/s | -47.1°C | 0.2% | 179.2hPa | 2.6V | 08:21:31 | 01:37:29 | 00:00:00 | |
| DO2JMG | 2026-08-31 08:12:57 | 53.10564 | 8.09206 | 53° | 82km/h | 12648m | -13.7m/s | -47.2°C | 0.2% | 178.8hPa | 2.7V | 08:21:31 | 01:37:28 | 00:00:00 | |
| DF8AY | 2026-08-31 08:12:56 | 53.10552 | 8.09178 | 54° | 82km/h | 12662m | -13.5m/s | -47.3°C | 0.2% | 178.4hPa | 2.7V | 08:21:31 | 01:37:27 | 00:00:00 | |
| DL3AQ-11 | 2026-08-31 08:12:56 | 53.10540 | 8.09150 | 54° | 82km/h | 12675m | -13.4m/s | -47.3°C | 1.3% | 178.1hPa | 2.7V | 00:00:00 | 00:00:00 | 00:00:00 | |
| DB0DAN | 2026-08-31 08:12:55 | 53.10540 | 8.09150 | 55° | 78km/h | 12675m | -13.4m/s | -47.3°C | 1.3% | 178.06hPa | 2.7V | 00:00:00 | 00:00:00 | 00:00:00 | |
| BIOWL1-15 | 2026-08-31 08:12:53 | 53.10492 | 8.09033 | 58° | 82km/h | 12727m | -13.4m/s | -47.5°C | 0.3% | 176.6hPa | 2.7V | 08:21:31 | 01:37:22 | 00:00:00 | |
| DL1XH-west | 2026-08-31 08:12:52 | 53.10504 | 8.09063 | 57° | 84km/h | 12714m | -13.3m/s | -47.5°C | 0.2% | 177hPa | 2.6V | 08:21:31 | 01:37:23 | 00:00:00 | |
| D01LWL | 2026-08-31 08:12:51 | 53.10492 | 8.09033 | 57° | 80km/h | 12727m | -13.4m/s | -47.5°C | 1.3% | 176.6hPa | 2.7V | 00:00:00 | 00:00:00 | 00:00:00 | |
| DM0DOS-11 | 2026-08-31 08:12:50 | 53.10449 | 8.08917 | 58° | 80km/h | 12779m | -13.9m/s | -47.3°C | 3.1% | 175.2hPa | 2.7V | 08:21:07 | 01:37:18 | 00:00:00 | |
| DL4XJ-10 | 2026-08-31 08:12:50 | 53.10481 | 8.09004 | 59° | 78km/h | 12740m | -13.4m/s | -50.4°C | 0% | 0hPa | 2.6V | 00:00:00 | 00:00:00 | 00:00:00 | |
| DD8BA-10 | 2026-08-31 08:12:49 | 53.10470 | 8.08975 | 60° | 80km/h | 12753m | -13.5m/s | -47.2°C | 3.1% | 175.9hPa | 2.6V | 00:00:00 | 00:00:00 | 00:00:00 | |
| DL1XH-15 | 2026-08-31 08:12:48 | 53.10406 | 8.08803 | 57° | 80km/h | 12834m | -13.7m/s | -47.6°C | 3.2% | 173.8hPa | 2.6V | 08:21:11 | 01:37:14 | 00:00:00 | |
| AA1-15 | 2026-08-31 08:12:47 | 53.10449 | 8.08917 | 59° | 80km/h | 12779m | -13.9m/s | -47.4°C | 0.3% | 175.2hPa | 2.7V | 08:21:31 | 01:37:18 | 00:00:00 | |
| DO2JMG | 2026-08-31 08:12:46 | 53.10439 | 8.08888 | 58° | 80km/h | 12792m | -14m/s | -47.4°C | 0.3% | 174.9hPa | 2.7V | 08:21:31 | 01:37:17 | 00:00:00 | |
| DF8AY | 2026-08-31 08:12:45 | 53.10428 | 8.08860 | 58° | 80km/h | 12806m | -13.9m/s | -47.5°C | 0.2% | 174.5hPa | 2.6V | 08:21:31 | 01:37:16 | 00:00:00 | |
| DL1XH-west | 2026-08-31 08:12:41 | 53.10385 | 8.08745 | 59° | 80km/h | 12861m | -13.6m/s | -47.7°C | 0.3% | 173.2hPa | 2.7V | 08:21:31 | 01:37:12 | 00:00:00 | |
| BIOWL1-15 | 2026-08-31 08:12:40 | 53.10375 | 8.08717 | 59° | 80km/h | 12875m | -13.3m/s | -47.7°C | 0.3% | 172.7hPa | 2.7V | 08:21:31 | 01:37:11 | 00:00:00 | |
| DB0DAN | 2026-08-31 08:12:40 | 53.10375 | 8.08717 | 59° | 77km/h | 12875m | -13.3m/s | -47.7°C | 1.3% | 172.74hPa | 2.7V | 00:00:00 | 00:00:00 | 00:00:00 | |
| DM0DOS-11 | 2026-08-31 08:12:40 | 53.10346 | 8.08632 | 61° | 75km/h | 12914m | -13.4m/s | -47.8°C | 3.2% | 171.7hPa | 2.6V | 08:21:17 | 01:37:08 | 00:00:00 | |
| DF8AY | 2026-08-31 08:12:39 | 53.10320 | 8.08550 | 62° | 73km/h | 12953m | -13.7m/s | -48°C | 0.3% | 170.6hPa | 2.7V | 08:21:31 | 01:37:05 | 00:00:00 | |
| DL1XH-15 | 2026-08-31 08:12:38 | 53.10312 | 8.08523 | 62° | 73km/h | 12967m | -13.5m/s | -48°C | 3.3% | 170.4hPa | 2.6V | 08:21:21 | 01:37:04 | 00:00:00 | |
| AA1-15 | 2026-08-31 08:12:36 | 53.10337 | 8.08605 | 62° | 75km/h | 12927m | -13.7m/s | -47.9°C | 0.3% | 171.3hPa | 2.7V | 08:21:31 | 01:37:07 | 00:00:00 | |
| DO2JMG | 2026-08-31 08:12:35 | 53.10328 | 8.08577 | 62° | 73km/h | 12940m | -13.7m/s | -47.9°C | 0.3% | 171hPa | 2.7V | 08:21:31 | 01:37:06 | 00:00:00 | |
| DL1XH-west | 2026-08-31 08:12:30 | 53.10286 | 8.08440 | 63° | 75km/h | 13007m | -13.3m/s | -48.1°C | 0.4% | 169.3hPa | 2.7V | 08:21:31 | 01:37:01 | 00:00:00 | |
| DL4XJ-10 | 2026-08-31 08:12:30 | 53.10286 | 8.08440 | 63° | 69km/h | 13007m | -13.3m/s | -51.1°C | 0% | 0hPa | 2.6V | 00:00:00 | 00:00:00 | 00:00:00 | |
| DM0DOS-11 | 2026-08-31 08:12:29 | 53.10260 | 8.08358 | 62° | 71km/h | 13046m | -12.9m/s | -48.2°C | 3.4% | 168.3hPa | 2.6V | 08:21:27 | 01:36:58 | 00:00:00 | |
| BIOWL1-15 | 2026-08-31 08:12:29 | 53.10277 | 8.08413 | 63° | 73km/h | 13020m | -13.1m/s | -48.2°C | 0.4% | 168.9hPa | 2.7V | 08:21:31 | 01:37:00 | 00:00:00 | |
| DD8BA-10 | 2026-08-31 08:12:29 | 53.10277 | 8.08412 | 63° | 69km/h | 13020m | -13.1m/s | -48.1°C | 3.4% | 168.9hPa | 2.6V | 00:00:00 | 00:00:00 | 00:00:00 | |
| DO2SHX-10 | 2026-08-31 08:12:28 | 53.10269 | 8.08385 | 63° | 69km/h | 13033m | -13.0m/s | -48.2°C | 3.4% | 168.5hPa | 2.6V | 00:00:00 | 01:36:59 | 00:00:00 | |
| DN9WHV | 2026-08-31 08:12:27 | 53.10269 | 8.08385 | 64° | 73km/h | 13033m | -13.0m/s | -48.2°C | 1.3% | 168.6hPa | 2.7V | 08:21:00 | 00:00:00 | 00:00:00 | |
| DN9WHV | 2026-08-31 08:12:26 | 53.10260 | 8.08358 | 64° | 71km/h | 13046m | -12.9m/s | -48.2°C | 1.3% | 168.3hPa | 2.7V | 08:21:00 | 00:00:00 | 00:00:00 | |
| DB0DAN | 2026-08-31 08:12:25 | 53.10244 | 8.08306 | 61° | 64km/h | 13072m | -13.5m/s | -48°C | 1.3% | 167.59hPa | 2.7V | 00:00:00 | 00:00:00 | 00:00:00 | |
| DF8AY | 2026-08-31 08:12:25 | 53.10236 | 8.08281 | 59° | 66km/h | 13086m | -13.8m/s | -47.9°C | 0.3% | 167.3hPa | 2.7V | 08:21:31 | 01:36:55 | 00:00:00 | |
| DO2JMG | 2026-08-31 08:12:25 | 53.10244 | 8.08306 | 62° | 68km/h | 13072m | -13.5m/s | -48°C | 0.3% | 167.6hPa | 2.7V | 08:21:31 | 01:36:56 | 00:00:00 | |
| DO2SHX-10 | 2026-08-31 08:12:24 | 53.10236 | 8.08281 | 60° | 66km/h | 13086m | -13.8m/s | -47.9°C | 3.3% | 167.2hPa | 2.6V | 00:00:00 | 01:36:55 | 00:00:00 | |
| DF5WG-10 | 2026-08-31 08:12:23 | 53.10227 | 8.08258 | 58° | 69km/h | 13099m | -13.5m/s | -47.8°C | 3.3% | 166.9hPa | 2.6V | 00:00:00 | 01:36:54 | 00:00:00 | |
| DJ2DS-15 | 2026-08-31 08:12:22 | 53.10218 | 8.08234 | 57° | 68km/h | 13112m | -13.5m/s | -47.7°C | 3.2% | 166.5hPa | 2.6V | 00:00:00 | 01:36:53 | 00:00:00 | |
| DO2SHX-10 | 2026-08-31 08:12:21 | 53.10208 | 8.08211 | 57° | 68km/h | 13126m | -13.4m/s | -47.8°C | 3.2% | 166.2hPa | 2.6V | 00:00:00 | 01:36:52 | 00:00:00 | |
| DL1XH1-15 | 2026-08-31 08:12:20 | 53.10153 | 8.08064 | 60° | 68km/h | 13205m | -13m/s | -47°C | 3% | 164.3hPa | 2.6V | 08:21:39 | 01:36:46 | 00:00:00 | |
| BIOWL1-15 | 2026-08-31 08:12:20 | 53.10181 | 8.08138 | 58° | 69km/h | 13167m | -13m/s | -47.8°C | 0.2% | 165.3hPa | 2.7V | 08:22:22 | 01:36:49 | 00:00:00 | |
| GOEST3-10 | 2026-08-31 08:12:20 | 53.10199 | 8.08187 | 57° | 69km/h | 13139m | -13.4m/s | -47.8°C | 3.2% | 165.9hPa | 2.7V | 00:00:00 | 01:36:51 | 00:00:00 | |
| DM0DOS-11 | 2026-08-31 08:12:19 | 53.10171 | 8.08114 | 58° | 69km/h | 13180m | -12.9m/s | -47.5°C | 3.1% | 165hPa | 2.7V | 08:21:37 | 01:36:48 | 00:00:00 | |
| DL1XH-west | 2026-08-31 08:12:19 | 53.10190 | 8.08163 | 57° | 69km/h | 13153m | -13.3m/s | -47.9°C | 0.2% | 165.6hPa | 2.7V | 08:22:22 | 01:36:50 | 00:00:00 | |
| AA1-15 | 2026-08-31 08:12:15 | 53.10153 | 8.08064 | 60° | 69km/h | 13205m | -13m/s | -47°C | 0.1% | 164.3hPa | 2.6V | 08:22:22 | 01:36:46 | 00:00:00 | |
| DO2JMG | 2026-08-31 08:12:14 | 53.10145 | 8.08039 | 61° | 68km/h | 13218m | -13.3m/s | -46.8°C | 0.1% | 164hPa | 2.6V | 08:22:22 | 01:36:45 | 00:00:00 | |
| DF8AY | 2026-08-31 08:12:13 | 53.10137 | 8.08014 | 63° | 68km/h | 13231m | -13.5m/s | -46.5°C | 0% | 163.7hPa | 2.7V | 08:22:22 | 01:36:44 | 00:00:00 | |
| DO2SHX-10 | 2026-08-31 08:12:12 | 53.10129 | 8.07989 | 64° | 66km/h | 13244m | -13.6m/s | -46.2°C | 2.9% | 163.3hPa | 2.6V | 00:00:00 | 01:36:43 | 00:00:00 | |
| DL4BBY-15 | 2026-08-31 08:12:11 | 53.10122 | 8.07964 | 64° | 64km/h | 13257m | -13.7m/s | -49.1°C | 0% | 0hPa | 2.6V | 00:00:00 | 00:00:00 | 00:00:00 | |
| DL1XH1-15 | 2026-08-31 08:12:10 | 53.10082 | 8.07811 | 69° | 68km/h | 13337m | -13.5m/s | -46.2°C | 2.7% | 161hPa | 2.6V | 08:21:49 | 01:36:36 | 00:00:00 | |
| DB0DAN | 2026-08-31 08:12:10 | 53.10114 | 8.07939 | 64° | 62km/h | 13270m | -13.9m/s | -46°C | 1.1% | 162.69hPa | 2.6V | 00:00:00 | 00:00:00 | 00:00:00 | |
| DL4XJ-10 | 2026-08-31 08:12:10 | 53.10114 | 8.07939 | 65° | 66km/h | 13270m | -13.8m/s | -49.0°C | 0% | 0hPa | 2.6V | 00:00:00 | 00:00:00 | 00:00:00 | |
| DM0DOS-11 | 2026-08-31 08:12:09 | 53.10094 | 8.07863 | 67° | 66km/h | 13310m | -13.5m/s | -46°C | 2.7% | 161.7hPa | 2.6V | 08:21:47 | 01:36:38 | 00:00:00 | |
| DL1XH-west | 2026-08-31 08:12:09 | 53.10107 | 8.07914 | 65° | 66km/h | 13283m | -13.7m/s | -46°C | 0% | 162.3hPa | 2.7V | 08:22:22 | 01:36:40 | 00:00:00 | |
| BIOWL1-15 | 2026-08-31 08:12:07 | 53.10094 | 8.07863 | 67° | 66km/h | 13310m | -13.5m/s | -46°C | 0% | 161.7hPa | 2.6V | 08:22:22 | 01:36:38 | 00:00:00 | |
| HSKMA3-T | 2026-08-31 08:12:05 | 53.10082 | 8.07811 | 70° | 68km/h | 13337m | -13.5m/s | -46.2°C | 0% | 161hPa | 2.6V | 08:23:13 | 01:36:36 | 00:00:00 | |
| DO2JMG | 2026-08-31 08:12:04 | 53.10076 | 8.07784 | 71° | 68km/h | 13350m | -13.3m/s | -46.3°C | 0% | 160.7hPa | 2.7V | 08:22:22 | 01:36:35 | 00:00:00 | |
| DF8AY | 2026-08-31 08:12:03 | 53.10070 | 8.07758 | 71° | 68km/h | 13363m | -13.4m/s | -46.3°C | 0% | 160.4hPa | 2.7V | 08:22:22 | 01:36:34 | 00:00:00 | |
| DJ2DS-15 | 2026-08-31 08:12:02 | 53.10065 | 8.07731 | 72° | 62km/h | 13376m | -13.2m/s | -46.1°C | 2.7% | 160.0hPa | 2.6V | 00:00:00 | 01:36:33 | 00:00:00 | |
| BIOWL7-15 | 2026-08-31 08:12:01 | 53.10065 | 8.07731 | 73° | 66km/h | 13376m | -13.3m/s | -46.1°C | 1.0% | 160.1hPa | 2.6V | 00:00:00 | 00:00:00 | 00:00:00 | |
| DL1XH1-15 | 2026-08-31 08:12:00 | 53.10030 | 8.07551 | 71° | 64km/h | 13468m | -13.8m/s | -46.5°C | 2.7% | 157.8hPa | 2.6V | 08:21:59 | 01:36:26 | 00:00:00 | |
| DM0DOS-11 | 2026-08-31 08:11:59 | 53.10040 | 8.07601 | 71° | 64km/h | 13442m | -13.9m/s | -46.4°C | 2.7% | 158.4hPa | 2.7V | 08:21:57 | 01:36:28 | 00:00:00 | |
| BIOWL1-15 | 2026-08-31 08:11:59 | 53.10040 | 8.07601 | 72° | 64km/h | 13442m | -13.9m/s | -46.4°C | 0% | 158.4hPa | 2.7V | 08:22:22 | 01:36:28 | 00:00:00 | |
| DL1XH-west | 2026-08-31 08:11:58 | 53.10045 | 8.07626 | 72° | 64km/h | 13429m | -13.7m/s | -46.3°C | 0% | 158.8hPa | 2.7V | 08:22:22 | 01:36:29 | 00:00:00 | |
| DO2SHX-10 | 2026-08-31 08:11:58 | 53.10045 | 8.07626 | 72° | 64km/h | 13429m | -13.7m/s | -46.2°C | 2.7% | 158.7hPa | 2.7V | 00:00:00 | 01:36:29 | 00:00:00 | |
| DN9WHV | 2026-08-31 08:11:57 | 53.10045 | 8.07626 | 73° | 64km/h | 13429m | -13.7m/s | -46.3°C | 1.0% | 158.8hPa | 2.6V | 08:22:00 | 00:00:00 | 00:00:00 | |
| DL8OAI-8 | 2026-08-31 08:11:56 | 53.10040 | 8.07601 | 73° | 64km/h | 13442m | -13.9m/s | -46.4°C | 1.0% | 158.4hPa | 2.6V | 08:22:00 | 00:00:00 | 00:00:00 | |
| DB0DAN | 2026-08-31 08:11:55 | 53.10030 | 8.07550 | 71° | 60km/h | 13468m | -13.8m/s | -46.5°C | 1% | 157.82hPa | 2.6V | 00:00:00 | 00:00:00 | 00:00:00 | |
| DO2JMG | 2026-08-31 08:11:53 | 53.10020 | 8.07501 | 71° | 62km/h | 13496m | -13.9m/s | -46.4°C | 0% | 157.2hPa | 2.6V | 08:22:22 | 01:36:24 | 00:00:00 | |
| DO9LL-15 | 2026-08-31 08:11:53 | 53.10020 | 8.07501 | 71° | 58km/h | 13496m | -13.8m/s | -46.3°C | 2.7% | 157.1hPa | 2.6V | 00:00:00 | 01:36:24 | 00:00:00 | |
| DN9WHV | 2026-08-31 08:11:52 | 53.10020 | 8.07501 | 72° | 62km/h | 13496m | -13.9m/s | -46.4°C | 1.0% | 157.2hPa | 2.6V | 08:22:00 | 00:00:00 | 00:00:00 | |
| DO2SHX-10 | 2026-08-31 08:11:51 | 53.10010 | 8.07451 | 72° | 62km/h | 13524m | -13.6m/s | -46.5°C | 2.7% | 156.5hPa | 2.6V | 00:00:00 | 01:36:22 | 00:00:00 | |
| DL1XH1-15 | 2026-08-31 08:11:50 | 53.09983 | 8.07304 | 73° | 60km/h | 13605m | -13.6m/s | -47.3°C | 2.9% | 154.7hPa | 2.6V | 08:22:09 | 01:36:16 | 00:00:00 | |
| BIOWL1-15 | 2026-08-31 08:11:48 | 53.09988 | 8.07329 | 74° | 60km/h | 13592m | -13.5m/s | -47.2°C | 0% | 155hPa | 2.6V | 08:22:22 | 01:36:17 | 00:00:00 | |
| DL1XH-west | 2026-08-31 08:11:47 | 53.09992 | 8.07353 | 73° | 60km/h | 13578m | -13.5m/s | -47°C | 0% | 155.3hPa | 2.7V | 08:22:22 | 01:36:18 | 00:00:00 | |
| DL3AQ-11 | 2026-08-31 08:11:47 | 53.09988 | 8.07329 | 73° | 58km/h | 13592m | -13.5m/s | -47.2°C | 1.1% | 155.0hPa | 2.7V | 00:00:00 | 00:00:00 | 00:00:00 | |
| DO2JMG | 2026-08-31 08:11:43 | 53.09974 | 8.07256 | 73° | 60km/h | 13631m | -13.4m/s | -47.5°C | 0% | 154hPa | 2.7V | 08:22:22 | 01:36:14 | 00:00:00 | |
| AA1-15 | 2026-08-31 08:11:42 | 53.09969 | 8.07232 | 72° | 60km/h | 13644m | -13.5m/s | -47.7°C | 0% | 153.7hPa | 2.7V | 08:22:22 | 01:36:13 | 00:00:00 | |
| DJ2DS-15 | 2026-08-31 08:11:42 | 53.09969 | 8.07232 | 73° | 57km/h | 13644m | -13.5m/s | -47.6°C | 3.0% | 153.7hPa | 2.7V | 08:22:00 | 01:36:13 | 00:00:00 | |
| DL4BBY-15 | 2026-08-31 08:11:41 | 53.09964 | 8.07208 | 72° | 58km/h | 13657m | -13.6m/s | -50.7°C | 0% | 0hPa | 2.7V | 00:00:00 | 00:00:00 | 00:00:00 | |
| DL1XH1-15 | 2026-08-31 08:11:40 | 53.09937 | 8.07068 | 70° | 57km/h | 13739m | -14.1m/s | -48.2°C | 3.1% | 151.5hPa | 2.7V | 08:22:19 | 01:36:06 | 00:00:00 | |
| DN9WHV | 2026-08-31 08:11:40 | 53.09960 | 8.07185 | 73° | 58km/h | 13670m | -14.0m/s | -47.9°C | 1.1% | 153.0hPa | 2.7V | 08:22:00 | 00:00:00 | 00:00:00 | |
| DM0DOS-11 | 2026-08-31 08:11:39 | 53.09946 | 8.07115 | 71° | 58km/h | 13710m | -14.1m/s | -48.2°C | 3.1% | 152.1hPa | 2.7V | 08:22:17 | 01:36:08 | 00:00:00 | |
| DD8BA-10 | 2026-08-31 08:11:39 | 53.09955 | 8.07162 | 73° | 57km/h | 13683m | -14.1m/s | -47.9°C | 3.0% | 152.7hPa | 2.6V | 00:00:00 | 00:00:00 | 00:00:00 | |
| DL1XH-15 | 2026-08-31 08:11:38 | 53.09926 | 8.07023 | 68° | 57km/h | 13766m | -14.2m/s | -48.2°C | 3% | 150.8hPa | 2.6V | 08:22:21 | 01:36:04 | 00:00:00 | |
| DL1XH-west | 2026-08-31 08:11:37 | 53.09946 | 8.07115 | 72° | 58km/h | 13710m | -14.1m/s | -48.2°C | 0.1% | 152.1hPa | 2.7V | 08:22:22 | 01:36:08 | 00:00:00 | |
| BIOWL1-15 | 2026-08-31 08:11:37 | 53.09936 | 8.07068 | 71° | 57km/h | 13739m | -14.1m/s | -48.2°C | 0.1% | 151.5hPa | 2.7V | 08:22:22 | 01:36:06 | 00:00:00 | |
| DO2JMG | 2026-08-31 08:11:32 | 53.09921 | 8.07000 | 68° | 57km/h | 13780m | -14m/s | -48.2°C | 0% | 150.5hPa | 2.6V | 08:22:22 | 01:36:03 | 00:00:00 | |
| AA1-15 | 2026-08-31 08:11:31 | 53.09915 | 8.06978 | 67° | 57km/h | 13793m | -14.1m/s | -48.1°C | 0.1% | 150.2hPa | 2.7V | 08:23:13 | 01:36:02 | 00:00:00 | |
| DO2SHX-10 | 2026-08-31 08:11:31 | 53.09915 | 8.06977 | 68° | 57km/h | 13793m | -14.0m/s | -48.0°C | 3.0% | 150.2hPa | 2.6V | 00:00:00 | 01:36:02 | 00:00:00 | |
| DL4XJ-10 | 2026-08-31 08:11:30 | 53.09910 | 8.06956 | 67° | 58km/h | 13807m | -14.2m/s | -51.0°C | 0% | 0hPa | 2.6V | 00:00:00 | 00:00:00 | 00:00:00 | |
| DD8BA-10 | 2026-08-31 08:11:29 | 53.09904 | 8.06934 | 65° | 57km/h | 13820m | -14.4m/s | -48.1°C | 3.1% | 149.5hPa | 2.6V | 00:00:00 | 00:00:00 | 00:00:00 | |
| DL1XH-15 | 2026-08-31 08:11:28 | 53.09866 | 8.06807 | 59° | 57km/h | 13907m | -14.7m/s | -48.5°C | 3.1% | 147.7hPa | 2.6V | 08:22:31 | 01:35:54 | 00:00:00 | |
| DL1XH-west | 2026-08-31 08:11:27 | 53.09892 | 8.06891 | 63° | 57km/h | 13849m | -14.8m/s | -48.3°C | 0.1% | 148.9hPa | 2.7V | 08:23:13 | 01:35:58 | 00:00:00 | |
| BIOWL1-15 | 2026-08-31 08:11:26 | 53.09872 | 8.06828 | 61° | 57km/h | 13892m | -14.9m/s | -48.5°C | 0.1% | 147.9hPa | 2.6V | 08:23:13 | 01:35:55 | 00:00:00 | |
| DB0DAN | 2026-08-31 08:11:25 | 53.09879 | 8.06849 | 62° | 53km/h | 13878m | -14.8m/s | -48.4°C | 1.1% | 148.26hPa | 2.6V | 00:00:00 | 00:00:00 | 00:00:00 | |
| DO2JMG | 2026-08-31 08:11:22 | 53.09859 | 8.06786 | 59° | 58km/h | 13922m | -14.5m/s | -48.5°C | 0.1% | 147.3hPa | 2.7V | 08:23:13 | 01:35:53 | 00:00:00 | |
| AA1-15 | 2026-08-31 08:11:20 | 53.09843 | 8.06745 | 57° | 58km/h | 13950m | -14.3m/s | -48.6°C | 0.1% | 146.7hPa | 2.7V | 08:23:13 | 01:35:51 | 00:00:00 | |
| DL3AQ-11 | 2026-08-31 08:11:20 | 53.09835 | 8.06725 | 57° | 57km/h | 13964m | -14.4m/s | -48.6°C | 1.1% | 146.4hPa | 2.6V | 00:00:00 | 00:00:00 | 00:00:00 | |
| DD8BA-10 | 2026-08-31 08:11:19 | 53.09835 | 8.06725 | 58° | 58km/h | 13964m | -14.4m/s | -48.6°C | 3.1% | 146.3hPa | 2.6V | 00:00:00 | 00:00:00 | 00:00:00 | |
| DL1XH-15 | 2026-08-31 08:11:18 | 53.09786 | 8.06600 | 56° | 58km/h | 14051m | -14.6m/s | -49°C | 3.2% | 144.5hPa | 2.6V | 08:22:41 | 01:35:44 | 00:00:00 | |
| DL1XH-west | 2026-08-31 08:11:16 | 53.09811 | 8.06663 | 56° | 60km/h | 14008m | -14.2m/s | -48.7°C | 0.1% | 145.4hPa | 2.7V | 08:23:13 | 01:35:47 | 00:00:00 | |
| BIOWL1-15 | 2026-08-31 08:11:13 | 53.09786 | 8.06601 | 56° | 58km/h | 14051m | -14.6m/s | -49°C | 0.1% | 144.5hPa | 2.6V | 08:23:13 | 01:35:44 | 00:00:00 | |
| DO2JMG | 2026-08-31 08:11:11 | 53.09769 | 8.06560 | 55° | 58km/h | 14080m | -14.5m/s | -49.3°C | 0.2% | 143.8hPa | 2.6V | 08:23:13 | 01:35:42 | 00:00:00 | |
| DB0DAN | 2026-08-31 08:11:10 | 53.09760 | 8.06540 | 54° | 57km/h | 14094m | -14.5m/s | -49.4°C | 1.2% | 143.53hPa | 2.7V | 00:00:00 | 00:00:00 | 00:00:00 | |
| AA1-15 | 2026-08-31 08:11:09 | 53.09751 | 8.06520 | 53° | 58km/h | 14108m | -14.5m/s | -49.5°C | 0.3% | 143.2hPa | 2.7V | 08:23:13 | 01:35:40 | 00:00:00 | |
| DL1XH-west | 2026-08-31 08:11:05 | 53.09714 | 8.06443 | 49° | 57km/h | 14165m | -14.6m/s | -49.7°C | 0.3% | 141.9hPa | 2.7V | 08:23:13 | 01:35:36 | 00:00:00 | |
| BIOWL1-15 | 2026-08-31 08:11:03 | 53.09695 | 8.06407 | 46° | 57km/h | 14194m | -14.9m/s | -49.5°C | 0.2% | 141.3hPa | 2.6V | 08:23:13 | 01:35:34 | 00:00:00 | |
| DO2JMG | 2026-08-31 08:11:01 | 53.09675 | 8.06372 | 43° | 57km/h | 14223m | -15.1m/s | -49.7°C | 0.2% | 140.7hPa | 2.7V | 08:23:13 | 01:35:32 | 00:00:00 | |
| HSKMA3-T | 2026-08-31 08:10:59 | 53.09653 | 8.06339 | 40° | 58km/h | 14251m | -15.5m/s | -49.8°C | 0.2% | 140hPa | 2.7V | 08:23:13 | 01:35:30 | 00:00:00 | |
| DD8BA-10 | 2026-08-31 08:10:59 | 53.09653 | 8.06339 | 40° | 64km/h | 14252m | -15.4m/s | -49.8°C | 3.3% | 139.9hPa | 2.7V | 00:00:00 | 00:00:00 | 00:00:00 | |
| DL1XH-15 | 2026-08-31 08:10:58 | 53.09578 | 8.06247 | 34° | 66km/h | 14344m | -16.5m/s | -49°C | 3.1% | 138.1hPa | 2.7V | 08:23:01 | 01:35:24 | 00:00:00 | |
| AA1-15 | 2026-08-31 08:10:58 | 53.09641 | 8.06324 | 38° | 60km/h | 14266m | -15.8m/s | -49.8°C | 0.2% | 139.7hPa | 2.6V | 08:23:13 | 01:35:29 | 00:00:00 | |
| DL3AQ-11 | 2026-08-31 08:10:56 | 53.09604 | 8.06278 | 34° | 62km/h | 14312m | -16.0m/s | -49.5°C | 1.1% | 138.7hPa | 2.7V | 00:00:00 | 00:00:00 | 00:00:00 | |
| DB0DAN | 2026-08-31 08:10:55 | 53.09604 | 8.06278 | 34° | 60km/h | 14312m | -16m/s | -49.5°C | 1.1% | 138.71hPa | 2.7V | 00:00:00 | 00:00:00 | 00:00:00 | |
| BIOWL1-15 | 2026-08-31 08:10:54 | 53.09564 | 8.06231 | 34° | 66km/h | 14360m | -16m/s | -49.1°C | 0.1% | 137.8hPa | 2.6V | 08:23:13 | 01:35:23 | 00:00:00 | |
| DL1XH-west | 2026-08-31 08:10:54 | 53.09591 | 8.06262 | 34° | 64km/h | 14328m | -16.4m/s | -49.2°C | 0.1% | 138.4hPa | 2.7V | 08:23:13 | 01:35:25 | 00:00:00 | |
| DF8AY | 2026-08-31 08:10:51 | 53.09550 | 8.06215 | 34° | 68km/h | 14376m | -15.8m/s | -49.1°C | 0.1% | 137.5hPa | 2.6V | 08:23:13 | 01:35:22 | 00:00:00 | |
| DO2JMG | 2026-08-31 08:10:50 | 53.09536 | 8.06199 | 34° | 69km/h | 14391m | -16.1m/s | -49°C | 0.1% | 137.2hPa | 2.6V | 08:23:13 | 01:35:21 | 00:00:00 | |
| HSKMA3-T | 2026-08-31 08:10:49 | 53.09521 | 8.06183 | 33° | 71km/h | 14407m | -15.7m/s | -49°C | 0.1% | 136.8hPa | 2.7V | 08:23:13 | 01:35:20 | 00:00:00 | |
| GOEST3-10 | 2026-08-31 08:10:49 | 53.09521 | 8.06183 | 34° | 73km/h | 14407m | -15.7m/s | -48.9°C | 3.2% | 136.8hPa | 2.6V | 00:00:00 | 01:35:20 | 00:00:00 | |
| DL1XH-15 | 2026-08-31 08:10:48 | 53.09426 | 8.06077 | 35° | 78km/h | 14499m | -15.3m/s | -48.9°C | 3.2% | 134.9hPa | 2.6V | 08:23:11 | 01:35:14 | 00:00:00 | |
| AA1-15 | 2026-08-31 08:10:47 | 53.09490 | 8.06149 | 33° | 73km/h | 14438m | -15.4m/s | -48.9°C | 0.1% | 136.2hPa | 2.6V | 08:23:13 | 01:35:18 | 00:00:00 | |
| D01LWL | 2026-08-31 08:10:47 | 53.09475 | 8.06132 | 33° | 75km/h | 14453m | -15.4m/s | -48.9°C | 1.1% | 135.9hPa | 2.6V | 00:00:00 | 00:00:00 | 00:00:00 | |
| BIOWL1-15 | 2026-08-31 08:10:45 | 53.09395 | 8.06037 | 39° | 78km/h | 14529m | -15.4m/s | -49°C | 0.2% | 134.3hPa | 2.6V | 08:23:13 | 01:35:12 | 00:00:00 | |
| DL1XH-west | 2026-08-31 08:10:44 | 53.09443 | 8.06096 | 34° | 77km/h | 14483m | -15.5m/s | -49°C | 0.1% | 135.2hPa | 2.7V | 08:23:13 | 01:35:15 | 00:00:00 | |
| DO2JMG | 2026-08-31 08:10:40 | 53.09379 | 8.06017 | 40° | 78km/h | 14544m | -15.3m/s | -49.2°C | 0.1% | 134hPa | 2.7V | 08:24:04 | 01:35:11 | 00:00:00 | |
| DB0DAN | 2026-08-31 08:10:40 | 53.09379 | 8.06017 | 40° | 75km/h | 14544m | -15.3m/s | -49.2°C | 1.1% | 133.99hPa | 2.7V | 00:00:00 | 00:00:00 | 00:00:00 | |
| HSKMA3-T | 2026-08-31 08:10:39 | 53.09365 | 8.05995 | 42° | 77km/h | 14559m | -14.9m/s | -49.3°C | 0.2% | 133.7hPa | 2.7V | 08:24:04 | 01:35:10 | 00:00:00 | |
| SO1NDE-10 | 2026-08-31 08:10:39 | 53.09364 | 8.05995 | 43° | 73km/h | 14560m | -14.9m/s | -49.2°C | 3.3% | 133.6hPa | 2.7V | 00:00:00 | 01:35:10 | 00:00:00 | |
| DL1XH-15 | 2026-08-31 08:10:38 | 53.09291 | 8.05861 | 53° | 69km/h | 14650m | -16m/s | -48°C | 2.9% | 131.8hPa | 2.7V | 08:23:21 | 01:35:04 | 00:00:00 | |
| DM0DOS-11 | 2026-08-31 08:10:38 | 53.09337 | 8.05951 | 46° | 73km/h | 14589m | -15.2m/s | -49°C | 3.2% | 133hPa | 2.6V | 08:23:17 | 01:35:08 | 00:00:00 | |
| AA1-15 | 2026-08-31 08:10:36 | 53.09324 | 8.05929 | 48° | 71km/h | 14603m | -15.7m/s | -48.6°C | 0% | 132.7hPa | 2.6V | 08:24:04 | 01:35:07 | 00:00:00 | |
| DL1XH-west | 2026-08-31 08:10:33 | 53.09291 | 8.05861 | 54° | 69km/h | 14650m | -16m/s | -48°C | 0% | 131.8hPa | 2.7V | 08:24:04 | 01:35:04 | 00:00:00 | |
| BIOWL1-15 | 2026-08-31 08:10:33 | 53.09271 | 8.05814 | 55° | 69km/h | 14682m | -15.9m/s | -48.1°C | 0% | 131.2hPa | 2.6V | 08:24:04 | 01:35:02 | 00:00:00 | |
| DO2SHX-10 | 2026-08-31 08:10:33 | 53.09291 | 8.05860 | 54° | 68km/h | 14650m | -15.9m/s | -47.9°C | 2.9% | 131.8hPa | 2.7V | 00:00:00 | 01:35:04 | 00:00:00 | |
| DB0NH | 2026-08-31 08:10:32 | 53.09281 | 8.05838 | 55° | 75km/h | 14666m | -15.9m/s | -47.9°C | 2.9% | 131.5hPa | 2.7V | 00:00:00 | 01:35:03 | 00:00:00 | |
| DN9WHV | 2026-08-31 08:10:31 | 53.09281 | 8.05838 | 56° | 68km/h | 14666m | -15.9m/s | -48.0°C | 1.0% | 131.5hPa | 2.6V | 08:24:00 | 00:00:00 | 00:00:00 | |
| DL1XH1-15 | 2026-08-31 08:10:30 | 53.09212 | 8.05665 | 57° | 71km/h | 14777m | -15.3m/s | -47.7°C | 2.9% | 129.3hPa | 2.6V | 08:23:29 | 01:34:56 | 00:00:00 | |
| DO2JMG | 2026-08-31 08:10:29 | 53.09251 | 8.05765 | 58° | 71km/h | 14713m | -15.7m/s | -48°C | 0% | 130.6hPa | 2.6V | 08:24:04 | 01:35:00 | 00:00:00 | |
| DD8BA-10 | 2026-08-31 08:10:29 | 53.09251 | 8.05765 | 58° | 71km/h | 14713m | -15.7m/s | -47.9°C | 2.9% | 130.5hPa | 2.7V | 00:00:00 | 00:00:00 | 00:00:00 | |
| DM0DOS-11 | 2026-08-31 08:10:28 | 53.09232 | 8.05715 | 57° | 71km/h | 14745m | -15.9m/s | -48°C | 3% | 129.9hPa | 2.7V | 08:23:27 | 01:34:58 | 00:00:00 | |
| DL1XH-15 | 2026-08-31 08:10:28 | 53.09192 | 8.05616 | 54° | 71km/h | 14808m | -15.1m/s | -47.8°C | 2.9% | 128.7hPa | 2.7V | 08:23:31 | 01:34:54 | 00:00:00 | |
| HSKMA3-T | 2026-08-31 08:10:28 | 53.09242 | 8.05740 | 58° | 71km/h | 14729m | -15.8m/s | -48°C | 0% | 130.2hPa | 2.7V | 08:24:04 | 01:34:59 | 00:00:00 | |
| AA1-15 | 2026-08-31 08:10:25 | 53.09212 | 8.05665 | 57° | 71km/h | 14777m | -15.3m/s | -47.7°C | 0% | 129.3hPa | 2.6V | 08:24:04 | 01:34:56 | 00:00:00 | |
| DL1XH-west | 2026-08-31 08:10:23 | 53.09192 | 8.05616 | 55° | 71km/h | 14808m | -15.1m/s | -47.8°C | 0% | 128.7hPa | 2.7V | 08:24:04 | 01:34:54 | 00:00:00 | |
| BIOWL1-15 | 2026-08-31 08:10:22 | 53.09159 | 8.05542 | 53° | 73km/h | 14854m | -15.5m/s | -48.2°C | 0% | 127.8hPa | 2.6V | 08:24:04 | 01:34:51 | 00:00:00 | |
| DO2JMG | 2026-08-31 08:10:19 | 53.09148 | 8.05518 | 52° | 73km/h | 14869m | -15.3m/s | -48.3°C | 0% | 127.5hPa | 2.7V | 08:24:04 | 01:34:50 | 00:00:00 | |
| HSKMA3-T | 2026-08-31 08:10:18 | 53.09137 | 8.05494 | 51° | 75km/h | 14884m | -15.2m/s | -48.4°C | 0% | 127.2hPa | 2.7V | 08:24:04 | 01:34:49 | 00:00:00 | |
| AA1-15 | 2026-08-31 08:10:14 | 53.09084 | 8.05398 | 46° | 80km/h | 14945m | -15.7m/s | -48.8°C | 0.1% | 126hPa | 2.6V | 08:24:04 | 01:34:45 | 00:00:00 | |
| DL1XH-west | 2026-08-31 08:10:12 | 53.09056 | 8.05348 | 46° | 84km/h | 14975m | -15.4m/s | -48.9°C | 0.1% | 125.4hPa | 2.7V | 08:24:04 | 01:34:43 | 00:00:00 | |
| DL4BBY-15 | 2026-08-31 08:10:11 | 53.09041 | 8.05323 | 47° | 62km/h | 14991m | -15.3m/s | -51.8°C | 0% | 0hPa | 2.6V | 00:00:00 | 00:00:00 | 00:00:00 | |
| DL1XH1-15 | 2026-08-31 08:10:10 | 53.08961 | 8.05170 | 54° | 73km/h | 15082m | -15.7m/s | -47.9°C | 2.9% | 123.3hPa | 2.6V | 08:23:49 | 01:34:36 | 00:00:00 | |
| BIOWL1-15 | 2026-08-31 08:10:10 | 53.09026 | 8.05297 | 47° | 82km/h | 15006m | -15.5m/s | -48.4°C | 0% | 124.8hPa | 2.6V | 08:24:04 | 01:34:41 | 00:00:00 | |
| DB0DAN | 2026-08-31 08:10:10 | 53.09026 | 8.05297 | 47° | 78km/h | 15006m | -15.5m/s | -48.4°C | 1% | 124.84hPa | 2.6V | 00:00:00 | 00:00:00 | 00:00:00 | |
| DO2JMG | 2026-08-31 08:10:08 | 53.08999 | 8.05246 | 49° | 80km/h | 15036m | -15.7m/s | -48.1°C | 0% | 124.2hPa | 2.6V | 08:24:04 | 01:34:39 | 00:00:00 | |
| AA1-15 | 2026-08-31 08:10:04 | 53.08951 | 8.05146 | 55° | 71km/h | 15097m | -15.6m/s | -47.9°C | 0% | 123hPa | 2.6V | 08:24:04 | 01:34:35 | 00:00:00 | |
| GOEST3-10 | 2026-08-31 08:10:04 | 53.08951 | 8.05145 | 55° | 68km/h | 15098m | -15.5m/s | -47.8°C | 2.9% | 123.0hPa | 2.7V | 00:00:00 | 00:00:00 | 00:00:00 | |
| DN9WHV | 2026-08-31 08:10:03 | 53.08951 | 8.05145 | 55° | 71km/h | 15098m | -15.6m/s | -47.9°C | 0.9% | 123.0hPa | 2.7V | 08:24:00 | 00:00:00 | 00:00:00 | |
| DM0DOS-11 | 2026-08-31 08:10:02 | 53.08892 | 8.04979 | 64° | 60km/h | 15207m | -17.3m/s | -47.5°C | 2.8% | 121hPa | 2.7V | 08:23:57 | 01:34:28 | 00:00:00 | |
| DL1XH-west | 2026-08-31 08:10:01 | 53.08922 | 8.05073 | 59° | 66km/h | 15143m | -16.2m/s | -47.8°C | 0% | 122.2hPa | 2.6V | 08:24:04 | 01:34:32 | 00:00:00 | |
| DJ2DS-15 | 2026-08-31 08:10:01 | 53.08922 | 8.05073 | 59° | 55km/h | 15143m | -16.1m/s | -47.7°C | 2.9% | 122.2hPa | 2.6V | 00:00:00 | 01:34:32 | 00:00:00 | |
| DL1XH1-15 | 2026-08-31 08:10:00 | 53.08880 | 8.04934 | 67° | 57km/h | 15240m | -17.2m/s | -47.5°C | 2.8% | 120.4hPa | 2.6V | 08:23:59 | 01:34:26 | 00:00:00 | |
| BIOWL1-15 | 2026-08-31 08:09:59 | 53.08906 | 8.05025 | 62° | 62km/h | 15174m | -17.1m/s | -47.5°C | 0% | 121.6hPa | 2.6V | 08:24:04 | 01:34:30 | 00:00:00 | |
| DO2JMG | 2026-08-31 08:09:58 | 53.08899 | 8.05002 | 63° | 60km/h | 15191m | -17.2m/s | -47.5°C | 0% | 121.4hPa | 2.7V | 08:24:04 | 01:34:29 | 00:00:00 | |
| HSKMA3-T | 2026-08-31 08:09:57 | 53.08892 | 8.04979 | 64° | 60km/h | 15207m | -17.3m/s | -47.5°C | 0% | 121hPa | 2.7V | 08:24:04 | 01:34:28 | 00:00:00 | |
| DN9WHV | 2026-08-31 08:09:56 | 53.08892 | 8.04979 | 65° | 60km/h | 15207m | -17.3m/s | -47.5°C | 0.9% | 121.0hPa | 2.6V | 08:24:00 | 00:00:00 | 00:00:00 | |
| DB0DAN | 2026-08-31 08:09:55 | 53.08880 | 8.04934 | 67° | 55km/h | 15240m | -17.2m/s | -47.5°C | 0.9% | 120.41hPa | 2.6V | 00:00:00 | 00:00:00 | 00:00:00 | |
| GOEST3-10 | 2026-08-31 08:09:54 | 53.08875 | 8.04912 | 68° | 55km/h | 15257m | -17.1m/s | -47.6°C | 2.8% | 120.1hPa | 2.6V | 00:00:00 | 00:00:00 | 00:00:00 | |
| DL1NUX | 2026-08-31 08:09:53 | 53.08847 | 8.04787 | 69° | 51km/h | 15356m | -16.9m/s | -48°C | 2.9% | 118.4hPa | 2.6V | 08:24:06 | 01:34:19 | 00:00:00 | |
| AA1-15 | 2026-08-31 08:09:53 | 53.08870 | 8.04890 | 69° | 55km/h | 15274m | -16.8m/s | -47.8°C | 0% | 119.8hPa | 2.6V | 08:24:04 | 01:34:24 | 00:00:00 | |
| DL1XH-west | 2026-08-31 08:09:51 | 53.08860 | 8.04848 | 69° | 53km/h | 15307m | -16.7m/s | -47.9°C | 0% | 119.2hPa | 2.7V | 08:24:04 | 01:34:22 | 00:00:00 | |
| BIOWL1-15 | 2026-08-31 08:09:48 | 53.08846 | 8.04787 | 69° | 51km/h | 15356m | -16.9m/s | -48°C | 0% | 118.4hPa | 2.6V | 08:24:55 | 01:34:19 | 00:00:00 | |
| DO2JMG | 2026-08-31 08:09:47 | 53.08842 | 8.04767 | 68° | 51km/h | 15372m | -16.6m/s | -48.1°C | 0% | 118.1hPa | 2.6V | 08:24:55 | 01:34:18 | 00:00:00 | |
| DL3AQ-11 | 2026-08-31 08:09:47 | 53.08838 | 8.04747 | 68° | 47km/h | 15389m | -16.8m/s | -48.1°C | 0.9% | 117.8hPa | 2.6V | 00:00:00 | 00:00:00 | 00:00:00 | |
| D01LWL | 2026-08-31 08:09:45 | 53.08830 | 8.04711 | 68° | 46km/h | 15423m | -16.8m/s | -48.2°C | 0.9% | 117.2hPa | 2.6V | 00:00:00 | 00:00:00 | 00:00:00 | |
| GOEST3-10 | 2026-08-31 08:09:44 | 53.08830 | 8.04710 | 69° | 44km/h | 15423m | -16.8m/s | -48.1°C | 2.9% | 117.2hPa | 2.6V | 00:00:00 | 00:00:00 | 00:00:00 | |
| DL1NUX | 2026-08-31 08:09:43 | 53.08805 | 8.04615 | 63° | 40km/h | 15522m | -16.4m/s | -48.4°C | 2.9% | 115.5hPa | 2.6V | 08:24:16 | 01:34:09 | 00:00:00 | |
| DN9WHV | 2026-08-31 08:09:43 | 53.08825 | 8.04693 | 69° | 44km/h | 15439m | -16.5m/s | -48.3°C | 0.9% | 116.9hPa | 2.7V | 08:24:00 | 00:00:00 | 00:00:00 | |
| DM0DOS-11 | 2026-08-31 08:09:42 | 53.08801 | 8.04600 | 63° | 40km/h | 15538m | -16.6m/s | -48.5°C | 3% | 115.3hPa | 2.7V | 08:24:17 | 01:34:08 | 00:00:00 | |
| AA1-15 | 2026-08-31 08:09:42 | 53.08821 | 8.04677 | 67° | 44km/h | 15455m | -16.5m/s | -48.3°C | 0% | 116.7hPa | 2.7V | 08:24:55 | 01:34:13 | 00:00:00 | |
| DB0DAN | 2026-08-31 08:09:40 | 53.08813 | 8.04645 | 65° | 38km/h | 15489m | -16.6m/s | -48.4°C | 0.9% | 116.13hPa | 2.6V | 00:00:00 | 00:00:00 | 00:00:00 | |
| DL1XH-west | 2026-08-31 08:09:40 | 53.08813 | 8.04645 | 65° | 40km/h | 15489m | -16.6m/s | -48.4°C | 0% | 116.1hPa | 2.6V | 08:24:55 | 01:34:11 | 00:00:00 | |
| DO2SHX-10 | 2026-08-31 08:09:40 | 53.08813 | 8.04645 | 66° | 40km/h | 15489m | -16.5m/s | -48.4°C | 2.9% | 116.1hPa | 2.6V | 00:00:00 | 01:34:11 | 00:00:00 | |
| DD8BA-10 | 2026-08-31 08:09:39 | 53.08809 | 8.04630 | 65° | 42km/h | 15506m | -16.5m/s | -48.4°C | 2.9% | 115.8hPa | 2.6V | 00:00:00 | 00:00:00 | 00:00:00 | |
| DL1XH-15 | 2026-08-31 08:09:38 | 53.08782 | 8.04543 | 60° | 42km/h | 15605m | -16.2m/s | -48.8°C | 3% | 114.1hPa | 2.6V | 08:24:21 | 01:34:04 | 00:00:00 | |
| DO2JMG | 2026-08-31 08:09:37 | 53.08801 | 8.04600 | 63° | 40km/h | 15538m | -16.6m/s | -48.5°C | 0% | 115.3hPa | 2.7V | 08:24:55 | 01:34:08 | 00:00:00 | |
| HSKMA3-T | 2026-08-31 08:09:36 | 53.08797 | 8.04586 | 62° | 40km/h | 15555m | -16.6m/s | -48.6°C | 0% | 115hPa | 2.7V | 08:24:55 | 01:34:07 | 00:00:00 | |
| SO1NDE-10 | 2026-08-31 08:09:36 | 53.08797 | 8.04586 | 63° | 44km/h | 15555m | -16.5m/s | -48.5°C | 3.0% | 114.9hPa | 2.7V | 00:00:00 | 01:34:07 | 00:00:00 | |
| DN9WHV | 2026-08-31 08:09:35 | 53.08797 | 8.04586 | 63° | 40km/h | 15555m | -16.6m/s | -48.6°C | 0.9% | 115.0hPa | 2.6V | 08:24:00 | 00:00:00 | 00:00:00 | |
| DO2SHX-10 | 2026-08-31 08:09:34 | 53.08787 | 8.04558 | 62° | 42km/h | 15589m | -16.3m/s | -48.7°C | 3.0% | 114.3hPa | 2.6V | 00:00:00 | 01:34:05 | 00:00:00 | |
| DL1NUX | 2026-08-31 08:09:33 | 53.08755 | 8.04459 | 62° | 51km/h | 15686m | -16.2m/s | -49°C | 3.1% | 112.7hPa | 2.6V | 08:24:26 | 01:33:59 | 00:00:00 | |
| DM0DOS-11 | 2026-08-31 08:09:32 | 53.08749 | 8.04440 | 63° | 51km/h | 15702m | -16.2m/s | -49.1°C | 3.1% | 112.4hPa | 2.6V | 08:24:27 | 01:33:58 | 00:00:00 | |
| AA1-15 | 2026-08-31 08:09:31 | 53.08772 | 8.04512 | 61° | 46km/h | 15638m | -16.2m/s | -48.8°C | 0% | 113.5hPa | 2.7V | 08:24:55 | 01:34:02 | 00:00:00 | |
| DL1XH-west | 2026-08-31 08:09:29 | 53.08761 | 8.04478 | 62° | 49km/h | 15670m | -16.3m/s | -48.9°C | 0% | 112.9hPa | 2.7V | 08:24:55 | 01:34:00 | 00:00:00 | |
| DD8BA-10 | 2026-08-31 08:09:29 | 53.08760 | 8.04477 | 62° | 49km/h | 15670m | -16.2m/s | -48.9°C | 3.1% | 112.9hPa | 2.6V | 00:00:00 | 00:00:00 | 00:00:00 | |
| DL1XH-15 | 2026-08-31 08:09:28 | 53.08727 | 8.04364 | 64° | 49km/h | 15767m | -16.4m/s | -49.2°C | 3.1% | 111.2hPa | 2.6V | 08:24:31 | 01:33:54 | 00:00:00 | |
| DO2JMG | 2026-08-31 08:09:27 | 53.08749 | 8.04440 | 63° | 51km/h | 15702m | -16.2m/s | -49.1°C | 0% | 112.4hPa | 2.6V | 08:24:55 | 01:33:58 | 00:00:00 | |
| HSKMA3-T | 2026-08-31 08:09:26 | 53.08743 | 8.04421 | 64° | 51km/h | 15719m | -16.2m/s | -49.2°C | 0% | 112.1hPa | 2.6V | 08:24:55 | 01:33:57 | 00:00:00 | |
| DO2SHX-10 | 2026-08-31 08:09:25 | 53.08737 | 8.04402 | 65° | 51km/h | 15735m | -16.3m/s | -49.2°C | 3.1% | 111.7hPa | 2.7V | 00:00:00 | 01:33:56 | 00:00:00 | |
| GOEST3-10 | 2026-08-31 08:09:24 | 53.08732 | 8.04382 | 65° | 47km/h | 15751m | -16.4m/s | -49.2°C | 3.1% | 111.5hPa | 2.6V | 00:00:00 | 00:00:00 | 00:00:00 | |
| DN9WHV | 2026-08-31 08:09:23 | 53.08732 | 8.04382 | 65° | 51km/h | 15751m | -16.4m/s | -49.2°C | 1.0% | 111.6hPa | 2.6V | 08:24:00 | 00:00:00 | 00:00:00 | |
| DM0DOS-11 | 2026-08-31 08:09:22 | 53.08696 | 8.04272 | 51° | 38km/h | 15867m | -17m/s | -49.2°C | 3.1% | 109.5hPa | 2.6V | 08:24:37 | 01:33:48 | 00:00:00 | |
| DL1NUX | 2026-08-31 08:09:22 | 53.08702 | 8.04284 | 55° | 38km/h | 15851m | -17m/s | -49.2°C | 3.1% | 109.8hPa | 2.6V | 08:24:36 | 01:33:49 | 00:00:00 | |
| DF8AY | 2026-08-31 08:09:20 | 53.08684 | 8.04246 | 51° | 40km/h | 15902m | -16.7m/s | -48.9°C | 0% | 109hPa | 2.7V | 08:24:55 | 01:33:46 | 00:00:00 | |
| AA1-15 | 2026-08-31 08:09:20 | 53.08712 | 8.04313 | 61° | 42km/h | 15817m | -16.8m/s | -49.4°C | 0.1% | 110.4hPa | 2.7V | 08:24:55 | 01:33:51 | 00:00:00 | |
| DL1XH-west | 2026-08-31 08:09:19 | 53.08706 | 8.04298 | 58° | 40km/h | 15834m | -17.4m/s | -49.2°C | 0% | 110.1hPa | 2.6V | 08:24:55 | 01:33:50 | 00:00:00 | |
| DO2JMG | 2026-08-31 08:09:16 | 53.08690 | 8.04259 | 51° | 40km/h | 15885m | -17.1m/s | -49.1°C | 0% | 109.3hPa | 2.7V | 08:24:55 | 01:33:47 | 00:00:00 | |
| DO2SHX-10 | 2026-08-31 08:09:16 | 53.08690 | 8.04259 | 52° | 40km/h | 15885m | -17.0m/s | -49.1°C | 3.1% | 109.2hPa | 2.7V | 08:24:00 | 01:33:47 | 00:00:00 | |
| DC4HF-4 | 2026-08-31 08:09:15 | 53.08678 | 8.04233 | 51° | 38km/h | 15918m | -16.9m/s | -49.0°C | 0.9% | 108.7hPa | 2.6V | 00:00:00 | 00:00:00 | 00:00:00 | |
| D01LWL | 2026-08-31 08:09:14 | 53.08673 | 8.04220 | 51° | 38km/h | 15936m | -17.1m/s | -49.0°C | 1.0% | 108.5hPa | 2.6V | 00:00:00 | 00:00:00 | 00:00:00 | |
| DO2SHX-10 | 2026-08-31 08:09:13 | 53.08673 | 8.04220 | 52° | 42km/h | 15936m | -17.1m/s | -48.9°C | 3.1% | 108.4hPa | 2.6V | 00:00:00 | 01:33:44 | 00:00:00 | |
| DM0DOS-11 | 2026-08-31 08:09:12 | 53.08636 | 8.04137 | 54° | 46km/h | 16037m | -17.5m/s | -49°C | 3.1% | 106.8hPa | 2.6V | 08:24:47 | 01:33:38 | 00:00:00 | |
| DL1NUX | 2026-08-31 08:09:11 | 53.08642 | 8.04152 | 53° | 44km/h | 16020m | -17.1m/s | -49°C | 3% | 107.1hPa | 2.7V | 08:24:46 | 01:33:39 | 00:00:00 | |
| DL4BBY-15 | 2026-08-31 08:09:11 | 53.08661 | 8.04194 | 52° | 44km/h | 15971m | -16.8m/s | -51.7°C | 0% | 0hPa | 2.6V | 00:00:00 | 00:00:00 | 00:00:00 | |
| DL1XH1-15 | 2026-08-31 08:09:10 | 53.08624 | 8.04106 | 57° | 46km/h | 16071m | -17.2m/s | -48.9°C | 3% | 106.2hPa | 2.6V | 08:24:49 | 01:33:36 | 00:00:00 | |
| DB0DAN | 2026-08-31 08:09:10 | 53.08655 | 8.04181 | 52° | 40km/h | 15987m | -16.9m/s | -48.9°C | 0.9% | 107.62hPa | 2.7V | 00:00:00 | 00:00:00 | 00:00:00 | |
| AA1-15 | 2026-08-31 08:09:09 | 53.08648 | 8.04166 | 53° | 44km/h | 16003m | -17m/s | -48.9°C | 0% | 107.3hPa | 2.7V | 08:24:55 | 01:33:40 | 00:00:00 | |
| DL1XH-west | 2026-08-31 08:09:08 | 53.08642 | 8.04152 | 53° | 44km/h | 16021m | -17.1m/s | -49°C | 0% | 107.1hPa | 2.7V | 08:24:55 | 01:33:39 | 00:00:00 | |
| DO2JMG | 2026-08-31 08:09:06 | 53.08630 | 8.04122 | 56° | 46km/h | 16055m | -16.9m/s | -49°C | 0% | 106.5hPa | 2.6V | 08:24:55 | 01:33:37 | 00:00:00 | |
| HSKMA3-T | 2026-08-31 08:09:05 | 53.08624 | 8.04106 | 57° | 46km/h | 16071m | -17.2m/s | -48.9°C | 0% | 106.2hPa | 2.6V | 08:24:55 | 01:33:36 | 00:00:00 | |
| DL1XH-15 | 2026-08-31 08:09:04 | 53.08612 | 8.04073 | 59° | 47km/h | 16106m | -17.1m/s | -49°C | 3% | 105.7hPa | 2.7V | 08:24:51 | 01:33:34 | 00:00:00 | |
| SO1NDE-10 | 2026-08-31 08:09:04 | 53.08618 | 8.04090 | 58° | 42km/h | 16089m | -17.0m/s | -48.9°C | 3.0% | 105.9hPa | 2.6V | 00:00:00 | 01:33:35 | 00:00:00 | |
| DO2SHX-10 | 2026-08-31 08:09:03 | 53.08612 | 8.04073 | 60° | 49km/h | 16106m | -17.1m/s | -49.0°C | 3.0% | 105.6hPa | 2.6V | 00:00:00 | 01:33:34 | 00:00:00 | |
| DM0DOS-11 | 2026-08-31 08:09:02 | 53.08578 | 8.03968 | 63° | 49km/h | 16209m | -17m/s | -49.1°C | 3% | 104hPa | 2.6V | 08:24:57 | 01:33:28 | 00:00:00 | |
| DL1NUX | 2026-08-31 08:09:01 | 53.08583 | 8.03986 | 62° | 49km/h | 16192m | -16.9m/s | -49.2°C | 3% | 104.3hPa | 2.6V | 08:24:56 | 01:33:29 | 00:00:00 | |
| DJ2DS-15 | 2026-08-31 08:09:01 | 53.08600 | 8.04038 | 61° | 44km/h | 16141m | -16.8m/s | -49.0°C | 3.0% | 105.0hPa | 2.7V | 00:00:00 | 01:33:32 | 00:00:00 | |
| DL1XH1-15 | 2026-08-31 08:09:00 | 53.08568 | 8.03932 | 66° | 47km/h | 16243m | -17.1m/s | -49.3°C | 3.1% | 103.5hPa | 2.7V | 08:24:59 | 01:33:26 | 00:00:00 | |
| AA1-15 | 2026-08-31 08:08:59 | 53.08589 | 8.04003 | 62° | 49km/h | 16175m | -17.1m/s | -49.2°C | 0% | 104.5hPa | 2.7V | 08:24:55 | 01:33:30 | 00:00:00 | |
| DL1XH-west | 2026-08-31 08:08:57 | 53.08578 | 8.03968 | 64° | 49km/h | 16209m | -17m/s | -49.1°C | 0% | 104hPa | 2.6V | 08:25:46 | 01:33:28 | 00:00:00 | |
| DO2JMG | 2026-08-31 08:08:56 | 53.08573 | 8.03950 | 65° | 49km/h | 16226m | -17.3m/s | -49.2°C | 0% | 103.7hPa | 2.7V | 08:25:46 | 01:33:27 | 00:00:00 | |
| BIOWL1-15 | 2026-08-31 08:08:55 | 53.08568 | 8.03931 | 66° | 47km/h | 16243m | -17.1m/s | -49.3°C | 0% | 103.5hPa | 2.7V | 08:25:46 | 01:33:26 | 00:00:00 | |
| DB0DAN | 2026-08-31 08:08:55 | 53.08568 | 8.03931 | 66° | 46km/h | 16243m | -17.1m/s | -49.3°C | 1% | 103.48hPa | 2.7V | 00:00:00 | 00:00:00 | 00:00:00 | |
| DF8AY | 2026-08-31 08:08:54 | 53.08564 | 8.03913 | 68° | 47km/h | 16260m | -17.3m/s | -49.3°C | 0% | 103.2hPa | 2.6V | 08:25:46 | 01:33:25 | 00:00:00 | |
| DL1XH-15 | 2026-08-31 08:08:54 | 53.08560 | 8.03895 | 70° | 47km/h | 16278m | -17.5m/s | -49.3°C | 3.1% | 102.9hPa | 2.6V | 08:25:01 | 01:33:24 | 00:00:00 | |
| DO2SHX-10 | 2026-08-31 08:08:54 | 53.08564 | 8.03913 | 69° | 46km/h | 16260m | -17.2m/s | -49.3°C | 3.0% | 103.1hPa | 2.6V | 00:00:00 | 01:33:25 | 00:00:00 | |
| DL8OAI-8 | 2026-08-31 08:08:53 | 53.08564 | 8.03913 | 69° | 47km/h | 16260m | -17.3m/s | -49.3°C | 0.9% | 103.2hPa | 2.6V | 08:25:00 | 00:00:00 | 00:00:00 | |
| DM0DOS-11 | 2026-08-31 08:08:52 | 53.08543 | 8.03788 | 76° | 40km/h | 16380m | -17.7m/s | -49.6°C | 3.1% | 101.3hPa | 2.6V | 08:25:07 | 01:33:18 | 00:00:00 | |
| DL1NUX | 2026-08-31 08:08:51 | 53.08545 | 8.03805 | 76° | 42km/h | 16363m | -17.8m/s | -49.6°C | 3.1% | 101.6hPa | 2.6V | 08:25:06 | 01:33:19 | 00:00:00 | |
| DF5WG-10 | 2026-08-31 08:08:51 | 53.08553 | 8.03858 | 74° | 40km/h | 16312m | -17.2m/s | -49.4°C | 3.1% | 102.4hPa | 2.7V | 00:00:00 | 01:33:22 | 00:00:00 | |
| DL1XH1-15 | 2026-08-31 08:08:50 | 53.08538 | 8.03757 | 75° | 38km/h | 16415m | -18m/s | -49.5°C | 3.1% | 100.8hPa | 2.7V | 08:25:09 | 01:33:16 | 00:00:00 | |
| AA1-15 | 2026-08-31 08:08:48 | 53.08545 | 8.03805 | 76° | 42km/h | 16363m | -17.8m/s | -49.7°C | 0% | 101.6hPa | 2.6V | 08:25:46 | 01:33:19 | 00:00:00 | |
| DL1XH-west | 2026-08-31 08:08:46 | 53.08541 | 8.03772 | 77° | 38km/h | 16398m | -17.8m/s | -49.6°C | 0% | 101hPa | 2.6V | 08:25:46 | 01:33:17 | 00:00:00 | |
| DO2JMG | 2026-08-31 08:08:45 | 53.08539 | 8.03757 | 75° | 38km/h | 16415m | -18m/s | -49.6°C | 0% | 100.8hPa | 2.7V | 08:25:46 | 01:33:16 | 00:00:00 | |
| BIOWL1-15 | 2026-08-31 08:08:44 | 53.08536 | 8.03742 | 74° | 37km/h | 16432m | -18m/s | -49.6°C | 0% | 100.5hPa | 2.7V | 08:25:46 | 01:33:15 | 00:00:00 | |
| DF8AY | 2026-08-31 08:08:43 | 53.08534 | 8.03728 | 72° | 35km/h | 16450m | -18m/s | -49.6°C | 0% | 100.2hPa | 2.7V | 08:25:46 | 01:33:14 | 00:00:00 | |
| D01LWL | 2026-08-31 08:08:43 | 53.08531 | 8.03715 | 69° | 33km/h | 16468m | -18.1m/s | -49.7°C | 0.9% | 99.9hPa | 2.6V | 00:00:00 | 00:00:00 | 00:00:00 | |
| DM0DOS-11 | 2026-08-31 08:08:42 | 53.08512 | 8.03659 | 50° | 31km/h | 16557m | -17.8m/s | -49.8°C | 3.2% | 98.6hPa | 2.6V | 08:25:17 | 01:33:08 | 00:00:00 | |
| DL4BBY-15 | 2026-08-31 08:08:41 | 53.08528 | 8.03703 | 66° | 40km/h | 16487m | -17.6m/s | -52.7°C | 0% | 0hPa | 2.7V | 00:00:00 | 00:00:00 | 00:00:00 | |
| DL1XH1-15 | 2026-08-31 08:08:40 | 53.08502 | 8.03639 | 45° | 31km/h | 16592m | -17.7m/s | -49.8°C | 3.2% | 98.1hPa | 2.7V | 08:25:19 | 01:33:06 | 00:00:00 | |
| DB0DAN | 2026-08-31 08:08:40 | 53.08525 | 8.03691 | 61° | 31km/h | 16505m | -17.7m/s | -49.8°C | 0.9% | 99.4hPa | 2.6V | 00:00:00 | 00:00:00 | 00:00:00 | |
| DL3AQ-11 | 2026-08-31 08:08:40 | 53.08521 | 8.03680 | 56° | 31km/h | 16522m | -17.5m/s | -49.8°C | 0.9% | 99.1hPa | 2.6V | 00:00:00 | 00:00:00 | 00:00:00 | |
| DC4HF-4 | 2026-08-31 08:08:39 | 53.08517 | 8.03669 | 54° | 31km/h | 16539m | -17.6m/s | -49.8°C | 0.9% | 98.9hPa | 2.6V | 00:00:00 | 00:00:00 | 00:00:00 | |
| DL1XH-15 | 2026-08-31 08:08:38 | 53.08490 | 8.03621 | 39° | 33km/h | 16628m | -17.7m/s | -49.5°C | 3.1% | 97.5hPa | 2.6V | 08:25:21 | 01:33:04 | 00:00:00 | |
| AA1-15 | 2026-08-31 08:08:38 | 53.08517 | 8.03669 | 55° | 31km/h | 16539m | -17.6m/s | -49.8°C | 0% | 98.9hPa | 2.7V | 08:25:46 | 01:33:09 | 00:00:00 | |
| DL1XH-west | 2026-08-31 08:08:35 | 53.08502 | 8.03639 | 46° | 31km/h | 16592m | -17.7m/s | -49.8°C | 0% | 98.1hPa | 2.7V | 08:25:46 | 01:33:06 | 00:00:00 | |
| DO2JMG | 2026-08-31 08:08:34 | 53.08496 | 8.03630 | 42° | 33km/h | 16610m | -17.8m/s | -49.7°C | 0% | 97.8hPa | 2.7V | 08:25:46 | 01:33:05 | 00:00:00 | |
| BIOWL1-15 | 2026-08-31 08:08:33 | 53.08490 | 8.03621 | 40° | 33km/h | 16628m | -17.7m/s | -49.5°C | 0% | 97.5hPa | 2.6V | 08:25:46 | 01:33:04 | 00:00:00 | |
| BUE01 | 2026-08-31 08:08:32 | 53.08477 | 8.03603 | 37° | 35km/h | 16663m | -17.9m/s | -49.6°C | 0.9% | 97.0hPa | 2.6V | 00:00:00 | 00:00:00 | 00:00:00 | |
| DO2SHX-10 | 2026-08-31 08:08:31 | 53.08477 | 8.03603 | 38° | 38km/h | 16663m | -17.8m/s | -49.5°C | 3.1% | 97.0hPa | 2.6V | 00:00:00 | 01:33:02 | 00:00:00 | |
| DL1XH1-15 | 2026-08-31 08:08:30 | 53.08427 | 8.03541 | 35° | 46km/h | 16768m | -18.3m/s | -50.2°C | 3.2% | 95.4hPa | 2.6V | 08:25:29 | 01:32:56 | 00:00:00 | |
| DL4XJ-10 | 2026-08-31 08:08:30 | 53.08470 | 8.03593 | 37° | 44km/h | 16681m | -17.5m/s | -52.7°C | 0% | 0hPa | 2.7V | 00:00:00 | 00:00:00 | 00:00:00 | |
| GOEST3-10 | 2026-08-31 08:08:29 | 53.08462 | 8.03584 | 37° | 44km/h | 16698m | -17.6m/s | -49.8°C | 3.1% | 96.4hPa | 2.7V | 08:25:00 | 01:33:00 | 00:00:00 | |
| DL1XH-15 | 2026-08-31 08:08:28 | 53.08407 | 8.03517 | 37° | 47km/h | 16805m | -18.3m/s | -50.1°C | 3.2% | 94.9hPa | 2.7V | 08:25:31 | 01:32:54 | 00:00:00 | |
| DF8AY | 2026-08-31 08:08:27 | 53.08398 | 8.03504 | 38° | 47km/h | 16823m | -18.6m/s | -50.2°C | 0% | 94.6hPa | 2.7V | 08:25:46 | 01:32:53 | 00:00:00 | |
| AA1-15 | 2026-08-31 08:08:27 | 53.08445 | 8.03563 | 36° | 44km/h | 16733m | -17.7m/s | -50.1°C | 0.1% | 95.9hPa | 2.6V | 08:25:46 | 01:32:58 | 00:00:00 | |
| DN9WHV | 2026-08-31 08:08:26 | 53.08445 | 8.03562 | 37° | 44km/h | 16734m | -17.7m/s | -50.1°C | 1.0% | 95.9hPa | 2.6V | 08:25:00 | 00:00:00 | 00:00:00 | |
| DB0DAN | 2026-08-31 08:08:25 | 53.08427 | 8.03541 | 36° | 44km/h | 16768m | -18.3m/s | -50.2°C | 0.9% | 95.43hPa | 2.6V | 00:00:00 | 00:00:00 | 00:00:00 | |
| DL1XH-west | 2026-08-31 08:08:25 | 53.08427 | 8.03541 | 36° | 46km/h | 16768m | -18.3m/s | -50.2°C | 0% | 95.4hPa | 2.6V | 08:25:46 | 01:32:56 | 00:00:00 | |
| DO2JMG | 2026-08-31 08:08:23 | 53.08407 | 8.03517 | 37° | 47km/h | 16805m | -18.3m/s | -50.1°C | 0% | 94.9hPa | 2.7V | 08:25:46 | 01:32:54 | 00:00:00 | |
| DM0DOS-11 | 2026-08-31 08:08:22 | 53.08354 | 8.03440 | 47° | 42km/h | 16915m | -18.9m/s | -50.4°C | 3.3% | 93.3hPa | 2.7V | 08:25:37 | 01:32:48 | 00:00:00 | |
| DO2SHX-10 | 2026-08-31 08:08:22 | 53.08398 | 8.03504 | 39° | 47km/h | 16823m | -18.6m/s | -50.1°C | 3.2% | 94.6hPa | 2.7V | 00:00:00 | 01:32:53 | 00:00:00 | |
| DJ2DS-15 | 2026-08-31 08:08:21 | 53.08388 | 8.03492 | 40° | 42km/h | 16841m | -18.8m/s | -50.2°C | 3.2% | 94.3hPa | 2.6V | 00:00:00 | 01:32:52 | 00:00:00 | |
| DL1XH1-15 | 2026-08-31 08:08:20 | 53.08341 | 8.03414 | 52° | 38km/h | 16952m | -18.6m/s | -50.3°C | 3.2% | 92.7hPa | 2.6V | 08:25:39 | 01:32:46 | 00:00:00 | |
| GOEST3-10 | 2026-08-31 08:08:19 | 53.08370 | 8.03466 | 44° | 42km/h | 16878m | -18.7m/s | -50.3°C | 3.2% | 93.8hPa | 2.6V | 00:00:00 | 01:32:50 | 00:00:00 | |
| DL1XH-15 | 2026-08-31 08:08:18 | 53.08329 | 8.03388 | 55° | 37km/h | 16990m | -18.7m/s | -50.3°C | 3.2% | 92.2hPa | 2.6V | 08:25:41 | 01:32:44 | 00:00:00 | |
| AA1-15 | 2026-08-31 08:08:16 | 53.08347 | 8.03427 | 50° | 40km/h | 16933m | -18.7m/s | -50.3°C | 0.1% | 93hPa | 2.7V | 08:25:46 | 01:32:47 | 00:00:00 | |
| DL1XH-west | 2026-08-31 08:08:14 | 53.08335 | 8.03401 | 54° | 38km/h | 16971m | -18.6m/s | -50.3°C | 0.1% | 92.5hPa | 2.6V | 08:25:46 | 01:32:45 | 00:00:00 | |
| DO2JMG | 2026-08-31 08:08:12 | 53.08324 | 8.03375 | 55° | 38km/h | 17008m | -18.6m/s | -50.3°C | 0.1% | 92hPa | 2.7V | 08:25:46 | 01:32:43 | 00:00:00 | |
| DF8AY | 2026-08-31 08:08:11 | 53.08318 | 8.03362 | 54° | 38km/h | 17026m | -18.6m/s | -50.3°C | 0.1% | 91.7hPa | 2.7V | 08:25:46 | 01:32:42 | 00:00:00 | |
| DL4BBY-15 | 2026-08-31 08:08:11 | 53.08319 | 8.03362 | 54° | 44km/h | 17027m | -18.5m/s | -53.3°C | 0% | 0hPa | 2.7V | 00:00:00 | 00:00:00 | 00:00:00 | |
| DL4XJ-10 | 2026-08-31 08:08:10 | 53.08312 | 8.03349 | 52° | 46km/h | 17045m | -18.6m/s | -53.3°C | 0% | 0hPa | 2.7V | 00:00:00 | 00:00:00 | 00:00:00 | |
| DD8BA-10 | 2026-08-31 08:08:09 | 53.08306 | 8.03336 | 49° | 46km/h | 17064m | -18.6m/s | -50.3°C | 3.3% | 91.2hPa | 2.7V | 00:00:00 | 00:00:00 | 00:00:00 | |
| DL1XH-15 | 2026-08-31 08:08:08 | 53.08257 | 8.03260 | 39° | 47km/h | 17177m | -19.6m/s | -50.2°C | 3.2% | 89.6hPa | 2.7V | 08:25:51 | 01:32:34 | 00:00:00 | |
| AA1-15 | 2026-08-31 08:08:05 | 53.08275 | 8.03285 | 41° | 46km/h | 17139m | -19.3m/s | -50.1°C | 0% | 90.2hPa | 2.6V | 08:26:37 | 01:32:36 | 00:00:00 | |
| DL1XH-west | 2026-08-31 08:08:03 | 53.08257 | 8.03260 | 40° | 47km/h | 17177m | -19.6m/s | -50.2°C | 0% | 89.6hPa | 2.7V | 08:26:37 | 01:32:34 | 00:00:00 | |
| DO2JMG | 2026-08-31 08:08:02 | 53.08248 | 8.03247 | 40° | 47km/h | 17197m | -19.8m/s | -50.3°C | 0% | 89.3hPa | 2.7V | 08:26:37 | 01:32:33 | 00:00:00 | |
| DF8AY | 2026-08-31 08:08:00 | 53.08230 | 8.03221 | 43° | 47km/h | 17236m | -19.6m/s | -50.4°C | 0.1% | 88.8hPa | 2.6V | 08:26:37 | 01:32:31 | 00:00:00 | |
| DD8BA-10 | 2026-08-31 08:07:59 | 53.08221 | 8.03207 | 44° | 47km/h | 17256m | -19.3m/s | -50.4°C | 3.3% | 88.5hPa | 2.6V | 00:00:00 | 00:00:00 | 00:00:00 | |
| DL1XH-15 | 2026-08-31 08:07:58 | 53.08173 | 8.03117 | 53° | 47km/h | 17371m | -19m/s | -50.6°C | 3.4% | 87hPa | 2.6V | 08:26:01 | 01:32:24 | 00:00:00 | |
| DO2SHX-10 | 2026-08-31 08:07:58 | 53.08212 | 8.03192 | 47° | 47km/h | 17276m | -18.9m/s | -50.4°C | 3.3% | 88.3hPa | 2.7V | 00:00:00 | 01:32:29 | 00:00:00 | |
| DF4FW | 2026-08-31 08:07:57 | 53.08203 | 8.03177 | 48° | 49km/h | 17294m | -19.0m/s | -50.5°C | 1.0% | 88.1hPa | 2.7V | 08:26:00 | 00:00:00 | 00:00:00 | |
| DN9WHV | 2026-08-31 08:07:56 | 53.08203 | 8.03177 | 48° | 49km/h | 17294m | -19.0m/s | -50.5°C | 1.0% | 88.1hPa | 2.7V | 08:26:00 | 00:00:00 | 00:00:00 | |
| DB0DAN | 2026-08-31 08:07:55 | 53.08188 | 8.03147 | 50° | 44km/h | 17333m | -19m/s | -50.6°C | 1% | 87.56hPa | 2.7V | 00:00:00 | 00:00:00 | 00:00:00 | |
| AA1-15 | 2026-08-31 08:07:54 | 53.08180 | 8.03132 | 53° | 47km/h | 17352m | -18.9m/s | -50.6°C | 0.2% | 87.3hPa | 2.6V | 08:26:37 | 01:32:25 | 00:00:00 | |
| BIOWL1-15 | 2026-08-31 08:07:52 | 53.08167 | 8.03101 | 56° | 46km/h | 17389m | -19.3m/s | -50.6°C | 0.1% | 86.8hPa | 2.6V | 08:26:37 | 01:32:23 | 00:00:00 | |
| DO2SHX-10 | 2026-08-31 08:07:51 | 53.08160 | 8.03085 | 58° | 46km/h | 17409m | -19.2m/s | -50.5°C | 3.4% | 86.4hPa | 2.7V | 00:00:00 | 01:32:22 | 00:00:00 | |
| DO2JMG | 2026-08-31 08:07:51 | 53.08160 | 8.03085 | 57° | 46km/h | 17408m | -19.3m/s | -50.6°C | 0.1% | 86.5hPa | 2.7V | 08:26:37 | 01:32:22 | 00:00:00 | |
| DL1XH1-15 | 2026-08-31 08:07:50 | 53.08130 | 8.02991 | 64° | 38km/h | 17524m | -19.1m/s | -50.4°C | 3.4% | 85hPa | 2.7V | 08:26:09 | 01:32:16 | 00:00:00 | |
| DF8AY | 2026-08-31 08:07:49 | 53.08149 | 8.03053 | 60° | 44km/h | 17448m | -19.2m/s | -50.7°C | 0.2% | 86hPa | 2.7V | 08:26:37 | 01:32:20 | 00:00:00 | |
| DD8BA-10 | 2026-08-31 08:07:49 | 53.08149 | 8.03053 | 60° | 38km/h | 17449m | -19.1m/s | -50.6°C | 3.5% | 85.9hPa | 2.7V | 08:26:00 | 00:00:00 | 00:00:00 | |
| DO2SHX-10 | 2026-08-31 08:07:48 | 53.08144 | 8.03037 | 63° | 40km/h | 17467m | -19.1m/s | -50.7°C | 3.5% | 85.7hPa | 2.6V | 00:00:00 | 01:32:19 | 00:00:00 | |
| DL1XH-15 | 2026-08-31 08:07:47 | 53.08121 | 8.02963 | 62° | 35km/h | 17563m | -19.4m/s | -50.3°C | 3.4% | 84.5hPa | 2.6V | 08:26:11 | 01:32:14 | 00:00:00 | |
| HTAHTA | 2026-08-31 08:07:46 | 53.08134 | 8.03006 | 63° | 40km/h | 17506m | -19.5m/s | -50.4°C | 1.0% | 85.2hPa | 2.6V | 00:00:00 | 00:00:00 | 00:00:00 | |
| SONCRA | 2026-08-31 08:07:45 | 53.08126 | 8.02976 | 62° | 35km/h | 17544m | -19.8m/s | -50.3°C | 1.0% | 84.7hPa | 2.6V | 00:00:00 | 00:00:00 | 00:00:00 | |
| AA1-15 | 2026-08-31 08:07:43 | 53.08122 | 8.02963 | 63° | 35km/h | 17563m | -19.4m/s | -50.3°C | 0.1% | 84.5hPa | 2.6V | 08:26:37 | 01:32:14 | 00:00:00 | |
| DL1XH-west | 2026-08-31 08:07:42 | 53.08118 | 8.02950 | 61° | 33km/h | 17581m | -19.7m/s | -50.3°C | 0.1% | 84.2hPa | 2.6V | 08:26:37 | 01:32:13 | 00:00:00 | |
| DO2JMG | 2026-08-31 08:07:41 | 53.08113 | 8.02938 | 58° | 33km/h | 17601m | -19.9m/s | -50.2°C | 0.2% | 84hPa | 2.7V | 08:26:37 | 01:32:12 | 00:00:00 | |
| DB0DAN | 2026-08-31 08:07:40 | 53.08109 | 8.02927 | 57° | 31km/h | 17621m | -19.9m/s | -50.2°C | 0.9% | 83.68hPa | 2.7V | 00:00:00 | 00:00:00 | 00:00:00 | |
| DF8AY | 2026-08-31 08:07:39 | 53.08105 | 8.02915 | 57° | 31km/h | 17640m | -20.2m/s | -50.2°C | 0.2% | 83.4hPa | 2.6V | 08:26:37 | 01:32:10 | 00:00:00 | |
| AA1-15 | 2026-08-31 08:07:32 | 53.08080 | 8.02843 | 63° | 27km/h | 17780m | -19.9m/s | -49.3°C | 0.1% | 81.7hPa | 2.7V | 08:26:37 | 01:32:03 | 00:00:00 | |
| DL1XH-west | 2026-08-31 08:07:31 | 53.08077 | 8.02833 | 61° | 27km/h | 17799m | -20m/s | -49.1°C | 0% | 81.4hPa | 2.7V | 08:26:37 | 01:32:02 | 00:00:00 | |
| HSKMA3-T | 2026-08-31 08:07:30 | 53.08073 | 8.02823 | 57° | 29km/h | 17819m | -20.1m/s | -49°C | 0% | 81.2hPa | 2.7V | 08:26:37 | 01:32:01 | 00:00:00 | |
| DF8AY | 2026-08-31 08:07:28 | 53.08064 | 8.02802 | 49° | 33km/h | 17858m | -19.6m/s | -48.9°C | 0% | 80.7hPa | 2.6V | 08:26:37 | 01:31:59 | 00:00:00 | |
| DL1XH-15 | 2026-08-31 08:07:28 | 53.08033 | 8.02756 | 33° | 35km/h | 17958m | -20.5m/s | -49.3°C | 3.1% | 79.5hPa | 2.6V | 08:26:31 | 01:31:54 | 00:00:00 | |
| GOEST3-10 | 2026-08-31 08:07:28 | 53.08064 | 8.02802 | 49° | 35km/h | 17858m | -19.6m/s | -48.8°C | 3.0% | 80.7hPa | 2.6V | 00:00:00 | 01:31:59 | 00:00:00 | |
| DN9WHV | 2026-08-31 08:07:27 | 53.08064 | 8.02802 | 50° | 33km/h | 17858m | -19.6m/s | -48.9°C | 0.9% | 80.7hPa | 2.7V | 08:26:00 | 00:00:00 | 00:00:00 | |
| DB0DAN | 2026-08-31 08:07:25 | 53.08046 | 8.02773 | 40° | 33km/h | 17917m | -20.5m/s | -49.2°C | 0.9% | 79.93hPa | 2.7V | 00:00:00 | 00:00:00 | 00:00:00 | |
| DL1XH-west | 2026-08-31 08:07:21 | 53.08018 | 8.02740 | 31° | 33km/h | 17999m | -21m/s | -49.5°C | 0.1% | 79hPa | 2.6V | 08:26:37 | 01:31:52 | 00:00:00 | |
| DJ2DS-15 | 2026-08-31 08:07:21 | 53.08018 | 8.02740 | 32° | 29km/h | 18000m | -20.9m/s | -49.5°C | 3.2% | 78.9hPa | 2.6V | 00:00:00 | 01:31:52 | 00:00:00 | |
| DL1NUX | 2026-08-31 08:07:20 | 53.07992 | 8.02713 | 35° | 29km/h | 18082m | -20.9m/s | -49.2°C | 3.1% | 78hPa | 2.6V | 08:26:37 | 01:31:48 | 00:00:00 | |
| DO2JMG | 2026-08-31 08:07:20 | 53.08011 | 8.02733 | 31° | 31km/h | 18020m | -20.9m/s | -49.6°C | 0% | 78.7hPa | 2.7V | 08:26:37 | 01:31:51 | 00:00:00 | |
| HSKMA3-T | 2026-08-31 08:07:19 | 53.08005 | 8.02727 | 30° | 31km/h | 18040m | -20.7m/s | -49.5°C | 0.1% | 78.5hPa | 2.7V | 08:26:37 | 01:31:50 | 00:00:00 | |
| DD8BA-10 | 2026-08-31 08:07:19 | 53.08005 | 8.02727 | 31° | 31km/h | 18041m | -20.7m/s | -49.4°C | 3.2% | 78.4hPa | 2.7V | 00:00:00 | 00:00:00 | 00:00:00 | |
| DL1XH-15 | 2026-08-31 08:07:18 | 53.07966 | 8.02682 | 32° | 33km/h | 18169m | -24.4m/s | -48.9°C | 2.9% | 77hPa | 2.7V | 08:26:41 | 01:31:44 | 00:00:00 | |
| DF8AY | 2026-08-31 08:07:17 | 53.07992 | 8.02713 | 35° | 29km/h | 18082m | -20.9m/s | -49.2°C | 0% | 78hPa | 2.6V | 08:26:37 | 01:31:48 | 00:00:00 | |
| DL1XH-west | 2026-08-31 08:07:11 | 53.07953 | 8.02668 | 33° | 33km/h | 18219m | -24.6m/s | -49.2°C | 0% | 76.5hPa | 2.6V | 08:27:28 | 01:31:42 | 00:00:00 | |
| DL4BBY-15 | 2026-08-31 08:07:11 | 53.07953 | 8.02668 | 34° | 26km/h | 18219m | -24.5m/s | -52.1°C | 0% | 0hPa | 2.7V | 00:00:00 | 00:00:00 | 00:00:00 | |
| DL1XH1-15 | 2026-08-31 08:07:10 | 53.07917 | 8.02624 | 36° | 24km/h | 18361m | -24.6m/s | -49.7°C | 3.2% | 74.8hPa | 2.7V | 08:26:49 | 01:31:36 | 00:00:00 | |
| AA1-15 | 2026-08-31 08:07:10 | 53.07946 | 8.02660 | 36° | 33km/h | 18243m | -23.7m/s | -49.4°C | 0% | 76.2hPa | 2.7V | 08:27:28 | 01:31:41 | 00:00:00 | |
| DL1NUX | 2026-08-31 08:07:10 | 53.07928 | 8.02637 | 37° | 27km/h | 18313m | -24.3m/s | -49.8°C | 3.2% | 75.3hPa | 2.6V | 08:26:47 | 01:31:38 | 00:00:00 | |
| DB0DAN | 2026-08-31 08:07:10 | 53.07946 | 8.02660 | 36° | 33km/h | 18243m | -23.7m/s | -49.4°C | 0.9% | 76.16hPa | 2.7V | 00:00:00 | 00:00:00 | 00:00:00 | |
| DO2JMG | 2026-08-31 08:07:09 | 53.07940 | 8.02652 | 37° | 31km/h | 18266m | -23.5m/s | -49.6°C | 0.1% | 75.9hPa | 2.7V | 08:27:28 | 01:31:40 | 00:00:00 | |
| HSKMA3-T | 2026-08-31 08:07:08 | 53.07934 | 8.02644 | 37° | 31km/h | 18289m | -24m/s | -49.7°C | 0.1% | 75.6hPa | 2.6V | 08:27:28 | 01:31:39 | 00:00:00 | |
| DF8AY | 2026-08-31 08:07:06 | 53.07922 | 8.02631 | 36° | 27km/h | 18337m | -24.5m/s | -49.6°C | 0% | 75.1hPa | 2.7V | 08:27:28 | 01:31:37 | 00:00:00 | |
| DF8AY-15 | 2026-08-31 08:07:05 | 53.07917 | 8.02624 | 37° | 24km/h | 18361m | -24.6m/s | -49.6°C | 3.2% | 74.8hPa | 2.7V | 00:00:00 | 01:31:36 | 00:00:00 | |
| SO1NDE-10 | 2026-08-31 08:07:04 | 53.07912 | 8.02619 | 31° | 27km/h | 18386m | -23.9m/s | -49.7°C | 3.2% | 74.5hPa | 2.7V | 00:00:00 | 01:31:35 | 00:00:00 | |
| GOEST3-10 | 2026-08-31 08:07:03 | 53.07908 | 8.02614 | 27° | 18km/h | 18410m | -23.8m/s | -49.7°C | 3.2% | 74.2hPa | 2.7V | 00:00:00 | 00:00:00 | 00:00:00 | |
| DN9WHV | 2026-08-31 08:07:02 | 53.07907 | 8.02614 | 28° | 18km/h | 18410m | -23.8m/s | -49.8°C | 0.9% | 74.3hPa | 2.7V | 08:27:00 | 00:00:00 | 00:00:00 | |
| DJ2DS-15 | 2026-08-31 08:07:01 | 53.07899 | 8.02608 | 17° | 26km/h | 18456m | -24.6m/s | -49.8°C | 3.2% | 73.7hPa | 2.7V | 00:00:00 | 01:31:32 | 00:00:00 | |
| DL1XH1-15 | 2026-08-31 08:07:00 | 53.07869 | 8.02600 | 11° | 26km/h | 18602m | -25m/s | -49.6°C | 3.1% | 72.1hPa | 2.7V | 08:26:59 | 01:31:26 | 00:00:00 | |
| DL1XH-west | 2026-08-31 08:07:00 | 53.07895 | 8.02607 | 12° | 16km/h | 18480m | -24.3m/s | -49.9°C | 0.1% | 73.4hPa | 2.7V | 08:27:28 | 01:31:31 | 00:00:00 | |
| DL1NUX | 2026-08-31 08:07:00 | 53.07881 | 8.02603 | 6° | 24km/h | 18554m | -24.3m/s | -49.8°C | 3.2% | 72.6hPa | 2.6V | 08:26:57 | 01:31:28 | 00:00:00 | |
| DO2JMG | 2026-08-31 08:06:59 | 53.07891 | 8.02606 | 4° | 20km/h | 18504m | -25.1m/s | -49.9°C | 0.1% | 73.1hPa | 2.7V | 08:27:28 | 01:31:30 | 00:00:00 | |
| HSKMA3-T | 2026-08-31 08:06:58 | 53.07886 | 8.02605 | 10° | 18km/h | 18529m | -25.6m/s | -49.8°C | 0.1% | 72.9hPa | 2.6V | 08:27:28 | 01:31:29 | 00:00:00 | |
| DF8AY | 2026-08-31 08:06:56 | 53.07875 | 8.02602 | 7° | 26km/h | 18578m | -24.2m/s | -49.6°C | 0% | 72.3hPa | 2.6V | 08:27:28 | 01:31:27 | 00:00:00 | |
| DB0DAN | 2026-08-31 08:06:55 | 53.07869 | 8.02600 | 11° | 26km/h | 18602m | -25m/s | -49.6°C | 0.9% | 72.06hPa | 2.7V | 00:00:00 | 00:00:00 | 00:00:00 | |
| DJ2DS-15 | 2026-08-31 08:06:54 | 53.07856 | 8.02594 | 14° | 24km/h | 18651m | -24.1m/s | -50.0°C | 0.9% | 71.5hPa | 2.6V | 00:00:00 | 00:00:00 | 00:00:00 | |
| DD1CC8 | 2026-08-31 08:06:51 | 53.07843 | 8.02589 | 15° | 26km/h | 18699m | -25.7m/s | -50.2°C | 0.9% | 71.0hPa | 2.6V | 00:00:00 | 00:00:00 | 00:00:00 | |
| DL1XH1-15 | 2026-08-31 08:06:50 | 53.07805 | 8.02566 | 20° | 29km/h | 18866m | -27.8m/s | -49.9°C | 3.1% | 69.3hPa | 2.6V | 08:27:09 | 01:31:16 | 00:00:00 | |
| DL1XH-west | 2026-08-31 08:06:50 | 53.07837 | 8.02586 | 21° | 24km/h | 18725m | -27.6m/s | -50.3°C | 0.1% | 70.8hPa | 2.6V | 08:27:28 | 01:31:21 | 00:00:00 | |
| DL1NUX | 2026-08-31 08:06:50 | 53.07819 | 8.02575 | 20° | 29km/h | 18811m | -27.5m/s | -50.2°C | 3.2% | 69.9hPa | 2.7V | 08:27:07 | 01:31:18 | 00:00:00 | |
| DO2JMG | 2026-08-31 08:06:48 | 53.07825 | 8.02579 | 21° | 29km/h | 18781m | -29.3m/s | -50.3°C | 0.1% | 70.2hPa | 2.7V | 08:27:28 | 01:31:19 | 00:00:00 | |
| HSKMA3-T | 2026-08-31 08:06:47 | 53.07819 | 8.02575 | 21° | 29km/h | 18811m | -27.5m/s | -50.2°C | 0.1% | 69.9hPa | 2.7V | 08:27:28 | 01:31:18 | 00:00:00 | |
| DF8AY | 2026-08-31 08:06:45 | 53.07805 | 8.02566 | 21° | 29km/h | 18866m | -27.8m/s | -49.9°C | 0% | 69.3hPa | 2.6V | 08:27:28 | 01:31:16 | 00:00:00 | |
| DB0UT-7 | 2026-08-31 08:06:45 | 53.07805 | 8.02566 | 21° | 31km/h | 18867m | -27.7m/s | -49.9°C | 3.1% | 69.2hPa | 2.6V | 08:27:00 | 01:31:16 | 00:00:00 | |
| HTAHTA | 2026-08-31 08:06:44 | 53.07792 | 8.02558 | 14° | 29km/h | 18920m | -26.9m/s | -49.9°C | 0.9% | 68.7hPa | 2.7V | 00:00:00 | 00:00:00 | 00:00:00 | |
| DM0DOS-11 | 2026-08-31 08:06:43 | 53.07743 | 8.02528 | 26° | 37km/h | 19084m | -27.5m/s | -50.6°C | 3.3% | 67hPa | 2.7V | 08:27:17 | 01:31:08 | 00:00:00 | |
| GOEST3-10 | 2026-08-31 08:06:43 | 53.07792 | 8.02558 | 15° | 35km/h | 18920m | -26.8m/s | -49.9°C | 3.1% | 68.6hPa | 2.7V | 00:00:00 | 00:00:00 | 00:00:00 | |
| DF4FW | 2026-08-31 08:06:42 | 53.07792 | 8.02558 | 15° | 29km/h | 18920m | -26.9m/s | -49.9°C | 0.9% | 68.7hPa | 2.6V | 08:27:00 | 00:00:00 | 00:00:00 | |
| DB0DAN | 2026-08-31 08:06:40 | 53.07769 | 8.02546 | 19° | 33km/h | 19001m | -27.5m/s | -50.3°C | 0.9% | 67.8hPa | 2.6V | 00:00:00 | 00:00:00 | 00:00:00 | |
| DL1XH-west | 2026-08-31 08:06:40 | 53.07769 | 8.02546 | 19° | 35km/h | 19001m | -27.5m/s | -50.3°C | 0% | 67.8hPa | 2.6V | 08:27:28 | 01:31:11 | 00:00:00 | |
| DO2JMG | 2026-08-31 08:06:38 | 53.07752 | 8.02535 | 24° | 37km/h | 19058m | -26.8m/s | -50.5°C | 0% | 67.3hPa | 2.6V | 08:27:28 | 01:31:09 | 00:00:00 | |
| HSKMA3-T | 2026-08-31 08:06:37 | 53.07743 | 8.02528 | 27° | 37km/h | 19084m | -27.5m/s | -50.6°C | 0.2% | 67hPa | 2.7V | 08:27:28 | 01:31:08 | 00:00:00 | |
| DF8AY | 2026-08-31 08:06:34 | 53.07719 | 8.02505 | 32° | 37km/h | 19164m | -27.8m/s | -50.7°C | 0.1% | 66.2hPa | 2.6V | 08:27:28 | 01:31:05 | 00:00:00 | |
| SO1NDE-10 | 2026-08-31 08:06:34 | 53.07719 | 8.02505 | 33° | 35km/h | 19164m | -27.8m/s | -50.6°C | 3.2% | 66.1hPa | 2.6V | 00:00:00 | 01:31:05 | 00:00:00 | |
| GOEST3-10 | 2026-08-31 08:06:33 | 53.07711 | 8.02497 | 35° | 33km/h | 19192m | -27.4m/s | -50.7°C | 3.3% | 65.8hPa | 2.7V | 00:00:00 | 00:00:00 | 00:00:00 | |
| DM0DOS-11 | 2026-08-31 08:06:32 | 53.07673 | 8.02448 | 45° | 31km/h | 19359m | -27m/s | -51.2°C | 3.4% | 64.2hPa | 2.7V | 08:27:27 | 01:30:58 | 00:00:00 | |
| DF4FW | 2026-08-31 08:06:31 | 53.07704 | 8.02489 | 36° | 35km/h | 19219m | -28.1m/s | -50.8°C | 0.9% | 65.7hPa | 2.6V | 08:27:00 | 00:00:00 | 00:00:00 | |
| DL1XH1-15 | 2026-08-31 08:06:30 | 53.07663 | 8.02430 | 55° | 27km/h | 19412m | -26.7m/s | -51.2°C | 3.4% | 63.7hPa | 2.6V | 08:27:29 | 01:30:56 | 00:00:00 | |
| DL1XH-west | 2026-08-31 08:06:30 | 53.07691 | 8.02473 | 37° | 31km/h | 19276m | -27.9m/s | -51°C | 0.1% | 65.1hPa | 2.7V | 08:27:28 | 01:31:01 | 00:00:00 | |
| DL4XJ-10 | 2026-08-31 08:06:30 | 53.07690 | 8.02473 | 38° | 24km/h | 19276m | -27.9m/s | -53.9°C | 0% | 0hPa | 2.7V | 00:00:00 | 00:00:00 | 00:00:00 | |
| DD8BA-10 | 2026-08-31 08:06:29 | 53.07684 | 8.02465 | 38° | 27km/h | 19304m | -28.0m/s | -51.1°C | 3.3% | 64.8hPa | 2.7V | 00:00:00 | 00:00:00 | 00:00:00 | |
| DL1XH-15 | 2026-08-31 08:06:28 | 53.07657 | 8.02413 | 66° | 24km/h | 19467m | -28.2m/s | -51.5°C | 3.5% | 63.1hPa | 2.7V | 08:27:31 | 01:30:54 | 00:00:00 | |
| DO2JMG | 2026-08-31 08:06:27 | 53.07673 | 8.02448 | 46° | 31km/h | 19359m | -27m/s | -51.2°C | 0.2% | 64.2hPa | 2.7V | 08:27:28 | 01:30:58 | 00:00:00 | |
| HSKMA3-T | 2026-08-31 08:06:26 | 53.07668 | 8.02439 | 51° | 29km/h | 19386m | -27.1m/s | -51.2°C | 0.2% | 64hPa | 2.7V | 08:27:28 | 01:30:57 | 00:00:00 | |
| DB0DAN | 2026-08-31 08:06:25 | 53.07663 | 8.02430 | 55° | 26km/h | 19412m | -26.7m/s | -51.2°C | 0.9% | 63.69hPa | 2.6V | 00:00:00 | 00:00:00 | 00:00:00 | |
| BIOWL1-15 | 2026-08-31 08:06:25 | 53.07663 | 8.02430 | 55° | 27km/h | 19412m | -26.7m/s | -51.2°C | 0.2% | 63.7hPa | 2.6V | 08:28:19 | 01:30:56 | 00:00:00 | |
| DF8AY | 2026-08-31 08:06:24 | 53.07660 | 8.02421 | 62° | 24km/h | 19440m | -27.7m/s | -51.4°C | 0.3% | 63.4hPa | 2.6V | 08:28:19 | 01:30:55 | 00:00:00 | |
| DO9LL-15 | 2026-08-31 08:06:24 | 53.07660 | 8.02421 | 62° | 18km/h | 19440m | -27.7m/s | -51.3°C | 3.4% | 63.3hPa | 2.6V | 00:00:00 | 01:30:55 | 00:00:00 | |
| GOEST3-10 | 2026-08-31 08:06:23 | 53.07657 | 8.02413 | 67° | 24km/h | 19467m | -28.2m/s | -51.5°C | 3.5% | 63.0hPa | 2.6V | 00:00:00 | 00:00:00 | 00:00:00 | |
| DM0DOS-11 | 2026-08-31 08:06:22 | 53.07640 | 8.02362 | 62° | 24km/h | 19635m | -27.8m/s | -51.9°C | 3.6% | 61.5hPa | 2.6V | 08:27:37 | 01:30:48 | 00:00:00 | |
| DJ2DS-15 | 2026-08-31 08:06:21 | 53.07652 | 8.02397 | 61° | 18km/h | 19525m | -28.5m/s | -51.7°C | 3.6% | 62.5hPa | 2.7V | 00:00:00 | 01:30:52 | 00:00:00 | |
| DL1XH1-15 | 2026-08-31 08:06:20 | 53.07634 | 8.02344 | 62° | 22km/h | 19691m | -28.3m/s | -52.1°C | 3.7% | 61hPa | 2.7V | 08:27:39 | 01:30:46 | 00:00:00 | |
| DL1XH-west | 2026-08-31 08:06:19 | 53.07646 | 8.02379 | 61° | 26km/h | 19580m | -27.8m/s | -51.8°C | 0.3% | 62.1hPa | 2.7V | 08:28:19 | 01:30:50 | 00:00:00 | |
| DD8BA-10 | 2026-08-31 08:06:19 | 53.07646 | 8.02379 | 61° | 20km/h | 19580m | -27.8m/s | -51.7°C | 3.6% | 62.0hPa | 2.7V | 08:27:00 | 00:00:00 | 00:00:00 | |
| DL1XH-15 | 2026-08-31 08:06:18 | 53.07631 | 8.02329 | 70° | 18km/h | 19747m | -29.3m/s | -51.5°C | 3.6% | 60.4hPa | 2.6V | 08:27:41 | 01:30:44 | 00:00:00 | |
| BIOWL1-15 | 2026-08-31 08:06:18 | 53.07632 | 8.02336 | 68° | 20km/h | 19719m | -28.6m/s | -52°C | 0.4% | 60.7hPa | 2.7V | 08:28:19 | 01:30:45 | 00:00:00 | |
| DO2JMG | 2026-08-31 08:06:17 | 53.07640 | 8.02362 | 62° | 24km/h | 19635m | -27.8m/s | -51.9°C | 0.4% | 61.5hPa | 2.6V | 08:28:19 | 01:30:48 | 00:00:00 | |
| AA1-15 | 2026-08-31 08:06:16 | 53.07637 | 8.02353 | 61° | 24km/h | 19663m | -28.1m/s | -52°C | 0.4% | 61.2hPa | 2.6V | 08:28:19 | 01:30:47 | 00:00:00 | |
| HSKMA3-T | 2026-08-31 08:06:15 | 53.07634 | 8.02344 | 63° | 22km/h | 19691m | -28.3m/s | -52.1°C | 0.5% | 61hPa | 2.7V | 08:28:19 | 01:30:46 | 00:00:00 | |
| DF8AY | 2026-08-31 08:06:13 | 53.07630 | 8.02329 | 71° | 18km/h | 19748m | -29.3m/s | -51.5°C | 0.4% | 60.4hPa | 2.6V | 08:28:19 | 01:30:44 | 00:00:00 | |
| HTAHTA | 2026-08-31 08:06:13 | 53.07629 | 8.02321 | 68° | 16km/h | 19776m | -29.0m/s | -51.4°C | 0.9% | 60.2hPa | 2.6V | 00:00:00 | 00:00:00 | 00:00:00 | |
| DM0DOS-11 | 2026-08-31 08:06:12 | 53.07621 | 8.02293 | 62° | 13km/h | 19921m | -27.9m/s | -51.6°C | 3.5% | 58.9hPa | 2.6V | 08:27:47 | 01:30:38 | 00:00:00 | |
| SONCRA | 2026-08-31 08:06:12 | 53.07627 | 8.02315 | 68° | 15km/h | 19805m | -29.7m/s | -51.3°C | 0.9% | 59.9hPa | 2.6V | 00:00:00 | 00:00:00 | 00:00:00 | |
| DL4BBY-15 | 2026-08-31 08:06:11 | 53.07627 | 8.02315 | 69° | 16km/h | 19805m | -29.7m/s | -54.3°C | 0% | 0hPa | 2.6V | 00:00:00 | 00:00:00 | 00:00:00 | |
| DL1XH1-15 | 2026-08-31 08:06:10 | 53.07618 | 8.02287 | 37° | 9km/h | 19978m | -28.9m/s | -51.5°C | 3.5% | 58.3hPa | 2.6V | 08:27:49 | 01:30:36 | 00:00:00 | |
| DB0DAN | 2026-08-31 08:06:10 | 53.07626 | 8.02309 | 61° | 15km/h | 19835m | -28.7m/s | -51.3°C | 0.9% | 59.65hPa | 2.7V | 00:00:00 | 00:00:00 | 00:00:00 | |
| DL1XH-west | 2026-08-31 08:06:08 | 53.07622 | 8.02298 | 61° | 15km/h | 19892m | -29.2m/s | -51.6°C | 0.3% | 59.1hPa | 2.7V | 08:28:19 | 01:30:39 | 00:00:00 | |
| DO2JMG | 2026-08-31 08:06:06 | 53.07619 | 8.02289 | 57° | 9km/h | 19949m | -28.8m/s | -51.7°C | 0.3% | 58.6hPa | 2.6V | 08:28:19 | 01:30:37 | 00:00:00 | |
| HSKMA3-T | 2026-08-31 08:06:05 | 53.07618 | 8.02287 | 38° | 9km/h | 19978m | -28.9m/s | -51.5°C | 0.3% | 58.3hPa | 2.6V | 08:28:19 | 01:30:36 | 00:00:00 | |
| DF8AY | 2026-08-31 08:06:03 | 53.07611 | 8.02285 | 359° | 11km/h | 20065m | -30.4m/s | -50.4°C | 0.1% | 57.5hPa | 2.7V | 08:28:19 | 01:30:33 | 00:00:00 | |
| GOEST3-10 | 2026-08-31 08:06:03 | 53.07614 | 8.02284 | 358° | 11km/h | 20036m | -29.3m/s | -50.8°C | 3.3% | 57.7hPa | 2.7V | 00:00:00 | 00:00:00 | 00:00:00 | |
| DM0DOS-11 | 2026-08-31 08:06:02 | 53.07594 | 8.02287 | 11° | 16km/h | 20215m | -29.9m/s | -51°C | 3.3% | 56.2hPa | 2.7V | 08:27:57 | 01:30:28 | 00:00:00 | |
| SONDE2-11 | 2026-08-31 08:06:02 | 53.07611 | 8.02285 | 358° | 9km/h | 20065m | -30.4m/s | -50.4°C | 0.9% | 57.5hPa | 2.6V | 00:00:00 | 00:00:00 | 00:00:00 | |
| DJ2DS-15 | 2026-08-31 08:06:01 | 53.07608 | 8.02285 | 349° | 20km/h | 20095m | -29.7m/s | -50.3°C | 3.1% | 57.3hPa | 2.6V | 00:00:00 | 01:30:32 | 00:00:00 | |
| DL1XH1-15 | 2026-08-31 08:06:00 | 53.07584 | 8.02283 | 21° | 18km/h | 20273m | -30.4m/s | -51.4°C | 3.5% | 55.8hPa | 2.6V | 08:27:59 | 01:30:26 | 00:00:00 | |
| DL1XH-west | 2026-08-31 08:05:58 | 53.07598 | 8.02287 | 0° | 16km/h | 20184m | -29.8m/s | -50.9°C | 0.1% | 56.5hPa | 2.7V | 08:28:19 | 01:30:29 | 00:00:00 | |
| DO2JMG | 2026-08-31 08:05:56 | 53.07589 | 8.02285 | 16° | 18km/h | 20244m | -28.9m/s | -51.2°C | 0.2% | 56hPa | 2.7V | 08:28:19 | 01:30:27 | 00:00:00 | |
| HSKMA3-T | 2026-08-31 08:05:55 | 53.07584 | 8.02283 | 21° | 18km/h | 20273m | -30.4m/s | -51.4°C | 0.3% | 55.8hPa | 2.6V | 08:28:19 | 01:30:26 | 00:00:00 | |
| DB0DAN | 2026-08-31 08:05:55 | 53.07584 | 8.02283 | 21° | 18km/h | 20273m | -30.4m/s | -51.4°C | 1% | 55.77hPa | 2.6V | 00:00:00 | 00:00:00 | 00:00:00 | |
| AA1-15 | 2026-08-31 08:05:54 | 53.07580 | 8.02280 | 25° | 18km/h | 20303m | -29.7m/s | -51.5°C | 0.3% | 55.5hPa | 2.6V | 08:28:19 | 01:30:25 | 00:00:00 | |
| DF8AY | 2026-08-31 08:05:52 | 53.07572 | 8.02275 | 20° | 18km/h | 20362m | -30m/s | -51.6°C | 0.2% | 55hPa | 2.7V | 08:28:19 | 01:30:23 | 00:00:00 | |
| DD1CC2-15 | 2026-08-31 08:05:51 | 53.07571 | 8.02275 | 21° | 18km/h | 20362m | -30.0m/s | -51.6°C | 1.0% | 55.0hPa | 2.7V | 08:28:00 | 00:00:00 | 00:00:00 | |
| DL1XH1-15 | 2026-08-31 08:05:50 | 53.07536 | 8.02255 | 23° | 24km/h | 20574m | -30.2m/s | -52.1°C | 3.6% | 53.2hPa | 2.7V | 08:28:09 | 01:30:16 | 00:00:00 | |
| BIOWL1-15 | 2026-08-31 08:05:49 | 53.07547 | 8.02262 | 21° | 24km/h | 20514m | -30.9m/s | -52.1°C | 0.3% | 53.7hPa | 2.6V | 08:28:19 | 01:30:18 | 00:00:00 | |
| DL1XH-west | 2026-08-31 08:05:48 | 53.07553 | 8.02264 | 14° | 24km/h | 20483m | -30.1m/s | -52.2°C | 0.4% | 53.9hPa | 2.6V | 08:28:19 | 01:30:19 | 00:00:00 | |
| DL3AQ-11 | 2026-08-31 08:05:47 | 53.07541 | 8.02258 | 22° | 24km/h | 20544m | -29.7m/s | -52.1°C | 1.0% | 53.4hPa | 2.6V | 00:00:00 | 00:00:00 | 00:00:00 | |
| DL1XH-15 | 2026-08-31 08:05:46 | 53.07525 | 8.02246 | 27° | 26km/h | 20636m | -30.6m/s | -52°C | 3.6% | 52.7hPa | 2.6V | 08:28:11 | 01:30:14 | 00:00:00 | |
| DO2JMG | 2026-08-31 08:05:45 | 53.07536 | 8.02255 | 24° | 24km/h | 20574m | -30.2m/s | -52.1°C | 0.4% | 53.2hPa | 2.7V | 08:28:19 | 01:30:16 | 00:00:00 | |
| AA1-15 | 2026-08-31 08:05:43 | 53.07525 | 8.02246 | 28° | 26km/h | 20636m | -30.6m/s | -52°C | 0.4% | 52.7hPa | 2.6V | 08:28:19 | 01:30:14 | 00:00:00 | |
| DF8AY | 2026-08-31 08:05:42 | 53.07519 | 8.02241 | 32° | 27km/h | 20667m | -30.5m/s | -51.8°C | 0.3% | 52.4hPa | 2.6V | 08:28:19 | 01:30:13 | 00:00:00 | |
| DF8AY-15 | 2026-08-31 08:05:42 | 53.07519 | 8.02241 | 32° | 24km/h | 20667m | -30.5m/s | -51.8°C | 3.5% | 52.3hPa | 2.6V | 00:00:00 | 01:30:13 | 00:00:00 | |
| DD1CC3-15 | 2026-08-31 08:05:41 | 53.07519 | 8.02241 | 33° | 27km/h | 20667m | -30.5m/s | -51.8°C | 1.0% | 52.4hPa | 2.7V | 08:28:00 | 00:00:00 | 00:00:00 | |
| DB0DAN | 2026-08-31 08:05:40 | 53.07508 | 8.02228 | 40° | 26km/h | 20728m | -30.4m/s | -51.8°C | 1% | 51.92hPa | 2.7V | 00:00:00 | 00:00:00 | 00:00:00 | |
| DL1XH1-15 | 2026-08-31 08:05:40 | 53.07483 | 8.02204 | 18° | 22km/h | 20882m | -31.9m/s | -51.9°C | 3.5% | 50.8hPa | 2.6V | 08:28:19 | 01:30:06 | 00:00:00 | |
| BIOWL1-15 | 2026-08-31 08:05:38 | 53.07497 | 8.02216 | 36° | 24km/h | 20789m | -31.5m/s | -51.9°C | 0.3% | 51.5hPa | 2.7V | 08:28:19 | 01:30:09 | 00:00:00 | |
| DL1XH-west | 2026-08-31 08:05:37 | 53.07493 | 8.02211 | 27° | 20km/h | 20821m | -30.8m/s | -51.9°C | 0.3% | 51.2hPa | 2.6V | 08:28:19 | 01:30:08 | 00:00:00 | |
| DO2JMG | 2026-08-31 08:05:35 | 53.07483 | 8.02204 | 18° | 22km/h | 20882m | -31.9m/s | -51.9°C | 0.3% | 50.8hPa | 2.6V | 08:28:19 | 01:30:06 | 00:00:00 | |
| HSKMA3-T | 2026-08-31 08:05:34 | 53.07478 | 8.02202 | 12° | 20km/h | 20912m | -30.9m/s | -51.9°C | 0.3% | 50.5hPa | 2.7V | 08:29:10 | 01:30:05 | 00:00:00 | |
| DL1NUX | 2026-08-31 08:05:34 | 53.07454 | 8.02202 | 5° | 22km/h | 21071m | -31m/s | -51.8°C | 3.5% | 49.2hPa | 2.6V | 08:30:00 | 01:30:00 | 00:00:00 | |
| AA1-15 | 2026-08-31 08:05:32 | 53.07469 | 8.02202 | 359° | 18km/h | 20976m | -32.4m/s | -51.9°C | 0.3% | 50hPa | 2.7V | 08:29:10 | 01:30:03 | 00:00:00 | |
| DM0DOS-11 | 2026-08-31 08:05:32 | 53.07443 | 8.02198 | 17° | 26km/h | 21134m | -31.6m/s | -51.9°C | 3.5% | 48.8hPa | 2.7V | 08:28:27 | 01:29:58 | 00:00:00 | |
| DF8AY | 2026-08-31 08:05:31 | 53.07465 | 8.02202 | 357° | 22km/h | 21008m | -32m/s | -51.9°C | 0.3% | 49.7hPa | 2.6V | 08:29:10 | 01:30:02 | 00:00:00 | |
| BIOWL1-15 | 2026-08-31 08:05:30 | 53.07449 | 8.02201 | 11° | 24km/h | 21103m | -31.6m/s | -51.8°C | 0.3% | 49hPa | 2.7V | 08:29:10 | 01:29:59 | 00:00:00 | |
| DL4XJ-10 | 2026-08-31 08:05:30 | 53.07459 | 8.02202 | 4° | 24km/h | 21041m | -31.1m/s | -54.7°C | 0% | 0hPa | 2.6V | 00:00:00 | 00:00:00 | 00:00:00 | |
| DD8BA-10 | 2026-08-31 08:05:29 | 53.07454 | 8.02202 | 6° | 26km/h | 21072m | -31.0m/s | -51.8°C | 3.5% | 49.2hPa | 2.6V | 00:00:00 | 00:00:00 | 00:00:00 | |
| DL1XH-15 | 2026-08-31 08:05:28 | 53.07420 | 8.02178 | 37° | 27km/h | 21261m | -32.1m/s | -52.1°C | 3.6% | 47.8hPa | 2.6V | 08:28:31 | 01:29:54 | 00:00:00 | |
| DL1XH-west | 2026-08-31 08:05:26 | 53.07437 | 8.02194 | 23° | 26km/h | 21166m | -31.1m/s | -51.9°C | 0.3% | 48.6hPa | 2.7V | 08:29:10 | 01:29:57 | 00:00:00 | |
| DB0DAN | 2026-08-31 08:05:25 | 53.07431 | 8.02189 | 29° | 26km/h | 21197m | -31.5m/s | -52°C | 1% | 48.31hPa | 2.6V | 00:00:00 | 00:00:00 | 00:00:00 | |
| DO2JMG | 2026-08-31 08:05:24 | 53.07425 | 8.02184 | 30° | 26km/h | 21230m | -32.6m/s | -52°C | 0.3% | 48.1hPa | 2.6V | 08:29:10 | 01:29:55 | 00:00:00 | |
| DO9LL-15 | 2026-08-31 08:05:23 | 53.07420 | 8.02178 | 38° | 24km/h | 21262m | -32.0m/s | -52.1°C | 3.6% | 47.8hPa | 2.6V | 08:28:00 | 01:29:54 | 00:00:00 | |
| DM0DOS-11 | 2026-08-31 08:05:22 | 53.07397 | 8.02127 | 75° | 24km/h | 21453m | -31.7m/s | -52.5°C | 3.8% | 46.4hPa | 2.6V | 08:28:37 | 01:29:48 | 00:00:00 | |
| AA1-15 | 2026-08-31 08:05:21 | 53.07410 | 8.02163 | 46° | 27km/h | 21325m | -31.9m/s | -52.3°C | 0.4% | 47.4hPa | 2.7V | 08:29:10 | 01:29:52 | 00:00:00 | |
| DF8AY | 2026-08-31 08:05:20 | 53.07405 | 8.02155 | 54° | 26km/h | 21358m | -32.7m/s | -52.3°C | 0.4% | 47.1hPa | 2.7V | 08:29:10 | 01:29:51 | 00:00:00 | |
| DL3AQ-11 | 2026-08-31 08:05:20 | 53.07402 | 8.02146 | 62° | 26km/h | 21389m | -31.0m/s | -52.4°C | 1.0% | 46.9hPa | 2.6V | 00:00:00 | 00:00:00 | 00:00:00 | |
| DD8BA-10 | 2026-08-31 08:05:19 | 53.07402 | 8.02145 | 63° | 20km/h | 21389m | -30.9m/s | -52.4°C | 3.7% | 46.8hPa | 2.6V | 00:00:00 | 00:00:00 | 00:00:00 | |
| DL1XH-15 | 2026-08-31 08:05:18 | 53.07392 | 8.02094 | 78° | 20km/h | 21582m | -32.2m/s | -52.3°C | 3.7% | 45.5hPa | 2.6V | 08:28:41 | 01:29:44 | 00:00:00 | |
| BIOWL1-15 | 2026-08-31 08:05:17 | 53.07397 | 8.02127 | 75° | 24km/h | 21453m | -31.7m/s | -52.5°C | 0.5% | 46.5hPa | 2.6V | 08:29:10 | 01:29:48 | 00:00:00 | |
| DL1XH-west | 2026-08-31 08:05:15 | 53.07395 | 8.02110 | 71° | 18km/h | 21517m | -32.1m/s | -52.5°C | 0.5% | 46hPa | 2.7V | 08:29:10 | 01:29:46 | 00:00:00 | |
| DO2JMG | 2026-08-31 08:05:14 | 53.07393 | 8.02102 | 76° | 20km/h | 21549m | -32.7m/s | -52.4°C | 0.4% | 45.8hPa | 2.7V | 08:29:10 | 01:29:45 | 00:00:00 | |
| GOEST3-10 | 2026-08-31 08:05:13 | 53.07392 | 8.02094 | 79° | 16km/h | 21582m | -32.1m/s | -52.3°C | 3.7% | 45.5hPa | 2.6V | 00:00:00 | 00:00:00 | 00:00:00 | |
| DM0DOS-11 | 2026-08-31 08:05:12 | 53.07394 | 8.02059 | 106° | 13km/h | 21779m | -32.8m/s | -52.3°C | 3.7% | 44.1hPa | 2.6V | 08:28:47 | 01:29:38 | 00:00:00 | |
| AA1-15 | 2026-08-31 08:05:10 | 53.07392 | 8.02074 | 100° | 15km/h | 21680m | -33.2m/s | -52.3°C | 0.4% | 44.9hPa | 2.7V | 08:29:10 | 01:29:41 | 00:00:00 | |
| DB0DAN | 2026-08-31 08:05:10 | 53.07392 | 8.02074 | 100° | 13km/h | 21680m | -33.2m/s | -52.3°C | 1% | 44.86hPa | 2.7V | 00:00:00 | 00:00:00 | 00:00:00 | |
| DF8AY | 2026-08-31 08:05:09 | 53.07393 | 8.02068 | 99° | 13km/h | 21713m | -33.3m/s | -52.3°C | 0.5% | 44.6hPa | 2.7V | 08:29:10 | 01:29:40 | 00:00:00 | |
| DD8BA-10 | 2026-08-31 08:05:09 | 53.07392 | 8.02068 | 100° | 9km/h | 21713m | -33.3m/s | -52.2°C | 3.8% | 44.6hPa | 2.7V | 00:00:00 | 00:00:00 | 00:00:00 | |
| DL1XH-15 | 2026-08-31 08:05:08 | 53.07396 | 8.02041 | 80° | 9km/h | 21911m | -34m/s | -52.1°C | 3.7% | 43.2hPa | 2.7V | 08:28:51 | 01:29:34 | 00:00:00 | |
| DL1XH-west | 2026-08-31 08:05:05 | 53.07395 | 8.02049 | 97° | 11km/h | 21844m | -32.9m/s | -52°C | 0.4% | 43.6hPa | 2.6V | 08:29:10 | 01:29:36 | 00:00:00 | |
| HSKMA3-T | 2026-08-31 08:05:04 | 53.07395 | 8.02045 | 97° | 9km/h | 21877m | -33.8m/s | -52.1°C | 0.4% | 43.5hPa | 2.7V | 08:29:10 | 01:29:35 | 00:00:00 | |
| DO2JMG | 2026-08-31 08:05:03 | 53.07395 | 8.02041 | 80° | 9km/h | 21911m | -34m/s | -52.2°C | 0.5% | 43.2hPa | 2.7V | 08:29:10 | 01:29:34 | 00:00:00 | |
| DM0DOS-11 | 2026-08-31 08:05:02 | 53.07385 | 8.02031 | 10° | 13km/h | 22114m | -35m/s | -51.7°C | 3.6% | 41.9hPa | 2.7V | 08:28:57 | 01:29:28 | 00:00:00 | |
| DF8AY | 2026-08-31 08:04:59 | 53.07391 | 8.02032 | 7° | 9km/h | 22045m | -34.2m/s | -51.7°C | 0.3% | 42.2hPa | 2.6V | 08:29:10 | 01:29:30 | 00:00:00 | |
| DL3AQ-11 | 2026-08-31 08:04:56 | 53.07380 | 8.02027 | 30° | 9km/h | 22184m | -34.4m/s | -51.4°C | 0.9% | 41.5hPa | 2.6V | 00:00:00 | 00:00:00 | 00:00:00 | |
| DB0DAN | 2026-08-31 08:04:55 | 53.07380 | 8.02027 | 31° | 9km/h | 22184m | -34.4m/s | -51.4°C | 0.9% | 41.49hPa | 2.6V | 00:00:00 | 00:00:00 | 00:00:00 | |
| DL1XH-west | 2026-08-31 08:04:54 | 53.07377 | 8.02025 | 31° | 11km/h | 22217m | -34.9m/s | -51.4°C | 0.3% | 41.2hPa | 2.6V | 08:29:10 | 01:29:25 | 00:00:00 | |
| BIOWL1-15 | 2026-08-31 08:04:53 | 53.07375 | 8.02022 | 30° | 9km/h | 22253m | -34.3m/s | -51.3°C | 0.2% | 40.9hPa | 2.6V | 08:29:10 | 01:29:24 | 00:00:00 | |
| DO2JMG | 2026-08-31 08:04:52 | 53.07373 | 8.02020 | 34° | 9km/h | 22287m | -35.2m/s | -51.2°C | 0.2% | 40.8hPa | 2.7V | 08:29:10 | 01:29:23 | 00:00:00 | |
| DF8AY | 2026-08-31 08:04:49 | 53.07368 | 8.02011 | 56° | 9km/h | 22390m | -35.7m/s | -51°C | 0.2% | 40.2hPa | 2.6V | 08:29:10 | 01:29:20 | 00:00:00 | |
| AA1-15 | 2026-08-31 08:04:48 | 53.07367 | 8.02007 | 74° | 9km/h | 22426m | -35.4m/s | -51°C | 0.2% | 39.9hPa | 2.6V | 08:29:10 | 01:29:19 | 00:00:00 | |
| DL1XH-west | 2026-08-31 08:04:44 | 53.07364 | 8.01991 | 93° | 11km/h | 22568m | -35.2m/s | -50.8°C | 0.2% | 39hPa | 2.7V | 08:29:10 | 01:29:15 | 00:00:00 | |
| HSKMA3-T | 2026-08-31 08:04:43 | 53.07365 | 8.01987 | 108° | 11km/h | 22603m | -34.9m/s | -50.9°C | 0.1% | 38.8hPa | 2.6V | 18:12:15 | 01:29:14 | 00:00:00 | |
| DO2JMG | 2026-08-31 08:04:42 | 53.07366 | 8.01983 | 135° | 11km/h | 22637m | -35.2m/s | -51°C | 0.2% | 38.6hPa | 2.6V | 18:12:15 | 01:29:13 | 00:00:00 | |
| DC6BW-12 | 2026-08-31 08:04:41 | 53.07366 | 8.01983 | 136° | 11km/h | 22637m | -35.2m/s | -51.0°C | 0.9% | 38.6hPa | 2.7V | 00:00:00 | 00:00:00 | 00:00:00 | |
| DB0DAN | 2026-08-31 08:04:40 | 53.07370 | 8.01977 | 141° | 9km/h | 22709m | -37.3m/s | -51.1°C | 0.9% | 38.19hPa | 2.7V | 00:00:00 | 00:00:00 | 00:00:00 | |
| DF8AY | 2026-08-31 08:04:39 | 53.07372 | 8.01976 | 172° | 11km/h | 22745m | -36.3m/s | -51.1°C | 0.2% | 37.9hPa | 2.7V | 18:12:15 | 01:29:10 | 00:00:00 | |
| AA1-15 | 2026-08-31 08:04:37 | 53.07376 | 8.01975 | 176° | 5km/h | 22819m | -36.6m/s | -51.3°C | 0.2% | 37.5hPa | 2.6V | 18:12:15 | 01:29:08 | 00:00:00 | |
| DL1NUX | 2026-08-31 08:04:36 | 53.07370 | 8.01964 | 40° | 11km/h | 23036m | -36.6m/s | -51.6°C | 3.4% | 36.3hPa | 2.6V | 08:30:00 | 01:29:02 | 00:00:00 | |
| DL1XH-west | 2026-08-31 08:04:34 | 53.07376 | 8.01971 | 57° | 7km/h | 22926m | -35.6m/s | -51.5°C | 0.3% | 36.9hPa | 2.7V | 18:12:15 | 01:29:05 | 00:00:00 | |
| BIOWL1-15 | 2026-08-31 08:04:33 | 53.07365 | 8.01958 | 48° | 11km/h | 23107m | -35.8m/s | -51.9°C | 0.3% | 35.9hPa | 2.6V | 18:12:15 | 01:29:00 | 00:00:00 | |
| HSKMA3-T | 2026-08-31 08:04:32 | 53.07372 | 8.01966 | 36° | 11km/h | 22998m | -36.8m/s | -51.5°C | 0.2% | 36.6hPa | 2.7V | 18:12:15 | 01:29:03 | 00:00:00 | |
| DO2JMG | 2026-08-31 08:04:31 | 53.07370 | 8.01963 | 40° | 11km/h | 23036m | -36.6m/s | -51.6°C | 0.2% | 36.3hPa | 2.6V | 18:12:15 | 01:29:02 | 00:00:00 | |
| DJ2DS-15 | 2026-08-31 08:04:30 | 53.07365 | 8.01958 | 48° | 11km/h | 23107m | -35.8m/s | -51.9°C | 0.9% | 35.9hPa | 2.6V | 00:00:00 | 00:00:00 | 00:00:00 | |
| DD8BA-10 | 2026-08-31 08:04:29 | 53.07365 | 8.01958 | 49° | 7km/h | 23107m | -35.8m/s | -51.9°C | 3.5% | 35.8hPa | 2.6V | 00:00:00 | 00:00:00 | 00:00:00 | |
| DL1XH-15 | 2026-08-31 08:04:28 | 53.07362 | 8.01942 | 172° | 5km/h | 23319m | -36m/s | -51.9°C | 3.6% | 34.7hPa | 2.6V | 08:30:00 | 01:28:54 | 00:00:00 | |
| DF8AY | 2026-08-31 08:04:28 | 53.07362 | 8.01954 | 49° | 11km/h | 23143m | -35m/s | -52°C | 0.3% | 35.7hPa | 2.7V | 18:12:15 | 01:28:59 | 00:00:00 | |
| AA1-15 | 2026-08-31 08:04:27 | 53.07360 | 8.01951 | 63° | 9km/h | 23178m | -35.1m/s | -52°C | 0.3% | 35.5hPa | 2.7V | 18:12:15 | 01:28:58 | 00:00:00 | |
| DN9WHV | 2026-08-31 08:04:26 | 53.07360 | 8.01951 | 64° | 9km/h | 23179m | -35.1m/s | -52.0°C | 0.9% | 35.5hPa | 2.6V | 00:00:00 | 00:00:00 | 00:00:00 | |
| DB0DAN | 2026-08-31 08:04:25 | 53.07360 | 8.01945 | 119° | 5km/h | 23248m | -35.7m/s | -52°C | 0.9% | 35.09hPa | 2.6V | 00:00:00 | 00:00:00 | 00:00:00 | |
| DL1XH-west | 2026-08-31 08:04:24 | 53.07361 | 8.01943 | 154° | 5km/h | 23283m | -36m/s | -51.9°C | 0.4% | 34.9hPa | 2.6V | 18:12:15 | 01:28:55 | 00:00:00 | |
| DO2JMG | 2026-08-31 08:04:21 | 53.07365 | 8.01942 | 191° | 5km/h | 23392m | -37.2m/s | -51.9°C | 0.4% | 34.4hPa | 2.7V | 18:12:15 | 01:28:52 | 00:00:00 | |
| BIOWL1-15 | 2026-08-31 08:04:19 | 53.07366 | 8.01944 | 273° | 5km/h | 23466m | -37.3m/s | -52°C | 0.4% | 34hPa | 2.6V | 18:12:15 | 01:28:50 | 00:00:00 | |
| DD8BA-10 | 2026-08-31 08:04:19 | 53.07366 | 8.01943 | 273° | 7km/h | 23466m | -37.3m/s | -51.9°C | 3.6% | 33.9hPa | 2.6V | 00:00:00 | 00:00:00 | 00:00:00 | |
| DL1XH-15 | 2026-08-31 08:04:18 | 53.07357 | 8.01960 | 319° | 7km/h | 23683m | -36.6m/s | -52.3°C | 3.7% | 32.8hPa | 2.6V | 08:30:00 | 01:28:44 | 00:00:00 | |
| DF8AY | 2026-08-31 08:04:17 | 53.07364 | 8.01949 | 313° | 7km/h | 23540m | -36.6m/s | -52.1°C | 0.3% | 33.6hPa | 2.6V | 18:12:15 | 01:28:48 | 00:00:00 | |
| AA1-15 | 2026-08-31 08:04:16 | 53.07363 | 8.01952 | 321° | 11km/h | 23576m | -36.9m/s | -52.3°C | 0.4% | 33.3hPa | 2.7V | 18:12:15 | 01:28:47 | 00:00:00 | |
| BIOWL1-15 | 2026-08-31 08:04:13 | 53.07351 | 8.01967 | 292° | 5km/h | 23830m | -36.8m/s | -52.1°C | 0.4% | 32hPa | 2.7V | 18:12:15 | 01:28:40 | 00:00:00 | |
| DL1XH-west | 2026-08-31 08:04:13 | 53.07357 | 8.01960 | 319° | 7km/h | 23683m | -36.6m/s | -52.3°C | 0.4% | 32.8hPa | 2.6V | 18:12:15 | 01:28:44 | 00:00:00 | |
| DN9WHV | 2026-08-31 08:04:13 | 53.07356 | 8.01960 | 320° | 7km/h | 23684m | -36.6m/s | -52.3°C | 0.9% | 32.8hPa | 2.6V | 00:00:00 | 00:00:00 | 00:00:00 | |
| DM0DOS-11 | 2026-08-31 08:04:12 | 53.07353 | 8.01971 | 238° | 5km/h | 23903m | -35.4m/s | -51.6°C | 3.5% | 31.6hPa | 2.6V | 08:30:00 | 01:28:38 | 00:00:00 | |
| DO2JMG | 2026-08-31 08:04:11 | 53.07353 | 8.01965 | 359° | 5km/h | 23756m | -37.8m/s | -52.2°C | 0.4% | 32.3hPa | 2.6V | 18:12:15 | 01:28:42 | 00:00:00 | |
| DL4BBY-15 | 2026-08-31 08:04:11 | 53.07353 | 8.01964 | 359° | 9km/h | 23756m | -37.7m/s | -55.1°C | 0% | 0hPa | 2.6V | 00:00:00 | 00:00:00 | 00:00:00 | |
| DL1NUX | 2026-08-31 08:04:10 | 53.07355 | 8.01974 | 221° | 4km/h | 23974m | -36.9m/s | -51.4°C | 3.4% | 31.2hPa | 2.6V | 08:30:00 | 01:28:36 | 00:00:00 | |
| DB0DAN | 2026-08-31 08:04:10 | 53.07352 | 8.01966 | 334° | 4km/h | 23794m | -37.1m/s | -52.1°C | 0.9% | 31.92hPa | 2.7V | 00:00:00 | 00:00:00 | 00:00:00 | |
| DL4XJ-10 | 2026-08-31 08:04:10 | 53.07352 | 8.01965 | 334° | 7km/h | 23794m | -37.1m/s | -55.1°C | 0% | 0hPa | 2.7V | 00:00:00 | 00:00:00 | 00:00:00 | |
| HTAHTA | 2026-08-31 08:04:09 | 53.07352 | 8.01969 | 206° | 4km/h | 23866m | -37.1m/s | -51.8°C | 0.9% | 31.9hPa | 2.7V | 00:00:00 | 00:00:00 | 00:00:00 | |
| DL1XH-15 | 2026-08-31 08:04:08 | 53.07359 | 8.01978 | 200° | 7km/h | 24044m | -35.7m/s | -51.5°C | 3.5% | 31hPa | 2.7V | 08:30:00 | 01:28:34 | 00:00:00 | |
| DF8AY | 2026-08-31 08:04:06 | 53.07354 | 8.01973 | 228° | 4km/h | 23938m | -36.1m/s | -51.4°C | 0.2% | 31.4hPa | 2.6V | 18:12:15 | 01:28:37 | 00:00:00 | |
| AA1-15 | 2026-08-31 08:04:05 | 53.07355 | 8.01974 | 222° | 4km/h | 23974m | -36.9m/s | -51.4°C | 0.2% | 31.2hPa | 2.6V | 18:12:15 | 01:28:36 | 00:00:00 | |
| DL1XH-west | 2026-08-31 08:04:03 | 53.07359 | 8.01978 | 200° | 7km/h | 24044m | -35.7m/s | -51.5°C | 0.3% | 31hPa | 2.7V | 18:12:15 | 01:28:34 | 00:00:00 | |
| DO2JMG | 2026-08-31 08:04:01 | 53.07362 | 8.01982 | 237° | 9km/h | 24115m | -35.8m/s | -51.6°C | 0.3% | 30.6hPa | 2.6V | 18:12:15 | 01:28:32 | 00:00:00 | |
| DJ2DS-15 | 2026-08-31 08:04:01 | 53.07362 | 8.01982 | 237° | 11km/h | 24115m | -35.8m/s | -51.5°C | 3.5% | 30.6hPa | 2.6V | 00:00:00 | 01:28:32 | 00:00:00 | |
| DL1XH1-15 | 2026-08-31 08:04:00 | 53.07365 | 8.02011 | 307° | 11km/h | 24327m | -36m/s | -52°C | 3.7% | 29.6hPa | 2.6V | 08:30:00 | 01:28:26 | 00:00:00 | |
| BIOWL1-15 | 2026-08-31 08:03:59 | 53.07366 | 8.01991 | 258° | 11km/h | 24186m | -36.4m/s | -51.8°C | 0.4% | 30.2hPa | 2.6V | 18:12:15 | 01:28:30 | 00:00:00 | |
| DL1XH-15 | 2026-08-31 08:03:58 | 53.07361 | 8.02019 | 329° | 11km/h | 24398m | -36m/s | -51.9°C | 3.7% | 29.1hPa | 2.6V | 08:30:00 | 01:28:24 | 00:00:00 | |
| DF8AY | 2026-08-31 08:03:56 | 53.07366 | 8.02007 | 282° | 13km/h | 24292m | -35.5m/s | -52.1°C | 0.4% | 29.7hPa | 2.7V | 18:12:15 | 01:28:27 | 00:00:00 | |
| DB0DAN | 2026-08-31 08:03:55 | 53.07365 | 8.02011 | 307° | 11km/h | 24327m | -36m/s | -52°C | 0.9% | 29.61hPa | 2.6V | 00:00:00 | 00:00:00 | 00:00:00 | |
| AA1-15 | 2026-08-31 08:03:54 | 53.07363 | 8.02016 | 312° | 13km/h | 24363m | -35.8m/s | -51.9°C | 0.4% | 29.4hPa | 2.6V | 18:12:15 | 01:28:25 | 00:00:00 | |
| DO9LL-15 | 2026-08-31 08:03:53 | 53.07360 | 8.02019 | 330° | 13km/h | 24399m | -36.0m/s | -51.9°C | 3.7% | 29.1hPa | 2.6V | 00:00:00 | 01:28:24 | 00:00:00 | |
| DM0DOS-11 | 2026-08-31 08:03:52 | 53.07343 | 8.02017 | 27° | 13km/h | 24619m | -40.3m/s | -51.6°C | 3.7% | 28.3hPa | 2.6V | 08:30:00 | 01:28:18 | 00:00:00 | |
| DL1XH-west | 2026-08-31 08:03:52 | 53.07358 | 8.02020 | 1° | 13km/h | 24434m | -35.8m/s | -52°C | 0.4% | 29.2hPa | 2.7V | 18:12:15 | 01:28:23 | 00:00:00 | |
| BIOWL1-15 | 2026-08-31 08:03:50 | 53.07346 | 8.02019 | 23° | 11km/h | 24581m | -37.7m/s | -51.8°C | 0.5% | 28.5hPa | 2.6V | 18:12:15 | 01:28:19 | 00:00:00 | |
| DC4HF-4 | 2026-08-31 08:03:50 | 53.07352 | 8.02021 | 6° | 11km/h | 24506m | -36.2m/s | -51.8°C | 0.9% | 28.8hPa | 2.6V | 00:00:00 | 00:00:00 | 00:00:00 | |
| DO2JMG | 2026-08-31 08:03:50 | 53.07352 | 8.02021 | 7° | 13km/h | 24506m | -36.2m/s | -51.8°C | 0.4% | 28.8hPa | 2.7V | 18:12:15 | 01:28:21 | 00:00:00 | |
| DD8BA-10 | 2026-08-31 08:03:49 | 53.07348 | 8.02020 | 16° | 7km/h | 24544m | -38.0m/s | -51.8°C | 3.8% | 28.5hPa | 2.6V | 00:00:00 | 00:00:00 | 00:00:00 | |
| DL1XH-15 | 2026-08-31 08:03:48 | 53.07336 | 8.02009 | 49° | 4km/h | 24777m | -39m/s | -51.7°C | 3.7% | 27.6hPa | 2.6V | 08:30:00 | 01:28:14 | 00:00:00 | |
| DF8AY | 2026-08-31 08:03:45 | 53.07339 | 8.02012 | 20° | 7km/h | 24698m | -39.7m/s | -51.5°C | 0.5% | 28hPa | 2.7V | 18:12:15 | 01:28:16 | 00:00:00 | |
| AA1-15 | 2026-08-31 08:03:43 | 53.07336 | 8.02009 | 50° | 4km/h | 24777m | -39m/s | -51.7°C | 0.4% | 27.7hPa | 2.6V | 18:12:15 | 01:28:14 | 00:00:00 | |
| DL1XH-west | 2026-08-31 08:03:41 | 53.07336 | 8.02007 | 147° | 4km/h | 24856m | -39.4m/s | -51.6°C | 0.5% | 27.4hPa | 2.6V | 18:12:15 | 01:28:12 | 00:00:00 | |
| DO2JMG | 2026-08-31 08:03:40 | 53.07337 | 8.02007 | 167° | 4km/h | 24895m | -38.2m/s | -51.3°C | 0.3% | 27.2hPa | 2.7V | 18:12:15 | 01:28:11 | 00:00:00 | |
| DB0DAN | 2026-08-31 08:03:40 | 53.07337 | 8.02007 | 167° | 4km/h | 24895m | -38.2m/s | -51.3°C | 0.9% | 27.19hPa | 2.7V | 00:00:00 | 00:00:00 | 00:00:00 | |
| BIOWL1-15 | 2026-08-31 08:03:38 | 53.07340 | 8.02005 | 156° | 5km/h | 24974m | -39.6m/s | -50.9°C | 0.2% | 26.9hPa | 2.7V | 18:12:15 | 01:28:09 | 00:00:00 | |
| DF8AY | 2026-08-31 08:03:34 | 53.07345 | 8.02005 | 158° | 4km/h | 25133m | -37.7m/s | -50.4°C | 0.1% | 26.1hPa | 2.7V | 18:12:15 | 01:28:05 | 00:00:00 | |
| DL4XJ-10 | 2026-08-31 08:03:33 | 53.07345 | 8.02003 | 96° | 13km/h | 25170m | -36.7m/s | -53.2°C | 0% | 0hPa | 2.7V | 00:00:00 | 00:00:00 | 00:00:00 | |
| DM0DOS-11 | 2026-08-31 08:03:32 | 53.07341 | 8.01997 | 258° | 13km/h | 25340m | -22.3m/s | -50.2°C | 3.3% | 25.1hPa | 2.7V | 08:30:00 | 01:27:58 | 00:00:00 | |
| AA1-15 | 2026-08-31 08:03:32 | 53.07346 | 8.02000 | 77° | 7km/h | 25205m | -33m/s | -50.3°C | 0.1% | 25.8hPa | 2.7V | 18:12:15 | 01:28:03 | 00:00:00 | |
| DK5PH-5 | 2026-08-31 08:03:32 | 53.07345 | 8.02000 | 78° | 11km/h | 25205m | -33.0m/s | -50.3°C | 3.2% | 25.8hPa | 2.6V | 00:00:00 | 01:28:03 | 00:00:00 | |
| EDDB2-12 | 2026-08-31 08:03:31 | 53.07343 | 8.01995 | 32° | 7km/h | 25267m | -28.3m/s | -50.2°C | 0.8% | 25.6hPa | 2.6V | 00:00:00 | 00:00:00 | 00:00:00 | |
| DL1XH1-15 | 2026-08-31 08:03:30 | 53.07342 | 8.02007 | 256° | 13km/h | 25368m | -5.4m/s | -50.1°C | 3.3% | 25hPa | 2.6V | 08:30:00 | 01:27:56 | 00:00:00 | |
| DL1XH-west | 2026-08-31 08:03:30 | 53.07343 | 8.01995 | 32° | 9km/h | 25266m | -28.3m/s | -50.2°C | 0.1% | 25.6hPa | 2.6V | 18:12:15 | 01:28:01 | 00:00:00 | |
| DO2JMG | 2026-08-31 08:03:29 | 53.07341 | 8.01992 | 42° | 11km/h | 25291m | -20.8m/s | -50.2°C | 0.1% | 25.4hPa | 2.6V | 18:12:15 | 01:28:00 | 00:00:00 | |
| BIOWL1-15 | 2026-08-31 08:03:28 | 53.07340 | 8.01993 | 264° | 9km/h | 25315m | -27.4m/s | -50.2°C | 0.1% | 25.3hPa | 2.7V | 18:12:15 | 01:27:59 | 00:00:00 | |
| SONDE2-11 | 2026-08-31 08:03:27 | 53.07341 | 8.01997 | 258° | 11km/h | 25340m | -22.3m/s | -50.2°C | 0.8% | 25.2hPa | 2.6V | 00:00:00 | 00:00:00 | 00:00:00 | |
| DO2LYB-13 | 2026-08-31 08:03:26 | 53.07340 | 8.01997 | 260° | 13km/h | 25340m | -22.3m/s | -50.2°C | 0.8% | 25.2hPa | 2.6V | 00:00:00 | 00:00:00 | 00:00:00 | |
| DB0DAN | 2026-08-31 08:03:25 | 53.07342 | 8.02007 | 256° | 13km/h | 25368m | -5.4m/s | -50.2°C | 0.8% | 25hPa | 2.6V | 00:00:00 | 00:00:00 | 00:00:00 | |
| DF8AY | 2026-08-31 08:03:24 | 53.07343 | 8.02013 | 257° | 15km/h | 25369m | 3.7m/s | -50.3°C | 0.2% | 25hPa | 2.6V | 18:12:15 | 01:27:55 | 00:00:00 | |
| DJ2KF-10 | 2026-08-31 08:03:24 | 53.07343 | 8.02013 | 257° | 11km/h | 25369m | 3.7m/s | -50.3°C | 3.3% | 24.9hPa | 2.6V | 00:00:00 | 01:27:55 | 00:00:00 | |
| DN9WHV | 2026-08-31 08:03:23 | 53.07343 | 8.02013 | 258° | 15km/h | 25369m | 3.7m/s | -50.3°C | 0.8% | 25.0hPa | 2.6V | 00:00:00 | 00:00:00 | 00:00:00 | |
| DM0DOS-11 | 2026-08-31 08:03:22 | 53.07347 | 8.02044 | 271° | 9km/h | 25326m | 7.4m/s | -50.1°C | 3.2% | 25.2hPa | 2.6V | 08:30:00 | 01:27:48 | 00:00:00 | |
| AA1-15 | 2026-08-31 08:03:21 | 53.07347 | 8.02031 | 250° | 13km/h | 25351m | 7.4m/s | -50°C | 0.1% | 25.1hPa | 2.7V | 18:12:15 | 01:27:52 | 00:00:00 | |
| DL1NUX | 2026-08-31 08:03:21 | 53.07347 | 8.02048 | 260° | 13km/h | 25318m | 6.7m/s | -50.2°C | 3.3% | 25.2hPa | 2.7V | 08:30:00 | 01:27:47 | 00:00:00 | |
| DL1XH-west | 2026-08-31 08:03:20 | 53.07347 | 8.02035 | 260° | 9km/h | 25344m | 6.7m/s | -50°C | 0.2% | 25.1hPa | 2.7V | 18:12:15 | 01:27:51 | 00:00:00 | |
| HSKMA3-T | 2026-08-31 08:03:19 | 53.07347 | 8.02038 | 280° | 5km/h | 25338m | 5.4m/s | -50.1°C | 0.2% | 25.1hPa | 2.6V | 18:12:15 | 01:27:50 | 00:00:00 | |
| DO2JMG | 2026-08-31 08:03:18 | 53.07347 | 8.02041 | 285° | 7km/h | 25332m | 6m/s | -50.1°C | 0.2% | 25.1hPa | 2.6V | 18:12:15 | 01:27:49 | 00:00:00 | |
| BIOWL1-15 | 2026-08-31 08:03:17 | 53.07347 | 8.02044 | 272° | 9km/h | 25326m | 7.4m/s | -50.1°C | 0.1% | 25.2hPa | 2.6V | 18:12:15 | 01:27:48 | 00:00:00 | |
| DF8AY | 2026-08-31 08:03:13 | 53.07351 | 8.02063 | 220° | 11km/h | 25298m | 7.2m/s | -50.1°C | 0.1% | 25.3hPa | 2.6V | 18:12:15 | 01:27:44 | 00:00:00 | |
| DM0DOS-11 | 2026-08-31 08:03:12 | 53.07362 | 8.02084 | 228° | 7km/h | 25259m | 7m/s | -50.3°C | 3.3% | 25.4hPa | 2.6V | 08:30:00 | 01:27:38 | 00:00:00 | |
| DO2SHX-10 | 2026-08-31 08:03:12 | 53.07353 | 8.02065 | 213° | 11km/h | 25292m | 5.8m/s | -50.0°C | 3.3% | 25.2hPa | 2.6V | 00:00:00 | 01:27:43 | 00:00:00 | |
| DL1NUX | 2026-08-31 08:03:11 | 53.07363 | 8.02086 | 209° | 7km/h | 25253m | 6m/s | -50.3°C | 3.3% | 25.4hPa | 2.6V | 08:30:00 | 01:27:37 | 00:00:00 | |
| DL1XH1-15 | 2026-08-31 08:03:10 | 53.07365 | 8.02088 | 211° | 11km/h | 25247m | 6.9m/s | -50.4°C | 3.3% | 25.5hPa | 2.6V | 08:30:00 | 01:27:36 | 00:00:00 | |
| DL1XH-west | 2026-08-31 08:03:10 | 53.07358 | 8.02072 | 237° | 15km/h | 25278m | 6.7m/s | -50.1°C | 0.2% | 25.4hPa | 2.7V | 18:12:15 | 01:27:41 | 00:00:00 | |
| DB0DAN | 2026-08-31 08:03:10 | 53.07358 | 8.02072 | 237° | 13km/h | 25278m | 6.7m/s | -50.1°C | 0.8% | 25.35hPa | 2.7V | 00:00:00 | 00:00:00 | 00:00:00 | |
| DL4XJ-10 | 2026-08-31 08:03:10 | 53.07358 | 8.02072 | 237° | 13km/h | 25279m | 6.7m/s | -53.0°C | 0% | 0hPa | 2.7V | 00:00:00 | 00:00:00 | 00:00:00 | |
| DD8BA-10 | 2026-08-31 08:03:09 | 53.07359 | 8.02077 | 244° | 13km/h | 25272m | 5.3m/s | -50.0°C | 3.2% | 25.3hPa | 2.7V | 00:00:00 | 00:00:00 | 00:00:00 | |
| DL1XH-15 | 2026-08-31 08:03:08 | 53.07372 | 8.02095 | 214° | 18km/h | 25233m | 5.6m/s | -50.3°C | 3.3% | 25.5hPa | 2.7V | 08:30:00 | 01:27:34 | 00:00:00 | |
| HSKMA3-T | 2026-08-31 08:03:08 | 53.07361 | 8.02081 | 243° | 11km/h | 25266m | 6.6m/s | -50.2°C | 0.2% | 25.4hPa | 2.7V | 18:12:15 | 01:27:39 | 00:00:00 | |
| DO2JMG | 2026-08-31 08:03:07 | 53.07362 | 8.02084 | 228° | 7km/h | 25259m | 7m/s | -50.3°C | 0.2% | 25.4hPa | 2.6V | 18:12:15 | 01:27:38 | 00:00:00 | |
| BIOWL1-15 | 2026-08-31 08:03:06 | 53.07363 | 8.02086 | 210° | 7km/h | 25253m | 6m/s | -50.3°C | 0.2% | 25.4hPa | 2.6V | 18:12:15 | 01:27:37 | 00:00:00 | |
| DF8AY | 2026-08-31 08:03:03 | 53.07371 | 8.02095 | 215° | 18km/h | 25233m | 5.6m/s | -50.3°C | 0.1% | 25.5hPa | 2.7V | 18:12:15 | 01:27:34 | 00:00:00 | |
| DM0DOS-11 | 2026-08-31 08:03:02 | 53.07391 | 8.02116 | 243° | 13km/h | 25194m | 5.9m/s | -50.4°C | 3.3% | 25.7hPa | 2.7V | 08:30:00 | 01:27:28 | 00:00:00 | |
| DO2SHX-10 | 2026-08-31 08:03:02 | 53.07375 | 8.02099 | 209° | 16km/h | 25227m | 7.4m/s | -50.3°C | 3.3% | 25.5hPa | 2.7V | 00:00:00 | 01:27:33 | 00:00:00 | |
| DL1NUX | 2026-08-31 08:03:01 | 53.07392 | 8.02120 | 236° | 11km/h | 25188m | 6m/s | -50.3°C | 3.4% | 25.7hPa | 2.7V | 08:30:00 | 01:27:27 | 00:00:00 | |
| DJ2DS-15 | 2026-08-31 08:03:01 | 53.07379 | 8.02102 | 199° | 11km/h | 25220m | 6.7m/s | -50.2°C | 3.3% | 25.5hPa | 2.6V | 00:00:00 | 01:27:32 | 00:00:00 | |
| DL1XH1-15 | 2026-08-31 08:03:00 | 53.07394 | 8.02122 | 198° | 9km/h | 25181m | 7.3m/s | -50.2°C | 3.3% | 25.7hPa | 2.6V | 08:30:00 | 01:27:26 | 00:00:00 | |
| DL1XH-west | 2026-08-31 08:02:59 | 53.07386 | 8.02107 | 214° | 13km/h | 25208m | 5.9m/s | -50.5°C | 0.2% | 25.6hPa | 2.6V | 18:12:15 | 01:27:30 | 00:00:00 | |
| HSKMA3-T | 2026-08-31 08:02:57 | 53.07390 | 8.02116 | 243° | 13km/h | 25194m | 5.9m/s | -50.4°C | 0.2% | 25.7hPa | 2.7V | 18:12:15 | 01:27:28 | 00:00:00 | |
| DO2JMG | 2026-08-31 08:02:56 | 53.07392 | 8.02120 | 236° | 11km/h | 25188m | 6m/s | -50.3°C | 0.2% | 25.7hPa | 2.7V | 18:12:15 | 01:27:27 | 00:00:00 | |
| SONDE2-11 | 2026-08-31 08:02:56 | 53.07392 | 8.02120 | 236° | 9km/h | 25188m | 6.0m/s | -50.3°C | 0.8% | 25.7hPa | 2.6V | 00:00:00 | 00:00:00 | 00:00:00 | |
| DB0DAN | 2026-08-31 08:02:55 | 53.07394 | 8.02122 | 198° | 7km/h | 25181m | 7.4m/s | -50.2°C | 0.8% | 25.74hPa | 2.6V | 00:00:00 | 00:00:00 | 00:00:00 | |
| DF8AY | 2026-08-31 08:02:52 | 53.07402 | 8.02119 | 164° | 13km/h | 25161m | 7.3m/s | -50.3°C | 0.1% | 25.8hPa | 2.7V | 18:12:15 | 01:27:23 | 00:00:00 | |
| DL1NUX | 2026-08-31 08:02:51 | 53.07417 | 8.02104 | 193° | 7km/h | 25122m | 7.3m/s | -50.6°C | 3.2% | 26hPa | 2.7V | 08:30:00 | 01:27:17 | 00:00:00 | |
| GOEST3-10 | 2026-08-31 08:02:51 | 53.07405 | 8.02117 | 161° | 13km/h | 25155m | 5.2m/s | -50.1°C | 3.2% | 25.8hPa | 2.7V | 00:00:00 | 01:27:22 | 00:00:00 | |
| DL1XH1-15 | 2026-08-31 08:02:50 | 53.07419 | 8.02106 | 219° | 7km/h | 25116m | 5.5m/s | -50.5°C | 3.3% | 26hPa | 2.7V | 08:30:00 | 01:27:16 | 00:00:00 | |
| DL1XH-west | 2026-08-31 08:02:48 | 53.07413 | 8.02108 | 136° | 13km/h | 25135m | 5.9m/s | -50.4°C | 0.1% | 25.9hPa | 2.6V | 18:12:15 | 01:27:19 | 00:00:00 | |
| DL1XH-15 | 2026-08-31 08:02:48 | 53.07423 | 8.02110 | 196° | 9km/h | 25103m | 7.1m/s | -50.6°C | 3.3% | 26.1hPa | 2.6V | 08:30:00 | 01:27:14 | 00:00:00 | |
| HSKMA3-T | 2026-08-31 08:02:46 | 53.07417 | 8.02104 | 193° | 7km/h | 25122m | 7.3m/s | -50.6°C | 0.1% | 26hPa | 2.7V | 18:12:15 | 01:27:17 | 00:00:00 | |
| DO2JMG | 2026-08-31 08:02:45 | 53.07419 | 8.02106 | 219° | 9km/h | 25116m | 5.5m/s | -50.6°C | 0.1% | 26hPa | 2.7V | 18:12:15 | 01:27:16 | 00:00:00 | |
| DF8AY | 2026-08-31 08:02:42 | 53.07425 | 8.02110 | 180° | 9km/h | 25096m | 6m/s | -50.7°C | 0.2% | 26.1hPa | 2.6V | 18:12:15 | 01:27:13 | 00:00:00 | |
| DB0DAN | 2026-08-31 08:02:40 | 53.07430 | 8.02110 | 182° | 9km/h | 25083m | 6.4m/s | -50.7°C | 0.8% | 26.14hPa | 2.7V | 00:00:00 | 00:00:00 | 00:00:00 | |
| DL1XH1-15 | 2026-08-31 08:02:40 | 53.07433 | 8.02092 | 73° | 13km/h | 25053m | 5.7m/s | -50.8°C | 3.4% | 26.3hPa | 2.6V | 08:30:00 | 01:27:06 | 00:00:00 | |
| DD8BA-10 | 2026-08-31 08:02:39 | 53.07432 | 8.02110 | 159° | 7km/h | 25078m | 4.4m/s | -50.7°C | 3.4% | 26.1hPa | 2.7V | 00:00:00 | 00:00:00 | 00:00:00 | |
| DL1XH-15 | 2026-08-31 08:02:38 | 53.07431 | 8.02086 | 37° | 4km/h | 25040m | 6m/s | -50.9°C | 3.4% | 26.3hPa | 2.7V | 08:30:00 | 01:27:04 | 00:00:00 | |
| DL1XH-west | 2026-08-31 08:02:38 | 53.07433 | 8.02108 | 121° | 7km/h | 25073m | 5.7m/s | -50.8°C | 0.2% | 26.2hPa | 2.7V | 18:12:15 | 01:27:09 | 00:00:00 | |
| AA1-15 | 2026-08-31 08:02:37 | 53.07434 | 8.02103 | 97° | 13km/h | 25066m | 7.6m/s | -50.7°C | 0.2% | 26.2hPa | 2.6V | 18:12:15 | 01:27:08 | 00:00:00 | |
| BIOWL1-15 | 2026-08-31 08:02:36 | 53.07432 | 8.02088 | 62° | 7km/h | 25047m | 7.5m/s | -50.9°C | 0.2% | 26.3hPa | 2.7V | 18:12:15 | 01:27:05 | 00:00:00 | |
| HSKMA3-T | 2026-08-31 08:02:36 | 53.07434 | 8.02098 | 85° | 15km/h | 25059m | 5.8m/s | -50.7°C | 0.2% | 26.2hPa | 2.6V | 18:12:15 | 01:27:07 | 00:00:00 | |
| DO2JMG | 2026-08-31 08:02:35 | 53.07433 | 8.02092 | 74° | 13km/h | 25053m | 5.7m/s | -50.8°C | 0.2% | 26.3hPa | 2.6V | 18:12:15 | 01:27:06 | 00:00:00 | |
| DO2SHX-10 | 2026-08-31 08:02:35 | 53.07433 | 8.02092 | 74° | 13km/h | 25054m | 5.6m/s | -50.7°C | 3.4% | 26.2hPa | 2.6V | 00:00:00 | 01:27:06 | 00:00:00 | |
| DN9WHV | 2026-08-31 08:02:33 | 53.07432 | 8.02088 | 63° | 7km/h | 25047m | 7.5m/s | -50.8°C | 0.8% | 26.3hPa | 2.7V | 00:00:00 | 00:00:00 | 00:00:00 | |
| DM0DOS-11 | 2026-08-31 08:02:32 | 53.07427 | 8.02084 | 28° | 2km/h | 25001m | 5.1m/s | -50.9°C | 3.3% | 26.4hPa | 2.7V | 08:30:00 | 01:26:58 | 00:00:00 | |
| DF8AY | 2026-08-31 08:02:31 | 53.07430 | 8.02084 | 42° | 4km/h | 25027m | 7m/s | -51°C | 0.2% | 26.4hPa | 2.6V | 18:12:15 | 01:27:02 | 00:00:00 | |
| DO2SHX-10 | 2026-08-31 08:02:31 | 53.07430 | 8.02084 | 43° | 4km/h | 25027m | 6.9m/s | -51.0°C | 3.4% | 26.3hPa | 2.6V | 00:00:00 | 01:27:02 | 00:00:00 | |
| DL1NUX | 2026-08-31 08:02:30 | 53.07427 | 8.02080 | 103° | 9km/h | 24988m | 6m/s | -50.8°C | 3.3% | 26.5hPa | 2.6V | 08:30:00 | 01:26:56 | 00:00:00 | |
| DL1XH-west | 2026-08-31 08:02:28 | 53.07428 | 8.02084 | 320° | 4km/h | 25006m | 5.5m/s | -50.9°C | 0.1% | 26.5hPa | 2.7V | 18:12:15 | 01:26:59 | 00:00:00 | |
| HSKMA3-T | 2026-08-31 08:02:26 | 53.07427 | 8.02083 | 84° | 5km/h | 24995m | 7.4m/s | -50.8°C | 0.2% | 26.5hPa | 2.7V | 18:12:15 | 01:26:57 | 00:00:00 | |
| DO2JMG | 2026-08-31 08:02:25 | 53.07427 | 8.02080 | 103° | 9km/h | 24988m | 6m/s | -50.8°C | 0.2% | 26.5hPa | 2.6V | 18:12:15 | 01:26:56 | 00:00:00 | |
| BIOWL1-15 | 2026-08-31 08:02:24 | 53.07430 | 8.02066 | 78° | 7km/h | 24956m | 6m/s | -50.9°C | 0.3% | 26.7hPa | 2.7V | 18:12:15 | 01:26:51 | 00:00:00 | |
| DK9SH | 2026-08-31 08:02:23 | 53.07427 | 8.02076 | 116° | 9km/h | 24982m | 6.6m/s | -50.9°C | 0.8% | 26.5hPa | 2.6V | 00:00:00 | 00:00:00 | 00:00:00 | |
| DM0DOS-11 | 2026-08-31 08:02:22 | 53.07425 | 8.02062 | 344° | 11km/h | 24936m | 6.8m/s | -51°C | 3.4% | 26.7hPa | 2.6V | 08:30:00 | 01:26:48 | 00:00:00 | |
| DF8AY | 2026-08-31 08:02:21 | 53.07430 | 8.02069 | 106° | 7km/h | 24963m | 7.2m/s | -50.9°C | 0.3% | 26.6hPa | 2.7V | 18:12:15 | 01:26:52 | 00:00:00 | |
| GOEST3-10 | 2026-08-31 08:02:21 | 53.07430 | 8.02069 | 107° | 9km/h | 24963m | 7.1m/s | -50.9°C | 3.5% | 26.6hPa | 2.7V | 00:00:00 | 01:26:52 | 08:30:00 | |
| DL1NUX | 2026-08-31 08:02:20 | 53.07420 | 8.02065 | 350° | 11km/h | 24923m | 7.2m/s | -51.1°C | 3.3% | 26.8hPa | 2.7V | 08:30:00 | 01:26:46 | 00:00:00 | |
| DL1XH-west | 2026-08-31 08:02:18 | 53.07428 | 8.02062 | 11° | 9km/h | 24943m | 7.8m/s | -51°C | 0.3% | 26.7hPa | 2.6V | 18:12:15 | 01:26:49 | 00:00:00 | |
| AA1-15 | 2026-08-31 08:02:16 | 53.07422 | 8.02064 | 340° | 13km/h | 24930m | 6.1m/s | -51°C | 0.2% | 26.8hPa | 2.7V | 18:12:15 | 01:26:47 | 00:00:00 | |
| DO2JMG | 2026-08-31 08:02:15 | 53.07419 | 8.02065 | 350° | 11km/h | 24923m | 7.2m/s | -51.1°C | 0.2% | 26.8hPa | 2.7V | 18:12:15 | 01:26:46 | 00:00:00 | |
| BIOWL1-15 | 2026-08-31 08:02:14 | 53.07416 | 8.02064 | 339° | 2km/h | 24904m | 7.4m/s | -51.3°C | 0.2% | 26.9hPa | 2.6V | 18:12:15 | 01:26:43 | 00:00:00 | |
| DF8AY | 2026-08-31 08:02:10 | 53.07415 | 8.02066 | 267° | 4km/h | 24891m | 5.2m/s | -51.3°C | 0.2% | 26.9hPa | 2.7V | 18:12:15 | 01:26:41 | 00:00:00 | |
| DB0DAN | 2026-08-31 08:02:10 | 53.07415 | 8.02066 | 267° | 4km/h | 24891m | 5.2m/s | -51.3°C | 0.9% | 26.93hPa | 2.7V | 00:00:00 | 00:00:00 | 00:00:00 | |
| DD8BA-10 | 2026-08-31 08:02:09 | 53.07415 | 8.02066 | 179° | 5km/h | 24885m | 8.1m/s | -51.3°C | 3.4% | 26.9hPa | 2.7V | 00:00:00 | 00:00:00 | 00:00:00 | |
| DL1XH-15 | 2026-08-31 08:02:08 | 53.07410 | 8.02061 | 40° | 9km/h | 24846m | 6.6m/s | -51.6°C | 3.5% | 27.1hPa | 2.7V | 08:30:00 | 01:26:34 | 00:00:00 | |
| DL1XH-west | 2026-08-31 08:02:07 | 53.07416 | 8.02065 | 66° | 2km/h | 24872m | 5.8m/s | -51.4°C | 0.3% | 27hPa | 2.6V | 18:12:15 | 01:26:38 | 00:00:00 | |
| AA1-15 | 2026-08-31 08:02:05 | 53.07414 | 8.02064 | 7° | 7km/h | 24859m | 5.1m/s | -51.6°C | 0.4% | 27.1hPa | 2.6V | 18:12:15 | 01:26:36 | 00:00:00 | |
| DO2JMG | 2026-08-31 08:02:04 | 53.07412 | 8.02063 | 22° | 9km/h | 24853m | 6.9m/s | -51.6°C | 0.3% | 27.1hPa | 2.7V | 18:12:15 | 01:26:35 | 00:00:00 | |
| SONCRA | 2026-08-31 08:02:03 | 53.07410 | 8.02061 | 40° | 9km/h | 24846m | 6.6m/s | -51.6°C | 0.9% | 27.1hPa | 2.6V | 00:00:00 | 00:00:00 | 00:00:00 | |
| DL1NUX | 2026-08-31 08:02:02 | 53.07406 | 8.02057 | 17° | 7km/h | 24833m | 7.4m/s | -51.8°C | 3.5% | 27.2hPa | 2.6V | 08:30:00 | 01:26:32 | 00:00:00 | |
| BIOWL1-15 | 2026-08-31 08:02:02 | 53.07408 | 8.02059 | 38° | 9km/h | 24840m | 5.9m/s | -51.7°C | 0.4% | 27.1hPa | 2.7V | 18:12:15 | 01:26:33 | 00:00:00 | |
| DJ2KF-10 | 2026-08-31 08:02:02 | 53.07408 | 8.02058 | 38° | 11km/h | 24840m | 5.9m/s | -51.6°C | 3.6% | 27.1hPa | 2.7V | 00:00:00 | 01:26:33 | 00:00:00 | |
| DM0DOS-11 | 2026-08-31 08:02:01 | 53.07397 | 8.02056 | 31° | 9km/h | 24809m | 6.1m/s | -51.8°C | 3.5% | 27.2hPa | 2.7V | 08:30:00 | 01:26:28 | 00:00:00 | |
| DJ2DS-15 | 2026-08-31 08:02:01 | 53.07406 | 8.02057 | 18° | 11km/h | 24834m | 7.4m/s | -51.7°C | 3.5% | 27.1hPa | 2.6V | 00:00:00 | 01:26:32 | 00:00:00 | |
| DL1XH1-15 | 2026-08-31 08:02:00 | 53.07394 | 8.02051 | 47° | 5km/h | 24797m | 6.9m/s | -51.9°C | 3.6% | 27.3hPa | 2.6V | 08:30:00 | 01:26:26 | 00:00:00 | |
| DF8AY | 2026-08-31 08:02:00 | 53.07404 | 8.02057 | 352° | 9km/h | 24827m | 5.8m/s | -51.8°C | 0.3% | 27.2hPa | 2.6V | 18:12:15 | 01:26:31 | 00:00:00 | |
| DL3AQ-11 | 2026-08-31 08:02:00 | 53.07402 | 8.02057 | 353° | 9km/h | 24821m | 4.9m/s | -51.9°C | 0.9% | 27.2hPa | 2.6V | 00:00:00 | 00:00:00 | 00:00:00 | |
| DD8BA-10 | 2026-08-31 08:01:59 | 53.07402 | 8.02057 | 354° | 7km/h | 24821m | 4.9m/s | -51.9°C | 3.6% | 27.2hPa | 2.6V | 00:00:00 | 00:00:00 | 00:00:00 | |
| DL1XH-15 | 2026-08-31 08:01:58 | 53.07393 | 8.02050 | 346° | 4km/h | 24784m | 5m/s | -51.6°C | 3.5% | 27.4hPa | 2.6V | 08:30:00 | 01:26:24 | 00:00:00 | |
| DL1XH-west | 2026-08-31 08:01:57 | 53.07397 | 8.02056 | 32° | 9km/h | 24809m | 6.1m/s | -51.8°C | 0.3% | 27.2hPa | 2.7V | 18:12:15 | 01:26:28 | 00:00:00 | |
| DO1YAY-16 | 2026-08-31 08:01:57 | 53.07394 | 8.02051 | 47° | 5km/h | 24797m | 6.9m/s | -51.9°C | 0.9% | 27.3hPa | 2.6V | 00:00:00 | 00:00:00 | 00:00:00 | |
| DC6BW-12 | 2026-08-31 08:01:56 | 53.07397 | 8.02056 | 33° | 9km/h | 24809m | 6.1m/s | -51.8°C | 0.9% | 27.3hPa | 2.6V | 00:00:00 | 00:00:00 | 00:00:00 | |
| DB0DAN | 2026-08-31 08:01:55 | 53.07394 | 8.02051 | 47° | 5km/h | 24797m | 6.9m/s | -51.9°C | 0.9% | 27.32hPa | 2.6V | 00:00:00 | 00:00:00 | 00:00:00 | |
| AA1-15 | 2026-08-31 08:01:54 | 53.07393 | 8.02050 | 16° | 4km/h | 24790m | 6.4m/s | -51.8°C | 0.3% | 27.4hPa | 2.6V | 18:12:15 | 01:26:25 | 00:00:00 | |
| DO2JMG | 2026-08-31 08:01:53 | 53.07392 | 8.02050 | 347° | 4km/h | 24784m | 5m/s | -51.7°C | 0.3% | 27.4hPa | 2.6V | 18:12:15 | 01:26:24 | 00:00:00 | |
| DM0DOS-11 | 2026-08-31 08:01:51 | 53.07378 | 8.02041 | 8° | 20km/h | 24749m | 5.8m/s | -51.6°C | 3.5% | 27.5hPa | 2.6V | 08:30:00 | 01:26:18 | 00:00:00 | |
| BIOWL1-15 | 2026-08-31 08:01:51 | 53.07390 | 8.02049 | 38° | 5km/h | 24773m | 7.2m/s | -51.7°C | 0.4% | 27.4hPa | 2.7V | 18:12:15 | 01:26:22 | 00:00:00 | |
| DF8AY | 2026-08-31 08:01:49 | 53.07386 | 8.02045 | 27° | 13km/h | 24763m | 4.3m/s | -51.8°C | 0.4% | 27.5hPa | 2.6V | 18:12:15 | 01:26:20 | 00:00:00 | |
| DL1XH-west | 2026-08-31 08:01:46 | 53.07374 | 8.02040 | 14° | 20km/h | 24744m | 5.5m/s | -51.6°C | 0.3% | 27.6hPa | 2.7V | 18:12:15 | 01:26:17 | 00:00:00 | |
| DO2JMG | 2026-08-31 08:01:43 | 53.07360 | 8.02031 | 21° | 16km/h | 24725m | 6.8m/s | -51.6°C | 0.3% | 27.7hPa | 2.6V | 18:12:15 | 01:26:14 | 00:00:00 | |
| DL1NUX | 2026-08-31 08:01:42 | 53.07353 | 8.02028 | 9° | 11km/h | 24713m | 5.4m/s | -51.7°C | 3.5% | 27.7hPa | 2.6V | 08:30:00 | 01:26:12 | 00:00:00 | |
| BIOWL1-15 | 2026-08-31 08:01:40 | 53.07351 | 8.02027 | 23° | 7km/h | 24707m | 7.3m/s | -51.7°C | 0.3% | 27.7hPa | 2.7V | 18:12:15 | 01:26:11 | 00:00:00 | |
| DB0DAN | 2026-08-31 08:01:40 | 53.07351 | 8.02027 | 23° | 7km/h | 24707m | 7.3m/s | -51.7°C | 0.9% | 27.72hPa | 2.7V | 00:00:00 | 00:00:00 | 00:00:00 | |
| DD8BA-10 | 2026-08-31 08:01:39 | 53.07349 | 8.02025 | 54° | 13km/h | 24700m | 6.2m/s | -51.5°C | 3.5% | 27.7hPa | 2.7V | 00:00:00 | 00:00:00 | 00:00:00 | |
| DL1XH-15 | 2026-08-31 08:01:38 | 53.07334 | 8.02019 | 13° | 15km/h | 24666m | 6m/s | -51.5°C | 3.4% | 27.9hPa | 2.7V | 08:30:00 | 01:26:04 | 00:00:00 | |
| DF8AY | 2026-08-31 08:01:38 | 53.07348 | 8.02023 | 53° | 5km/h | 24695m | 4.4m/s | -51.5°C | 0.3% | 27.7hPa | 2.7V | 18:12:15 | 01:26:09 | 00:00:00 | |
| BIOWL7-15 | 2026-08-31 08:01:37 | 53.07349 | 8.02023 | 54° | 5km/h | 24695m | 4.4m/s | -51.5°C | 0.9% | 27.7hPa | 2.6V | 00:00:00 | 00:00:00 | 00:00:00 | |
| DL1NUX | 2026-08-31 08:01:36 | 53.07327 | 8.02016 | 3° | 15km/h | 24656m | 5m/s | -51.6°C | 3.5% | 27.9hPa | 2.6V | 08:30:00 | 01:26:02 | 00:00:00 | |
| DL1XH-west | 2026-08-31 08:01:35 | 53.07342 | 8.02020 | 1° | 16km/h | 24678m | 4.6m/s | -51.6°C | 0.3% | 27.8hPa | 2.6V | 18:12:15 | 01:26:06 | 00:00:00 | |
| DO2JMG | 2026-08-31 08:01:32 | 53.07330 | 8.02017 | 13° | 15km/h | 24661m | 4.4m/s | -51.5°C | 0.2% | 27.9hPa | 2.7V | 18:12:15 | 01:26:03 | 00:00:00 | |
| DK5PH-5 | 2026-08-31 08:01:32 | 53.07330 | 8.02017 | 14° | 18km/h | 24661m | 4.4m/s | -51.4°C | 3.4% | 27.9hPa | 2.6V | 00:00:00 | 01:26:03 | 00:00:00 | |
| DJ2KF-10 | 2026-08-31 08:01:31 | 53.07327 | 8.02016 | 4° | 20km/h | 24656m | 5.0m/s | -51.6°C | 3.5% | 27.9hPa | 2.6V | 00:00:00 | 01:26:02 | 00:00:00 | |
| DL1XH1-15 | 2026-08-31 08:01:30 | 53.07299 | 8.02008 | 41° | 16km/h | 24624m | 4.7m/s | -51.9°C | 3.5% | 28.1hPa | 2.6V | 08:30:00 | 01:25:56 | 00:00:00 | |
| BIOWL1-15 | 2026-08-31 08:01:29 | 53.07318 | 8.02017 | 355° | 20km/h | 24645m | 5m/s | -51.5°C | 0.2% | 28hPa | 2.6V | 18:12:15 | 01:26:00 | 00:00:00 | |
| DD8BA-10 | 2026-08-31 08:01:29 | 53.07318 | 8.02017 | 355° | 16km/h | 24645m | 5.0m/s | -51.4°C | 3.4% | 27.9hPa | 2.6V | 00:00:00 | 00:00:00 | 00:00:00 | |
| DL1XH-15 | 2026-08-31 08:01:28 | 53.07294 | 8.02002 | 14° | 9km/h | 24613m | 6.1m/s | -51.9°C | 3.6% | 28.1hPa | 2.6V | 08:30:00 | 01:25:54 | 00:00:00 | |
| DF8AY | 2026-08-31 08:01:27 | 53.07308 | 8.02016 | 15° | 22km/h | 24635m | 5.8m/s | -51.7°C | 0.3% | 28hPa | 2.7V | 18:12:15 | 01:25:58 | 00:00:00 | |
| DB0DAN | 2026-08-31 08:01:25 | 53.07299 | 8.02008 | 41° | 16km/h | 24624m | 4.7m/s | -51.9°C | 0.9% | 28.05hPa | 2.6V | 00:00:00 | 00:00:00 | 00:00:00 | |
| DL1XH-west | 2026-08-31 08:01:24 | 53.07297 | 8.02004 | 41° | 13km/h | 24619m | 5.9m/s | -51.9°C | 0.4% | 28.1hPa | 2.6V | 18:12:15 | 01:25:55 | 00:00:00 | |
| DO2JMG | 2026-08-31 08:01:22 | 53.07292 | 8.02002 | 351° | 11km/h | 24607m | 5.4m/s | -52°C | 0.3% | 28.2hPa | 2.7V | 18:12:15 | 01:25:53 | 00:00:00 | |
| DO2SHX-10 | 2026-08-31 08:01:22 | 53.07292 | 8.02002 | 351° | 11km/h | 24608m | 5.3m/s | -51.9°C | 3.6% | 28.1hPa | 2.6V | 00:00:00 | 01:25:53 | 00:00:00 | |
| DM0DOS-11 | 2026-08-31 08:01:21 | 53.07267 | 8.02004 | 353° | 24km/h | 24579m | 6.8m/s | -52°C | 3.6% | 28.3hPa | 2.6V | 08:30:00 | 01:25:48 | 00:00:00 | |
| AA1-15 | 2026-08-31 08:01:21 | 53.07288 | 8.02003 | 350° | 16km/h | 24602m | 5.4m/s | -52°C | 0.3% | 28.2hPa | 2.7V | 18:12:15 | 01:25:52 | 00:00:00 | |
| BIOWL1-15 | 2026-08-31 08:01:21 | 53.07279 | 8.02003 | 3° | 22km/h | 24590m | 5.2m/s | -51.9°C | 0.3% | 28.2hPa | 2.6V | 18:12:15 | 01:25:50 | 00:00:00 | |
| DJ2DS-15 | 2026-08-31 08:01:21 | 53.07288 | 8.02003 | 350° | 18km/h | 24602m | 5.3m/s | -52.0°C | 3.6% | 28.1hPa | 2.6V | 00:00:00 | 01:25:52 | 00:00:00 | |
| DD8BA-10 | 2026-08-31 08:01:19 | 53.07279 | 8.02003 | 4° | 20km/h | 24591m | 5.1m/s | -51.8°C | 3.6% | 28.2hPa | 2.6V | 00:00:00 | 00:00:00 | 00:00:00 | |
| DL1XH-15 | 2026-08-31 08:01:18 | 53.07247 | 8.02008 | 8° | 16km/h | 24554m | 5.7m/s | -52°C | 3.6% | 28.4hPa | 2.6V | 08:30:00 | 01:25:44 | 00:00:00 | |
| DF8AY | 2026-08-31 08:01:17 | 53.07262 | 8.02005 | 348° | 24km/h | 24572m | 5.7m/s | -52.1°C | 0.3% | 28.3hPa | 2.7V | 18:12:15 | 01:25:47 | 00:00:00 | |
| DF8AY-15 | 2026-08-31 08:01:17 | 53.07267 | 8.02003 | 354° | 18km/h | 24579m | 6.7m/s | -51.9°C | 3.6% | 28.2hPa | 2.6V | 00:00:00 | 01:25:48 | 00:00:00 | |
| DL1NUX | 2026-08-31 08:01:16 | 53.07238 | 8.02007 | 354° | 18km/h | 24544m | 6.8m/s | -52°C | 3.6% | 28.4hPa | 2.6V | 08:30:00 | 01:25:42 | 00:00:00 | |
| DL1XH-west | 2026-08-31 08:01:14 | 53.07251 | 8.02008 | 358° | 18km/h | 24560m | 7.5m/s | -52°C | 0.4% | 28.4hPa | 2.7V | 18:12:15 | 01:25:45 | 00:00:00 | |
| DO2JMG | 2026-08-31 08:01:11 | 53.07238 | 8.02007 | 355° | 18km/h | 24544m | 6.8m/s | -52°C | 0.3% | 28.4hPa | 2.6V | 18:12:15 | 01:25:42 | 00:00:00 | |
| DM0DOS-11 | 2026-08-31 08:01:11 | 53.07222 | 8.02020 | 321° | 16km/h | 24521m | 5.9m/s | -51.9°C | 3.5% | 28.5hPa | 2.6V | 08:30:00 | 01:25:38 | 00:00:00 | |
| AA1-15 | 2026-08-31 08:01:10 | 53.07234 | 8.02008 | 339° | 18km/h | 24538m | 5m/s | -51.9°C | 0.3% | 28.5hPa | 2.7V | 18:12:15 | 01:25:41 | 00:00:00 | |
| DB0DAN | 2026-08-31 08:01:10 | 53.07234 | 8.02008 | 339° | 18km/h | 24538m | 5m/s | -51.9°C | 0.9% | 28.47hPa | 2.7V | 00:00:00 | 00:00:00 | 00:00:00 | |
| DD1CC8 | 2026-08-31 08:01:10 | 53.07230 | 8.02012 | 329° | 18km/h | 24533m | 4.8m/s | -52.0°C | 0.9% | 28.5hPa | 2.7V | 00:00:00 | 00:00:00 | 00:00:00 | |
| DD8BA-10 | 2026-08-31 08:01:09 | 53.07230 | 8.02012 | 330° | 16km/h | 24533m | 4.7m/s | -51.9°C | 3.5% | 28.5hPa | 2.7V | 00:00:00 | 00:00:00 | 00:00:00 | |
| DL1XH-15 | 2026-08-31 08:01:08 | 53.07207 | 8.02041 | 325° | 18km/h | 24498m | 5.8m/s | -51.9°C | 3.5% | 28.6hPa | 2.7V | 08:30:00 | 01:25:34 | 00:00:00 | |
| DF8AY | 2026-08-31 08:01:05 | 53.07215 | 8.02030 | 320° | 22km/h | 24508m | 5.6m/s | -52°C | 0.3% | 28.6hPa | 2.6V | 18:12:15 | 01:25:36 | 00:00:00 | |
| DL1XH-west | 2026-08-31 08:01:03 | 53.07207 | 8.02041 | 326° | 18km/h | 24498m | 5.8m/s | -51.9°C | 0.3% | 28.6hPa | 2.7V | 18:12:15 | 01:25:34 | 00:00:00 | |
| DK5PH-5 | 2026-08-31 08:01:02 | 53.07203 | 8.02044 | 325° | 15km/h | 24493m | 6.6m/s | -51.9°C | 3.5% | 28.6hPa | 2.7V | 00:00:00 | 01:25:33 | 00:00:00 | |
| DM0DOS-11 | 2026-08-31 08:01:01 | 53.07191 | 8.02060 | 318° | 16km/h | 24465m | 5.7m/s | -52.1°C | 3.6% | 28.8hPa | 2.7V | 08:30:00 | 01:25:28 | 00:00:00 | |
| DJ2DS-15 | 2026-08-31 08:01:01 | 53.07201 | 8.02047 | 324° | 15km/h | 24487m | 4.5m/s | -52.0°C | 3.6% | 28.7hPa | 2.6V | 00:00:00 | 01:25:32 | 00:00:00 | |
| DL1XH1-15 | 2026-08-31 08:01:00 | 53.07186 | 8.02069 | 310° | 13km/h | 24454m | 5.2m/s | -52.1°C | 3.6% | 28.8hPa | 2.6V | 08:30:00 | 01:25:26 | 00:00:00 | |
| DO2JMG | 2026-08-31 08:01:00 | 53.07199 | 8.02049 | 325° | 11km/h | 24482m | 4.6m/s | -51.9°C | 0.3% | 28.7hPa | 2.6V | 18:12:15 | 01:25:31 | 00:00:00 | |
| AA1-15 | 2026-08-31 08:00:59 | 53.07197 | 8.02052 | 326° | 15km/h | 24476m | 6.8m/s | -52°C | 0.4% | 28.7hPa | 2.6V | 18:12:15 | 01:25:30 | 00:00:00 | |
| BIOWL1-15 | 2026-08-31 08:00:56 | 53.07183 | 8.02073 | 314° | 15km/h | 24448m | 6.7m/s | -52.1°C | 0.4% | 28.9hPa | 2.6V | 18:12:15 | 01:25:25 | 00:00:00 | |
| DL3AQ-11 | 2026-08-31 08:00:56 | 53.07186 | 8.02069 | 310° | 11km/h | 24454m | 5.3m/s | -52.1°C | 0.9% | 28.8hPa | 2.6V | 00:00:00 | 00:00:00 | 00:00:00 | |
| DB0DAN | 2026-08-31 08:00:55 | 53.07186 | 8.02069 | 310° | 13km/h | 24454m | 5.3m/s | -52.1°C | 0.9% | 28.83hPa | 2.6V | 00:00:00 | 00:00:00 | 00:00:00 | |
| DL1XH-west | 2026-08-31 08:00:53 | 53.07181 | 8.02078 | 315° | 18km/h | 24442m | 5.9m/s | -52°C | 0.4% | 28.9hPa | 2.6V | 18:12:15 | 01:25:24 | 00:00:00 | |
| SONDE2-11 | 2026-08-31 08:00:52 | 53.07175 | 8.02089 | 306° | 15km/h | 24432m | 4.1m/s | -52.1°C | 0.9% | 28.9hPa | 2.6V | 00:00:00 | 00:00:00 | 00:00:00 | |
| DM0DOS-11 | 2026-08-31 08:00:51 | 53.07171 | 8.02107 | 284° | 15km/h | 24409m | 6.8m/s | -52°C | 3.6% | 29hPa | 2.6V | 08:30:00 | 01:25:18 | 00:00:00 | |
| HSKMA3-T | 2026-08-31 08:00:50 | 53.07173 | 8.02094 | 297° | 13km/h | 24427m | 6.9m/s | -52.1°C | 0.4% | 29hPa | 2.7V | 18:12:15 | 01:25:21 | 00:00:00 | |
| DO2JMG | 2026-08-31 08:00:49 | 53.07172 | 8.02098 | 280° | 9km/h | 24420m | 6.1m/s | -52.1°C | 0.4% | 29hPa | 2.6V | 18:12:15 | 01:25:20 | 00:00:00 | |
| DL1XH-15 | 2026-08-31 08:00:48 | 53.07167 | 8.02136 | 279° | 18km/h | 24387m | 5.4m/s | -51.9°C | 3.6% | 29.1hPa | 2.6V | 08:30:00 | 01:25:14 | 00:00:00 | |
| AA1-15 | 2026-08-31 08:00:48 | 53.07171 | 8.02102 | 273° | 11km/h | 24415m | 4.9m/s | -52°C | 0.3% | 29hPa | 2.6V | 18:12:15 | 01:25:19 | 00:00:00 | |
| DO2SHX-10 | 2026-08-31 08:00:46 | 53.07170 | 8.02114 | 287° | 18km/h | 24404m | 4.7m/s | -52.0°C | 3.6% | 29.0hPa | 2.7V | 00:00:00 | 01:25:17 | 00:00:00 | |
| DL1NUX | 2026-08-31 08:00:45 | 53.07161 | 8.02158 | 301° | 20km/h | 24369m | 4.6m/s | -51.9°C | 3.5% | 29.2hPa | 2.7V | 08:30:00 | 01:25:11 | 00:00:00 | |
| BIOWL1-15 | 2026-08-31 08:00:45 | 53.07169 | 8.02121 | 285° | 18km/h | 24398m | 5.3m/s | -52.1°C | 0.4% | 29.1hPa | 2.7V | 18:12:15 | 01:25:16 | 00:00:00 | |
| DF8AY | 2026-08-31 08:00:44 | 53.07168 | 8.02128 | 277° | 18km/h | 24393m | 6.3m/s | -51.9°C | 0.3% | 29.1hPa | 2.7V | 18:12:15 | 01:25:15 | 00:00:00 | |
| DO2SHX-10 | 2026-08-31 08:00:43 | 53.07167 | 8.02136 | 280° | 18km/h | 24387m | 5.3m/s | -51.9°C | 3.6% | 29.1hPa | 2.6V | 00:00:00 | 01:25:14 | 00:00:00 | |
| DL1XH-west | 2026-08-31 08:00:43 | 53.07167 | 8.02136 | 280° | 18km/h | 24387m | 5.4m/s | -51.9°C | 0.4% | 29.1hPa | 2.6V | 18:12:15 | 01:25:14 | 00:00:00 | |
| DD1CC2-15 | 2026-08-31 08:00:42 | 53.07167 | 8.02136 | 281° | 18km/h | 24387m | 5.4m/s | -51.9°C | 1.0% | 29.1hPa | 2.6V | 00:00:00 | 00:00:00 | 00:00:00 | |
| DM0DOS-11 | 2026-08-31 08:00:41 | 53.07158 | 8.02178 | 262° | 16km/h | 24352m | 4m/s | -52°C | 3.5% | 29.3hPa | 2.6V | 08:30:00 | 01:25:08 | 00:00:00 | |
| DB0DAN | 2026-08-31 08:00:40 | 53.07161 | 8.02158 | 302° | 18km/h | 24369m | 4.6m/s | -51.9°C | 0.9% | 29.22hPa | 2.7V | 00:00:00 | 00:00:00 | 00:00:00 | |
| HSKMA3-T | 2026-08-31 08:00:40 | 53.07161 | 8.02158 | 302° | 20km/h | 24369m | 4.6m/s | -51.9°C | 0.3% | 29.2hPa | 2.7V | 18:12:15 | 01:25:11 | 00:00:00 | |
| DO2JMG | 2026-08-31 08:00:38 | 53.07158 | 8.02172 | 276° | 16km/h | 24357m | 6.2m/s | -52°C | 0.3% | 29.3hPa | 2.7V | 18:12:15 | 01:25:09 | 00:00:00 | |
| AA1-15 | 2026-08-31 08:00:37 | 53.07158 | 8.02178 | 262° | 16km/h | 24353m | 4m/s | -52°C | 0.3% | 29.3hPa | 2.6V | 18:12:15 | 01:25:08 | 00:00:00 | |
| DF8AY-15 | 2026-08-31 08:00:37 | 53.07158 | 8.02178 | 263° | 18km/h | 24353m | 3.9m/s | -51.9°C | 3.5% | 29.3hPa | 2.6V | 00:00:00 | 01:25:08 | 08:30:00 | |
| DL4XJ-10 | 2026-08-31 08:00:36 | 53.07158 | 8.02185 | 267° | 16km/h | 24348m | 6.0m/s | -55.0°C | 0% | 0hPa | 2.6V | 00:00:00 | 00:00:00 | 00:00:00 | |
| DL1NUX | 2026-08-31 08:00:35 | 53.07163 | 8.02223 | 269° | 16km/h | 24311m | 6.3m/s | -52.1°C | 3.7% | 29.5hPa | 2.6V | 08:30:00 | 01:25:01 | 00:00:00 | |
| BIOWL1-15 | 2026-08-31 08:00:34 | 53.07159 | 8.02198 | 263° | 16km/h | 24336m | 5m/s | -52.2°C | 0.3% | 29.4hPa | 2.7V | 18:12:15 | 01:25:05 | 00:00:00 | |
| DL1XH-west | 2026-08-31 08:00:33 | 53.07160 | 8.02205 | 251° | 15km/h | 24330m | 6.9m/s | -52.1°C | 0.4% | 29.4hPa | 2.7V | 18:12:15 | 01:25:04 | 00:00:00 | |
| HSKMA3-T | 2026-08-31 08:00:29 | 53.07163 | 8.02230 | 271° | 18km/h | 24307m | 3.5m/s | -52.1°C | 0.4% | 29.6hPa | 2.6V | 18:12:15 | 01:25:00 | 00:00:00 | |
| DO2JMG | 2026-08-31 08:00:28 | 53.07163 | 8.02238 | 265° | 18km/h | 24302m | 6.1m/s | -52.2°C | 0.4% | 29.6hPa | 2.7V | 18:12:15 | 01:24:59 | 00:00:00 | |
| DL1XH-15 | 2026-08-31 08:00:28 | 53.07170 | 8.02282 | 252° | 22km/h | 24272m | 5.8m/s | -52°C | 3.7% | 29.7hPa | 2.6V | 08:30:00 | 01:24:54 | 00:00:00 | |
| AA1-15 | 2026-08-31 08:00:26 | 53.07166 | 8.02254 | 253° | 22km/h | 24290m | 5.1m/s | -52.3°C | 0.5% | 29.6hPa | 2.7V | 18:12:15 | 01:24:57 | 00:00:00 | |
| DL1XH-west | 2026-08-31 08:00:23 | 53.07170 | 8.02282 | 252° | 22km/h | 24272m | 5.8m/s | -52.1°C | 0.4% | 29.7hPa | 2.6V | 18:12:15 | 01:24:54 | 00:00:00 | |
| DF8AY | 2026-08-31 08:00:22 | 53.07172 | 8.02291 | 240° | 22km/h | 24265m | 7.5m/s | -52°C | 0.4% | 29.7hPa | 2.7V | 18:12:15 | 01:24:53 | 00:00:00 | |
| DM0DOS-11 | 2026-08-31 08:00:21 | 53.07185 | 8.02324 | 240° | 13km/h | 24235m | 4.3m/s | -52.1°C | 3.6% | 29.9hPa | 2.6V | 08:30:00 | 01:24:48 | 00:00:00 | |
| SONDE2-11 | 2026-08-31 08:00:21 | 53.07179 | 8.02306 | 228° | 20km/h | 24253m | 5.9m/s | -52.0°C | 0.9% | 29.8hPa | 2.7V | 00:00:00 | 00:00:00 | 00:00:00 | |
| DL1XH1-15 | 2026-08-31 08:00:20 | 53.07190 | 8.02332 | 210° | 16km/h | 24223m | 5.7m/s | -51.8°C | 3.6% | 29.9hPa | 2.7V | 08:30:00 | 01:24:46 | 00:00:00 | |
| DF5WG-10 | 2026-08-31 08:00:20 | 53.07179 | 8.02306 | 229° | 20km/h | 24253m | 5.8m/s | -51.9°C | 3.6% | 29.7hPa | 2.6V | 00:00:00 | 01:24:51 | 00:00:00 | |
| DD8BA-10 | 2026-08-31 08:00:19 | 53.07182 | 8.02312 | 237° | 16km/h | 24247m | 7.6m/s | -51.9°C | 3.5% | 29.8hPa | 2.6V | 00:00:00 | 00:00:00 | 08:30:00 | |
| HSKMA3-T | 2026-08-31 08:00:19 | 53.07182 | 8.02312 | 236° | 18km/h | 24246m | 7.7m/s | -52°C | 0.3% | 29.8hPa | 2.6V | 18:12:15 | 01:24:50 | 00:00:00 | |
| DL1XH-15 | 2026-08-31 08:00:18 | 53.07198 | 8.02339 | 215° | 16km/h | 24213m | 5.4m/s | -51.7°C | 3.6% | 30hPa | 2.6V | 08:30:00 | 01:24:44 | 00:00:00 | |
| DO2JMG | 2026-08-31 08:00:17 | 53.07186 | 8.02324 | 241° | 13km/h | 24235m | 4.3m/s | -52.1°C | 0.3% | 29.9hPa | 2.6V | 18:12:15 | 01:24:48 | 00:00:00 | |
| AA1-15 | 2026-08-31 08:00:16 | 53.07190 | 8.02332 | 210° | 16km/h | 24223m | 5.7m/s | -51.8°C | 0.3% | 29.9hPa | 2.7V | 18:12:15 | 01:24:46 | 00:00:00 | |
| BIOWL1-15 | 2026-08-31 08:00:13 | 53.07203 | 8.02350 | 240° | 20km/h | 24201m | 5.3m/s | -51.7°C | 0.3% | 30hPa | 2.6V | 18:12:15 | 01:24:42 | 00:00:00 | |
| DL1XH-west | 2026-08-31 08:00:12 | 53.07201 | 8.02344 | 232° | 18km/h | 24207m | 6.7m/s | -51.7°C | 0.3% | 30hPa | 2.6V | 18:12:15 | 01:24:43 | 00:00:00 | |
| DN9WHV | 2026-08-31 08:00:11 | 53.07201 | 8.02344 | 233° | 18km/h | 24207m | 6.7m/s | -51.7°C | 0.9% | 30.0hPa | 2.7V | 00:00:00 | 00:00:00 | 00:00:00 | |
| DB0DAN | 2026-08-31 08:00:10 | 53.07206 | 8.02358 | 236° | 20km/h | 24195m | 6.3m/s | -51.7°C | 0.9% | 30.06hPa | 2.7V | 00:00:00 | 00:00:00 | 00:00:00 | |
| HSKMA3-T | 2026-08-31 08:00:09 | 53.07209 | 8.02365 | 230° | 22km/h | 24188m | 6.5m/s | -51.6°C | 0.3% | 30.1hPa | 2.7V | 18:12:15 | 01:24:40 | 00:00:00 | |
| DO2JMG | 2026-08-31 08:00:06 | 53.07218 | 8.02383 | 236° | 13km/h | 24169m | 5.8m/s | -51.7°C | 0.4% | 30.1hPa | 2.6V | 18:12:15 | 01:24:37 | 00:00:00 | |
| AA1-15 | 2026-08-31 08:00:04 | 53.07221 | 8.02386 | 168° | 9km/h | 24158m | 8.1m/s | -51.8°C | 0.3% | 30.2hPa | 2.7V | 18:12:15 | 01:24:35 | 00:00:00 | |
| BIOWL1-15 | 2026-08-31 08:00:04 | 53.07231 | 8.02374 | 152° | 9km/h | 24134m | 4.9m/s | -51.7°C | 0.4% | 30.3hPa | 2.6V | 18:12:15 | 01:24:31 | 00:00:00 | |
| DF8AY | 2026-08-31 08:00:02 | 53.07226 | 8.02380 | 136° | 13km/h | 24146m | 5.6m/s | -51.7°C | 0.4% | 30.3hPa | 2.7V | 18:12:15 | 01:24:33 | 00:00:00 | |
| HSKMA3-T | 2026-08-31 07:59:58 | 53.07236 | 8.02373 | 194° | 15km/h | 24122m | 5.9m/s | -51.8°C | 0.3% | 30.4hPa | 2.7V | 18:12:15 | 01:24:29 | 00:00:00 | |
| DL1XH-15 | 2026-08-31 07:59:58 | 53.07248 | 8.02399 | 245° | 16km/h | 24093m | 6.5m/s | -52°C | 3.6% | 30.5hPa | 2.6V | 08:30:00 | 01:24:24 | 00:00:00 | |
| DO2JMG | 2026-08-31 07:59:56 | 53.07243 | 8.02380 | 231° | 16km/h | 24112m | 6.3m/s | -51.9°C | 0.4% | 30.4hPa | 2.7V | 18:12:15 | 01:24:27 | 00:00:00 | |
| DB0DAN | 2026-08-31 07:59:55 | 53.07245 | 8.02386 | 248° | 15km/h | 24105m | 6.6m/s | -51.8°C | 0.9% | 30.46hPa | 2.6V | 00:00:00 | 00:00:00 | 00:00:00 | |
| AA1-15 | 2026-08-31 07:59:54 | 53.07246 | 8.02392 | 254° | 16km/h | 24099m | 5.4m/s | -51.9°C | 0.3% | 30.5hPa | 2.6V | 18:12:15 | 01:24:25 | 00:00:00 | |
| DL1XH-west | 2026-08-31 07:59:51 | 53.07252 | 8.02406 | 199° | 9km/h | 24082m | 5.5m/s | -51.9°C | 0.3% | 30.6hPa | 2.7V | 18:12:15 | 01:24:22 | 00:00:00 | |
| BIOWL1-15 | 2026-08-31 07:59:49 | 53.07254 | 8.02405 | 120° | 5km/h | 24069m | 6.1m/s | -51.9°C | 0.4% | 30.6hPa | 2.6V | 18:12:15 | 01:24:20 | 00:00:00 | |
| DD8BA-10 | 2026-08-31 07:59:49 | 53.07254 | 8.02405 | 120° | 9km/h | 24069m | 6.0m/s | -51.8°C | 3.6% | 30.6hPa | 2.6V | 00:00:00 | 00:00:00 | 00:00:00 | |
| DL1XH-15 | 2026-08-31 07:59:48 | 53.07263 | 8.02405 | 257° | 9km/h | 24033m | 6m/s | -51.7°C | 3.5% | 30.8hPa | 2.6V | 08:30:00 | 01:24:14 | 00:00:00 | |
| HSKMA3-T | 2026-08-31 07:59:47 | 53.07256 | 8.02400 | 134° | 7km/h | 24058m | 6.8m/s | -51.8°C | 0.4% | 30.7hPa | 2.6V | 18:12:15 | 01:24:18 | 00:00:00 | |
| DO2JMG | 2026-08-31 07:59:45 | 53.07260 | 8.02399 | 199° | 9km/h | 24045m | 5.7m/s | -51.6°C | 0.3% | 30.7hPa | 2.7V | 18:12:15 | 01:24:16 | 00:00:00 | |
| AA1-15 | 2026-08-31 07:59:44 | 53.07262 | 8.02401 | 226° | 9km/h | 24039m | 6.5m/s | -51.6°C | 0.4% | 30.8hPa | 2.7V | 18:12:15 | 01:24:15 | 00:00:00 | |
| DF8AY | 2026-08-31 07:59:41 | 53.07264 | 8.02412 | 255° | 9km/h | 24021m | 6.8m/s | -51.8°C | 0.3% | 30.9hPa | 2.6V | 18:12:15 | 01:24:12 | 00:00:00 | |
| DB0DAN | 2026-08-31 07:59:40 | 53.07265 | 8.02415 | 243° | 7km/h | 24014m | 6.8m/s | -51.9°C | 0.9% | 30.92hPa | 2.7V | 00:00:00 | 00:00:00 | 00:00:00 | |
| DL1XH-west | 2026-08-31 07:59:40 | 53.07265 | 8.02415 | 243° | 9km/h | 24014m | 6.8m/s | -51.9°C | 0.3% | 30.9hPa | 2.7V | 18:12:15 | 01:24:11 | 00:00:00 | |
| BIOWL1-15 | 2026-08-31 07:59:39 | 53.07266 | 8.02417 | 228° | 5km/h | 24009m | 3.2m/s | -51.8°C | 0.3% | 30.9hPa | 2.7V | 18:12:15 | 01:24:10 | 00:00:00 | |
| HSKMA3-T | 2026-08-31 07:59:36 | 53.07265 | 8.02417 | 352° | 4km/h | 23992m | 5.4m/s | -51.7°C | 0.4% | 31hPa | 2.6V | 18:12:15 | 01:24:07 | 00:00:00 | |
| DO2JMG | 2026-08-31 07:59:35 | 53.07264 | 8.02418 | 316° | 5km/h | 23985m | 7.8m/s | -51.7°C | 0.3% | 31.1hPa | 2.6V | 18:12:15 | 01:24:06 | 00:00:00 | |
| AA1-15 | 2026-08-31 07:59:33 | 53.07261 | 8.02424 | 311° | 11km/h | 23972m | 7.5m/s | -51.6°C | 0.3% | 31.1hPa | 2.7V | 18:12:15 | 01:24:04 | 00:00:00 | |
| DF8AY | 2026-08-31 07:59:31 | 53.07258 | 8.02431 | 291° | 9km/h | 23960m | 4.9m/s | -51.6°C | 0.3% | 31.1hPa | 2.6V | 18:12:15 | 01:24:02 | 00:00:00 | |
| DB0NH | 2026-08-31 07:59:31 | 53.07258 | 8.02431 | 291° | 11km/h | 23960m | 4.8m/s | -51.6°C | 3.4% | 31.1hPa | 2.6V | 00:00:00 | 01:24:02 | 00:00:00 | |
| DL1XH1-15 | 2026-08-31 07:59:30 | 53.07265 | 8.02444 | 216° | 5km/h | 23922m | 7.2m/s | -51.9°C | 3.5% | 31.3hPa | 2.6V | 08:30:00 | 01:23:56 | 00:00:00 | |
| DL1XH-west | 2026-08-31 07:59:30 | 53.07258 | 8.02435 | 264° | 11km/h | 23954m | 7.6m/s | -51.7°C | 0.2% | 31.2hPa | 2.6V | 18:12:15 | 01:24:01 | 00:00:00 | |
| BIOWL1-15 | 2026-08-31 07:59:29 | 53.07259 | 8.02439 | 236° | 9km/h | 23947m | 5.7m/s | -51.7°C | 0.3% | 31.2hPa | 2.6V | 18:12:15 | 01:24:00 | 00:00:00 | |
| DD8BA-10 | 2026-08-31 07:59:29 | 53.07259 | 8.02439 | 237° | 9km/h | 23947m | 5.6m/s | -51.6°C | 3.4% | 31.2hPa | 2.6V | 00:00:00 | 00:00:00 | 00:00:00 | |
| DL1XH-15 | 2026-08-31 07:59:28 | 53.07265 | 8.02448 | 313° | 7km/h | 23911m | 5.5m/s | -52°C | 3.5% | 31.4hPa | 2.6V | 08:30:00 | 01:23:54 | 00:00:00 | |
| HSKMA3-T | 2026-08-31 07:59:26 | 53.07263 | 8.02443 | 192° | 5km/h | 23928m | 4.6m/s | -51.9°C | 0.4% | 31.3hPa | 2.7V | 18:12:15 | 01:23:57 | 00:00:00 | |
| DB0DAN | 2026-08-31 07:59:25 | 53.07265 | 8.02444 | 216° | 5km/h | 23922m | 7.3m/s | -51.9°C | 0.9% | 31.34hPa | 2.6V | 00:00:00 | 00:00:00 | 00:00:00 | |
| DO2JMG | 2026-08-31 07:59:24 | 53.07265 | 8.02446 | 271° | 5km/h | 23916m | 4.4m/s | -51.9°C | 0.3% | 31.4hPa | 2.6V | 18:12:15 | 01:23:55 | 00:00:00 | |
| AA1-15 | 2026-08-31 07:59:22 | 53.07263 | 8.02451 | 338° | 13km/h | 23904m | 7.7m/s | -52.1°C | 0.3% | 31.4hPa | 2.7V | 18:12:15 | 01:23:53 | 00:00:00 | |
| DF8AY | 2026-08-31 07:59:21 | 53.07259 | 8.02453 | 343° | 18km/h | 23897m | 6.2m/s | -51.9°C | 0.3% | 31.5hPa | 2.7V | 18:12:15 | 01:23:52 | 00:00:00 | |
| DM0DOS-11 | 2026-08-31 07:59:21 | 53.07243 | 8.02467 | 326° | 13km/h | 23873m | 6.1m/s | -52.2°C | 3.6% | 31.6hPa | 2.6V | 08:30:00 | 01:23:48 | 00:00:00 | |
| DJ2DS-15 | 2026-08-31 07:59:21 | 53.07259 | 8.02453 | 343° | 13km/h | 23897m | 6.1m/s | -51.9°C | 3.5% | 31.4hPa | 2.7V | 00:00:00 | 01:23:52 | 00:00:00 | |
| DL1XH1-15 | 2026-08-31 07:59:20 | 53.07239 | 8.02469 | 28° | 5km/h | 23861m | 4.6m/s | -52.3°C | 3.6% | 31.6hPa | 2.7V | 08:30:00 | 01:23:46 | 00:00:00 | |
| DL1XH-west | 2026-08-31 07:59:19 | 53.07250 | 8.02459 | 328° | 20km/h | 23884m | 6.1m/s | -52.1°C | 0.3% | 31.5hPa | 2.6V | 18:12:15 | 01:23:50 | 00:00:00 | |
| BIOWL1-15 | 2026-08-31 07:59:19 | 53.07243 | 8.02467 | 327° | 13km/h | 23873m | 6.1m/s | -52.2°C | 0.4% | 31.6hPa | 2.6V | 18:12:15 | 01:23:48 | 00:00:00 | |
| HSKMA3-T | 2026-08-31 07:59:15 | 53.07239 | 8.02469 | 28° | 5km/h | 23861m | 4.6m/s | -52.4°C | 0.4% | 31.6hPa | 2.7V | 18:12:15 | 01:23:46 | 00:00:00 | |
| DO2JMG | 2026-08-31 07:59:14 | 53.07238 | 8.02468 | 70° | 4km/h | 23856m | 5.2m/s | -52.3°C | 0.4% | 31.7hPa | 2.7V | 18:12:15 | 01:23:45 | 00:00:00 | |
| AA1-15 | 2026-08-31 07:59:11 | 53.07240 | 8.02469 | 218° | 5km/h | 23837m | 5m/s | -52.4°C | 0.4% | 31.8hPa | 2.6V | 18:12:15 | 01:23:42 | 00:00:00 | |
| DF8AY | 2026-08-31 07:59:10 | 53.07241 | 8.02470 | 246° | 0km/h | 23831m | 6.9m/s | -52.5°C | 0.3% | 31.8hPa | 2.7V | 18:12:15 | 01:23:41 | 00:00:00 | |
| DM0DOS-11 | 2026-08-31 07:59:10 | 53.07236 | 8.02474 | 329° | 15km/h | 23813m | 7.2m/s | -52.5°C | 3.7% | 31.9hPa | 2.6V | 08:30:00 | 01:23:38 | 00:00:00 | |
| DB0DAN | 2026-08-31 07:59:10 | 53.07241 | 8.02470 | 246° | 0km/h | 23831m | 6.9m/s | -52.5°C | 0.9% | 31.8hPa | 2.7V | 00:00:00 | 00:00:00 | 00:00:00 | |
| DL1XH-west | 2026-08-31 07:59:08 | 53.07239 | 8.02471 | 335° | 11km/h | 23819m | 6.4m/s | -52.4°C | 0.5% | 31.8hPa | 2.7V | 18:12:15 | 01:23:39 | 00:00:00 | |
| DO2JMG | 2026-08-31 07:59:04 | 53.07223 | 8.02483 | 350° | 18km/h | 23793m | 5m/s | -52.4°C | 0.4% | 32hPa | 2.7V | 18:12:15 | 01:23:35 | 00:00:00 | |
| GOEST3-10 | 2026-08-31 07:59:03 | 53.07219 | 8.02484 | 346° | 11km/h | 23788m | 5.6m/s | -52.4°C | 3.6% | 32.0hPa | 2.7V | 00:00:00 | 00:00:00 | 00:00:00 | |
| DF2AP-13 | 2026-08-31 07:59:02 | 53.07215 | 8.02486 | 328° | 9km/h | 23781m | 7.6m/s | -52.4°C | 3.6% | 32.0hPa | 2.7V | 00:00:00 | 01:23:33 | 00:00:00 | |
| DJ2DS-15 | 2026-08-31 07:59:01 | 53.07213 | 8.02490 | 312° | 7km/h | 23775m | 5.0m/s | -52.4°C | 3.6% | 32.0hPa | 2.7V | 00:00:00 | 01:23:32 | 00:00:00 | |
| DM0DOS-11 | 2026-08-31 07:59:00 | 53.07207 | 8.02500 | 301° | 7km/h | 23749m | 8.3m/s | -52.5°C | 3.7% | 32.2hPa | 2.7V | 08:30:00 | 01:23:28 | 00:00:00 | |
| DF8AY | 2026-08-31 07:59:00 | 53.07211 | 8.02493 | 307° | 9km/h | 23769m | 6.1m/s | -52.5°C | 0.4% | 32.1hPa | 2.6V | 18:12:15 | 01:23:31 | 00:00:00 | |
| BIOWL1-15 | 2026-08-31 07:58:59 | 53.07208 | 8.02500 | 302° | 7km/h | 23749m | 8.3m/s | -52.5°C | 0.4% | 32.2hPa | 2.7V | 18:12:15 | 01:23:28 | 00:00:00 | |
| DL1XH-15 | 2026-08-31 07:58:58 | 53.07202 | 8.02510 | 329° | 9km/h | 23724m | 5.4m/s | -52.5°C | 3.7% | 32.4hPa | 2.6V | 08:30:00 | 01:23:24 | 00:00:00 | |
| HTAHTA | 2026-08-31 07:58:58 | 53.07209 | 8.02498 | 320° | 5km/h | 23756m | 4.6m/s | -52.5°C | 1.0% | 32.2hPa | 2.6V | 00:00:00 | 00:00:00 | 00:00:00 | |
| DL1XH-west | 2026-08-31 07:58:58 | 53.07209 | 8.02498 | 321° | 5km/h | 23756m | 4.6m/s | -52.5°C | 0.4% | 32.2hPa | 2.7V | 18:12:15 | 01:23:29 | 00:00:00 | |
| SONCRA | 2026-08-31 07:58:57 | 53.07208 | 8.02500 | 301° | 7km/h | 23749m | 8.3m/s | -52.5°C | 0.9% | 32.2hPa | 2.6V | 00:00:00 | 00:00:00 | 00:00:00 | |
| DL3AQ-11 | 2026-08-31 07:58:56 | 53.07205 | 8.02506 | 309° | 7km/h | 23737m | 5.5m/s | -52.5°C | 1.0% | 32.3hPa | 2.6V | 00:00:00 | 00:00:00 | 00:00:00 | |
| DB0DAN | 2026-08-31 07:58:55 | 53.07205 | 8.02506 | 310° | 7km/h | 23737m | 5.5m/s | -52.5°C | 1% | 32.27hPa | 2.6V | 00:00:00 | 00:00:00 | 00:00:00 | |
| DO2JMG | 2026-08-31 07:58:53 | 53.07202 | 8.02510 | 330° | 9km/h | 23724m | 5.4m/s | -52.5°C | 0.4% | 32.4hPa | 2.6V | 18:12:15 | 01:23:24 | 00:00:00 | |
| D01LWL | 2026-08-31 07:58:52 | 53.07200 | 8.02513 | 314° | 11km/h | 23718m | 7.3m/s | -52.6°C | 1.0% | 32.4hPa | 2.7V | 00:00:00 | 00:00:00 | 00:00:00 | |
| MET0W-2 | 2026-08-31 07:58:51 | 53.07198 | 8.02517 | 301° | 11km/h | 23711m | 5.8m/s | -52.5°C | 1.0% | 32.4hPa | 2.7V | 00:00:00 | 00:00:00 | 00:00:00 | |
| DL1XH1-15 | 2026-08-31 07:58:50 | 53.07196 | 8.02532 | 264° | 7km/h | 23673m | 5.2m/s | -52.5°C | 3.7% | 32.6hPa | 2.7V | 08:30:00 | 01:23:16 | 00:00:00 | |
| AA1-15 | 2026-08-31 07:58:50 | 53.07196 | 8.02521 | 297° | 11km/h | 23705m | 5.5m/s | -52.6°C | 0.4% | 32.4hPa | 2.7V | 18:12:15 | 01:23:21 | 00:00:00 | |
| DF8AY | 2026-08-31 07:58:49 | 53.07196 | 8.02524 | 298° | 5km/h | 23699m | 7.5m/s | -52.5°C | 0.5% | 32.5hPa | 2.6V | 18:12:15 | 01:23:20 | 00:00:00 | |
| DO2SHX-10 | 2026-08-31 07:58:49 | 53.07195 | 8.02524 | 298° | 5km/h | 23699m | 7.5m/s | -52.5°C | 3.7% | 32.4hPa | 2.6V | 00:00:00 | 01:23:20 | 00:00:00 | |
| DL1XH-15 | 2026-08-31 07:58:48 | 53.07196 | 8.02536 | 348° | 4km/h | 23661m | 6.9m/s | -52.6°C | 3.7% | 32.7hPa | 2.6V | 08:30:00 | 01:23:14 | 00:00:00 | |
| DL1XH-west | 2026-08-31 07:58:47 | 53.07195 | 8.02527 | 248° | 4km/h | 23687m | 6.4m/s | -52.5°C | 0.4% | 32.5hPa | 2.6V | 18:12:15 | 01:23:18 | 00:00:00 | |
| BIOWL1-15 | 2026-08-31 07:58:46 | 53.07196 | 8.02529 | 250° | 7km/h | 23680m | 7.4m/s | -52.6°C | 0.5% | 32.6hPa | 2.7V | 18:12:15 | 01:23:17 | 00:00:00 | |
| DO2JMG | 2026-08-31 07:58:43 | 53.07196 | 8.02536 | 348° | 4km/h | 23661m | 6.9m/s | -52.6°C | 0.4% | 32.7hPa | 2.6V | 18:12:15 | 01:23:14 | 00:00:00 | |
| HSKMA3-T | 2026-08-31 07:58:42 | 53.07195 | 8.02536 | 18° | 5km/h | 23655m | 5m/s | -52.6°C | 0.5% | 32.7hPa | 2.6V | 18:12:15 | 01:23:13 | 00:00:00 | |
| DO2SHX-10 | 2026-08-31 07:58:42 | 53.07195 | 8.02536 | 19° | 7km/h | 23655m | 5.0m/s | -52.5°C | 3.8% | 32.6hPa | 2.6V | 00:00:00 | 01:23:13 | 00:00:00 | |
| DJ2DS-15 | 2026-08-31 07:58:41 | 53.07193 | 8.02535 | 9° | 9km/h | 23650m | 4.5m/s | -52.5°C | 3.7% | 32.7hPa | 2.6V | 00:00:00 | 01:23:12 | 00:00:00 | |
| DL1NUX | 2026-08-31 07:58:40 | 53.07181 | 8.02554 | 294° | 15km/h | 23613m | 7.6m/s | -52.6°C | 3.8% | 32.9hPa | 2.6V | 08:30:00 | 01:23:06 | 00:00:00 | |
| DB0DAN | 2026-08-31 07:58:40 | 53.07191 | 8.02535 | 337° | 7km/h | 23644m | 7m/s | -52.6°C | 1% | 32.75hPa | 2.7V | 00:00:00 | 00:00:00 | 00:00:00 | |
| AA1-15 | 2026-08-31 07:58:39 | 53.07190 | 8.02538 | 312° | 11km/h | 23638m | 5.4m/s | -52.6°C | 0.4% | 32.8hPa | 2.7V | 18:12:15 | 01:23:10 | 00:00:00 | |
| DF8AY | 2026-08-31 07:58:38 | 53.07188 | 8.02541 | 315° | 13km/h | 23633m | 5.3m/s | -52.6°C | 0.5% | 32.8hPa | 2.7V | 18:12:15 | 01:23:09 | 00:00:00 | |
| DL1XH-west | 2026-08-31 07:58:36 | 53.07183 | 8.02549 | 313° | 15km/h | 23620m | 5.3m/s | -52.6°C | 0.5% | 32.9hPa | 2.6V | 18:12:15 | 01:23:07 | 00:00:00 | |
| BIOWL1-15 | 2026-08-31 07:58:35 | 53.07181 | 8.02554 | 294° | 15km/h | 23613m | 7.6m/s | -52.6°C | 0.5% | 32.9hPa | 2.6V | 18:12:15 | 01:23:06 | 00:00:00 | |
| DO2JMG | 2026-08-31 07:58:32 | 53.07180 | 8.02570 | 262° | 9km/h | 23594m | 8.2m/s | -52.4°C | 0.4% | 33hPa | 2.7V | 18:12:15 | 01:23:03 | 00:00:00 | |
| HSKMA3-T | 2026-08-31 07:58:31 | 53.07181 | 8.02572 | 257° | 4km/h | 23587m | 4.7m/s | -52.4°C | 0.4% | 33hPa | 2.6V | 18:12:15 | 01:23:02 | 00:00:00 | |
| DB0NH | 2026-08-31 07:58:31 | 53.07180 | 8.02572 | 258° | 7km/h | 23588m | 4.6m/s | -52.4°C | 3.7% | 33.0hPa | 2.6V | 00:00:00 | 01:23:02 | 00:00:00 | |
| DL1XH1-15 | 2026-08-31 07:58:30 | 53.07177 | 8.02577 | 330° | 5km/h | 23550m | 5.2m/s | -52.3°C | 3.6% | 33.2hPa | 2.6V | 08:30:00 | 01:22:56 | 00:00:00 | |
| DO2SHX-10 | 2026-08-31 07:58:30 | 53.07181 | 8.02573 | 241° | 2km/h | 23582m | 5.5m/s | -52.3°C | 3.7% | 33.0hPa | 2.6V | 00:00:00 | 01:23:01 | 00:00:00 | |
| DL1NUX | 2026-08-31 07:58:29 | 53.07177 | 8.02579 | 275° | 7km/h | 23544m | 7.2m/s | -52.2°C | 3.6% | 33.3hPa | 2.6V | 08:30:00 | 01:22:55 | 00:00:00 | |
| DJ2DS-15 | 2026-08-31 07:58:29 | 53.07181 | 8.02574 | 251° | 2km/h | 23576m | 7.4m/s | -52.4°C | 1.0% | 33.1hPa | 2.6V | 00:00:00 | 00:00:00 | 00:00:00 | |
| DL1XH-15 | 2026-08-31 07:58:28 | 53.07177 | 8.02582 | 241° | 11km/h | 23538m | 5.3m/s | -52.2°C | 3.6% | 33.3hPa | 2.6V | 08:30:00 | 01:22:54 | 00:00:00 | |
| DF8AY | 2026-08-31 07:58:28 | 53.07181 | 8.02575 | 299° | 2km/h | 23569m | 5.5m/s | -52.3°C | 0.4% | 33.1hPa | 2.7V | 18:12:15 | 01:22:59 | 00:00:00 | |
| DL1XH-west | 2026-08-31 07:58:25 | 53.07177 | 8.02577 | 330° | 5km/h | 23550m | 5.2m/s | -52.3°C | 0.4% | 33.2hPa | 2.6V | 18:12:15 | 01:22:56 | 00:00:00 | |
| DB0DAN | 2026-08-31 07:58:25 | 53.07177 | 8.02577 | 330° | 5km/h | 23550m | 5.2m/s | -52.3°C | 0.9% | 33.22hPa | 2.6V | 00:00:00 | 00:00:00 | 00:00:00 | |
| BIOWL1-15 | 2026-08-31 07:58:25 | 53.07177 | 8.02582 | 242° | 11km/h | 23538m | 5.3m/s | -52.2°C | 0.4% | 33.3hPa | 2.6V | 18:12:15 | 01:22:54 | 00:00:00 | |
| DO2JMG | 2026-08-31 07:58:21 | 53.07181 | 8.02589 | 210° | 11km/h | 23526m | 6.9m/s | -52.2°C | 0.4% | 33.4hPa | 2.7V | 18:12:15 | 01:22:52 | 00:00:00 | |
| DJ2DS-15 | 2026-08-31 07:58:21 | 53.07181 | 8.02589 | 210° | 9km/h | 23526m | 6.9m/s | -52.2°C | 3.7% | 33.3hPa | 2.6V | 00:00:00 | 01:22:52 | 00:00:00 | |
| DO9LL-15 | 2026-08-31 07:58:20 | 53.07184 | 8.02591 | 198° | 7km/h | 23520m | 5.7m/s | -52.2°C | 3.6% | 33.4hPa | 2.6V | 00:00:00 | 01:22:51 | 00:00:00 | |
| DO1YAY-16 | 2026-08-31 07:58:19 | 53.07187 | 8.02593 | 197° | 11km/h | 23514m | 5.9m/s | -52.2°C | 1.0% | 33.4hPa | 2.6V | 00:00:00 | 00:00:00 | 00:00:00 | |
| DL1XH-15 | 2026-08-31 07:58:18 | 53.07196 | 8.02596 | 71° | 2km/h | 23477m | 6.7m/s | -52.2°C | 3.6% | 33.6hPa | 2.6V | 08:30:00 | 01:22:44 | 00:00:00 | |
| AA1-15 | 2026-08-31 07:58:17 | 53.07192 | 8.02597 | 212° | 11km/h | 23502m | 5.1m/s | -52.2°C | 0.4% | 33.5hPa | 2.6V | 18:12:15 | 01:22:48 | 00:00:00 | |
| BIOWL1-15 | 2026-08-31 07:58:16 | 53.07196 | 8.02597 | 93° | 4km/h | 23483m | 4.7m/s | -52.2°C | 0.4% | 33.6hPa | 2.7V | 18:12:15 | 01:22:45 | 00:00:00 | |
| DL1XH-west | 2026-08-31 07:58:15 | 53.07195 | 8.02599 | 143° | 4km/h | 23489m | 7.6m/s | -52.2°C | 0.4% | 33.6hPa | 2.7V | 18:12:15 | 01:22:46 | 00:00:00 | |
| DO2JMG | 2026-08-31 07:58:11 | 53.07196 | 8.02598 | 250° | 5km/h | 23464m | 5.1m/s | -52.2°C | 0.3% | 33.7hPa | 2.6V | 18:12:15 | 01:22:42 | 00:00:00 | |
| HSKMA3-T | 2026-08-31 07:58:10 | 53.07196 | 8.02599 | 226° | 4km/h | 23458m | 7.8m/s | -52.3°C | 0.4% | 33.7hPa | 2.7V | 18:12:15 | 01:22:41 | 00:00:00 | |
| DB0DAN | 2026-08-31 07:58:10 | 53.07196 | 8.02599 | 226° | 4km/h | 23458m | 7.8m/s | -52.3°C | 0.9% | 33.72hPa | 2.7V | 00:00:00 | 00:00:00 | 00:00:00 | |
| SO1NDE-10 | 2026-08-31 07:58:09 | 53.07197 | 8.02601 | 204° | 7km/h | 23452m | 5.8m/s | -52.2°C | 3.6% | 33.7hPa | 2.7V | 00:00:00 | 01:22:40 | 08:30:00 | |
| DL1XH-15 | 2026-08-31 07:58:08 | 53.07212 | 8.02604 | 139° | 11km/h | 23415m | 5.2m/s | -52.3°C | 3.7% | 34hPa | 2.7V | 08:30:00 | 01:22:34 | 00:00:00 | |
| AA1-15 | 2026-08-31 07:58:06 | 53.07204 | 8.02606 | 198° | 13km/h | 23433m | 4.2m/s | -52.2°C | 0.4% | 33.9hPa | 2.6V | 18:12:15 | 01:22:37 | 00:00:00 | |
| DL1XH-west | 2026-08-31 07:58:04 | 53.07210 | 8.02606 | 151° | 11km/h | 23420m | 6m/s | -52.3°C | 0.4% | 33.9hPa | 2.7V | 18:12:15 | 01:22:35 | 00:00:00 | |
| BIOWL1-15 | 2026-08-31 07:58:03 | 53.07212 | 8.02604 | 139° | 11km/h | 23415m | 5.2m/s | -52.3°C | 0.4% | 34hPa | 2.7V | 18:12:15 | 01:22:34 | 00:00:00 | |
| DO2JMG | 2026-08-31 07:58:01 | 53.07215 | 8.02599 | 136° | 7km/h | 23403m | 5m/s | -52.3°C | 0.4% | 34hPa | 2.6V | 18:12:15 | 01:22:32 | 00:00:00 | |
| DJ2DS-15 | 2026-08-31 07:58:01 | 53.07215 | 8.02599 | 136° | 7km/h | 23403m | 5.0m/s | -52.2°C | 3.7% | 34.0hPa | 2.6V | 00:00:00 | 01:22:32 | 00:00:00 | |
| DL1XH1-15 | 2026-08-31 07:58:00 | 53.07220 | 8.02584 | 169° | 9km/h | 23368m | 4.8m/s | -52.3°C | 3.7% | 34.2hPa | 2.6V | 08:30:00 | 01:22:26 | 00:00:00 | |
| DM0DOS-11 | 2026-08-31 07:58:00 | 53.07217 | 8.02586 | 104° | 7km/h | 23379m | 6.5m/s | -52.3°C | 3.6% | 34.1hPa | 2.7V | 08:30:00 | 01:22:28 | 00:00:00 | |
| HSKMA3-T | 2026-08-31 07:57:59 | 53.07217 | 8.02593 | 95° | 9km/h | 23391m | 6.9m/s | -52.3°C | 0.5% | 34.1hPa | 2.6V | 18:12:15 | 01:22:30 | 00:00:00 | |
| DL1XH-15 | 2026-08-31 07:57:58 | 53.07225 | 8.02580 | 136° | 11km/h | 23356m | 6.8m/s | -52.3°C | 3.6% | 34.3hPa | 2.6V | 08:30:00 | 01:22:24 | 00:00:00 | |
| AA1-15 | 2026-08-31 07:57:55 | 53.07220 | 8.02584 | 169° | 9km/h | 23368m | 4.8m/s | -52.3°C | 0.4% | 34.2hPa | 2.6V | 18:12:15 | 01:22:26 | 00:00:00 | |
| DB0DAN | 2026-08-31 07:57:55 | 53.07220 | 8.02584 | 169° | 9km/h | 23368m | 4.8m/s | -52.3°C | 1% | 34.22hPa | 2.6V | 00:00:00 | 00:00:00 | 00:00:00 | |
| DL1XH-west | 2026-08-31 07:57:54 | 53.07222 | 8.02583 | 156° | 11km/h | 23362m | 6.2m/s | -52.4°C | 0.4% | 34.2hPa | 2.6V | 18:12:15 | 01:22:25 | 00:00:00 | |
| BIOWL1-15 | 2026-08-31 07:57:52 | 53.07226 | 8.02577 | 120° | 9km/h | 23350m | 5.5m/s | -52.3°C | 0.3% | 34.3hPa | 2.7V | 18:12:15 | 01:22:23 | 00:00:00 | |
| DO2SHX-10 | 2026-08-31 07:57:52 | 53.07226 | 8.02577 | 120° | 5km/h | 23350m | 5.4m/s | -52.3°C | 3.6% | 34.2hPa | 2.7V | 00:00:00 | 01:22:23 | 00:00:00 | |
| DL1NUX | 2026-08-31 07:57:51 | 53.07224 | 8.02564 | 68° | 7km/h | 23313m | 5.5m/s | -52.3°C | 3.6% | 34.5hPa | 2.7V | 08:30:00 | 01:22:17 | 00:00:00 | |
| DO2JMG | 2026-08-31 07:57:51 | 53.07227 | 8.02575 | 129° | 5km/h | 23343m | 8m/s | -52.3°C | 0.4% | 34.3hPa | 2.7V | 18:12:15 | 01:22:22 | 00:00:00 | |
| DM0DOS-11 | 2026-08-31 07:57:50 | 53.07225 | 8.02567 | 62° | 9km/h | 23318m | 5m/s | -52.3°C | 3.6% | 34.4hPa | 2.6V | 08:30:00 | 01:22:18 | 00:00:00 | |
| HSKMA3-T | 2026-08-31 07:57:49 | 53.07227 | 8.02572 | 53° | 4km/h | 23331m | 5.1m/s | -52.3°C | 0.4% | 34.4hPa | 2.6V | 18:12:15 | 01:22:20 | 00:00:00 | |
| DO2SHX-10 | 2026-08-31 07:57:49 | 53.07227 | 8.02572 | 53° | 7km/h | 23331m | 5.0m/s | -52.2°C | 3.6% | 34.3hPa | 2.6V | 00:00:00 | 01:22:20 | 00:00:00 | |
| DL1XH-15 | 2026-08-31 07:57:48 | 53.07224 | 8.02558 | 82° | 5km/h | 23296m | 6.6m/s | -52.4°C | 3.7% | 34.6hPa | 2.6V | 08:30:00 | 01:22:14 | 00:00:00 | |
| AA1-15 | 2026-08-31 07:57:44 | 53.07224 | 8.02560 | 92° | 4km/h | 23302m | 4.7m/s | -52.4°C | 0.4% | 34.6hPa | 2.7V | 18:12:15 | 01:22:15 | 00:00:00 | |
| DL1XH-west | 2026-08-31 07:57:43 | 53.07224 | 8.02558 | 82° | 5km/h | 23296m | 6.6m/s | -52.4°C | 0.5% | 34.6hPa | 2.6V | 18:12:15 | 01:22:14 | 00:00:00 | |
| BIOWL1-15 | 2026-08-31 07:57:42 | 53.07223 | 8.02555 | 67° | 9km/h | 23290m | 5.9m/s | -52.4°C | 0.4% | 34.6hPa | 2.6V | 18:12:15 | 01:22:13 | 00:00:00 | |
| DL1NUX | 2026-08-31 07:57:41 | 53.07213 | 8.02538 | 49° | 15km/h | 23255m | 7.4m/s | -52.4°C | 3.6% | 34.8hPa | 2.6V | 08:30:00 | 01:22:07 | 00:00:00 | |
| DB0DAN | 2026-08-31 07:57:40 | 53.07221 | 8.02548 | 52° | 9km/h | 23279m | 5.7m/s | -52.4°C | 1% | 34.69hPa | 2.7V | 00:00:00 | 00:00:00 | 00:00:00 | |
| DO2JMG | 2026-08-31 07:57:40 | 53.07221 | 8.02548 | 52° | 9km/h | 23279m | 5.7m/s | -52.4°C | 0.4% | 34.7hPa | 2.7V | 18:12:15 | 01:22:11 | 00:00:00 | |
| DM0DOS-11 | 2026-08-31 07:57:40 | 53.07215 | 8.02541 | 41° | 11km/h | 23262m | 6.4m/s | -52.4°C | 3.6% | 34.8hPa | 2.6V | 08:30:00 | 01:22:08 | 00:00:00 | |
| HSKMA3-T | 2026-08-31 07:57:38 | 53.07217 | 8.02543 | 27° | 7km/h | 23267m | 4.8m/s | -52.3°C | 0.4% | 34.8hPa | 2.7V | 18:12:15 | 01:22:09 | 00:00:00 | |
| DL1XH-15 | 2026-08-31 07:57:38 | 53.07206 | 8.02524 | 47° | 13km/h | 23237m | 5.9m/s | -52.4°C | 3.7% | 34.9hPa | 2.7V | 08:30:00 | 01:22:04 | 00:00:00 | |
| DL1XH-west | 2026-08-31 07:57:33 | 53.07206 | 8.02524 | 47° | 13km/h | 23238m | 5.9m/s | -52.4°C | 0.4% | 34.9hPa | 2.7V | 18:12:15 | 01:22:04 | 00:00:00 | |
| DO2JMG | 2026-08-31 07:57:29 | 53.07198 | 8.02507 | 36° | 9km/h | 23214m | 7.4m/s | -52.4°C | 0.4% | 35hPa | 2.6V | 18:12:15 | 01:22:00 | 00:00:00 | |
| HSKMA3-T | 2026-08-31 07:57:28 | 53.07196 | 8.02505 | 14° | 11km/h | 23207m | 6m/s | -52.5°C | 0.4% | 35.1hPa | 2.7V | 18:12:15 | 01:21:59 | 00:00:00 | |
| DL1XH-west | 2026-08-31 07:57:22 | 53.07177 | 8.02496 | 7° | 11km/h | 23172m | 5.6m/s | -52.4°C | 0.4% | 35.3hPa | 2.7V | 18:12:15 | 01:21:53 | 00:00:00 | |
| DO2JMG | 2026-08-31 07:57:19 | 53.07169 | 8.02490 | 32° | 11km/h | 23154m | 4.7m/s | -52.5°C | 0.6% | 35.4hPa | 2.6V | 18:12:15 | 01:21:50 | 00:00:00 | |
| HSKMA3-T | 2026-08-31 07:57:18 | 53.07167 | 8.02489 | 16° | 7km/h | 23148m | 7m/s | -52.5°C | 0.5% | 35.4hPa | 2.6V | 18:12:15 | 01:21:49 | 00:00:00 | |
| DL1XH-west | 2026-08-31 07:57:12 | 53.07153 | 8.02486 | 340° | 9km/h | 23115m | 6m/s | -52.4°C | 0.4% | 35.6hPa | 2.6V | 18:12:15 | 01:21:43 | 00:00:00 | |
| DF8AY | 2026-08-31 07:57:11 | 53.07151 | 8.02487 | 325° | 7km/h | 23109m | 5.6m/s | -52.3°C | 0.4% | 35.6hPa | 2.6V | 18:12:15 | 01:21:42 | 00:00:00 | |
| DB0DAN | 2026-08-31 07:57:10 | 53.07150 | 8.02488 | 350° | 4km/h | 23103m | 7m/s | -52.2°C | 0.9% | 35.65hPa | 2.7V | 00:00:00 | 00:00:00 | 00:00:00 | |
| DM0DOS-11 | 2026-08-31 07:57:10 | 53.07150 | 8.02483 | 133° | 5km/h | 23085m | 7.5m/s | -52°C | 3.6% | 35.7hPa | 2.6V | 08:30:00 | 01:21:38 | 00:00:00 | |
| BIOWL1-15 | 2026-08-31 07:57:09 | 53.07149 | 8.02487 | 55° | 4km/h | 23096m | 6.1m/s | -52.1°C | 0.4% | 35.7hPa | 2.7V | 18:12:15 | 01:21:40 | 00:00:00 | |
| DO2JMG | 2026-08-31 07:57:08 | 53.07149 | 8.02486 | 97° | 5km/h | 23091m | 4.3m/s | -52°C | 0.4% | 35.7hPa | 2.7V | 18:12:15 | 01:21:39 | 00:00:00 | |
| DL1XH-15 | 2026-08-31 07:57:08 | 53.07154 | 8.02477 | 103° | 4km/h | 23062m | 4.5m/s | -51.8°C | 3.7% | 35.9hPa | 2.7V | 08:30:00 | 01:21:34 | 00:00:00 | |
| HSKMA3-T | 2026-08-31 07:57:07 | 53.07150 | 8.02483 | 133° | 5km/h | 23085m | 7.5m/s | -52°C | 0.4% | 35.7hPa | 2.6V | 18:12:15 | 01:21:38 | 00:00:00 | |
| DL1XH-west | 2026-08-31 07:57:01 | 53.07155 | 8.02477 | 259° | 4km/h | 23051m | 7.1m/s | -51.8°C | 0.3% | 36hPa | 2.6V | 18:12:15 | 01:21:32 | 00:00:00 | |
| AA1-15 | 2026-08-31 07:57:00 | 53.07155 | 8.02480 | 277° | 9km/h | 23045m | 5.1m/s | -51.9°C | 0.3% | 36hPa | 2.6V | 18:12:15 | 01:21:31 | 00:00:00 | |
| DM0DOS-11 | 2026-08-31 07:57:00 | 53.07152 | 8.02489 | 304° | 5km/h | 23027m | 4.6m/s | -52°C | 3.5% | 36.1hPa | 2.7V | 08:30:00 | 01:21:28 | 00:00:00 | |
| BIOWL1-15 | 2026-08-31 07:56:59 | 53.07154 | 8.02483 | 300° | 9km/h | 23039m | 7.7m/s | -51.9°C | 0.3% | 36hPa | 2.6V | 18:12:15 | 01:21:30 | 00:00:00 | |
| GOEST3-10 | 2026-08-31 07:56:59 | 53.07154 | 8.02483 | 300° | 7km/h | 23039m | 7.7m/s | -51.9°C | 3.5% | 35.9hPa | 2.6V | 00:00:00 | 00:00:00 | 08:30:00 | |
| DL1XH-15 | 2026-08-31 07:56:58 | 53.07157 | 8.02487 | 137° | 13km/h | 23004m | 6.4m/s | -52°C | 3.6% | 36.2hPa | 2.6V | 08:30:00 | 01:21:24 | 00:00:00 | |
| DO2JMG | 2026-08-31 07:56:57 | 53.07152 | 8.02489 | 304° | 5km/h | 23027m | 4.6m/s | -52°C | 0.3% | 36.1hPa | 2.7V | 18:12:15 | 01:21:28 | 00:00:00 | |
| HSKMA3-T | 2026-08-31 07:56:56 | 53.07151 | 8.02490 | 240° | 4km/h | 23022m | 6.5m/s | -51.9°C | 0.3% | 36.1hPa | 2.7V | 18:12:15 | 01:21:27 | 00:00:00 | |
| DL3AQ-11 | 2026-08-31 07:56:56 | 53.07153 | 8.02491 | 173° | 5km/h | 23016m | 5.2m/s | -51.9°C | 0.9% | 36.2hPa | 2.6V | 00:00:00 | 00:00:00 | 00:00:00 | |
| DB0DAN | 2026-08-31 07:56:55 | 53.07153 | 8.02491 | 174° | 7km/h | 23016m | 5.2m/s | -51.9°C | 0.9% | 36.17hPa | 2.6V | 00:00:00 | 00:00:00 | 00:00:00 | |
| DL1XH-west | 2026-08-31 07:56:50 | 53.07165 | 8.02478 | 173° | 13km/h | 22987m | 4.9m/s | -51.9°C | 0.4% | 36.3hPa | 2.7V | 18:12:15 | 01:21:21 | 00:00:00 | |
| DM0DOS-11 | 2026-08-31 07:56:49 | 53.07169 | 8.02479 | 325° | 2km/h | 22971m | 5.6m/s | -52.1°C | 3.5% | 36.4hPa | 2.6V | 08:30:00 | 01:21:18 | 00:00:00 | |
| BIOWL1-15 | 2026-08-31 07:56:49 | 53.07168 | 8.02478 | 184° | 9km/h | 22983m | 4.6m/s | -51.9°C | 0.4% | 36.3hPa | 2.6V | 18:12:15 | 01:21:20 | 00:00:00 | |
| DO2JMG | 2026-08-31 07:56:46 | 53.07169 | 8.02480 | 326° | 5km/h | 22965m | 5.7m/s | -52.2°C | 0.4% | 36.4hPa | 2.7V | 18:12:15 | 01:21:17 | 00:00:00 | |
| DF8AY | 2026-08-31 07:56:40 | 53.07172 | 8.02476 | 132° | 15km/h | 22931m | 5.1m/s | -52.3°C | 0.4% | 36.6hPa | 2.7V | 18:12:15 | 01:21:11 | 00:00:00 | |
| DL1XH1-15 | 2026-08-31 07:56:40 | 53.07190 | 8.02464 | 160° | 13km/h | 22904m | 5m/s | -51.9°C | 3.6% | 36.8hPa | 2.6V | 08:30:00 | 01:21:06 | 00:00:00 | |
| DB0DAN | 2026-08-31 07:56:40 | 53.07172 | 8.02476 | 132° | 13km/h | 22931m | 5.1m/s | -52.3°C | 1% | 36.61hPa | 2.7V | 00:00:00 | 00:00:00 | 00:00:00 | |
| DL3AQ-11 | 2026-08-31 07:56:40 | 53.07175 | 8.02472 | 149° | 15km/h | 22926m | 6.4m/s | -52.2°C | 1.0% | 36.7hPa | 2.6V | 00:00:00 | 00:00:00 | 00:00:00 | |
| DM0DOS-11 | 2026-08-31 07:56:39 | 53.07183 | 8.02468 | 168° | 16km/h | 22915m | 4.5m/s | -52°C | 3.6% | 36.7hPa | 2.6V | 08:30:00 | 01:21:08 | 00:00:00 | |
| DL1XH-west | 2026-08-31 07:56:39 | 53.07175 | 8.02472 | 150° | 16km/h | 22926m | 6.4m/s | -52.2°C | 0.5% | 36.7hPa | 2.7V | 18:12:15 | 01:21:10 | 00:00:00 | |
| BIOWL1-15 | 2026-08-31 07:56:38 | 53.07179 | 8.02470 | 165° | 16km/h | 22920m | 4.8m/s | -52.1°C | 0.5% | 36.7hPa | 2.7V | 18:12:15 | 01:21:09 | 00:00:00 | |
| HSKMA3-T | 2026-08-31 07:56:36 | 53.07187 | 8.02466 | 161° | 15km/h | 22909m | 6.6m/s | -51.9°C | 0.4% | 36.7hPa | 2.6V | 18:12:15 | 01:21:07 | 00:00:00 | |
| DO2JMG | 2026-08-31 07:56:35 | 53.07190 | 8.02464 | 161° | 13km/h | 22904m | 5m/s | -51.9°C | 0.4% | 36.8hPa | 2.6V | 18:12:15 | 01:21:06 | 00:00:00 | |
| DL1NUX | 2026-08-31 07:56:34 | 53.07210 | 8.02465 | 175° | 13km/h | 22869m | 5.5m/s | -52°C | 3.6% | 37hPa | 2.6V | 08:30:00 | 01:21:00 | 00:00:00 | |
| DO2SHX-10 | 2026-08-31 07:56:34 | 53.07193 | 8.02463 | 178° | 15km/h | 22898m | 6.3m/s | -51.9°C | 3.6% | 36.8hPa | 2.7V | 00:00:00 | 01:21:05 | 08:30:00 | |
| DL8OAI-8 | 2026-08-31 07:56:33 | 53.07193 | 8.02463 | 178° | 13km/h | 22898m | 6.4m/s | -52.0°C | 1.0% | 36.8hPa | 2.6V | 00:00:00 | 00:00:00 | 00:00:00 | |
| DF2AP-13 | 2026-08-31 07:56:32 | 53.07200 | 8.02465 | 193° | 11km/h | 22887m | 4.0m/s | -52.0°C | 3.7% | 36.8hPa | 2.6V | 00:00:00 | 01:21:03 | 00:00:00 | |
| DO2SHX-10 | 2026-08-31 07:56:31 | 53.07204 | 8.02466 | 184° | 13km/h | 22881m | 7.2m/s | -51.9°C | 3.6% | 36.9hPa | 2.6V | 00:00:00 | 01:21:02 | 00:00:00 | |
| DL1XH1-15 | 2026-08-31 07:56:30 | 53.07222 | 8.02461 | 135° | 11km/h | 22846m | 5.8m/s | -52°C | 3.6% | 37.1hPa | 2.6V | 08:30:00 | 01:20:56 | 00:00:00 | |
| DL1XH-west | 2026-08-31 07:56:29 | 53.07210 | 8.02465 | 176° | 13km/h | 22869m | 5.5m/s | -52°C | 0.3% | 37hPa | 2.6V | 18:12:15 | 01:21:00 | 00:00:00 | |
| DM0DOS-11 | 2026-08-31 07:56:29 | 53.07217 | 8.02464 | 172° | 13km/h | 22858m | 4.2m/s | -51.9°C | 3.6% | 37hPa | 2.7V | 08:30:00 | 01:20:58 | 00:00:00 | |
| AA1-15 | 2026-08-31 07:56:28 | 53.07214 | 8.02465 | 179° | 15km/h | 22863m | 6.5m/s | -52.1°C | 0.4% | 37hPa | 2.7V | 18:12:15 | 01:20:59 | 00:00:00 | |
| BIOWL1-15 | 2026-08-31 07:56:27 | 53.07217 | 8.02465 | 173° | 13km/h | 22858m | 4.2m/s | -51.9°C | 0.4% | 37hPa | 2.7V | 18:12:15 | 01:20:58 | 00:00:00 | |
| DD8BA-10 | 2026-08-31 07:56:27 | 53.07217 | 8.02464 | 173° | 9km/h | 22858m | 4.2m/s | -51.9°C | 3.6% | 37.0hPa | 2.6V | 00:00:00 | 00:00:00 | 00:00:00 | |
| DC6BW-12 | 2026-08-31 07:56:26 | 53.07217 | 8.02464 | 174° | 13km/h | 22858m | 4.2m/s | -51.9°C | 1.0% | 37.1hPa | 2.6V | 00:00:00 | 00:00:00 | 00:00:00 | |
| DB0DAN | 2026-08-31 07:56:25 | 53.07222 | 8.02461 | 136° | 9km/h | 22846m | 5.8m/s | -52°C | 0.9% | 37.1hPa | 2.6V | 00:00:00 | 00:00:00 | 00:00:00 | |
| DO2JMG | 2026-08-31 07:56:25 | 53.07222 | 8.02461 | 136° | 11km/h | 22846m | 5.8m/s | -52°C | 0.4% | 37.1hPa | 2.6V | 18:12:15 | 01:20:56 | 00:00:00 | |
| GOEST3-10 | 2026-08-31 07:56:24 | 53.07224 | 8.02457 | 132° | 11km/h | 22840m | 5.5m/s | -52.0°C | 3.6% | 37.1hPa | 2.6V | 00:00:00 | 01:20:55 | 00:00:00 | |
| DL1NUX | 2026-08-31 07:56:23 | 53.07235 | 8.02442 | 162° | 5km/h | 22806m | 6.6m/s | -52°C | 3.5% | 37.3hPa | 2.6V | 08:30:00 | 01:20:49 | 00:00:00 | |
| DO2SHX-10 | 2026-08-31 07:56:22 | 53.07229 | 8.02451 | 144° | 9km/h | 22829m | 4.9m/s | -51.9°C | 3.6% | 37.2hPa | 2.7V | 00:00:00 | 01:20:53 | 00:00:00 | |
| DJ2DS-15 | 2026-08-31 07:56:21 | 53.07231 | 8.02447 | 138° | 9km/h | 22823m | 5.8m/s | -51.8°C | 3.6% | 37.2hPa | 2.7V | 00:00:00 | 01:20:52 | 00:00:00 | |
| DL1XH1-15 | 2026-08-31 07:56:20 | 53.07241 | 8.02443 | 186° | 7km/h | 22789m | 6.4m/s | -51.9°C | 3.6% | 37.4hPa | 2.7V | 08:30:00 | 01:20:46 | 00:00:00 | |
| DM0DOS-11 | 2026-08-31 07:56:19 | 53.07237 | 8.02442 | 182° | 9km/h | 22800m | 5.6m/s | -52°C | 3.6% | 37.4hPa | 2.6V | 08:30:00 | 01:20:48 | 00:00:00 | |
| DL1XH-west | 2026-08-31 07:56:18 | 53.07235 | 8.02442 | 162° | 5km/h | 22806m | 6.6m/s | -52°C | 0.3% | 37.4hPa | 2.6V | 18:12:15 | 01:20:49 | 00:00:00 | |
| BIOWL1-15 | 2026-08-31 07:56:17 | 53.07237 | 8.02442 | 183° | 9km/h | 22800m | 5.6m/s | -52.1°C | 0.4% | 37.4hPa | 2.6V | 18:12:15 | 01:20:48 | 00:00:00 | |
| DO2JMG | 2026-08-31 07:56:15 | 53.07241 | 8.02443 | 187° | 7km/h | 22789m | 6.4m/s | -51.9°C | 0.3% | 37.4hPa | 2.7V | 18:12:15 | 01:20:46 | 00:00:00 | |
| DB0UT-7 | 2026-08-31 07:56:15 | 53.07241 | 8.02442 | 187° | 11km/h | 22789m | 6.4m/s | -51.9°C | 3.6% | 37.4hPa | 2.7V | 00:00:00 | 00:00:00 | 00:00:00 | |
| GOEST3-10 | 2026-08-31 07:56:14 | 53.07242 | 8.02442 | 159° | 9km/h | 22783m | 6.6m/s | -51.8°C | 3.6% | 37.4hPa | 2.7V | 00:00:00 | 01:20:45 | 08:30:00 | |
| DL1NUX | 2026-08-31 07:56:13 | 53.07251 | 8.02420 | 96° | 11km/h | 22749m | 4.2m/s | -51.9°C | 3.6% | 37.7hPa | 2.7V | 08:30:00 | 01:20:39 | 00:00:00 | |
| DB0DAN | 2026-08-31 07:56:10 | 53.07249 | 8.02430 | 120° | 13km/h | 22761m | 6.1m/s | -52.1°C | 1% | 37.6hPa | 2.7V | 00:00:00 | 00:00:00 | 00:00:00 | |
| DL1XH1-15 | 2026-08-31 07:56:10 | 53.07253 | 8.02408 | 86° | 7km/h | 22732m | 5.3m/s | -52°C | 3.6% | 37.8hPa | 2.6V | 08:30:00 | 01:20:36 | 00:00:00 | |
| DM0DOS-11 | 2026-08-31 07:56:09 | 53.07251 | 8.02415 | 105° | 11km/h | 22743m | 7.1m/s | -52°C | 3.6% | 37.7hPa | 2.6V | 08:30:00 | 01:20:38 | 00:00:00 | |
| DL1XH-west | 2026-08-31 07:56:08 | 53.07251 | 8.02420 | 96° | 11km/h | 22749m | 4.2m/s | -51.9°C | 0.4% | 37.7hPa | 2.7V | 18:12:15 | 01:20:39 | 00:00:00 | |
| DF8AY | 2026-08-31 07:56:07 | 53.07252 | 8.02415 | 106° | 11km/h | 22743m | 7.1m/s | -52°C | 0.4% | 37.7hPa | 2.6V | 18:12:15 | 01:20:38 | 00:00:00 | |
| BIOWL1-15 | 2026-08-31 07:56:06 | 53.07251 | 8.02404 | 18° | 5km/h | 22720m | 5.1m/s | -52°C | 0.4% | 37.9hPa | 2.7V | 18:12:15 | 01:20:34 | 00:00:00 | |
| AA1-15 | 2026-08-31 07:56:06 | 53.07252 | 8.02411 | 107° | 9km/h | 22737m | 5m/s | -52°C | 0.5% | 37.7hPa | 2.6V | 18:12:15 | 01:20:37 | 00:00:00 | |
| DO2JMG | 2026-08-31 07:56:04 | 53.07252 | 8.02405 | 51° | 5km/h | 22726m | 6.8m/s | -52°C | 0.4% | 37.8hPa | 2.7V | 18:12:15 | 01:20:35 | 00:00:00 | |
| DN9WHV | 2026-08-31 07:56:03 | 53.07251 | 8.02404 | 19° | 5km/h | 22720m | 5.1m/s | -52.0°C | 1.0% | 37.9hPa | 2.6V | 00:00:00 | 00:00:00 | 00:00:00 | |
| DN9WHV | 2026-08-31 07:56:02 | 53.07250 | 8.02403 | 351° | 2km/h | 22714m | 7.2m/s | -52.0°C | 1.0% | 37.9hPa | 2.6V | 00:00:00 | 00:00:00 | 00:00:00 | |
| DJ2DS-15 | 2026-08-31 07:56:01 | 53.07250 | 8.02404 | 236° | 11km/h | 22708m | 5.2m/s | -51.8°C | 3.6% | 37.9hPa | 2.6V | 00:00:00 | 01:20:32 | 00:00:00 | |
| DL1XH1-15 | 2026-08-31 07:56:00 | 53.07254 | 8.02386 | 119° | 20km/h | 22674m | 4.7m/s | -51.8°C | 3.6% | 38.1hPa | 2.6V | 08:30:00 | 01:20:26 | 00:00:00 | |
| DL3AQ-11 | 2026-08-31 07:56:00 | 53.07250 | 8.02404 | 65° | 2km/h | 22696m | 6.0m/s | -51.8°C | 0.9% | 38.0hPa | 2.7V | 00:00:00 | 00:00:00 | 00:00:00 | |
| DM0DOS-11 | 2026-08-31 07:55:59 | 53.07250 | 8.02398 | 108° | 11km/h | 22686m | 5.7m/s | -51.9°C | 3.6% | 38hPa | 2.7V | 08:30:00 | 01:20:28 | 00:00:00 | |
| DL1XH-15 | 2026-08-31 07:55:58 | 53.07257 | 8.02371 | 88° | 18km/h | 22663m | 6m/s | -51.8°C | 3.4% | 38.2hPa | 2.6V | 08:30:00 | 01:20:24 | 00:00:00 | |
| DL1XH-west | 2026-08-31 07:55:57 | 53.07250 | 8.02398 | 108° | 11km/h | 22686m | 5.7m/s | -51.9°C | 0.3% | 38hPa | 2.7V | 18:12:15 | 01:20:28 | 00:00:00 | |
| DF8AY | 2026-08-31 07:55:56 | 53.07252 | 8.02393 | 122° | 16km/h | 22680m | 6.4m/s | -51.8°C | 0.3% | 38.1hPa | 2.7V | 18:12:15 | 01:20:27 | 00:00:00 | |
| AA1-15 | 2026-08-31 07:55:55 | 53.07254 | 8.02386 | 120° | 20km/h | 22674m | 4.7m/s | -51.8°C | 0.4% | 38.1hPa | 2.6V | 18:12:15 | 01:20:26 | 00:00:00 | |
| DB0DAN | 2026-08-31 07:55:55 | 53.07254 | 8.02386 | 120° | 18km/h | 22674m | 4.7m/s | -51.8°C | 1% | 38.11hPa | 2.6V | 00:00:00 | 00:00:00 | 00:00:00 | |
| HSKMA3-T | 2026-08-31 07:55:54 | 53.07256 | 8.02379 | 109° | 20km/h | 22669m | 5.9m/s | -51.8°C | 0.3% | 38.1hPa | 2.6V | 18:12:15 | 01:20:25 | 00:00:00 | |
| DO2JMG | 2026-08-31 07:55:53 | 53.07257 | 8.02371 | 88° | 18km/h | 22663m | 6m/s | -51.8°C | 0.2% | 38.2hPa | 2.6V | 18:12:15 | 01:20:24 | 00:00:00 | |
| HTAHTA | 2026-08-31 07:55:52 | 53.07254 | 8.02359 | 49° | 15km/h | 22652m | 5.6m/s | -51.9°C | 0.9% | 38.2hPa | 2.7V | 00:00:00 | 00:00:00 | 00:00:00 | |
| DL1XH1-15 | 2026-08-31 07:55:50 | 53.07237 | 8.02349 | 9° | 11km/h | 22618m | 6.5m/s | -51.8°C | 3.6% | 38.5hPa | 2.7V | 08:30:00 | 01:20:16 | 00:00:00 | |
| GOEST3-10 | 2026-08-31 07:55:49 | 53.07249 | 8.02352 | 20° | 13km/h | 22641m | 4.6m/s | 0°C | 0% | 0hPa | 2.6V | 00:00:00 | 00:00:00 | 00:00:00 | |
| DL1XH-15 | 2026-08-31 07:55:48 | 53.07234 | 8.02345 | 65° | 7km/h | 22607m | 3.5m/s | -51.8°C | 3.7% | 38.5hPa | 2.6V | 08:30:00 | 01:20:14 | 00:00:00 | |
| DL1XH-west | 2026-08-31 07:55:47 | 53.07243 | 8.02351 | 7° | 15km/h | 22630m | 6.7m/s | -51.8°C | 0.4% | 38.4hPa | 2.6V | 18:12:15 | 01:20:18 | 00:00:00 | |
| DF8AY | 2026-08-31 07:55:46 | 53.07240 | 8.02350 | 8° | 15km/h | 22624m | 5.5m/s | -51.8°C | 0.4% | 38.4hPa | 2.7V | 18:12:15 | 01:20:17 | 00:00:00 | |
| BIOWL1-15 | 2026-08-31 07:55:46 | 53.07233 | 8.02342 | 64° | 11km/h | 22602m | 6.7m/s | -51.9°C | 0.4% | 38.5hPa | 2.6V | 18:12:15 | 01:20:13 | 00:00:00 | |
| HSKMA3-T | 2026-08-31 07:55:44 | 53.07235 | 8.02348 | 34° | 7km/h | 22612m | 6m/s | -51.8°C | 0.4% | 38.5hPa | 2.7V | 18:12:15 | 01:20:15 | 00:00:00 | |
| DO2JMG | 2026-08-31 07:55:43 | 53.07234 | 8.02345 | 65° | 7km/h | 22607m | 3.5m/s | -51.9°C | 0.4% | 38.5hPa | 2.6V | 18:12:15 | 01:20:14 | 00:00:00 | |
| DN9WHV | 2026-08-31 07:55:41 | 53.07232 | 8.02342 | 65° | 11km/h | 22602m | 6.7m/s | -51.9°C | 1.0% | 38.6hPa | 2.7V | 00:00:00 | 00:00:00 | 00:00:00 | |
| DB0DAN | 2026-08-31 07:55:40 | 53.07229 | 8.02332 | 60° | 13km/h | 22591m | 3.9m/s | -51.9°C | 0.9% | 38.61hPa | 2.7V | 00:00:00 | 00:00:00 | 00:00:00 | |
| DL1XH1-15 | 2026-08-31 07:55:40 | 53.07218 | 8.02320 | 7° | 11km/h | 22563m | 4.7m/s | -52°C | 3.6% | 38.8hPa | 2.6V | 08:30:00 | 01:20:06 | 00:00:00 | |
| SO1NDE-10 | 2026-08-31 07:55:40 | 53.07229 | 8.02332 | 60° | 9km/h | 22591m | 3.9m/s | -51.8°C | 3.6% | 38.6hPa | 2.6V | 00:00:00 | 01:20:11 | 00:00:00 | |
| DM0DOS-11 | 2026-08-31 07:55:39 | 53.07224 | 8.02322 | 19° | 11km/h | 22574m | 6.2m/s | -52°C | 3.5% | 38.7hPa | 2.6V | 08:30:00 | 01:20:08 | 00:00:00 | |
| GOEST3-10 | 2026-08-31 07:55:39 | 53.07228 | 8.02327 | 60° | 11km/h | 22586m | 6.6m/s | -51.9°C | 3.6% | 38.6hPa | 2.7V | 00:00:00 | 00:00:00 | 00:00:00 | |
| DL1XH-15 | 2026-08-31 07:55:38 | 53.07215 | 8.02319 | 57° | 4km/h | 22551m | 5.3m/s | -52°C | 3.6% | 38.9hPa | 2.7V | 08:30:00 | 01:20:04 | 00:00:00 | |
| DL1XH-west | 2026-08-31 07:55:36 | 53.07221 | 8.02321 | 11° | 13km/h | 22568m | 5.8m/s | -52°C | 0.3% | 38.8hPa | 2.6V | 18:12:15 | 01:20:07 | 00:00:00 | |
| BIOWL1-15 | 2026-08-31 07:55:35 | 53.07215 | 8.02313 | 100° | 9km/h | 22540m | 5.9m/s | -51.9°C | 0.3% | 38.9hPa | 2.6V | 18:12:15 | 01:20:02 | 00:00:00 | |
| AA1-15 | 2026-08-31 07:55:34 | 53.07216 | 8.02319 | 6° | 7km/h | 22557m | 6.8m/s | -52°C | 0.4% | 38.8hPa | 2.7V | 18:12:15 | 01:20:05 | 00:00:00 | |
| HSKMA3-T | 2026-08-31 07:55:33 | 53.07215 | 8.02319 | 58° | 4km/h | 22551m | 5.3m/s | -52°C | 0.4% | 38.9hPa | 2.7V | 18:12:15 | 01:20:04 | 00:00:00 | |
| DO2JMG | 2026-08-31 07:55:32 | 53.07215 | 8.02317 | 103° | 7km/h | 22546m | 5.1m/s | -52°C | 0.4% | 38.9hPa | 2.7V | 18:12:15 | 01:20:03 | 00:00:00 | |
| DK5PH-5 | 2026-08-31 07:55:32 | 53.07214 | 8.02317 | 103° | 13km/h | 22546m | 5.0m/s | -52.0°C | 3.6% | 38.8hPa | 2.6V | 00:00:00 | 01:20:03 | 00:00:00 | |
| DN9WHV | 2026-08-31 07:55:31 | 53.07215 | 8.02317 | 104° | 5km/h | 22546m | 5.1m/s | -52.0°C | 1.0% | 38.9hPa | 2.6V | 00:00:00 | 00:00:00 | 00:00:00 | |
| DO2SHX-10 | 2026-08-31 07:55:30 | 53.07215 | 8.02309 | 89° | 13km/h | 22535m | 5.5m/s | -51.9°C | 3.6% | 38.9hPa | 2.6V | 00:00:00 | 01:20:01 | 00:00:00 | |
| DL1XH1-15 | 2026-08-31 07:55:30 | 53.07218 | 8.02276 | 95° | 20km/h | 22508m | 6m/s | -52.1°C | 3.6% | 39.1hPa | 2.6V | 08:30:00 | 01:19:56 | 00:00:00 | |
| DJ2DS-15 | 2026-08-31 07:55:29 | 53.07216 | 8.02291 | 106° | 16km/h | 22519m | 5.9m/s | -52.0°C | 0.9% | 39.1hPa | 2.6V | 00:00:00 | 00:00:00 | 00:00:00 | |
| DL1XH-15 | 2026-08-31 07:55:28 | 53.07217 | 8.02258 | 76° | 22km/h | 22496m | 4.8m/s | -52°C | 3.5% | 39.2hPa | 2.6V | 08:30:00 | 01:19:54 | 00:00:00 | |
| DL1XH-west | 2026-08-31 07:55:26 | 53.07217 | 8.02284 | 105° | 18km/h | 22513m | 4.9m/s | -52°C | 0.3% | 39.1hPa | 2.7V | 18:12:15 | 01:19:57 | 00:00:00 | |
| DF8AY | 2026-08-31 07:55:25 | 53.07218 | 8.02267 | 84° | 22km/h | 22502m | 6.2m/s | -52°C | 0.3% | 39.2hPa | 2.6V | 18:12:15 | 01:19:55 | 00:00:00 | |
| DB0DAN | 2026-08-31 07:55:25 | 53.07218 | 8.02276 | 96° | 18km/h | 22508m | 6m/s | -52.1°C | 0.9% | 39.12hPa | 2.6V | 00:00:00 | 00:00:00 | 00:00:00 | |
| HSKMA3-T | 2026-08-31 07:55:23 | 53.07217 | 8.02258 | 77° | 22km/h | 22496m | 4.8m/s | -52°C | 0.3% | 39.2hPa | 2.6V | 18:12:15 | 01:19:54 | 00:00:00 | |
| DO2JMG | 2026-08-31 07:55:22 | 53.07216 | 8.02249 | 79° | 22km/h | 22491m | 5.4m/s | -52.1°C | 0.3% | 39.2hPa | 2.7V | 18:12:15 | 01:19:53 | 00:00:00 | |
| DJ2DS-15 | 2026-08-31 07:55:21 | 53.07216 | 8.02240 | 89° | 11km/h | 22485m | 6.0m/s | -51.9°C | 3.5% | 39.2hPa | 2.7V | 00:00:00 | 01:19:52 | 00:00:00 | |
| DL1XH1-15 | 2026-08-31 07:55:20 | 53.07211 | 8.02216 | 55° | 5km/h | 22452m | 6.4m/s | -52°C | 3.6% | 39.5hPa | 2.7V | 08:30:00 | 01:19:46 | 00:00:00 | |
| DN9WHV | 2026-08-31 07:55:20 | 53.07215 | 8.02233 | 94° | 16km/h | 22480m | 4.3m/s | -52.0°C | 0.9% | 39.3hPa | 2.6V | 00:00:00 | 00:00:00 | 00:00:00 | |
| GOEST3-10 | 2026-08-31 07:55:19 | 53.07216 | 8.02227 | 87° | 9km/h | 22475m | 5.1m/s | -52.0°C | 3.6% | 39.3hPa | 2.6V | 00:00:00 | 00:00:00 | 00:00:00 | |
| DL1XH-15 | 2026-08-31 07:55:18 | 53.07210 | 8.02213 | 18° | 4km/h | 22439m | 7.2m/s | -52°C | 3.6% | 39.5hPa | 2.6V | 08:30:00 | 01:19:44 | 00:00:00 | |
| DL1XH-west | 2026-08-31 07:55:15 | 53.07211 | 8.02216 | 55° | 5km/h | 22452m | 6.4m/s | -52°C | 0.4% | 39.5hPa | 2.7V | 18:12:15 | 01:19:46 | 00:00:00 | |
| DF8AY | 2026-08-31 07:55:14 | 53.07210 | 8.02214 | 55° | 4km/h | 22446m | 5.5m/s | -52°C | 0.4% | 39.5hPa | 2.7V | 18:12:15 | 01:19:45 | 00:00:00 | |
| HSKMA3-T | 2026-08-31 07:55:13 | 53.07210 | 8.02213 | 19° | 5km/h | 22439m | 7.2m/s | -52°C | 0.4% | 39.5hPa | 2.6V | 18:12:15 | 01:19:44 | 00:00:00 | |
| DO2JMG | 2026-08-31 07:55:11 | 53.07207 | 8.02212 | 15° | 5km/h | 22427m | 5.2m/s | -52°C | 0.4% | 39.6hPa | 2.6V | 18:12:15 | 01:19:42 | 00:00:00 | |
| DB0DAN | 2026-08-31 07:55:10 | 53.07206 | 8.02211 | 55° | 4km/h | 22422m | 6.4m/s | -52°C | 0.9% | 39.65hPa | 2.7V | 00:00:00 | 00:00:00 | 00:00:00 | |
| DL1XH1-15 | 2026-08-31 07:55:10 | 53.07197 | 8.02205 | 13° | 15km/h | 22394m | 6.2m/s | -52.1°C | 3.5% | 39.8hPa | 2.6V | 08:30:00 | 01:19:36 | 00:00:00 | |
| GOEST3-10 | 2026-08-31 07:55:09 | 53.07205 | 8.02209 | 68° | 9km/h | 22417m | 4.3m/s | -51.9°C | 3.6% | 39.6hPa | 2.7V | 00:00:00 | 00:00:00 | 00:00:00 | |
| DL1XH-15 | 2026-08-31 07:55:08 | 53.07190 | 8.02200 | 19° | 18km/h | 22382m | 5.3m/s | -52.1°C | 3.5% | 39.9hPa | 2.7V | 08:30:00 | 01:19:34 | 00:00:00 | |
| DL1XH-west | 2026-08-31 07:55:05 | 53.07197 | 8.02205 | 13° | 15km/h | 22394m | 6.2m/s | -52.1°C | 0.3% | 39.8hPa | 2.6V | 18:12:15 | 01:19:36 | 00:00:00 | |
| HSKMA3-T | 2026-08-31 07:55:03 | 53.07190 | 8.02200 | 20° | 18km/h | 22382m | 5.4m/s | -52.1°C | 0.3% | 39.9hPa | 2.7V | 18:12:15 | 01:19:34 | 00:00:00 | |
| AA1-15 | 2026-08-31 07:55:02 | 53.07185 | 8.02198 | 11° | 18km/h | 22376m | 7.1m/s | -52.1°C | 0.4% | 39.9hPa | 2.7V | 18:12:15 | 01:19:33 | 00:00:00 | |
| DF2AP-13 | 2026-08-31 07:55:02 | 53.07185 | 8.02198 | 12° | 13km/h | 22376m | 7.1m/s | -52.1°C | 3.6% | 39.9hPa | 2.6V | 00:00:00 | 01:19:33 | 00:00:00 | |
| DJ2DS-15 | 2026-08-31 07:55:01 | 53.07180 | 8.02197 | 7° | 15km/h | 22370m | 5.5m/s | -52.1°C | 3.6% | 39.9hPa | 2.6V | 00:00:00 | 01:19:32 | 00:00:00 | |
| BIOWL1-15 | 2026-08-31 07:55:01 | 53.07181 | 8.02197 | 6° | 20km/h | 22369m | 5.6m/s | -52.2°C | 0.4% | 40hPa | 2.6V | 18:12:15 | 01:19:32 | 00:00:00 | |
| DN9WHV | 2026-08-31 07:55:00 | 53.07180 | 8.02197 | 7° | 20km/h | 22370m | 5.6m/s | -52.2°C | 1.0% | 40.0hPa | 2.6V | 00:00:00 | 00:00:00 | 00:00:00 | |
| GOEST3-10 | 2026-08-31 07:54:59 | 53.07171 | 8.02194 | 17° | 13km/h | 22358m | 6.6m/s | -52.1°C | 3.5% | 40.0hPa | 2.6V | 00:00:00 | 00:00:00 | 00:00:00 | |
| DL4XJ-10 | 2026-08-31 07:54:58 | 53.07168 | 8.02192 | 23° | 13km/h | 22353m | 4.4m/s | -55.1°C | 0% | 0hPa | 2.6V | 00:00:00 | 00:00:00 | 00:00:00 | |
| DL1XH-15 | 2026-08-31 07:54:57 | 53.07153 | 8.02187 | 23° | 11km/h | 22325m | 6.9m/s | -52.3°C | 3.7% | 40.2hPa | 2.6V | 08:30:00 | 01:19:24 | 00:00:00 | |
| DL3AQ-11 | 2026-08-31 07:54:56 | 53.07159 | 8.02189 | 0° | 9km/h | 22336m | 4.6m/s | -52.3°C | 1.0% | 40.2hPa | 2.6V | 00:00:00 | 00:00:00 | 00:00:00 | |
| DB0DAN | 2026-08-31 07:54:55 | 53.07159 | 8.02189 | 0° | 11km/h | 22336m | 4.6m/s | -52.3°C | 1% | 40.19hPa | 2.6V | 00:00:00 | 00:00:00 | 00:00:00 | |
| DL1XH-west | 2026-08-31 07:54:55 | 53.07159 | 8.02189 | 0° | 11km/h | 22336m | 4.6m/s | -52.3°C | 0.4% | 40.2hPa | 2.6V | 18:12:15 | 01:19:26 | 00:00:00 | |
| DF8AY | 2026-08-31 07:54:53 | 53.07153 | 8.02187 | 23° | 11km/h | 22325m | 6.9m/s | -52.3°C | 0.4% | 40.2hPa | 2.6V | 18:12:15 | 01:19:24 | 00:00:00 | |
| HSKMA3-T | 2026-08-31 07:54:52 | 53.07151 | 8.02185 | 24° | 15km/h | 22319m | 5.1m/s | -52.4°C | 0.4% | 40.3hPa | 2.7V | 18:12:15 | 01:19:23 | 00:00:00 | |
| AA1-15 | 2026-08-31 07:54:51 | 53.07147 | 8.02183 | 13° | 15km/h | 22314m | 5.2m/s | -52.3°C | 0.4% | 40.3hPa | 2.7V | 18:12:15 | 01:19:22 | 00:00:00 | |
| DO2JMG | 2026-08-31 07:54:51 | 53.07143 | 8.02183 | 355° | 15km/h | 22308m | 6.4m/s | -52.3°C | 0.4% | 40.4hPa | 2.7V | 18:12:15 | 01:19:21 | 00:00:00 | |
| BIOWL1-15 | 2026-08-31 07:54:50 | 53.07135 | 8.02185 | 348° | 18km/h | 22298m | 5.6m/s | -52.5°C | 0.5% | 40.4hPa | 2.6V | 18:12:15 | 01:19:19 | 00:00:00 | |
| HTAHTA | 2026-08-31 07:54:50 | 53.07139 | 8.02184 | 345° | 16km/h | 22303m | 4.5m/s | -52.4°C | 1.0% | 40.4hPa | 2.6V | 00:00:00 | 00:00:00 | 00:00:00 | |
| DM0DOS-11 | 2026-08-31 07:54:49 | 53.07131 | 8.02186 | 354° | 18km/h | 22292m | 6m/s | -52.5°C | 3.7% | 40.5hPa | 2.6V | 08:30:00 | 01:19:18 | 00:00:00 | |
| DO2SHX-10 | 2026-08-31 07:54:49 | 53.07139 | 8.02184 | 346° | 16km/h | 22303m | 4.5m/s | -52.4°C | 3.7% | 40.4hPa | 2.6V | 00:00:00 | 01:19:20 | 00:00:00 | |
| DN9WHV | 2026-08-31 07:54:48 | 53.07140 | 8.02184 | 346° | 16km/h | 22303m | 4.5m/s | -52.4°C | 1.0% | 40.4hPa | 2.6V | 00:00:00 | 00:00:00 | 00:00:00 | |
| DL1XH-15 | 2026-08-31 07:54:47 | 53.07113 | 8.02190 | 351° | 15km/h | 22267m | 4.9m/s | -52.4°C | 3.7% | 40.6hPa | 2.6V | 08:30:00 | 01:19:14 | 00:00:00 | |
| DL1XH-west | 2026-08-31 07:54:44 | 53.07117 | 8.02189 | 348° | 16km/h | 22273m | 6.2m/s | -52.4°C | 0.4% | 40.6hPa | 2.7V | 18:12:15 | 01:19:15 | 00:00:00 | |
| DF8AY | 2026-08-31 07:54:43 | 53.07113 | 8.02190 | 352° | 15km/h | 22267m | 4.9m/s | -52.4°C | 0.5% | 40.6hPa | 2.6V | 18:12:15 | 01:19:14 | 00:00:00 | |
| AA1-15 | 2026-08-31 07:54:41 | 53.07107 | 8.02189 | 26° | 11km/h | 22255m | 5.1m/s | -52.4°C | 0.4% | 40.7hPa | 2.6V | 18:12:15 | 01:19:12 | 00:00:00 | |
| DB0DAN | 2026-08-31 07:54:40 | 53.07105 | 8.02187 | 29° | 7km/h | 22250m | 4.6m/s | -52.3°C | 1% | 40.75hPa | 2.7V | 00:00:00 | 00:00:00 | 00:00:00 | |
| DO2JMG | 2026-08-31 07:54:40 | 53.07105 | 8.02187 | 29° | 9km/h | 22250m | 4.6m/s | -52.3°C | 0.4% | 40.8hPa | 2.7V | 18:12:15 | 01:19:11 | 00:00:00 | |
| BIOWL1-15 | 2026-08-31 07:54:39 | 53.07103 | 8.02186 | 11° | 5km/h | 22244m | 7m/s | -52.2°C | 0.3% | 40.8hPa | 2.7V | 18:12:15 | 01:19:10 | 00:00:00 | |
| DM0DOS-11 | 2026-08-31 07:54:39 | 53.07101 | 8.02186 | 7° | 5km/h | 22232m | 6.5m/s | -52.3°C | 3.6% | 40.8hPa | 2.6V | 08:30:00 | 01:19:08 | 00:00:00 | |
| DL4XJ-10 | 2026-08-31 07:54:38 | 53.07102 | 8.02186 | 352° | 7km/h | 22239m | 5.4m/s | -55.2°C | 0% | 0hPa | 2.7V | 00:00:00 | 00:00:00 | 00:00:00 | |
| DL1XH-15 | 2026-08-31 07:54:37 | 53.07096 | 8.02184 | 324° | 5km/h | 22207m | 5.6m/s | -52.6°C | 3.7% | 41hPa | 2.7V | 08:30:00 | 01:19:04 | 00:00:00 | |
| DL1XH-west | 2026-08-31 07:54:33 | 53.07096 | 8.02184 | 325° | 5km/h | 22207m | 5.6m/s | -52.6°C | 0.4% | 41hPa | 2.7V | 18:12:15 | 01:19:04 | 00:00:00 | |
| DF8AY | 2026-08-31 07:54:32 | 53.07095 | 8.02186 | 340° | 5km/h | 22202m | 5.3m/s | -52.6°C | 0.5% | 41hPa | 2.7V | 18:12:15 | 01:19:03 | 00:00:00 | |
| BIOWL1-15 | 2026-08-31 07:54:30 | 53.07091 | 8.02177 | 83° | 7km/h | 22176m | 6.7m/s | -52.5°C | 0.4% | 41.2hPa | 2.7V | 18:12:15 | 01:18:59 | 00:00:00 | |
| HSKMA3-T | 2026-08-31 07:54:30 | 53.07092 | 8.02183 | 61° | 7km/h | 22189m | 5.8m/s | -52.5°C | 0.4% | 41.1hPa | 2.6V | 18:12:15 | 01:19:01 | 00:00:00 | |
| DM0DOS-11 | 2026-08-31 07:54:29 | 53.07091 | 8.02174 | 95° | 7km/h | 22170m | 6.2m/s | -52.6°C | 3.7% | 41.2hPa | 2.7V | 08:30:00 | 01:18:58 | 00:00:00 | |
| DO2JMG | 2026-08-31 07:54:29 | 53.07092 | 8.02180 | 73° | 7km/h | 22183m | 6.3m/s | -52.5°C | 0.4% | 41.2hPa | 2.6V | 18:12:15 | 01:19:00 | 00:00:00 | |
| GOEST3-10 | 2026-08-31 07:54:29 | 53.07092 | 8.02180 | 73° | 9km/h | 22183m | 6.3m/s | -52.4°C | 3.6% | 41.1hPa | 2.6V | 00:00:00 | 00:00:00 | 00:00:00 | |
| DO2SHX-10 | 2026-08-31 07:54:28 | 53.07091 | 8.02177 | 84° | 9km/h | 22177m | 6.6m/s | -52.5°C | 3.6% | 41.2hPa | 2.6V | 00:00:00 | 01:18:59 | 00:00:00 | |
| DN9WHV | 2026-08-31 07:54:27 | 53.07091 | 8.02174 | 97° | 7km/h | 22170m | 6.2m/s | -52.6°C | 1.0% | 41.2hPa | 2.6V | 00:00:00 | 00:00:00 | 00:00:00 | |
| DB0DAN | 2026-08-31 07:54:25 | 53.07092 | 8.02166 | 107° | 11km/h | 22157m | 4.9m/s | -52.5°C | 1% | 41.35hPa | 2.6V | 00:00:00 | 00:00:00 | 00:00:00 | |
| DL1XH-west | 2026-08-31 07:54:22 | 53.07095 | 8.02156 | 111° | 4km/h | 22140m | 4.3m/s | -52.4°C | 0.4% | 41.4hPa | 2.7V | 18:12:15 | 01:18:53 | 00:00:00 | |
| DO2JMG | 2026-08-31 07:54:19 | 53.07095 | 8.02147 | 84° | 11km/h | 22123m | 4.4m/s | -52.3°C | 0.5% | 41.6hPa | 2.6V | 18:12:15 | 01:18:50 | 00:00:00 | |
| HTAHTA | 2026-08-31 07:54:19 | 53.07095 | 8.02143 | 83° | 9km/h | 22117m | 7.4m/s | -52.2°C | 1.0% | 41.6hPa | 2.6V | 00:00:00 | 00:00:00 | 00:00:00 | |
| DO2SHX-10 | 2026-08-31 07:54:18 | 53.07095 | 8.02142 | 84° | 9km/h | 22117m | 7.3m/s | -52.2°C | 3.7% | 41.5hPa | 2.6V | 00:00:00 | 01:18:49 | 00:00:00 | |
| DL1XH-15 | 2026-08-31 07:54:17 | 53.07095 | 8.02115 | 97° | 9km/h | 22086m | 7.3m/s | -52.4°C | 3.7% | 41.8hPa | 2.6V | 08:30:00 | 01:18:44 | 00:00:00 | |
| BIOWL1-15 | 2026-08-31 07:54:17 | 53.07094 | 8.02127 | 90° | 16km/h | 22098m | 5.8m/s | -52.2°C | 0.3% | 41.7hPa | 2.7V | 18:12:15 | 01:18:46 | 00:00:00 | |
| DL1XH-west | 2026-08-31 07:54:12 | 53.07095 | 8.02112 | 107° | 7km/h | 22080m | 5.5m/s | -52.3°C | 0.4% | 41.8hPa | 2.6V | 18:12:15 | 01:18:43 | 00:00:00 | |
| SMARD9-15 | 2026-08-31 07:54:12 | 53.07096 | 8.02109 | 113° | 5km/h | 22074m | 7.4m/s | -52.3°C | 1.0% | 41.9hPa | 2.6V | 00:00:00 | 00:00:00 | 00:00:00 | |
| DL4BBY-15 | 2026-08-31 07:54:11 | 53.07095 | 8.02109 | 114° | 15km/h | 22073m | 7.4m/s | -55.2°C | 0% | 0hPa | 2.6V | 00:00:00 | 00:00:00 | 00:00:00 | |
| DL1XH1-15 | 2026-08-31 07:54:10 | 53.07102 | 8.02099 | 102° | 9km/h | 22038m | 6.8m/s | -52.3°C | 3.6% | 42.1hPa | 2.6V | 08:30:00 | 01:18:36 | 00:00:00 | |
| DB0DAN | 2026-08-31 07:54:10 | 53.07096 | 8.02107 | 124° | 7km/h | 22067m | 6m/s | -52.3°C | 1% | 41.89hPa | 2.7V | 00:00:00 | 00:00:00 | 00:00:00 | |
| HSKMA3-T | 2026-08-31 07:54:09 | 53.07097 | 8.02105 | 143° | 5km/h | 22061m | 5.9m/s | -52.3°C | 0.4% | 42hPa | 2.7V | 18:12:15 | 01:18:40 | 00:00:00 | |
| BIOWL1-15 | 2026-08-31 07:54:09 | 53.07100 | 8.02103 | 165° | 5km/h | 22049m | 4.5m/s | -52.3°C | 0.4% | 42hPa | 2.6V | 18:12:15 | 01:18:38 | 00:00:00 | |
| DM0DOS-11 | 2026-08-31 07:54:09 | 53.07100 | 8.02103 | 164° | 5km/h | 22049m | 4.5m/s | -52.3°C | 3.6% | 42hPa | 2.6V | 08:30:00 | 01:18:38 | 00:00:00 | |
| DO2JMG | 2026-08-31 07:54:08 | 53.07099 | 8.02104 | 176° | 5km/h | 22054m | 6.7m/s | -52.3°C | 0.4% | 42hPa | 2.7V | 18:12:15 | 01:18:39 | 00:00:00 | |
| DL1XH-west | 2026-08-31 07:54:01 | 53.07100 | 8.02080 | 61° | 9km/h | 22014m | 4.6m/s | -52.3°C | 0.4% | 42.3hPa | 2.6V | 18:12:15 | 01:18:32 | 00:00:00 | |
| DJ2DS-15 | 2026-08-31 07:54:01 | 53.07100 | 8.02080 | 62° | 16km/h | 22014m | 4.6m/s | -52.3°C | 3.6% | 42.2hPa | 2.6V | 00:00:00 | 01:18:32 | 00:00:00 | |
| DL1XH1-15 | 2026-08-31 07:54:00 | 53.07100 | 8.02052 | 117° | 13km/h | 21978m | 6.4m/s | -52.5°C | 3.6% | 42.5hPa | 2.6V | 08:30:00 | 01:18:26 | 00:00:00 | |
| DM0DOS-11 | 2026-08-31 07:53:59 | 53.07099 | 8.02061 | 87° | 11km/h | 21990m | 7.8m/s | -52.4°C | 3.6% | 42.4hPa | 2.7V | 08:30:00 | 01:18:28 | 00:00:00 | |
| HSKMA3-T | 2026-08-31 07:53:59 | 53.07098 | 8.02072 | 90° | 13km/h | 22002m | 6.9m/s | -52.3°C | 0.4% | 42.3hPa | 2.6V | 18:12:15 | 01:18:30 | 00:00:00 | |
| DO2JMG | 2026-08-31 07:53:58 | 53.07099 | 8.02066 | 94° | 13km/h | 21996m | 4.8m/s | -52.4°C | 0.4% | 42.4hPa | 2.7V | 18:12:15 | 01:18:29 | 00:00:00 | |
| BIOWL1-15 | 2026-08-31 07:53:56 | 53.07102 | 8.02046 | 125° | 18km/h | 21971m | 7.4m/s | -52.4°C | 0.4% | 42.6hPa | 2.6V | 18:12:15 | 01:18:25 | 00:00:00 | |
| DB0DAN | 2026-08-31 07:53:55 | 53.07100 | 8.02052 | 117° | 13km/h | 21978m | 6.4m/s | -52.5°C | 1% | 42.5hPa | 2.6V | 00:00:00 | 00:00:00 | 00:00:00 | |
| DL1XH-west | 2026-08-31 07:53:50 | 53.07113 | 8.02020 | 120° | 22km/h | 21946m | 6.9m/s | -52.4°C | 0.4% | 42.7hPa | 2.7V | 18:12:15 | 01:18:21 | 00:00:00 | |
| DM0DOS-11 | 2026-08-31 07:53:49 | 53.07120 | 8.01994 | 102° | 20km/h | 21928m | 7.5m/s | -52.4°C | 3.6% | 42.8hPa | 2.6V | 08:30:00 | 01:18:18 | 00:00:00 | |
| HSKMA3-T | 2026-08-31 07:53:48 | 53.07118 | 8.02002 | 111° | 24km/h | 21934m | 4.5m/s | -52.4°C | 0.4% | 42.8hPa | 2.6V | 18:12:15 | 01:18:19 | 00:00:00 | |
| DO2JMG | 2026-08-31 07:53:47 | 53.07120 | 8.01994 | 103° | 20km/h | 21928m | 7.5m/s | -52.4°C | 0.4% | 42.8hPa | 2.6V | 18:12:15 | 01:18:18 | 00:00:00 | |
| BIOWL1-15 | 2026-08-31 07:53:46 | 53.07121 | 8.01985 | 99° | 18km/h | 21921m | 5.7m/s | -52.4°C | 0.4% | 42.9hPa | 2.7V | 18:12:15 | 01:18:17 | 00:00:00 | |
| DB0UT-7 | 2026-08-31 07:53:45 | 53.07121 | 8.01978 | 105° | 15km/h | 21915m | 6.3m/s | -52.4°C | 3.6% | 42.9hPa | 2.7V | 00:00:00 | 01:18:16 | 00:00:00 | |
| DL1NUX | 2026-08-31 07:53:44 | 53.07129 | 8.01951 | 112° | 11km/h | 21884m | 5.1m/s | -52.4°C | 3.6% | 43.1hPa | 2.7V | 08:30:00 | 01:18:11 | 00:00:00 | |
| DN9WHV | 2026-08-31 07:53:43 | 53.07123 | 8.01971 | 115° | 16km/h | 21909m | 6.4m/s | -52.4°C | 1.0% | 43.0hPa | 2.7V | 00:00:00 | 00:00:00 | 00:00:00 | |
| D01LWL | 2026-08-31 07:53:42 | 53.07126 | 8.01960 | 115° | 11km/h | 21896m | 7.7m/s | -52.3°C | 1.0% | 43.0hPa | 2.7V | 00:00:00 | 00:00:00 | 00:00:00 | |
| DN9WHV | 2026-08-31 07:53:41 | 53.07126 | 8.01960 | 117° | 13km/h | 21896m | 7.7m/s | -52.3°C | 1.0% | 43.1hPa | 2.7V | 00:00:00 | 00:00:00 | 00:00:00 | |
| DB0DAN | 2026-08-31 07:53:40 | 53.07128 | 8.01951 | 113° | 11km/h | 21884m | 5.1m/s | -52.4°C | 0.9% | 43.15hPa | 2.7V | 00:00:00 | 00:00:00 | 00:00:00 | |
| DL1XH-west | 2026-08-31 07:53:40 | 53.07128 | 8.01951 | 113° | 11km/h | 21884m | 5.1m/s | -52.4°C | 0.3% | 43.1hPa | 2.7V | 18:12:15 | 01:18:11 | 00:00:00 | |
| DM0DOS-11 | 2026-08-31 07:53:39 | 53.07135 | 8.01938 | 131° | 16km/h | 21866m | 5.1m/s | -52.5°C | 3.6% | 43.2hPa | 2.6V | 08:30:00 | 01:18:08 | 00:00:00 | |
| GOEST3-10 | 2026-08-31 07:53:39 | 53.07130 | 8.01947 | 123° | 15km/h | 21878m | 7.2m/s | -52.4°C | 3.6% | 43.1hPa | 2.7V | 00:00:00 | 00:00:00 | 00:00:00 | |
| DJ2KF-10 | 2026-08-31 07:53:38 | 53.07132 | 8.01942 | 134° | 16km/h | 21872m | 5.8m/s | -52.4°C | 3.7% | 43.2hPa | 2.7V | 00:00:00 | 01:18:09 | 00:00:00 | |
| DL1XH-15 | 2026-08-31 07:53:37 | 53.07139 | 8.01916 | 103° | 15km/h | 21841m | 7.7m/s | -52.7°C | 3.8% | 43.4hPa | 2.7V | 08:30:00 | 01:18:04 | 00:00:00 | |
| DO2JMG | 2026-08-31 07:53:37 | 53.07135 | 8.01938 | 131° | 16km/h | 21866m | 5.1m/s | -52.5°C | 0.4% | 43.2hPa | 2.6V | 18:12:15 | 01:18:08 | 00:00:00 | |
| AA1-15 | 2026-08-31 07:53:36 | 53.07137 | 8.01932 | 119° | 15km/h | 21860m | 6.9m/s | -52.6°C | 0.4% | 43.3hPa | 2.6V | 18:12:15 | 01:18:07 | 00:00:00 | |
| BIOWL1-15 | 2026-08-31 07:53:35 | 53.07138 | 8.01927 | 99° | 13km/h | 21853m | 6.6m/s | -52.5°C | 0.4% | 43.3hPa | 2.6V | 18:12:15 | 01:18:06 | 00:00:00 | |
| GOEST3-10 | 2026-08-31 07:53:34 | 53.07138 | 8.01921 | 93° | 16km/h | 21848m | 5.2m/s | -52.6°C | 3.7% | 43.4hPa | 2.7V | 00:00:00 | 01:18:05 | 00:00:00 | |
| DL3OBA | 2026-08-31 07:53:33 | 53.07138 | 8.01921 | 94° | 13km/h | 21848m | 5.3m/s | -52.6°C | 1.0% | 43.4hPa | 2.7V | 00:00:00 | 00:00:00 | 00:00:00 | |
| DK5PH-5 | 2026-08-31 07:53:32 | 53.07140 | 8.01910 | 111° | 16km/h | 21834m | 5.6m/s | -52.6°C | 3.8% | 43.4hPa | 2.7V | 00:00:00 | 01:18:03 | 08:30:00 | |
| DB0NH | 2026-08-31 07:53:31 | 53.07141 | 8.01903 | 104° | 16km/h | 21828m | 6.4m/s | -52.6°C | 3.8% | 43.5hPa | 2.6V | 00:00:00 | 01:18:02 | 00:00:00 | |
| DL1XH1-15 | 2026-08-31 07:53:30 | 53.07144 | 8.01863 | 76° | 13km/h | 21790m | 5.8m/s | -52.6°C | 3.7% | 43.7hPa | 2.6V | 08:30:00 | 01:17:56 | 00:00:00 | |
| DM0DOS-11 | 2026-08-31 07:53:29 | 53.07144 | 8.01875 | 103° | 16km/h | 21803m | 4.9m/s | -52.6°C | 3.7% | 43.7hPa | 2.7V | 08:30:00 | 01:17:58 | 00:00:00 | |
| DL1XH-west | 2026-08-31 07:53:29 | 53.07142 | 8.01889 | 96° | 18km/h | 21815m | 4.9m/s | -52.7°C | 0.5% | 43.6hPa | 2.6V | 18:12:15 | 01:18:00 | 00:00:00 | |
| HSKMA3-T | 2026-08-31 07:53:27 | 53.07144 | 8.01875 | 104° | 16km/h | 21803m | 4.9m/s | -52.6°C | 0.5% | 43.7hPa | 2.7V | 18:12:15 | 01:17:58 | 00:00:00 | |
| BIOWL1-15 | 2026-08-31 07:53:26 | 53.07143 | 8.01849 | 102° | 13km/h | 21773m | 4.7m/s | -52.6°C | 0.4% | 43.9hPa | 2.7V | 18:12:15 | 01:17:53 | 00:00:00 | |
| DO2JMG | 2026-08-31 07:53:26 | 53.07144 | 8.01869 | 90° | 15km/h | 21797m | 7.4m/s | -52.7°C | 0.5% | 43.7hPa | 2.7V | 18:12:15 | 01:17:57 | 00:00:00 | |
| DB0DAN | 2026-08-31 07:53:25 | 53.07144 | 8.01863 | 77° | 13km/h | 21790m | 5.8m/s | -52.6°C | 1% | 43.75hPa | 2.6V | 00:00:00 | 00:00:00 | 00:00:00 | |
| AA1-15 | 2026-08-31 07:53:25 | 53.07144 | 8.01863 | 77° | 13km/h | 21790m | 5.8m/s | -52.6°C | 0.5% | 43.8hPa | 2.6V | 18:12:15 | 01:17:56 | 00:00:00 | |
| GOEST3-10 | 2026-08-31 07:53:24 | 53.07143 | 8.01858 | 75° | 15km/h | 21786m | 3.6m/s | -52.6°C | 3.7% | 43.7hPa | 2.7V | 00:00:00 | 01:17:55 | 00:00:00 | |
| DN9WHV | 2026-08-31 07:53:23 | 53.07143 | 8.01858 | 75° | 11km/h | 21786m | 3.7m/s | -52.6°C | 1.0% | 43.8hPa | 2.7V | 00:00:00 | 00:00:00 | 00:00:00 | |
| SO1NDE-10 | 2026-08-31 07:53:22 | 53.07143 | 8.01849 | 103° | 18km/h | 21774m | 4.7m/s | -52.5°C | 3.7% | 43.9hPa | 2.7V | 00:00:00 | 01:17:53 | 00:00:00 | |
| DJ2DS-15 | 2026-08-31 07:53:21 | 53.07143 | 8.01842 | 96° | 18km/h | 21768m | 6.6m/s | -52.6°C | 3.7% | 43.9hPa | 2.7V | 00:00:00 | 01:17:52 | 00:00:00 | |
| DL1XH1-15 | 2026-08-31 07:53:20 | 53.07144 | 8.01794 | 81° | 22km/h | 21728m | 5.5m/s | -52.4°C | 3.7% | 44.2hPa | 2.7V | 08:30:00 | 01:17:46 | 00:00:00 | |
| DF8AY | 2026-08-31 07:53:19 | 53.07144 | 8.01828 | 88° | 20km/h | 21754m | 4.8m/s | -52.5°C | 0.4% | 44hPa | 2.6V | 18:12:15 | 01:17:50 | 00:00:00 | |
| DM0DOS-11 | 2026-08-31 07:53:19 | 53.07144 | 8.01811 | 96° | 20km/h | 21741m | 5m/s | -52.5°C | 3.7% | 44.1hPa | 2.6V | 08:30:00 | 01:17:48 | 00:00:00 | |
| GOEST3-10 | 2026-08-31 07:53:19 | 53.07143 | 8.01828 | 89° | 20km/h | 21755m | 4.8m/s | -52.5°C | 3.7% | 44.0hPa | 2.6V | 00:00:00 | 00:00:00 | 00:00:00 | |
| DL1XH-15 | 2026-08-31 07:53:18 | 53.07143 | 8.01777 | 86° | 20km/h | 21717m | 7.9m/s | -52.4°C | 3.7% | 44.3hPa | 2.6V | 08:30:00 | 01:17:44 | 00:00:00 | |
| DL1XH-west | 2026-08-31 07:53:18 | 53.07144 | 8.01820 | 95° | 20km/h | 21748m | 8.4m/s | -52.5°C | 0.4% | 44.1hPa | 2.6V | 18:12:15 | 01:17:49 | 00:00:00 | |
| DO2JMG | 2026-08-31 07:53:16 | 53.07144 | 8.01803 | 89° | 20km/h | 21735m | 7.6m/s | -52.5°C | 0.4% | 44.1hPa | 2.7V | 18:12:15 | 01:17:47 | 00:00:00 | |
| BIOWL1-15 | 2026-08-31 07:53:14 | 53.07143 | 8.01785 | 83° | 20km/h | 21723m | 4.8m/s | -52.5°C | 0.5% | 44.2hPa | 2.7V | 18:12:15 | 01:17:45 | 00:00:00 | |
| DL3OBA | 2026-08-31 07:53:13 | 53.07143 | 8.01785 | 84° | 20km/h | 21724m | 4.8m/s | -52.5°C | 1.0% | 44.2hPa | 2.7V | 00:00:00 | 00:00:00 | 00:00:00 | |
| SMARD9-10 | 2026-08-31 07:53:12 | 53.07142 | 8.01777 | 87° | 20km/h | 21717m | 7.9m/s | -52.4°C | 1.0% | 44.3hPa | 2.7V | 00:00:00 | 00:00:00 | 00:00:00 | |
| DK9SH | 2026-08-31 07:53:11 | 53.07142 | 8.01769 | 87° | 18km/h | 21711m | 4.9m/s | -52.4°C | 1.0% | 44.3hPa | 2.7V | 00:00:00 | 00:00:00 | 00:00:00 | |
| DB0DAN | 2026-08-31 07:53:10 | 53.07140 | 8.01754 | 63° | 18km/h | 21698m | 5.2m/s | -52.4°C | 1% | 44.4hPa | 2.7V | 00:00:00 | 00:00:00 | 00:00:00 | |
| SMARD9-15 | 2026-08-31 07:53:10 | 53.07138 | 8.01747 | 63° | 16km/h | 21693m | 5.4m/s | -52.5°C | 1.0% | 44.4hPa | 2.6V | 00:00:00 | 00:00:00 | 00:00:00 | |
| DM0DOS-11 | 2026-08-31 07:53:09 | 53.07135 | 8.01735 | 74° | 15km/h | 21680m | 5.6m/s | -52.4°C | 3.7% | 44.5hPa | 2.6V | 08:30:00 | 01:17:38 | 00:00:00 | |
| DF8AY | 2026-08-31 07:53:08 | 53.07136 | 8.01741 | 71° | 15km/h | 21686m | 7.5m/s | -52.5°C | 0.5% | 44.5hPa | 2.7V | 18:12:15 | 01:17:39 | 00:00:00 | |
| DL1XH-west | 2026-08-31 07:53:07 | 53.07135 | 8.01735 | 74° | 15km/h | 21680m | 5.6m/s | -52.4°C | 0.5% | 44.5hPa | 2.6V | 18:12:15 | 01:17:38 | 00:00:00 | |
| HSKMA3-T | 2026-08-31 07:53:06 | 53.07134 | 8.01729 | 70° | 16km/h | 21673m | 7.5m/s | -52.5°C | 0.5% | 44.6hPa | 2.6V | 18:12:15 | 01:17:37 | 00:00:00 | |
| DO2JMG | 2026-08-31 07:53:05 | 53.07132 | 8.01722 | 68° | 16km/h | 21666m | 5.8m/s | -52.4°C | 0.4% | 44.6hPa | 2.6V | 18:12:15 | 01:17:36 | 00:00:00 | |
| AA1-15 | 2026-08-31 07:53:04 | 53.07131 | 8.01715 | 75° | 18km/h | 21661m | 5.7m/s | -52.4°C | 0.4% | 44.7hPa | 2.7V | 18:12:15 | 01:17:35 | 00:00:00 | |
| GOEST3-10 | 2026-08-31 07:53:04 | 53.07130 | 8.01715 | 76° | 22km/h | 21661m | 5.7m/s | -52.3°C | 3.7% | 44.6hPa | 2.6V | 00:00:00 | 01:17:35 | 00:00:00 | |
| DN9WHV | 2026-08-31 07:53:03 | 53.07131 | 8.01715 | 76° | 18km/h | 21661m | 5.7m/s | -52.4°C | 1.0% | 44.7hPa | 2.6V | 00:00:00 | 00:00:00 | 00:00:00 | |
| DK5PH-5 | 2026-08-31 07:53:02 | 53.07130 | 8.01699 | 90° | 24km/h | 21649m | 5.3m/s | -52.3°C | 3.7% | 44.7hPa | 2.6V | 00:00:00 | 01:17:33 | 00:00:00 | |
| DC4HF-4 | 2026-08-31 07:53:01 | 53.07128 | 8.01678 | 72° | 26km/h | 21637m | 6.1m/s | -52.3°C | 1.0% | 44.8hPa | 2.6V | 00:00:00 | 00:00:00 | 00:00:00 | |
| DL1XH1-15 | 2026-08-31 07:53:00 | 53.07117 | 8.01640 | 56° | 16km/h | 21606m | 6.7m/s | -52.3°C | 3.5% | 45hPa | 2.6V | 08:30:00 | 01:17:26 | 00:00:00 | |
| DM0DOS-11 | 2026-08-31 07:52:59 | 53.07121 | 8.01651 | 65° | 18km/h | 21619m | 6.6m/s | -52.3°C | 3.6% | 45hPa | 2.7V | 08:30:00 | 01:17:28 | 00:00:00 | |
| DF8AY | 2026-08-31 07:52:58 | 53.07123 | 8.01659 | 66° | 22km/h | 21625m | 6.2m/s | -52.3°C | 0.4% | 44.9hPa | 2.7V | 18:12:15 | 01:17:29 | 00:00:00 | |
| DL1XH-west | 2026-08-31 07:52:56 | 53.07119 | 8.01645 | 61° | 15km/h | 21612m | 6.1m/s | -52.4°C | 0.3% | 45hPa | 2.7V | 18:12:15 | 01:17:27 | 00:00:00 | |
| HSKMA3-T | 2026-08-31 07:52:55 | 53.07117 | 8.01640 | 56° | 16km/h | 21606m | 6.7m/s | -52.3°C | 0.3% | 45hPa | 2.6V | 18:12:15 | 01:17:26 | 00:00:00 | |
| DB0DAN | 2026-08-31 07:52:55 | 53.07117 | 8.01640 | 56° | 15km/h | 21606m | 6.7m/s | -52.3°C | 0.9% | 45.03hPa | 2.6V | 00:00:00 | 00:00:00 | 00:00:00 | |
| DO2JMG | 2026-08-31 07:52:54 | 53.07115 | 8.01634 | 59° | 18km/h | 21601m | 4.8m/s | -52.4°C | 0.3% | 45.1hPa | 2.6V | 18:12:15 | 01:17:25 | 00:00:00 | |
| BIOWL1-15 | 2026-08-31 07:52:53 | 53.07109 | 8.01591 | 76° | 29km/h | 21571m | 6.5m/s | -52.5°C | 0.5% | 45.3hPa | 2.6V | 18:12:15 | 01:17:20 | 00:00:00 | |
| AA1-15 | 2026-08-31 07:52:53 | 53.07113 | 8.01627 | 68° | 18km/h | 21596m | 5.1m/s | -52.5°C | 0.4% | 45.1hPa | 2.6V | 18:12:15 | 01:17:24 | 00:00:00 | |
| GOEST3-10 | 2026-08-31 07:52:53 | 53.07113 | 8.01627 | 69° | 27km/h | 21596m | 5.1m/s | -52.5°C | 3.6% | 45.1hPa | 2.7V | 00:00:00 | 01:17:24 | 00:00:00 | |
| SO1NDE-10 | 2026-08-31 07:52:52 | 53.07112 | 8.01619 | 81° | 27km/h | 21590m | 7.2m/s | -52.4°C | 3.6% | 45.1hPa | 2.7V | 00:00:00 | 01:17:23 | 00:00:00 | |
| DN9WHV | 2026-08-31 07:52:51 | 53.07111 | 8.01619 | 82° | 18km/h | 21590m | 7.2m/s | -52.5°C | 1.0% | 45.2hPa | 2.7V | 00:00:00 | 00:00:00 | 00:00:00 | |
| DL1XH1-15 | 2026-08-31 07:52:50 | 53.07101 | 8.01540 | 79° | 29km/h | 21548m | 4.5m/s | -52.6°C | 3.8% | 45.5hPa | 2.7V | 08:30:00 | 01:17:16 | 00:00:00 | |
| DM0DOS-11 | 2026-08-31 07:52:49 | 53.07104 | 8.01565 | 74° | 33km/h | 21560m | 6.2m/s | -52.6°C | 3.7% | 45.4hPa | 2.6V | 08:30:00 | 01:17:18 | 00:00:00 | |
| DF8AY | 2026-08-31 07:52:47 | 53.07105 | 8.01565 | 75° | 33km/h | 21560m | 6.2m/s | -52.6°C | 0.5% | 45.4hPa | 2.6V | 18:12:15 | 01:17:18 | 00:00:00 | |
| DL1XH-west | 2026-08-31 07:52:45 | 53.07101 | 8.01540 | 79° | 29km/h | 21548m | 4.5m/s | -52.6°C | 0.5% | 45.5hPa | 2.7V | 18:12:15 | 01:17:16 | 00:00:00 | |
| SONCRA | 2026-08-31 07:52:44 | 53.07099 | 8.01528 | 74° | 27km/h | 21544m | 5.3m/s | -52.5°C | 1.0% | 45.5hPa | 2.6V | 00:00:00 | 00:00:00 | 00:00:00 | |
| DO2JMG | 2026-08-31 07:52:43 | 53.07097 | 8.01517 | 68° | 27km/h | 21537m | 6.6m/s | -52.5°C | 0.4% | 45.5hPa | 2.6V | 18:12:15 | 01:17:14 | 00:00:00 | |
| BIOWL1-15 | 2026-08-31 07:52:42 | 53.07094 | 8.01507 | 60° | 29km/h | 21531m | 6.4m/s | -52.6°C | 0.4% | 45.6hPa | 2.6V | 18:12:15 | 01:17:13 | 00:00:00 | |
| DO9LL-15 | 2026-08-31 07:52:42 | 53.07094 | 8.01507 | 61° | 27km/h | 21531m | 6.3m/s | -52.5°C | 3.7% | 45.5hPa | 2.6V | 00:00:00 | 01:17:13 | 00:00:00 | |
| DL4BBY-15 | 2026-08-31 07:52:41 | 53.07090 | 8.01497 | 57° | 27km/h | 21526m | 5.1m/s | -55.4°C | 0% | 0hPa | 2.6V | 00:00:00 | 00:00:00 | 00:00:00 | |
| DL1XH1-15 | 2026-08-31 07:52:40 | 53.07080 | 8.01444 | 81° | 27km/h | 21490m | 6m/s | -52.8°C | 3.7% | 45.9hPa | 2.6V | 08:30:00 | 01:17:06 | 00:00:00 | |
| DB0DAN | 2026-08-31 07:52:40 | 53.07087 | 8.01489 | 57° | 20km/h | 21519m | 7.6m/s | -52.6°C | 1% | 45.69hPa | 2.7V | 00:00:00 | 00:00:00 | 00:00:00 | |
| DL3AQ-11 | 2026-08-31 07:52:40 | 53.07085 | 8.01481 | 65° | 16km/h | 21513m | 5.6m/s | -52.6°C | 1.0% | 45.8hPa | 2.7V | 00:00:00 | 00:00:00 | 00:00:00 | |
| BIOWL9-15 | 2026-08-31 07:52:39 | 53.07083 | 8.01474 | 74° | 18km/h | 21507m | 5.2m/s | -52.6°C | 1.0% | 45.8hPa | 2.7V | 00:00:00 | 00:00:00 | 00:00:00 | |
| DL4XJ-10 | 2026-08-31 07:52:38 | 53.07083 | 8.01474 | 75° | 27km/h | 21507m | 5.2m/s | -55.5°C | 0% | 0hPa | 2.7V | 00:00:00 | 00:00:00 | 00:00:00 | |
| DL1XH-15 | 2026-08-31 07:52:37 | 53.07076 | 8.01423 | 62° | 27km/h | 21479m | 5.3m/s | -52.7°C | 3.7% | 46hPa | 2.7V | 08:30:00 | 01:17:04 | 00:00:00 | |
| DF8AY | 2026-08-31 07:52:37 | 53.07082 | 8.01465 | 81° | 24km/h | 21501m | 6.5m/s | -52.7°C | 0.5% | 45.8hPa | 2.6V | 18:12:15 | 01:17:08 | 00:00:00 | |
| DL1XH-west | 2026-08-31 07:52:34 | 53.07079 | 8.01433 | 73° | 26km/h | 21485m | 5.8m/s | -52.8°C | 0.5% | 45.9hPa | 2.7V | 18:12:15 | 01:17:05 | 00:00:00 | |
| DO2JMG | 2026-08-31 07:52:32 | 53.07072 | 8.01412 | 58° | 31km/h | 21473m | 7.2m/s | -52.7°C | 0.5% | 46hPa | 2.7V | 18:12:15 | 01:17:03 | 00:00:00 | |
| DK5PH-5 | 2026-08-31 07:52:32 | 53.07072 | 8.01412 | 59° | 29km/h | 21473m | 7.1m/s | -52.6°C | 3.8% | 45.9hPa | 2.6V | 00:00:00 | 01:17:03 | 00:00:00 | |
| DB0NH | 2026-08-31 07:52:31 | 53.07068 | 8.01400 | 54° | 29km/h | 21466m | 6.2m/s | -52.6°C | 3.8% | 46.0hPa | 2.6V | 00:00:00 | 01:17:02 | 00:00:00 | |
| DL1XH1-15 | 2026-08-31 07:52:30 | 53.07038 | 8.01348 | 54° | 22km/h | 21433m | 3.9m/s | -52.4°C | 3.7% | 46.3hPa | 2.6V | 08:30:00 | 01:16:56 | 00:00:00 | |
| DN9WHV | 2026-08-31 07:52:29 | 53.07062 | 8.01388 | 49° | 37km/h | 21461m | 4.9m/s | -52.6°C | 1.0% | 46.1hPa | 2.6V | 00:00:00 | 00:00:00 | 00:00:00 | |
| DJ2DS-15 | 2026-08-31 07:52:28 | 53.07050 | 8.01370 | 41° | 26km/h | 21449m | 5.2m/s | -52.5°C | 1.0% | 46.2hPa | 2.6V | 00:00:00 | 00:00:00 | 00:00:00 | |
| DL1XH-15 | 2026-08-31 07:52:27 | 53.07031 | 8.01334 | 40° | 22km/h | 21421m | 5.8m/s | -52.5°C | 3.7% | 46.4hPa | 2.6V | 08:30:00 | 01:16:54 | 00:00:00 | |
| DF8AY | 2026-08-31 07:52:27 | 53.07045 | 8.01363 | 46° | 24km/h | 21444m | 5.3m/s | -52.5°C | 0.4% | 46.2hPa | 2.7V | 18:12:15 | 01:16:58 | 00:00:00 | |
| DD8BA-10 | 2026-08-31 07:52:27 | 53.07045 | 8.01362 | 47° | 27km/h | 21444m | 5.3m/s | -52.5°C | 3.7% | 46.2hPa | 2.6V | 00:00:00 | 00:00:00 | 00:00:00 | |
| DB0DAN | 2026-08-31 07:52:25 | 53.07038 | 8.01348 | 55° | 22km/h | 21433m | 3.9m/s | -52.4°C | 1% | 46.3hPa | 2.6V | 00:00:00 | 00:00:00 | 00:00:00 | |
| HSKMA3-T | 2026-08-31 07:52:24 | 53.07035 | 8.01341 | 49° | 20km/h | 21427m | 6.7m/s | -52.5°C | 0.5% | 46.3hPa | 2.6V | 18:12:15 | 01:16:55 | 00:00:00 | |
| DL1XH-west | 2026-08-31 07:52:23 | 53.07031 | 8.01334 | 40° | 22km/h | 21421m | 5.8m/s | -52.5°C | 0.4% | 46.4hPa | 2.6V | 18:12:15 | 01:16:54 | 00:00:00 | |
| DO2JMG | 2026-08-31 07:52:22 | 53.07021 | 8.01320 | 43° | 31km/h | 21409m | 7.5m/s | -52.5°C | 0.4% | 46.5hPa | 2.7V | 18:12:15 | 01:16:52 | 00:00:00 | |
| GOEST3-10 | 2026-08-31 07:52:22 | 53.07021 | 8.01320 | 44° | 33km/h | 21409m | 7.4m/s | -52.4°C | 3.7% | 46.4hPa | 2.6V | 00:00:00 | 01:16:52 | 00:00:00 | |
| DJ2DS-15 | 2026-08-31 07:52:20 | 53.07014 | 8.01310 | 43° | 31km/h | 21403m | 5.0m/s | -52.5°C | 3.8% | 46.5hPa | 2.6V | 00:00:00 | 01:16:51 | 00:00:00 | |
| DM0DOS-11 | 2026-08-31 07:52:19 | 53.06994 | 8.01284 | 34° | 31km/h | 21385m | 5.4m/s | -52.5°C | 3.8% | 46.6hPa | 2.6V | 08:30:00 | 01:16:48 | 00:00:00 | |
| DL4XJ-10 | 2026-08-31 07:52:18 | 53.07001 | 8.01291 | 36° | 31km/h | 21391m | 5.9m/s | -55.4°C | 0% | 0hPa | 2.6V | 00:00:00 | 00:00:00 | 00:00:00 | |
| DL1XH-15 | 2026-08-31 07:52:17 | 53.06970 | 8.01257 | 25° | 24km/h | 21360m | 5.1m/s | -52.4°C | 3.7% | 46.8hPa | 2.6V | 08:30:00 | 01:16:44 | 00:00:00 | |
| HSKMA3-T | 2026-08-31 07:52:14 | 53.06976 | 8.01262 | 32° | 26km/h | 21366m | 7.1m/s | -52.5°C | 0.5% | 46.8hPa | 2.7V | 18:12:15 | 01:16:45 | 00:00:00 | |
| DL1XH-west | 2026-08-31 07:52:13 | 53.06970 | 8.01257 | 26° | 24km/h | 21360m | 5.1m/s | -52.4°C | 0.4% | 46.8hPa | 2.6V | 18:12:15 | 01:16:44 | 00:00:00 | |
| BIOWL1-15 | 2026-08-31 07:52:11 | 53.06959 | 8.01247 | 35° | 27km/h | 21350m | 6.6m/s | -52.4°C | 0.4% | 46.9hPa | 2.6V | 18:12:15 | 01:16:42 | 00:00:00 | |
| DB0DAN | 2026-08-31 07:52:10 | 53.06953 | 8.01240 | 36° | 29km/h | 21344m | 5.6m/s | -52.3°C | 1% | 46.93hPa | 2.7V | 00:00:00 | 00:00:00 | 00:00:00 | |
| DO2JMG | 2026-08-31 07:52:10 | 53.06953 | 8.01240 | 36° | 31km/h | 21344m | 5.6m/s | -52.3°C | 0.4% | 46.9hPa | 2.7V | 18:12:15 | 01:16:41 | 00:00:00 | |
| D01LWL | 2026-08-31 07:52:09 | 53.06947 | 8.01233 | 32° | 31km/h | 21338m | 5.7m/s | -52.4°C | 1.0% | 47.0hPa | 2.7V | 00:00:00 | 00:00:00 | 00:00:00 | |
| BIOWL9-15 | 2026-08-31 07:52:08 | 53.06932 | 8.01220 | 20° | 33km/h | 21326m | 5.0m/s | -52.4°C | 1.0% | 47.1hPa | 2.7V | 00:00:00 | 00:00:00 | 00:00:00 | |
| DL1XH-15 | 2026-08-31 07:52:07 | 53.06899 | 8.01198 | 25° | 33km/h | 21303m | 5.6m/s | -52.4°C | 3.7% | 47.2hPa | 2.7V | 08:30:00 | 01:16:34 | 00:00:00 | |
| HSKMA3-T | 2026-08-31 07:52:04 | 53.06907 | 8.01204 | 26° | 35km/h | 21309m | 4.8m/s | -52.4°C | 0.5% | 47.2hPa | 2.7V | 18:12:15 | 01:16:35 | 00:00:00 | |
| DL1XH-west | 2026-08-31 07:52:02 | 53.06891 | 8.01193 | 19° | 31km/h | 21297m | 6.6m/s | -52.5°C | 0.5% | 47.3hPa | 2.7V | 18:12:15 | 01:16:33 | 00:00:00 | |
| DK5PH-5 | 2026-08-31 07:52:02 | 53.06891 | 8.01193 | 20° | 27km/h | 21298m | 6.5m/s | -52.4°C | 3.7% | 47.2hPa | 2.7V | 00:00:00 | 01:16:33 | 00:00:00 | |
| DB0NH | 2026-08-31 07:52:01 | 53.06884 | 8.01189 | 15° | 27km/h | 21291m | 5.9m/s | -52.3°C | 3.7% | 47.3hPa | 2.6V | 00:00:00 | 01:16:32 | 00:00:00 | |
| DL1XH1-15 | 2026-08-31 07:52:00 | 53.06844 | 8.01166 | 16° | 35km/h | 21256m | 5.7m/s | -52.2°C | 3.7% | 47.6hPa | 2.6V | 08:30:00 | 01:16:26 | 00:00:00 | |
| BIOWL1-15 | 2026-08-31 07:52:00 | 53.06878 | 8.01186 | 17° | 24km/h | 21286m | 4.8m/s | -52.3°C | 0.5% | 47.4hPa | 2.6V | 18:12:15 | 01:16:31 | 00:00:00 | |
| DJ2DS-15 | 2026-08-31 07:52:00 | 53.06878 | 8.01186 | 17° | 27km/h | 21286m | 4.8m/s | -52.3°C | 3.8% | 47.3hPa | 2.7V | 00:00:00 | 01:16:31 | 00:00:00 | |
| DM0DOS-11 | 2026-08-31 07:51:59 | 53.06860 | 8.01174 | 19° | 29km/h | 21268m | 7.2m/s | -52.3°C | 3.7% | 47.5hPa | 2.7V | 08:30:00 | 01:16:28 | 00:00:00 | |
| DO2JMG | 2026-08-31 07:51:59 | 53.06872 | 8.01183 | 23° | 24km/h | 21280m | 7m/s | -52.4°C | 0.5% | 47.4hPa | 2.6V | 18:12:15 | 01:16:30 | 00:00:00 | |
| DO9LL-15 | 2026-08-31 07:51:58 | 53.06867 | 8.01179 | 26° | 24km/h | 21274m | 4.7m/s | -52.3°C | 3.8% | 47.4hPa | 2.7V | 00:00:00 | 01:16:29 | 00:00:00 | |
| DL1XH-15 | 2026-08-31 07:51:57 | 53.06827 | 8.01157 | 16° | 35km/h | 21244m | 5.7m/s | -52.2°C | 3.6% | 47.7hPa | 2.6V | 08:30:00 | 01:16:24 | 00:00:00 | |
| DD8BA-10 | 2026-08-31 07:51:57 | 53.06860 | 8.01174 | 20° | 31km/h | 21268m | 7.2m/s | -52.2°C | 3.7% | 47.5hPa | 2.6V | 00:00:00 | 00:00:00 | 00:00:00 | |
| DN9WHV | 2026-08-31 07:51:56 | 53.06860 | 8.01174 | 20° | 29km/h | 21268m | 7.2m/s | -52.3°C | 1.0% | 47.5hPa | 2.6V | 00:00:00 | 00:00:00 | 00:00:00 | |
| DB0DAN | 2026-08-31 07:51:55 | 53.06844 | 8.01166 | 17° | 33km/h | 21256m | 5.7m/s | -52.3°C | 1% | 47.58hPa | 2.6V | 00:00:00 | 00:00:00 | 00:00:00 | |
| HSKMA3-T | 2026-08-31 07:51:53 | 53.06827 | 8.01157 | 16° | 35km/h | 21244m | 5.7m/s | -52.2°C | 0.4% | 47.7hPa | 2.6V | 18:12:15 | 01:16:24 | 00:00:00 | |
| DL1NUX | 2026-08-31 07:51:53 | 53.06819 | 8.01154 | 10° | 35km/h | 21237m | 7.1m/s | -52.2°C | 3.7% | 47.7hPa | 2.7V | 08:30:00 | 01:16:23 | 00:00:00 | |
| DL1XH-west | 2026-08-31 07:51:51 | 53.06811 | 8.01152 | 3° | 31km/h | 21231m | 5.4m/s | -52.3°C | 0.5% | 47.8hPa | 2.7V | 18:12:15 | 01:16:22 | 00:00:00 | |
| SO1NDE-10 | 2026-08-31 07:51:51 | 53.06810 | 8.01152 | 4° | 26km/h | 21231m | 5.4m/s | -52.3°C | 3.7% | 47.7hPa | 2.7V | 00:00:00 | 01:16:22 | 00:00:00 | |
| DL1XH1-15 | 2026-08-31 07:51:50 | 53.06775 | 8.01147 | 359° | 26km/h | 21198m | 5.5m/s | -52.1°C | 3.6% | 48hPa | 2.7V | 08:30:00 | 01:16:16 | 00:00:00 | |
| DF8AY | 2026-08-31 07:51:50 | 53.06803 | 8.01152 | 360° | 27km/h | 21226m | 4.4m/s | -52.3°C | 0.5% | 47.8hPa | 2.7V | 18:12:15 | 01:16:21 | 00:00:00 | |
| AA1-15 | 2026-08-31 07:51:49 | 53.06796 | 8.01152 | 4° | 26km/h | 21221m | 6.5m/s | -52.3°C | 0.5% | 47.9hPa | 2.6V | 18:12:15 | 01:16:20 | 00:00:00 | |
| DM0DOS-11 | 2026-08-31 07:51:49 | 53.06786 | 8.01149 | 11° | 20km/h | 21210m | 4.2m/s | -52.2°C | 3.6% | 47.9hPa | 2.6V | 08:30:00 | 01:16:18 | 00:00:00 | |
| DO2JMG | 2026-08-31 07:51:48 | 53.06791 | 8.01151 | 11° | 22km/h | 21215m | 5.7m/s | -52.3°C | 0.5% | 47.9hPa | 2.6V | 18:12:15 | 01:16:19 | 00:00:00 | |
| DL3AQ-11 | 2026-08-31 07:51:47 | 53.06780 | 8.01148 | 4° | 20km/h | 21205m | 6.6m/s | -52.1°C | 1.0% | 48.0hPa | 2.7V | 00:00:00 | 00:00:00 | 00:00:00 | |
| GOEST3-10 | 2026-08-31 07:51:46 | 53.06780 | 8.01148 | 5° | 27km/h | 21205m | 6.6m/s | -52.1°C | 3.6% | 47.9hPa | 2.7V | 00:00:00 | 00:00:00 | 00:00:00 | |
| DB0UT-7 | 2026-08-31 07:51:45 | 53.06775 | 8.01147 | 360° | 26km/h | 21199m | 5.5m/s | -52.0°C | 3.6% | 48.0hPa | 2.7V | 00:00:00 | 01:16:16 | 00:00:00 | |
| DL8OAI-8 | 2026-08-31 07:51:44 | 53.06775 | 8.01147 | 360° | 26km/h | 21199m | 5.5m/s | -52.1°C | 1.0% | 48.0hPa | 2.6V | 00:00:00 | 00:00:00 | 00:00:00 | |
| DL1NUX | 2026-08-31 07:51:43 | 53.06753 | 8.01145 | 7° | 31km/h | 21180m | 4.8m/s | -52.1°C | 3.5% | 48.1hPa | 2.6V | 08:30:00 | 01:16:13 | 00:00:00 | |
| HSKMA3-T | 2026-08-31 07:51:42 | 53.06753 | 8.01145 | 7° | 31km/h | 21180m | 4.8m/s | -52.1°C | 0.3% | 48.1hPa | 2.6V | 18:12:15 | 01:16:13 | 00:00:00 | |
| DN9WHV | 2026-08-31 07:51:41 | 53.06753 | 8.01145 | 8° | 31km/h | 21181m | 4.8m/s | -52.1°C | 0.9% | 48.1hPa | 2.7V | 00:00:00 | 00:00:00 | 00:00:00 | |
| DB0DAN | 2026-08-31 07:51:40 | 53.06738 | 8.01145 | 354° | 29km/h | 21169m | 6.1m/s | -52.1°C | 1% | 48.24hPa | 2.7V | 00:00:00 | 00:00:00 | 00:00:00 | |
| DL1XH1-15 | 2026-08-31 07:51:40 | 53.06709 | 8.01163 | 320° | 22km/h | 21141m | 6.7m/s | -51.9°C | 3.7% | 48.4hPa | 2.6V | 08:30:00 | 01:16:06 | 00:00:00 | |
| DL1XH-west | 2026-08-31 07:51:40 | 53.06738 | 8.01145 | 354° | 31km/h | 21169m | 6.1m/s | -52.1°C | 0.3% | 48.2hPa | 2.7V | 18:12:15 | 01:16:11 | 00:00:00 | |
| DO2JMG | 2026-08-31 07:51:38 | 53.06723 | 8.01150 | 340° | 27km/h | 21157m | 6.8m/s | -52.1°C | 0.5% | 48.3hPa | 2.7V | 18:12:15 | 01:16:09 | 00:00:00 | |
| HSKMA3-T | 2026-08-31 07:51:32 | 53.06693 | 8.01177 | 347° | 24km/h | 21124m | 7.6m/s | -52°C | 0.4% | 48.5hPa | 2.7V | 18:12:15 | 01:16:03 | 00:00:00 | |
| DF2AP-13 | 2026-08-31 07:51:32 | 53.06693 | 8.01177 | 347° | 22km/h | 21125m | 7.6m/s | -51.9°C | 3.7% | 48.5hPa | 2.7V | 00:00:00 | 01:16:03 | 08:30:00 | |
| DB0NH | 2026-08-31 07:51:31 | 53.06686 | 8.01179 | 357° | 24km/h | 21119m | 4.7m/s | -52.0°C | 3.6% | 48.5hPa | 2.6V | 00:00:00 | 01:16:02 | 00:00:00 | |
| DL1XH1-15 | 2026-08-31 07:51:30 | 53.06647 | 8.01193 | 329° | 26km/h | 21083m | 7.9m/s | -52.2°C | 3.6% | 48.9hPa | 2.6V | 08:30:00 | 01:15:56 | 00:00:00 | |
| DL1XH-west | 2026-08-31 07:51:30 | 53.06680 | 8.01180 | 354° | 27km/h | 21112m | 7.5m/s | -52.1°C | 0.4% | 48.7hPa | 2.6V | 18:12:15 | 01:16:01 | 00:00:00 | |
| DN9WHV | 2026-08-31 07:51:29 | 53.06680 | 8.01180 | 355° | 27km/h | 21112m | 7.5m/s | -52.1°C | 1.0% | 48.7hPa | 2.6V | 00:00:00 | 00:00:00 | 00:00:00 | |
| DL1XH-15 | 2026-08-31 07:51:28 | 53.06637 | 8.01206 | 317° | 22km/h | 21071m | 7.1m/s | -52°C | 3.5% | 49hPa | 2.6V | 08:30:00 | 01:15:54 | 00:00:00 | |
| AA1-15 | 2026-08-31 07:51:28 | 53.06666 | 8.01184 | 350° | 29km/h | 21101m | 5.8m/s | -52.2°C | 0.4% | 48.7hPa | 2.7V | 18:12:15 | 01:15:59 | 00:00:00 | |
| DO2JMG | 2026-08-31 07:51:27 | 53.06659 | 8.01186 | 350° | 27km/h | 21095m | 5.9m/s | -52.2°C | 0.4% | 48.8hPa | 2.7V | 18:12:15 | 01:15:58 | 00:00:00 | |
| DD8BA-10 | 2026-08-31 07:51:27 | 53.06658 | 8.01186 | 351° | 22km/h | 21095m | 5.8m/s | -52.1°C | 3.7% | 48.7hPa | 2.6V | 00:00:00 | 00:00:00 | 00:00:00 | |
| DD1CC2-15 | 2026-08-31 07:51:26 | 53.06658 | 8.01186 | 351° | 27km/h | 21095m | 5.9m/s | -52.2°C | 1.0% | 48.8hPa | 2.6V | 00:00:00 | 00:00:00 | 00:00:00 | |
| DB0DAN | 2026-08-31 07:51:25 | 53.06647 | 8.01193 | 330° | 24km/h | 21083m | 7.9m/s | -52.2°C | 1% | 48.87hPa | 2.6V | 00:00:00 | 00:00:00 | 00:00:00 | |
| HSKMA3-T | 2026-08-31 07:51:21 | 53.06630 | 8.01216 | 321° | 18km/h | 21060m | 5m/s | -52.2°C | 0.3% | 49hPa | 2.7V | 18:12:15 | 01:15:52 | 00:00:00 | |
| DL1XH-west | 2026-08-31 07:51:20 | 53.06626 | 8.01221 | 324° | 18km/h | 21054m | 6.5m/s | -52.1°C | 0.3% | 49.1hPa | 2.7V | 18:12:15 | 01:15:51 | 00:00:00 | |
| DD1CC8 | 2026-08-31 07:51:20 | 53.06622 | 8.01225 | 337° | 18km/h | 21048m | 4.6m/s | -52.1°C | 1.0% | 49.1hPa | 2.6V | 00:00:00 | 00:00:00 | 00:00:00 | |
| DM0DOS-11 | 2026-08-31 07:51:19 | 53.06612 | 8.01227 | 12° | 20km/h | 21036m | 5.8m/s | -52.2°C | 3.6% | 49.2hPa | 2.6V | 08:30:00 | 01:15:48 | 00:00:00 | |
| DL1XH-15 | 2026-08-31 07:51:18 | 53.06589 | 8.01222 | 2° | 22km/h | 21013m | 6.6m/s | -52.1°C | 3.6% | 49.4hPa | 2.6V | 08:30:00 | 01:15:44 | 00:00:00 | |
| DF8AY | 2026-08-31 07:51:17 | 53.06612 | 8.01227 | 12° | 20km/h | 21036m | 5.8m/s | -52.2°C | 0.4% | 49.2hPa | 2.6V | 18:12:15 | 01:15:48 | 00:00:00 | |
| DO2JMG | 2026-08-31 07:51:16 | 53.06607 | 8.01225 | 12° | 22km/h | 21030m | 5.7m/s | -52.3°C | 0.4% | 49.3hPa | 2.7V | 18:12:15 | 01:15:47 | 00:00:00 | |
| HSKMA3-T | 2026-08-31 07:51:11 | 53.06579 | 8.01223 | 350° | 20km/h | 21002m | 4.7m/s | -52.3°C | 0.4% | 49.5hPa | 2.6V | 18:12:15 | 01:15:42 | 00:00:00 | |
| DB0DAN | 2026-08-31 07:51:10 | 53.06574 | 8.01225 | 340° | 20km/h | 20996m | 6.8m/s | -52.4°C | 1% | 49.55hPa | 2.7V | 00:00:00 | 00:00:00 | 00:00:00 | |
| DL1XH-west | 2026-08-31 07:51:10 | 53.06574 | 8.01225 | 340° | 22km/h | 20996m | 6.8m/s | -52.4°C | 0.4% | 49.5hPa | 2.7V | 18:12:15 | 01:15:41 | 00:00:00 | |
| DM0DOS-11 | 2026-08-31 07:51:09 | 53.06561 | 8.01234 | 345° | 13km/h | 20980m | 5.4m/s | -52.3°C | 3.7% | 49.7hPa | 2.6V | 08:30:00 | 01:15:38 | 00:00:00 | |
| DL1XH-15 | 2026-08-31 07:51:08 | 53.06546 | 8.01230 | 27° | 20km/h | 20956m | 6.6m/s | -52.3°C | 3.6% | 49.9hPa | 2.7V | 08:30:00 | 01:15:34 | 00:00:00 | |
| DO2JMG | 2026-08-31 07:51:06 | 53.06558 | 8.01234 | 360° | 13km/h | 20974m | 5.1m/s | -52.3°C | 0.4% | 49.7hPa | 2.6V | 18:12:15 | 01:15:37 | 00:00:00 | |
| BIOWL1-15 | 2026-08-31 07:51:05 | 53.06555 | 8.01234 | 3° | 15km/h | 20968m | 6.7m/s | -52.3°C | 0.4% | 49.8hPa | 2.6V | 18:12:15 | 01:15:36 | 00:00:00 | |
| DO2SHX-10 | 2026-08-31 07:51:05 | 53.06555 | 8.01234 | 3° | 20km/h | 20969m | 6.6m/s | -52.2°C | 3.6% | 49.7hPa | 2.7V | 00:00:00 | 01:15:36 | 00:00:00 | |
| DL1NUX | 2026-08-31 07:51:03 | 53.06541 | 8.01225 | 36° | 24km/h | 20950m | 5.9m/s | -52.3°C | 3.6% | 49.9hPa | 2.7V | 08:30:00 | 01:15:33 | 00:00:00 | |
| HSKMA3-T | 2026-08-31 07:51:00 | 53.06531 | 8.01212 | 33° | 27km/h | 20940m | 5.2m/s | -52.3°C | 0.4% | 50hPa | 2.6V | 18:12:15 | 01:15:31 | 00:00:00 | |
| DL1XH-west | 2026-08-31 07:50:59 | 53.06525 | 8.01207 | 21° | 24km/h | 20935m | 6.1m/s | -52.2°C | 0.4% | 50hPa | 2.6V | 18:12:15 | 01:15:30 | 00:00:00 | |
| DM0DOS-11 | 2026-08-31 07:50:59 | 53.06515 | 8.01203 | 8° | 18km/h | 20924m | 5.2m/s | -52.2°C | 3.6% | 50.1hPa | 2.7V | 08:30:00 | 01:15:28 | 00:00:00 | |
| DO2SHX-10 | 2026-08-31 07:50:59 | 53.06525 | 8.01207 | 22° | 22km/h | 20935m | 6.0m/s | -52.2°C | 3.6% | 50.0hPa | 2.6V | 00:00:00 | 01:15:30 | 08:30:00 | |
| DL1XH-15 | 2026-08-31 07:50:58 | 53.06497 | 8.01197 | 9° | 20km/h | 20901m | 4.9m/s | -52.2°C | 3.6% | 50.3hPa | 2.6V | 08:30:00 | 01:15:24 | 00:00:00 | |
| DO2JMG | 2026-08-31 07:50:56 | 53.06510 | 8.01202 | 13° | 16km/h | 20918m | 5.9m/s | -52.2°C | 0.4% | 50.1hPa | 2.7V | 18:12:15 | 01:15:27 | 00:00:00 | |
| BIOWL1-15 | 2026-08-31 07:50:55 | 53.06506 | 8.01200 | 15° | 16km/h | 20913m | 5.2m/s | -52.2°C | 0.4% | 50.2hPa | 2.6V | 18:12:15 | 01:15:26 | 00:00:00 | |
| DB0DAN | 2026-08-31 07:50:55 | 53.06506 | 8.01200 | 15° | 15km/h | 20913m | 5.2m/s | -52.2°C | 1% | 50.2hPa | 2.6V | 00:00:00 | 00:00:00 | 00:00:00 | |
| DN9WHV | 2026-08-31 07:50:54 | 53.06506 | 8.01200 | 16° | 16km/h | 20913m | 5.2m/s | -52.1°C | 1.0% | 50.2hPa | 2.7V | 00:00:00 | 00:00:00 | 00:00:00 | |
| DL1NUX | 2026-08-31 07:50:53 | 53.06492 | 8.01195 | 17° | 24km/h | 20896m | 3.6m/s | -52.3°C | 3.7% | 50.3hPa | 2.7V | 08:30:00 | 01:15:23 | 00:00:00 | |
| EDDB2-11 | 2026-08-31 07:50:53 | 53.06461 | 8.01161 | 31° | 33km/h | 20868m | 4.8m/s | 0°C | -1.0% | -1.0hPa | 2.7V | 00:00:00 | 00:00:00 | 00:00:00 | |
| GOEST3-10 | 2026-08-31 07:50:51 | 53.06486 | 8.01191 | 28° | 31km/h | 20892m | 6.6m/s | -52.4°C | 3.7% | 50.3hPa | 2.7V | 00:00:00 | 01:15:22 | 00:00:00 | |
| DL1XH1-15 | 2026-08-31 07:50:50 | 53.06448 | 8.01146 | 34° | 31km/h | 20857m | 5.7m/s | -52.2°C | 3.8% | 50.6hPa | 2.7V | 08:30:00 | 01:15:16 | 00:00:00 | |
| DM0DOS-11 | 2026-08-31 07:50:49 | 53.06461 | 8.01161 | 31° | 33km/h | 20868m | 4.8m/s | -52.3°C | 3.8% | 50.5hPa | 2.6V | 08:30:00 | 01:15:18 | 00:00:00 | |
| HSKMA3-T | 2026-08-31 07:50:49 | 53.06475 | 8.01177 | 41° | 31km/h | 20880m | 5m/s | -52.4°C | 0.5% | 50.5hPa | 2.6V | 18:12:15 | 01:15:20 | 00:00:00 | |
| DO2JMG | 2026-08-31 07:50:45 | 53.06448 | 8.01146 | 35° | 31km/h | 20857m | 5.7m/s | -52.2°C | 0.5% | 50.6hPa | 2.7V | 18:12:15 | 01:15:16 | 00:00:00 | |
| BIOWL1-15 | 2026-08-31 07:50:44 | 53.06441 | 8.01139 | 31° | 27km/h | 20852m | 4.7m/s | -52.1°C | 0.5% | 50.7hPa | 2.7V | 18:12:15 | 01:15:15 | 00:00:00 | |
| DL1NUX | 2026-08-31 07:50:43 | 53.06430 | 8.01131 | 13° | 22km/h | 20839m | 5m/s | -52°C | 3.6% | 50.8hPa | 2.6V | 08:30:00 | 01:15:13 | 00:00:00 | |
| DN9WHV | 2026-08-31 07:50:43 | 53.06435 | 8.01134 | 24° | 26km/h | 20846m | 7.7m/s | -52.1°C | 1.0% | 50.7hPa | 2.7V | 00:00:00 | 00:00:00 | 00:00:00 | |
| DO2LYB-13 | 2026-08-31 07:50:41 | 53.06430 | 8.01131 | 15° | 22km/h | 20839m | 5.0m/s | -52.1°C | 1.0% | 50.8hPa | 2.7V | 00:00:00 | 00:00:00 | 00:00:00 | |
| DB0DAN | 2026-08-31 07:50:40 | 53.06420 | 8.01126 | 22° | 18km/h | 20829m | 6.3m/s | -52.1°C | 1% | 50.87hPa | 2.7V | 00:00:00 | 00:00:00 | 00:00:00 | |
| DL1XH1-15 | 2026-08-31 07:50:40 | 53.06387 | 8.01103 | 21° | 38km/h | 20802m | 5.1m/s | -52°C | 3.6% | 51.1hPa | 2.6V | 08:30:00 | 01:15:06 | 00:00:00 | |
| DL3AQ-11 | 2026-08-31 07:50:40 | 53.06415 | 8.01123 | 28° | 22km/h | 20824m | 4.1m/s | -52.1°C | 1.0% | 50.9hPa | 2.6V | 00:00:00 | 00:00:00 | 00:00:00 | |
| DM0DOS-11 | 2026-08-31 07:50:39 | 53.06403 | 8.01113 | 21° | 31km/h | 20813m | 6.5m/s | -52.1°C | 3.6% | 51hPa | 2.6V | 08:30:00 | 01:15:08 | 00:00:00 | |
| HSKMA3-T | 2026-08-31 07:50:39 | 53.06415 | 8.01123 | 29° | 22km/h | 20824m | 4.1m/s | -52.1°C | 0.4% | 50.9hPa | 2.7V | 18:12:15 | 01:15:10 | 00:00:00 | |
| DL1XH-west | 2026-08-31 07:50:38 | 53.06410 | 8.01118 | 28° | 26km/h | 20819m | 4.9m/s | -52°C | 0.4% | 50.9hPa | 2.7V | 18:12:15 | 01:15:09 | 00:00:00 | |
| DO2JMG | 2026-08-31 07:50:34 | 53.06378 | 8.01096 | 26° | 38km/h | 20796m | 6.9m/s | -52.1°C | 0.4% | 51.1hPa | 2.7V | 18:12:15 | 01:15:05 | 00:00:00 | |
| BIOWL1-15 | 2026-08-31 07:50:33 | 53.06369 | 8.01089 | 29° | 38km/h | 20790m | 4.8m/s | -52.1°C | 0.4% | 51.2hPa | 2.7V | 18:12:15 | 01:15:04 | 00:00:00 | |
| DL1NUX | 2026-08-31 07:50:33 | 53.06361 | 8.01081 | 28° | 38km/h | 20786m | 5m/s | -52°C | 3.6% | 51.2hPa | 2.7V | 08:30:00 | 01:15:03 | 00:00:00 | |
| DK5PH-5 | 2026-08-31 07:50:32 | 53.06361 | 8.01081 | 29° | 27km/h | 20786m | 4.9m/s | -52.0°C | 3.6% | 51.2hPa | 2.7V | 00:00:00 | 01:15:03 | 00:00:00 | |
| DO2SHX-10 | 2026-08-31 07:50:31 | 53.06352 | 8.01073 | 26° | 38km/h | 20780m | 6.2m/s | -52.0°C | 3.6% | 51.2hPa | 2.7V | 00:00:00 | 01:15:02 | 00:00:00 | |
| WEDDY | 2026-08-31 07:50:30 | 53.06352 | 8.01073 | 27° | 40km/h | 20780m | 6.2m/s | -52.0°C | 1.0% | 51.2hPa | 2.7V | 00:00:00 | 00:00:00 | 00:00:00 | |
| DM0DOS-11 | 2026-08-31 07:50:29 | 53.06321 | 8.01046 | 34° | 29km/h | 20757m | 5.2m/s | -52°C | 3.7% | 51.4hPa | 2.7V | 08:30:00 | 01:14:58 | 00:00:00 | |
| DL1XH-15 | 2026-08-31 07:50:28 | 53.06292 | 8.01025 | 14° | 29km/h | 20734m | 7.7m/s | -52°C | 3.6% | 51.6hPa | 2.6V | 08:30:00 | 01:14:54 | 00:00:00 | |
| HSKMA3-T | 2026-08-31 07:50:28 | 53.06327 | 8.01053 | 32° | 33km/h | 20763m | 6.4m/s | -52°C | 0.4% | 51.4hPa | 2.7V | 18:12:15 | 01:14:59 | 00:00:00 | |
| DL1XH-west | 2026-08-31 07:50:27 | 53.06321 | 8.01046 | 35° | 29km/h | 20757m | 5.2m/s | -52°C | 0.5% | 51.4hPa | 2.7V | 18:12:15 | 01:14:58 | 00:00:00 | |
| DD8BA-10 | 2026-08-31 07:50:27 | 53.06321 | 8.01045 | 35° | 31km/h | 20757m | 5.1m/s | -51.9°C | 3.7% | 51.4hPa | 2.6V | 00:00:00 | 00:00:00 | 00:00:00 | |
| DK9SH | 2026-08-31 07:50:26 | 53.06321 | 8.01045 | 36° | 29km/h | 20757m | 5.2m/s | -52.0°C | 1.0% | 51.4hPa | 2.6V | 00:00:00 | 00:00:00 | 00:00:00 | |
| DB0DAN | 2026-08-31 07:50:25 | 53.06307 | 8.01033 | 23° | 31km/h | 20745m | 5.4m/s | -52°C | 1% | 51.5hPa | 2.6V | 00:00:00 | 00:00:00 | 00:00:00 | |
| DO2JMG | 2026-08-31 07:50:23 | 53.06292 | 8.01025 | 15° | 29km/h | 20734m | 7.7m/s | -52°C | 0.4% | 51.6hPa | 2.6V | 18:12:15 | 01:14:54 | 00:00:00 | |
| BIOWL1-15 | 2026-08-31 07:50:22 | 53.06256 | 8.01008 | 22° | 27km/h | 20705m | 7m/s | -52°C | 0.3% | 51.9hPa | 2.6V | 18:12:15 | 01:14:49 | 00:00:00 | |
| SO1NDE-10 | 2026-08-31 07:50:21 | 53.06278 | 8.01019 | 14° | 22km/h | 20723m | 6.1m/s | -52.1°C | 3.6% | 51.7hPa | 2.7V | 00:00:00 | 01:14:52 | 00:00:00 | |
| DL1XH1-15 | 2026-08-31 07:50:20 | 53.06239 | 8.00991 | 37° | 27km/h | 20687m | 5.7m/s | -52°C | 3.5% | 52hPa | 2.7V | 08:30:00 | 01:14:46 | 00:00:00 | |
| DJ2DS-15 | 2026-08-31 07:50:20 | 53.06270 | 8.01016 | 14° | 24km/h | 20717m | 6.1m/s | -51.9°C | 3.5% | 51.7hPa | 2.6V | 00:00:00 | 01:14:51 | 00:00:00 | |
| DN9WHV | 2026-08-31 07:50:19 | 53.06270 | 8.01016 | 15° | 33km/h | 20717m | 6.1m/s | -52.0°C | 1.0% | 51.8hPa | 2.6V | 00:00:00 | 00:00:00 | 00:00:00 | |
| DL1XH-15 | 2026-08-31 07:50:18 | 53.06229 | 8.00978 | 42° | 22km/h | 20676m | 6.7m/s | -52°C | 3.5% | 52.1hPa | 2.6V | 08:30:00 | 01:14:44 | 00:00:00 | |
| HSKMA3-T | 2026-08-31 07:50:17 | 53.06250 | 8.01004 | 30° | 26km/h | 20699m | 5.4m/s | -52.1°C | 0.3% | 51.9hPa | 2.6V | 18:12:15 | 01:14:48 | 00:00:00 | |
| DO2JMG | 2026-08-31 07:50:12 | 53.06225 | 8.00972 | 38° | 18km/h | 20670m | 4.4m/s | -52.1°C | 0.4% | 52.1hPa | 2.6V | 18:12:15 | 01:14:43 | 00:00:00 | |
| BIOWL1-15 | 2026-08-31 07:50:11 | 53.06211 | 8.00961 | 14° | 26km/h | 20655m | 5.2m/s | -52.2°C | 0.4% | 52.3hPa | 2.7V | 18:12:15 | 01:14:40 | 00:00:00 | |
| DL4BBY-15 | 2026-08-31 07:50:11 | 53.06221 | 8.00968 | 30° | 22km/h | 20666m | 4.7m/s | -55.1°C | 0% | 0hPa | 2.6V | 00:00:00 | 00:00:00 | 00:00:00 | |
| DL1XH1-15 | 2026-08-31 07:50:10 | 53.06187 | 8.00956 | 9° | 24km/h | 20633m | 6.3m/s | -52.1°C | 3.6% | 52.4hPa | 2.6V | 08:30:00 | 01:14:36 | 00:00:00 | |
| DB0DAN | 2026-08-31 07:50:10 | 53.06217 | 8.00964 | 22° | 22km/h | 20660m | 5.8m/s | -52.2°C | 1% | 52.22hPa | 2.7V | 00:00:00 | 00:00:00 | 00:00:00 | |
| HSKMA3-T | 2026-08-31 07:50:06 | 53.06193 | 8.00957 | 4° | 22km/h | 20638m | 4.4m/s | -52.2°C | 0.4% | 52.4hPa | 2.6V | 18:12:15 | 01:14:37 | 00:00:00 | |
| DO2JMG | 2026-08-31 07:50:01 | 53.06167 | 8.00947 | 11° | 15km/h | 20609m | 4.8m/s | -52.3°C | 0.5% | 52.6hPa | 2.6V | 18:12:15 | 01:14:32 | 00:00:00 | |
| SONDE2-11 | 2026-08-31 07:50:00 | 53.06159 | 8.00945 | 4° | 16km/h | 20597m | 5.2m/s | -52.3°C | 1.0% | 52.7hPa | 2.7V | 00:00:00 | 00:00:00 | 00:00:00 | |
| DM0DOS-11 | 2026-08-31 07:49:59 | 53.06150 | 8.00948 | 337° | 16km/h | 20584m | 6.5m/s | -52.3°C | 3.7% | 52.8hPa | 2.7V | 08:30:00 | 01:14:28 | 00:00:00 | |
| BIOWL1-15 | 2026-08-31 07:49:58 | 53.06155 | 8.00946 | 349° | 18km/h | 20591m | 6.3m/s | -52.4°C | 0.4% | 52.8hPa | 2.7V | 18:12:15 | 01:14:29 | 00:00:00 | |
| HSKMA3-T | 2026-08-31 07:49:56 | 53.06146 | 8.00951 | 337° | 20km/h | 20579m | 3.8m/s | -52.4°C | 0.4% | 52.9hPa | 2.7V | 18:12:15 | 01:14:27 | 00:00:00 | |
| DL1XH-west | 2026-08-31 07:49:55 | 53.06141 | 8.00954 | 343° | 20km/h | 20573m | 7.3m/s | -52.3°C | 0.4% | 52.9hPa | 2.6V | 18:12:15 | 01:14:26 | 00:00:00 | |
| DB0DAN | 2026-08-31 07:49:55 | 53.06141 | 8.00954 | 343° | 20km/h | 20573m | 7.3m/s | -52.3°C | 1% | 52.92hPa | 2.6V | 00:00:00 | 00:00:00 | 00:00:00 | |
| BUE01 | 2026-08-31 07:49:54 | 53.06136 | 8.00956 | 349° | 22km/h | 20567m | 5.3m/s | -52.4°C | 1.0% | 53.0hPa | 2.7V | 00:00:00 | 00:00:00 | 00:00:00 | |
| DL1NUX | 2026-08-31 07:49:53 | 53.06125 | 8.00959 | 352° | 20km/h | 20555m | 5.6m/s | -52.4°C | 3.7% | 53hPa | 2.7V | 08:30:00 | 01:14:23 | 00:00:00 | |
| DF8AY | 2026-08-31 07:49:51 | 53.06120 | 8.00960 | 358° | 22km/h | 20550m | 5.2m/s | -52.4°C | 0.4% | 53.1hPa | 2.7V | 18:12:15 | 01:14:22 | 00:00:00 | |
| DO2JMG | 2026-08-31 07:49:50 | 53.06114 | 8.00959 | 6° | 24km/h | 20544m | 6.9m/s | -52.4°C | 0.5% | 53.2hPa | 2.7V | 18:12:15 | 01:14:21 | 00:00:00 | |
| DM0DOS-11 | 2026-08-31 07:49:49 | 53.06096 | 8.00954 | 7° | 22km/h | 20525m | 6m/s | -52.4°C | 3.7% | 53.3hPa | 2.6V | 08:30:00 | 01:14:18 | 00:00:00 | |
| DL1XH-15 | 2026-08-31 07:49:48 | 53.06070 | 8.00948 | 7° | 26km/h | 20504m | 5.7m/s | -52.4°C | 3.7% | 53.5hPa | 2.6V | 08:30:00 | 01:14:14 | 00:00:00 | |
| BIOWL1-15 | 2026-08-31 07:49:47 | 53.06096 | 8.00954 | 8° | 22km/h | 20525m | 6m/s | -52.4°C | 0.4% | 53.3hPa | 2.6V | 18:12:15 | 01:14:18 | 00:00:00 | |
| HSKMA3-T | 2026-08-31 07:49:46 | 53.06090 | 8.00953 | 7° | 24km/h | 20520m | 3.7m/s | -52.4°C | 0.5% | 53.4hPa | 2.7V | 18:12:15 | 01:14:17 | 00:00:00 | |
| DL1XH-west | 2026-08-31 07:49:44 | 53.06077 | 8.00950 | 9° | 27km/h | 20509m | 5.3m/s | -52.5°C | 0.4% | 53.4hPa | 2.7V | 18:12:15 | 01:14:15 | 00:00:00 | |
| DL1NUX | 2026-08-31 07:49:43 | 53.06064 | 8.00947 | 7° | 24km/h | 20497m | 6.7m/s | -52.4°C | 3.7% | 53.5hPa | 2.6V | 08:30:00 | 01:14:13 | 00:00:00 | |
| DN9WHV | 2026-08-31 07:49:43 | 53.06070 | 8.00948 | 8° | 26km/h | 20504m | 5.7m/s | -52.4°C | 1.0% | 53.5hPa | 2.6V | 00:00:00 | 00:00:00 | 00:00:00 | |
| GOEST3-10 | 2026-08-31 07:49:41 | 53.06059 | 8.00945 | 18° | 22km/h | 20492m | 3.7m/s | -52.3°C | 3.7% | 53.5hPa | 2.6V | 00:00:00 | 01:14:12 | 00:00:00 | |
| DL1XH1-15 | 2026-08-31 07:49:40 | 53.06029 | 8.00917 | 32° | 24km/h | 20456m | 6.8m/s | -52.2°C | 3.7% | 53.9hPa | 2.6V | 08:30:00 | 01:14:06 | 00:00:00 | |
| AA1-15 | 2026-08-31 07:49:40 | 53.06054 | 8.00942 | 24° | 22km/h | 20487m | 7m/s | -52.4°C | 0.5% | 53.6hPa | 2.7V | 18:12:15 | 01:14:11 | 00:00:00 | |
| DB0DAN | 2026-08-31 07:49:40 | 53.06054 | 8.00942 | 24° | 22km/h | 20487m | 7m/s | -52.4°C | 1% | 53.65hPa | 2.7V | 00:00:00 | 00:00:00 | 00:00:00 | |
| DJ2DS-15 | 2026-08-31 07:49:40 | 53.06053 | 8.00942 | 24° | 20km/h | 20487m | 6.9m/s | -52.3°C | 3.7% | 53.6hPa | 2.7V | 00:00:00 | 01:14:11 | 00:00:00 | |
| DM0DOS-11 | 2026-08-31 07:49:39 | 53.06039 | 8.00928 | 33° | 20km/h | 20469m | 6.5m/s | -52.2°C | 3.8% | 53.8hPa | 2.6V | 08:30:00 | 01:14:08 | 00:00:00 | |
| DO2JMG | 2026-08-31 07:49:39 | 53.06048 | 8.00937 | 29° | 24km/h | 20481m | 4.7m/s | -52.3°C | 0.5% | 53.7hPa | 2.7V | 18:12:15 | 01:14:10 | 00:00:00 | |
| DL1XH-15 | 2026-08-31 07:49:38 | 53.06019 | 8.00907 | 31° | 22km/h | 20447m | 6.9m/s | -52.1°C | 3.7% | 54hPa | 2.7V | 08:30:00 | 01:14:04 | 00:00:00 | |
| BIOWL1-15 | 2026-08-31 07:49:37 | 53.06039 | 8.00928 | 34° | 20km/h | 20469m | 6.5m/s | -52.3°C | 0.5% | 53.8hPa | 2.6V | 18:12:15 | 01:14:08 | 00:00:00 | |
| HSKMA3-T | 2026-08-31 07:49:35 | 53.06029 | 8.00917 | 32° | 24km/h | 20456m | 6.8m/s | -52.2°C | 0.4% | 53.9hPa | 2.6V | 18:12:15 | 01:14:06 | 00:00:00 | |
| DL1XH-west | 2026-08-31 07:49:33 | 53.06019 | 8.00907 | 32° | 22km/h | 20447m | 6.9m/s | -52.2°C | 0.5% | 54hPa | 2.7V | 18:12:15 | 01:14:04 | 00:00:00 | |
| DK5PH-5 | 2026-08-31 07:49:32 | 53.06014 | 8.00902 | 31° | 15km/h | 20441m | 4.6m/s | -52.0°C | 3.7% | 54.0hPa | 2.6V | 00:00:00 | 01:14:03 | 00:00:00 | |
| GOEST3-10 | 2026-08-31 07:49:31 | 53.06010 | 8.00898 | 28° | 18km/h | 20436m | 5.5m/s | -52.0°C | 3.7% | 54.0hPa | 2.6V | 00:00:00 | 01:14:02 | 00:00:00 | |
| DL1XH1-15 | 2026-08-31 07:49:30 | 53.05986 | 8.00881 | 11° | 18km/h | 20400m | 5.5m/s | -51.8°C | 3.6% | 54.4hPa | 2.6V | 08:30:00 | 01:13:56 | 00:00:00 | |
| DO2JMG | 2026-08-31 07:49:29 | 53.06001 | 8.00891 | 28° | 20km/h | 20424m | 4.2m/s | -52°C | 0.4% | 54.2hPa | 2.6V | 18:12:15 | 01:14:00 | 00:00:00 | |
| DM0DOS-11 | 2026-08-31 07:49:29 | 53.05994 | 8.00884 | 23° | 15km/h | 20412m | 4.9m/s | -51.9°C | 3.7% | 54.3hPa | 2.7V | 08:30:00 | 01:13:58 | 00:00:00 | |
| DJ2DS-15 | 2026-08-31 07:49:28 | 53.05997 | 8.00887 | 27° | 15km/h | 20418m | 7.3m/s | -52.0°C | 1.0% | 54.2hPa | 2.6V | 00:00:00 | 00:00:00 | 00:00:00 | |
| DJ2KF-10 | 2026-08-31 07:49:27 | 53.05994 | 8.00884 | 24° | 16km/h | 20412m | 4.9m/s | -51.8°C | 3.7% | 54.2hPa | 2.6V | 00:00:00 | 01:13:58 | 00:00:00 | |
| BIOWL1-15 | 2026-08-31 07:49:27 | 53.05986 | 8.00881 | 11° | 18km/h | 20400m | 5.5m/s | -51.8°C | 0.4% | 54.4hPa | 2.6V | 18:12:15 | 01:13:56 | 00:00:00 | |
| DN9WHV | 2026-08-31 07:49:26 | 53.05993 | 8.00884 | 25° | 15km/h | 20412m | 4.9m/s | -51.9°C | 1.0% | 54.3hPa | 2.6V | 00:00:00 | 00:00:00 | 00:00:00 | |
| DB0DAN | 2026-08-31 07:49:25 | 53.05986 | 8.00881 | 11° | 16km/h | 20400m | 5.5m/s | -51.8°C | 1% | 54.38hPa | 2.6V | 00:00:00 | 00:00:00 | 00:00:00 | |
| HSKMA3-T | 2026-08-31 07:49:24 | 53.05982 | 8.00879 | 8° | 18km/h | 20395m | 5.2m/s | -51.8°C | 0.4% | 54.4hPa | 2.6V | 18:12:15 | 01:13:55 | 00:00:00 | |
| DL1XH-west | 2026-08-31 07:49:22 | 53.05974 | 8.00877 | 12° | 15km/h | 20383m | 5.3m/s | -51.7°C | 0.4% | 54.5hPa | 2.7V | 18:12:15 | 01:13:53 | 00:00:00 | |
| GOEST3-10 | 2026-08-31 07:49:21 | 53.05970 | 8.00876 | 18° | 16km/h | 20377m | 6.5m/s | -51.7°C | 3.6% | 54.5hPa | 2.7V | 00:00:00 | 01:13:52 | 00:00:00 | |
| DL1XH1-15 | 2026-08-31 07:49:20 | 53.05950 | 8.00855 | 32° | 16km/h | 20343m | 6.2m/s | -51.5°C | 3.6% | 54.9hPa | 2.7V | 08:30:00 | 01:13:46 | 00:00:00 | |
| DO2JMG | 2026-08-31 07:49:18 | 53.05958 | 8.00866 | 37° | 15km/h | 20358m | 6.5m/s | -51.6°C | 0.3% | 54.7hPa | 2.6V | 18:12:15 | 01:13:49 | 00:00:00 | |
| BIOWL1-15 | 2026-08-31 07:49:18 | 53.05953 | 8.00859 | 36° | 15km/h | 20349m | 5.9m/s | -51.5°C | 0.3% | 54.8hPa | 2.7V | 18:12:15 | 01:13:47 | 00:00:00 | |
| HSKMA3-T | 2026-08-31 07:49:14 | 53.05946 | 8.00852 | 27° | 15km/h | 20338m | 3.8m/s | -51.5°C | 0.4% | 54.9hPa | 2.7V | 18:12:15 | 01:13:45 | 00:00:00 | |
| DL1XH-west | 2026-08-31 07:49:12 | 53.05941 | 8.00847 | 30° | 11km/h | 20327m | 4.8m/s | -51.5°C | 0.4% | 55hPa | 2.6V | 18:12:15 | 01:13:43 | 00:00:00 | |
| DL4BBY-15 | 2026-08-31 07:49:11 | 53.05938 | 8.00845 | 29° | 15km/h | 20321m | 7.2m/s | -54.6°C | 0% | 0hPa | 2.6V | 00:00:00 | 00:00:00 | 00:00:00 | |
| DL1XH1-15 | 2026-08-31 07:49:10 | 53.05917 | 8.00840 | 354° | 18km/h | 20285m | 4.7m/s | -51.4°C | 3.6% | 55.4hPa | 2.6V | 08:30:00 | 01:13:36 | 00:00:00 | |
| DB0DAN | 2026-08-31 07:49:10 | 53.05935 | 8.00842 | 25° | 13km/h | 20314m | 5.5m/s | -51.6°C | 1% | 55.1hPa | 2.7V | 00:00:00 | 00:00:00 | 00:00:00 | |
| DM0DOS-11 | 2026-08-31 07:49:09 | 53.05926 | 8.00839 | 358° | 15km/h | 20297m | 5.2m/s | -51.6°C | 3.6% | 55.2hPa | 2.7V | 08:30:00 | 01:13:38 | 00:00:00 | |
| DO2JMG | 2026-08-31 07:49:08 | 53.05929 | 8.00839 | 6° | 13km/h | 20303m | 6m/s | -51.6°C | 0.4% | 55.2hPa | 2.6V | 18:12:15 | 01:13:39 | 00:00:00 | |
| AA1-15 | 2026-08-31 07:49:07 | 53.05926 | 8.00839 | 359° | 15km/h | 20297m | 5.2m/s | -51.6°C | 0.4% | 55.3hPa | 2.7V | 18:12:15 | 01:13:38 | 00:00:00 | |
| BIOWL1-15 | 2026-08-31 07:49:06 | 53.05922 | 8.00839 | 357° | 16km/h | 20291m | 6.9m/s | -51.6°C | 0.4% | 55.3hPa | 2.7V | 18:12:15 | 01:13:37 | 00:00:00 | |
| HSKMA3-T | 2026-08-31 07:49:03 | 53.05909 | 8.00843 | 345° | 16km/h | 20273m | 4.4m/s | -51.4°C | 0.4% | 55.5hPa | 2.7V | 18:12:15 | 01:13:34 | 00:00:00 | |
| DL1XH-west | 2026-08-31 07:49:01 | 53.05900 | 8.00844 | 1° | 20km/h | 20262m | 7.9m/s | -51.4°C | 0.4% | 55.6hPa | 2.6V | 18:12:15 | 01:13:32 | 00:00:00 | |
| GOEST3-10 | 2026-08-31 07:49:01 | 53.05900 | 8.00844 | 1° | 18km/h | 20262m | 7.8m/s | -51.3°C | 3.6% | 55.5hPa | 2.6V | 00:00:00 | 01:13:32 | 00:00:00 | |
| DM0DOS-11 | 2026-08-31 07:48:59 | 53.05882 | 8.00842 | 1° | 15km/h | 20238m | 6.6m/s | -51.1°C | 3.5% | 55.8hPa | 2.6V | 08:30:00 | 01:13:28 | 00:00:00 | |
| BIOWL1-15 | 2026-08-31 07:48:57 | 53.05874 | 8.00843 | 345° | 13km/h | 20225m | 4.9m/s | -51°C | 0.3% | 55.9hPa | 2.7V | 18:12:15 | 01:13:26 | 00:00:00 | |
| DO2JMG | 2026-08-31 07:48:57 | 53.05881 | 8.00842 | 2° | 15km/h | 20238m | 6.6m/s | -51.1°C | 0.3% | 55.8hPa | 2.6V | 18:12:15 | 01:13:28 | 00:00:00 | |
| AA1-15 | 2026-08-31 07:48:56 | 53.05878 | 8.00842 | 359° | 15km/h | 20231m | 6.5m/s | -51°C | 0.3% | 55.8hPa | 2.6V | 18:12:15 | 01:13:27 | 00:00:00 | |
| DB0DAN | 2026-08-31 07:48:55 | 53.05874 | 8.00843 | 345° | 11km/h | 20225m | 4.9m/s | -51°C | 1% | 55.88hPa | 2.7V | 00:00:00 | 00:00:00 | 00:00:00 | |
| DN9WHV | 2026-08-31 07:48:54 | 53.05874 | 8.00843 | 346° | 13km/h | 20225m | 4.9m/s | -51.0°C | 1.0% | 55.9hPa | 2.6V | 00:00:00 | 00:00:00 | 00:00:00 | |
| DL1NUX | 2026-08-31 07:48:53 | 53.05867 | 8.00852 | 319° | 15km/h | 20206m | 7.5m/s | -50.9°C | 3.4% | 56hPa | 2.6V | 08:30:00 | 01:13:23 | 00:00:00 | |
| HSKMA3-T | 2026-08-31 07:48:53 | 53.05870 | 8.00848 | 310° | 13km/h | 20213m | 5.1m/s | -50.9°C | 0.2% | 56hPa | 2.6V | 18:12:15 | 01:13:24 | 00:00:00 | |
| DL1XH-west | 2026-08-31 07:48:50 | 53.05861 | 8.00860 | 326° | 16km/h | 20195m | 4.7m/s | -50.8°C | 0.2% | 56.1hPa | 2.7V | 18:12:15 | 01:13:21 | 00:00:00 | |
| DL1XH1-15 | 2026-08-31 07:48:50 | 53.05846 | 8.00867 | 21° | 11km/h | 20165m | 6m/s | -50.7°C | 3.4% | 56.4hPa | 2.6V | 08:30:00 | 01:13:16 | 00:00:00 | |
| DO2SHX-10 | 2026-08-31 07:48:49 | 53.05857 | 8.00864 | 322° | 16km/h | 20190m | 7.7m/s | -50.8°C | 3.4% | 56.2hPa | 2.7V | 00:00:00 | 01:13:20 | 00:00:00 | |
| DL1XH-15 | 2026-08-31 07:48:48 | 53.05842 | 8.00864 | 29° | 7km/h | 20154m | 4.4m/s | -50.6°C | 3.4% | 56.5hPa | 2.7V | 08:30:00 | 01:13:14 | 00:00:00 | |
| DF8AY | 2026-08-31 07:48:47 | 53.05848 | 8.00869 | 14° | 13km/h | 20171m | 5.7m/s | -50.7°C | 0.2% | 56.4hPa | 2.7V | 18:12:15 | 01:13:17 | 00:00:00 | |
| DO2JMG | 2026-08-31 07:48:47 | 53.05851 | 8.00869 | 351° | 13km/h | 20177m | 7.3m/s | -50.8°C | 0.3% | 56.3hPa | 2.7V | 18:12:15 | 01:13:18 | 00:00:00 | |
| AA1-15 | 2026-08-31 07:48:45 | 53.05845 | 8.00867 | 21° | 11km/h | 20165m | 6m/s | -50.7°C | 0.2% | 56.4hPa | 2.6V | 18:12:15 | 01:13:16 | 00:00:00 | |
| DD1CC8 | 2026-08-31 07:48:44 | 53.05843 | 8.00866 | 24° | 7km/h | 20159m | 6.7m/s | -50.7°C | 0.9% | 56.5hPa | 2.7V | 00:00:00 | 00:00:00 | 00:00:00 | |
| HSKMA3-T | 2026-08-31 07:48:42 | 53.05840 | 8.00863 | 34° | 7km/h | 20148m | 7m/s | -50.6°C | 0.2% | 56.6hPa | 2.7V | 18:12:15 | 01:13:13 | 00:00:00 | |
| DL4BBY-15 | 2026-08-31 07:48:41 | 53.05838 | 8.00861 | 20° | 11km/h | 20142m | 4.9m/s | -53.6°C | 0% | 0hPa | 2.7V | 00:00:00 | 00:00:00 | 00:00:00 | |
| DL1XH1-15 | 2026-08-31 07:48:40 | 53.05826 | 8.00875 | 344° | 13km/h | 20109m | 4.8m/s | -50.8°C | 3.3% | 56.9hPa | 2.7V | 08:30:00 | 01:13:06 | 00:00:00 | |
| DB0DAN | 2026-08-31 07:48:40 | 53.05837 | 8.00861 | 339° | 5km/h | 20137m | 6.4m/s | -50.7°C | 0.9% | 56.69hPa | 2.6V | 00:00:00 | 00:00:00 | 00:00:00 | |
| DL1XH-west | 2026-08-31 07:48:39 | 53.05836 | 8.00863 | 308° | 9km/h | 20130m | 6m/s | -50.7°C | 0.2% | 56.7hPa | 2.6V | 18:12:15 | 01:13:10 | 00:00:00 | |
| DJ2DS-15 | 2026-08-31 07:48:39 | 53.05836 | 8.00863 | 308° | 9km/h | 20131m | 5.9m/s | -50.6°C | 3.3% | 56.7hPa | 2.6V | 00:00:00 | 01:13:10 | 00:00:00 | |
| DL1XH-15 | 2026-08-31 07:48:38 | 53.05821 | 8.00877 | 7° | 5km/h | 20098m | 4.8m/s | -50.8°C | 3.3% | 57hPa | 2.6V | 08:30:00 | 01:13:04 | 00:00:00 | |
| DO2JMG | 2026-08-31 07:48:37 | 53.05832 | 8.00871 | 322° | 15km/h | 20119m | 6.4m/s | -50.7°C | 0.2% | 56.8hPa | 2.7V | 18:12:15 | 01:13:08 | 00:00:00 | |
| DF8AY | 2026-08-31 07:48:35 | 53.05826 | 8.00875 | 345° | 13km/h | 20109m | 4.8m/s | -50.8°C | 0.2% | 56.9hPa | 2.7V | 18:12:15 | 01:13:06 | 00:00:00 | |
| AA1-15 | 2026-08-31 07:48:34 | 53.05823 | 8.00877 | 345° | 9km/h | 20103m | 6.2m/s | -50.8°C | 0.2% | 56.9hPa | 2.6V | 18:12:15 | 01:13:05 | 00:00:00 | |
| HSKMA3-T | 2026-08-31 07:48:31 | 53.05818 | 8.00874 | 42° | 11km/h | 20088m | 6.5m/s | -50.9°C | 0.2% | 57.1hPa | 2.7V | 18:12:15 | 01:13:02 | 00:00:00 | |
| DL1XH-west | 2026-08-31 07:48:28 | 53.05813 | 8.00865 | 50° | 7km/h | 20070m | 5.8m/s | -51.2°C | 0.2% | 57.3hPa | 2.6V | 18:12:15 | 01:12:59 | 00:00:00 | |
| DO2JMG | 2026-08-31 07:48:26 | 53.05811 | 8.00862 | 31° | 5km/h | 20058m | 6.4m/s | -51.4°C | 0.1% | 57.4hPa | 2.6V | 18:12:15 | 01:12:57 | 00:00:00 | |
| DB0DAN | 2026-08-31 07:48:25 | 53.05810 | 8.00861 | 18° | 5km/h | 20053m | 4.9m/s | -51.6°C | 0.9% | 57.41hPa | 2.7V | 00:00:00 | 00:00:00 | 00:00:00 | |
| DF8AY | 2026-08-31 07:48:24 | 53.05809 | 8.00860 | 359° | 4km/h | 20047m | 6.2m/s | -51.6°C | 0.3% | 57.5hPa | 2.7V | 18:12:15 | 01:12:55 | 00:00:00 | |
| AA1-15 | 2026-08-31 07:48:23 | 53.05808 | 8.00860 | 11° | 2km/h | 20041m | 6.3m/s | -51.7°C | 0.3% | 57.5hPa | 2.7V | 18:12:15 | 01:12:54 | 00:00:00 | |
| DL1NUX | 2026-08-31 07:48:23 | 53.05808 | 8.00859 | 87° | 5km/h | 20036m | 3m/s | -51.6°C | 3.5% | 57.6hPa | 2.6V | 08:30:00 | 01:12:53 | 00:00:00 | |
| BIOWL1-15 | 2026-08-31 07:48:21 | 53.05808 | 8.00856 | 79° | 9km/h | 20031m | 6.7m/s | -51.7°C | 0.2% | 57.6hPa | 2.6V | 18:12:15 | 01:12:52 | 00:00:00 | |
| SO1NDE-10 | 2026-08-31 07:48:21 | 53.05808 | 8.00856 | 79° | 18km/h | 20032m | 6.7m/s | -51.7°C | 3.4% | 57.5hPa | 2.6V | 00:00:00 | 01:12:52 | 00:00:00 | |
| DL1XH1-15 | 2026-08-31 07:48:20 | 53.05799 | 8.00810 | 68° | 24km/h | 19996m | 4.7m/s | -52°C | 3.6% | 57.9hPa | 2.6V | 08:30:00 | 01:12:46 | 00:00:00 | |
| HSKMA3-T | 2026-08-31 07:48:20 | 53.05807 | 8.00851 | 75° | 16km/h | 20025m | 5.6m/s | -51.7°C | 0.3% | 57.7hPa | 2.6V | 18:12:15 | 01:12:51 | 00:00:00 | |
| GOEST3-10 | 2026-08-31 07:48:20 | 53.05807 | 8.00851 | 75° | 20km/h | 20026m | 5.6m/s | -51.7°C | 3.5% | 57.6hPa | 2.7V | 00:00:00 | 01:12:51 | 00:00:00 | |
| DJ2DS-15 | 2026-08-31 07:48:19 | 53.05806 | 8.00844 | 76° | 16km/h | 20020m | 6.3m/s | -51.7°C | 3.5% | 57.7hPa | 2.7V | 00:00:00 | 01:12:50 | 00:00:00 | |
| DL1XH-15 | 2026-08-31 07:48:18 | 53.05796 | 8.00794 | 78° | 18km/h | 19984m | 5.3m/s | -52.2°C | 3.7% | 58hPa | 2.7V | 08:30:00 | 01:12:44 | 00:00:00 | |
| DL1XH-west | 2026-08-31 07:48:18 | 53.05805 | 8.00836 | 77° | 18km/h | 20013m | 6.5m/s | -51.9°C | 0.4% | 57.8hPa | 2.7V | 18:12:15 | 01:12:49 | 00:00:00 | |
| DO2JMG | 2026-08-31 07:48:16 | 53.05802 | 8.00820 | 71° | 24km/h | 20002m | 7.4m/s | -51.9°C | 0.4% | 57.9hPa | 2.6V | 18:12:15 | 01:12:47 | 00:00:00 | |
| DF8AY | 2026-08-31 07:48:14 | 53.05798 | 8.00802 | 74° | 20km/h | 19990m | 6.5m/s | -52.2°C | 0.3% | 58hPa | 2.6V | 18:12:15 | 01:12:45 | 00:00:00 | |
| AA1-15 | 2026-08-31 07:48:12 | 53.05796 | 8.00787 | 77° | 16km/h | 19979m | 4.7m/s | -52.2°C | 0.5% | 58.1hPa | 2.7V | 18:12:15 | 01:12:43 | 00:00:00 | |
| BIOWL1-15 | 2026-08-31 07:48:11 | 53.05795 | 8.00780 | 75° | 16km/h | 19974m | 6.2m/s | -52.1°C | 0.4% | 58.1hPa | 2.7V | 18:12:15 | 01:12:42 | 00:00:00 | |
| DL4BBY-15 | 2026-08-31 07:48:11 | 53.05795 | 8.00780 | 75° | 18km/h | 19974m | 6.2m/s | -55.0°C | 0% | 0hPa | 2.7V | 00:00:00 | 00:00:00 | 00:00:00 | |
| DL1XH1-15 | 2026-08-31 07:48:10 | 53.05790 | 8.00738 | 71° | 18km/h | 19942m | 4.2m/s | -52.2°C | 3.7% | 58.4hPa | 2.7V | 08:30:00 | 01:12:36 | 00:00:00 | |
| DB0DAN | 2026-08-31 07:48:10 | 53.05793 | 8.00773 | 75° | 16km/h | 19969m | 4.6m/s | -52.1°C | 1% | 58.18hPa | 2.6V | 00:00:00 | 00:00:00 | 00:00:00 | |
| HSKMA3-T | 2026-08-31 07:48:09 | 53.05793 | 8.00766 | 84° | 16km/h | 19963m | 6.8m/s | -52.1°C | 0.4% | 58.2hPa | 2.6V | 18:12:15 | 01:12:40 | 00:00:00 | |
| DO2LYB-13 | 2026-08-31 07:48:09 | 53.05793 | 8.00773 | 76° | 18km/h | 19969m | 4.6m/s | -52.1°C | 1.1% | 58.2hPa | 2.6V | 00:00:00 | 00:00:00 | 00:00:00 | |
| DL1XH-15 | 2026-08-31 07:48:08 | 53.05789 | 8.00725 | 85° | 13km/h | 19931m | 5.7m/s | -52°C | 3.6% | 58.5hPa | 2.6V | 08:30:00 | 01:12:34 | 00:00:00 | |
| DL1XH-west | 2026-08-31 07:48:07 | 53.05792 | 8.00752 | 85° | 16km/h | 19952m | 4.8m/s | -52.1°C | 0.4% | 58.3hPa | 2.7V | 18:12:15 | 01:12:38 | 00:00:00 | |
| DO2JMG | 2026-08-31 07:48:05 | 53.05790 | 8.00738 | 71° | 18km/h | 19942m | 4.2m/s | -52.2°C | 0.4% | 58.4hPa | 2.7V | 18:12:15 | 01:12:36 | 00:00:00 | |
| DF8AY | 2026-08-31 07:48:03 | 53.05789 | 8.00725 | 85° | 13km/h | 19931m | 5.7m/s | -52°C | 0.4% | 58.5hPa | 2.6V | 18:12:15 | 01:12:34 | 00:00:00 | |
| DL1NUX | 2026-08-31 07:48:03 | 53.05788 | 8.00720 | 80° | 11km/h | 19925m | 5m/s | -52°C | 3.6% | 58.5hPa | 2.6V | 08:30:00 | 01:12:33 | 00:00:00 | |
| BIOWL1-15 | 2026-08-31 07:48:02 | 53.05786 | 8.00713 | 55° | 9km/h | 19913m | 4.9m/s | -51.9°C | 0.3% | 58.7hPa | 2.7V | 18:12:15 | 01:12:31 | 00:00:00 | |
| AA1-15 | 2026-08-31 07:48:01 | 53.05788 | 8.00716 | 65° | 9km/h | 19919m | 6.9m/s | -52°C | 0.3% | 58.6hPa | 2.7V | 18:12:15 | 01:12:32 | 00:00:00 | |
| DM0DOS-11 | 2026-08-31 07:48:01 | 53.05783 | 8.00690 | 74° | 20km/h | 19892m | 6.6m/s | -51.9°C | 3.6% | 58.9hPa | 2.6V | 08:30:00 | 01:12:27 | 00:00:00 | |
| DL1XH1-15 | 2026-08-31 07:48:00 | 53.05781 | 8.00681 | 66° | 26km/h | 19885m | 5.7m/s | -51.9°C | 3.6% | 58.9hPa | 2.7V | 08:30:00 | 01:12:26 | 00:00:00 | |
| HSKMA3-T | 2026-08-31 07:47:58 | 53.05784 | 8.00704 | 81° | 13km/h | 19902m | 5.2m/s | -51.9°C | 0.4% | 58.8hPa | 2.6V | 18:12:15 | 01:12:29 | 00:00:00 | |
| DL1XH-west | 2026-08-31 07:47:56 | 53.05783 | 8.00690 | 74° | 20km/h | 19892m | 6.6m/s | -51.9°C | 0.4% | 58.9hPa | 2.6V | 18:12:15 | 01:12:27 | 00:00:00 | |
| DB0DAN | 2026-08-31 07:47:55 | 53.05781 | 8.00681 | 67° | 24km/h | 19885m | 5.7m/s | -51.9°C | 1% | 58.93hPa | 2.7V | 00:00:00 | 00:00:00 | 00:00:00 | |
| DO2JMG | 2026-08-31 07:47:55 | 53.05781 | 8.00681 | 67° | 26km/h | 19885m | 5.7m/s | -51.9°C | 0.4% | 58.9hPa | 2.7V | 18:12:15 | 01:12:26 | 00:00:00 | |
| DF8AY | 2026-08-31 07:47:52 | 53.05773 | 8.00650 | 76° | 24km/h | 19870m | 6.2m/s | -51.9°C | 0.4% | 59.1hPa | 2.6V | 18:12:15 | 01:12:23 | 00:00:00 | |
| AA1-15 | 2026-08-31 07:47:51 | 53.05772 | 8.00641 | 82° | 18km/h | 19864m | 3.9m/s | -51.9°C | 0.3% | 59.1hPa | 2.6V | 18:12:15 | 01:12:22 | 00:00:00 | |
| SO1NDE-10 | 2026-08-31 07:47:51 | 53.05772 | 8.00641 | 82° | 22km/h | 19865m | 3.9m/s | -51.8°C | 3.5% | 59.1hPa | 2.6V | 00:00:00 | 01:12:22 | 08:30:00 | |
| DL1XH1-15 | 2026-08-31 07:47:50 | 53.05763 | 8.00612 | 50° | 18km/h | 19831m | 7.2m/s | -52.1°C | 3.4% | 59.4hPa | 2.6V | 08:30:00 | 01:12:16 | 00:00:00 | |
| HSKMA3-T | 2026-08-31 07:47:48 | 53.05768 | 8.00625 | 53° | 11km/h | 19847m | 5m/s | -52°C | 0.3% | 59.3hPa | 2.7V | 18:12:15 | 01:12:19 | 00:00:00 | |
| DL1XH-west | 2026-08-31 07:47:45 | 53.05763 | 8.00612 | 50° | 18km/h | 19831m | 7.2m/s | -52.1°C | 0.2% | 59.4hPa | 2.6V | 18:12:15 | 01:12:16 | 00:00:00 | |
| DO2JMG | 2026-08-31 07:47:44 | 53.05760 | 8.00605 | 54° | 27km/h | 19825m | 5.3m/s | -52.1°C | 0.2% | 59.5hPa | 2.6V | 18:12:15 | 01:12:15 | 00:00:00 | |
| AA1-15 | 2026-08-31 07:47:41 | 53.05748 | 8.00567 | 68° | 40km/h | 19807m | 4.5m/s | -52.2°C | 0.4% | 59.6hPa | 2.7V | 18:12:15 | 01:12:12 | 00:00:00 | |
| DB0DAN | 2026-08-31 07:47:40 | 53.05744 | 8.00552 | 65° | 38km/h | 19802m | 6.7m/s | -52.2°C | 1% | 59.7hPa | 2.6V | 00:00:00 | 00:00:00 | 00:00:00 | |
| BIOWL1-15 | 2026-08-31 07:47:39 | 53.05732 | 8.00512 | 64° | 27km/h | 19785m | 5.7m/s | -52.6°C | 0.5% | 59.9hPa | 2.7V | 18:12:15 | 01:12:08 | 00:00:00 | |
| HSKMA3-T | 2026-08-31 07:47:38 | 53.05735 | 8.00523 | 63° | 33km/h | 19791m | 5.6m/s | -52.4°C | 0.4% | 59.8hPa | 2.6V | 18:12:15 | 01:12:09 | 00:00:00 | |
| DL1XH-west | 2026-08-31 07:47:35 | 53.05726 | 8.00496 | 48° | 20km/h | 19775m | 6m/s | -52.8°C | 0.5% | 59.9hPa | 2.7V | 18:12:15 | 01:12:06 | 00:00:00 | |
| DO2JMG | 2026-08-31 07:47:34 | 53.05722 | 8.00491 | 34° | 20km/h | 19769m | 5.8m/s | -52.8°C | 0.5% | 60hPa | 2.6V | 18:12:15 | 01:12:05 | 00:00:00 | |
| DF8AY | 2026-08-31 07:47:31 | 53.05709 | 8.00474 | 53° | 24km/h | 19754m | 5.7m/s | -52.8°C | 0.4% | 60.1hPa | 2.7V | 18:12:15 | 01:12:02 | 00:00:00 | |
| DL1XH1-15 | 2026-08-31 07:47:30 | 53.05685 | 8.00399 | 67° | 31km/h | 19722m | 4.5m/s | -52.6°C | 3.8% | 60.5hPa | 2.7V | 08:30:00 | 01:11:56 | 00:00:00 | |
| AA1-15 | 2026-08-31 07:47:30 | 53.05706 | 8.00464 | 61° | 29km/h | 19748m | 4.9m/s | -52.8°C | 0.4% | 60.2hPa | 2.7V | 18:12:15 | 01:12:01 | 00:00:00 | |
| BIOWL1-15 | 2026-08-31 07:47:28 | 53.05697 | 8.00439 | 61° | 38km/h | 19737m | 5m/s | -52.7°C | 0.5% | 60.3hPa | 2.6V | 18:12:15 | 01:11:59 | 00:00:00 | |
| HSKMA3-T | 2026-08-31 07:47:27 | 53.05692 | 8.00425 | 62° | 38km/h | 19732m | 4.2m/s | -52.6°C | 0.5% | 60.4hPa | 2.6V | 18:12:15 | 01:11:58 | 00:00:00 | |
| DK5PH-5 | 2026-08-31 07:47:27 | 53.05692 | 8.00425 | 63° | 26km/h | 19732m | 4.1m/s | -52.6°C | 3.8% | 60.3hPa | 2.6V | 00:00:00 | 01:11:58 | 00:00:00 | |
| DN9WHV | 2026-08-31 07:47:26 | 53.05692 | 8.00425 | 63° | 38km/h | 19732m | 4.2m/s | -52.6°C | 1.1% | 60.3hPa | 2.7V | 00:00:00 | 00:00:00 | 00:00:00 | |
| DB0DAN | 2026-08-31 07:47:25 | 53.05685 | 8.00399 | 68° | 29km/h | 19722m | 4.5m/s | -52.6°C | 1.1% | 60.45hPa | 2.7V | 00:00:00 | 00:00:00 | 00:00:00 | |
| DL1XH-west | 2026-08-31 07:47:24 | 53.05682 | 8.00388 | 63° | 27km/h | 19717m | 5.8m/s | -52.7°C | 0.5% | 60.5hPa | 2.6V | 18:12:15 | 01:11:55 | 00:00:00 | |
| DL1NUX | 2026-08-31 07:47:23 | 53.05676 | 8.00371 | 53° | 20km/h | 19705m | 6.4m/s | -52.6°C | 3.7% | 60.6hPa | 2.7V | 08:30:00 | 01:11:53 | 00:00:00 | |
| DO2JMG | 2026-08-31 07:47:23 | 53.05679 | 8.00378 | 56° | 24km/h | 19711m | 5.7m/s | -52.6°C | 0.5% | 60.6hPa | 2.6V | 18:12:15 | 01:11:54 | 00:00:00 | |
| DF8AY | 2026-08-31 07:47:20 | 53.05671 | 8.00360 | 52° | 15km/h | 19694m | 4.1m/s | -52.7°C | 0.3% | 60.7hPa | 2.6V | 18:12:15 | 01:11:51 | 00:00:00 | |
| DL1XH1-15 | 2026-08-31 07:47:20 | 53.05652 | 8.00329 | 53° | 22km/h | 19668m | 5m/s | -52.8°C | 3.7% | 61hPa | 2.6V | 08:30:00 | 01:11:46 | 00:00:00 | |
| AA1-15 | 2026-08-31 07:47:19 | 53.05668 | 8.00355 | 43° | 16km/h | 19689m | 5.9m/s | -52.6°C | 0.4% | 60.8hPa | 2.6V | 18:12:15 | 01:11:50 | 00:00:00 | |
| HSKMA3-T | 2026-08-31 07:47:17 | 53.05660 | 8.00343 | 40° | 24km/h | 19678m | 4.7m/s | -52.7°C | 0.4% | 60.9hPa | 2.7V | 18:12:15 | 01:11:48 | 00:00:00 | |
| DO2JMG | 2026-08-31 07:47:13 | 53.05646 | 8.00312 | 65° | 27km/h | 19657m | 6.6m/s | -52.8°C | 0.4% | 61hPa | 2.7V | 18:12:15 | 01:11:44 | 00:00:00 | |
| DO2SHX-10 | 2026-08-31 07:47:13 | 53.05646 | 8.00312 | 66° | 27km/h | 19657m | 6.6m/s | -52.7°C | 3.7% | 61.0hPa | 2.6V | 00:00:00 | 01:11:44 | 00:00:00 | |
| DN9WHV | 2026-08-31 07:47:12 | 53.05646 | 8.00312 | 66° | 27km/h | 19657m | 6.6m/s | -52.8°C | 1.0% | 61.1hPa | 2.6V | 00:00:00 | 00:00:00 | 00:00:00 | |
| DM0DOS-11 | 2026-08-31 07:47:11 | 53.05635 | 8.00239 | 62° | 26km/h | 19619m | 5.4m/s | -52.8°C | 3.8% | 61.4hPa | 2.6V | 08:30:00 | 01:11:37 | 00:00:00 | |
| DB0DAN | 2026-08-31 07:47:10 | 53.05640 | 8.00277 | 82° | 26km/h | 19642m | 6.8m/s | -52.8°C | 1.1% | 61.2hPa | 2.7V | 00:00:00 | 00:00:00 | 00:00:00 | |
| DF8AY | 2026-08-31 07:47:10 | 53.05640 | 8.00277 | 82° | 26km/h | 19642m | 6.8m/s | -52.8°C | 0.5% | 61.2hPa | 2.7V | 18:12:15 | 01:11:41 | 00:00:00 | |
| GOEST3-10 | 2026-08-31 07:47:10 | 53.05640 | 8.00277 | 83° | 35km/h | 19642m | 6.8m/s | -52.8°C | 3.8% | 61.1hPa | 2.7V | 00:00:00 | 00:00:00 | 00:00:00 | |
| DO2SHX-10 | 2026-08-31 07:47:09 | 53.05639 | 8.00267 | 87° | 22km/h | 19636m | 4.5m/s | -52.8°C | 3.8% | 61.2hPa | 2.7V | 00:00:00 | 01:11:40 | 08:30:00 | |
| DL1XH-15 | 2026-08-31 07:47:08 | 53.05622 | 8.00211 | 52° | 33km/h | 19602m | 5.7m/s | -52.7°C | 3.9% | 61.6hPa | 2.7V | 08:30:00 | 01:11:34 | 00:00:00 | |
| AA1-15 | 2026-08-31 07:47:08 | 53.05639 | 8.00258 | 82° | 22km/h | 19631m | 5m/s | -52.8°C | 0.5% | 61.3hPa | 2.7V | 18:12:15 | 01:11:39 | 00:00:00 | |
| BIOWL1-15 | 2026-08-31 07:47:07 | 53.05637 | 8.00248 | 73° | 24km/h | 19625m | 6.5m/s | -52.8°C | 0.5% | 61.3hPa | 2.6V | 18:12:15 | 01:11:38 | 00:00:00 | |
| DN9WHV | 2026-08-31 07:47:06 | 53.05635 | 8.00239 | 63° | 26km/h | 19620m | 5.4m/s | -52.8°C | 1.1% | 61.4hPa | 2.6V | 00:00:00 | 00:00:00 | 00:00:00 | |
| DJ2DS-15 | 2026-08-31 07:47:04 | 53.05623 | 8.00211 | 52° | 33km/h | 19602m | 5.7m/s | -52.7°C | 1.1% | 61.6hPa | 2.6V | 00:00:00 | 00:00:00 | 00:00:00 | |
| DL1NUX | 2026-08-31 07:47:03 | 53.05603 | 8.00158 | 59° | 33km/h | 19580m | 5.9m/s | -52.5°C | 3.7% | 61.8hPa | 2.6V | 08:30:00 | 01:11:30 | 00:00:00 | |
| DO2JMG | 2026-08-31 07:47:02 | 53.05617 | 8.00199 | 56° | 38km/h | 19596m | 6.7m/s | -52.6°C | 0.5% | 61.6hPa | 2.7V | 18:12:15 | 01:11:33 | 00:00:00 | |
| DN9WHV | 2026-08-31 07:47:01 | 53.05618 | 8.00199 | 57° | 38km/h | 19596m | 6.7m/s | -52.6°C | 1.1% | 61.6hPa | 2.6V | 00:00:00 | 00:00:00 | 00:00:00 | |
| DL1XH1-15 | 2026-08-31 07:47:00 | 53.05586 | 8.00128 | 40° | 18km/h | 19558m | 4.9m/s | -52.4°C | 3.6% | 62hPa | 2.6V | 08:30:00 | 01:11:26 | 00:00:00 | |
| DF8AY | 2026-08-31 07:47:00 | 53.05607 | 8.00171 | 61° | 38km/h | 19586m | 5.2m/s | -52.5°C | 0.5% | 61.8hPa | 2.6V | 18:12:15 | 01:11:31 | 00:00:00 | |
| DB0NH | 2026-08-31 07:47:00 | 53.05607 | 8.00171 | 61° | 29km/h | 19586m | 5.1m/s | -52.5°C | 3.8% | 61.7hPa | 2.6V | 00:00:00 | 01:11:31 | 00:00:00 | |
| DO9LL-15 | 2026-08-31 07:46:59 | 53.05603 | 8.00158 | 60° | 33km/h | 19580m | 5.8m/s | -52.5°C | 3.7% | 61.8hPa | 2.6V | 00:00:00 | 01:11:30 | 08:30:00 | |
| DL1XH-15 | 2026-08-31 07:46:58 | 53.05580 | 8.00118 | 47° | 16km/h | 19547m | 4.1m/s | -52.5°C | 3.6% | 62.1hPa | 2.6V | 08:30:00 | 01:11:24 | 00:00:00 | |
| AA1-15 | 2026-08-31 07:46:57 | 53.05595 | 8.00140 | 44° | 24km/h | 19569m | 6.5m/s | -52.6°C | 0.5% | 61.9hPa | 2.7V | 18:12:15 | 01:11:28 | 00:00:00 | |
| BIOWL1-15 | 2026-08-31 07:46:56 | 53.05583 | 8.00123 | 47° | 16km/h | 19552m | 6m/s | -52.4°C | 0.3% | 62.1hPa | 2.6V | 18:12:15 | 01:11:25 | 00:00:00 | |
| HSKMA3-T | 2026-08-31 07:46:56 | 53.05590 | 8.00134 | 39° | 22km/h | 19563m | 5.6m/s | -52.6°C | 0.4% | 62hPa | 2.7V | 18:12:15 | 01:11:27 | 00:00:00 | |
| DB0DAN | 2026-08-31 07:46:55 | 53.05586 | 8.00128 | 41° | 18km/h | 19558m | 4.9m/s | -52.4°C | 1% | 62.02hPa | 2.6V | 00:00:00 | 00:00:00 | 00:00:00 | |
| GOEST3-10 | 2026-08-31 07:46:54 | 53.05583 | 8.00123 | 48° | 22km/h | 19553m | 6.0m/s | -52.3°C | 3.6% | 62.0hPa | 2.6V | 00:00:00 | 00:00:00 | 00:00:00 | |
| DL1NUX | 2026-08-31 07:46:53 | 53.05560 | 8.00090 | 42° | 35km/h | 19526m | 5.8m/s | -52.1°C | 3.7% | 62.3hPa | 2.6V | 08:30:00 | 01:11:20 | 00:00:00 | |
| DL1XH-west | 2026-08-31 07:46:52 | 53.05577 | 8.00113 | 43° | 20km/h | 19542m | 5.6m/s | -52.4°C | 0.4% | 62.1hPa | 2.7V | 18:12:15 | 01:11:23 | 00:00:00 | |
| DO2JMG | 2026-08-31 07:46:51 | 53.05572 | 8.00106 | 38° | 26km/h | 19536m | 6m/s | -52.3°C | 0.5% | 62.2hPa | 2.7V | 18:12:15 | 01:11:22 | 00:00:00 | |
| DF8AY | 2026-08-31 07:46:49 | 53.05560 | 8.00090 | 42° | 35km/h | 19526m | 5.8m/s | -52.1°C | 0.4% | 62.3hPa | 2.6V | 18:12:15 | 01:11:20 | 00:00:00 | |
| GOEST3-10 | 2026-08-31 07:46:49 | 53.05560 | 8.00090 | 43° | 37km/h | 19526m | 5.7m/s | -52.1°C | 3.7% | 62.3hPa | 2.6V | 00:00:00 | 01:11:20 | 00:00:00 | |
| DL1XH-15 | 2026-08-31 07:46:48 | 53.05524 | 8.00022 | 44° | 31km/h | 19492m | 6.9m/s | -51.9°C | 3.6% | 62.6hPa | 2.6V | 08:30:00 | 01:11:14 | 00:00:00 | |
| AA1-15 | 2026-08-31 07:46:46 | 53.05543 | 8.00055 | 52° | 37km/h | 19510m | 5m/s | -52°C | 0.4% | 62.5hPa | 2.7V | 18:12:15 | 01:11:17 | 00:00:00 | |
| BIOWL1-15 | 2026-08-31 07:46:45 | 53.05537 | 8.00043 | 48° | 38km/h | 19504m | 6.9m/s | -52.1°C | 0.5% | 62.5hPa | 2.7V | 18:12:15 | 01:11:16 | 00:00:00 | |
| DL1XH-west | 2026-08-31 07:46:41 | 53.05515 | 8.00005 | 46° | 26km/h | 19480m | 5.2m/s | -52.1°C | 0.4% | 62.8hPa | 2.6V | 18:12:15 | 01:11:12 | 00:00:00 | |
| DM0DOS-11 | 2026-08-31 07:46:41 | 53.05488 | 7.99961 | 48° | 35km/h | 19453m | 3.9m/s | -52°C | 3.6% | 63.1hPa | 2.6V | 08:30:00 | 01:11:07 | 00:00:00 | |
| DO2JMG | 2026-08-31 07:46:40 | 53.05510 | 7.99998 | 42° | 27km/h | 19474m | 6.5m/s | -52°C | 0.4% | 62.8hPa | 2.7V | 18:12:15 | 01:11:11 | 00:00:00 | |
| DB0DAN | 2026-08-31 07:46:40 | 53.05510 | 7.99998 | 42° | 27km/h | 19474m | 6.5m/s | -52°C | 1% | 62.84hPa | 2.7V | 00:00:00 | 00:00:00 | 00:00:00 | |
| DF8AY | 2026-08-31 07:46:38 | 53.05499 | 7.99981 | 45° | 31km/h | 19463m | 5.8m/s | -52°C | 0.3% | 63hPa | 2.7V | 18:12:15 | 01:11:09 | 00:00:00 | |
| AA1-15 | 2026-08-31 07:46:35 | 53.05482 | 7.99950 | 45° | 37km/h | 19447m | 6.7m/s | -51.9°C | 0.4% | 63.1hPa | 2.6V | 18:12:15 | 01:11:06 | 00:00:00 | |
| BIOWL1-15 | 2026-08-31 07:46:34 | 53.05457 | 7.99918 | 36° | 42km/h | 19430m | 6.4m/s | -51.8°C | 0.4% | 63.3hPa | 2.7V | 18:12:15 | 01:11:03 | 00:00:00 | |
| HSKMA3-T | 2026-08-31 07:46:34 | 53.05474 | 7.99939 | 39° | 42km/h | 19441m | 6m/s | -51.9°C | 0.3% | 63.2hPa | 2.7V | 18:12:15 | 01:11:05 | 00:00:00 | |
| DO2SHX-10 | 2026-08-31 07:46:34 | 53.05474 | 7.99939 | 40° | 40km/h | 19441m | 5.9m/s | -51.8°C | 3.6% | 63.1hPa | 2.6V | 00:00:00 | 01:11:05 | 00:00:00 | |
| HTAHTA | 2026-08-31 07:46:33 | 53.05466 | 7.99928 | 35° | 42km/h | 19436m | 4.9m/s | -51.9°C | 1.0% | 63.2hPa | 2.6V | 00:00:00 | 00:00:00 | 00:00:00 | |
| DN9WHV | 2026-08-31 07:46:32 | 53.05466 | 7.99928 | 37° | 44km/h | 19436m | 4.9m/s | -51.9°C | 1.0% | 63.2hPa | 2.6V | 00:00:00 | 00:00:00 | 00:00:00 | |
| DM0DOS-11 | 2026-08-31 07:46:31 | 53.05413 | 7.99851 | 45° | 40km/h | 19396m | 6.2m/s | -51.5°C | 3.5% | 63.6hPa | 2.6V | 08:30:00 | 01:10:57 | 00:00:00 | |
| DL1XH-west | 2026-08-31 07:46:30 | 53.05442 | 7.99898 | 42° | 37km/h | 19418m | 4.7m/s | -51.7°C | 0.3% | 63.4hPa | 2.6V | 18:12:15 | 01:11:01 | 00:00:00 | |
| DL1XH1-15 | 2026-08-31 07:46:30 | 53.05405 | 7.99839 | 43° | 40km/h | 19390m | 5.3m/s | -51.4°C | 3.5% | 63.6hPa | 2.7V | 08:30:00 | 01:10:56 | 00:00:00 | |
| DO2JMG | 2026-08-31 07:46:29 | 53.05435 | 7.99888 | 43° | 38km/h | 19412m | 6.7m/s | -51.7°C | 0.3% | 63.5hPa | 2.7V | 18:12:15 | 01:11:00 | 00:00:00 | |
| DF8AY | 2026-08-31 07:46:28 | 53.05428 | 7.99876 | 44° | 42km/h | 19407m | 4.9m/s | -51.6°C | 0.3% | 63.5hPa | 2.7V | 18:12:15 | 01:10:59 | 00:00:00 | |
| AA1-15 | 2026-08-31 07:46:25 | 53.05406 | 7.99839 | 43° | 40km/h | 19390m | 5.3m/s | -51.4°C | 0.3% | 63.6hPa | 2.7V | 18:12:15 | 01:10:56 | 00:00:00 | |
| DB0DAN | 2026-08-31 07:46:25 | 53.05406 | 7.99839 | 43° | 38km/h | 19390m | 5.3m/s | -51.4°C | 1% | 63.65hPa | 2.7V | 00:00:00 | 00:00:00 | 00:00:00 | |
| BIOWL1-15 | 2026-08-31 07:46:24 | 53.05398 | 7.99828 | 39° | 42km/h | 19385m | 6.7m/s | -51.4°C | 0.3% | 63.7hPa | 2.7V | 18:12:15 | 01:10:55 | 00:00:00 | |
| HSKMA3-T | 2026-08-31 07:46:23 | 53.05389 | 7.99817 | 34° | 44km/h | 19379m | 5.1m/s | -51.4°C | 0.3% | 63.8hPa | 2.6V | 18:12:15 | 01:10:54 | 00:00:00 | |
| SONDE2-11 | 2026-08-31 07:46:22 | 53.05379 | 7.99807 | 32° | 44km/h | 19374m | 4.1m/s | -51.3°C | 1.0% | 63.8hPa | 2.7V | 00:00:00 | 00:00:00 | 00:00:00 | |
| DM0DOS-11 | 2026-08-31 07:46:21 | 53.05331 | 7.99743 | 43° | 37km/h | 19340m | 7.2m/s | -51.5°C | 3.5% | 64.1hPa | 2.7V | 08:30:00 | 01:10:47 | 00:00:00 | |
| DO2SHX-10 | 2026-08-31 07:46:21 | 53.05370 | 7.99797 | 36° | 42km/h | 19369m | 6.4m/s | -51.3°C | 3.4% | 63.8hPa | 2.7V | 00:00:00 | 01:10:52 | 00:00:00 | |
| DL1XH1-15 | 2026-08-31 07:46:20 | 53.05325 | 7.99732 | 47° | 35km/h | 19334m | 5.3m/s | -51.6°C | 3.5% | 64.2hPa | 2.7V | 08:30:00 | 01:10:46 | 00:00:00 | |
| DL1XH-west | 2026-08-31 07:46:19 | 53.05354 | 7.99776 | 40° | 40km/h | 19358m | 5.5m/s | -51.3°C | 0.3% | 64hPa | 2.6V | 18:12:15 | 01:10:50 | 00:00:00 | |
| DJ2DS-15 | 2026-08-31 07:46:19 | 53.05354 | 7.99775 | 40° | 35km/h | 19358m | 5.4m/s | -51.3°C | 3.4% | 63.9hPa | 2.6V | 00:00:00 | 01:10:50 | 00:00:00 | |
| DL1XH-15 | 2026-08-31 07:46:18 | 53.05313 | 7.99711 | 44° | 37km/h | 19323m | 6.6m/s | -51.6°C | 3.6% | 64.3hPa | 2.6V | 08:30:00 | 01:10:44 | 00:00:00 | |
| DO2JMG | 2026-08-31 07:46:18 | 53.05346 | 7.99765 | 40° | 40km/h | 19352m | 6.2m/s | -51.4°C | 0.3% | 64hPa | 2.6V | 18:12:15 | 01:10:49 | 00:00:00 | |
| DF8AY | 2026-08-31 07:46:17 | 53.05338 | 7.99754 | 40° | 40km/h | 19347m | 4.9m/s | -51.5°C | 0.3% | 64.1hPa | 2.7V | 18:12:15 | 01:10:48 | 00:00:00 | |
| AA1-15 | 2026-08-31 07:46:14 | 53.05319 | 7.99722 | 47° | 35km/h | 19329m | 5m/s | -51.6°C | 0.3% | 64.3hPa | 2.6V | 18:12:15 | 01:10:45 | 00:00:00 | |
| BIOWL1-15 | 2026-08-31 07:46:13 | 53.05300 | 7.99690 | 42° | 35km/h | 19312m | 6.1m/s | -51.6°C | 0.3% | 64.4hPa | 2.7V | 18:12:15 | 01:10:42 | 00:00:00 | |
| HSKMA3-T | 2026-08-31 07:46:13 | 53.05313 | 7.99711 | 45° | 37km/h | 19323m | 6.6m/s | -51.6°C | 0.4% | 64.3hPa | 2.6V | 18:12:15 | 01:10:44 | 00:00:00 | |
| DL1NUX | 2026-08-31 07:46:13 | 53.05288 | 7.99673 | 37° | 29km/h | 19300m | 5.5m/s | -51.5°C | 3.5% | 64.5hPa | 2.7V | 08:30:00 | 01:10:40 | 00:00:00 | |
| DO2SHX-10 | 2026-08-31 07:46:12 | 53.05306 | 7.99700 | 43° | 35km/h | 19318m | 4.7m/s | -51.5°C | 3.6% | 64.3hPa | 2.7V | 00:00:00 | 01:10:43 | 00:00:00 | |
| DL4BBY-15 | 2026-08-31 07:46:11 | 53.05299 | 7.99690 | 43° | 35km/h | 19312m | 6.1m/s | -54.5°C | 0% | 0hPa | 2.7V | 00:00:00 | 00:00:00 | 00:00:00 | |
| DL1XH1-15 | 2026-08-31 07:46:10 | 53.05260 | 7.99643 | 34° | 33km/h | 19278m | 6.6m/s | -51.4°C | 3.5% | 64.8hPa | 2.7V | 08:30:00 | 01:10:36 | 00:00:00 | |
| DB0DAN | 2026-08-31 07:46:10 | 53.05293 | 7.99681 | 40° | 29km/h | 19306m | 6.2m/s | -51.6°C | 1% | 64.47hPa | 2.7V | 00:00:00 | 00:00:00 | 00:00:00 | |
| DO2JMG | 2026-08-31 07:46:08 | 53.05281 | 7.99666 | 34° | 33km/h | 19294m | 7.2m/s | -51.5°C | 0.3% | 64.6hPa | 2.6V | 18:12:15 | 01:10:39 | 00:00:00 | |
| DF8AY | 2026-08-31 07:46:07 | 53.05274 | 7.99658 | 32° | 35km/h | 19288m | 4.6m/s | -51.4°C | 0.3% | 64.7hPa | 2.6V | 18:12:15 | 01:10:38 | 00:00:00 | |
| AA1-15 | 2026-08-31 07:46:03 | 53.05246 | 7.99628 | 30° | 35km/h | 19268m | 3.8m/s | -51.3°C | 0.3% | 64.8hPa | 2.7V | 18:12:15 | 01:10:34 | 00:00:00 | |
| DL1NUX | 2026-08-31 07:46:03 | 53.05211 | 7.99600 | 25° | 38km/h | 19244m | 6.2m/s | -51.5°C | 3.6% | 65.1hPa | 2.7V | 08:30:00 | 01:10:30 | 00:00:00 | |
| HSKMA3-T | 2026-08-31 07:46:02 | 53.05238 | 7.99621 | 28° | 38km/h | 19262m | 6.9m/s | -51.4°C | 0.2% | 64.9hPa | 2.6V | 18:12:15 | 01:10:33 | 00:00:00 | |
| BIOWL1-15 | 2026-08-31 07:46:01 | 53.05229 | 7.99614 | 26° | 40km/h | 19256m | 5.3m/s | -51.3°C | 0.3% | 65hPa | 2.6V | 18:12:15 | 01:10:32 | 00:00:00 | |
| DL1XH1-15 | 2026-08-31 07:46:00 | 53.05176 | 7.99570 | 25° | 37km/h | 19223m | 6.4m/s | -51.5°C | 3.5% | 65.3hPa | 2.6V | 08:30:00 | 01:10:26 | 00:00:00 | |
| DM0DOS-11 | 2026-08-31 07:46:00 | 53.05185 | 7.99577 | 26° | 40km/h | 19228m | 4.4m/s | -51.5°C | 3.5% | 65.3hPa | 2.6V | 08:30:00 | 01:10:27 | 00:00:00 | |
| DO2SHX-10 | 2026-08-31 07:46:00 | 53.05220 | 7.99606 | 25° | 38km/h | 19251m | 6.0m/s | -51.4°C | 3.5% | 65.0hPa | 2.6V | 00:00:00 | 01:10:31 | 00:00:00 | |
| DJ2DS-15 | 2026-08-31 07:45:59 | 53.05211 | 7.99599 | 26° | 37km/h | 19245m | 6.1m/s | -51.5°C | 3.6% | 65.1hPa | 2.7V | 00:00:00 | 01:10:30 | 00:00:00 | |
| DL1XH-15 | 2026-08-31 07:45:58 | 53.05160 | 7.99558 | 23° | 35km/h | 19210m | 6.5m/s | -51.4°C | 3.5% | 65.4hPa | 2.7V | 08:30:00 | 01:10:24 | 00:00:00 | |
| DO2JMG | 2026-08-31 07:45:58 | 53.05203 | 7.99592 | 28° | 38km/h | 19239m | 4.5m/s | -51.5°C | 0.3% | 65.2hPa | 2.7V | 18:12:15 | 01:10:29 | 00:00:00 | |
| DF8AY | 2026-08-31 07:45:57 | 53.05185 | 7.99577 | 27° | 40km/h | 19228m | 4.4m/s | -51.5°C | 0.3% | 65.3hPa | 2.6V | 18:12:15 | 01:10:27 | 00:00:00 | |
| D01LWL | 2026-08-31 07:45:56 | 53.05168 | 7.99564 | 23° | 33km/h | 19217m | 6.1m/s | -51.5°C | 1.0% | 65.4hPa | 2.6V | 00:00:00 | 00:00:00 | 00:00:00 | |
| DB0DAN | 2026-08-31 07:45:55 | 53.05176 | 7.99570 | 26° | 35km/h | 19223m | 6.4m/s | -51.5°C | 1% | 65.32hPa | 2.6V | 00:00:00 | 00:00:00 | 00:00:00 | |
| MET0W-2 | 2026-08-31 07:45:55 | 53.05168 | 7.99564 | 23° | 33km/h | 19217m | 6.1m/s | -51.5°C | 1.0% | 65.4hPa | 2.6V | 00:00:00 | 00:00:00 | 00:00:00 | |
| DO2SHX-10 | 2026-08-31 07:45:54 | 53.05168 | 7.99564 | 24° | 35km/h | 19217m | 6.0m/s | -51.4°C | 3.5% | 65.4hPa | 2.6V | 00:00:00 | 01:10:25 | 00:00:00 | |
| DL1NUX | 2026-08-31 07:45:53 | 53.05128 | 7.99535 | 26° | 31km/h | 19188m | 5.4m/s | -51.5°C | 3.6% | 65.7hPa | 2.6V | 08:30:00 | 01:10:20 | 00:00:00 | |
| HSKMA3-T | 2026-08-31 07:45:52 | 53.05152 | 7.99552 | 23° | 37km/h | 19205m | 5.4m/s | -51.5°C | 0.3% | 65.5hPa | 2.7V | 18:12:15 | 01:10:23 | 00:00:00 | |
| BIOWL1-15 | 2026-08-31 07:45:50 | 53.05136 | 7.99541 | 24° | 33km/h | 19194m | 6.8m/s | -51.5°C | 0.3% | 65.6hPa | 2.6V | 18:12:15 | 01:10:21 | 00:00:00 | |
| DL8OAI-8 | 2026-08-31 07:45:49 | 53.05136 | 7.99541 | 25° | 33km/h | 19194m | 6.8m/s | -51.5°C | 1.0% | 65.6hPa | 2.6V | 00:00:00 | 00:00:00 | 00:00:00 | |
| DL1XH-15 | 2026-08-31 07:45:48 | 53.05081 | 7.99496 | 18° | 37km/h | 19154m | 6.4m/s | -51.3°C | 3.5% | 66hPa | 2.6V | 08:30:00 | 01:10:14 | 00:00:00 | |
| DL1XH-west | 2026-08-31 07:45:47 | 53.05113 | 7.99522 | 31° | 37km/h | 19176m | 5.2m/s | -51.4°C | 0.3% | 65.8hPa | 2.7V | 18:12:15 | 01:10:18 | 00:00:00 | |
| DF8AY | 2026-08-31 07:45:45 | 53.05098 | 7.99507 | 26° | 35km/h | 19166m | 6.5m/s | -51.4°C | 0.3% | 65.9hPa | 2.7V | 18:12:15 | 01:10:16 | 00:00:00 | |
| HSKMA3-T | 2026-08-31 07:45:42 | 53.05072 | 7.99492 | 15° | 38km/h | 19148m | 5.4m/s | -51.4°C | 0.3% | 66.1hPa | 2.7V | 18:12:15 | 01:10:13 | 00:00:00 | |
| AA1-15 | 2026-08-31 07:45:41 | 53.05063 | 7.99488 | 10° | 37km/h | 19142m | 5.8m/s | -51.4°C | 0.3% | 66.1hPa | 2.7V | 18:12:15 | 01:10:12 | 00:00:00 | |
| DL4BBY-15 | 2026-08-31 07:45:41 | 53.05063 | 7.99488 | 11° | 29km/h | 19142m | 5.7m/s | -54.3°C | 0% | 0hPa | 2.6V | 00:00:00 | 00:00:00 | 00:00:00 | |
| DM0DOS-11 | 2026-08-31 07:45:40 | 53.05024 | 7.99469 | 28° | 29km/h | 19116m | 5.1m/s | -51.3°C | 3.5% | 66.4hPa | 2.6V | 08:30:00 | 01:10:07 | 00:00:00 | |
| DB0DAN | 2026-08-31 07:45:40 | 53.05054 | 7.99486 | 9° | 33km/h | 19137m | 5.5m/s | -51.3°C | 1% | 66.18hPa | 2.6V | 00:00:00 | 00:00:00 | 00:00:00 | |
| BIOWL1-15 | 2026-08-31 07:45:40 | 53.05038 | 7.99480 | 18° | 31km/h | 19127m | 6.5m/s | -51.3°C | 0.3% | 66.3hPa | 2.7V | 18:12:15 | 01:10:09 | 00:00:00 | |
| DJ2DS-15 | 2026-08-31 07:45:39 | 53.05046 | 7.99483 | 12° | 29km/h | 19132m | 3.4m/s | -51.3°C | 3.6% | 66.2hPa | 2.6V | 00:00:00 | 01:10:10 | 00:00:00 | |
| DL1XH-15 | 2026-08-31 07:45:38 | 53.05005 | 7.99453 | 23° | 31km/h | 19100m | 6.6m/s | -51.1°C | 3.5% | 66.6hPa | 2.7V | 08:30:00 | 01:10:04 | 00:00:00 | |
| DO2JMG | 2026-08-31 07:45:36 | 53.05024 | 7.99469 | 29° | 29km/h | 19117m | 5.1m/s | -51.3°C | 0.3% | 66.4hPa | 2.6V | 18:12:15 | 01:10:07 | 00:00:00 | |
| DF8AY | 2026-08-31 07:45:34 | 53.05011 | 7.99458 | 26° | 27km/h | 19105m | 5.2m/s | -51.2°C | 0.3% | 66.5hPa | 2.7V | 18:12:15 | 01:10:05 | 00:00:00 | |
| HSKMA3-T | 2026-08-31 07:45:32 | 53.04997 | 7.99448 | 21° | 35km/h | 19094m | 4.7m/s | -51.1°C | 0.3% | 66.7hPa | 2.6V | 18:12:15 | 01:10:03 | 00:00:00 | |
| AA1-15 | 2026-08-31 07:45:30 | 53.04981 | 7.99439 | 15° | 31km/h | 19084m | 6.5m/s | -51.1°C | 0.3% | 66.8hPa | 2.7V | 18:12:15 | 01:10:01 | 00:00:00 | |
| DM0DOS-11 | 2026-08-31 07:45:30 | 53.04953 | 7.99419 | 35° | 29km/h | 19062m | 5.8m/s | -50.9°C | 3.4% | 67hPa | 2.6V | 08:30:00 | 01:09:57 | 00:00:00 | |
| BIOWL1-15 | 2026-08-31 07:45:29 | 53.04974 | 7.99436 | 17° | 29km/h | 19078m | 4.2m/s | -51°C | 0.3% | 66.8hPa | 2.7V | 18:12:15 | 01:10:00 | 00:00:00 | |
| DL1XH-15 | 2026-08-31 07:45:28 | 53.04937 | 7.99397 | 36° | 29km/h | 19044m | 7m/s | -50.9°C | 3.4% | 67.1hPa | 2.7V | 08:30:00 | 01:09:54 | 00:00:00 | |
| DL1XH-west | 2026-08-31 07:45:26 | 53.04954 | 7.99419 | 36° | 29km/h | 19062m | 5.8m/s | -50.9°C | 0.3% | 67hPa | 2.6V | 18:12:15 | 01:09:57 | 00:00:00 | |
| DB0DAN | 2026-08-31 07:45:25 | 53.04948 | 7.99412 | 37° | 26km/h | 19056m | 6.4m/s | -50.9°C | 1% | 67.03hPa | 2.6V | 00:00:00 | 00:00:00 | 00:00:00 | |
| DF8AY | 2026-08-31 07:45:23 | 53.04936 | 7.99397 | 37° | 29km/h | 19044m | 7m/s | -50.9°C | 0.2% | 67.1hPa | 2.7V | 18:12:15 | 01:09:54 | 00:00:00 | |
| DL1NUX | 2026-08-31 07:45:23 | 53.04912 | 7.99377 | 19° | 26km/h | 19022m | 5.2m/s | -50.9°C | 3.3% | 67.4hPa | 2.6V | 08:30:00 | 01:09:50 | 00:00:00 | |
| HSKMA3-T | 2026-08-31 07:45:21 | 53.04924 | 7.99385 | 26° | 27km/h | 19033m | 6.6m/s | -50.9°C | 0.2% | 67.3hPa | 2.6V | 18:12:15 | 01:09:52 | 00:00:00 | |
| DL1XH1-15 | 2026-08-31 07:45:20 | 53.04889 | 7.99360 | 31° | 22km/h | 18999m | 4.5m/s | -50.8°C | 3.3% | 67.6hPa | 2.6V | 08:30:00 | 01:09:46 | 00:00:00 | |
| DM0DOS-11 | 2026-08-31 07:45:20 | 53.04894 | 7.99364 | 25° | 24km/h | 19005m | 7m/s | -50.8°C | 3.3% | 67.6hPa | 2.7V | 08:30:00 | 01:09:47 | 00:00:00 | |
| BIOWL1-15 | 2026-08-31 07:45:19 | 53.04912 | 7.99377 | 19° | 26km/h | 19022m | 5.2m/s | -50.9°C | 0.2% | 67.4hPa | 2.6V | 18:12:15 | 01:09:50 | 00:00:00 | |
| DO2JMG | 2026-08-31 07:45:16 | 53.04894 | 7.99364 | 25° | 24km/h | 19005m | 7m/s | -50.8°C | 0.2% | 67.6hPa | 2.7V | 18:12:15 | 01:09:47 | 00:00:00 | |
| DL1XH-west | 2026-08-31 07:45:15 | 53.04889 | 7.99360 | 31° | 22km/h | 18999m | 4.5m/s | -50.8°C | 0.2% | 67.6hPa | 2.6V | 18:12:15 | 01:09:46 | 00:00:00 | |
| DB0UT-7 | 2026-08-31 07:45:15 | 53.04889 | 7.99360 | 32° | 26km/h | 18999m | 4.4m/s | -50.7°C | 3.3% | 67.6hPa | 2.6V | 00:00:00 | 00:00:00 | 00:00:00 | |
| DN9WHV | 2026-08-31 07:45:14 | 53.04889 | 7.99360 | 32° | 22km/h | 18999m | 4.5m/s | -50.8°C | 0.9% | 67.6hPa | 2.6V | 00:00:00 | 00:00:00 | 00:00:00 | |
| DL1NUX | 2026-08-31 07:45:13 | 53.04858 | 7.99319 | 27° | 24km/h | 18966m | 5m/s | -50.8°C | 3.4% | 68hPa | 2.6V | 08:30:00 | 01:09:40 | 00:00:00 | |
| DF8AY | 2026-08-31 07:45:13 | 53.04879 | 7.99347 | 42° | 27km/h | 18988m | 6.3m/s | -50.8°C | 0.2% | 67.7hPa | 2.7V | 18:12:15 | 01:09:44 | 00:00:00 | |
| HSKMA3-T | 2026-08-31 07:45:11 | 53.04869 | 7.99331 | 42° | 27km/h | 18978m | 5.5m/s | -50.9°C | 0.2% | 67.9hPa | 2.7V | 18:12:15 | 01:09:42 | 00:00:00 | |
| DB0DAN | 2026-08-31 07:45:10 | 53.04864 | 7.99324 | 37° | 24km/h | 18972m | 6.1m/s | -50.8°C | 1% | 67.93hPa | 2.7V | 00:00:00 | 00:00:00 | 00:00:00 | |
| BIOWL1-15 | 2026-08-31 07:45:09 | 53.04859 | 7.99319 | 28° | 24km/h | 18966m | 5m/s | -50.8°C | 0.2% | 68hPa | 2.6V | 18:12:15 | 01:09:40 | 00:00:00 | |
| AA1-15 | 2026-08-31 07:45:08 | 53.04853 | 7.99314 | 23° | 26km/h | 18961m | 6.4m/s | -50.9°C | 0.2% | 68hPa | 2.6V | 18:12:15 | 01:09:39 | 00:00:00 | |
| GOEST3-10 | 2026-08-31 07:45:08 | 53.04853 | 7.99314 | 24° | 26km/h | 18961m | 6.3m/s | -50.9°C | 3.4% | 68.0hPa | 2.7V | 00:00:00 | 01:09:39 | 00:00:00 | |
| DD1CC8 | 2026-08-31 07:45:07 | 53.04846 | 7.99310 | 20° | 27km/h | 18955m | 4.9m/s | -51.0°C | 1.0% | 68.1hPa | 2.7V | 00:00:00 | 00:00:00 | 00:00:00 | |
| DL1XH1-15 | 2026-08-31 07:45:06 | 53.04834 | 7.99303 | 21° | 24km/h | 18945m | 6.3m/s | -51.1°C | 3.4% | 68.2hPa | 2.7V | 08:30:00 | 01:09:36 | 00:00:00 | |
| DO2JMG | 2026-08-31 07:45:05 | 53.04834 | 7.99303 | 22° | 24km/h | 18945m | 6.3m/s | -51.1°C | 0.2% | 68.2hPa | 2.7V | 18:12:15 | 01:09:36 | 00:00:00 | |
| DL1XH-west | 2026-08-31 07:45:04 | 53.04829 | 7.99299 | 31° | 22km/h | 18939m | 4.7m/s | -51.2°C | 0.2% | 68.2hPa | 2.7V | 18:12:15 | 01:09:35 | 00:00:00 | |
| DF8AY | 2026-08-31 07:45:02 | 53.04819 | 7.99286 | 43° | 29km/h | 18928m | 6m/s | -51.5°C | 0.3% | 68.4hPa | 2.6V | 18:12:15 | 01:09:33 | 00:00:00 | |
| HSKMA3-T | 2026-08-31 07:45:01 | 53.04814 | 7.99276 | 50° | 31km/h | 18922m | 5.8m/s | -51.5°C | 0.3% | 68.4hPa | 2.7V | 18:12:15 | 01:09:32 | 00:00:00 | |
| DM0DOS-11 | 2026-08-31 07:45:00 | 53.04789 | 7.99232 | 38° | 24km/h | 18894m | 5.2m/s | -51.3°C | 3.5% | 68.7hPa | 2.7V | 08:30:00 | 01:09:27 | 00:00:00 | |
| BIOWL1-15 | 2026-08-31 07:44:59 | 53.04785 | 7.99226 | 37° | 18km/h | 18888m | 6.6m/s | -51.4°C | 0.3% | 68.8hPa | 2.6V | 18:12:15 | 01:09:26 | 00:00:00 | |
| DJ2DS-15 | 2026-08-31 07:44:59 | 53.04804 | 7.99256 | 53° | 26km/h | 18910m | 4.3m/s | -51.4°C | 3.6% | 68.5hPa | 2.7V | 00:00:00 | 01:09:30 | 00:00:00 | |
| DL1XH-15 | 2026-08-31 07:44:58 | 53.04778 | 7.99219 | 24° | 16km/h | 18877m | 6.3m/s | -51.3°C | 3.5% | 68.9hPa | 2.7V | 08:30:00 | 01:09:24 | 00:00:00 | |
| AA1-15 | 2026-08-31 07:44:57 | 53.04794 | 7.99239 | 41° | 27km/h | 18899m | 4.7m/s | -51.3°C | 0.3% | 68.7hPa | 2.7V | 18:12:15 | 01:09:28 | 00:00:00 | |
| DL3AQ-11 | 2026-08-31 07:44:56 | 53.04785 | 7.99226 | 36° | 18km/h | 18888m | 6.6m/s | -51.4°C | 1.0% | 68.8hPa | 2.6V | 00:00:00 | 00:00:00 | 00:00:00 | |
| DB0DAN | 2026-08-31 07:44:55 | 53.04785 | 7.99226 | 37° | 18km/h | 18888m | 6.6m/s | -51.4°C | 1% | 68.81hPa | 2.6V | 00:00:00 | 00:00:00 | 00:00:00 | |
| DL1XH-west | 2026-08-31 07:44:54 | 53.04782 | 7.99222 | 30° | 16km/h | 18883m | 4.6m/s | -51.4°C | 0.3% | 68.9hPa | 2.7V | 18:12:15 | 01:09:25 | 00:00:00 | |
| DF8AY | 2026-08-31 07:44:52 | 53.04774 | 7.99216 | 24° | 20km/h | 18871m | 5.3m/s | -51.4°C | 0.3% | 69hPa | 2.7V | 18:12:15 | 01:09:23 | 00:00:00 | |
| HSKMA3-T | 2026-08-31 07:44:50 | 53.04765 | 7.99208 | 30° | 22km/h | 18860m | 5.2m/s | -51.4°C | 0.3% | 69.1hPa | 2.7V | 18:12:15 | 01:09:21 | 00:00:00 | |
| DM0DOS-11 | 2026-08-31 07:44:49 | 53.04737 | 7.99185 | 22° | 38km/h | 18838m | 4m/s | -51.4°C | 3.7% | 69.3hPa | 2.6V | 08:30:00 | 01:09:17 | 00:00:00 | |
| DL1XH-15 | 2026-08-31 07:44:48 | 53.04714 | 7.99171 | 17° | 27km/h | 18822m | 5.6m/s | -51.1°C | 3.6% | 69.5hPa | 2.7V | 08:30:00 | 01:09:14 | 00:00:00 | |
| BIOWL1-15 | 2026-08-31 07:44:47 | 53.04746 | 7.99192 | 25° | 37km/h | 18843m | 4.8m/s | -51.3°C | 0.4% | 69.3hPa | 2.7V | 18:12:15 | 01:09:18 | 00:00:00 | |
| AA1-15 | 2026-08-31 07:44:46 | 53.04737 | 7.99185 | 23° | 38km/h | 18839m | 4m/s | -51.4°C | 0.4% | 69.3hPa | 2.6V | 18:12:15 | 01:09:17 | 00:00:00 | |
| DO2JMG | 2026-08-31 07:44:44 | 53.04721 | 7.99175 | 19° | 29km/h | 18828m | 5.3m/s | -51.1°C | 0.3% | 69.4hPa | 2.6V | 18:12:15 | 01:09:15 | 00:00:00 | |
| DL1XH-west | 2026-08-31 07:44:43 | 53.04714 | 7.99171 | 17° | 27km/h | 18822m | 5.6m/s | -51.1°C | 0.4% | 69.5hPa | 2.7V | 18:12:15 | 01:09:14 | 00:00:00 | |
| DF8AY | 2026-08-31 07:44:41 | 53.04702 | 7.99165 | 21° | 22km/h | 18811m | 5.3m/s | -51.1°C | 0.4% | 69.7hPa | 2.7V | 18:12:15 | 01:09:12 | 00:00:00 | |
| DB0DAN | 2026-08-31 07:44:40 | 53.04698 | 7.99162 | 23° | 16km/h | 18804m | 7.7m/s | -51.1°C | 1% | 69.69hPa | 2.6V | 00:00:00 | 00:00:00 | 00:00:00 | |
| HSKMA3-T | 2026-08-31 07:44:39 | 53.04694 | 7.99159 | 27° | 15km/h | 18798m | 4.8m/s | -51°C | 0.3% | 69.8hPa | 2.6V | 18:12:15 | 01:09:10 | 00:00:00 | |
| DJ2DS-15 | 2026-08-31 07:44:39 | 53.04694 | 7.99159 | 28° | 22km/h | 18798m | 4.8m/s | -51.0°C | 3.5% | 69.7hPa | 2.6V | 00:00:00 | 01:09:10 | 08:30:00 | |
| DL1XH-15 | 2026-08-31 07:44:38 | 53.04656 | 7.99142 | 5° | 31km/h | 18767m | 5.1m/s | -50.9°C | 3.5% | 70.1hPa | 2.6V | 08:30:00 | 01:09:04 | 00:00:00 | |
| BIOWL1-15 | 2026-08-31 07:44:36 | 53.04664 | 7.99144 | 9° | 33km/h | 18773m | 6.7m/s | -50.9°C | 0.3% | 70hPa | 2.6V | 18:12:15 | 01:09:05 | 00:00:00 | |
| AA1-15 | 2026-08-31 07:44:35 | 53.04672 | 7.99146 | 12° | 33km/h | 18778m | 4.2m/s | -51°C | 0.2% | 70hPa | 2.7V | 18:12:15 | 01:09:06 | 00:00:00 | |
| DL1NUX | 2026-08-31 07:44:33 | 53.04626 | 7.99138 | 7° | 26km/h | 18746m | 4.9m/s | -50.6°C | 3.5% | 70.3hPa | 2.7V | 08:30:00 | 01:09:00 | 00:00:00 | |
| DO2JMG | 2026-08-31 07:44:33 | 53.04656 | 7.99142 | 5° | 31km/h | 18767m | 5.1m/s | -50.9°C | 0.3% | 70.1hPa | 2.6V | 18:12:15 | 01:09:04 | 00:00:00 | |
| DF8AY | 2026-08-31 07:44:31 | 53.04641 | 7.99140 | 5° | 31km/h | 18757m | 5.8m/s | -50.6°C | 0.3% | 70.2hPa | 2.7V | 18:12:15 | 01:09:02 | 00:00:00 | |
| HSKMA3-T | 2026-08-31 07:44:29 | 53.04626 | 7.99138 | 8° | 26km/h | 18746m | 4.9m/s | -50.6°C | 0.3% | 70.3hPa | 2.7V | 18:12:15 | 01:09:00 | 00:00:00 | |
| HTAHTA | 2026-08-31 07:44:29 | 53.04621 | 7.99136 | 6° | 18km/h | 18741m | 7.1m/s | -50.6°C | 1.0% | 70.4hPa | 2.6V | 00:00:00 | 00:00:00 | 00:00:00 | |
| DL1XH-15 | 2026-08-31 07:44:28 | 53.04605 | 7.99131 | 15° | 16km/h | 18710m | 5.9m/s | -50.4°C | 3.4% | 70.7hPa | 2.6V | 08:30:00 | 01:08:54 | 00:00:00 | |
| GOEST3-10 | 2026-08-31 07:44:28 | 53.04621 | 7.99136 | 7° | 13km/h | 18741m | 7.0m/s | -50.6°C | 3.5% | 70.3hPa | 2.6V | 00:00:00 | 01:08:59 | 00:00:00 | |
| DN9WHV | 2026-08-31 07:44:27 | 53.04617 | 7.99136 | 6° | 13km/h | 18734m | 6.8m/s | -50.6°C | 1.0% | 70.4hPa | 2.7V | 00:00:00 | 00:00:00 | 00:00:00 | |
| DL8OAI-8 | 2026-08-31 07:44:26 | 53.04617 | 7.99136 | 6° | 13km/h | 18734m | 6.8m/s | -50.6°C | 1.1% | 70.4hPa | 2.7V | 00:00:00 | 00:00:00 | 00:00:00 | |
| DL1XH1-15 | 2026-08-31 07:44:26 | 53.04612 | 7.99135 | 15° | 9km/h | 18722m | 8m/s | -50.4°C | 3.5% | 70.6hPa | 2.7V | 08:30:00 | 01:08:56 | 00:00:00 | |
| DB0DAN | 2026-08-31 07:44:25 | 53.04612 | 7.99135 | 16° | 9km/h | 18722m | 8m/s | -50.4°C | 1% | 70.57hPa | 2.7V | 00:00:00 | 00:00:00 | 00:00:00 | |
| AA1-15 | 2026-08-31 07:44:24 | 53.04609 | 7.99133 | 18° | 15km/h | 18716m | 4.9m/s | -50.4°C | 0.3% | 70.7hPa | 2.6V | 18:12:15 | 01:08:55 | 00:00:00 | |
| DL1XH-west | 2026-08-31 07:44:23 | 53.04606 | 7.99131 | 16° | 16km/h | 18710m | 5.9m/s | -50.4°C | 0.3% | 70.7hPa | 2.6V | 18:12:15 | 01:08:54 | 00:00:00 | |
| DF8AY | 2026-08-31 07:44:20 | 53.04590 | 7.99126 | 12° | 27km/h | 18692m | 7.2m/s | -50.4°C | 0.2% | 70.9hPa | 2.6V | 18:12:15 | 01:08:51 | 00:00:00 | |
| DM0DOS-11 | 2026-08-31 07:44:19 | 53.04562 | 7.99123 | 344° | 20km/h | 18668m | 5.6m/s | -50.7°C | 3.4% | 71.2hPa | 2.6V | 08:30:00 | 01:08:47 | 00:00:00 | |
| HSKMA3-T | 2026-08-31 07:44:19 | 53.04582 | 7.99124 | 10° | 31km/h | 18685m | 4.7m/s | -50.5°C | 0.2% | 71hPa | 2.6V | 18:12:15 | 01:08:50 | 00:00:00 | |
| DJ2DS-15 | 2026-08-31 07:44:19 | 53.04582 | 7.99124 | 11° | 16km/h | 18686m | 4.6m/s | -50.4°C | 3.3% | 71.0hPa | 2.7V | 00:00:00 | 01:08:50 | 00:00:00 | |
| DL1XH-15 | 2026-08-31 07:44:18 | 53.04551 | 7.99127 | 12° | 7km/h | 18650m | 4.7m/s | -50.6°C | 3.4% | 71.3hPa | 2.7V | 08:30:00 | 01:08:44 | 00:00:00 | |
| AA1-15 | 2026-08-31 07:44:14 | 53.04554 | 7.99127 | 350° | 13km/h | 18656m | 6.9m/s | -50.7°C | 0.3% | 71.3hPa | 2.7V | 18:12:15 | 01:08:45 | 00:00:00 | |
| DO2JMG | 2026-08-31 07:44:12 | 53.04550 | 7.99127 | 36° | 2km/h | 18644m | 7.2m/s | -50.6°C | 0.2% | 71.4hPa | 2.7V | 18:12:15 | 01:08:43 | 00:00:00 | |
| DL4BBY-15 | 2026-08-31 07:44:11 | 53.04550 | 7.99126 | 130° | 15km/h | 18638m | 5.1m/s | -53.5°C | 0% | 0hPa | 2.6V | 00:00:00 | 00:00:00 | 00:00:00 | |
| DL1XH1-15 | 2026-08-31 07:44:10 | 53.04535 | 7.99113 | 13° | 24km/h | 18605m | 5m/s | -50.3°C | 3.4% | 71.9hPa | 2.6V | 08:30:00 | 01:08:36 | 00:00:00 | |
| DF8AY | 2026-08-31 07:44:10 | 53.04550 | 7.99125 | 79° | 5km/h | 18632m | 5.6m/s | -50.6°C | 0.3% | 71.6hPa | 2.6V | 18:12:15 | 01:08:41 | 00:00:00 | |
| DB0DAN | 2026-08-31 07:44:10 | 53.04550 | 7.99125 | 79° | 4km/h | 18632m | 5.6m/s | -50.6°C | 1% | 71.56hPa | 2.6V | 00:00:00 | 00:00:00 | 00:00:00 | |
| DO2SHX-10 | 2026-08-31 07:44:10 | 53.04550 | 7.99125 | 79° | 13km/h | 18633m | 5.6m/s | -50.5°C | 3.5% | 71.5hPa | 2.6V | 00:00:00 | 01:08:41 | 08:30:00 | |
| DM0DOS-11 | 2026-08-31 07:44:09 | 53.04540 | 7.99115 | 13° | 20km/h | 18610m | 4.8m/s | -50.4°C | 3.4% | 71.8hPa | 2.7V | 08:30:00 | 01:08:37 | 00:00:00 | |
| HSKMA3-T | 2026-08-31 07:44:08 | 53.04547 | 7.99119 | 31° | 15km/h | 18621m | 4m/s | -50.5°C | 0.3% | 71.7hPa | 2.8V | 18:12:15 | 01:08:39 | 00:00:00 | |
| BIOWL1-15 | 2026-08-31 07:44:03 | 53.04523 | 7.99107 | 23° | 24km/h | 18595m | 4.6m/s | -50.3°C | 0.2% | 72hPa | 2.7V | 18:12:15 | 01:08:34 | 00:00:00 | |
| DL1NUX | 2026-08-31 07:44:03 | 53.04512 | 7.99098 | 74° | 5km/h | 18571m | 6.7m/s | -50.3°C | 3.4% | 72.2hPa | 2.6V | 08:30:00 | 01:08:30 | 00:00:00 | |
| DO2JMG | 2026-08-31 07:44:02 | 53.04518 | 7.99103 | 21° | 18km/h | 18589m | 6.5m/s | -50.4°C | 0.2% | 72.1hPa | 2.8V | 18:12:15 | 01:08:33 | 00:00:00 | |
| DN9WHV | 2026-08-31 07:44:02 | 53.04518 | 7.99103 | 22° | 18km/h | 18589m | 6.5m/s | -50.4°C | 1.0% | 72.1hPa | 2.7V | 00:00:00 | 00:00:00 | 00:00:00 | |
| DL1LOL-11 | 2026-08-31 07:44:01 | 53.04518 | 7.99103 | 22° | 18km/h | 18589m | 6.5m/s | -50.4°C | 1.0% | 72.1hPa | 2.7V | 00:00:00 | 00:00:00 | 00:00:00 | |
| DL1XH1-15 | 2026-08-31 07:44:00 | 53.04510 | 7.99088 | 43° | 9km/h | 18550m | 4m/s | -50.1°C | 3.4% | 72.5hPa | 2.7V | 08:30:00 | 01:08:26 | 00:00:00 | |
| DF8AY | 2026-08-31 07:43:59 | 53.04512 | 7.99098 | 74° | 5km/h | 18571m | 6.7m/s | -50.3°C | 0.2% | 72.2hPa | 2.6V | 18:12:15 | 01:08:30 | 00:00:00 | |
| DM0DOS-11 | 2026-08-31 07:43:59 | 53.04511 | 7.99090 | 65° | 4km/h | 18554m | 5.7m/s | -50.1°C | 3.4% | 72.4hPa | 2.8V | 08:30:00 | 01:08:27 | 00:00:00 | |
| HSKMA3-T | 2026-08-31 07:43:58 | 53.04512 | 7.99095 | 83° | 7km/h | 18566m | 4.4m/s | -50.3°C | 0.3% | 72.3hPa | 2.6V | 18:12:15 | 01:08:29 | 00:00:00 | |
| BIOWL1-15 | 2026-08-31 07:43:55 | 53.04505 | 7.99079 | 42° | 22km/h | 18538m | 4.9m/s | -50.2°C | 0.2% | 72.6hPa | 2.6V | 18:12:15 | 01:08:24 | 00:00:00 | |
| DN9WHV | 2026-08-31 07:43:55 | 53.04511 | 7.99090 | 66° | 5km/h | 18555m | 5.7m/s | -50.1°C | 1.0% | 72.4hPa | 2.6V | 00:00:00 | 00:00:00 | 00:00:00 | |
| DB0DAN | 2026-08-31 07:43:55 | 53.04510 | 7.99088 | 44° | 9km/h | 18550m | 4m/s | -50.1°C | 1% | 72.48hPa | 2.7V | 00:00:00 | 00:00:00 | 00:00:00 | |
| DL1NUX | 2026-08-31 07:43:53 | 53.04485 | 7.99057 | 35° | 24km/h | 18514m | 6.3m/s | -50.2°C | 3.3% | 72.9hPa | 2.6V | 08:30:00 | 01:08:20 | 00:00:00 | |
| DO2JMG | 2026-08-31 07:43:52 | 53.04500 | 7.99073 | 36° | 24km/h | 18532m | 7.5m/s | -50.2°C | 0.3% | 72.7hPa | 2.6V | 18:12:15 | 01:08:23 | 00:00:00 | |
| DL1XH-west | 2026-08-31 07:43:51 | 53.04495 | 7.99068 | 31° | 24km/h | 18525m | 4.9m/s | -50.3°C | 0.2% | 72.8hPa | 2.7V | 18:12:15 | 01:08:22 | 00:00:00 | |
| SMARD9-15 | 2026-08-31 07:43:51 | 53.04490 | 7.99062 | 33° | 24km/h | 18520m | 5.5m/s | -50.3°C | 1.0% | 72.8hPa | 2.6V | 00:00:00 | 00:00:00 | 00:00:00 | |
| DL1XH1-15 | 2026-08-31 07:43:50 | 53.04473 | 7.99041 | 45° | 7km/h | 18491m | 5.5m/s | -50.2°C | 3.3% | 73.1hPa | 2.6V | 08:30:00 | 01:08:16 | 00:00:00 | |
| DF8AY | 2026-08-31 07:43:48 | 53.04481 | 7.99051 | 38° | 20km/h | 18509m | 4.1m/s | -50.1°C | 0.2% | 72.9hPa | 2.6V | 18:12:15 | 01:08:19 | 00:00:00 | |
| HSKMA3-T | 2026-08-31 07:43:47 | 53.04477 | 7.99047 | 33° | 16km/h | 18503m | 7.2m/s | -50.2°C | 0.1% | 73hPa | 2.7V | 18:12:15 | 01:08:18 | 00:00:00 | |
| DL3AQ-11 | 2026-08-31 07:43:46 | 53.04474 | 7.99044 | 31° | 9km/h | 18497m | 5.4m/s | -50.3°C | 1.0% | 73.1hPa | 2.7V | 00:00:00 | 00:00:00 | 00:00:00 | |
| BIOWL1-15 | 2026-08-31 07:43:44 | 53.04470 | 7.99029 | 64° | 13km/h | 18476m | 5.4m/s | -50.2°C | 0.2% | 73.3hPa | 2.7V | 18:12:15 | 01:08:13 | 00:00:00 | |
| DB0NH | 2026-08-31 07:43:44 | 53.04471 | 7.99038 | 70° | 26km/h | 18486m | 6.0m/s | -50.1°C | 3.3% | 73.1hPa | 2.6V | 00:00:00 | 01:08:15 | 00:00:00 | |
| DL1NUX | 2026-08-31 07:43:43 | 53.04461 | 7.99015 | 46° | 22km/h | 18458m | 7.3m/s | -50.2°C | 3.4% | 73.5hPa | 2.6V | 08:30:00 | 01:08:10 | 00:00:00 | |
| DO2JMG | 2026-08-31 07:43:41 | 53.04468 | 7.99025 | 49° | 13km/h | 18470m | 6.3m/s | -50.1°C | 0.2% | 73.4hPa | 2.7V | 18:12:15 | 01:08:12 | 00:00:00 | |
| DB0DAN | 2026-08-31 07:43:40 | 53.04465 | 7.99020 | 41° | 16km/h | 18464m | 5m/s | -50.2°C | 1% | 73.44hPa | 2.6V | 00:00:00 | 00:00:00 | 00:00:00 | |
| DF8AY | 2026-08-31 07:43:38 | 53.04457 | 7.99008 | 44° | 26km/h | 18452m | 5m/s | -50.2°C | 0.3% | 73.6hPa | 2.7V | 18:12:15 | 01:08:09 | 00:00:00 | |
| HSKMA3-T | 2026-08-31 07:43:37 | 53.04452 | 7.99000 | 38° | 29km/h | 18447m | 6m/s | -50.2°C | 0.2% | 73.6hPa | 2.7V | 18:12:15 | 01:08:08 | 00:00:00 | |
| DD8BA-10 | 2026-08-31 07:43:36 | 53.04445 | 7.98992 | 35° | 27km/h | 18441m | 5.8m/s | -50.1°C | 3.4% | 73.7hPa | 2.7V | 00:00:00 | 00:00:00 | 00:00:00 | |
| DO2SHX-10 | 2026-08-31 07:43:35 | 53.04439 | 7.98985 | 34° | 29km/h | 18436m | 3.6m/s | -50.1°C | 3.3% | 73.7hPa | 2.7V | 00:00:00 | 01:08:06 | 08:30:00 | |
| DD1CC8 | 2026-08-31 07:43:34 | 53.04433 | 7.98978 | 39° | 27km/h | 18431m | 6.2m/s | -50.1°C | 1.0% | 73.8hPa | 2.7V | 00:00:00 | 00:00:00 | 00:00:00 | |
| DL1NUX | 2026-08-31 07:43:33 | 53.04411 | 7.98942 | 51° | 24km/h | 18406m | 6.5m/s | -50°C | 3.3% | 74.1hPa | 2.7V | 08:30:00 | 01:08:00 | 00:00:00 | |
| DL1XH-west | 2026-08-31 07:43:31 | 53.04420 | 7.98956 | 43° | 22km/h | 18416m | 5.5m/s | -50.1°C | 0.2% | 74hPa | 2.7V | 18:12:15 | 01:08:02 | 00:00:00 | |
| DL1XH1-15 | 2026-08-31 07:43:30 | 53.04391 | 7.98906 | 37° | 33km/h | 18385m | 4.1m/s | -50°C | 3.3% | 74.3hPa | 2.8V | 08:30:00 | 01:07:56 | 00:00:00 | |
| DO2JMG | 2026-08-31 07:43:30 | 53.04415 | 7.98949 | 45° | 24km/h | 18411m | 4.4m/s | -50°C | 0.2% | 74.1hPa | 2.7V | 18:12:15 | 01:08:01 | 00:00:00 | |
| DF8AY | 2026-08-31 07:43:27 | 53.04403 | 7.98924 | 48° | 31km/h | 18395m | 4.9m/s | -49.9°C | 0.2% | 74.2hPa | 2.6V | 18:12:15 | 01:07:58 | 00:00:00 | |
| HSKMA3-T | 2026-08-31 07:43:26 | 53.04397 | 7.98914 | 42° | 33km/h | 18390m | 5.8m/s | -50°C | 0.2% | 74.3hPa | 2.7V | 18:12:15 | 01:07:57 | 00:00:00 | |
| DB0DAN | 2026-08-31 07:43:25 | 53.04391 | 7.98906 | 37° | 31km/h | 18385m | 4.1m/s | -50°C | 1% | 74.35hPa | 2.8V | 00:00:00 | 00:00:00 | 00:00:00 | |
| BIOWL1-15 | 2026-08-31 07:43:23 | 53.04366 | 7.98876 | 28° | 27km/h | 18362m | 5.2m/s | -50.3°C | 0.3% | 74.6hPa | 2.7V | 18:12:15 | 01:07:52 | 00:00:00 | |
| DL1NUX | 2026-08-31 07:43:23 | 53.04355 | 7.98864 | 38° | 27km/h | 18353m | 5.9m/s | -50.3°C | 3.4% | 74.7hPa | 2.7V | 08:30:00 | 01:07:50 | 00:00:00 | |
| DO2JMG | 2026-08-31 07:43:20 | 53.04360 | 7.98870 | 31° | 26km/h | 18358m | 3.6m/s | -50.3°C | 0.2% | 74.6hPa | 2.7V | 18:12:15 | 01:07:51 | 00:00:00 | |
| DM0DOS-11 | 2026-08-31 07:43:19 | 53.04337 | 7.98838 | 40° | 35km/h | 18336m | 5.4m/s | -50.1°C | 3.4% | 74.9hPa | 2.7V | 08:30:00 | 01:07:47 | 00:00:00 | |
| AA1-15 | 2026-08-31 07:43:19 | 53.04355 | 7.98864 | 38° | 27km/h | 18353m | 5.9m/s | -50.3°C | 0.2% | 74.7hPa | 2.7V | 18:12:15 | 01:07:50 | 00:00:00 | |
| DF8AY | 2026-08-31 07:43:17 | 53.04344 | 7.98847 | 43° | 33km/h | 18342m | 6.5m/s | -50.2°C | 0.3% | 74.8hPa | 2.7V | 18:12:15 | 01:07:48 | 00:00:00 | |
| HSKMA3-T | 2026-08-31 07:43:16 | 53.04337 | 7.98838 | 41° | 35km/h | 18336m | 5.4m/s | -50.1°C | 0.3% | 74.9hPa | 2.7V | 18:12:15 | 01:07:47 | 00:00:00 | |
| DD8BA-10 | 2026-08-31 07:43:16 | 53.04337 | 7.98838 | 41° | 31km/h | 18336m | 5.4m/s | -50.1°C | 3.4% | 74.8hPa | 2.7V | 00:00:00 | 00:00:00 | 00:00:00 | |
| DO2SHX-10 | 2026-08-31 07:43:15 | 53.04331 | 7.98828 | 44° | 35km/h | 18331m | 6.1m/s | -50.0°C | 3.4% | 74.9hPa | 2.7V | 00:00:00 | 01:07:46 | 00:00:00 | |
| DB0NH | 2026-08-31 07:43:14 | 53.04324 | 7.98817 | 44° | 31km/h | 18325m | 4.9m/s | -50.0°C | 3.4% | 75.0hPa | 2.6V | 00:00:00 | 01:07:45 | 00:00:00 | |
| DL1NUX | 2026-08-31 07:43:13 | 53.04292 | 7.98782 | 36° | 27km/h | 18298m | 4m/s | -49.8°C | 3.4% | 75.4hPa | 2.6V | 08:30:00 | 01:07:40 | 00:00:00 | |
| BIOWL1-15 | 2026-08-31 07:43:11 | 53.04304 | 7.98794 | 27° | 29km/h | 18309m | 3.9m/s | -49.9°C | 0.2% | 75.2hPa | 2.7V | 18:12:15 | 01:07:42 | 00:00:00 | |
| DL4BBY-15 | 2026-08-31 07:43:11 | 53.04304 | 7.98794 | 27° | 31km/h | 18310m | 3.9m/s | -52.8°C | 0% | 0hPa | 2.7V | 00:00:00 | 00:00:00 | 00:00:00 | |
| DL1XH1-15 | 2026-08-31 07:43:10 | 53.04268 | 7.98752 | 41° | 33km/h | 18276m | 7.2m/s | -49.6°C | 3.3% | 75.6hPa | 2.7V | 08:30:00 | 01:07:36 | 00:00:00 | |
| DO2JMG | 2026-08-31 07:43:10 | 53.04298 | 7.98788 | 30° | 27km/h | 18303m | 7.2m/s | -49.9°C | 0.2% | 75.3hPa | 2.7V | 18:12:15 | 01:07:41 | 00:00:00 | |
| DB0DAN | 2026-08-31 07:43:10 | 53.04298 | 7.98788 | 30° | 26km/h | 18304m | 7.2m/s | -49.9°C | 1% | 75.27hPa | 2.7V | 00:00:00 | 00:00:00 | 00:00:00 | |
| DM0DOS-11 | 2026-08-31 07:43:09 | 53.04274 | 7.98761 | 36° | 33km/h | 18282m | 5.2m/s | -49.7°C | 3.3% | 75.5hPa | 2.8V | 08:30:00 | 01:07:37 | 00:00:00 | |
| AA1-15 | 2026-08-31 07:43:08 | 53.04286 | 7.98775 | 35° | 27km/h | 18293m | 5.8m/s | -49.7°C | 0.2% | 75.4hPa | 2.6V | 18:12:15 | 01:07:39 | 00:00:00 | |
| DF8AY | 2026-08-31 07:43:07 | 53.04280 | 7.98769 | 33° | 29km/h | 18287m | 5.3m/s | -49.7°C | 0.3% | 75.5hPa | 2.7V | 18:12:15 | 01:07:38 | 00:00:00 | |
| HSKMA3-T | 2026-08-31 07:43:06 | 53.04274 | 7.98761 | 37° | 33km/h | 18282m | 5.2m/s | -49.7°C | 0.2% | 75.5hPa | 2.8V | 18:12:15 | 01:07:37 | 00:00:00 | |
| DO2SHX-10 | 2026-08-31 07:43:06 | 53.04274 | 7.98761 | 37° | 35km/h | 18282m | 5.1m/s | -49.6°C | 3.3% | 75.5hPa | 2.7V | 00:00:00 | 01:07:37 | 08:30:00 | |
| DN9WHV | 2026-08-31 07:43:04 | 53.04268 | 7.98752 | 43° | 33km/h | 18276m | 7.2m/s | -49.6°C | 1.0% | 75.6hPa | 2.7V | 00:00:00 | 00:00:00 | 00:00:00 | |
| DL1NUX | 2026-08-31 07:43:03 | 53.04225 | 7.98703 | 28° | 31km/h | 18243m | 5.5m/s | -49.4°C | 3.2% | 75.9hPa | 2.7V | 08:30:00 | 01:07:30 | 00:00:00 | |
| DO2SHX-10 | 2026-08-31 07:43:02 | 53.04247 | 7.98725 | 32° | 35km/h | 18259m | 4.2m/s | -49.4°C | 3.3% | 75.8hPa | 2.7V | 00:00:00 | 01:07:33 | 00:00:00 | |
| DC6BW-12 | 2026-08-31 07:43:01 | 53.04247 | 7.98725 | 33° | 37km/h | 18259m | 4.2m/s | -49.5°C | 1.0% | 75.8hPa | 2.7V | 00:00:00 | 00:00:00 | 00:00:00 | |
| DL1XH1-15 | 2026-08-31 07:43:00 | 53.04200 | 7.98681 | 35° | 27km/h | 18222m | 4.7m/s | -49.2°C | 3.2% | 76.2hPa | 2.7V | 08:30:00 | 01:07:26 | 00:00:00 | |
| DO2JMG | 2026-08-31 07:42:59 | 53.04225 | 7.98703 | 28° | 31km/h | 18243m | 5.5m/s | -49.4°C | 0.2% | 75.9hPa | 2.7V | 18:12:15 | 01:07:30 | 00:00:00 | |
| DM0DOS-11 | 2026-08-31 07:42:59 | 53.04206 | 7.98688 | 30° | 27km/h | 18227m | 6.2m/s | -49.2°C | 3.2% | 76.2hPa | 2.6V | 08:30:00 | 01:07:27 | 00:00:00 | |
| DJ2DS-15 | 2026-08-31 07:42:59 | 53.04225 | 7.98703 | 29° | 29km/h | 18243m | 5.4m/s | -49.3°C | 3.2% | 75.9hPa | 2.8V | 00:00:00 | 01:07:30 | 00:00:00 | |
| DL1XH-15 | 2026-08-31 07:42:58 | 53.04188 | 7.98668 | 31° | 29km/h | 18210m | 5.7m/s | -49.1°C | 3.2% | 76.4hPa | 2.8V | 08:30:00 | 01:07:24 | 00:00:00 | |
| AA1-15 | 2026-08-31 07:42:57 | 53.04212 | 7.98693 | 24° | 27km/h | 18233m | 4.8m/s | -49.3°C | 0.1% | 76.1hPa | 2.6V | 18:12:15 | 01:07:28 | 00:00:00 | |
| DF8AY | 2026-08-31 07:42:56 | 53.04206 | 7.98688 | 31° | 27km/h | 18227m | 6.2m/s | -49.3°C | 0.1% | 76.2hPa | 2.6V | 18:12:15 | 01:07:27 | 00:00:00 | |
| HSKMA3-T | 2026-08-31 07:42:55 | 53.04200 | 7.98681 | 36° | 27km/h | 18222m | 4.7m/s | -49.2°C | 0.1% | 76.2hPa | 2.7V | 18:12:15 | 01:07:26 | 00:00:00 | |
| DB0DAN | 2026-08-31 07:42:55 | 53.04200 | 7.98681 | 36° | 26km/h | 18222m | 4.7m/s | -49.2°C | 0.9% | 76.24hPa | 2.7V | 00:00:00 | 00:00:00 | 00:00:00 | |
| SONCRA | 2026-08-31 07:42:54 | 53.04194 | 7.98675 | 33° | 27km/h | 18216m | 6.3m/s | -49.2°C | 0.9% | 76.3hPa | 2.8V | 00:00:00 | 00:00:00 | 00:00:00 | |
| DL1NUX | 2026-08-31 07:42:53 | 53.04160 | 7.98636 | 32° | 35km/h | 18190m | 6.3m/s | -49°C | 3.1% | 76.6hPa | 2.8V | 08:30:00 | 01:07:20 | 00:00:00 | |
| DO2SHX-10 | 2026-08-31 07:42:53 | 53.04188 | 7.98668 | 32° | 31km/h | 18211m | 5.7m/s | -49.1°C | 3.2% | 76.3hPa | 2.8V | 00:00:00 | 01:07:24 | 00:00:00 | |
| DN9WHV | 2026-08-31 07:42:52 | 53.04188 | 7.98668 | 33° | 29km/h | 18211m | 5.7m/s | -49.1°C | 0.9% | 76.4hPa | 2.8V | 00:00:00 | 00:00:00 | 00:00:00 | |
| SMARD9-10 | 2026-08-31 07:42:51 | 53.04181 | 7.98661 | 33° | 33km/h | 18206m | 3.5m/s | 0°C | 0% | 0hPa | 2.8V | 00:00:00 | 00:00:00 | 00:00:00 | |
| DL1XH1-15 | 2026-08-31 07:42:50 | 53.04134 | 7.98611 | 37° | 26km/h | 18169m | 4.2m/s | -49°C | 3.1% | 76.8hPa | 2.8V | 08:30:00 | 01:07:16 | 00:00:00 | |
| DO2SHX-10 | 2026-08-31 07:42:50 | 53.04167 | 7.98645 | 38° | 35km/h | 18196m | 4.7m/s | -49.0°C | 3.1% | 76.5hPa | 2.7V | 00:00:00 | 01:07:21 | 00:00:00 | |
| DM0DOS-11 | 2026-08-31 07:42:49 | 53.04139 | 7.98617 | 33° | 27km/h | 18174m | 6.5m/s | -49°C | 3.1% | 76.8hPa | 2.7V | 08:30:00 | 01:07:17 | 00:00:00 | |
| BIOWL1-15 | 2026-08-31 07:42:49 | 53.04146 | 7.98623 | 28° | 31km/h | 18179m | 4.1m/s | -48.9°C | 0% | 76.8hPa | 2.6V | 18:12:15 | 01:07:18 | 00:00:00 | |
| DO2JMG | 2026-08-31 07:42:48 | 53.04153 | 7.98629 | 28° | 33km/h | 18184m | 5.3m/s | -49°C | 0.1% | 76.7hPa | 2.7V | 18:12:15 | 01:07:19 | 00:00:00 | |
| AA1-15 | 2026-08-31 07:42:46 | 53.04139 | 7.98617 | 33° | 27km/h | 18174m | 6.5m/s | -49°C | 0% | 76.8hPa | 2.7V | 18:12:15 | 01:07:17 | 00:00:00 | |
| HSKMA3-T | 2026-08-31 07:42:45 | 53.04134 | 7.98611 | 38° | 26km/h | 18169m | 4.2m/s | -49°C | 0% | 76.9hPa | 2.8V | 18:12:15 | 01:07:16 | 00:00:00 | |
| DB0UT-7 | 2026-08-31 07:42:45 | 53.04134 | 7.98611 | 38° | 31km/h | 18169m | 4.2m/s | -48.9°C | 3.1% | 76.8hPa | 2.7V | 00:00:00 | 01:07:16 | 00:00:00 | |
| DB0NH | 2026-08-31 07:42:44 | 53.04129 | 7.98604 | 39° | 31km/h | 18165m | 4.1m/s | -48.9°C | 3.1% | 76.9hPa | 2.7V | 00:00:00 | 01:07:15 | 00:00:00 | |
| GOEST3-10 | 2026-08-31 07:42:43 | 53.04123 | 7.98597 | 36° | 29km/h | 18159m | 6.0m/s | -49.0°C | 3.1% | 76.9hPa | 2.7V | 00:00:00 | 00:00:00 | 00:00:00 | |
| DL8OAI-8 | 2026-08-31 07:42:42 | 53.04123 | 7.98597 | 36° | 27km/h | 18159m | 6.1m/s | -49.0°C | 0.9% | 77.0hPa | 2.8V | 00:00:00 | 00:00:00 | 00:00:00 | |
| DL4BBY-15 | 2026-08-31 07:42:41 | 53.04111 | 7.98584 | 37° | 31km/h | 18149m | 4.4m/s | -52.1°C | 0% | 0hPa | 2.8V | 00:00:00 | 00:00:00 | 00:00:00 | |
| DL1XH1-15 | 2026-08-31 07:42:40 | 53.04077 | 7.98539 | 32° | 27km/h | 18119m | 5.8m/s | -49.4°C | 3.1% | 77.4hPa | 2.8V | 08:30:00 | 01:07:06 | 00:00:00 | |
| DB0DAN | 2026-08-31 07:42:40 | 53.04106 | 7.98576 | 43° | 27km/h | 18144m | 5.7m/s | -49.2°C | 0.9% | 77.15hPa | 2.7V | 00:00:00 | 00:00:00 | 00:00:00 | |
| DL3AQ-11 | 2026-08-31 07:42:40 | 53.04101 | 7.98567 | 45° | 27km/h | 18139m | 3.9m/s | -49.2°C | 0.9% | 77.2hPa | 2.7V | 00:00:00 | 00:00:00 | 00:00:00 | |
| DM0DOS-11 | 2026-08-31 07:42:39 | 53.04083 | 7.98545 | 29° | 27km/h | 18124m | 4.8m/s | -49.3°C | 3.1% | 77.4hPa | 2.7V | 08:30:00 | 01:07:07 | 00:00:00 | |
| DJ2DS-15 | 2026-08-31 07:42:39 | 53.04101 | 7.98567 | 46° | 31km/h | 18139m | 3.9m/s | -49.1°C | 3.1% | 77.2hPa | 2.7V | 00:00:00 | 01:07:10 | 00:00:00 | |
| DL1XH-15 | 2026-08-31 07:42:38 | 53.04065 | 7.98525 | 36° | 29km/h | 18108m | 4.7m/s | -49.4°C | 3.2% | 77.6hPa | 2.7V | 08:30:00 | 01:07:04 | 00:00:00 | |
| DO2JMG | 2026-08-31 07:42:38 | 53.04095 | 7.98559 | 41° | 29km/h | 18135m | 4.8m/s | -49.3°C | 0.1% | 77.3hPa | 2.6V | 18:12:15 | 01:07:09 | 00:00:00 | |
| DF8AY | 2026-08-31 07:42:35 | 53.04077 | 7.98539 | 33° | 27km/h | 18119m | 5.8m/s | -49.4°C | 0.1% | 77.4hPa | 2.8V | 18:12:15 | 01:07:06 | 00:00:00 | |
| HSKMA3-T | 2026-08-31 07:42:34 | 53.04071 | 7.98532 | 37° | 27km/h | 18113m | 4.9m/s | -49.3°C | 0.1% | 77.5hPa | 2.7V | 18:12:15 | 01:07:05 | 00:00:00 | |
| GOEST3-10 | 2026-08-31 07:42:33 | 53.04065 | 7.98525 | 37° | 29km/h | 18109m | 4.7m/s | -49.3°C | 3.2% | 77.5hPa | 2.6V | 00:00:00 | 00:00:00 | 00:00:00 | |
| DO2SHX-10 | 2026-08-31 07:42:32 | 53.04059 | 7.98518 | 33° | 29km/h | 18103m | 5.8m/s | -49.3°C | 3.2% | 77.6hPa | 2.6V | 00:00:00 | 01:07:03 | 00:00:00 | |
| DD1CC2-15 | 2026-08-31 07:42:31 | 53.04059 | 7.98518 | 33° | 29km/h | 18103m | 5.9m/s | -49.4°C | 1.0% | 77.6hPa | 2.6V | 00:00:00 | 00:00:00 | 00:00:00 | |
| DL1XH1-15 | 2026-08-31 07:42:30 | 53.04018 | 7.98465 | 29° | 33km/h | 18068m | 4.5m/s | -49.6°C | 3.2% | 78.1hPa | 2.6V | 08:30:00 | 01:06:56 | 00:00:00 | |
| DM0DOS-11 | 2026-08-31 07:42:29 | 53.04024 | 7.98472 | 34° | 31km/h | 18073m | 5.6m/s | -49.6°C | 3.3% | 78hPa | 2.6V | 08:30:00 | 01:06:57 | 00:00:00 | |
| DL1XH-west | 2026-08-31 07:42:28 | 53.04036 | 7.98489 | 46° | 29km/h | 18083m | 4.4m/s | -49.5°C | 0.1% | 77.9hPa | 2.7V | 18:12:15 | 01:06:59 | 00:00:00 | |
| DO2JMG | 2026-08-31 07:42:27 | 53.04030 | 7.98480 | 42° | 29km/h | 18078m | 5m/s | -49.5°C | 0.1% | 78hPa | 2.7V | 18:12:15 | 01:06:58 | 00:00:00 | |
| DF8AY | 2026-08-31 07:42:25 | 53.04018 | 7.98465 | 30° | 33km/h | 18068m | 4.5m/s | -49.6°C | 0.1% | 78.1hPa | 2.6V | 18:12:15 | 01:06:56 | 00:00:00 | |
| DB0DAN | 2026-08-31 07:42:25 | 53.04018 | 7.98465 | 30° | 31km/h | 18068m | 4.5m/s | -49.6°C | 0.9% | 78.06hPa | 2.6V | 00:00:00 | 00:00:00 | 00:00:00 | |
| AA1-15 | 2026-08-31 07:42:24 | 53.04010 | 7.98458 | 31° | 35km/h | 18063m | 6.2m/s | -49.7°C | 0.2% | 78.1hPa | 2.7V | 18:12:15 | 01:06:55 | 00:00:00 | |
| HSKMA3-T | 2026-08-31 07:42:23 | 53.04003 | 7.98450 | 31° | 37km/h | 18057m | 4.6m/s | -49.7°C | 0.2% | 78.2hPa | 2.8V | 18:12:15 | 01:06:54 | 00:00:00 | |
| DO2SHX-10 | 2026-08-31 07:42:23 | 53.04003 | 7.98450 | 31° | 37km/h | 18058m | 4.6m/s | -49.7°C | 3.3% | 78.1hPa | 2.7V | 00:00:00 | 01:06:54 | 00:00:00 | |
| DN9WHV | 2026-08-31 07:42:22 | 53.04002 | 7.98450 | 32° | 37km/h | 18058m | 4.6m/s | -49.7°C | 1.0% | 78.2hPa | 2.7V | 00:00:00 | 00:00:00 | 00:00:00 | |
| DN9WHV | 2026-08-31 07:42:21 | 53.03994 | 7.98443 | 29° | 37km/h | 18053m | 4.3m/s | -49.8°C | 1.0% | 78.2hPa | 2.7V | 00:00:00 | 00:00:00 | 00:00:00 | |
| DL1XH1-15 | 2026-08-31 07:42:20 | 53.03943 | 7.98393 | 39° | 33km/h | 18018m | 6m/s | -49.7°C | 3.3% | 78.6hPa | 2.7V | 08:30:00 | 01:06:46 | 00:00:00 | |
| DO2SHX-10 | 2026-08-31 07:42:20 | 53.03978 | 7.98430 | 21° | 35km/h | 18042m | 4.3m/s | -49.8°C | 3.3% | 78.3hPa | 2.6V | 00:00:00 | 01:06:51 | 00:00:00 | |
| DM0DOS-11 | 2026-08-31 07:42:19 | 53.03949 | 7.98402 | 42° | 33km/h | 18023m | 4.1m/s | -49.7°C | 3.3% | 78.6hPa | 2.6V | 08:30:00 | 01:06:47 | 00:00:00 | |
| DL1XH-west | 2026-08-31 07:42:18 | 53.03962 | 7.98419 | 31° | 33km/h | 18033m | 5.5m/s | -49.8°C | 0.2% | 78.5hPa | 2.7V | 18:12:15 | 01:06:49 | 00:00:00 | |
| BIOWL1-15 | 2026-08-31 07:42:17 | 53.03943 | 7.98393 | 40° | 33km/h | 18018m | 6m/s | -49.7°C | 0.2% | 78.6hPa | 2.7V | 18:12:15 | 01:06:46 | 00:00:00 | |
| DO2JMG | 2026-08-31 07:42:16 | 53.03949 | 7.98402 | 42° | 33km/h | 18023m | 4.1m/s | -49.7°C | 0.2% | 78.6hPa | 2.6V | 18:12:15 | 01:06:47 | 00:00:00 | |
| DF8AY | 2026-08-31 07:42:14 | 53.03937 | 7.98385 | 38° | 33km/h | 18013m | 4.6m/s | -49.6°C | 0.2% | 78.7hPa | 2.8V | 18:12:15 | 01:06:45 | 00:00:00 | |
| HSKMA3-T | 2026-08-31 07:42:13 | 53.03930 | 7.98376 | 40° | 35km/h | 18007m | 5.9m/s | -49.6°C | 0.2% | 78.8hPa | 2.7V | 18:12:15 | 01:06:44 | 00:00:00 | |
| GOEST3-10 | 2026-08-31 07:42:13 | 53.03930 | 7.98376 | 40° | 33km/h | 18008m | 5.9m/s | -49.5°C | 3.3% | 78.7hPa | 2.7V | 00:00:00 | 00:00:00 | 00:00:00 | |
| DC4HF-4 | 2026-08-31 07:42:12 | 53.03917 | 7.98358 | 39° | 33km/h | 17997m | 5.1m/s | -49.5°C | 0.9% | 78.9hPa | 2.7V | 00:00:00 | 00:00:00 | 00:00:00 | |
| DL4BBY-15 | 2026-08-31 07:42:11 | 53.03917 | 7.98358 | 40° | 31km/h | 17997m | 5.1m/s | -52.4°C | 0% | 0hPa | 2.7V | 00:00:00 | 00:00:00 | 00:00:00 | |
| DL1XH1-15 | 2026-08-31 07:42:10 | 53.03879 | 7.98309 | 38° | 31km/h | 17965m | 5.8m/s | -49.5°C | 3.2% | 79.3hPa | 2.7V | 08:30:00 | 01:06:36 | 00:00:00 | |
| DB0DAN | 2026-08-31 07:42:10 | 53.03910 | 7.98349 | 36° | 29km/h | 17991m | 6.4m/s | -49.5°C | 0.9% | 78.98hPa | 2.8V | 00:00:00 | 00:00:00 | 00:00:00 | |
| DM0DOS-11 | 2026-08-31 07:42:09 | 53.03885 | 7.98317 | 40° | 33km/h | 17970m | 4.7m/s | -49.5°C | 3.2% | 79.2hPa | 2.6V | 08:30:00 | 01:06:37 | 00:00:00 | |
| DF8AY-15 | 2026-08-31 07:42:09 | 53.03904 | 7.98342 | 35° | 33km/h | 17986m | 4.7m/s | -49.4°C | 3.2% | 79.0hPa | 2.8V | 00:00:00 | 01:06:40 | 00:00:00 | |
| DL1XH-15 | 2026-08-31 07:42:08 | 53.03867 | 7.98291 | 43° | 33km/h | 17955m | 4.8m/s | -49.5°C | 3.2% | 79.4hPa | 2.8V | 08:30:00 | 01:06:34 | 00:00:00 | |
| DL1XH-west | 2026-08-31 07:42:07 | 53.03892 | 7.98326 | 41° | 33km/h | 17975m | 5.1m/s | -49.5°C | 0.1% | 79.2hPa | 2.6V | 18:12:15 | 01:06:38 | 00:00:00 | |
| BIOWL1-15 | 2026-08-31 07:42:07 | 53.03879 | 7.98309 | 38° | 31km/h | 17965m | 5.8m/s | -49.6°C | 0.1% | 79.3hPa | 2.7V | 18:12:15 | 01:06:36 | 00:00:00 | |
| DO2JMG | 2026-08-31 07:42:06 | 53.03885 | 7.98317 | 41° | 33km/h | 17970m | 4.7m/s | -49.5°C | 0.1% | 79.2hPa | 2.6V | 18:12:15 | 01:06:37 | 00:00:00 | |
| DF8AY | 2026-08-31 07:42:04 | 53.03873 | 7.98300 | 40° | 31km/h | 17959m | 4.3m/s | -49.5°C | 0.2% | 79.4hPa | 2.8V | 18:12:15 | 01:06:35 | 00:00:00 | |
| AA1-15 | 2026-08-31 07:42:03 | 53.03867 | 7.98291 | 43° | 33km/h | 17955m | 4.8m/s | -49.6°C | 0.1% | 79.4hPa | 2.8V | 18:12:15 | 01:06:34 | 00:00:00 | |
| HSKMA3-T | 2026-08-31 07:42:02 | 53.03861 | 7.98281 | 47° | 35km/h | 17950m | 5.9m/s | -49.5°C | 0.2% | 79.5hPa | 2.7V | 18:12:15 | 01:06:33 | 00:00:00 | |
| DO2SHX-10 | 2026-08-31 07:42:02 | 53.03861 | 7.98281 | 47° | 35km/h | 17950m | 5.9m/s | -49.4°C | 3.2% | 79.5hPa | 2.7V | 00:00:00 | 01:06:33 | 00:00:00 | |
| DD1CC8 | 2026-08-31 07:42:01 | 53.03855 | 7.98270 | 49° | 35km/h | 17944m | 4.6m/s | -49.5°C | 1.0% | 79.6hPa | 2.6V | 00:00:00 | 00:00:00 | 00:00:00 | |
| DL1XH1-15 | 2026-08-31 07:42:00 | 53.03820 | 7.98210 | 46° | 31km/h | 17912m | 6m/s | -49.4°C | 3.1% | 80hPa | 2.6V | 08:30:00 | 01:06:26 | 00:00:00 | |
| DL3AQ-11 | 2026-08-31 07:42:00 | 53.03843 | 7.98249 | 45° | 31km/h | 17934m | 5.6m/s | -49.4°C | 0.9% | 79.7hPa | 2.7V | 00:00:00 | 00:00:00 | 00:00:00 | |
| DM0DOS-11 | 2026-08-31 07:41:59 | 53.03826 | 7.98220 | 48° | 33km/h | 17917m | 5.5m/s | -49.4°C | 3.1% | 79.9hPa | 2.7V | 08:30:00 | 01:06:27 | 00:00:00 | |
| DO2SHX-10 | 2026-08-31 07:41:59 | 53.03843 | 7.98249 | 46° | 33km/h | 17934m | 5.6m/s | -49.4°C | 3.2% | 79.6hPa | 2.7V | 00:00:00 | 01:06:30 | 00:00:00 | |
| DL1XH-15 | 2026-08-31 07:41:58 | 53.03811 | 7.98192 | 51° | 29km/h | 17901m | 4.7m/s | -49.4°C | 3.1% | 80.1hPa | 2.7V | 08:30:00 | 01:06:24 | 00:00:00 | |
| DL1XH-west | 2026-08-31 07:41:57 | 53.03831 | 7.98230 | 46° | 33km/h | 17923m | 6.7m/s | -49.4°C | 0.2% | 79.8hPa | 2.8V | 18:12:15 | 01:06:28 | 00:00:00 | |
| DO2JMG | 2026-08-31 07:41:56 | 53.03826 | 7.98220 | 48° | 33km/h | 17917m | 5.5m/s | -49.4°C | 0.1% | 79.9hPa | 2.7V | 18:12:15 | 01:06:27 | 00:00:00 | |
| BIOWL1-15 | 2026-08-31 07:41:54 | 53.03815 | 7.98201 | 48° | 29km/h | 17906m | 5.2m/s | -49.4°C | 0.1% | 80hPa | 2.7V | 18:12:15 | 01:06:25 | 00:00:00 | |
| DF8AY | 2026-08-31 07:41:53 | 53.03811 | 7.98192 | 52° | 29km/h | 17901m | 4.7m/s | -49.4°C | 0% | 80.1hPa | 2.7V | 18:12:15 | 01:06:24 | 00:00:00 | |
| HSKMA3-T | 2026-08-31 07:41:52 | 53.03806 | 7.98182 | 57° | 31km/h | 17896m | 6.5m/s | -49.4°C | 0.1% | 80.2hPa | 2.8V | 18:12:15 | 01:06:23 | 00:00:00 | |
| DN9WHV | 2026-08-31 07:41:51 | 53.03806 | 7.98182 | 58° | 31km/h | 17896m | 6.5m/s | -49.4°C | 0.9% | 80.2hPa | 2.6V | 00:00:00 | 00:00:00 | 00:00:00 | |
| DL1XH1-15 | 2026-08-31 07:41:50 | 53.03782 | 7.98114 | 50° | 24km/h | 17856m | 6.5m/s | -49.6°C | 3.2% | 80.6hPa | 2.6V | 08:30:00 | 01:06:16 | 00:00:00 | |
| DO2SHX-10 | 2026-08-31 07:41:50 | 53.03799 | 7.98158 | 64° | 27km/h | 17886m | 5.3m/s | -49.3°C | 3.1% | 80.2hPa | 2.8V | 00:00:00 | 01:06:21 | 00:00:00 | |
| DN9WHV | 2026-08-31 07:41:49 | 53.03799 | 7.98158 | 65° | 29km/h | 17886m | 5.3m/s | -49.4°C | 0.9% | 80.3hPa | 2.8V | 00:00:00 | 00:00:00 | 00:00:00 | |
| DL1XH-15 | 2026-08-31 07:41:48 | 53.03774 | 7.98097 | 55° | 27km/h | 17845m | 6.1m/s | -49.6°C | 3.2% | 80.8hPa | 2.8V | 08:30:00 | 01:06:14 | 00:00:00 | |
| DL1XH-west | 2026-08-31 07:41:46 | 53.03786 | 7.98122 | 55° | 26km/h | 17862m | 5.1m/s | -49.5°C | 0.1% | 80.6hPa | 2.7V | 18:12:15 | 01:06:17 | 00:00:00 | |
| DO2JMG | 2026-08-31 07:41:45 | 53.03782 | 7.98114 | 51° | 24km/h | 17856m | 6.5m/s | -49.6°C | 0.1% | 80.6hPa | 2.6V | 18:12:15 | 01:06:16 | 00:00:00 | |
| BIOWL1-15 | 2026-08-31 07:41:44 | 53.03778 | 7.98106 | 52° | 24km/h | 17850m | 5.5m/s | -49.5°C | 0.1% | 80.7hPa | 2.7V | 18:12:15 | 01:06:15 | 00:00:00 | |
| DF8AY | 2026-08-31 07:41:42 | 53.03770 | 7.98086 | 62° | 33km/h | 17839m | 5.2m/s | -49.6°C | 0.2% | 80.9hPa | 2.7V | 18:12:15 | 01:06:13 | 00:00:00 | |
| HSKMA3-T | 2026-08-31 07:41:41 | 53.03767 | 7.98074 | 67° | 35km/h | 17834m | 3.9m/s | -49.6°C | 0.1% | 80.9hPa | 2.7V | 18:12:15 | 01:06:12 | 00:00:00 | |
| DB0DAN | 2026-08-31 07:41:40 | 53.03764 | 7.98061 | 69° | 31km/h | 17829m | 6.4m/s | -49.6°C | 1% | 80.97hPa | 2.7V | 00:00:00 | 00:00:00 | 00:00:00 | |
| DC6BW-12 | 2026-08-31 07:41:40 | 53.03764 | 7.98061 | 70° | 33km/h | 17829m | 6.4m/s | -49.6°C | 1.0% | 81.0hPa | 2.8V | 00:00:00 | 00:00:00 | 00:00:00 | |
| DJ2DS-15 | 2026-08-31 07:41:39 | 53.03761 | 7.98048 | 68° | 31km/h | 17823m | 4.8m/s | -49.7°C | 1.0% | 81.0hPa | 2.8V | 00:00:00 | 00:00:00 | 00:00:00 | |
| DL1XH-15 | 2026-08-31 07:41:38 | 53.03737 | 7.97973 | 59° | 35km/h | 17791m | 6.5m/s | -49.7°C | 3.3% | 81.4hPa | 2.8V | 08:30:00 | 01:06:04 | 00:00:00 | |
| DF8AY | 2026-08-31 07:41:37 | 53.03733 | 7.97960 | 60° | 35km/h | 17785m | 4.5m/s | -49.8°C | 0.2% | 81.5hPa | 2.7V | 18:12:15 | 01:06:03 | 00:00:00 | |
| DL1XH-west | 2026-08-31 07:41:36 | 53.03750 | 7.98009 | 62° | 33km/h | 17807m | 5.6m/s | -49.8°C | 0.1% | 81.2hPa | 2.6V | 18:12:15 | 01:06:07 | 00:00:00 | |
| DO2JMG | 2026-08-31 07:41:34 | 53.03742 | 7.97985 | 60° | 33km/h | 17796m | 5m/s | -49.8°C | 0.2% | 81.4hPa | 2.7V | 18:12:15 | 01:06:05 | 00:00:00 | |
| HSKMA3-T | 2026-08-31 07:41:31 | 53.03729 | 7.97948 | 63° | 33km/h | 17779m | 7.5m/s | -49.7°C | 0.1% | 81.6hPa | 2.7V | 18:12:15 | 01:06:02 | 00:00:00 | |
| AA1-15 | 2026-08-31 07:41:30 | 53.03725 | 7.97936 | 64° | 31km/h | 17773m | 4.4m/s | -49.8°C | 0.2% | 81.7hPa | 2.6V | 18:12:15 | 01:06:01 | 00:00:00 | |
| DL1XH1-15 | 2026-08-31 07:41:30 | 53.03703 | 7.97878 | 45° | 31km/h | 17745m | 6.2m/s | -49.8°C | 3.2% | 82hPa | 2.7V | 08:30:00 | 01:05:56 | 00:00:00 | |
| DD1CC8 | 2026-08-31 07:41:30 | 53.03722 | 7.97924 | 62° | 33km/h | 17768m | 6.5m/s | -49.7°C | 1.0% | 81.8hPa | 2.7V | 00:00:00 | 00:00:00 | 00:00:00 | |
| DL1XH-15 | 2026-08-31 07:41:28 | 53.03691 | 7.97860 | 36° | 31km/h | 17733m | 4.5m/s | -49.9°C | 3.2% | 82.2hPa | 2.7V | 08:30:00 | 01:05:54 | 00:00:00 | |
| BIOWL1-15 | 2026-08-31 07:41:25 | 53.03691 | 7.97860 | 37° | 31km/h | 17733m | 4.5m/s | -49.9°C | 0.1% | 82.2hPa | 2.7V | 18:12:15 | 01:05:54 | 00:00:00 | |
| DB0DAN | 2026-08-31 07:41:25 | 53.03703 | 7.97878 | 46° | 31km/h | 17745m | 6.2m/s | -49.8°C | 1% | 82.02hPa | 2.7V | 00:00:00 | 00:00:00 | 00:00:00 | |
| DL1XH-west | 2026-08-31 07:41:25 | 53.03703 | 7.97878 | 46° | 31km/h | 17745m | 6.2m/s | -49.8°C | 0.1% | 82hPa | 2.7V | 18:12:15 | 01:05:56 | 00:00:00 | |
| DO2JMG | 2026-08-31 07:41:24 | 53.03697 | 7.97869 | 40° | 33km/h | 17738m | 6m/s | -49.9°C | 0.1% | 82.1hPa | 2.6V | 18:12:15 | 01:05:55 | 00:00:00 | |
| DF8AY | 2026-08-31 07:41:21 | 53.03679 | 7.97846 | 40° | 27km/h | 17722m | 4.4m/s | -50.1°C | 0.2% | 82.3hPa | 2.8V | 18:12:15 | 01:05:52 | 00:00:00 | |
| BIOWL7-15 | 2026-08-31 07:41:21 | 53.03679 | 7.97845 | 41° | 27km/h | 17722m | 4.4m/s | -50.1°C | 1.0% | 82.3hPa | 2.7V | 00:00:00 | 00:00:00 | 00:00:00 | |
| DL1XH1-15 | 2026-08-31 07:41:20 | 53.03656 | 7.97789 | 65° | 31km/h | 17689m | 5.7m/s | -50.2°C | 3.3% | 82.8hPa | 2.7V | 08:30:00 | 01:05:46 | 00:00:00 | |
| HSKMA3-T | 2026-08-31 07:41:20 | 53.03674 | 7.97838 | 44° | 27km/h | 17717m | 6.7m/s | -50.1°C | 0.2% | 82.4hPa | 2.8V | 18:12:15 | 01:05:51 | 00:00:00 | |
| AA1-15 | 2026-08-31 07:41:19 | 53.03669 | 7.97829 | 51° | 29km/h | 17711m | 4.4m/s | -50.1°C | 0.2% | 82.5hPa | 2.7V | 18:12:15 | 01:05:50 | 00:00:00 | |
| DL1XH-west | 2026-08-31 07:41:15 | 53.03656 | 7.97789 | 66° | 31km/h | 17689m | 5.7m/s | -50.2°C | 0.2% | 82.8hPa | 2.7V | 18:12:15 | 01:05:46 | 00:00:00 | |
| BIOWL1-15 | 2026-08-31 07:41:13 | 53.03650 | 7.97765 | 67° | 29km/h | 17677m | 7.2m/s | -50.3°C | 0.2% | 82.9hPa | 2.7V | 18:12:15 | 01:05:44 | 00:00:00 | |
| DF8AY | 2026-08-31 07:41:11 | 53.03644 | 7.97743 | 61° | 31km/h | 17665m | 7m/s | -50.3°C | 0.3% | 83hPa | 2.7V | 18:12:15 | 01:05:42 | 00:00:00 | |
| HSKMA3-T | 2026-08-31 07:41:10 | 53.03640 | 7.97732 | 60° | 31km/h | 17659m | 5m/s | -50.3°C | 0.3% | 83.1hPa | 2.7V | 18:12:15 | 01:05:41 | 00:00:00 | |
| DB0DAN | 2026-08-31 07:41:10 | 53.03640 | 7.97732 | 60° | 31km/h | 17659m | 5m/s | -50.3°C | 1% | 83.13hPa | 2.7V | 00:00:00 | 00:00:00 | 00:00:00 | |
| DM0DOS-11 | 2026-08-31 07:41:09 | 53.03627 | 7.97688 | 67° | 29km/h | 17637m | 6.3m/s | -50.3°C | 3.4% | 83.4hPa | 2.7V | 08:30:00 | 01:05:37 | 00:00:00 | |
| AA1-15 | 2026-08-31 07:41:08 | 53.03633 | 7.97710 | 66° | 29km/h | 17648m | 6m/s | -50.3°C | 0.2% | 83.3hPa | 2.8V | 18:12:15 | 01:05:39 | 00:00:00 | |
| DL1XH-15 | 2026-08-31 07:41:08 | 53.03618 | 7.97653 | 66° | 31km/h | 17619m | 6.6m/s | -50.3°C | 3.4% | 83.6hPa | 2.7V | 08:30:00 | 01:05:34 | 00:00:00 | |
| DL1XH-west | 2026-08-31 07:41:04 | 53.03621 | 7.97665 | 65° | 31km/h | 17625m | 5.8m/s | -50.3°C | 0.3% | 83.5hPa | 2.7V | 18:12:15 | 01:05:35 | 00:00:00 | |
| BIOWL1-15 | 2026-08-31 07:41:04 | 53.03615 | 7.97641 | 70° | 33km/h | 17614m | 3m/s | -50.2°C | 0.2% | 83.7hPa | 2.8V | 18:12:15 | 01:05:33 | 00:00:00 | |
| DO2JMG | 2026-08-31 07:41:03 | 53.03618 | 7.97653 | 67° | 31km/h | 17619m | 6.6m/s | -50.3°C | 0.3% | 83.6hPa | 2.7V | 18:12:15 | 01:05:34 | 00:00:00 | |
| HSKMA3-T | 2026-08-31 07:41:00 | 53.03608 | 7.97614 | 66° | 38km/h | 17604m | 5.2m/s | -50.2°C | 0.2% | 83.8hPa | 2.7V | 18:12:15 | 01:05:31 | 00:00:00 | |
| DO2SHX-10 | 2026-08-31 07:41:00 | 53.03608 | 7.97614 | 66° | 37km/h | 17604m | 5.2m/s | -50.1°C | 3.4% | 83.8hPa | 2.8V | 00:00:00 | 01:05:31 | 00:00:00 | |
| DM0DOS-11 | 2026-08-31 07:40:59 | 53.03594 | 7.97559 | 64° | 37km/h | 17581m | 7.4m/s | -50°C | 3.3% | 84.1hPa | 2.8V | 08:30:00 | 01:05:27 | 00:00:00 | |
| DD1CC8 | 2026-08-31 07:40:59 | 53.03601 | 7.97586 | 68° | 33km/h | 17593m | 6.2m/s | -50.1°C | 1.0% | 84.0hPa | 2.7V | 00:00:00 | 00:00:00 | 00:00:00 | |
| DL1XH-15 | 2026-08-31 07:40:58 | 53.03582 | 7.97517 | 67° | 37km/h | 17562m | 6.3m/s | -50°C | 3.3% | 84.4hPa | 2.7V | 08:30:00 | 01:05:24 | 00:00:00 | |
| AA1-15 | 2026-08-31 07:40:57 | 53.03598 | 7.97572 | 67° | 35km/h | 17587m | 4.6m/s | -50°C | 0.2% | 84hPa | 2.7V | 18:12:15 | 01:05:28 | 00:00:00 | |
| DL1XH-west | 2026-08-31 07:40:53 | 53.03582 | 7.97517 | 67° | 37km/h | 17562m | 6.4m/s | -50°C | 0.2% | 84.4hPa | 2.7V | 18:12:15 | 01:05:24 | 00:00:00 | |
| BIOWL1-15 | 2026-08-31 07:40:52 | 53.03564 | 7.97446 | 65° | 35km/h | 17533m | 4.8m/s | -50°C | 0.2% | 84.8hPa | 2.7V | 18:12:15 | 01:05:19 | 00:00:00 | |
| DO2JMG | 2026-08-31 07:40:52 | 53.03579 | 7.97503 | 68° | 37km/h | 17556m | 6.5m/s | -50°C | 0.1% | 84.4hPa | 2.7V | 18:12:15 | 01:05:23 | 00:00:00 | |
| HTAHTA | 2026-08-31 07:40:51 | 53.03568 | 7.97459 | 68° | 35km/h | 17538m | 7.2m/s | -50.0°C | 1.0% | 84.7hPa | 2.7V | 00:00:00 | 00:00:00 | 00:00:00 | |
| DL1XH1-15 | 2026-08-31 07:40:50 | 53.03550 | 7.97404 | 57° | 42km/h | 17515m | 5.4m/s | -50.1°C | 3.3% | 85hPa | 2.7V | 08:30:00 | 01:05:16 | 00:00:00 | |
| SONCRA | 2026-08-31 07:40:50 | 53.03571 | 7.97474 | 67° | 37km/h | 17544m | 4.1m/s | -49.9°C | 1.0% | 84.6hPa | 2.8V | 00:00:00 | 00:00:00 | 00:00:00 | |
| DM0DOS-11 | 2026-08-31 07:40:49 | 53.03555 | 7.97418 | 58° | 40km/h | 17521m | 7.2m/s | -50.1°C | 3.2% | 84.9hPa | 2.8V | 08:30:00 | 01:05:17 | 00:00:00 | |
| HSKMA3-T | 2026-08-31 07:40:49 | 53.03568 | 7.97459 | 68° | 35km/h | 17538m | 7.2m/s | -50°C | 0.2% | 84.7hPa | 2.7V | 18:12:15 | 01:05:20 | 00:00:00 | |
| DO2SHX-10 | 2026-08-31 07:40:49 | 53.03568 | 7.97459 | 69° | 37km/h | 17539m | 7.2m/s | -49.9°C | 3.2% | 84.6hPa | 2.8V | 00:00:00 | 01:05:20 | 00:00:00 | |
| DL1XH-15 | 2026-08-31 07:40:48 | 53.03539 | 7.97374 | 60° | 40km/h | 17503m | 4.3m/s | -50.2°C | 3.3% | 85.1hPa | 2.8V | 08:30:00 | 01:05:14 | 00:00:00 | |
| AA1-15 | 2026-08-31 07:40:46 | 53.03555 | 7.97419 | 59° | 40km/h | 17521m | 7.2m/s | -50.1°C | 0.1% | 84.9hPa | 2.8V | 18:12:15 | 01:05:17 | 00:00:00 | |
| D01LWL | 2026-08-31 07:40:46 | 53.03550 | 7.97404 | 57° | 42km/h | 17515m | 5.4m/s | -50.1°C | 1.0% | 85.0hPa | 2.8V | 00:00:00 | 00:00:00 | 00:00:00 | |
| EDDB2-12 | 2026-08-31 07:40:45 | 53.03550 | 7.97404 | 57° | 42km/h | 17515m | 5.4m/s | -50.1°C | 1.0% | 85.0hPa | 2.8V | 00:00:00 | 00:00:00 | 00:00:00 | |
| MET0W-2 | 2026-08-31 07:40:44 | 53.03544 | 7.97389 | 57° | 40km/h | 17509m | 7.7m/s | -50.1°C | 1.0% | 85.0hPa | 2.8V | 00:00:00 | 00:00:00 | 00:00:00 | |
| DL1XH-west | 2026-08-31 07:40:43 | 53.03539 | 7.97374 | 60° | 40km/h | 17503m | 4.3m/s | -50.2°C | 0.2% | 85.1hPa | 2.8V | 18:12:15 | 01:05:14 | 00:00:00 | |
| DO2JMG | 2026-08-31 07:40:42 | 53.03534 | 7.97359 | 63° | 42km/h | 17497m | 7.5m/s | -50.2°C | 0.2% | 85.2hPa | 2.8V | 18:12:15 | 01:05:13 | 00:00:00 | |
| BIOWL1-15 | 2026-08-31 07:40:41 | 53.03529 | 7.97343 | 67° | 44km/h | 17491m | 4m/s | -50.1°C | 0.2% | 85.3hPa | 2.7V | 18:12:15 | 01:05:12 | 00:00:00 | |
| DB0DAN | 2026-08-31 07:40:40 | 53.03526 | 7.97327 | 70° | 38km/h | 17486m | 5.8m/s | -50.1°C | 1% | 85.35hPa | 2.6V | 00:00:00 | 00:00:00 | 00:00:00 | |
| DO2SHX-10 | 2026-08-31 07:40:40 | 53.03525 | 7.97327 | 71° | 40km/h | 17486m | 5.7m/s | -50.1°C | 3.3% | 85.3hPa | 2.7V | 00:00:00 | 01:05:11 | 00:00:00 | |
| DL1XH1-15 | 2026-08-31 07:40:39 | 53.03508 | 7.97245 | 62° | 42km/h | 17457m | 7m/s | -50.2°C | 3.3% | 85.7hPa | 2.7V | 08:30:00 | 01:05:06 | 00:00:00 | |
| HSKMA3-T | 2026-08-31 07:40:39 | 53.03522 | 7.97311 | 72° | 38km/h | 17480m | 5.9m/s | -50.2°C | 0.2% | 85.4hPa | 2.7V | 18:12:15 | 01:05:10 | 00:00:00 | |
| DF8AY | 2026-08-31 07:40:38 | 53.03519 | 7.97295 | 74° | 40km/h | 17475m | 5m/s | -50.1°C | 0.1% | 85.5hPa | 2.7V | 18:12:15 | 01:05:09 | 00:00:00 | |
| AA1-15 | 2026-08-31 07:40:35 | 53.03508 | 7.97245 | 62° | 42km/h | 17458m | 7m/s | -50.2°C | 0.2% | 85.7hPa | 2.7V | 18:12:15 | 01:05:06 | 00:00:00 | |
| DO2JMG | 2026-08-31 07:40:32 | 53.03489 | 7.97198 | 52° | 49km/h | 17440m | 5.1m/s | -50.4°C | 0.2% | 86hPa | 2.7V | 18:12:15 | 01:05:03 | 00:00:00 | |
| BIOWL1-15 | 2026-08-31 07:40:31 | 53.03481 | 7.97183 | 49° | 47km/h | 17434m | 6.8m/s | -50.4°C | 0.2% | 86hPa | 2.8V | 18:12:15 | 01:05:02 | 00:00:00 | |
| HSKMA3-T | 2026-08-31 07:40:28 | 53.03460 | 7.97137 | 58° | 47km/h | 17418m | 6.1m/s | -50.6°C | 0.2% | 86.2hPa | 2.7V | 18:12:15 | 01:04:59 | 00:00:00 | |
| DO2SHX-10 | 2026-08-31 07:40:28 | 53.03460 | 7.97137 | 59° | 46km/h | 17418m | 6.1m/s | -50.6°C | 3.4% | 86.2hPa | 2.7V | 00:00:00 | 01:04:59 | 00:00:00 | |
| GOEST3-10 | 2026-08-31 07:40:27 | 53.03454 | 7.97119 | 63° | 40km/h | 17413m | 4.7m/s | -50.6°C | 3.4% | 86.3hPa | 2.7V | 00:00:00 | 01:04:58 | 00:00:00 | |
| DB0DAN | 2026-08-31 07:40:25 | 53.03444 | 7.97087 | 65° | 38km/h | 17401m | 5.7m/s | -50.7°C | 1% | 86.45hPa | 2.8V | 00:00:00 | 00:00:00 | 00:00:00 | |
| AA1-15 | 2026-08-31 07:40:24 | 53.03440 | 7.97072 | 63° | 38km/h | 17396m | 4.7m/s | -50.7°C | 0.3% | 86.5hPa | 2.7V | 18:12:15 | 01:04:55 | 00:00:00 | |
| DL1XH-west | 2026-08-31 07:40:22 | 53.03431 | 7.97044 | 61° | 40km/h | 17386m | 5.4m/s | -50.8°C | 0.3% | 86.7hPa | 2.8V | 18:12:15 | 01:04:53 | 00:00:00 | |
| DO2JMG | 2026-08-31 07:40:21 | 53.03425 | 7.97029 | 57° | 42km/h | 17382m | 4.4m/s | -50.8°C | 0.4% | 86.7hPa | 2.8V | 18:12:15 | 01:04:52 | 00:00:00 | |
| BIOWL1-15 | 2026-08-31 07:40:20 | 53.03419 | 7.97015 | 51° | 42km/h | 17376m | 6.6m/s | -50.9°C | 0.3% | 86.8hPa | 2.7V | 18:12:15 | 01:04:51 | 00:00:00 | |
| HSKMA3-T | 2026-08-31 07:40:18 | 53.03403 | 7.96990 | 40° | 47km/h | 17365m | 4.3m/s | -50.9°C | 0.3% | 87hPa | 2.8V | 18:12:15 | 01:04:49 | 00:00:00 | |
| DF8AY | 2026-08-31 07:40:17 | 53.03394 | 7.96977 | 40° | 51km/h | 17359m | 7.1m/s | -50.9°C | 0.4% | 87hPa | 2.8V | 18:12:15 | 01:04:48 | 00:00:00 | |
| AA1-15 | 2026-08-31 07:40:13 | 53.03353 | 7.96919 | 43° | 53km/h | 17336m | 6.4m/s | -50.8°C | 0.2% | 87.3hPa | 2.7V | 18:12:15 | 01:04:44 | 00:00:00 | |
| DL1XH-west | 2026-08-31 07:40:11 | 53.03334 | 7.96889 | 46° | 49km/h | 17325m | 5.9m/s | -50.7°C | 0.3% | 87.5hPa | 2.8V | 18:12:15 | 01:04:42 | 00:00:00 | |
| DO2JMG | 2026-08-31 07:40:10 | 53.03326 | 7.96875 | 44° | 46km/h | 17318m | 6.5m/s | -50.8°C | 0.3% | 87.6hPa | 2.7V | 18:12:15 | 01:04:41 | 00:00:00 | |
| DB0DAN | 2026-08-31 07:40:10 | 53.03326 | 7.96875 | 44° | 44km/h | 17318m | 6.5m/s | -50.8°C | 1.1% | 87.59hPa | 2.7V | 00:00:00 | 00:00:00 | 00:00:00 | |
| BIOWL1-15 | 2026-08-31 07:40:09 | 53.03318 | 7.96862 | 45° | 44km/h | 17313m | 5.3m/s | -50.7°C | 0.3% | 87.7hPa | 2.6V | 18:12:15 | 01:04:40 | 00:00:00 | |
| DM0DOS-11 | 2026-08-31 07:40:09 | 53.03294 | 7.96823 | 41° | 42km/h | 17295m | 6.9m/s | -50.8°C | 3.5% | 87.9hPa | 2.8V | 08:30:00 | 01:04:37 | 00:00:00 | |
| HSKMA3-T | 2026-08-31 07:40:08 | 53.03310 | 7.96849 | 45° | 46km/h | 17307m | 6.7m/s | -50.8°C | 0.3% | 87.7hPa | 2.7V | 18:12:15 | 01:04:39 | 00:00:00 | |
| DF8AY | 2026-08-31 07:40:07 | 53.03302 | 7.96836 | 44° | 44km/h | 17301m | 4.7m/s | -50.7°C | 0.3% | 87.8hPa | 2.7V | 18:12:15 | 01:04:38 | 00:00:00 | |
| AA1-15 | 2026-08-31 07:40:02 | 53.03257 | 7.96777 | 34° | 49km/h | 17273m | 4.9m/s | -50.8°C | 0.3% | 88.2hPa | 2.7V | 18:12:15 | 01:04:33 | 00:00:00 | |
| DL1XH-west | 2026-08-31 07:40:00 | 53.03236 | 7.96754 | 34° | 49km/h | 17262m | 4.8m/s | -50.8°C | 0.3% | 88.3hPa | 2.8V | 18:12:15 | 01:04:31 | 00:00:00 | |
| DL3AQ-11 | 2026-08-31 07:40:00 | 53.03226 | 7.96742 | 35° | 49km/h | 17256m | 6.7m/s | -50.8°C | 1.1% | 88.4hPa | 2.8V | 00:00:00 | 00:00:00 | 00:00:00 | |
| DM0DOS-11 | 2026-08-31 07:39:59 | 53.03199 | 7.96707 | 37° | 40km/h | 17239m | 4.6m/s | -50.6°C | 3.4% | 88.7hPa | 2.8V | 08:30:00 | 01:04:27 | 00:00:00 | |
| DO2JMG | 2026-08-31 07:39:59 | 53.03226 | 7.96742 | 36° | 49km/h | 17256m | 6.7m/s | -50.8°C | 0.4% | 88.4hPa | 2.7V | 18:12:15 | 01:04:30 | 00:00:00 | |
| BIOWL1-15 | 2026-08-31 07:39:58 | 53.03182 | 7.96686 | 37° | 42km/h | 17228m | 5.3m/s | -50.6°C | 0.3% | 88.8hPa | 2.7V | 18:12:15 | 01:04:25 | 00:00:00 | |
| HSKMA3-T | 2026-08-31 07:39:57 | 53.03207 | 7.96718 | 38° | 44km/h | 17245m | 7.2m/s | -50.7°C | 0.3% | 88.6hPa | 2.8V | 18:12:15 | 01:04:28 | 00:00:00 | |
| DF8AY | 2026-08-31 07:39:56 | 53.03198 | 7.96707 | 38° | 40km/h | 17239m | 4.6m/s | -50.6°C | 0.3% | 88.7hPa | 2.8V | 18:12:15 | 01:04:27 | 00:00:00 | |
| AA1-15 | 2026-08-31 07:39:52 | 53.03165 | 7.96668 | 31° | 40km/h | 17217m | 5.9m/s | -50.5°C | 0.3% | 89hPa | 2.8V | 18:12:15 | 01:04:23 | 00:00:00 | |
| DJ2DS-15 | 2026-08-31 07:39:51 | 53.03156 | 7.96659 | 32° | 38km/h | 17212m | 5.0m/s | -50.5°C | 1.0% | 89.0hPa | 2.7V | 00:00:00 | 00:00:00 | 00:00:00 | |
| DL1XH1-15 | 2026-08-31 07:39:50 | 53.03109 | 7.96590 | 46° | 44km/h | 17179m | 6.8m/s | -50.3°C | 3.3% | 89.5hPa | 2.7V | 08:30:00 | 01:04:16 | 00:00:00 | |
| DL1XH-west | 2026-08-31 07:39:49 | 53.03140 | 7.96638 | 42° | 42km/h | 17200m | 4.5m/s | -50.4°C | 0.2% | 89.2hPa | 2.7V | 18:12:15 | 01:04:20 | 00:00:00 | |
| DO2JMG | 2026-08-31 07:39:48 | 53.03132 | 7.96626 | 42° | 42km/h | 17196m | 5.1m/s | -50.4°C | 0.3% | 89.3hPa | 2.7V | 18:12:15 | 01:04:19 | 00:00:00 | |
| HSKMA3-T | 2026-08-31 07:39:47 | 53.03124 | 7.96615 | 42° | 40km/h | 17190m | 6m/s | -50.4°C | 0.3% | 89.3hPa | 2.8V | 18:12:15 | 01:04:18 | 00:00:00 | |
| DF8AY | 2026-08-31 07:39:46 | 53.03117 | 7.96603 | 43° | 42km/h | 17185m | 4.5m/s | -50.4°C | 0.3% | 89.4hPa | 2.8V | 18:12:15 | 01:04:17 | 00:00:00 | |
| BIOWL1-15 | 2026-08-31 07:39:44 | 53.03102 | 7.96577 | 50° | 44km/h | 17173m | 5.1m/s | -50.3°C | 0.3% | 89.5hPa | 2.7V | 18:12:15 | 01:04:15 | 00:00:00 | |
| AA1-15 | 2026-08-31 07:39:41 | 53.03081 | 7.96538 | 48° | 38km/h | 17157m | 5.1m/s | -50.3°C | 0.2% | 89.8hPa | 2.8V | 18:12:15 | 01:04:12 | 00:00:00 | |
| DB0DAN | 2026-08-31 07:39:40 | 53.03075 | 7.96525 | 49° | 38km/h | 17151m | 6.4m/s | -50.3°C | 1% | 89.88hPa | 2.8V | 00:00:00 | 00:00:00 | 00:00:00 | |
| DL1XH-west | 2026-08-31 07:39:39 | 53.03068 | 7.96513 | 47° | 40km/h | 17146m | 4.1m/s | -50.3°C | 0.2% | 89.9hPa | 2.8V | 18:12:15 | 01:04:10 | 00:00:00 | |
| DM0DOS-11 | 2026-08-31 07:39:39 | 53.03048 | 7.96480 | 45° | 37km/h | 17131m | 4.8m/s | -50.4°C | 3.3% | 90.2hPa | 2.8V | 08:30:00 | 01:04:07 | 00:00:00 | |
| SONDE2-11 | 2026-08-31 07:39:39 | 53.03061 | 7.96501 | 43° | 37km/h | 17141m | 6.4m/s | -50.3°C | 1.0% | 90.0hPa | 2.7V | 00:00:00 | 00:00:00 | 00:00:00 | |
| DL1XH-15 | 2026-08-31 07:39:38 | 53.03030 | 7.96443 | 56° | 37km/h | 17115m | 6.5m/s | -50.6°C | 3.4% | 90.4hPa | 2.7V | 08:30:00 | 01:04:04 | 00:00:00 | |
| DO2JMG | 2026-08-31 07:39:37 | 53.03054 | 7.96491 | 43° | 35km/h | 17136m | 4.3m/s | -50.4°C | 0.2% | 90.1hPa | 2.7V | 18:12:15 | 01:04:08 | 00:00:00 | |
| HSKMA3-T | 2026-08-31 07:39:36 | 53.03048 | 7.96480 | 46° | 37km/h | 17131m | 4.8m/s | -50.4°C | 0.2% | 90.2hPa | 2.8V | 18:12:15 | 01:04:07 | 00:00:00 | |
| DF8AY | 2026-08-31 07:39:35 | 53.03041 | 7.96469 | 51° | 38km/h | 17125m | 6.4m/s | -50.4°C | 0.1% | 90.2hPa | 2.8V | 18:12:15 | 01:04:06 | 00:00:00 | |
| BIOWL1-15 | 2026-08-31 07:39:34 | 53.03035 | 7.96456 | 56° | 38km/h | 17120m | 4.2m/s | -50.5°C | 0.2% | 90.3hPa | 2.7V | 18:12:15 | 01:04:05 | 00:00:00 | |
| DO2SHX-10 | 2026-08-31 07:39:33 | 53.03030 | 7.96442 | 57° | 38km/h | 17115m | 6.5m/s | -50.5°C | 3.4% | 90.3hPa | 2.8V | 00:00:00 | 01:04:04 | 00:00:00 | |
| DK9SH | 2026-08-31 07:39:31 | 53.03025 | 7.96430 | 61° | 35km/h | 17109m | 4.4m/s | -50.6°C | 1.0% | 90.4hPa | 2.8V | 00:00:00 | 00:00:00 | 00:00:00 | |
| DL1XH1-15 | 2026-08-31 07:39:30 | 53.02993 | 7.96334 | 55° | 38km/h | 17072m | 4.1m/s | -50.5°C | 3.4% | 91hPa | 2.8V | 08:30:00 | 01:03:56 | 00:00:00 | |
| AA1-15 | 2026-08-31 07:39:30 | 53.03016 | 7.96402 | 62° | 38km/h | 17098m | 5.6m/s | -50.6°C | 0.3% | 90.6hPa | 2.8V | 18:12:15 | 01:04:01 | 00:00:00 | |
| GOEST3-10 | 2026-08-31 07:39:30 | 53.03016 | 7.96402 | 63° | 37km/h | 17098m | 5.5m/s | -50.5°C | 3.4% | 90.6hPa | 2.8V | 00:00:00 | 00:00:00 | 00:00:00 | |
| DM0DOS-11 | 2026-08-31 07:39:29 | 53.02998 | 7.96348 | 59° | 38km/h | 17077m | 5.8m/s | -50.5°C | 3.4% | 90.8hPa | 2.8V | 08:30:00 | 01:03:57 | 00:00:00 | |
| DL1XH-west | 2026-08-31 07:39:28 | 53.03007 | 7.96374 | 61° | 37km/h | 17086m | 5.3m/s | -50.5°C | 0.3% | 90.8hPa | 2.7V | 18:12:15 | 01:03:59 | 00:00:00 | |
| DO2JMG | 2026-08-31 07:39:27 | 53.03003 | 7.96361 | 60° | 37km/h | 17082m | 3.5m/s | -50.5°C | 0.3% | 90.8hPa | 2.7V | 18:12:15 | 01:03:58 | 00:00:00 | |
| HSKMA3-T | 2026-08-31 07:39:26 | 53.02998 | 7.96348 | 60° | 38km/h | 17077m | 5.8m/s | -50.5°C | 0.2% | 90.9hPa | 2.8V | 18:12:15 | 01:03:57 | 00:00:00 | |
| DF8AY | 2026-08-31 07:39:25 | 53.02993 | 7.96334 | 56° | 38km/h | 17072m | 4.1m/s | -50.5°C | 0.3% | 91hPa | 2.8V | 18:12:15 | 01:03:56 | 00:00:00 | |
| DB0DAN | 2026-08-31 07:39:25 | 53.02993 | 7.96334 | 56° | 37km/h | 17072m | 4.1m/s | -50.5°C | 1.1% | 90.96hPa | 2.8V | 00:00:00 | 00:00:00 | 00:00:00 | |
| BIOWL1-15 | 2026-08-31 07:39:24 | 53.02976 | 7.96301 | 43° | 33km/h | 17058m | 4.2m/s | -50.4°C | 0.2% | 91.2hPa | 2.7V | 18:12:15 | 01:03:53 | 00:00:00 | |
| DN9WHV | 2026-08-31 07:39:23 | 53.02988 | 7.96322 | 54° | 37km/h | 17068m | 4.8m/s | -50.5°C | 1.1% | 91.0hPa | 2.8V | 00:00:00 | 00:00:00 | 00:00:00 | |
| DN9WHV | 2026-08-31 07:39:22 | 53.02982 | 7.96311 | 48° | 33km/h | 17063m | 5.6m/s | -50.5°C | 1.1% | 91.1hPa | 2.8V | 00:00:00 | 00:00:00 | 00:00:00 | |
| DO2SHX-10 | 2026-08-31 07:39:21 | 53.02970 | 7.96292 | 44° | 40km/h | 17053m | 6.0m/s | -50.4°C | 3.4% | 91.2hPa | 2.8V | 00:00:00 | 01:03:52 | 00:00:00 | |
| DL1XH1-15 | 2026-08-31 07:39:20 | 53.02939 | 7.96213 | 61° | 44km/h | 17020m | 5.3m/s | -50.4°C | 3.4% | 91.7hPa | 2.8V | 08:30:00 | 01:03:46 | 00:00:00 | |
| AA1-15 | 2026-08-31 07:39:19 | 53.02959 | 7.96270 | 55° | 35km/h | 17042m | 6.3m/s | -50.4°C | 0.3% | 91.4hPa | 2.8V | 18:12:15 | 01:03:50 | 00:00:00 | |
| DM0DOS-11 | 2026-08-31 07:39:19 | 53.02944 | 7.96229 | 60° | 44km/h | 17026m | 5.2m/s | -50.4°C | 3.4% | 91.6hPa | 2.7V | 08:30:00 | 01:03:47 | 00:00:00 | |
| DL1XH-west | 2026-08-31 07:39:18 | 53.02954 | 7.96257 | 60° | 35km/h | 17036m | 4.2m/s | -50.4°C | 0.3% | 91.5hPa | 2.8V | 18:12:15 | 01:03:49 | 00:00:00 | |
| DO2JMG | 2026-08-31 07:39:16 | 53.02944 | 7.96229 | 60° | 44km/h | 17026m | 5.2m/s | -50.4°C | 0.2% | 91.6hPa | 2.7V | 18:12:15 | 01:03:47 | 00:00:00 | |
| HSKMA3-T | 2026-08-31 07:39:15 | 53.02939 | 7.96213 | 61° | 44km/h | 17021m | 5.3m/s | -50.4°C | 0.2% | 91.7hPa | 2.8V | 18:12:15 | 01:03:46 | 00:00:00 | |
| DF8AY | 2026-08-31 07:39:14 | 53.02934 | 7.96197 | 60° | 42km/h | 17015m | 5.4m/s | -50.3°C | 0.3% | 91.8hPa | 2.8V | 18:12:15 | 01:03:45 | 00:00:00 | |
| BIOWL1-15 | 2026-08-31 07:39:12 | 53.02922 | 7.96167 | 53° | 44km/h | 17005m | 5.7m/s | -50.3°C | 0.3% | 91.9hPa | 2.7V | 18:12:15 | 01:03:43 | 00:00:00 | |
| DO2SHX-10 | 2026-08-31 07:39:12 | 53.02921 | 7.96167 | 53° | 40km/h | 17005m | 5.7m/s | -50.3°C | 3.4% | 91.9hPa | 2.7V | 00:00:00 | 01:03:43 | 00:00:00 | |
| DN9WHV | 2026-08-31 07:39:11 | 53.02922 | 7.96167 | 54° | 44km/h | 17005m | 5.7m/s | -50.3°C | 1.1% | 91.9hPa | 2.8V | 00:00:00 | 00:00:00 | 00:00:00 | |
| DB0DAN | 2026-08-31 07:39:10 | 53.02908 | 7.96140 | 49° | 37km/h | 16994m | 6.3m/s | -50.3°C | 1.1% | 92.06hPa | 2.8V | 00:00:00 | 00:00:00 | 00:00:00 | |
| GOEST3-10 | 2026-08-31 07:39:10 | 53.02908 | 7.96140 | 50° | 38km/h | 16994m | 6.2m/s | -50.2°C | 3.4% | 92.0hPa | 2.7V | 00:00:00 | 00:00:00 | 00:00:00 | |
| DM0DOS-11 | 2026-08-31 07:39:09 | 53.02884 | 7.96090 | 54° | 44km/h | 16974m | 4.7m/s | -50.2°C | 3.4% | 92.3hPa | 2.7V | 08:30:00 | 01:03:37 | 00:00:00 | |
| AA1-15 | 2026-08-31 07:39:08 | 53.02896 | 7.96117 | 51° | 37km/h | 16985m | 4m/s | -50.3°C | 0.3% | 92.2hPa | 2.7V | 18:12:15 | 01:03:39 | 00:00:00 | |
| DL1XH-15 | 2026-08-31 07:39:08 | 53.02865 | 7.96046 | 54° | 46km/h | 16958m | 5.2m/s | -50.3°C | 3.4% | 92.6hPa | 2.8V | 08:30:00 | 01:03:34 | 00:00:00 | |
| DL1XH-west | 2026-08-31 07:39:07 | 53.02890 | 7.96104 | 53° | 40km/h | 16980m | 6.1m/s | -50.2°C | 0.3% | 92.2hPa | 2.7V | 18:12:15 | 01:03:38 | 00:00:00 | |
| DO2JMG | 2026-08-31 07:39:05 | 53.02878 | 7.96076 | 54° | 42km/h | 16969m | 5.9m/s | -50.2°C | 0.3% | 92.4hPa | 2.8V | 18:12:15 | 01:03:36 | 00:00:00 | |
| DF8AY | 2026-08-31 07:39:04 | 53.02871 | 7.96061 | 53° | 44km/h | 16964m | 5m/s | -50.3°C | 0.2% | 92.5hPa | 2.8V | 18:12:15 | 01:03:35 | 00:00:00 | |
| BIOWL1-15 | 2026-08-31 07:39:02 | 53.02858 | 7.96029 | 55° | 49km/h | 16953m | 6.1m/s | -50.3°C | 0.3% | 92.6hPa | 2.7V | 18:12:15 | 01:03:33 | 00:00:00 | |
| DN9WHV | 2026-08-31 07:39:01 | 53.02858 | 7.96029 | 56° | 49km/h | 16953m | 6.1m/s | -50.3°C | 1.1% | 92.6hPa | 2.7V | 00:00:00 | 00:00:00 | 00:00:00 | |
| DL1XH1-15 | 2026-08-31 07:39:00 | 53.02808 | 7.95915 | 51° | 44km/h | 16915m | 6m/s | -50.3°C | 3.4% | 93.2hPa | 2.7V | 08:30:00 | 01:03:26 | 00:00:00 | |
| GOEST3-10 | 2026-08-31 07:39:00 | 53.02843 | 7.95995 | 56° | 47km/h | 16942m | 6.4m/s | -50.2°C | 3.4% | 92.7hPa | 2.8V | 00:00:00 | 00:00:00 | 00:00:00 | |
| DN9WHV | 2026-08-31 07:38:59 | 53.02843 | 7.95995 | 56° | 49km/h | 16942m | 6.5m/s | -50.3°C | 1.0% | 92.8hPa | 2.8V | 00:00:00 | 00:00:00 | 00:00:00 | |
| DL1XH-15 | 2026-08-31 07:38:58 | 53.02795 | 7.95887 | 50° | 44km/h | 16905m | 5.8m/s | -50.3°C | 3.5% | 93.4hPa | 2.8V | 08:30:00 | 01:03:24 | 00:00:00 | |
| AA1-15 | 2026-08-31 07:38:57 | 53.02822 | 7.95946 | 55° | 47km/h | 16926m | 4.9m/s | -50.3°C | 0.3% | 93hPa | 2.8V | 18:12:15 | 01:03:28 | 00:00:00 | |
| DL1XH-west | 2026-08-31 07:38:56 | 53.02815 | 7.95930 | 53° | 46km/h | 16921m | 5.2m/s | -50.3°C | 0.3% | 93.1hPa | 2.7V | 18:12:15 | 01:03:27 | 00:00:00 | |
| DO2JMG | 2026-08-31 07:38:55 | 53.02808 | 7.95915 | 52° | 44km/h | 16915m | 6m/s | -50.3°C | 0.3% | 93.2hPa | 2.7V | 18:12:15 | 01:03:26 | 00:00:00 | |
| DB0DAN | 2026-08-31 07:38:55 | 53.02808 | 7.95915 | 51° | 42km/h | 16915m | 6m/s | -50.3°C | 1.1% | 93.17hPa | 2.7V | 00:00:00 | 00:00:00 | 00:00:00 | |
| HSKMA3-T | 2026-08-31 07:38:54 | 53.02801 | 7.95901 | 50° | 42km/h | 16910m | 4.1m/s | -50.4°C | 0.2% | 93.3hPa | 2.8V | 18:12:15 | 01:03:25 | 00:00:00 | |
| DF8AY | 2026-08-31 07:38:53 | 53.02795 | 7.95887 | 51° | 44km/h | 16905m | 5.8m/s | -50.3°C | 0.3% | 93.4hPa | 2.8V | 18:12:15 | 01:03:24 | 00:00:00 | |
| BIOWL1-15 | 2026-08-31 07:38:51 | 53.02763 | 7.95832 | 44° | 46km/h | 16885m | 4m/s | -50.2°C | 0.3% | 93.6hPa | 2.8V | 18:12:15 | 01:03:20 | 00:00:00 | |
| DL1XH1-15 | 2026-08-31 07:38:50 | 53.02727 | 7.95776 | 39° | 53km/h | 16863m | 4.8m/s | -50.1°C | 3.3% | 93.9hPa | 2.7V | 08:30:00 | 01:03:16 | 00:00:00 | |
| GOEST3-10 | 2026-08-31 07:38:50 | 53.02772 | 7.95845 | 44° | 47km/h | 16890m | 5.5m/s | -50.2°C | 3.4% | 93.5hPa | 2.8V | 00:00:00 | 00:00:00 | 00:00:00 | |
| DO2SHX-10 | 2026-08-31 07:38:49 | 53.02763 | 7.95832 | 44° | 47km/h | 16886m | 4.0m/s | -50.2°C | 3.4% | 93.6hPa | 2.8V | 00:00:00 | 01:03:20 | 00:00:00 | |
| DL1XH-15 | 2026-08-31 07:38:48 | 53.02705 | 7.95747 | 38° | 57km/h | 16852m | 4.3m/s | -50°C | 3.3% | 94.1hPa | 2.8V | 08:30:00 | 01:03:14 | 00:00:00 | |
| AA1-15 | 2026-08-31 07:38:46 | 53.02737 | 7.95790 | 42° | 51km/h | 16869m | 6.9m/s | -50.1°C | 0.3% | 93.8hPa | 2.7V | 18:12:15 | 01:03:17 | 00:00:00 | |
| DL1XH-west | 2026-08-31 07:38:45 | 53.02727 | 7.95776 | 39° | 53km/h | 16863m | 4.8m/s | -50.1°C | 0.2% | 93.9hPa | 2.7V | 18:12:15 | 01:03:16 | 00:00:00 | |
| DO2JMG | 2026-08-31 07:38:44 | 53.02716 | 7.95762 | 39° | 57km/h | 16858m | 6.3m/s | -50.1°C | 0.3% | 94hPa | 2.8V | 18:12:15 | 01:03:15 | 00:00:00 | |
| DF8AY | 2026-08-31 07:38:42 | 53.02694 | 7.95732 | 36° | 55km/h | 16847m | 6.1m/s | -50.1°C | 0.2% | 94.2hPa | 2.8V | 18:12:15 | 01:03:13 | 00:00:00 | |
| BIOWL1-15 | 2026-08-31 07:38:40 | 53.02672 | 7.95708 | 35° | 49km/h | 16836m | 4.9m/s | -50.1°C | 0.2% | 94.3hPa | 2.7V | 18:12:15 | 01:03:11 | 00:00:00 | |
| DB0DAN | 2026-08-31 07:38:40 | 53.02672 | 7.95708 | 35° | 46km/h | 16836m | 4.9m/s | -50.1°C | 1% | 94.34hPa | 2.7V | 00:00:00 | 00:00:00 | 00:00:00 | |
| DL3AQ-11 | 2026-08-31 07:38:40 | 53.02663 | 7.95696 | 37° | 46km/h | 16831m | 5.6m/s | -50.0°C | 1.0% | 94.4hPa | 2.8V | 00:00:00 | 00:00:00 | 00:00:00 | |
| DL1XH-15 | 2026-08-31 07:38:38 | 53.02610 | 7.95630 | 37° | 47km/h | 16799m | 5.8m/s | -49.9°C | 3.3% | 94.9hPa | 2.8V | 08:30:00 | 01:03:04 | 00:00:00 | |
| DM0DOS-11 | 2026-08-31 07:38:38 | 53.02636 | 7.95664 | 34° | 42km/h | 16816m | 4.7m/s | -50°C | 3.3% | 94.7hPa | 2.8V | 08:30:00 | 01:03:07 | 00:00:00 | |
| AA1-15 | 2026-08-31 07:38:35 | 53.02628 | 7.95654 | 38° | 44km/h | 16810m | 6.8m/s | -50°C | 0.2% | 94.7hPa | 2.7V | 18:12:15 | 01:03:06 | 00:00:00 | |
| DL1XH-west | 2026-08-31 07:38:34 | 53.02619 | 7.95642 | 40° | 46km/h | 16805m | 4.2m/s | -49.9°C | 0.2% | 94.8hPa | 2.7V | 18:12:15 | 01:03:05 | 00:00:00 | |
| DO2JMG | 2026-08-31 07:38:33 | 53.02610 | 7.95630 | 38° | 47km/h | 16800m | 5.8m/s | -49.9°C | 0.2% | 94.9hPa | 2.8V | 18:12:15 | 01:03:04 | 00:00:00 | |
| DF8AY | 2026-08-31 07:38:32 | 53.02600 | 7.95618 | 35° | 49km/h | 16794m | 5.6m/s | -49.9°C | 0.2% | 95hPa | 2.8V | 18:12:15 | 01:03:03 | 00:00:00 | |
| BIOWL1-15 | 2026-08-31 07:38:32 | 53.02580 | 7.95595 | 35° | 47km/h | 16783m | 5.5m/s | -49.8°C | 0.2% | 95.1hPa | 2.7V | 18:12:15 | 01:03:01 | 00:00:00 | |
| BUE01 | 2026-08-31 07:38:31 | 53.02590 | 7.95606 | 35° | 47km/h | 16789m | 4.9m/s | -49.8°C | 1.0% | 95.0hPa | 2.8V | 00:00:00 | 00:00:00 | 00:00:00 | |
| GOEST3-10 | 2026-08-31 07:38:30 | 53.02580 | 7.95595 | 36° | 44km/h | 16784m | 5.5m/s | -49.8°C | 3.4% | 95.1hPa | 2.8V | 00:00:00 | 00:00:00 | 00:00:00 | |
| DL1LOL-11 | 2026-08-31 07:38:29 | 53.02580 | 7.95595 | 36° | 47km/h | 16784m | 5.5m/s | -49.8°C | 1.0% | 95.1hPa | 2.8V | 00:00:00 | 00:00:00 | 00:00:00 | |
| DL1XH-15 | 2026-08-31 07:38:28 | 53.02514 | 7.95536 | 30° | 38km/h | 16748m | 4.6m/s | -49.5°C | 3.3% | 95.6hPa | 2.8V | 08:30:00 | 01:02:54 | 00:00:00 | |
| DM0DOS-11 | 2026-08-31 07:38:28 | 53.02541 | 7.95560 | 23° | 42km/h | 16763m | 3.7m/s | -49.6°C | 3.3% | 95.4hPa | 2.7V | 08:30:00 | 01:02:57 | 00:00:00 | |
| DN9WHV | 2026-08-31 07:38:27 | 53.02560 | 7.95574 | 29° | 44km/h | 16773m | 6.9m/s | -49.7°C | 1.0% | 95.3hPa | 2.7V | 00:00:00 | 00:00:00 | 00:00:00 | |
| DN9WHV | 2026-08-31 07:38:26 | 53.02551 | 7.95567 | 25° | 42km/h | 16767m | 4.6m/s | -49.7°C | 1.1% | 95.4hPa | 2.7V | 00:00:00 | 00:00:00 | 00:00:00 | |
| DB0DAN | 2026-08-31 07:38:25 | 53.02532 | 7.95552 | 27° | 38km/h | 16758m | 6.1m/s | -49.6°C | 1.1% | 95.48hPa | 2.7V | 00:00:00 | 00:00:00 | 00:00:00 | |
| AA1-15 | 2026-08-31 07:38:24 | 53.02523 | 7.95544 | 32° | 40km/h | 16753m | 4.1m/s | -49.6°C | 0.2% | 95.6hPa | 2.7V | 18:12:15 | 01:02:55 | 00:00:00 | |
| DO2JMG | 2026-08-31 07:38:23 | 53.02514 | 7.95536 | 31° | 38km/h | 16748m | 4.6m/s | -49.5°C | 0.2% | 95.6hPa | 2.8V | 18:12:15 | 01:02:54 | 00:00:00 | |
| DF8AY | 2026-08-31 07:38:21 | 53.02497 | 7.95520 | 27° | 42km/h | 16737m | 5m/s | -49.5°C | 0.2% | 95.8hPa | 2.8V | 18:12:15 | 01:02:52 | 00:00:00 | |
| BIOWL1-15 | 2026-08-31 07:38:19 | 53.02477 | 7.95502 | 30° | 47km/h | 16726m | 4.9m/s | -49.5°C | 0.1% | 95.9hPa | 2.7V | 18:12:15 | 01:02:50 | 00:00:00 | |
| DL1XH-15 | 2026-08-31 07:38:18 | 53.02420 | 7.95452 | 29° | 33km/h | 16695m | 6.4m/s | -49.4°C | 3.2% | 96.4hPa | 2.7V | 08:30:00 | 01:02:44 | 00:00:00 | |
| DL1XH-west | 2026-08-31 07:38:13 | 53.02420 | 7.95452 | 30° | 33km/h | 16695m | 6.4m/s | -49.4°C | 0.1% | 96.4hPa | 2.7V | 18:12:15 | 01:02:44 | 00:00:00 | |
| DO2JMG | 2026-08-31 07:38:12 | 53.02413 | 7.95446 | 27° | 31km/h | 16689m | 5.1m/s | -49.3°C | 0.2% | 96.5hPa | 2.8V | 18:12:15 | 01:02:43 | 00:00:00 | |
| DF8AY | 2026-08-31 07:38:11 | 53.02406 | 7.95440 | 29° | 33km/h | 16684m | 4.5m/s | -49.3°C | 0.2% | 96.6hPa | 2.8V | 18:12:15 | 01:02:42 | 00:00:00 | |
| DB0DAN | 2026-08-31 07:38:10 | 53.02398 | 7.95432 | 31° | 35km/h | 16679m | 5.4m/s | -49.2°C | 1.1% | 96.66hPa | 2.7V | 00:00:00 | 00:00:00 | 00:00:00 | |
| DO2SHX-10 | 2026-08-31 07:38:09 | 53.02390 | 7.95424 | 32° | 40km/h | 16674m | 5.0m/s | -49.1°C | 3.3% | 96.7hPa | 2.7V | 00:00:00 | 01:02:40 | 00:00:00 | |
| BIOWL1-15 | 2026-08-31 07:38:09 | 53.02390 | 7.95424 | 32° | 40km/h | 16674m | 5m/s | -49.2°C | 0.2% | 96.7hPa | 2.7V | 18:12:15 | 01:02:40 | 00:00:00 | |
| DL1XH-15 | 2026-08-31 07:38:08 | 53.02337 | 7.95365 | 41° | 37km/h | 16643m | 5.3m/s | -49°C | 3.2% | 97.2hPa | 2.7V | 08:30:00 | 01:02:34 | 00:00:00 | |
| DM0DOS-11 | 2026-08-31 07:38:08 | 53.02362 | 7.95398 | 30° | 44km/h | 16658m | 4.4m/s | -49.2°C | 3.3% | 97hPa | 2.8V | 08:30:00 | 01:02:37 | 00:00:00 | |
| HSKMA3-T | 2026-08-31 07:38:03 | 53.02336 | 7.95365 | 42° | 37km/h | 16643m | 5.3m/s | -49.1°C | 0.1% | 97.2hPa | 2.7V | 18:12:15 | 01:02:34 | 00:00:00 | |
| DO2JMG | 2026-08-31 07:38:02 | 53.02330 | 7.95356 | 40° | 35km/h | 16638m | 5.5m/s | -49°C | 0.1% | 97.3hPa | 2.8V | 18:12:15 | 01:02:33 | 00:00:00 | |
| DF8AY | 2026-08-31 07:38:01 | 53.02317 | 7.95338 | 41° | 33km/h | 16627m | 7.2m/s | -49.1°C | 0.1% | 97.4hPa | 2.8V | 18:12:15 | 01:02:31 | 00:00:00 | |
| DL1NUX | 2026-08-31 07:38:00 | 53.02280 | 7.95297 | 33° | 37km/h | 16599m | 5.3m/s | -49°C | 3.2% | 97.8hPa | 2.8V | 08:30:00 | 01:02:26 | 00:00:00 | |
| BIOWL1-15 | 2026-08-31 07:37:59 | 53.02310 | 7.95328 | 40° | 35km/h | 16621m | 4.9m/s | -49.1°C | 0.1% | 97.5hPa | 2.7V | 18:12:15 | 01:02:30 | 00:00:00 | |
| DL1XH-15 | 2026-08-31 07:37:58 | 53.02266 | 7.95280 | 36° | 31km/h | 16589m | 6.2m/s | -48.9°C | 3.1% | 98hPa | 2.7V | 08:30:00 | 01:02:24 | 00:00:00 | |
| DM0DOS-11 | 2026-08-31 07:37:58 | 53.02288 | 7.95305 | 29° | 37km/h | 16604m | 5.3m/s | -49.1°C | 3.2% | 97.7hPa | 2.8V | 08:30:00 | 01:02:27 | 00:00:00 | |
| DL4XJ-10 | 2026-08-31 07:37:58 | 53.02303 | 7.95319 | 34° | 35km/h | 16615m | 6.6m/s | -52.1°C | 0% | 0hPa | 2.8V | 00:00:00 | 00:00:00 | 00:00:00 | |
| DN9WHV | 2026-08-31 07:37:57 | 53.02303 | 7.95319 | 35° | 35km/h | 16615m | 6.6m/s | -49.1°C | 1.0% | 97.6hPa | 2.8V | 00:00:00 | 00:00:00 | 00:00:00 | |
| DN9WHV | 2026-08-31 07:37:56 | 53.02296 | 7.95312 | 30° | 35km/h | 16609m | 4.9m/s | -49.1°C | 1.0% | 97.7hPa | 2.8V | 00:00:00 | 00:00:00 | 00:00:00 | |
| DB0DAN | 2026-08-31 07:37:55 | 53.02280 | 7.95297 | 34° | 35km/h | 16599m | 5.3m/s | -49.1°C | 1% | 97.85hPa | 2.8V | 00:00:00 | 00:00:00 | 00:00:00 | |
| HSKMA3-T | 2026-08-31 07:37:52 | 53.02260 | 7.95272 | 37° | 29km/h | 16583m | 4.7m/s | -48.9°C | 0.1% | 98hPa | 2.7V | 18:12:15 | 01:02:23 | 00:00:00 | |
| DO2JMG | 2026-08-31 07:37:51 | 53.02254 | 7.95264 | 39° | 31km/h | 16579m | 4.7m/s | -49°C | 0% | 98.1hPa | 2.8V | 18:12:15 | 01:02:22 | 00:00:00 | |
| DL1XH1-15 | 2026-08-31 07:37:50 | 53.02214 | 7.95208 | 40° | 37km/h | 16546m | 6.6m/s | -49.2°C | 3.1% | 98.6hPa | 2.8V | 08:30:00 | 01:02:16 | 00:00:00 | |
| DF8AY | 2026-08-31 07:37:49 | 53.02241 | 7.95246 | 43° | 35km/h | 16568m | 4.1m/s | -48.9°C | 0.1% | 98.3hPa | 2.8V | 18:12:15 | 01:02:20 | 00:00:00 | |
| BIOWL1-15 | 2026-08-31 07:37:48 | 53.02235 | 7.95236 | 42° | 35km/h | 16563m | 5.8m/s | -48.9°C | 0% | 98.4hPa | 2.7V | 18:12:15 | 01:02:19 | 00:00:00 | |
| DL3AQ-11 | 2026-08-31 07:37:47 | 53.02221 | 7.95218 | 38° | 35km/h | 16552m | 4.5m/s | -49.1°C | 1.0% | 98.5hPa | 2.7V | 00:00:00 | 00:00:00 | 00:00:00 | |
| HTAHTA | 2026-08-31 07:37:45 | 53.02214 | 7.95208 | 40° | 37km/h | 16546m | 6.6m/s | -49.2°C | 1.0% | 98.7hPa | 2.7V | 00:00:00 | 00:00:00 | 00:00:00 | |
| HSKMA3-T | 2026-08-31 07:37:42 | 53.02193 | 7.95178 | 40° | 33km/h | 16530m | 4.8m/s | -49.5°C | 0.2% | 98.9hPa | 2.7V | 18:12:15 | 01:02:13 | 00:00:00 | |
| DO2JMG | 2026-08-31 07:37:41 | 53.02187 | 7.95169 | 45° | 31km/h | 16524m | 5.1m/s | -49.6°C | 0.1% | 98.9hPa | 2.7V | 18:12:15 | 01:02:12 | 00:00:00 | |
| DJ2KF-10 | 2026-08-31 07:37:41 | 53.02187 | 7.95169 | 46° | 42km/h | 16525m | 5.1m/s | -49.6°C | 3.2% | 98.9hPa | 2.7V | 00:00:00 | 01:02:12 | 00:00:00 | |
| DL1XH1-15 | 2026-08-31 07:37:40 | 53.02163 | 7.95101 | 67° | 37km/h | 16493m | 5.4m/s | -49.7°C | 3.2% | 99.4hPa | 2.7V | 08:30:00 | 01:02:06 | 00:00:00 | |
| DF8AY | 2026-08-31 07:37:38 | 53.02173 | 7.95137 | 60° | 31km/h | 16509m | 6.3m/s | -49.7°C | 0.2% | 99.2hPa | 2.8V | 18:12:15 | 01:02:09 | 00:00:00 | |
| HSKMA3-T | 2026-08-31 07:37:32 | 53.02151 | 7.95059 | 62° | 38km/h | 16477m | 3.7m/s | -50°C | 0.2% | 99.7hPa | 2.7V | 18:12:15 | 01:02:03 | 00:00:00 | |
| DO2JMG | 2026-08-31 07:37:31 | 53.02146 | 7.95044 | 64° | 42km/h | 16473m | 6.3m/s | -50.1°C | 0.3% | 99.8hPa | 2.7V | 18:12:15 | 01:02:02 | 00:00:00 | |
| DL1XH-west | 2026-08-31 07:37:30 | 53.02142 | 7.95028 | 65° | 44km/h | 16467m | 4.8m/s | -50°C | 0.3% | 99.9hPa | 2.8V | 18:12:15 | 01:02:01 | 00:00:00 | |
| GOEST3-10 | 2026-08-31 07:37:30 | 53.02142 | 7.95027 | 66° | 44km/h | 16467m | 4.7m/s | -50.0°C | 3.3% | 99.8hPa | 2.7V | 00:00:00 | 00:00:00 | 00:00:00 | |
| BUE01 | 2026-08-31 07:37:29 | 53.02137 | 7.95011 | 64° | 42km/h | 16462m | 5.6m/s | -50.1°C | 1.1% | 99.9hPa | 2.7V | 00:00:00 | 00:00:00 | 00:00:00 | |
| DM0DOS-11 | 2026-08-31 07:37:28 | 53.02123 | 7.94963 | 65° | 44km/h | 16447m | 6.3m/s | -50.2°C | 3.4% | 100.1hPa | 2.7V | 08:30:00 | 01:01:57 | 00:00:00 | |
| BIOWL1-15 | 2026-08-31 07:37:27 | 53.02123 | 7.94963 | 65° | 44km/h | 16447m | 6.3m/s | -50.2°C | 0.3% | 100.1hPa | 2.7V | 18:12:15 | 01:01:57 | 00:00:00 | |
| DF8AY | 2026-08-31 07:37:27 | 53.02128 | 7.94980 | 65° | 42km/h | 16452m | 3.5m/s | -50.2°C | 0.2% | 100.1hPa | 2.7V | 18:12:15 | 01:01:58 | 00:00:00 | |
| DO2LYB-13 | 2026-08-31 07:37:26 | 53.02128 | 7.94980 | 66° | 42km/h | 16452m | 3.5m/s | -50.2°C | 1.1% | 100.1hPa | 2.7V | 00:00:00 | 00:00:00 | 00:00:00 | |
| DB0DAN | 2026-08-31 07:37:25 | 53.02118 | 7.94946 | 65° | 44km/h | 16442m | 4.7m/s | -50.2°C | 1.1% | 100.22hPa | 2.7V | 00:00:00 | 00:00:00 | 00:00:00 | |
| HSKMA3-T | 2026-08-31 07:37:22 | 53.02104 | 7.94895 | 65° | 46km/h | 16425m | 6.5m/s | -50.3°C | 0.3% | 100.5hPa | 2.8V | 18:12:15 | 01:01:53 | 00:00:00 | |
| DO2JMG | 2026-08-31 07:37:21 | 53.02099 | 7.94876 | 67° | 49km/h | 16420m | 4.8m/s | -50.3°C | 0.3% | 100.6hPa | 2.7V | 18:12:15 | 01:01:52 | 00:00:00 | |
| DL1XH1-15 | 2026-08-31 07:37:20 | 53.02074 | 7.94759 | 71° | 49km/h | 16388m | 6.2m/s | -50.2°C | 3.4% | 101hPa | 2.7V | 08:30:00 | 01:01:46 | 00:00:00 | |
| DL1XH-west | 2026-08-31 07:37:20 | 53.02094 | 7.94858 | 69° | 47km/h | 16414m | 5.5m/s | -50.2°C | 0.3% | 100.6hPa | 2.7V | 18:12:15 | 01:01:51 | 00:00:00 | |
| DN9WHV | 2026-08-31 07:37:19 | 53.02094 | 7.94858 | 70° | 47km/h | 16415m | 5.5m/s | -50.2°C | 1.1% | 100.6hPa | 2.8V | 00:00:00 | 00:00:00 | 00:00:00 | |
| DL1XH-15 | 2026-08-31 07:37:18 | 53.02066 | 7.94722 | 68° | 46km/h | 16378m | 4.3m/s | -50.2°C | 3.4% | 101.2hPa | 2.8V | 08:30:00 | 01:01:44 | 00:00:00 | |
| BIOWL1-15 | 2026-08-31 07:37:17 | 53.02082 | 7.94800 | 72° | 51km/h | 16398m | 5.9m/s | -50.3°C | 0.3% | 100.9hPa | 2.8V | 18:12:15 | 01:01:48 | 00:00:00 | |
| DO2JMG | 2026-08-31 07:37:11 | 53.02058 | 7.94684 | 70° | 51km/h | 16367m | 4.6m/s | -50.2°C | 0.3% | 101.4hPa | 2.8V | 18:12:15 | 01:01:42 | 00:00:00 | |
| DJ2KF-10 | 2026-08-31 07:37:11 | 53.02058 | 7.94684 | 70° | 49km/h | 16367m | 4.5m/s | -50.1°C | 3.4% | 101.3hPa | 2.8V | 00:00:00 | 01:01:42 | 00:00:00 | |
| DL1XH1-15 | 2026-08-31 07:37:10 | 53.02031 | 7.94564 | 70° | 51km/h | 16335m | 6.2m/s | -50.2°C | 3.4% | 101.9hPa | 2.8V | 08:30:00 | 01:01:36 | 00:00:00 | |
| DB0DAN | 2026-08-31 07:37:10 | 53.02053 | 7.94664 | 68° | 47km/h | 16362m | 6.3m/s | -50.3°C | 1.1% | 101.45hPa | 2.7V | 00:00:00 | 00:00:00 | 00:00:00 | |
| DL1XH-west | 2026-08-31 07:37:09 | 53.02048 | 7.94645 | 68° | 49km/h | 16356m | 5.3m/s | -50.2°C | 0.3% | 101.6hPa | 2.7V | 18:12:15 | 01:01:40 | 00:00:00 | |
| BIOWL1-15 | 2026-08-31 07:37:07 | 53.02039 | 7.94606 | 71° | 53km/h | 16345m | 6.2m/s | -50.2°C | 0.3% | 101.7hPa | 2.8V | 18:12:15 | 01:01:38 | 00:00:00 | |
| DF8AY | 2026-08-31 07:37:06 | 53.02035 | 7.94585 | 72° | 53km/h | 16340m | 4.3m/s | -50.2°C | 0.3% | 101.8hPa | 2.8V | 18:12:15 | 01:01:37 | 00:00:00 | |
| DO2JMG | 2026-08-31 07:37:01 | 53.02011 | 7.94484 | 66° | 51km/h | 16314m | 4.9m/s | -50.1°C | 0.3% | 102.2hPa | 2.8V | 18:12:15 | 01:01:32 | 00:00:00 | |
| HSKMA3-T | 2026-08-31 07:37:00 | 53.02006 | 7.94465 | 64° | 49km/h | 16308m | 6m/s | -50°C | 0.3% | 102.3hPa | 2.8V | 18:12:15 | 01:01:31 | 00:00:00 | |
| DL1XH-west | 2026-08-31 07:36:58 | 53.01995 | 7.94429 | 65° | 47km/h | 16298m | 6.1m/s | -50°C | 0.3% | 102.5hPa | 2.7V | 18:12:15 | 01:01:29 | 00:00:00 | |
| DF8AY | 2026-08-31 07:36:56 | 53.01986 | 7.94393 | 67° | 44km/h | 16287m | 6m/s | -50.1°C | 0.3% | 102.7hPa | 2.8V | 18:12:15 | 01:01:27 | 00:00:00 | |
| DL3AQ-11 | 2026-08-31 07:36:56 | 53.01981 | 7.94376 | 66° | 42km/h | 16282m | 4.5m/s | -50.1°C | -1.0% | 102.7hPa | 2.8V | 00:00:00 | 00:00:00 | 00:00:00 | |
| DB0DAN | 2026-08-31 07:36:55 | 53.01981 | 7.94376 | 67° | 40km/h | 16282m | 4.5m/s | -50.1°C | 1.1% | 102.7hPa | 2.8V | 00:00:00 | 00:00:00 | 00:00:00 | |
| DO2JMG | 2026-08-31 07:36:51 | 53.01962 | 7.94305 | 63° | 47km/h | 16262m | 6.8m/s | -50.2°C | 0.3% | 103hPa | 2.7V | 18:12:15 | 01:01:22 | 00:00:00 | |
| HSKMA3-T | 2026-08-31 07:36:50 | 53.01956 | 7.94288 | 60° | 47km/h | 16257m | 4.2m/s | -50.2°C | 0.4% | 103.1hPa | 2.8V | 18:12:15 | 01:01:21 | 00:00:00 | |
| DL1XH-15 | 2026-08-31 07:36:49 | 53.01912 | 7.94164 | 55° | 47km/h | 16220m | 4.2m/s | -50.1°C | 3.4% | 103.7hPa | 2.8V | 08:30:00 | 01:01:14 | 00:00:00 | |
| DM0DOS-11 | 2026-08-31 07:36:48 | 53.01931 | 7.94216 | 57° | 47km/h | 16235m | 5.2m/s | -50.1°C | 3.4% | 103.5hPa | 2.7V | 08:30:00 | 01:01:17 | 00:00:00 | |
| DL1XH-west | 2026-08-31 07:36:48 | 53.01944 | 7.94252 | 61° | 51km/h | 16246m | 4m/s | -50.2°C | 0.3% | 103.3hPa | 2.8V | 18:12:15 | 01:01:19 | 00:00:00 | |
| AA1-15 | 2026-08-31 07:36:47 | 53.01938 | 7.94234 | 59° | 49km/h | 16240m | 6.3m/s | -50.2°C | 0.3% | 103.4hPa | 2.7V | 18:12:15 | 01:01:18 | 00:00:00 | |
| BIOWL1-15 | 2026-08-31 07:36:45 | 53.01925 | 7.94199 | 58° | 49km/h | 16229m | 5.7m/s | -50.1°C | 0.3% | 103.5hPa | 2.7V | 18:12:15 | 01:01:16 | 00:00:00 | |
| DB0UT-7 | 2026-08-31 07:36:45 | 53.01925 | 7.94199 | 59° | 47km/h | 16229m | 5.7m/s | -50.1°C | 3.4% | 103.5hPa | 2.7V | 00:00:00 | 01:01:16 | 00:00:00 | |
| DN9WHV | 2026-08-31 07:36:44 | 53.01925 | 7.94199 | 59° | 49km/h | 16229m | 5.7m/s | -50.1°C | 1.1% | 103.5hPa | 2.8V | 00:00:00 | 00:00:00 | 00:00:00 | |
| DN9WHV | 2026-08-31 07:36:43 | 53.01912 | 7.94164 | 57° | 47km/h | 16220m | 4.2m/s | -50.1°C | 1.1% | 103.7hPa | 2.8V | 00:00:00 | 00:00:00 | 00:00:00 | |
| DL4BBY-15 | 2026-08-31 07:36:41 | 53.01898 | 7.94133 | 55° | 46km/h | 16209m | 5.0m/s | -53.0°C | 0% | 0hPa | 2.8V | 00:00:00 | 00:00:00 | 00:00:00 | |
| DL1XH1-15 | 2026-08-31 07:36:40 | 53.01855 | 7.94035 | 55° | 55km/h | 16177m | 5.3m/s | -49.9°C | 3.3% | 104.4hPa | 2.8V | 08:30:00 | 01:01:06 | 00:00:00 | |
| DB0DAN | 2026-08-31 07:36:40 | 53.01891 | 7.94117 | 57° | 42km/h | 16203m | 6.1m/s | -50.1°C | 1.1% | 103.94hPa | 2.7V | 00:00:00 | 00:00:00 | 00:00:00 | |
| DO2JMG | 2026-08-31 07:36:40 | 53.01891 | 7.94117 | 57° | 46km/h | 16203m | 6.1m/s | -50.1°C | 0.3% | 103.9hPa | 2.7V | 18:12:15 | 01:01:11 | 00:00:00 | |
| HSKMA3-T | 2026-08-31 07:36:39 | 53.01885 | 7.94102 | 56° | 46km/h | 16198m | 4.2m/s | -50°C | 0.3% | 104hPa | 2.8V | 18:12:15 | 01:01:10 | 00:00:00 | |
| DL1XH-15 | 2026-08-31 07:36:38 | 53.01839 | 7.93998 | 52° | 57km/h | 16166m | 5m/s | -49.9°C | 3.4% | 104.6hPa | 2.8V | 08:30:00 | 01:01:04 | 00:00:00 | |
| DM0DOS-11 | 2026-08-31 07:36:38 | 53.01863 | 7.94053 | 54° | 51km/h | 16183m | 5.9m/s | -50°C | 3.4% | 104.2hPa | 2.7V | 08:30:00 | 01:01:07 | 00:00:00 | |
| BIOWL1-15 | 2026-08-31 07:36:37 | 53.01856 | 7.94035 | 55° | 55km/h | 16177m | 5.3m/s | -49.9°C | 0.2% | 104.4hPa | 2.8V | 18:12:15 | 01:01:06 | 00:00:00 | |
| DL1XH-west | 2026-08-31 07:36:37 | 53.01871 | 7.94070 | 52° | 49km/h | 16188m | 4.3m/s | -50°C | 0.3% | 104.2hPa | 2.7V | 18:12:15 | 01:01:08 | 00:00:00 | |
| AA1-15 | 2026-08-31 07:36:36 | 53.01863 | 7.94053 | 54° | 51km/h | 16183m | 5.9m/s | -50°C | 0.3% | 104.3hPa | 2.7V | 18:12:15 | 01:01:07 | 00:00:00 | |
| DF8AY | 2026-08-31 07:36:35 | 53.01848 | 7.94016 | 54° | 55km/h | 16171m | 6m/s | -49.9°C | 0.3% | 104.4hPa | 2.8V | 18:12:15 | 01:01:05 | 00:00:00 | |
| GOEST3-10 | 2026-08-31 07:36:35 | 53.01856 | 7.94035 | 56° | 55km/h | 16177m | 5.2m/s | -49.9°C | 3.3% | 104.3hPa | 2.7V | 00:00:00 | 01:01:06 | 00:00:00 | |
| DN9WHV | 2026-08-31 07:36:34 | 53.01855 | 7.94035 | 56° | 55km/h | 16177m | 5.3m/s | -49.9°C | 1.1% | 104.4hPa | 2.7V | 00:00:00 | 00:00:00 | 00:00:00 | |
| DF4FW | 2026-08-31 07:36:33 | 53.01847 | 7.94016 | 55° | 55km/h | 16171m | 6.0m/s | -49.9°C | 1.1% | 104.4hPa | 2.7V | 00:00:00 | 00:00:00 | 00:00:00 | |
| DO9LL-15 | 2026-08-31 07:36:32 | 53.01830 | 7.93979 | 54° | 44km/h | 16161m | 5.1m/s | -49.8°C | 3.4% | 104.6hPa | 2.7V | 00:00:00 | 01:01:03 | 00:00:00 | |
| DN9WHV | 2026-08-31 07:36:31 | 53.01831 | 7.93979 | 55° | 55km/h | 16161m | 5.1m/s | -49.9°C | 1.1% | 104.6hPa | 2.7V | 00:00:00 | 00:00:00 | 00:00:00 | |
| DL1XH1-15 | 2026-08-31 07:36:30 | 53.01788 | 7.93878 | 60° | 44km/h | 16127m | 4.2m/s | -49.9°C | 3.4% | 105.2hPa | 2.7V | 08:30:00 | 01:00:56 | 00:00:00 | |
| DO2JMG | 2026-08-31 07:36:29 | 53.01810 | 7.93930 | 53° | 40km/h | 16146m | 6.5m/s | -49.8°C | 0.3% | 104.9hPa | 2.8V | 18:12:15 | 01:01:00 | 00:00:00 | |
| DL1XH-15 | 2026-08-31 07:36:28 | 53.01776 | 7.93843 | 58° | 51km/h | 16117m | 5m/s | -49.8°C | 3.4% | 105.3hPa | 2.8V | 08:30:00 | 01:00:54 | 00:00:00 | |
| DM0DOS-11 | 2026-08-31 07:36:28 | 53.01793 | 7.93892 | 59° | 38km/h | 16132m | 5.2m/s | -49.8°C | 3.4% | 105.1hPa | 2.7V | 08:30:00 | 01:00:57 | 00:00:00 | |
| HSKMA3-T | 2026-08-31 07:36:28 | 53.01804 | 7.93917 | 52° | 37km/h | 16141m | 4.2m/s | -49.8°C | 0.4% | 104.9hPa | 2.8V | 18:12:15 | 01:00:59 | 00:00:00 | |
| DL1XH-west | 2026-08-31 07:36:26 | 53.01793 | 7.93892 | 59° | 38km/h | 16132m | 5.2m/s | -49.9°C | 0.3% | 105.1hPa | 2.7V | 18:12:15 | 01:00:57 | 00:00:00 | |
| DB0DAN | 2026-08-31 07:36:25 | 53.01788 | 7.93878 | 61° | 42km/h | 16127m | 4.2m/s | -49.9°C | 1.1% | 105.19hPa | 2.7V | 00:00:00 | 00:00:00 | 00:00:00 | |
| BIOWL1-15 | 2026-08-31 07:36:24 | 53.01782 | 7.93861 | 60° | 47km/h | 16122m | 5.2m/s | -49.8°C | 0.3% | 105.3hPa | 2.8V | 18:12:15 | 01:00:55 | 00:00:00 | |
| GOEST3-10 | 2026-08-31 07:36:23 | 53.01776 | 7.93843 | 59° | 51km/h | 16117m | 5.0m/s | -49.8°C | 3.4% | 105.3hPa | 2.7V | 00:00:00 | 01:00:54 | 08:30:00 | |
| DD1CC2-15 | 2026-08-31 07:36:22 | 53.01776 | 7.93843 | 60° | 51km/h | 16117m | 5.0m/s | -49.8°C | 1.2% | 105.3hPa | 2.7V | 00:00:00 | 00:00:00 | 00:00:00 | |
| DN9WHV | 2026-08-31 07:36:21 | 53.01769 | 7.93824 | 61° | 53km/h | 16112m | 4.9m/s | -49.7°C | 1.1% | 105.4hPa | 2.7V | 00:00:00 | 00:00:00 | 00:00:00 | |
| DL1XH1-15 | 2026-08-31 07:36:20 | 53.01729 | 7.93708 | 59° | 37km/h | 16077m | 5m/s | -49.6°C | 3.3% | 106hPa | 2.7V | 08:30:00 | 01:00:46 | 00:00:00 | |
| DL1XH-15 | 2026-08-31 07:36:19 | 53.01719 | 7.93682 | 59° | 37km/h | 16065m | 4.2m/s | -49.4°C | 3.3% | 106.2hPa | 2.8V | 08:30:00 | 01:00:44 | 00:00:00 | |
| DM0DOS-11 | 2026-08-31 07:36:18 | 53.01734 | 7.93722 | 60° | 40km/h | 16082m | 4.9m/s | -49.5°C | 3.3% | 105.9hPa | 2.7V | 08:30:00 | 01:00:47 | 00:00:00 | |
| DO2JMG | 2026-08-31 07:36:18 | 53.01745 | 7.93752 | 56° | 44km/h | 16092m | 4.6m/s | -49.6°C | 0.3% | 105.8hPa | 2.8V | 18:12:15 | 01:00:49 | 00:00:00 | |
| DL1XH-west | 2026-08-31 07:36:15 | 53.01729 | 7.93708 | 59° | 37km/h | 16077m | 5m/s | -49.6°C | 0.2% | 106hPa | 2.7V | 18:12:15 | 01:00:46 | 00:00:00 | |
| BIOWL1-15 | 2026-08-31 07:36:13 | 53.01719 | 7.93682 | 59° | 37km/h | 16065m | 4.2m/s | -49.4°C | 0.2% | 106.2hPa | 2.8V | 18:12:15 | 01:00:44 | 00:00:00 | |
| HTAHTA | 2026-08-31 07:36:12 | 53.01715 | 7.93669 | 63° | 37km/h | 16060m | 6.8m/s | -49.5°C | 1.1% | 106.3hPa | 2.8V | 00:00:00 | 00:00:00 | 00:00:00 | |
| DL4BBY-15 | 2026-08-31 07:36:11 | 53.01710 | 7.93653 | 68° | 38km/h | 16054m | 4.3m/s | -52.4°C | 0% | 0hPa | 2.8V | 00:00:00 | 00:00:00 | 00:00:00 | |
| DL1XH1-15 | 2026-08-31 07:36:10 | 53.01681 | 7.93561 | 59° | 38km/h | 16025m | 4.5m/s | -49.6°C | 3.3% | 106.8hPa | 2.8V | 08:30:00 | 01:00:36 | 00:00:00 | |
| DB0DAN | 2026-08-31 07:36:10 | 53.01706 | 7.93637 | 66° | 42km/h | 16050m | 4.3m/s | -49.5°C | 1.1% | 106.39hPa | 2.7V | 00:00:00 | 00:00:00 | 00:00:00 | |
| DN9WHV | 2026-08-31 07:36:09 | 53.01706 | 7.93637 | 67° | 44km/h | 16050m | 4.3m/s | -49.5°C | 1.1% | 106.4hPa | 2.7V | 00:00:00 | 00:00:00 | 00:00:00 | |
| DM0DOS-11 | 2026-08-31 07:36:08 | 53.01686 | 7.93575 | 61° | 40km/h | 16029m | 5.2m/s | -49.6°C | 3.2% | 106.8hPa | 2.7V | 08:30:00 | 01:00:37 | 00:00:00 | |
| DO2JMG | 2026-08-31 07:36:08 | 53.01696 | 7.93605 | 59° | 44km/h | 16040m | 4.5m/s | -49.7°C | 0.3% | 106.6hPa | 2.8V | 18:12:15 | 01:00:39 | 00:00:00 | |
| DL1XH-west | 2026-08-31 07:36:04 | 53.01676 | 7.93547 | 57° | 38km/h | 16019m | 6.4m/s | -49.5°C | 0.2% | 106.9hPa | 2.8V | 18:12:15 | 01:00:35 | 00:00:00 | |
| DF8AY | 2026-08-31 07:36:03 | 53.01664 | 7.93520 | 56° | 38km/h | 16007m | 7m/s | -49.5°C | 0.2% | 107.1hPa | 2.7V | 18:12:15 | 01:00:33 | 00:00:00 | |
| DO9LL-15 | 2026-08-31 07:36:02 | 53.01664 | 7.93519 | 56° | 42km/h | 16007m | 6.9m/s | -49.4°C | 3.2% | 107.0hPa | 2.7V | 00:00:00 | 01:00:33 | 00:00:00 | |
| SONDE2-11 | 2026-08-31 07:36:01 | 53.01659 | 7.93507 | 56° | 37km/h | 16002m | 4.7m/s | -49.5°C | 1.1% | 107.2hPa | 2.7V | 00:00:00 | 00:00:00 | 00:00:00 | |
| DL1XH1-15 | 2026-08-31 07:36:00 | 53.01628 | 7.93429 | 58° | 33km/h | 15972m | 4.8m/s | -49.8°C | 3.4% | 107.7hPa | 2.7V | 08:30:00 | 01:00:26 | 00:00:00 | |
| DO2JMG | 2026-08-31 07:35:58 | 53.01642 | 7.93467 | 55° | 38km/h | 15987m | 3.1m/s | -49.6°C | 0.3% | 107.5hPa | 2.8V | 18:12:15 | 01:00:29 | 00:00:00 | |
| DL4XJ-10 | 2026-08-31 07:35:58 | 53.01642 | 7.93467 | 55° | 38km/h | 15988m | 3.0m/s | -52.5°C | 0% | 0hPa | 2.7V | 00:00:00 | 00:00:00 | 00:00:00 | |
| DM0DOS-11 | 2026-08-31 07:35:57 | 53.01632 | 7.93441 | 59° | 35km/h | 15977m | 4.4m/s | -49.7°C | 3.3% | 107.6hPa | 2.7V | 08:30:00 | 01:00:27 | 00:00:00 | |
| BUE01 | 2026-08-31 07:35:56 | 53.01632 | 7.93441 | 59° | 33km/h | 15977m | 4.4m/s | -49.7°C | 1.1% | 107.6hPa | 2.7V | 00:00:00 | 00:00:00 | 00:00:00 | |
| DB0DAN | 2026-08-31 07:35:55 | 53.01628 | 7.93429 | 58° | 31km/h | 15972m | 4.8m/s | -49.8°C | 1.1% | 107.67hPa | 2.7V | 00:00:00 | 00:00:00 | 00:00:00 | |
| DL1XH-west | 2026-08-31 07:35:53 | 53.01618 | 7.93406 | 56° | 35km/h | 15962m | 4.6m/s | -49.8°C | 0.3% | 107.9hPa | 2.8V | 18:12:15 | 01:00:24 | 00:00:00 | |
| DL1NUX | 2026-08-31 07:35:53 | 53.01590 | 7.93341 | 48° | 42km/h | 15937m | 3.8m/s | -50.1°C | 3.3% | 108.3hPa | 2.8V | 08:30:00 | 01:00:19 | 00:00:00 | |
| BIOWL1-15 | 2026-08-31 07:35:53 | 53.01608 | 7.93381 | 58° | 37km/h | 15952m | 3.9m/s | -50°C | 0.2% | 108hPa | 2.7V | 18:12:15 | 01:00:22 | 00:00:00 | |
| DF8AY | 2026-08-31 07:35:52 | 53.01613 | 7.93393 | 58° | 35km/h | 15957m | 5.8m/s | -49.9°C | 0.3% | 108hPa | 2.7V | 18:12:15 | 01:00:23 | 00:00:00 | |
| DN9WHV | 2026-08-31 07:35:51 | 53.01613 | 7.93393 | 59° | 35km/h | 15957m | 5.8m/s | -49.9°C | 1.1% | 108.0hPa | 2.7V | 00:00:00 | 00:00:00 | 00:00:00 | |
| DL1XH1-15 | 2026-08-31 07:35:50 | 53.01572 | 7.93301 | 61° | 38km/h | 15922m | 4.2m/s | -50.2°C | 3.4% | 108.5hPa | 2.7V | 08:30:00 | 01:00:16 | 00:00:00 | |
| DF4FW | 2026-08-31 07:35:49 | 53.01603 | 7.93368 | 55° | 38km/h | 15947m | 5.9m/s | -50.1°C | 1.1% | 108.1hPa | 2.8V | 00:00:00 | 00:00:00 | 00:00:00 | |
| DL1XH-15 | 2026-08-31 07:35:48 | 53.01563 | 7.93270 | 66° | 42km/h | 15911m | 5.1m/s | -50.2°C | 3.4% | 108.7hPa | 2.8V | 08:30:00 | 01:00:14 | 00:00:00 | |
| DO2JMG | 2026-08-31 07:35:47 | 53.01583 | 7.93328 | 51° | 40km/h | 15932m | 5.7m/s | -50.1°C | 0.3% | 108.3hPa | 2.7V | 18:12:15 | 01:00:18 | 00:00:00 | |
| DD8BA-10 | 2026-08-31 07:35:46 | 53.01577 | 7.93314 | 58° | 44km/h | 15927m | 4.8m/s | -50.0°C | 3.3% | 108.4hPa | 2.7V | 00:00:00 | 00:00:00 | 00:00:00 | |
| DB0UT-7 | 2026-08-31 07:35:45 | 53.01573 | 7.93301 | 62° | 49km/h | 15922m | 4.2m/s | -50.1°C | 3.4% | 108.5hPa | 2.8V | 00:00:00 | 01:00:16 | 00:00:00 | |
| BIOWL7-15 | 2026-08-31 07:35:44 | 53.01572 | 7.93301 | 63° | 38km/h | 15922m | 4.2m/s | -50.2°C | 1.1% | 108.5hPa | 2.8V | 00:00:00 | 00:00:00 | 00:00:00 | |
| DL1NUX | 2026-08-31 07:35:43 | 53.01549 | 7.93180 | 73° | 49km/h | 15884m | 4.4m/s | -50.2°C | 3.5% | 109.2hPa | 2.8V | 08:30:00 | 01:00:09 | 00:00:00 | |
| DL1XH-west | 2026-08-31 07:35:42 | 53.01560 | 7.93253 | 73° | 42km/h | 15905m | 5.7m/s | -50.2°C | 0.4% | 108.8hPa | 2.8V | 18:12:15 | 01:00:13 | 00:00:00 | |
| BIOWL1-15 | 2026-08-31 07:35:41 | 53.01557 | 7.93236 | 78° | 44km/h | 15899m | 5.7m/s | -50.3°C | 0.4% | 108.9hPa | 2.7V | 18:12:15 | 01:00:12 | 00:00:00 | |
| DB0NH | 2026-08-31 07:35:41 | 53.01557 | 7.93236 | 79° | 51km/h | 15900m | 5.6m/s | -50.2°C | 3.5% | 108.8hPa | 2.7V | 00:00:00 | 01:00:12 | 00:00:00 | |
| DL1XH1-15 | 2026-08-31 07:35:40 | 53.01538 | 7.93123 | 67° | 49km/h | 15868m | 4.7m/s | -50.1°C | 3.4% | 109.4hPa | 2.7V | 08:30:00 | 01:00:06 | 00:00:00 | |
| DB0DAN | 2026-08-31 07:35:40 | 53.01555 | 7.93218 | 79° | 42km/h | 15894m | 3.9m/s | -50.2°C | 1.1% | 108.99hPa | 2.7V | 00:00:00 | 00:00:00 | 00:00:00 | |
| DJ2DS-15 | 2026-08-31 07:35:39 | 53.01549 | 7.93180 | 73° | 47km/h | 15884m | 4.4m/s | -50.2°C | 1.2% | 109.2hPa | 2.8V | 00:00:00 | 00:00:00 | 00:00:00 | |
| DL1XH-15 | 2026-08-31 07:35:38 | 53.01527 | 7.93083 | 66° | 53km/h | 15858m | 4.9m/s | -50°C | 3.4% | 109.6hPa | 2.8V | 08:30:00 | 01:00:04 | 00:00:00 | |
| DO2JMG | 2026-08-31 07:35:37 | 53.01546 | 7.93160 | 73° | 47km/h | 15878m | 6.6m/s | -50.2°C | 0.4% | 109.2hPa | 2.8V | 18:12:15 | 01:00:08 | 00:00:00 | |
| HSKMA3-T | 2026-08-31 07:35:36 | 53.01542 | 7.93142 | 71° | 47km/h | 15873m | 4.4m/s | -50.2°C | 0.3% | 109.3hPa | 2.7V | 18:12:15 | 01:00:07 | 00:00:00 | |
| BIOWL1-15 | 2026-08-31 07:35:34 | 53.01513 | 7.93021 | 70° | 55km/h | 15841m | 6.4m/s | -49.9°C | 0.3% | 109.9hPa | 2.7V | 18:12:15 | 01:00:01 | 00:00:00 | |
| MET0W-2 | 2026-08-31 07:35:34 | 53.01527 | 7.93083 | 66° | 53km/h | 15858m | 4.9m/s | -50.0°C | 1.2% | 109.6hPa | 2.7V | 00:00:00 | 00:00:00 | 00:00:00 | |
| DL1NUX | 2026-08-31 07:35:33 | 53.01503 | 7.92977 | 71° | 53km/h | 15831m | 5.2m/s | -49.9°C | 3.3% | 110.1hPa | 2.7V | 08:30:00 | 00:59:59 | 00:00:00 | |
| DL1XH-west | 2026-08-31 07:35:31 | 53.01518 | 7.93042 | 70° | 53km/h | 15847m | 4.1m/s | -50°C | 0.3% | 109.8hPa | 2.8V | 18:12:15 | 01:00:02 | 00:00:00 | |
| DN9WHV | 2026-08-31 07:35:30 | 53.01517 | 7.93042 | 71° | 53km/h | 15847m | 4.1m/s | -50.0°C | 1.1% | 109.8hPa | 2.7V | 00:00:00 | 00:00:00 | 00:00:00 | |
| SO1NDE-10 | 2026-08-31 07:35:29 | 53.01508 | 7.92999 | 70° | 51km/h | 15836m | 4.1m/s | -49.9°C | 3.4% | 110.0hPa | 2.7V | 00:00:00 | 01:00:00 | 00:00:00 | |
| DL1XH-15 | 2026-08-31 07:35:28 | 53.01479 | 7.92881 | 64° | 49km/h | 15806m | 5.8m/s | -50.1°C | 3.4% | 110.5hPa | 2.7V | 08:30:00 | 00:59:54 | 00:00:00 | |
| DO2JMG | 2026-08-31 07:35:26 | 53.01495 | 7.92937 | 67° | 49km/h | 15822m | 4.8m/s | -50°C | 0.3% | 110.2hPa | 2.8V | 18:12:15 | 00:59:57 | 00:00:00 | |
| DB0DAN | 2026-08-31 07:35:25 | 53.01489 | 7.92918 | 65° | 47km/h | 15816m | 5.6m/s | -50°C | 1.1% | 110.33hPa | 2.8V | 00:00:00 | 00:00:00 | 00:00:00 | |
| GOEST3-10 | 2026-08-31 07:35:23 | 53.01479 | 7.92881 | 65° | 53km/h | 15806m | 5.7m/s | -50.0°C | 3.4% | 110.4hPa | 2.7V | 00:00:00 | 00:59:54 | 00:00:00 | |
| DL1NUX | 2026-08-31 07:35:22 | 53.01449 | 7.92781 | 66° | 53km/h | 15781m | 4.8m/s | -50°C | 3.5% | 110.9hPa | 2.7V | 08:30:00 | 00:59:49 | 00:00:00 | |
| DL1XH-west | 2026-08-31 07:35:21 | 53.01467 | 7.92842 | 63° | 53km/h | 15797m | 5.9m/s | -50.1°C | 0.3% | 110.6hPa | 2.8V | 18:12:15 | 00:59:52 | 00:00:00 | |
| DF8AY | 2026-08-31 07:35:20 | 53.01461 | 7.92822 | 63° | 55km/h | 15791m | 4.8m/s | -50°C | 0.3% | 110.8hPa | 2.8V | 18:12:15 | 00:59:51 | 00:00:00 | |
| DO2LYB-13 | 2026-08-31 07:35:19 | 53.01461 | 7.92822 | 64° | 55km/h | 15791m | 4.8m/s | -50.0°C | 1.2% | 110.8hPa | 2.7V | 00:00:00 | 00:00:00 | 00:00:00 | |
| DL1XH-15 | 2026-08-31 07:35:18 | 53.01423 | 7.92679 | 69° | 47km/h | 15756m | 4.3m/s | -49.8°C | 3.4% | 111.3hPa | 2.7V | 08:30:00 | 00:59:44 | 00:00:00 | |
| DL4XJ-10 | 2026-08-31 07:35:18 | 53.01449 | 7.92781 | 67° | 49km/h | 15781m | 4.7m/s | -52.9°C | 0% | 0hPa | 2.8V | 00:00:00 | 00:00:00 | 00:00:00 | |
| DM0DOS-11 | 2026-08-31 07:35:17 | 53.01439 | 7.92739 | 65° | 55km/h | 15772m | 5.9m/s | -49.9°C | 3.4% | 111.1hPa | 2.8V | 08:30:00 | 00:59:47 | 00:00:00 | |
| DO2JMG | 2026-08-31 07:35:16 | 53.01438 | 7.92739 | 66° | 55km/h | 15772m | 5.9m/s | -49.9°C | 0.3% | 111.1hPa | 2.8V | 18:12:15 | 00:59:47 | 00:00:00 | |
| DD8BA-10 | 2026-08-31 07:35:16 | 53.01438 | 7.92739 | 66° | 49km/h | 15772m | 5.9m/s | -49.8°C | 3.4% | 111.0hPa | 2.7V | 00:00:00 | 00:00:00 | 00:00:00 | |
| DB0UT-7 | 2026-08-31 07:35:15 | 53.01433 | 7.92719 | 67° | 46km/h | 15767m | 4.0m/s | -49.8°C | 3.4% | 111.1hPa | 2.7V | 00:00:00 | 00:00:00 | 08:30:00 | |
| DN9WHV | 2026-08-31 07:35:14 | 53.01433 | 7.92719 | 67° | 55km/h | 15767m | 4.0m/s | -49.9°C | 1.1% | 111.2hPa | 2.7V | 00:00:00 | 00:00:00 | 00:00:00 | |
| GOEST3-10 | 2026-08-31 07:35:13 | 53.01423 | 7.92679 | 70° | 47km/h | 15756m | 4.3m/s | -49.7°C | 3.4% | 111.3hPa | 2.7V | 00:00:00 | 00:59:44 | 00:00:00 | |
| DL1NUX | 2026-08-31 07:35:12 | 53.01399 | 7.92590 | 65° | 44km/h | 15729m | 4.4m/s | -49.7°C | 3.4% | 111.8hPa | 2.7V | 08:30:00 | 00:59:39 | 00:00:00 | |
| DL1XH-west | 2026-08-31 07:35:10 | 53.01408 | 7.92624 | 65° | 46km/h | 15740m | 5.4m/s | -49.7°C | 0.3% | 111.6hPa | 2.8V | 18:12:15 | 00:59:41 | 00:00:00 | |
| DB0DAN | 2026-08-31 07:35:10 | 53.01408 | 7.92624 | 65° | 44km/h | 15740m | 5.4m/s | -49.7°C | 1.1% | 111.61hPa | 2.8V | 00:00:00 | 00:00:00 | 00:00:00 | |
| DF8AY | 2026-08-31 07:35:09 | 53.01404 | 7.92607 | 65° | 46km/h | 15734m | 6.3m/s | -49.7°C | 0.3% | 111.8hPa | 2.7V | 18:12:15 | 00:59:40 | 00:00:00 | |
| GOEST3-10 | 2026-08-31 07:35:08 | 53.01399 | 7.92590 | 66° | 46km/h | 15729m | 4.3m/s | -49.6°C | 3.4% | 111.8hPa | 2.7V | 00:00:00 | 00:00:00 | 00:00:00 | |
| DM0DOS-11 | 2026-08-31 07:35:07 | 53.01389 | 7.92555 | 64° | 47km/h | 15719m | 4.1m/s | -49.6°C | 3.4% | 112hPa | 2.8V | 08:30:00 | 00:59:37 | 00:00:00 | |
| DO2JMG | 2026-08-31 07:35:05 | 53.01384 | 7.92537 | 69° | 47km/h | 15714m | 5.9m/s | -49.6°C | 0.3% | 112.1hPa | 2.8V | 18:12:15 | 00:59:36 | 00:00:00 | |
| DN9WHV | 2026-08-31 07:35:04 | 53.01380 | 7.92518 | 72° | 47km/h | 15708m | 5.3m/s | -49.6°C | 1.1% | 112.2hPa | 2.7V | 00:00:00 | 00:00:00 | 00:00:00 | |
| DJ2DS-15 | 2026-08-31 07:35:03 | 53.01372 | 7.92480 | 67° | 49km/h | 15698m | 6.6m/s | -49.6°C | 1.1% | 112.3hPa | 2.7V | 00:00:00 | 00:00:00 | 00:00:00 | |
| DL1NUX | 2026-08-31 07:35:02 | 53.01351 | 7.92403 | 62° | 49km/h | 15676m | 6.2m/s | -49.4°C | 3.4% | 112.7hPa | 2.7V | 08:30:00 | 00:59:29 | 00:00:00 | |
| DO9LL-15 | 2026-08-31 07:35:02 | 53.01372 | 7.92480 | 68° | 42km/h | 15698m | 6.5m/s | -49.5°C | 3.3% | 112.3hPa | 2.8V | 00:00:00 | 00:59:33 | 00:00:00 | |
| DL1XH1-15 | 2026-08-31 07:35:00 | 53.01335 | 7.92354 | 66° | 38km/h | 15660m | 4.5m/s | -49.2°C | 3.3% | 113hPa | 2.8V | 08:30:00 | 00:59:26 | 00:00:00 | |
| DL1XH-west | 2026-08-31 07:34:59 | 53.01356 | 7.92422 | 65° | 49km/h | 15681m | 3.7m/s | -49.4°C | 0.3% | 112.6hPa | 2.8V | 18:12:15 | 00:59:30 | 00:00:00 | |
| DC4HF-4 | 2026-08-31 07:34:59 | 53.01351 | 7.92403 | 62° | 47km/h | 15676m | 6.2m/s | -49.4°C | 1.1% | 112.7hPa | 2.7V | 00:00:00 | 00:00:00 | 00:00:00 | |
| DL1XH-15 | 2026-08-31 07:34:58 | 53.01327 | 7.92325 | 64° | 37km/h | 15650m | 5.4m/s | -49.1°C | 3.3% | 113.2hPa | 2.7V | 08:30:00 | 00:59:24 | 00:00:00 | |
| BIOWL1-15 | 2026-08-31 07:34:58 | 53.01351 | 7.92403 | 63° | 49km/h | 15676m | 6.2m/s | -49.4°C | 0.3% | 112.7hPa | 2.7V | 18:12:15 | 00:59:29 | 00:00:00 | |
| DJ2DS-15 | 2026-08-31 07:34:58 | 53.01351 | 7.92403 | 63° | 40km/h | 15676m | 6.1m/s | -49.3°C | 3.4% | 112.7hPa | 2.8V | 00:00:00 | 00:59:29 | 00:00:00 | |
| DM0DOS-11 | 2026-08-31 07:34:57 | 53.01340 | 7.92369 | 63° | 44km/h | 15666m | 6.5m/s | -49.3°C | 3.3% | 112.9hPa | 2.8V | 08:30:00 | 00:59:27 | 00:00:00 | |
| DO2JMG | 2026-08-31 07:34:55 | 53.01335 | 7.92354 | 66° | 38km/h | 15660m | 4.5m/s | -49.2°C | 0.3% | 113hPa | 2.8V | 18:12:15 | 00:59:26 | 00:00:00 | |
| DB0DAN | 2026-08-31 07:34:55 | 53.01335 | 7.92354 | 66° | 37km/h | 15660m | 4.5m/s | -49.2°C | 1.1% | 112.99hPa | 2.8V | 00:00:00 | 00:00:00 | 00:00:00 | |
| BUE01 | 2026-08-31 07:34:54 | 53.01327 | 7.92325 | 64° | 37km/h | 15650m | 5.4m/s | -49.1°C | 1.1% | 113.2hPa | 2.7V | 00:00:00 | 00:00:00 | 00:00:00 | |
| GOEST3-10 | 2026-08-31 07:34:53 | 53.01327 | 7.92325 | 65° | 38km/h | 15650m | 5.3m/s | -49.1°C | 3.3% | 113.1hPa | 2.7V | 00:00:00 | 00:59:24 | 08:30:00 | |
| DL1NUX | 2026-08-31 07:34:52 | 53.01310 | 7.92249 | 66° | 42km/h | 15624m | 4.8m/s | -49°C | 3.3% | 113.6hPa | 2.7V | 08:30:00 | 00:59:19 | 00:00:00 | |
| DL1XH1-15 | 2026-08-31 07:34:50 | 53.01297 | 7.92198 | 66° | 44km/h | 15607m | 6.2m/s | -48.9°C | 3.3% | 113.9hPa | 2.8V | 08:30:00 | 00:59:16 | 00:00:00 | |
| DF8AY | 2026-08-31 07:34:49 | 53.01314 | 7.92265 | 68° | 40km/h | 15629m | 6.2m/s | -49.1°C | 0.3% | 113.5hPa | 2.7V | 18:12:15 | 00:59:20 | 00:00:00 | |
| DO2SHX-10 | 2026-08-31 07:34:49 | 53.01314 | 7.92264 | 68° | 42km/h | 15630m | 6.2m/s | -49.0°C | 3.3% | 113.5hPa | 2.7V | 00:00:00 | 00:59:20 | 00:00:00 | |
| GOEST3-10 | 2026-08-31 07:34:48 | 53.01310 | 7.92249 | 67° | 44km/h | 15624m | 4.7m/s | -49.0°C | 3.3% | 113.6hPa | 2.8V | 00:00:00 | 00:00:00 | 00:00:00 | |
| DM0DOS-11 | 2026-08-31 07:34:47 | 53.01302 | 7.92215 | 69° | 44km/h | 15612m | 4.9m/s | -48.9°C | 3.3% | 113.8hPa | 2.8V | 08:30:00 | 00:59:17 | 00:00:00 | |
| BIOWL1-15 | 2026-08-31 07:34:47 | 53.01305 | 7.92232 | 68° | 44km/h | 15618m | 6.3m/s | -49°C | 0.3% | 113.7hPa | 2.7V | 18:12:15 | 00:59:18 | 00:00:00 | |
| HSKMA3-T | 2026-08-31 07:34:45 | 53.01297 | 7.92198 | 66° | 44km/h | 15607m | 6.2m/s | -48.9°C | 0.3% | 113.9hPa | 2.8V | 18:12:15 | 00:59:16 | 00:00:00 | |
| DB0UT-7 | 2026-08-31 07:34:45 | 53.01297 | 7.92198 | 67° | 40km/h | 15607m | 6.1m/s | -48.8°C | 3.3% | 113.9hPa | 2.8V | 00:00:00 | 00:59:16 | 00:00:00 | |
| DF8AY-15 | 2026-08-31 07:34:44 | 53.01292 | 7.92182 | 64° | 40km/h | 15601m | 5.1m/s | 0°C | 0% | 0hPa | 2.8V | 00:00:00 | 00:59:15 | 00:00:00 | |
| DO2JMG | 2026-08-31 07:34:44 | 53.01293 | 7.92182 | 63° | 42km/h | 15601m | 5.1m/s | -48.9°C | 0.3% | 114hPa | 2.8V | 18:12:15 | 00:59:15 | 00:00:00 | |
| DN9WHV | 2026-08-31 07:34:43 | 53.01288 | 7.92166 | 66° | 42km/h | 15596m | 5.3m/s | -48.8°C | 1.1% | 114.1hPa | 2.8V | 00:00:00 | 00:00:00 | 00:00:00 | |
| DO2SHX-10 | 2026-08-31 07:34:42 | 53.01284 | 7.92150 | 68° | 38km/h | 15591m | 5.6m/s | -48.7°C | 3.3% | 114.1hPa | 2.8V | 00:00:00 | 00:59:13 | 00:00:00 | |
| DL4BBY-15 | 2026-08-31 07:34:41 | 53.01280 | 7.92136 | 68° | 40km/h | 15585m | 4.3m/s | -51.7°C | 0% | 0hPa | 2.8V | 00:00:00 | 00:00:00 | 00:00:00 | |
| DL1XH1-15 | 2026-08-31 07:34:40 | 53.01258 | 7.92049 | 70° | 38km/h | 15554m | 6.3m/s | -48.7°C | 3.2% | 114.8hPa | 2.8V | 08:30:00 | 00:59:06 | 00:00:00 | |
| DB0DAN | 2026-08-31 07:34:40 | 53.01276 | 7.92122 | 64° | 35km/h | 15580m | 7m/s | -48.7°C | 1.1% | 114.39hPa | 2.8V | 00:00:00 | 00:00:00 | 00:00:00 | |
| DL1XH-west | 2026-08-31 07:34:38 | 53.01268 | 7.92095 | 66° | 37km/h | 15569m | 5.2m/s | -48.7°C | 0.2% | 114.6hPa | 2.7V | 18:12:15 | 00:59:09 | 00:00:00 | |
| DL4XJ-10 | 2026-08-31 07:34:38 | 53.01268 | 7.92095 | 67° | 40km/h | 15569m | 5.2m/s | -51.6°C | 0% | 0hPa | 2.8V | 00:00:00 | 00:00:00 | 00:00:00 | |
| DM0DOS-11 | 2026-08-31 07:34:37 | 53.01262 | 7.92065 | 71° | 38km/h | 15559m | 3.8m/s | -48.7°C | 3.2% | 114.7hPa | 2.8V | 08:30:00 | 00:59:07 | 00:00:00 | |
| AA1-15 | 2026-08-31 07:34:36 | 53.01262 | 7.92065 | 72° | 38km/h | 15559m | 3.8m/s | -48.7°C | 0.2% | 114.7hPa | 2.8V | 18:12:15 | 00:59:07 | 00:00:00 | |
| HSKMA3-T | 2026-08-31 07:34:34 | 53.01255 | 7.92034 | 70° | 38km/h | 15548m | 4.7m/s | -48.7°C | 0.2% | 114.9hPa | 2.7V | 18:12:15 | 00:59:05 | 00:00:00 | |
| DO2JMG | 2026-08-31 07:34:33 | 53.01252 | 7.92019 | 74° | 38km/h | 15543m | 5.6m/s | -48.7°C | 0.2% | 115hPa | 2.7V | 18:12:15 | 00:59:04 | 00:00:00 | |
| DN9WHV | 2026-08-31 07:34:33 | 53.01252 | 7.92019 | 75° | 38km/h | 15543m | 5.6m/s | -48.7°C | 1.1% | 115.0hPa | 2.8V | 00:00:00 | 00:00:00 | 00:00:00 | |
| DN9WHV | 2026-08-31 07:34:32 | 53.01250 | 7.92003 | 78° | 40km/h | 15537m | 5.6m/s | -48.6°C | 1.1% | 115.2hPa | 2.8V | 00:00:00 | 00:00:00 | 00:00:00 | |
| DL1LOL-11 | 2026-08-31 07:34:31 | 53.01250 | 7.92003 | 78° | 40km/h | 15537m | 5.6m/s | -48.6°C | 1.1% | 115.2hPa | 2.8V | 00:00:00 | 00:00:00 | 00:00:00 | |
| DL1XH1-15 | 2026-08-31 07:34:30 | 53.01231 | 7.91892 | 69° | 42km/h | 15499m | 5.8m/s | -48.2°C | 3.2% | 115.8hPa | 2.8V | 08:30:00 | 00:58:56 | 00:00:00 | |
| BIOWL1-15 | 2026-08-31 07:34:28 | 53.01234 | 7.91908 | 72° | 42km/h | 15505m | 4.9m/s | -48.3°C | 0.2% | 115.7hPa | 2.8V | 18:12:15 | 00:58:57 | 00:00:00 | |
| GOEST3-10 | 2026-08-31 07:34:28 | 53.01240 | 7.91942 | 74° | 42km/h | 15516m | 7.3m/s | -48.4°C | 3.2% | 115.5hPa | 2.8V | 00:00:00 | 00:00:00 | 00:00:00 | |
| DM0DOS-11 | 2026-08-31 07:34:27 | 53.01234 | 7.91908 | 71° | 42km/h | 15504m | 4.8m/s | -48.3°C | 3.2% | 115.7hPa | 2.8V | 08:30:00 | 00:58:57 | 00:00:00 | |
| DL1XH-west | 2026-08-31 07:34:27 | 53.01237 | 7.91925 | 74° | 42km/h | 15509m | 4.9m/s | -48.4°C | 0.2% | 115.6hPa | 2.7V | 18:12:15 | 00:58:58 | 00:00:00 | |
| AA1-15 | 2026-08-31 07:34:25 | 53.01231 | 7.91892 | 70° | 42km/h | 15499m | 5.8m/s | -48.2°C | 0.2% | 115.8hPa | 2.8V | 18:12:15 | 00:58:56 | 00:00:00 | |
| DB0DAN | 2026-08-31 07:34:25 | 53.01231 | 7.91892 | 70° | 40km/h | 15499m | 5.8m/s | -48.2°C | 1.1% | 115.78hPa | 2.8V | 00:00:00 | 00:00:00 | 00:00:00 | |
| HSKMA3-T | 2026-08-31 07:34:23 | 53.01223 | 7.91858 | 72° | 44km/h | 15489m | 6.6m/s | -48.2°C | 0.2% | 116hPa | 2.7V | 18:12:15 | 00:58:54 | 00:00:00 | |
| DO2JMG | 2026-08-31 07:34:22 | 53.01220 | 7.91840 | 74° | 46km/h | 15483m | 4.9m/s | -48.1°C | 0.2% | 116.1hPa | 2.7V | 18:12:15 | 00:58:53 | 00:00:00 | |
| DN9WHV | 2026-08-31 07:34:22 | 53.01220 | 7.91840 | 75° | 46km/h | 15483m | 4.9m/s | -48.1°C | 1.1% | 116.1hPa | 2.8V | 00:00:00 | 00:00:00 | 00:00:00 | |
| DK9SH | 2026-08-31 07:34:21 | 53.01220 | 7.91840 | 75° | 46km/h | 15483m | 4.9m/s | -48.1°C | 1.1% | 116.1hPa | 2.8V | 00:00:00 | 00:00:00 | 00:00:00 | |
| DL1XH1-15 | 2026-08-31 07:34:20 | 53.01202 | 7.91724 | 74° | 37km/h | 15444m | 4.5m/s | -47.7°C | 3.1% | 116.8hPa | 2.8V | 08:30:00 | 00:58:46 | 00:00:00 | |
| DO2SHX-10 | 2026-08-31 07:34:20 | 53.01214 | 7.91806 | 73° | 42km/h | 15471m | 4.8m/s | -47.9°C | 3.2% | 116.2hPa | 2.7V | 00:00:00 | 00:58:51 | 00:00:00 | |
| DD1CC2-15 | 2026-08-31 07:34:19 | 53.01213 | 7.91806 | 74° | 42km/h | 15471m | 4.8m/s | -48.0°C | 1.1% | 116.3hPa | 2.7V | 00:00:00 | 00:00:00 | 00:00:00 | |
| DL1XH-15 | 2026-08-31 07:34:18 | 53.01196 | 7.91693 | 74° | 40km/h | 15433m | 4.3m/s | -47.7°C | 3.1% | 117hPa | 2.7V | 08:30:00 | 00:58:44 | 00:00:00 | |
| DF8AY | 2026-08-31 07:34:17 | 53.01206 | 7.91755 | 78° | 40km/h | 15454m | 4.6m/s | -47.8°C | 0.2% | 116.6hPa | 2.7V | 18:12:15 | 00:58:48 | 00:00:00 | |
| DM0DOS-11 | 2026-08-31 07:34:17 | 53.01204 | 7.91739 | 75° | 38km/h | 15449m | 6.3m/s | -47.8°C | 3.1% | 116.7hPa | 2.7V | 08:30:00 | 00:58:47 | 00:00:00 | |
| DL1XH-west | 2026-08-31 07:34:16 | 53.01204 | 7.91739 | 76° | 38km/h | 15449m | 6.3m/s | -47.9°C | 0.2% | 116.7hPa | 2.7V | 18:12:15 | 00:58:47 | 00:00:00 | |
| BIOWL1-15 | 2026-08-31 07:34:15 | 53.01202 | 7.91724 | 74° | 37km/h | 15444m | 4.5m/s | -47.7°C | 0.1% | 116.8hPa | 2.8V | 18:12:15 | 00:58:46 | 00:00:00 | |
| DB0UT-7 | 2026-08-31 07:34:15 | 53.01202 | 7.91724 | 75° | 47km/h | 15444m | 4.5m/s | -47.7°C | 3.1% | 116.7hPa | 2.7V | 00:00:00 | 00:00:00 | 00:00:00 | |
| DO2SHX-10 | 2026-08-31 07:34:14 | 53.01199 | 7.91709 | 75° | 40km/h | 15438m | 5.9m/s | -47.7°C | 3.1% | 116.8hPa | 2.7V | 00:00:00 | 00:58:45 | 00:00:00 | |
| GOEST3-10 | 2026-08-31 07:34:13 | 53.01196 | 7.91692 | 75° | 42km/h | 15434m | 4.3m/s | -47.6°C | 3.1% | 116.9hPa | 2.7V | 00:00:00 | 00:58:44 | 00:00:00 | |
| DL1NUX | 2026-08-31 07:34:12 | 53.01180 | 7.91608 | 74° | 51km/h | 15405m | 4.9m/s | -47.6°C | 3% | 117.5hPa | 2.7V | 08:30:00 | 00:58:39 | 00:00:00 | |
| DO2JMG | 2026-08-31 07:34:12 | 53.01193 | 7.91676 | 72° | 40km/h | 15428m | 5.7m/s | -47.7°C | 0.1% | 117.1hPa | 2.7V | 18:12:15 | 00:58:43 | 00:00:00 | |
| DL4BBY-15 | 2026-08-31 07:34:11 | 53.01190 | 7.91661 | 70° | 49km/h | 15423m | 5.0m/s | -50.6°C | 0% | 0hPa | 2.8V | 00:00:00 | 00:00:00 | 00:00:00 | |
| DL1XH1-15 | 2026-08-31 07:34:10 | 53.01168 | 7.91549 | 67° | 46km/h | 15385m | 5.4m/s | -47.5°C | 3% | 117.8hPa | 2.8V | 08:30:00 | 00:58:36 | 00:00:00 | |
| DB0DAN | 2026-08-31 07:34:10 | 53.01187 | 7.91645 | 71° | 40km/h | 15418m | 5.1m/s | -47.6°C | 1% | 117.24hPa | 2.8V | 00:00:00 | 00:00:00 | 00:00:00 | |
| DF4FW | 2026-08-31 07:34:10 | 53.01187 | 7.91645 | 72° | 42km/h | 15418m | 5.1m/s | -47.6°C | 1.0% | 117.2hPa | 2.8V | 00:00:00 | 00:00:00 | 00:00:00 | |
| DN9WHV | 2026-08-31 07:34:09 | 53.01187 | 7.91645 | 72° | 42km/h | 15418m | 5.1m/s | -47.6°C | 1.0% | 117.2hPa | 2.8V | 00:00:00 | 00:00:00 | 00:00:00 | |
| DL1XH-15 | 2026-08-31 07:34:08 | 53.01160 | 7.91514 | 71° | 46km/h | 15374m | 6.2m/s | -47.5°C | 3% | 118hPa | 2.8V | 08:30:00 | 00:58:34 | 00:00:00 | |
| DF8AY | 2026-08-31 07:34:07 | 53.01176 | 7.91587 | 73° | 53km/h | 15399m | 5.8m/s | -47.6°C | 0.1% | 117.6hPa | 2.7V | 18:12:15 | 00:58:38 | 00:00:00 | |
| DM0DOS-11 | 2026-08-31 07:34:07 | 53.01172 | 7.91567 | 70° | 49km/h | 15392m | 8.2m/s | -47.6°C | 3% | 117.7hPa | 2.7V | 08:30:00 | 00:58:37 | 00:00:00 | |
| DL1XH-west | 2026-08-31 07:34:06 | 53.01172 | 7.91567 | 70° | 49km/h | 15392m | 8.2m/s | -47.6°C | 0.1% | 117.7hPa | 2.7V | 18:12:15 | 00:58:37 | 00:00:00 | |
| AA1-15 | 2026-08-31 07:34:04 | 53.01164 | 7.91531 | 70° | 44km/h | 15380m | 5.8m/s | -47.5°C | 0.1% | 117.9hPa | 2.8V | 18:12:15 | 00:58:35 | 00:00:00 | |
| DO2JMG | 2026-08-31 07:34:02 | 53.01156 | 7.91496 | 70° | 44km/h | 15369m | 4.7m/s | -47.5°C | 0.1% | 118.1hPa | 2.7V | 18:12:15 | 00:58:33 | 00:00:00 | |
| DO9LL-15 | 2026-08-31 07:34:02 | 53.01156 | 7.91496 | 71° | 55km/h | 15369m | 4.6m/s | -47.4°C | 3.0% | 118.1hPa | 2.7V | 00:00:00 | 00:58:33 | 00:00:00 | |
| SMARD9-15 | 2026-08-31 07:34:01 | 53.01148 | 7.91462 | 67° | 44km/h | 15358m | 3.8m/s | -47.4°C | 1.0% | 118.3hPa | 2.7V | 00:00:00 | 00:00:00 | 00:00:00 | |
| DL1XH1-15 | 2026-08-31 07:34:00 | 53.01128 | 7.91369 | 68° | 49km/h | 15333m | 4.7m/s | -47.5°C | 3% | 118.8hPa | 2.7V | 08:30:00 | 00:58:26 | 00:00:00 | |
| SO1NDE-10 | 2026-08-31 07:33:59 | 53.01144 | 7.91444 | 71° | 55km/h | 15353m | 5.7m/s | -47.4°C | 3.0% | 118.4hPa | 2.8V | 00:00:00 | 00:58:30 | 00:00:00 | |
| DL1XH-15 | 2026-08-31 07:33:58 | 53.01118 | 7.91330 | 65° | 53km/h | 15323m | 4.6m/s | -47.6°C | 3% | 119hPa | 2.8V | 08:30:00 | 00:58:24 | 00:00:00 | |
| DF8AY | 2026-08-31 07:33:56 | 53.01132 | 7.91388 | 69° | 47km/h | 15338m | 5.4m/s | -47.6°C | 0.1% | 118.7hPa | 2.7V | 18:12:15 | 00:58:27 | 00:00:00 | |
| DL1XH-west | 2026-08-31 07:33:55 | 53.01128 | 7.91369 | 69° | 49km/h | 15333m | 4.7m/s | -47.5°C | 0% | 118.8hPa | 2.7V | 18:12:15 | 00:58:26 | 00:00:00 | |
| BIOWL1-15 | 2026-08-31 07:33:54 | 53.01123 | 7.91350 | 68° | 51km/h | 15328m | 5.8m/s | -47.6°C | 0.1% | 118.9hPa | 2.8V | 18:12:15 | 00:58:25 | 00:00:00 | |
| AA1-15 | 2026-08-31 07:33:53 | 53.01118 | 7.91330 | 66° | 53km/h | 15323m | 4.6m/s | -47.6°C | 0.1% | 119hPa | 2.8V | 18:12:15 | 00:58:24 | 00:00:00 | |
| DO2JMG | 2026-08-31 07:33:51 | 53.01106 | 7.91291 | 58° | 53km/h | 15312m | 5.3m/s | -47.6°C | 0.1% | 119.2hPa | 2.7V | 18:12:15 | 00:58:22 | 00:00:00 | |
| DJ2DS-15 | 2026-08-31 07:33:51 | 53.01099 | 7.91272 | 57° | 51km/h | 15307m | 4.1m/s | -47.6°C | 1.0% | 119.2hPa | 2.8V | 00:00:00 | 00:00:00 | 00:00:00 | |
| DN9WHV | 2026-08-31 07:33:50 | 53.01105 | 7.91290 | 59° | 53km/h | 15312m | 5.3m/s | -47.6°C | 1.1% | 119.2hPa | 2.8V | 00:00:00 | 00:00:00 | 00:00:00 | |
| DL1XH-15 | 2026-08-31 07:33:48 | 53.01050 | 7.91129 | 64° | 57km/h | 15270m | 4.2m/s | -47.9°C | 3.1% | 119.9hPa | 2.8V | 08:30:00 | 00:58:14 | 00:00:00 | |
| DF8AY | 2026-08-31 07:33:45 | 53.01063 | 7.91172 | 61° | 57km/h | 15281m | 5.2m/s | -47.9°C | 0.1% | 119.7hPa | 2.8V | 18:12:15 | 00:58:16 | 00:00:00 | |
| DL1XH-west | 2026-08-31 07:33:44 | 53.01056 | 7.91151 | 64° | 58km/h | 15275m | 5.9m/s | -47.8°C | 0.2% | 119.8hPa | 2.8V | 18:12:15 | 00:58:15 | 00:00:00 | |
| BIOWL1-15 | 2026-08-31 07:33:43 | 53.01050 | 7.91129 | 64° | 57km/h | 15270m | 4.2m/s | -47.9°C | 0.2% | 119.9hPa | 2.8V | 18:12:15 | 00:58:14 | 00:00:00 | |
| AA1-15 | 2026-08-31 07:33:42 | 53.01044 | 7.91108 | 64° | 55km/h | 15265m | 5.7m/s | -47.9°C | 0.1% | 120hPa | 2.7V | 18:12:15 | 00:58:13 | 00:00:00 | |
| DO2JMG | 2026-08-31 07:33:41 | 53.01037 | 7.91087 | 63° | 57km/h | 15260m | 4m/s | -48°C | 0.2% | 120.1hPa | 2.7V | 18:12:15 | 00:58:12 | 00:00:00 | |
| DL4BBY-15 | 2026-08-31 07:33:41 | 53.01038 | 7.91087 | 63° | 66km/h | 15260m | 4.0m/s | -50.9°C | 0% | 0hPa | 2.7V | 00:00:00 | 00:00:00 | 00:00:00 | |
| DL1XH1-15 | 2026-08-31 07:33:40 | 53.00994 | 7.90954 | 59° | 62km/h | 15230m | 6.2m/s | -48.1°C | 3% | 120.7hPa | 2.7V | 08:30:00 | 00:58:06 | 00:00:00 | |
| HSKMA3-T | 2026-08-31 07:33:40 | 53.01031 | 7.91066 | 64° | 58km/h | 15256m | 6.2m/s | 0°C | 0% | 0hPa | 2.7V | 18:12:15 | 00:58:11 | 00:00:00 | |
| DB0DAN | 2026-08-31 07:33:40 | 53.01031 | 7.91066 | 64° | 55km/h | 15256m | 6.2m/s | -48°C | 1.1% | 120.18hPa | 2.7V | 00:00:00 | 00:00:00 | 00:00:00 | |
| DO2SHX-10 | 2026-08-31 07:33:39 | 53.01024 | 7.91043 | 64° | 60km/h | 15250m | 4.3m/s | -48.0°C | 3.1% | 120.3hPa | 2.8V | 00:00:00 | 00:58:10 | 00:00:00 | |
| DL1XH-15 | 2026-08-31 07:33:38 | 53.00978 | 7.90909 | 58° | 60km/h | 15218m | 5.8m/s | -48.2°C | 3% | 120.9hPa | 2.8V | 08:30:00 | 00:58:04 | 00:00:00 | |
| DF8AY | 2026-08-31 07:33:36 | 53.00986 | 7.90932 | 59° | 64km/h | 15224m | 5.6m/s | -48.1°C | 0.1% | 120.8hPa | 2.8V | 18:12:15 | 00:58:05 | 00:00:00 | |
| DL1XH-west | 2026-08-31 07:33:33 | 53.00978 | 7.90909 | 59° | 60km/h | 15218m | 5.8m/s | -48.2°C | 0.1% | 120.9hPa | 2.8V | 18:12:15 | 00:58:04 | 00:00:00 | |
| BIOWL1-15 | 2026-08-31 07:33:32 | 53.00970 | 7.90887 | 60° | 60km/h | 15213m | 4.7m/s | -48.3°C | 0.2% | 121hPa | 2.8V | 18:12:15 | 00:58:03 | 00:00:00 | |
| AA1-15 | 2026-08-31 07:33:31 | 53.00963 | 7.90865 | 63° | 60km/h | 15207m | 6.5m/s | -48.3°C | 0.1% | 121hPa | 2.7V | 18:12:15 | 00:58:02 | 00:00:00 | |
| DO2JMG | 2026-08-31 07:33:30 | 53.00956 | 7.90842 | 62° | 60km/h | 15202m | 4.1m/s | -48.5°C | 0.2% | 121.2hPa | 2.7V | 18:12:15 | 00:58:01 | 00:00:00 | |
| DN9WHV | 2026-08-31 07:33:30 | 53.00956 | 7.90842 | 63° | 60km/h | 15202m | 4.1m/s | -48.5°C | 1.1% | 121.2hPa | 2.8V | 00:00:00 | 00:00:00 | 00:00:00 | |
| SO1NDE-10 | 2026-08-31 07:33:29 | 53.00948 | 7.90820 | 61° | 68km/h | 15197m | 5.7m/s | -48.4°C | 3.2% | 121.3hPa | 2.8V | 00:00:00 | 00:58:00 | 00:00:00 | |
| HSKMA3-T | 2026-08-31 07:33:29 | 53.00948 | 7.90820 | 61° | 58km/h | 15196m | 5.7m/s | 0°C | 0% | 0hPa | 2.7V | 18:12:15 | 00:58:00 | 00:00:00 | |
| DL1NUX | 2026-08-31 07:33:28 | 53.00888 | 7.90681 | 49° | 75km/h | 15167m | 4.6m/s | -48.4°C | 3.2% | 121.8hPa | 2.8V | 08:30:00 | 00:57:54 | 00:00:00 | |
| GOEST3-10 | 2026-08-31 07:33:28 | 53.00941 | 7.90799 | 58° | 69km/h | 15192m | 4.1m/s | -48.4°C | 3.2% | 121.3hPa | 2.7V | 00:00:00 | 00:00:00 | 00:00:00 | |
| DN9WHV | 2026-08-31 07:33:27 | 53.00932 | 7.90777 | 57° | 64km/h | 15188m | 4.4m/s | -48.5°C | 1.1% | 121.5hPa | 2.7V | 00:00:00 | 00:00:00 | 00:00:00 | |
| DC6BW-12 | 2026-08-31 07:33:26 | 53.00932 | 7.90777 | 57° | 64km/h | 15188m | 4.4m/s | -48.5°C | 1.2% | 121.5hPa | 2.7V | 00:00:00 | 00:00:00 | 00:00:00 | |
| DB0DAN | 2026-08-31 07:33:25 | 53.00912 | 7.90730 | 53° | 69km/h | 15177m | 4.6m/s | -48.5°C | 1.1% | 121.64hPa | 2.7V | 00:00:00 | 00:00:00 | 00:00:00 | |
| DF8AY | 2026-08-31 07:33:23 | 53.00888 | 7.90681 | 49° | 75km/h | 15167m | 4.6m/s | -48.4°C | 0.2% | 121.8hPa | 2.8V | 18:12:15 | 00:57:54 | 00:00:00 | |
| BIOWL1-15 | 2026-08-31 07:33:23 | 53.00865 | 7.90634 | 53° | 71km/h | 15157m | 6.1m/s | -48.4°C | 0.3% | 122hPa | 2.7V | 18:12:15 | 00:57:52 | 00:00:00 | |
| DL1XH-west | 2026-08-31 07:33:22 | 53.00876 | 7.90658 | 50° | 73km/h | 15162m | 3.6m/s | -48.4°C | 0.3% | 121.9hPa | 2.8V | 18:12:15 | 00:57:53 | 00:00:00 | |
| DO2JMG | 2026-08-31 07:33:20 | 53.00854 | 7.90611 | 54° | 69km/h | 15153m | 3.8m/s | -48.3°C | 0.2% | 122.1hPa | 2.7V | 18:12:15 | 00:57:51 | 00:00:00 | |
| DN9WHV | 2026-08-31 07:33:19 | 53.00854 | 7.90610 | 55° | 69km/h | 15153m | 3.8m/s | -48.3°C | 1.1% | 122.1hPa | 2.8V | 00:00:00 | 00:00:00 | 00:00:00 | |
| DL1XH-15 | 2026-08-31 07:33:18 | 53.00774 | 7.90456 | 48° | 75km/h | 15117m | 4.3m/s | -48.3°C | 3.2% | 122.8hPa | 2.8V | 08:30:00 | 00:57:44 | 00:00:00 | |
| DJ2DS-15 | 2026-08-31 07:33:18 | 53.00833 | 7.90566 | 50° | 75km/h | 15142m | 4.6m/s | -48.2°C | 3.2% | 122.2hPa | 2.7V | 00:00:00 | 00:57:49 | 00:00:00 | |
| DM0DOS-11 | 2026-08-31 07:33:17 | 53.00811 | 7.90523 | 49° | 69km/h | 15132m | 4.9m/s | -48.3°C | 3.2% | 122.5hPa | 2.7V | 08:30:00 | 00:57:47 | 00:00:00 | |
| HSKMA3-T | 2026-08-31 07:33:16 | 53.00811 | 7.90523 | 50° | 69km/h | 15132m | 4.9m/s | 0°C | 0% | 0hPa | 2.7V | 18:12:15 | 00:57:47 | 00:00:00 | |
| BIOWL1-15 | 2026-08-31 07:33:13 | 53.00749 | 7.90407 | 52° | 75km/h | 15107m | 4m/s | -48.3°C | 0.3% | 123hPa | 2.8V | 18:12:15 | 00:57:42 | 00:00:00 | |
| DL1XH-west | 2026-08-31 07:33:12 | 53.00761 | 7.90432 | 50° | 77km/h | 15112m | 6.1m/s | -48.3°C | 0.2% | 122.8hPa | 2.8V | 18:12:15 | 00:57:43 | 00:00:00 | |
| DO2SHX-10 | 2026-08-31 07:33:12 | 53.00761 | 7.90432 | 51° | 73km/h | 15113m | 6.1m/s | -48.3°C | 3.2% | 122.8hPa | 2.7V | 00:00:00 | 00:57:43 | 00:00:00 | |
| DL4BBY-15 | 2026-08-31 07:33:11 | 53.00749 | 7.90407 | 53° | 78km/h | 15107m | 4.0m/s | -51.3°C | 0% | 0hPa | 2.7V | 00:00:00 | 00:00:00 | 00:00:00 | |
| DL1XH1-15 | 2026-08-31 07:33:10 | 53.00679 | 7.90271 | 44° | 71km/h | 15077m | 4.9m/s | -48.2°C | 3.1% | 123.5hPa | 2.7V | 08:30:00 | 00:57:36 | 00:00:00 | |
| DO2JMG | 2026-08-31 07:33:10 | 53.00737 | 7.90383 | 51° | 73km/h | 15102m | 6.3m/s | -48.3°C | 0.3% | 123hPa | 2.7V | 18:12:15 | 00:57:41 | 00:00:00 | |
| DB0DAN | 2026-08-31 07:33:10 | 53.00737 | 7.90383 | 51° | 69km/h | 15102m | 6.3m/s | -48.3°C | 1.1% | 123.05hPa | 2.7V | 00:00:00 | 00:00:00 | 00:00:00 | |
| AA1-15 | 2026-08-31 07:33:09 | 53.00726 | 7.90360 | 49° | 71km/h | 15097m | 4m/s | -48.3°C | 0.2% | 123.1hPa | 2.7V | 18:12:15 | 00:57:40 | 00:00:00 | |
| HSKMA3-T | 2026-08-31 07:33:05 | 53.00679 | 7.90271 | 45° | 71km/h | 15077m | 4.9m/s | 0°C | 0% | 0hPa | 2.7V | 18:12:15 | 00:57:36 | 00:00:00 | |
| DL1XH-west | 2026-08-31 07:33:02 | 53.00638 | 7.90203 | 46° | 84km/h | 15062m | 4.4m/s | -48.3°C | 0.2% | 123.8hPa | 2.8V | 18:12:15 | 00:57:33 | 00:00:00 | |
| BIOWL1-15 | 2026-08-31 07:33:01 | 53.00623 | 7.90178 | 44° | 84km/h | 15056m | 7m/s | -48.3°C | 0.2% | 123.9hPa | 2.8V | 18:12:15 | 00:57:32 | 00:00:00 | |
| BIOWL9-15 | 2026-08-31 07:32:59 | 53.00577 | 7.90101 | 46° | 86km/h | 15040m | 4.5m/s | -48.2°C | 1.1% | 124.2hPa | 2.7V | 00:00:00 | 00:00:00 | 00:00:00 | |
| DO2JMG | 2026-08-31 07:32:59 | 53.00592 | 7.90128 | 45° | 88km/h | 15045m | 6.5m/s | -48.3°C | 0.2% | 124.1hPa | 2.7V | 18:12:15 | 00:57:30 | 00:00:00 | |
| DL1XH-15 | 2026-08-31 07:32:58 | 53.00504 | 7.89981 | 44° | 80km/h | 15015m | 3.7m/s | -48°C | 3.1% | 124.7hPa | 2.7V | 08:30:00 | 00:57:24 | 00:00:00 | |
| AA1-15 | 2026-08-31 07:32:58 | 53.00577 | 7.90101 | 47° | 88km/h | 15040m | 4.5m/s | -48.2°C | 0.1% | 124.2hPa | 2.7V | 18:12:15 | 00:57:29 | 00:00:00 | |
| DJ2DS-15 | 2026-08-31 07:32:58 | 53.00577 | 7.90101 | 47° | 80km/h | 15040m | 4.4m/s | -48.1°C | 3.1% | 124.2hPa | 2.8V | 00:00:00 | 00:57:29 | 00:00:00 | |
| DM0DOS-11 | 2026-08-31 07:32:57 | 53.00547 | 7.90051 | 43° | 82km/h | 15029m | 5.2m/s | -48.1°C | 3.2% | 124.4hPa | 2.8V | 08:30:00 | 00:57:27 | 00:00:00 | |
| BIOWL1-15 | 2026-08-31 07:32:52 | 53.00458 | 7.89915 | 41° | 82km/h | 15000m | 4.4m/s | -48°C | 0.1% | 125hPa | 2.8V | 18:12:15 | 00:57:21 | 00:00:00 | |
| DF8AY | 2026-08-31 07:32:51 | 53.00474 | 7.89937 | 41° | 80km/h | 15005m | 4.8m/s | -48°C | 0.2% | 124.8hPa | 2.8V | 18:12:15 | 00:57:22 | 00:00:00 | |
| DO2JMG | 2026-08-31 07:32:48 | 53.00427 | 7.89867 | 43° | 84km/h | 14991m | 4.6m/s | -47.9°C | 0.1% | 125.1hPa | 2.7V | 18:12:15 | 00:57:19 | 00:00:00 | |
| AA1-15 | 2026-08-31 07:32:47 | 53.00412 | 7.89843 | 43° | 82km/h | 14985m | 5.9m/s | -48°C | 0.1% | 125.2hPa | 2.7V | 18:12:15 | 00:57:18 | 00:00:00 | |
| DL1XH-west | 2026-08-31 07:32:41 | 53.00331 | 7.89700 | 49° | 71km/h | 14957m | 5.1m/s | -48.5°C | 0.2% | 125.8hPa | 2.8V | 18:12:15 | 00:57:12 | 00:00:00 | |
| DB0DAN | 2026-08-31 07:32:40 | 53.00319 | 7.89678 | 50° | 69km/h | 14952m | 4.9m/s | -48.6°C | 1.1% | 125.84hPa | 2.8V | 00:00:00 | 00:00:00 | 00:00:00 | |
| BIOWL1-15 | 2026-08-31 07:32:39 | 53.00307 | 7.89655 | 49° | 71km/h | 14947m | 5m/s | -48.6°C | 0.3% | 125.9hPa | 2.7V | 18:12:15 | 00:57:10 | 00:00:00 | |
| DL1XH-15 | 2026-08-31 07:32:38 | 53.00228 | 7.89517 | 43° | 78km/h | 14918m | 4.5m/s | -48.6°C | 3.3% | 126.5hPa | 2.7V | 08:30:00 | 00:57:04 | 00:00:00 | |
| DO2JMG | 2026-08-31 07:32:38 | 53.00295 | 7.89632 | 48° | 71km/h | 14942m | 5.3m/s | -48.6°C | 0.2% | 126.1hPa | 2.7V | 18:12:15 | 00:57:09 | 00:00:00 | |
| HSKMA3-T | 2026-08-31 07:32:36 | 53.00270 | 7.89587 | 47° | 77km/h | 14933m | 5.5m/s | 0°C | 0% | 0hPa | 2.8V | 18:12:15 | 00:57:07 | 00:00:00 | |
| DL1XH-west | 2026-08-31 07:32:31 | 53.00199 | 7.89471 | 45° | 78km/h | 14911m | 5.1m/s | -48.6°C | 0.3% | 126.7hPa | 2.8V | 18:12:15 | 00:57:02 | 00:00:00 | |
| DF8AY | 2026-08-31 07:32:30 | 53.00185 | 7.89447 | 47° | 78km/h | 14906m | 4.2m/s | -48.6°C | 0.2% | 126.7hPa | 2.8V | 18:12:15 | 00:57:01 | 00:00:00 | |
| BIOWL1-15 | 2026-08-31 07:32:29 | 53.00171 | 7.89424 | 46° | 77km/h | 14902m | 4.1m/s | -48.5°C | 0.3% | 126.8hPa | 2.8V | 18:12:15 | 00:57:00 | 00:00:00 | |
| DL1XH-15 | 2026-08-31 07:32:28 | 53.00092 | 7.89283 | 46° | 75km/h | 14874m | 4.4m/s | -48.3°C | 3.2% | 127.4hPa | 2.8V | 08:30:00 | 00:56:54 | 00:00:00 | |
| DO2JMG | 2026-08-31 07:32:27 | 53.00145 | 7.89378 | 46° | 77km/h | 14893m | 3.7m/s | -48.5°C | 0.3% | 127.1hPa | 2.7V | 18:12:15 | 00:56:58 | 00:00:00 | |
| AA1-15 | 2026-08-31 07:32:25 | 53.00118 | 7.89331 | 48° | 78km/h | 14883m | 3.6m/s | -48.4°C | 0.2% | 127.2hPa | 2.8V | 18:12:15 | 00:56:56 | 00:00:00 | |
| DB0DAN | 2026-08-31 07:32:25 | 53.00118 | 7.89331 | 48° | 75km/h | 14883m | 3.6m/s | -48.4°C | 1.1% | 127.23hPa | 2.8V | 00:00:00 | 00:00:00 | 00:00:00 | |
| DL1XH-west | 2026-08-31 07:32:20 | 53.00054 | 7.89214 | 48° | 71km/h | 14859m | 5m/s | -48.2°C | 0.2% | 127.7hPa | 2.8V | 18:12:15 | 00:56:51 | 00:00:00 | |
| DF8AY | 2026-08-31 07:32:19 | 53.00042 | 7.89192 | 47° | 69km/h | 14854m | 4.8m/s | -48.2°C | 0.2% | 127.8hPa | 2.8V | 18:12:15 | 00:56:50 | 00:00:00 | |
| DL1XH-15 | 2026-08-31 07:32:18 | 52.99970 | 7.89056 | 48° | 73km/h | 14826m | 4.8m/s | -48°C | 3.1% | 128.3hPa | 2.8V | 08:30:00 | 00:56:44 | 00:00:00 | |
| BIOWL1-15 | 2026-08-31 07:32:18 | 53.00030 | 7.89170 | 49° | 69km/h | 14849m | 4.8m/s | -48.1°C | 0.3% | 127.8hPa | 2.8V | 18:12:15 | 00:56:49 | 00:00:00 | |
| DJ2DS-15 | 2026-08-31 07:32:18 | 53.00030 | 7.89170 | 49° | 71km/h | 14849m | 4.8m/s | -48.1°C | 3.3% | 127.8hPa | 2.7V | 00:00:00 | 00:56:49 | 00:00:00 | |
| DM0DOS-11 | 2026-08-31 07:32:17 | 53.00006 | 7.89124 | 49° | 73km/h | 14840m | 2.9m/s | -48°C | 3.2% | 128hPa | 2.7V | 08:30:00 | 00:56:47 | 00:00:00 | |
| DO2JMG | 2026-08-31 07:32:16 | 53.00007 | 7.89124 | 50° | 73km/h | 14840m | 2.9m/s | -48°C | 0.2% | 128hPa | 2.7V | 18:12:15 | 00:56:47 | 00:00:00 | |
| AA1-15 | 2026-08-31 07:32:15 | 52.99994 | 7.89101 | 48° | 73km/h | 14836m | 5.7m/s | -48.1°C | 0.2% | 128.1hPa | 2.7V | 18:12:15 | 00:56:46 | 00:00:00 | |
| DL1XH-west | 2026-08-31 07:32:10 | 52.99934 | 7.88986 | 50° | 71km/h | 14812m | 5.9m/s | -47.8°C | 0.2% | 128.6hPa | 2.7V | 18:12:15 | 00:56:41 | 00:00:00 | |
| DB0DAN | 2026-08-31 07:32:10 | 52.99934 | 7.88986 | 50° | 68km/h | 14812m | 5.9m/s | -47.8°C | 1.1% | 128.62hPa | 2.7V | 00:00:00 | 00:00:00 | 00:00:00 | |
| DF8AY | 2026-08-31 07:32:09 | 52.99922 | 7.88963 | 52° | 69km/h | 14807m | 3.8m/s | -47.9°C | 0.2% | 128.7hPa | 2.8V | 18:12:15 | 00:56:40 | 00:00:00 | |
| DO2SHX-10 | 2026-08-31 07:32:09 | 52.99922 | 7.88963 | 52° | 69km/h | 14807m | 3.8m/s | -47.8°C | 3.1% | 128.7hPa | 2.8V | 00:00:00 | 00:56:40 | 00:00:00 | |
| DL1XH-15 | 2026-08-31 07:32:08 | 52.99857 | 7.88823 | 50° | 73km/h | 14780m | 5.5m/s | -47.8°C | 3% | 129.2hPa | 2.8V | 08:30:00 | 00:56:34 | 00:00:00 | |
| GOEST3-10 | 2026-08-31 07:32:08 | 52.99912 | 7.88940 | 54° | 71km/h | 14803m | 5.1m/s | -47.9°C | 3.1% | 128.7hPa | 2.7V | 00:00:00 | 00:00:00 | 00:00:00 | |
| DM0DOS-11 | 2026-08-31 07:32:07 | 52.99891 | 7.88892 | 53° | 71km/h | 14793m | 5m/s | -47.9°C | 3.1% | 128.9hPa | 2.7V | 08:30:00 | 00:56:37 | 00:00:00 | |
| DO2JMG | 2026-08-31 07:32:05 | 52.99880 | 7.88869 | 52° | 69km/h | 14789m | 4.8m/s | -47.9°C | 0.1% | 129.1hPa | 2.7V | 18:12:15 | 00:56:36 | 00:00:00 | |
| AA1-15 | 2026-08-31 07:32:04 | 52.99869 | 7.88846 | 50° | 71km/h | 14784m | 3.7m/s | -47.8°C | 0.2% | 129.2hPa | 2.7V | 18:12:15 | 00:56:35 | 00:00:00 | |
| DN9WHV | 2026-08-31 07:32:03 | 52.99869 | 7.88846 | 51° | 71km/h | 14784m | 3.7m/s | -47.8°C | 1.1% | 129.2hPa | 2.7V | 00:00:00 | 00:00:00 | 00:00:00 | |
| SONCRA | 2026-08-31 07:32:02 | 52.99833 | 7.88775 | 49° | 73km/h | 14770m | 5.5m/s | -47.7°C | 1.1% | 129.4hPa | 2.7V | 00:00:00 | 00:00:00 | 00:00:00 | |
| DL1XH1-15 | 2026-08-31 07:32:00 | 52.99769 | 7.88639 | 53° | 62km/h | 14741m | 4.5m/s | -47.6°C | 3.1% | 130hPa | 2.7V | 08:30:00 | 00:56:26 | 00:00:00 | |
| DL1XH-west | 2026-08-31 07:31:59 | 52.99810 | 7.88729 | 50° | 71km/h | 14761m | 3.8m/s | -47.7°C | 0.1% | 129.6hPa | 2.7V | 18:12:15 | 00:56:30 | 00:00:00 | |
| DL1XH-15 | 2026-08-31 07:31:58 | 52.99750 | 7.88597 | 53° | 64km/h | 14731m | 3.3m/s | -47.7°C | 3.1% | 130.2hPa | 2.7V | 08:30:00 | 00:56:24 | 00:00:00 | |
| DL4XJ-10 | 2026-08-31 07:31:58 | 52.99799 | 7.88706 | 53° | 62km/h | 14756m | 5.5m/s | -50.7°C | 0% | 0hPa | 2.8V | 00:00:00 | 00:00:00 | 00:00:00 | |
| DM0DOS-11 | 2026-08-31 07:31:57 | 52.99778 | 7.88661 | 53° | 66km/h | 14746m | 6m/s | -47.6°C | 3.1% | 129.9hPa | 2.8V | 08:30:00 | 00:56:27 | 00:00:00 | |
| DL1NUX | 2026-08-31 07:31:57 | 52.99740 | 7.88576 | 52° | 60km/h | 14728m | 3.4m/s | -47.9°C | 3.1% | 130.3hPa | 2.8V | 08:30:00 | 00:56:23 | 00:00:00 | |
| BIOWL1-15 | 2026-08-31 07:31:56 | 52.99769 | 7.88640 | 53° | 62km/h | 14741m | 4.5m/s | -47.6°C | 0.2% | 130hPa | 2.7V | 18:12:15 | 00:56:26 | 00:00:00 | |
| MET0W-2 | 2026-08-31 07:31:56 | 52.99750 | 7.88597 | 53° | 62km/h | 14731m | 3.3m/s | -47.7°C | 1.1% | 130.2hPa | 2.7V | 00:00:00 | 00:00:00 | 00:00:00 | |
| DB0DAN | 2026-08-31 07:31:55 | 52.99769 | 7.88640 | 53° | 60km/h | 14741m | 4.5m/s | -47.6°C | 1.1% | 130.01hPa | 2.7V | 00:00:00 | 00:00:00 | 00:00:00 | |
| DO2JMG | 2026-08-31 07:31:54 | 52.99759 | 7.88618 | 54° | 64km/h | 14736m | 6.2m/s | -47.6°C | 0.2% | 130.1hPa | 2.7V | 18:12:15 | 00:56:25 | 00:00:00 | |
| AA1-15 | 2026-08-31 07:31:53 | 52.99750 | 7.88597 | 54° | 64km/h | 14731m | 3.3m/s | -47.7°C | 0.2% | 130.2hPa | 2.7V | 18:12:15 | 00:56:24 | 00:00:00 | |
| GOEST3-10 | 2026-08-31 07:31:53 | 52.99749 | 7.88597 | 54° | 58km/h | 14731m | 3.3m/s | -47.7°C | 3.1% | 130.1hPa | 2.7V | 00:00:00 | 00:56:24 | 08:30:00 | |
| DB0NH | 2026-08-31 07:31:52 | 52.99740 | 7.88576 | 53° | 66km/h | 14728m | 3.4m/s | -47.9°C | 3.1% | 130.3hPa | 2.8V | 00:00:00 | 00:56:23 | 00:00:00 | |
| DO2SHX-10 | 2026-08-31 07:31:51 | 52.99731 | 7.88556 | 52° | 57km/h | 14723m | 5.9m/s | -48.0°C | 3.1% | 130.3hPa | 2.8V | 00:00:00 | 00:56:22 | 00:00:00 | |
| DL1XH1-15 | 2026-08-31 07:31:50 | 52.99675 | 7.88443 | 52° | 60km/h | 14692m | 5.6m/s | -48.1°C | 3.1% | 130.9hPa | 2.8V | 08:30:00 | 00:56:16 | 00:00:00 | |
| DL1XH-west | 2026-08-31 07:31:49 | 52.99713 | 7.88520 | 50° | 58km/h | 14712m | 6m/s | -48.1°C | 0.2% | 130.6hPa | 2.7V | 18:12:15 | 00:56:20 | 00:00:00 | |
| DF8AY | 2026-08-31 07:31:48 | 52.99703 | 7.88501 | 51° | 58km/h | 14708m | 4m/s | -48.1°C | 0.2% | 130.7hPa | 2.7V | 18:12:15 | 00:56:19 | 00:00:00 | |
| GOEST3-10 | 2026-08-31 07:31:48 | 52.99703 | 7.88501 | 51° | 60km/h | 14708m | 3.9m/s | -48.0°C | 3.1% | 130.6hPa | 2.8V | 00:00:00 | 00:00:00 | 00:00:00 | |
| DM0DOS-11 | 2026-08-31 07:31:47 | 52.99685 | 7.88463 | 50° | 58km/h | 14697m | 4.5m/s | -48.1°C | 3.1% | 130.9hPa | 2.8V | 08:30:00 | 00:56:17 | 00:00:00 | |
| DL1NUX | 2026-08-31 07:31:47 | 52.99647 | 7.88381 | 53° | 60km/h | 14677m | 4.4m/s | -48.1°C | 3% | 131.2hPa | 2.7V | 08:30:00 | 00:56:13 | 00:00:00 | |
| BIOWL1-15 | 2026-08-31 07:31:44 | 52.99666 | 7.88423 | 54° | 62km/h | 14687m | 4.9m/s | -48.2°C | 0.2% | 131.1hPa | 2.7V | 18:12:15 | 00:56:15 | 00:00:00 | |
| DO2JMG | 2026-08-31 07:31:43 | 52.99656 | 7.88402 | 54° | 62km/h | 14682m | 5.4m/s | -48.2°C | 0.2% | 131.2hPa | 2.7V | 18:12:15 | 00:56:14 | 00:00:00 | |
| AA1-15 | 2026-08-31 07:31:42 | 52.99647 | 7.88381 | 53° | 60km/h | 14677m | 4.4m/s | -48.2°C | 0.1% | 131.2hPa | 2.7V | 18:12:15 | 00:56:13 | 00:00:00 | |
| DL1XH-west | 2026-08-31 07:31:38 | 52.99608 | 7.88296 | 51° | 66km/h | 14660m | 5.6m/s | -48.2°C | 0.2% | 131.6hPa | 2.7V | 18:12:15 | 00:56:09 | 00:00:00 | |
| DJ2DS-15 | 2026-08-31 07:31:38 | 52.99608 | 7.88296 | 51° | 71km/h | 14660m | 5.6m/s | -48.2°C | 3.1% | 131.6hPa | 2.7V | 00:00:00 | 00:56:09 | 00:00:00 | |
| DO2LYB-13 | 2026-08-31 07:31:37 | 52.99607 | 7.88296 | 52° | 66km/h | 14660m | 5.6m/s | -48.2°C | 1.2% | 131.6hPa | 2.7V | 00:00:00 | 00:00:00 | 00:00:00 | |
| DL1NUX | 2026-08-31 07:31:36 | 52.99527 | 7.88146 | 48° | 71km/h | 14626m | 6.1m/s | -48.4°C | 3.1% | 132.3hPa | 2.7V | 08:30:00 | 00:56:02 | 00:00:00 | |
| BIOWL1-15 | 2026-08-31 07:31:33 | 52.99551 | 7.88189 | 47° | 68km/h | 14635m | 4.5m/s | -48.2°C | 0.3% | 132.1hPa | 2.7V | 18:12:15 | 00:56:04 | 00:00:00 | |
| DO2JMG | 2026-08-31 07:31:32 | 52.99539 | 7.88168 | 48° | 69km/h | 14630m | 3.8m/s | -48.3°C | 0.2% | 132.2hPa | 2.7V | 18:12:15 | 00:56:03 | 00:00:00 | |
| AA1-15 | 2026-08-31 07:31:31 | 52.99527 | 7.88146 | 48° | 71km/h | 14626m | 6.1m/s | -48.4°C | 0.2% | 132.3hPa | 2.7V | 18:12:15 | 00:56:02 | 00:00:00 | |
| DF8AY | 2026-08-31 07:31:28 | 52.99477 | 7.88061 | 44° | 71km/h | 14604m | 6.4m/s | -48.6°C | 0.3% | 132.7hPa | 2.7V | 18:12:15 | 00:55:58 | 00:00:00 | |
| GOEST3-10 | 2026-08-31 07:31:28 | 52.99490 | 7.88081 | 45° | 69km/h | 14609m | 4.3m/s | -48.4°C | 3.1% | 132.6hPa | 2.7V | 00:00:00 | 00:00:00 | 00:00:00 | |
| DL1XH-west | 2026-08-31 07:31:28 | 52.99490 | 7.88081 | 44° | 69km/h | 14609m | 4.4m/s | -48.5°C | 0.3% | 132.6hPa | 2.8V | 18:12:15 | 00:55:59 | 00:00:00 | |
| DM0DOS-11 | 2026-08-31 07:31:27 | 52.99464 | 7.88040 | 43° | 71km/h | 14598m | 4.5m/s | -48.7°C | 3.1% | 132.9hPa | 2.7V | 08:30:00 | 00:55:57 | 00:00:00 | |
| DL1NUX | 2026-08-31 07:31:26 | 52.99397 | 7.87938 | 40° | 77km/h | 14573m | 5.1m/s | -49.5°C | 3.3% | 133.3hPa | 2.7V | 08:30:00 | 00:55:52 | 00:00:00 | |
| DO2JMG | 2026-08-31 07:31:22 | 52.99411 | 7.87959 | 42° | 77km/h | 14578m | 4.6m/s | -49.5°C | 0.4% | 133.3hPa | 2.7V | 18:12:15 | 00:55:53 | 00:00:00 | |
| AA1-15 | 2026-08-31 07:31:20 | 52.99382 | 7.87918 | 39° | 77km/h | 14568m | 5.9m/s | -49.5°C | 0.4% | 133.5hPa | 2.7V | 18:12:15 | 00:55:51 | 00:00:00 | |
| HSKMA3-T | 2026-08-31 07:31:19 | 52.99366 | 7.87897 | 38° | 80km/h | 14562m | 6m/s | 0°C | 0% | 0hPa | 2.8V | 18:12:15 | 00:55:50 | 00:00:00 | |
| DO2SHX-10 | 2026-08-31 07:31:19 | 52.99366 | 7.87897 | 38° | 80km/h | 14562m | 5.9m/s | -49.6°C | 3.4% | 133.5hPa | 2.7V | 00:00:00 | 00:55:50 | 00:00:00 | |
| DL1XH-15 | 2026-08-31 07:31:18 | 52.99273 | 7.87785 | 34° | 69km/h | 14533m | 4.3m/s | -49.8°C | 3.5% | 134.2hPa | 2.8V | 08:30:00 | 00:55:44 | 00:00:00 | |
| DF8AY | 2026-08-31 07:31:17 | 52.99334 | 7.87856 | 36° | 80km/h | 14552m | 2.9m/s | -49.9°C | 0.5% | 133.8hPa | 2.8V | 18:12:15 | 00:55:48 | 00:00:00 | |
| DM0DOS-11 | 2026-08-31 07:31:17 | 52.99318 | 7.87837 | 35° | 77km/h | 14547m | 6m/s | -49.9°C | 3.5% | 133.9hPa | 2.7V | 08:30:00 | 00:55:47 | 00:00:00 | |
| DN9WHV | 2026-08-31 07:31:17 | 52.99334 | 7.87856 | 37° | 80km/h | 14552m | 2.9m/s | -49.9°C | 1.3% | 133.8hPa | 2.7V | 00:00:00 | 00:00:00 | 00:00:00 | |
| DL1NUX | 2026-08-31 07:31:16 | 52.99244 | 7.87755 | 29° | 64km/h | 14523m | 5.9m/s | -49.8°C | 3.4% | 134.4hPa | 2.7V | 08:30:00 | 00:55:42 | 00:00:00 | |
| DO2JMG | 2026-08-31 07:31:12 | 52.99258 | 7.87769 | 32° | 68km/h | 14528m | 5m/s | -49.8°C | 0.4% | 134.3hPa | 2.8V | 18:12:15 | 00:55:43 | 00:00:00 | |
| BIOWL1-15 | 2026-08-31 07:31:12 | 52.99172 | 7.87684 | 34° | 69km/h | 14496m | 4.3m/s | -49.7°C | 0.5% | 135hPa | 2.8V | 18:12:15 | 00:55:37 | 00:00:00 | |
| DN9WHV | 2026-08-31 07:31:11 | 52.99258 | 7.87769 | 33° | 68km/h | 14528m | 5.0m/s | -49.8°C | 1.3% | 134.3hPa | 2.7V | 00:00:00 | 00:00:00 | 00:00:00 | |
| DB0DAN | 2026-08-31 07:31:10 | 52.99230 | 7.87742 | 29° | 60km/h | 14517m | 4.7m/s | -49.8°C | 1.2% | 134.52hPa | 2.7V | 00:00:00 | 00:00:00 | 00:00:00 | |
| AA1-15 | 2026-08-31 07:31:09 | 52.99216 | 7.87728 | 31° | 66km/h | 14512m | 5.9m/s | -49.8°C | 0.4% | 134.6hPa | 2.7V | 18:12:15 | 00:55:40 | 00:00:00 | |
| DD1CC8 | 2026-08-31 07:31:09 | 52.99216 | 7.87728 | 30° | 66km/h | 14512m | 5.9m/s | -49.8°C | 1.3% | 134.6hPa | 2.7V | 00:00:00 | 00:00:00 | 00:00:00 | |
| GOEST3-10 | 2026-08-31 07:31:08 | 52.99201 | 7.87714 | 32° | 69km/h | 14507m | 4.8m/s | -49.7°C | 3.5% | 134.7hPa | 2.7V | 00:00:00 | 00:00:00 | 08:30:00 | |
| DM0DOS-11 | 2026-08-31 07:31:07 | 52.99172 | 7.87684 | 34° | 69km/h | 14496m | 4.3m/s | -49.7°C | 3.5% | 134.9hPa | 2.8V | 08:30:00 | 00:55:37 | 00:00:00 | |
| DL1XH-west | 2026-08-31 07:31:07 | 52.99187 | 7.87699 | 32° | 68km/h | 14501m | 6.3m/s | -49.7°C | 0.5% | 134.8hPa | 2.8V | 18:12:15 | 00:55:38 | 00:00:00 | |
| DO2JMG | 2026-08-31 07:31:01 | 52.99104 | 7.87592 | 39° | 64km/h | 14470m | 3.4m/s | -49.7°C | 0.5% | 135.5hPa | 2.8V | 18:12:15 | 00:55:32 | 00:00:00 | |
| DL1XH1-15 | 2026-08-31 07:31:00 | 52.99030 | 7.87503 | 29° | 60km/h | 14437m | 6.1m/s | -49.7°C | 3.4% | 136.1hPa | 2.8V | 08:30:00 | 00:55:26 | 00:00:00 | |
| HSKMA3-T | 2026-08-31 07:30:59 | 52.99080 | 7.87558 | 40° | 62km/h | 14459m | 4.9m/s | 0°C | 0% | 0hPa | 2.7V | 18:12:15 | 00:55:30 | 00:00:00 | |
| AA1-15 | 2026-08-31 07:30:58 | 52.99067 | 7.87542 | 38° | 60km/h | 14455m | 5.2m/s | -49.9°C | 0.5% | 135.8hPa | 2.7V | 18:12:15 | 00:55:29 | 00:00:00 | |
| DL1XH-15 | 2026-08-31 07:30:58 | 52.99003 | 7.87474 | 36° | 66km/h | 14428m | 3.7m/s | -49.6°C | 3.3% | 136.4hPa | 2.7V | 08:30:00 | 00:55:24 | 00:00:00 | |
| DJ2DS-15 | 2026-08-31 07:30:58 | 52.99067 | 7.87542 | 38° | 62km/h | 14455m | 5.1m/s | -49.8°C | 3.5% | 135.8hPa | 2.7V | 00:00:00 | 00:55:29 | 00:00:00 | |
| DO2SHX-10 | 2026-08-31 07:30:57 | 52.99055 | 7.87527 | 35° | 60km/h | 14449m | 7.2m/s | -49.8°C | 3.5% | 135.9hPa | 2.7V | 00:00:00 | 00:55:28 | 08:30:00 | |
| DL1NUX | 2026-08-31 07:30:56 | 52.98978 | 7.87438 | 44° | 66km/h | 14418m | 5.4m/s | -49.6°C | 3.4% | 136.6hPa | 2.8V | 08:30:00 | 00:55:22 | 00:00:00 | |
| BIOWL1-15 | 2026-08-31 07:30:56 | 52.99043 | 7.87515 | 30° | 57km/h | 14443m | 4.8m/s | -49.8°C | 0.4% | 136.1hPa | 2.8V | 18:12:15 | 00:55:27 | 00:00:00 | |
| DL3AQ-11 | 2026-08-31 07:30:56 | 52.99030 | 7.87503 | 29° | 58km/h | 14437m | 6.1m/s | -49.7°C | 1.3% | 136.2hPa | 2.8V | 00:00:00 | 00:00:00 | 00:00:00 | |
| DB0DAN | 2026-08-31 07:30:55 | 52.99030 | 7.87503 | 29° | 57km/h | 14437m | 6.1m/s | -49.7°C | 1.3% | 136.15hPa | 2.8V | 00:00:00 | 00:00:00 | 00:00:00 | |
| DO2JMG | 2026-08-31 07:30:51 | 52.98978 | 7.87438 | 45° | 66km/h | 14418m | 5.4m/s | -49.6°C | 0.5% | 136.6hPa | 2.8V | 18:12:15 | 00:55:22 | 00:00:00 | |
| DL1XH1-15 | 2026-08-31 07:30:50 | 52.98911 | 7.87316 | 45° | 58km/h | 14386m | 4.6m/s | -49.3°C | 3.4% | 137.3hPa | 2.8V | 08:30:00 | 00:55:16 | 00:00:00 | |
| HSKMA3-T | 2026-08-31 07:30:49 | 52.98955 | 7.87397 | 49° | 69km/h | 14407m | 6.3m/s | 0°C | 0% | 0hPa | 2.7V | 18:12:15 | 00:55:20 | 00:00:00 | |
| DO2SHX-10 | 2026-08-31 07:30:49 | 52.98955 | 7.87397 | 49° | 68km/h | 14407m | 6.2m/s | -49.5°C | 3.4% | 136.7hPa | 2.7V | 00:00:00 | 00:55:20 | 00:00:00 | |
| DL1XH-15 | 2026-08-31 07:30:48 | 52.98890 | 7.87283 | 39° | 57km/h | 14375m | 5m/s | -49.2°C | 3.4% | 137.4hPa | 2.7V | 08:30:00 | 00:55:14 | 00:00:00 | |
| AA1-15 | 2026-08-31 07:30:47 | 52.98932 | 7.87354 | 50° | 66km/h | 14396m | 6m/s | -49.4°C | 0.4% | 137hPa | 2.7V | 18:12:15 | 00:55:18 | 00:00:00 | |
| BIOWL1-15 | 2026-08-31 07:30:46 | 52.98921 | 7.87334 | 49° | 60km/h | 14391m | 4.6m/s | -49.3°C | 0.5% | 137.1hPa | 2.8V | 18:12:15 | 00:55:17 | 00:00:00 | |
| DF8AY | 2026-08-31 07:30:45 | 52.98911 | 7.87316 | 46° | 58km/h | 14386m | 4.6m/s | -49.3°C | 0.5% | 137.3hPa | 2.8V | 18:12:15 | 00:55:16 | 00:00:00 | |
| Es werden nur die letzten 3500 von 5609 Frames angezeigt. GPX/KML und Diagramme bleiben verfügbar. | |||||||||||||||